<?xml version="1.0" encoding="UTF-8" standalone="no" ?>
<gpx xmlns="http://www.topografix.com/GPX/1/1" xmlns:xsi="http://www.w3.org/2001/XMLSchema-instance" xsi:schemaLocation="http://www.topografix.com/GPX/1/1 http://www.topografix.com/GPX/1/1/gpx.xsd" version="1.1" creator="VisuGPX - https://www.visugpx.com">
  <metadata>
    <name>2015-08-30 Balade Joz34</name>
    <desc><![CDATA[Passage par la Corniche des Cévennes et les Gorges du Tarn]]></desc>
  </metadata>
  <trk>
    <name><![CDATA[2015-08-30 Balade Joz34_1]]></name>
    <trkseg>
      <trkpt lat="43.61991" lon="3.83813">
        <ele>74.2</ele>
        <time>2015-08-30T06:16:55Z</time>
      </trkpt>
      <trkpt lat="43.6199" lon="3.83812">
        <ele>75.6</ele>
        <time>2015-08-30T06:16:58Z</time>
      </trkpt>
      <trkpt lat="43.61983" lon="3.838">
        <ele>77</ele>
        <time>2015-08-30T06:17:01Z</time>
      </trkpt>
      <trkpt lat="43.61978" lon="3.83794">
        <ele>77.5</ele>
        <time>2015-08-30T06:17:02Z</time>
      </trkpt>
      <trkpt lat="43.61972" lon="3.83791">
        <ele>78</ele>
        <time>2015-08-30T06:17:03Z</time>
      </trkpt>
      <trkpt lat="43.61966" lon="3.8379">
        <ele>78</ele>
        <time>2015-08-30T06:17:04Z</time>
      </trkpt>
      <trkpt lat="43.61959" lon="3.83794">
        <ele>78.5</ele>
        <time>2015-08-30T06:17:05Z</time>
      </trkpt>
      <trkpt lat="43.61791" lon="3.83935">
        <ele>86.7</ele>
        <time>2015-08-30T06:17:27Z</time>
      </trkpt>
      <trkpt lat="43.61777" lon="3.8396">
        <ele>86.2</ele>
        <time>2015-08-30T06:17:30Z</time>
      </trkpt>
      <trkpt lat="43.6177" lon="3.83967">
        <ele>86.2</ele>
        <time>2015-08-30T06:17:31Z</time>
      </trkpt>
      <trkpt lat="43.61762" lon="3.83972">
        <ele>86.7</ele>
        <time>2015-08-30T06:17:32Z</time>
      </trkpt>
      <trkpt lat="43.61667" lon="3.84047">
        <ele>91.9</ele>
        <time>2015-08-30T06:17:42Z</time>
      </trkpt>
      <trkpt lat="43.61628" lon="3.84088">
        <ele>92.9</ele>
        <time>2015-08-30T06:17:50Z</time>
      </trkpt>
      <trkpt lat="43.61623" lon="3.84091">
        <ele>90.5</ele>
        <time>2015-08-30T06:18:11Z</time>
      </trkpt>
      <trkpt lat="43.61617" lon="3.84088">
        <ele>90</ele>
        <time>2015-08-30T06:18:12Z</time>
      </trkpt>
      <trkpt lat="43.6161" lon="3.84083">
        <ele>89.5</ele>
        <time>2015-08-30T06:18:13Z</time>
      </trkpt>
      <trkpt lat="43.6155" lon="3.84006">
        <ele>85.2</ele>
        <time>2015-08-30T06:18:20Z</time>
      </trkpt>
      <trkpt lat="43.61537" lon="3.83997">
        <ele>84.3</ele>
        <time>2015-08-30T06:18:21Z</time>
      </trkpt>
      <trkpt lat="43.61523" lon="3.83988">
        <ele>83.8</ele>
        <time>2015-08-30T06:18:22Z</time>
      </trkpt>
      <trkpt lat="43.61222" lon="3.8389">
        <ele>71.3</ele>
        <time>2015-08-30T06:18:41Z</time>
      </trkpt>
      <trkpt lat="43.60997" lon="3.83875">
        <ele>71.8</ele>
        <time>2015-08-30T06:18:54Z</time>
      </trkpt>
      <trkpt lat="43.60787" lon="3.838">
        <ele>72.2</ele>
        <time>2015-08-30T06:19:06Z</time>
      </trkpt>
      <trkpt lat="43.60639" lon="3.83804">
        <ele>69.4</ele>
        <time>2015-08-30T06:19:14Z</time>
      </trkpt>
      <trkpt lat="43.60475" lon="3.83879">
        <ele>63.6</ele>
        <time>2015-08-30T06:19:23Z</time>
      </trkpt>
      <trkpt lat="43.60086" lon="3.83984">
        <ele>53</ele>
        <time>2015-08-30T06:19:43Z</time>
      </trkpt>
      <trkpt lat="43.5994" lon="3.84101">
        <ele>49.2</ele>
        <time>2015-08-30T06:19:51Z</time>
      </trkpt>
      <trkpt lat="43.59745" lon="3.84313">
        <ele>48.2</ele>
        <time>2015-08-30T06:20:03Z</time>
      </trkpt>
      <trkpt lat="43.5967" lon="3.84462">
        <ele>52.1</ele>
        <time>2015-08-30T06:20:10Z</time>
      </trkpt>
      <trkpt lat="43.59661" lon="3.84487">
        <ele>54.9</ele>
        <time>2015-08-30T06:20:14Z</time>
      </trkpt>
      <trkpt lat="43.59662" lon="3.84486">
        <ele>57.8</ele>
        <time>2015-08-30T06:20:26Z</time>
      </trkpt>
      <trkpt lat="43.5949" lon="3.84905">
        <ele>66</ele>
        <time>2015-08-30T06:21:11Z</time>
      </trkpt>
      <trkpt lat="43.59387" lon="3.85089">
        <ele>66.5</ele>
        <time>2015-08-30T06:21:20Z</time>
      </trkpt>
      <trkpt lat="43.59259" lon="3.85246">
        <ele>65</ele>
        <time>2015-08-30T06:21:29Z</time>
      </trkpt>
      <trkpt lat="43.59155" lon="3.85404">
        <ele>65</ele>
        <time>2015-08-30T06:21:37Z</time>
      </trkpt>
      <trkpt lat="43.59047" lon="3.85524">
        <ele>67</ele>
        <time>2015-08-30T06:21:45Z</time>
      </trkpt>
      <trkpt lat="43.59018" lon="3.85576">
        <ele>63.6</ele>
        <time>2015-08-30T06:21:52Z</time>
      </trkpt>
      <trkpt lat="43.59015" lon="3.85579">
        <ele>63.1</ele>
        <time>2015-08-30T06:21:53Z</time>
      </trkpt>
      <trkpt lat="43.58988" lon="3.8559">
        <ele>61.2</ele>
        <time>2015-08-30T06:21:56Z</time>
      </trkpt>
      <trkpt lat="43.58977" lon="3.85601">
        <ele>60.2</ele>
        <time>2015-08-30T06:21:57Z</time>
      </trkpt>
      <trkpt lat="43.58967" lon="3.85617">
        <ele>59.7</ele>
        <time>2015-08-30T06:21:58Z</time>
      </trkpt>
      <trkpt lat="43.58943" lon="3.85688">
        <ele>57.3</ele>
        <time>2015-08-30T06:22:02Z</time>
      </trkpt>
      <trkpt lat="43.58932" lon="3.857">
        <ele>56.9</ele>
        <time>2015-08-30T06:22:03Z</time>
      </trkpt>
      <trkpt lat="43.58881" lon="3.85725">
        <ele>54.5</ele>
        <time>2015-08-30T06:22:06Z</time>
      </trkpt>
      <trkpt lat="43.58834" lon="3.85758">
        <ele>53</ele>
        <time>2015-08-30T06:22:09Z</time>
      </trkpt>
      <trkpt lat="43.58762" lon="3.8583">
        <ele>50.6</ele>
        <time>2015-08-30T06:22:16Z</time>
      </trkpt>
      <trkpt lat="43.58647" lon="3.85896">
        <ele>51.1</ele>
        <time>2015-08-30T06:22:34Z</time>
      </trkpt>
      <trkpt lat="43.58367" lon="3.86141">
        <ele>41.5</ele>
        <time>2015-08-30T06:22:53Z</time>
      </trkpt>
      <trkpt lat="43.58252" lon="3.86288">
        <ele>39.6</ele>
        <time>2015-08-30T06:23:02Z</time>
      </trkpt>
      <trkpt lat="43.58187" lon="3.8639">
        <ele>37.6</ele>
        <time>2015-08-30T06:23:08Z</time>
      </trkpt>
      <trkpt lat="43.57978" lon="3.86872">
        <ele>30.4</ele>
        <time>2015-08-30T06:23:38Z</time>
      </trkpt>
      <trkpt lat="43.57979" lon="3.86875">
        <ele>30.4</ele>
        <time>2015-08-30T06:23:59Z</time>
      </trkpt>
      <trkpt lat="43.57901" lon="3.87037">
        <ele>31.4</ele>
        <time>2015-08-30T06:24:23Z</time>
      </trkpt>
      <trkpt lat="43.57787" lon="3.87224">
        <ele>38.1</ele>
        <time>2015-08-30T06:24:32Z</time>
      </trkpt>
      <trkpt lat="43.57688" lon="3.87331">
        <ele>33.8</ele>
        <time>2015-08-30T06:24:40Z</time>
      </trkpt>
      <trkpt lat="43.57676" lon="3.87338">
        <ele>32.3</ele>
        <time>2015-08-30T06:24:42Z</time>
      </trkpt>
      <trkpt lat="43.5767" lon="3.87339">
        <ele>31.9</ele>
        <time>2015-08-30T06:24:43Z</time>
      </trkpt>
      <trkpt lat="43.5765" lon="3.87338">
        <ele>30.9</ele>
        <time>2015-08-30T06:24:45Z</time>
      </trkpt>
      <trkpt lat="43.57638" lon="3.87342">
        <ele>29.9</ele>
        <time>2015-08-30T06:24:46Z</time>
      </trkpt>
      <trkpt lat="43.57612" lon="3.87363">
        <ele>28.5</ele>
        <time>2015-08-30T06:24:48Z</time>
      </trkpt>
      <trkpt lat="43.57596" lon="3.87371">
        <ele>28</ele>
        <time>2015-08-30T06:24:49Z</time>
      </trkpt>
      <trkpt lat="43.57578" lon="3.87377">
        <ele>27.5</ele>
        <time>2015-08-30T06:24:50Z</time>
      </trkpt>
      <trkpt lat="43.57559" lon="3.87381">
        <ele>27.1</ele>
        <time>2015-08-30T06:24:51Z</time>
      </trkpt>
      <trkpt lat="43.57418" lon="3.87442">
        <ele>28</ele>
        <time>2015-08-30T06:24:58Z</time>
      </trkpt>
      <trkpt lat="43.57314" lon="3.87518">
        <ele>29.5</ele>
        <time>2015-08-30T06:25:04Z</time>
      </trkpt>
      <trkpt lat="43.57303" lon="3.87532">
        <ele>29.9</ele>
        <time>2015-08-30T06:25:05Z</time>
      </trkpt>
      <trkpt lat="43.57296" lon="3.87551">
        <ele>29.5</ele>
        <time>2015-08-30T06:25:06Z</time>
      </trkpt>
      <trkpt lat="43.57293" lon="3.87574">
        <ele>29.5</ele>
        <time>2015-08-30T06:25:07Z</time>
      </trkpt>
      <trkpt lat="43.57299" lon="3.87619">
        <ele>29</ele>
        <time>2015-08-30T06:25:09Z</time>
      </trkpt>
      <trkpt lat="43.57305" lon="3.87635">
        <ele>27.1</ele>
        <time>2015-08-30T06:25:10Z</time>
      </trkpt>
      <trkpt lat="43.57322" lon="3.8765">
        <ele>25.6</ele>
        <time>2015-08-30T06:25:11Z</time>
      </trkpt>
      <trkpt lat="43.57338" lon="3.87658">
        <ele>24.2</ele>
        <time>2015-08-30T06:25:12Z</time>
      </trkpt>
      <trkpt lat="43.57412" lon="3.87687">
        <ele>22.3</ele>
        <time>2015-08-30T06:25:15Z</time>
      </trkpt>
      <trkpt lat="43.57483" lon="3.87728">
        <ele>21.3</ele>
        <time>2015-08-30T06:25:18Z</time>
      </trkpt>
      <trkpt lat="43.58783" lon="3.89451">
        <ele>13.1</ele>
        <time>2015-08-30T06:26:24Z</time>
      </trkpt>
      <trkpt lat="43.59159" lon="3.9009">
        <ele>18.4</ele>
        <time>2015-08-30T06:26:40Z</time>
      </trkpt>
      <trkpt lat="43.60641" lon="3.93316">
        <ele>39.1</ele>
        <time>2015-08-30T06:28:00Z</time>
      </trkpt>
      <trkpt lat="43.60881" lon="3.93705">
        <ele>42.4</ele>
        <time>2015-08-30T06:28:14Z</time>
      </trkpt>
      <trkpt lat="43.61688" lon="3.94796">
        <ele>36.2</ele>
        <time>2015-08-30T06:28:47Z</time>
      </trkpt>
      <trkpt lat="43.62406" lon="3.96034">
        <ele>22.7</ele>
        <time>2015-08-30T06:29:21Z</time>
      </trkpt>
      <trkpt lat="43.62702" lon="3.96406">
        <ele>21.3</ele>
        <time>2015-08-30T06:29:33Z</time>
      </trkpt>
      <trkpt lat="43.62981" lon="3.96696">
        <ele>24.2</ele>
        <time>2015-08-30T06:29:43Z</time>
      </trkpt>
      <trkpt lat="43.63229" lon="3.96895">
        <ele>29.9</ele>
        <time>2015-08-30T06:29:50Z</time>
      </trkpt>
      <trkpt lat="43.6352" lon="3.97051">
        <ele>36.2</ele>
        <time>2015-08-30T06:29:58Z</time>
      </trkpt>
      <trkpt lat="43.63877" lon="3.97195">
        <ele>39.1</ele>
        <time>2015-08-30T06:30:08Z</time>
      </trkpt>
      <trkpt lat="43.6415" lon="3.97358">
        <ele>37.6</ele>
        <time>2015-08-30T06:30:16Z</time>
      </trkpt>
      <trkpt lat="43.64392" lon="3.97586">
        <ele>35.2</ele>
        <time>2015-08-30T06:30:24Z</time>
      </trkpt>
      <trkpt lat="43.64738" lon="3.98069">
        <ele>35.7</ele>
        <time>2015-08-30T06:30:39Z</time>
      </trkpt>
      <trkpt lat="43.6525" lon="3.98971">
        <ele>30.9</ele>
        <time>2015-08-30T06:31:07Z</time>
      </trkpt>
      <trkpt lat="43.65325" lon="3.99137">
        <ele>30.9</ele>
        <time>2015-08-30T06:31:13Z</time>
      </trkpt>
      <trkpt lat="43.65339" lon="3.99207">
        <ele>31.4</ele>
        <time>2015-08-30T06:31:15Z</time>
      </trkpt>
      <trkpt lat="43.65348" lon="3.99478">
        <ele>36.2</ele>
        <time>2015-08-30T06:31:24Z</time>
      </trkpt>
      <trkpt lat="43.65353" lon="3.995">
        <ele>37.2</ele>
        <time>2015-08-30T06:31:25Z</time>
      </trkpt>
      <trkpt lat="43.65361" lon="3.99521">
        <ele>37.6</ele>
        <time>2015-08-30T06:31:26Z</time>
      </trkpt>
      <trkpt lat="43.65418" lon="3.99637">
        <ele>37.2</ele>
        <time>2015-08-30T06:31:32Z</time>
      </trkpt>
      <trkpt lat="43.65425" lon="3.99658">
        <ele>36.7</ele>
        <time>2015-08-30T06:31:33Z</time>
      </trkpt>
      <trkpt lat="43.65454" lon="4.00003">
        <ele>29</ele>
        <time>2015-08-30T06:31:47Z</time>
      </trkpt>
      <trkpt lat="43.6545" lon="4.00012">
        <ele>28</ele>
        <time>2015-08-30T06:31:48Z</time>
      </trkpt>
      <trkpt lat="43.65444" lon="4.00019">
        <ele>27.5</ele>
        <time>2015-08-30T06:31:49Z</time>
      </trkpt>
      <trkpt lat="43.65425" lon="4.00033">
        <ele>27.1</ele>
        <time>2015-08-30T06:31:51Z</time>
      </trkpt>
      <trkpt lat="43.65416" lon="4.00045">
        <ele>26.6</ele>
        <time>2015-08-30T06:31:52Z</time>
      </trkpt>
      <trkpt lat="43.6541" lon="4.00059">
        <ele>26.6</ele>
        <time>2015-08-30T06:31:53Z</time>
      </trkpt>
      <trkpt lat="43.65406" lon="4.00075">
        <ele>26.1</ele>
        <time>2015-08-30T06:31:54Z</time>
      </trkpt>
      <trkpt lat="43.65405" lon="4.00092">
        <ele>25.6</ele>
        <time>2015-08-30T06:31:55Z</time>
      </trkpt>
      <trkpt lat="43.65409" lon="4.00108">
        <ele>25.1</ele>
        <time>2015-08-30T06:31:56Z</time>
      </trkpt>
      <trkpt lat="43.65417" lon="4.00122">
        <ele>25.1</ele>
        <time>2015-08-30T06:31:57Z</time>
      </trkpt>
      <trkpt lat="43.65428" lon="4.00131">
        <ele>25.1</ele>
        <time>2015-08-30T06:31:58Z</time>
      </trkpt>
      <trkpt lat="43.65443" lon="4.00135">
        <ele>25.6</ele>
        <time>2015-08-30T06:31:59Z</time>
      </trkpt>
      <trkpt lat="43.65463" lon="4.00136">
        <ele>26.1</ele>
        <time>2015-08-30T06:32:00Z</time>
      </trkpt>
      <trkpt lat="43.65478" lon="4.00133">
        <ele>27.1</ele>
        <time>2015-08-30T06:32:01Z</time>
      </trkpt>
      <trkpt lat="43.65491" lon="4.00128">
        <ele>27.5</ele>
        <time>2015-08-30T06:32:02Z</time>
      </trkpt>
      <trkpt lat="43.65503" lon="4.00118">
        <ele>27.5</ele>
        <time>2015-08-30T06:32:03Z</time>
      </trkpt>
      <trkpt lat="43.65512" lon="4.00106">
        <ele>27.5</ele>
        <time>2015-08-30T06:32:04Z</time>
      </trkpt>
      <trkpt lat="43.65518" lon="4.00093">
        <ele>28</ele>
        <time>2015-08-30T06:32:05Z</time>
      </trkpt>
      <trkpt lat="43.65522" lon="4.00078">
        <ele>28</ele>
        <time>2015-08-30T06:32:06Z</time>
      </trkpt>
      <trkpt lat="43.65522" lon="4.00063">
        <ele>27.5</ele>
        <time>2015-08-30T06:32:07Z</time>
      </trkpt>
      <trkpt lat="43.65524" lon="4.00049">
        <ele>27.5</ele>
        <time>2015-08-30T06:32:08Z</time>
      </trkpt>
      <trkpt lat="43.65528" lon="4.00038">
        <ele>27.5</ele>
        <time>2015-08-30T06:32:09Z</time>
      </trkpt>
      <trkpt lat="43.65532" lon="4.00029">
        <ele>28</ele>
        <time>2015-08-30T06:32:10Z</time>
      </trkpt>
      <trkpt lat="43.65538" lon="4.00022">
        <ele>28</ele>
        <time>2015-08-30T06:32:11Z</time>
      </trkpt>
      <trkpt lat="43.65574" lon="3.99987">
        <ele>29.5</ele>
        <time>2015-08-30T06:32:22Z</time>
      </trkpt>
      <trkpt lat="43.65574" lon="3.99984">
        <ele>29.9</ele>
        <time>2015-08-30T06:32:26Z</time>
      </trkpt>
      <trkpt lat="43.65574" lon="3.9998">
        <ele>29.5</ele>
        <time>2015-08-30T06:32:27Z</time>
      </trkpt>
      <trkpt lat="43.65572" lon="3.99974">
        <ele>29.5</ele>
        <time>2015-08-30T06:32:28Z</time>
      </trkpt>
      <trkpt lat="43.6555" lon="3.9992">
        <ele>30.9</ele>
        <time>2015-08-30T06:32:39Z</time>
      </trkpt>
      <trkpt lat="43.65547" lon="3.99919">
        <ele>31.4</ele>
        <time>2015-08-30T06:32:40Z</time>
      </trkpt>
      <trkpt lat="43.65545" lon="3.99921">
        <ele>31.4</ele>
        <time>2015-08-30T06:32:41Z</time>
      </trkpt>
      <trkpt lat="43.65544" lon="3.99925">
        <ele>30.9</ele>
        <time>2015-08-30T06:32:42Z</time>
      </trkpt>
      <trkpt lat="43.65545" lon="3.99927">
        <ele>30.9</ele>
        <time>2015-08-30T06:32:43Z</time>
      </trkpt>
      <trkpt lat="43.65546" lon="3.99929">
        <ele>30.9</ele>
        <time>2015-08-30T06:32:44Z</time>
      </trkpt>
      <trkpt lat="43.65546" lon="3.99929">
        <ele>29.5</ele>
        <time>2015-08-30T06:32:54Z</time>
      </trkpt>
      <trkpt lat="43.65541" lon="3.99932">
        <ele>32.3</ele>
        <time>2015-08-30T07:02:08Z</time>
      </trkpt>
      <trkpt lat="43.65545" lon="3.99928">
        <ele>29</ele>
        <time>2015-08-30T07:04:44Z</time>
      </trkpt>
      <trkpt lat="43.65545" lon="3.99928">
        <ele>29.5</ele>
        <time>2015-08-30T07:05:08Z</time>
      </trkpt>
      <trkpt lat="43.65553" lon="3.99937">
        <ele>29.5</ele>
        <time>2015-08-30T07:05:12Z</time>
      </trkpt>
      <trkpt lat="43.65559" lon="3.99948">
        <ele>29.5</ele>
        <time>2015-08-30T07:05:14Z</time>
      </trkpt>
      <trkpt lat="43.65562" lon="3.99955">
        <ele>29.5</ele>
        <time>2015-08-30T07:05:15Z</time>
      </trkpt>
      <trkpt lat="43.6557" lon="3.99981">
        <ele>28.5</ele>
        <time>2015-08-30T07:05:20Z</time>
      </trkpt>
      <trkpt lat="43.65568" lon="3.99985">
        <ele>28.5</ele>
        <time>2015-08-30T07:05:21Z</time>
      </trkpt>
      <trkpt lat="43.65564" lon="3.99991">
        <ele>28.5</ele>
        <time>2015-08-30T07:05:22Z</time>
      </trkpt>
      <trkpt lat="43.65521" lon="4.00028">
        <ele>27.1</ele>
        <time>2015-08-30T07:05:29Z</time>
      </trkpt>
      <trkpt lat="43.65516" lon="4.0003">
        <ele>27.1</ele>
        <time>2015-08-30T07:05:30Z</time>
      </trkpt>
      <trkpt lat="43.65512" lon="4.0003">
        <ele>27.1</ele>
        <time>2015-08-30T07:05:31Z</time>
      </trkpt>
      <trkpt lat="43.65508" lon="4.00029">
        <ele>27.1</ele>
        <time>2015-08-30T07:05:32Z</time>
      </trkpt>
      <trkpt lat="43.65478" lon="4.00007">
        <ele>27.5</ele>
        <time>2015-08-30T07:05:36Z</time>
      </trkpt>
      <trkpt lat="43.65464" lon="3.99985">
        <ele>27.5</ele>
        <time>2015-08-30T07:05:38Z</time>
      </trkpt>
      <trkpt lat="43.6546" lon="3.9997">
        <ele>28</ele>
        <time>2015-08-30T07:05:39Z</time>
      </trkpt>
      <trkpt lat="43.65437" lon="3.99765">
        <ele>33.3</ele>
        <time>2015-08-30T07:05:49Z</time>
      </trkpt>
      <trkpt lat="43.6551" lon="3.99068">
        <ele>42.9</ele>
        <time>2015-08-30T07:06:21Z</time>
      </trkpt>
      <trkpt lat="43.65513" lon="3.99058">
        <ele>42.9</ele>
        <time>2015-08-30T07:06:22Z</time>
      </trkpt>
      <trkpt lat="43.65529" lon="3.99033">
        <ele>42.9</ele>
        <time>2015-08-30T07:06:25Z</time>
      </trkpt>
      <trkpt lat="43.65532" lon="3.99023">
        <ele>42.9</ele>
        <time>2015-08-30T07:06:26Z</time>
      </trkpt>
      <trkpt lat="43.65533" lon="3.99012">
        <ele>42.9</ele>
        <time>2015-08-30T07:06:27Z</time>
      </trkpt>
      <trkpt lat="43.65531" lon="3.99002">
        <ele>42.4</ele>
        <time>2015-08-30T07:06:28Z</time>
      </trkpt>
      <trkpt lat="43.65526" lon="3.98994">
        <ele>42</ele>
        <time>2015-08-30T07:06:29Z</time>
      </trkpt>
      <trkpt lat="43.65514" lon="3.98979">
        <ele>40.5</ele>
        <time>2015-08-30T07:06:31Z</time>
      </trkpt>
      <trkpt lat="43.6551" lon="3.9897">
        <ele>40</ele>
        <time>2015-08-30T07:06:32Z</time>
      </trkpt>
      <trkpt lat="43.65506" lon="3.98958">
        <ele>40</ele>
        <time>2015-08-30T07:06:33Z</time>
      </trkpt>
      <trkpt lat="43.65397" lon="3.98379">
        <ele>34.3</ele>
        <time>2015-08-30T07:07:02Z</time>
      </trkpt>
      <trkpt lat="43.65397" lon="3.98361">
        <ele>34.7</ele>
        <time>2015-08-30T07:07:03Z</time>
      </trkpt>
      <trkpt lat="43.65398" lon="3.98344">
        <ele>35.2</ele>
        <time>2015-08-30T07:07:04Z</time>
      </trkpt>
      <trkpt lat="43.65402" lon="3.98327">
        <ele>35.7</ele>
        <time>2015-08-30T07:07:05Z</time>
      </trkpt>
      <trkpt lat="43.65408" lon="3.98312">
        <ele>36.2</ele>
        <time>2015-08-30T07:07:06Z</time>
      </trkpt>
      <trkpt lat="43.65416" lon="3.98298">
        <ele>36.7</ele>
        <time>2015-08-30T07:07:07Z</time>
      </trkpt>
      <trkpt lat="43.65425" lon="3.98286">
        <ele>37.2</ele>
        <time>2015-08-30T07:07:08Z</time>
      </trkpt>
      <trkpt lat="43.65443" lon="3.98269">
        <ele>38.6</ele>
        <time>2015-08-30T07:07:10Z</time>
      </trkpt>
      <trkpt lat="43.6547" lon="3.9825">
        <ele>40.5</ele>
        <time>2015-08-30T07:07:15Z</time>
      </trkpt>
      <trkpt lat="43.65484" lon="3.98247">
        <ele>40</ele>
        <time>2015-08-30T07:07:17Z</time>
      </trkpt>
      <trkpt lat="43.65493" lon="3.98244">
        <ele>40</ele>
        <time>2015-08-30T07:07:18Z</time>
      </trkpt>
      <trkpt lat="43.655" lon="3.98237">
        <ele>40</ele>
        <time>2015-08-30T07:07:19Z</time>
      </trkpt>
      <trkpt lat="43.65507" lon="3.98228">
        <ele>40.5</ele>
        <time>2015-08-30T07:07:20Z</time>
      </trkpt>
      <trkpt lat="43.65512" lon="3.98217">
        <ele>40.5</ele>
        <time>2015-08-30T07:07:21Z</time>
      </trkpt>
      <trkpt lat="43.65519" lon="3.98207">
        <ele>40.5</ele>
        <time>2015-08-30T07:07:22Z</time>
      </trkpt>
      <trkpt lat="43.65528" lon="3.98199">
        <ele>40.5</ele>
        <time>2015-08-30T07:07:23Z</time>
      </trkpt>
      <trkpt lat="43.65538" lon="3.98192">
        <ele>40.5</ele>
        <time>2015-08-30T07:07:24Z</time>
      </trkpt>
      <trkpt lat="43.65563" lon="3.9818">
        <ele>40</ele>
        <time>2015-08-30T07:07:26Z</time>
      </trkpt>
      <trkpt lat="43.65856" lon="3.98116">
        <ele>42.9</ele>
        <time>2015-08-30T07:07:43Z</time>
      </trkpt>
      <trkpt lat="43.66181" lon="3.97922">
        <ele>44.8</ele>
        <time>2015-08-30T07:08:04Z</time>
      </trkpt>
      <trkpt lat="43.66317" lon="3.97881">
        <ele>46.8</ele>
        <time>2015-08-30T07:08:12Z</time>
      </trkpt>
      <trkpt lat="43.66486" lon="3.97788">
        <ele>48.2</ele>
        <time>2015-08-30T07:08:22Z</time>
      </trkpt>
      <trkpt lat="43.66646" lon="3.97739">
        <ele>52.5</ele>
        <time>2015-08-30T07:08:32Z</time>
      </trkpt>
      <trkpt lat="43.6673" lon="3.97665">
        <ele>51.6</ele>
        <time>2015-08-30T07:08:39Z</time>
      </trkpt>
      <trkpt lat="43.66802" lon="3.9758">
        <ele>49.7</ele>
        <time>2015-08-30T07:08:46Z</time>
      </trkpt>
      <trkpt lat="43.66813" lon="3.97574">
        <ele>49.7</ele>
        <time>2015-08-30T07:08:47Z</time>
      </trkpt>
      <trkpt lat="43.66849" lon="3.97565">
        <ele>49.7</ele>
        <time>2015-08-30T07:08:50Z</time>
      </trkpt>
      <trkpt lat="43.66859" lon="3.97556">
        <ele>49.7</ele>
        <time>2015-08-30T07:08:51Z</time>
      </trkpt>
      <trkpt lat="43.66867" lon="3.9754">
        <ele>49.7</ele>
        <time>2015-08-30T07:08:52Z</time>
      </trkpt>
      <trkpt lat="43.66872" lon="3.97523">
        <ele>49.7</ele>
        <time>2015-08-30T07:08:53Z</time>
      </trkpt>
      <trkpt lat="43.66874" lon="3.97506">
        <ele>49.7</ele>
        <time>2015-08-30T07:08:54Z</time>
      </trkpt>
      <trkpt lat="43.66871" lon="3.97455">
        <ele>50.6</ele>
        <time>2015-08-30T07:08:57Z</time>
      </trkpt>
      <trkpt lat="43.66873" lon="3.97437">
        <ele>50.6</ele>
        <time>2015-08-30T07:08:58Z</time>
      </trkpt>
      <trkpt lat="43.66929" lon="3.97212">
        <ele>53</ele>
        <time>2015-08-30T07:09:07Z</time>
      </trkpt>
      <trkpt lat="43.6693" lon="3.96933">
        <ele>54</ele>
        <time>2015-08-30T07:09:15Z</time>
      </trkpt>
      <trkpt lat="43.66883" lon="3.96666">
        <ele>55.4</ele>
        <time>2015-08-30T07:09:23Z</time>
      </trkpt>
      <trkpt lat="43.66869" lon="3.96475">
        <ele>56.4</ele>
        <time>2015-08-30T07:09:29Z</time>
      </trkpt>
      <trkpt lat="43.66907" lon="3.96314">
        <ele>60.2</ele>
        <time>2015-08-30T07:09:35Z</time>
      </trkpt>
      <trkpt lat="43.6702" lon="3.96058">
        <ele>68.9</ele>
        <time>2015-08-30T07:09:46Z</time>
      </trkpt>
      <trkpt lat="43.67363" lon="3.95652">
        <ele>77</ele>
        <time>2015-08-30T07:10:07Z</time>
      </trkpt>
      <trkpt lat="43.67561" lon="3.95194">
        <ele>77</ele>
        <time>2015-08-30T07:10:24Z</time>
      </trkpt>
      <trkpt lat="43.67745" lon="3.94889">
        <ele>80.4</ele>
        <time>2015-08-30T07:10:36Z</time>
      </trkpt>
      <trkpt lat="43.67904" lon="3.94718">
        <ele>89.1</ele>
        <time>2015-08-30T07:10:45Z</time>
      </trkpt>
      <trkpt lat="43.68103" lon="3.94587">
        <ele>96.3</ele>
        <time>2015-08-30T07:10:55Z</time>
      </trkpt>
      <trkpt lat="43.68666" lon="3.94438">
        <ele>98.2</ele>
        <time>2015-08-30T07:11:19Z</time>
      </trkpt>
      <trkpt lat="43.6915" lon="3.9434">
        <ele>96.3</ele>
        <time>2015-08-30T07:11:39Z</time>
      </trkpt>
      <trkpt lat="43.7004" lon="3.94301">
        <ele>93.9</ele>
        <time>2015-08-30T07:12:18Z</time>
      </trkpt>
      <trkpt lat="43.70231" lon="3.94222">
        <ele>98.2</ele>
        <time>2015-08-30T07:12:27Z</time>
      </trkpt>
      <trkpt lat="43.70404" lon="3.94129">
        <ele>99.2</ele>
        <time>2015-08-30T07:12:36Z</time>
      </trkpt>
      <trkpt lat="43.70545" lon="3.94091">
        <ele>95.3</ele>
        <time>2015-08-30T07:12:43Z</time>
      </trkpt>
      <trkpt lat="43.70678" lon="3.94027">
        <ele>88.6</ele>
        <time>2015-08-30T07:12:53Z</time>
      </trkpt>
      <trkpt lat="43.70688" lon="3.94029">
        <ele>88.6</ele>
        <time>2015-08-30T07:12:54Z</time>
      </trkpt>
      <trkpt lat="43.70706" lon="3.94034">
        <ele>87.1</ele>
        <time>2015-08-30T07:12:56Z</time>
      </trkpt>
      <trkpt lat="43.70714" lon="3.94029">
        <ele>86.7</ele>
        <time>2015-08-30T07:12:57Z</time>
      </trkpt>
      <trkpt lat="43.7072" lon="3.94018">
        <ele>86.2</ele>
        <time>2015-08-30T07:12:58Z</time>
      </trkpt>
      <trkpt lat="43.70727" lon="3.93993">
        <ele>86.2</ele>
        <time>2015-08-30T07:13:00Z</time>
      </trkpt>
      <trkpt lat="43.70734" lon="3.93981">
        <ele>85.7</ele>
        <time>2015-08-30T07:13:01Z</time>
      </trkpt>
      <trkpt lat="43.70744" lon="3.9397">
        <ele>85.7</ele>
        <time>2015-08-30T07:13:02Z</time>
      </trkpt>
      <trkpt lat="43.70801" lon="3.93921">
        <ele>86.7</ele>
        <time>2015-08-30T07:13:06Z</time>
      </trkpt>
      <trkpt lat="43.70814" lon="3.93905">
        <ele>87.6</ele>
        <time>2015-08-30T07:13:07Z</time>
      </trkpt>
      <trkpt lat="43.70825" lon="3.93886">
        <ele>89.1</ele>
        <time>2015-08-30T07:13:08Z</time>
      </trkpt>
      <trkpt lat="43.70832" lon="3.93866">
        <ele>90</ele>
        <time>2015-08-30T07:13:09Z</time>
      </trkpt>
      <trkpt lat="43.70837" lon="3.93844">
        <ele>90.5</ele>
        <time>2015-08-30T07:13:10Z</time>
      </trkpt>
      <trkpt lat="43.70851" lon="3.93746">
        <ele>92.9</ele>
        <time>2015-08-30T07:13:14Z</time>
      </trkpt>
      <trkpt lat="43.70867" lon="3.93696">
        <ele>93.9</ele>
        <time>2015-08-30T07:13:16Z</time>
      </trkpt>
      <trkpt lat="43.70941" lon="3.93552">
        <ele>95.8</ele>
        <time>2015-08-30T07:13:22Z</time>
      </trkpt>
      <trkpt lat="43.71005" lon="3.93469">
        <ele>97.2</ele>
        <time>2015-08-30T07:13:26Z</time>
      </trkpt>
      <trkpt lat="43.71028" lon="3.93423">
        <ele>97.2</ele>
        <time>2015-08-30T07:13:28Z</time>
      </trkpt>
      <trkpt lat="43.71047" lon="3.93333">
        <ele>96.8</ele>
        <time>2015-08-30T07:13:32Z</time>
      </trkpt>
      <trkpt lat="43.71056" lon="3.93315">
        <ele>96.8</ele>
        <time>2015-08-30T07:13:33Z</time>
      </trkpt>
      <trkpt lat="43.71068" lon="3.93302">
        <ele>96.3</ele>
        <time>2015-08-30T07:13:34Z</time>
      </trkpt>
      <trkpt lat="43.71083" lon="3.93293">
        <ele>96.8</ele>
        <time>2015-08-30T07:13:35Z</time>
      </trkpt>
      <trkpt lat="43.71123" lon="3.93285">
        <ele>96.3</ele>
        <time>2015-08-30T07:13:37Z</time>
      </trkpt>
      <trkpt lat="43.71352" lon="3.93219">
        <ele>97.2</ele>
        <time>2015-08-30T07:13:49Z</time>
      </trkpt>
      <trkpt lat="43.7143" lon="3.93163">
        <ele>98.7</ele>
        <time>2015-08-30T07:13:55Z</time>
      </trkpt>
      <trkpt lat="43.71742" lon="3.92752">
        <ele>116.5</ele>
        <time>2015-08-30T07:14:18Z</time>
      </trkpt>
      <trkpt lat="43.71759" lon="3.92736">
        <ele>117.4</ele>
        <time>2015-08-30T07:14:19Z</time>
      </trkpt>
      <trkpt lat="43.71777" lon="3.92722">
        <ele>118.4</ele>
        <time>2015-08-30T07:14:20Z</time>
      </trkpt>
      <trkpt lat="43.71797" lon="3.92709">
        <ele>119.8</ele>
        <time>2015-08-30T07:14:21Z</time>
      </trkpt>
      <trkpt lat="43.71818" lon="3.92702">
        <ele>120.8</ele>
        <time>2015-08-30T07:14:22Z</time>
      </trkpt>
      <trkpt lat="43.71858" lon="3.92695">
        <ele>122.2</ele>
        <time>2015-08-30T07:14:24Z</time>
      </trkpt>
      <trkpt lat="43.71875" lon="3.9269">
        <ele>121.3</ele>
        <time>2015-08-30T07:14:25Z</time>
      </trkpt>
      <trkpt lat="43.7198" lon="3.92621">
        <ele>123.2</ele>
        <time>2015-08-30T07:14:33Z</time>
      </trkpt>
      <trkpt lat="43.71991" lon="3.92608">
        <ele>123.7</ele>
        <time>2015-08-30T07:14:34Z</time>
      </trkpt>
      <trkpt lat="43.71995" lon="3.92592">
        <ele>123.7</ele>
        <time>2015-08-30T07:14:35Z</time>
      </trkpt>
      <trkpt lat="43.72" lon="3.92528">
        <ele>123.7</ele>
        <time>2015-08-30T07:14:38Z</time>
      </trkpt>
      <trkpt lat="43.72011" lon="3.92478">
        <ele>124.2</ele>
        <time>2015-08-30T07:14:40Z</time>
      </trkpt>
      <trkpt lat="43.72027" lon="3.9243">
        <ele>123.7</ele>
        <time>2015-08-30T07:14:42Z</time>
      </trkpt>
      <trkpt lat="43.7204" lon="3.92412">
        <ele>123.7</ele>
        <time>2015-08-30T07:14:43Z</time>
      </trkpt>
      <trkpt lat="43.72052" lon="3.92399">
        <ele>123.2</ele>
        <time>2015-08-30T07:14:44Z</time>
      </trkpt>
      <trkpt lat="43.72066" lon="3.92389">
        <ele>123.2</ele>
        <time>2015-08-30T07:14:45Z</time>
      </trkpt>
      <trkpt lat="43.72082" lon="3.92383">
        <ele>123.2</ele>
        <time>2015-08-30T07:14:46Z</time>
      </trkpt>
      <trkpt lat="43.72096" lon="3.92376">
        <ele>123.2</ele>
        <time>2015-08-30T07:14:47Z</time>
      </trkpt>
      <trkpt lat="43.7211" lon="3.92365">
        <ele>123.2</ele>
        <time>2015-08-30T07:14:48Z</time>
      </trkpt>
      <trkpt lat="43.72193" lon="3.92245">
        <ele>123.2</ele>
        <time>2015-08-30T07:14:55Z</time>
      </trkpt>
      <trkpt lat="43.72202" lon="3.92224">
        <ele>123.2</ele>
        <time>2015-08-30T07:14:56Z</time>
      </trkpt>
      <trkpt lat="43.72213" lon="3.9218">
        <ele>122.7</ele>
        <time>2015-08-30T07:14:58Z</time>
      </trkpt>
      <trkpt lat="43.72217" lon="3.92157">
        <ele>122.2</ele>
        <time>2015-08-30T07:14:59Z</time>
      </trkpt>
      <trkpt lat="43.72218" lon="3.92134">
        <ele>121.7</ele>
        <time>2015-08-30T07:15:00Z</time>
      </trkpt>
      <trkpt lat="43.72211" lon="3.92036">
        <ele>120.3</ele>
        <time>2015-08-30T07:15:04Z</time>
      </trkpt>
      <trkpt lat="43.72242" lon="3.91797">
        <ele>113.6</ele>
        <time>2015-08-30T07:15:13Z</time>
      </trkpt>
      <trkpt lat="43.72376" lon="3.91195">
        <ele>103</ele>
        <time>2015-08-30T07:15:38Z</time>
      </trkpt>
      <trkpt lat="43.72381" lon="3.91179">
        <ele>103</ele>
        <time>2015-08-30T07:15:40Z</time>
      </trkpt>
      <trkpt lat="43.72384" lon="3.91175">
        <ele>103</ele>
        <time>2015-08-30T07:15:41Z</time>
      </trkpt>
      <trkpt lat="43.72388" lon="3.91172">
        <ele>103</ele>
        <time>2015-08-30T07:15:42Z</time>
      </trkpt>
      <trkpt lat="43.72393" lon="3.91171">
        <ele>103</ele>
        <time>2015-08-30T07:15:43Z</time>
      </trkpt>
      <trkpt lat="43.72426" lon="3.91194">
        <ele>103.5</ele>
        <time>2015-08-30T07:15:46Z</time>
      </trkpt>
      <trkpt lat="43.72561" lon="3.9126">
        <ele>104</ele>
        <time>2015-08-30T07:15:55Z</time>
      </trkpt>
      <trkpt lat="43.72914" lon="3.91349">
        <ele>110.7</ele>
        <time>2015-08-30T07:16:13Z</time>
      </trkpt>
      <trkpt lat="43.73169" lon="3.91321">
        <ele>116</ele>
        <time>2015-08-30T07:16:24Z</time>
      </trkpt>
      <trkpt lat="43.7359" lon="3.91196">
        <ele>129.4</ele>
        <time>2015-08-30T07:16:43Z</time>
      </trkpt>
      <trkpt lat="43.73607" lon="3.91185">
        <ele>129.4</ele>
        <time>2015-08-30T07:16:44Z</time>
      </trkpt>
      <trkpt lat="43.7393" lon="3.90825">
        <ele>132.3</ele>
        <time>2015-08-30T07:17:05Z</time>
      </trkpt>
      <trkpt lat="43.74108" lon="3.90708">
        <ele>131.8</ele>
        <time>2015-08-30T07:17:15Z</time>
      </trkpt>
      <trkpt lat="43.74221" lon="3.9066">
        <ele>134.2</ele>
        <time>2015-08-30T07:17:24Z</time>
      </trkpt>
      <trkpt lat="43.74329" lon="3.90639">
        <ele>135.2</ele>
        <time>2015-08-30T07:17:32Z</time>
      </trkpt>
      <trkpt lat="43.74485" lon="3.90633">
        <ele>136.6</ele>
        <time>2015-08-30T07:17:40Z</time>
      </trkpt>
      <trkpt lat="43.77127" lon="3.90898">
        <ele>117.9</ele>
        <time>2015-08-30T07:20:13Z</time>
      </trkpt>
      <trkpt lat="43.77216" lon="3.90891">
        <ele>120.3</ele>
        <time>2015-08-30T07:20:23Z</time>
      </trkpt>
      <trkpt lat="43.77304" lon="3.90866">
        <ele>122.2</ele>
        <time>2015-08-30T07:20:33Z</time>
      </trkpt>
      <trkpt lat="43.77317" lon="3.90858">
        <ele>121.7</ele>
        <time>2015-08-30T07:20:35Z</time>
      </trkpt>
      <trkpt lat="43.77369" lon="3.90842">
        <ele>119.8</ele>
        <time>2015-08-30T07:20:41Z</time>
      </trkpt>
      <trkpt lat="43.77389" lon="3.90828">
        <ele>118.4</ele>
        <time>2015-08-30T07:20:43Z</time>
      </trkpt>
      <trkpt lat="43.77489" lon="3.90743">
        <ele>115.5</ele>
        <time>2015-08-30T07:20:53Z</time>
      </trkpt>
      <trkpt lat="43.775" lon="3.90737">
        <ele>115</ele>
        <time>2015-08-30T07:20:54Z</time>
      </trkpt>
      <trkpt lat="43.77512" lon="3.90734">
        <ele>115</ele>
        <time>2015-08-30T07:20:55Z</time>
      </trkpt>
      <trkpt lat="43.77524" lon="3.90731">
        <ele>114.5</ele>
        <time>2015-08-30T07:20:56Z</time>
      </trkpt>
      <trkpt lat="43.77537" lon="3.9073">
        <ele>114.5</ele>
        <time>2015-08-30T07:20:57Z</time>
      </trkpt>
      <trkpt lat="43.77549" lon="3.9073">
        <ele>114.1</ele>
        <time>2015-08-30T07:20:58Z</time>
      </trkpt>
      <trkpt lat="43.77672" lon="3.90759">
        <ele>112.1</ele>
        <time>2015-08-30T07:21:08Z</time>
      </trkpt>
      <trkpt lat="43.77829" lon="3.90806">
        <ele>112.1</ele>
        <time>2015-08-30T07:21:18Z</time>
      </trkpt>
      <trkpt lat="43.77886" lon="3.90832">
        <ele>113.1</ele>
        <time>2015-08-30T07:21:22Z</time>
      </trkpt>
      <trkpt lat="43.77947" lon="3.90838">
        <ele>113.6</ele>
        <time>2015-08-30T07:21:28Z</time>
      </trkpt>
      <trkpt lat="43.77953" lon="3.9084">
        <ele>113.6</ele>
        <time>2015-08-30T07:21:29Z</time>
      </trkpt>
      <trkpt lat="43.77955" lon="3.90842">
        <ele>113.1</ele>
        <time>2015-08-30T07:21:30Z</time>
      </trkpt>
      <trkpt lat="43.77958" lon="3.90844">
        <ele>112.6</ele>
        <time>2015-08-30T07:21:31Z</time>
      </trkpt>
      <trkpt lat="43.7796" lon="3.90852">
        <ele>112.6</ele>
        <time>2015-08-30T07:21:32Z</time>
      </trkpt>
      <trkpt lat="43.77976" lon="3.90922">
        <ele>112.1</ele>
        <time>2015-08-30T07:21:37Z</time>
      </trkpt>
      <trkpt lat="43.77981" lon="3.90929">
        <ele>111.7</ele>
        <time>2015-08-30T07:21:38Z</time>
      </trkpt>
      <trkpt lat="43.77988" lon="3.90931">
        <ele>111.7</ele>
        <time>2015-08-30T07:21:39Z</time>
      </trkpt>
      <trkpt lat="43.77996" lon="3.90929">
        <ele>111.7</ele>
        <time>2015-08-30T07:21:40Z</time>
      </trkpt>
      <trkpt lat="43.78008" lon="3.90929">
        <ele>112.1</ele>
        <time>2015-08-30T07:21:41Z</time>
      </trkpt>
      <trkpt lat="43.78346" lon="3.90982">
        <ele>108.3</ele>
        <time>2015-08-30T07:21:59Z</time>
      </trkpt>
      <trkpt lat="43.78395" lon="3.90981">
        <ele>106.4</ele>
        <time>2015-08-30T07:22:02Z</time>
      </trkpt>
      <trkpt lat="43.78625" lon="3.90903">
        <ele>105.4</ele>
        <time>2015-08-30T07:22:15Z</time>
      </trkpt>
      <trkpt lat="43.78642" lon="3.909">
        <ele>105.9</ele>
        <time>2015-08-30T07:22:16Z</time>
      </trkpt>
      <trkpt lat="43.78661" lon="3.90901">
        <ele>105.4</ele>
        <time>2015-08-30T07:22:17Z</time>
      </trkpt>
      <trkpt lat="43.78695" lon="3.90922">
        <ele>104</ele>
        <time>2015-08-30T07:22:19Z</time>
      </trkpt>
      <trkpt lat="43.78726" lon="3.90946">
        <ele>104.9</ele>
        <time>2015-08-30T07:22:21Z</time>
      </trkpt>
      <trkpt lat="43.78756" lon="3.90964">
        <ele>104.9</ele>
        <time>2015-08-30T07:22:23Z</time>
      </trkpt>
      <trkpt lat="43.78771" lon="3.90969">
        <ele>104.9</ele>
        <time>2015-08-30T07:22:24Z</time>
      </trkpt>
      <trkpt lat="43.79127" lon="3.91028">
        <ele>105.4</ele>
        <time>2015-08-30T07:22:45Z</time>
      </trkpt>
      <trkpt lat="43.79143" lon="3.91037">
        <ele>105.9</ele>
        <time>2015-08-30T07:22:46Z</time>
      </trkpt>
      <trkpt lat="43.79158" lon="3.91048">
        <ele>106.4</ele>
        <time>2015-08-30T07:22:47Z</time>
      </trkpt>
      <trkpt lat="43.79359" lon="3.91252">
        <ele>112.1</ele>
        <time>2015-08-30T07:23:10Z</time>
      </trkpt>
      <trkpt lat="43.79399" lon="3.91296">
        <ele>111.2</ele>
        <time>2015-08-30T07:23:18Z</time>
      </trkpt>
      <trkpt lat="43.79628" lon="3.91461">
        <ele>111.7</ele>
        <time>2015-08-30T07:23:46Z</time>
      </trkpt>
      <trkpt lat="43.79884" lon="3.91707">
        <ele>112.1</ele>
        <time>2015-08-30T07:24:03Z</time>
      </trkpt>
      <trkpt lat="43.79993" lon="3.91873">
        <ele>113.1</ele>
        <time>2015-08-30T07:24:12Z</time>
      </trkpt>
      <trkpt lat="43.80115" lon="3.92014">
        <ele>111.7</ele>
        <time>2015-08-30T07:24:20Z</time>
      </trkpt>
      <trkpt lat="43.80264" lon="3.9222">
        <ele>119.3</ele>
        <time>2015-08-30T07:24:30Z</time>
      </trkpt>
      <trkpt lat="43.80344" lon="3.92356">
        <ele>127.5</ele>
        <time>2015-08-30T07:24:37Z</time>
      </trkpt>
      <trkpt lat="43.80431" lon="3.92436">
        <ele>132.8</ele>
        <time>2015-08-30T07:24:45Z</time>
      </trkpt>
      <trkpt lat="43.80451" lon="3.92464">
        <ele>134.2</ele>
        <time>2015-08-30T07:24:47Z</time>
      </trkpt>
      <trkpt lat="43.80471" lon="3.92502">
        <ele>136.2</ele>
        <time>2015-08-30T07:24:49Z</time>
      </trkpt>
      <trkpt lat="43.80513" lon="3.92598">
        <ele>139.5</ele>
        <time>2015-08-30T07:24:54Z</time>
      </trkpt>
      <trkpt lat="43.80524" lon="3.92613">
        <ele>140</ele>
        <time>2015-08-30T07:24:55Z</time>
      </trkpt>
      <trkpt lat="43.80539" lon="3.92624">
        <ele>140.5</ele>
        <time>2015-08-30T07:24:56Z</time>
      </trkpt>
      <trkpt lat="43.80685" lon="3.92712">
        <ele>138.1</ele>
        <time>2015-08-30T07:25:04Z</time>
      </trkpt>
      <trkpt lat="43.80701" lon="3.92728">
        <ele>137.6</ele>
        <time>2015-08-30T07:25:05Z</time>
      </trkpt>
      <trkpt lat="43.80741" lon="3.92782">
        <ele>135.2</ele>
        <time>2015-08-30T07:25:08Z</time>
      </trkpt>
      <trkpt lat="43.80778" lon="3.92843">
        <ele>133.8</ele>
        <time>2015-08-30T07:25:11Z</time>
      </trkpt>
      <trkpt lat="43.81004" lon="3.93073">
        <ele>137.1</ele>
        <time>2015-08-30T07:25:28Z</time>
      </trkpt>
      <trkpt lat="43.81058" lon="3.93116">
        <ele>134.7</ele>
        <time>2015-08-30T07:25:34Z</time>
      </trkpt>
      <trkpt lat="43.81064" lon="3.93114">
        <ele>134.2</ele>
        <time>2015-08-30T07:25:35Z</time>
      </trkpt>
      <trkpt lat="43.81069" lon="3.9311">
        <ele>133.8</ele>
        <time>2015-08-30T07:25:36Z</time>
      </trkpt>
      <trkpt lat="43.81211" lon="3.92734">
        <ele>144.8</ele>
        <time>2015-08-30T07:25:57Z</time>
      </trkpt>
      <trkpt lat="43.81257" lon="3.92569">
        <ele>151.5</ele>
        <time>2015-08-30T07:26:06Z</time>
      </trkpt>
      <trkpt lat="43.81258" lon="3.92552">
        <ele>152</ele>
        <time>2015-08-30T07:26:07Z</time>
      </trkpt>
      <trkpt lat="43.81258" lon="3.92536">
        <ele>152.5</ele>
        <time>2015-08-30T07:26:08Z</time>
      </trkpt>
      <trkpt lat="43.81251" lon="3.92521">
        <ele>152.5</ele>
        <time>2015-08-30T07:26:09Z</time>
      </trkpt>
      <trkpt lat="43.81235" lon="3.92497">
        <ele>154</ele>
        <time>2015-08-30T07:26:11Z</time>
      </trkpt>
      <trkpt lat="43.81228" lon="3.92488">
        <ele>154.9</ele>
        <time>2015-08-30T07:26:12Z</time>
      </trkpt>
      <trkpt lat="43.81223" lon="3.9248">
        <ele>155.9</ele>
        <time>2015-08-30T07:26:13Z</time>
      </trkpt>
      <trkpt lat="43.8122" lon="3.92471">
        <ele>156.8</ele>
        <time>2015-08-30T07:26:14Z</time>
      </trkpt>
      <trkpt lat="43.81221" lon="3.92462">
        <ele>157.8</ele>
        <time>2015-08-30T07:26:15Z</time>
      </trkpt>
      <trkpt lat="43.81224" lon="3.92454">
        <ele>158.8</ele>
        <time>2015-08-30T07:26:16Z</time>
      </trkpt>
      <trkpt lat="43.81233" lon="3.92451">
        <ele>159.7</ele>
        <time>2015-08-30T07:26:17Z</time>
      </trkpt>
      <trkpt lat="43.81243" lon="3.92452">
        <ele>161.6</ele>
        <time>2015-08-30T07:26:18Z</time>
      </trkpt>
      <trkpt lat="43.81254" lon="3.92454">
        <ele>162.6</ele>
        <time>2015-08-30T07:26:19Z</time>
      </trkpt>
      <trkpt lat="43.81267" lon="3.92462">
        <ele>162.1</ele>
        <time>2015-08-30T07:26:20Z</time>
      </trkpt>
      <trkpt lat="43.81302" lon="3.9249">
        <ele>164.5</ele>
        <time>2015-08-30T07:26:23Z</time>
      </trkpt>
      <trkpt lat="43.81313" lon="3.92495">
        <ele>165.5</ele>
        <time>2015-08-30T07:26:24Z</time>
      </trkpt>
      <trkpt lat="43.81326" lon="3.92494">
        <ele>166</ele>
        <time>2015-08-30T07:26:25Z</time>
      </trkpt>
      <trkpt lat="43.8139" lon="3.9247">
        <ele>168.4</ele>
        <time>2015-08-30T07:26:30Z</time>
      </trkpt>
      <trkpt lat="43.81401" lon="3.92463">
        <ele>167.9</ele>
        <time>2015-08-30T07:26:31Z</time>
      </trkpt>
      <trkpt lat="43.81411" lon="3.92452">
        <ele>167.9</ele>
        <time>2015-08-30T07:26:32Z</time>
      </trkpt>
      <trkpt lat="43.81429" lon="3.92425">
        <ele>166.5</ele>
        <time>2015-08-30T07:26:34Z</time>
      </trkpt>
      <trkpt lat="43.81492" lon="3.92265">
        <ele>155.4</ele>
        <time>2015-08-30T07:26:44Z</time>
      </trkpt>
      <trkpt lat="43.81501" lon="3.92252">
        <ele>154</ele>
        <time>2015-08-30T07:26:45Z</time>
      </trkpt>
      <trkpt lat="43.81511" lon="3.92241">
        <ele>153</ele>
        <time>2015-08-30T07:26:46Z</time>
      </trkpt>
      <trkpt lat="43.81524" lon="3.92233">
        <ele>152</ele>
        <time>2015-08-30T07:26:47Z</time>
      </trkpt>
      <trkpt lat="43.81538" lon="3.92229">
        <ele>151.1</ele>
        <time>2015-08-30T07:26:48Z</time>
      </trkpt>
      <trkpt lat="43.81714" lon="3.9219">
        <ele>137.1</ele>
        <time>2015-08-30T07:26:59Z</time>
      </trkpt>
      <trkpt lat="43.81935" lon="3.92134">
        <ele>124.6</ele>
        <time>2015-08-30T07:27:11Z</time>
      </trkpt>
      <trkpt lat="43.82064" lon="3.92121">
        <ele>116</ele>
        <time>2015-08-30T07:27:19Z</time>
      </trkpt>
      <trkpt lat="43.82213" lon="3.92061">
        <ele>109.3</ele>
        <time>2015-08-30T07:27:29Z</time>
      </trkpt>
      <trkpt lat="43.8223" lon="3.92057">
        <ele>109.7</ele>
        <time>2015-08-30T07:27:30Z</time>
      </trkpt>
      <trkpt lat="43.82417" lon="3.92036">
        <ele>112.6</ele>
        <time>2015-08-30T07:27:40Z</time>
      </trkpt>
      <trkpt lat="43.82578" lon="3.92034">
        <ele>116</ele>
        <time>2015-08-30T07:27:48Z</time>
      </trkpt>
      <trkpt lat="43.82745" lon="3.91996">
        <ele>116.5</ele>
        <time>2015-08-30T07:27:58Z</time>
      </trkpt>
      <trkpt lat="43.82754" lon="3.91983">
        <ele>116.5</ele>
        <time>2015-08-30T07:27:59Z</time>
      </trkpt>
      <trkpt lat="43.82769" lon="3.91954">
        <ele>116</ele>
        <time>2015-08-30T07:28:01Z</time>
      </trkpt>
      <trkpt lat="43.82777" lon="3.91921">
        <ele>116</ele>
        <time>2015-08-30T07:28:03Z</time>
      </trkpt>
      <trkpt lat="43.82783" lon="3.91908">
        <ele>116</ele>
        <time>2015-08-30T07:28:04Z</time>
      </trkpt>
      <trkpt lat="43.82791" lon="3.91898">
        <ele>116</ele>
        <time>2015-08-30T07:28:05Z</time>
      </trkpt>
      <trkpt lat="43.82802" lon="3.9189">
        <ele>116.5</ele>
        <time>2015-08-30T07:28:06Z</time>
      </trkpt>
      <trkpt lat="43.82825" lon="3.9188">
        <ele>116.5</ele>
        <time>2015-08-30T07:28:08Z</time>
      </trkpt>
      <trkpt lat="43.82848" lon="3.91874">
        <ele>116.5</ele>
        <time>2015-08-30T07:28:10Z</time>
      </trkpt>
      <trkpt lat="43.8286" lon="3.91879">
        <ele>116</ele>
        <time>2015-08-30T07:28:11Z</time>
      </trkpt>
      <trkpt lat="43.82871" lon="3.91889">
        <ele>115.5</ele>
        <time>2015-08-30T07:28:12Z</time>
      </trkpt>
      <trkpt lat="43.82883" lon="3.91901">
        <ele>116</ele>
        <time>2015-08-30T07:28:13Z</time>
      </trkpt>
      <trkpt lat="43.82967" lon="3.9202">
        <ele>117.9</ele>
        <time>2015-08-30T07:28:21Z</time>
      </trkpt>
      <trkpt lat="43.82981" lon="3.9203">
        <ele>117.9</ele>
        <time>2015-08-30T07:28:22Z</time>
      </trkpt>
      <trkpt lat="43.83119" lon="3.92101">
        <ele>116.5</ele>
        <time>2015-08-30T07:28:31Z</time>
      </trkpt>
      <trkpt lat="43.83134" lon="3.92102">
        <ele>116</ele>
        <time>2015-08-30T07:28:32Z</time>
      </trkpt>
      <trkpt lat="43.83149" lon="3.92099">
        <ele>115.5</ele>
        <time>2015-08-30T07:28:33Z</time>
      </trkpt>
      <trkpt lat="43.83163" lon="3.92092">
        <ele>115</ele>
        <time>2015-08-30T07:28:34Z</time>
      </trkpt>
      <trkpt lat="43.83179" lon="3.92087">
        <ele>114.5</ele>
        <time>2015-08-30T07:28:35Z</time>
      </trkpt>
      <trkpt lat="43.83195" lon="3.92084">
        <ele>114.5</ele>
        <time>2015-08-30T07:28:36Z</time>
      </trkpt>
      <trkpt lat="43.83345" lon="3.92091">
        <ele>115</ele>
        <time>2015-08-30T07:28:45Z</time>
      </trkpt>
      <trkpt lat="43.8336" lon="3.92099">
        <ele>116</ele>
        <time>2015-08-30T07:28:46Z</time>
      </trkpt>
      <trkpt lat="43.83375" lon="3.92108">
        <ele>116</ele>
        <time>2015-08-30T07:28:47Z</time>
      </trkpt>
      <trkpt lat="43.83388" lon="3.9212">
        <ele>116.5</ele>
        <time>2015-08-30T07:28:48Z</time>
      </trkpt>
      <trkpt lat="43.83444" lon="3.92175">
        <ele>117.9</ele>
        <time>2015-08-30T07:28:53Z</time>
      </trkpt>
      <trkpt lat="43.83453" lon="3.92175">
        <ele>118.4</ele>
        <time>2015-08-30T07:28:54Z</time>
      </trkpt>
      <trkpt lat="43.83461" lon="3.92171">
        <ele>118.4</ele>
        <time>2015-08-30T07:28:55Z</time>
      </trkpt>
      <trkpt lat="43.83468" lon="3.92157">
        <ele>118.9</ele>
        <time>2015-08-30T07:28:56Z</time>
      </trkpt>
      <trkpt lat="43.83482" lon="3.92134">
        <ele>118.9</ele>
        <time>2015-08-30T07:28:58Z</time>
      </trkpt>
      <trkpt lat="43.83491" lon="3.92125">
        <ele>118.9</ele>
        <time>2015-08-30T07:28:59Z</time>
      </trkpt>
      <trkpt lat="43.8351" lon="3.92112">
        <ele>118.9</ele>
        <time>2015-08-30T07:29:01Z</time>
      </trkpt>
      <trkpt lat="43.83617" lon="3.92056">
        <ele>119.8</ele>
        <time>2015-08-30T07:29:12Z</time>
      </trkpt>
      <trkpt lat="43.83626" lon="3.92053">
        <ele>120.8</ele>
        <time>2015-08-30T07:29:13Z</time>
      </trkpt>
      <trkpt lat="43.83635" lon="3.92052">
        <ele>121.3</ele>
        <time>2015-08-30T07:29:14Z</time>
      </trkpt>
      <trkpt lat="43.83695" lon="3.92058">
        <ele>124.2</ele>
        <time>2015-08-30T07:29:23Z</time>
      </trkpt>
      <trkpt lat="43.83703" lon="3.92063">
        <ele>124.2</ele>
        <time>2015-08-30T07:29:27Z</time>
      </trkpt>
      <trkpt lat="43.83708" lon="3.92059">
        <ele>123.7</ele>
        <time>2015-08-30T07:29:28Z</time>
      </trkpt>
      <trkpt lat="43.83729" lon="3.92032">
        <ele>124.2</ele>
        <time>2015-08-30T07:29:31Z</time>
      </trkpt>
      <trkpt lat="43.838" lon="3.91958">
        <ele>125.1</ele>
        <time>2015-08-30T07:29:42Z</time>
      </trkpt>
      <trkpt lat="43.83952" lon="3.91896">
        <ele>127</ele>
        <time>2015-08-30T07:30:03Z</time>
      </trkpt>
      <trkpt lat="43.84036" lon="3.91891">
        <ele>128.5</ele>
        <time>2015-08-30T07:30:10Z</time>
      </trkpt>
      <trkpt lat="43.84161" lon="3.9186">
        <ele>131.8</ele>
        <time>2015-08-30T07:30:18Z</time>
      </trkpt>
      <trkpt lat="43.84184" lon="3.91847">
        <ele>132.8</ele>
        <time>2015-08-30T07:30:20Z</time>
      </trkpt>
      <trkpt lat="43.84209" lon="3.91821">
        <ele>134.2</ele>
        <time>2015-08-30T07:30:23Z</time>
      </trkpt>
      <trkpt lat="43.84216" lon="3.91816">
        <ele>134.7</ele>
        <time>2015-08-30T07:30:24Z</time>
      </trkpt>
      <trkpt lat="43.84234" lon="3.91811">
        <ele>135.7</ele>
        <time>2015-08-30T07:30:26Z</time>
      </trkpt>
      <trkpt lat="43.84242" lon="3.91807">
        <ele>135.7</ele>
        <time>2015-08-30T07:30:27Z</time>
      </trkpt>
      <trkpt lat="43.84251" lon="3.91783">
        <ele>135.7</ele>
        <time>2015-08-30T07:30:29Z</time>
      </trkpt>
      <trkpt lat="43.84257" lon="3.91771">
        <ele>136.2</ele>
        <time>2015-08-30T07:30:30Z</time>
      </trkpt>
      <trkpt lat="43.84264" lon="3.91761">
        <ele>136.6</ele>
        <time>2015-08-30T07:30:31Z</time>
      </trkpt>
      <trkpt lat="43.84274" lon="3.91752">
        <ele>136.6</ele>
        <time>2015-08-30T07:30:32Z</time>
      </trkpt>
      <trkpt lat="43.84286" lon="3.91745">
        <ele>137.1</ele>
        <time>2015-08-30T07:30:33Z</time>
      </trkpt>
      <trkpt lat="43.84537" lon="3.9151">
        <ele>141.9</ele>
        <time>2015-08-30T07:30:53Z</time>
      </trkpt>
      <trkpt lat="43.84682" lon="3.9146">
        <ele>144.3</ele>
        <time>2015-08-30T07:31:02Z</time>
      </trkpt>
      <trkpt lat="43.85305" lon="3.9106">
        <ele>142.9</ele>
        <time>2015-08-30T07:31:39Z</time>
      </trkpt>
      <trkpt lat="43.85693" lon="3.9093">
        <ele>154</ele>
        <time>2015-08-30T07:32:08Z</time>
      </trkpt>
      <trkpt lat="43.85706" lon="3.90927">
        <ele>154</ele>
        <time>2015-08-30T07:32:10Z</time>
      </trkpt>
      <trkpt lat="43.85712" lon="3.90928">
        <ele>152.5</ele>
        <time>2015-08-30T07:32:11Z</time>
      </trkpt>
      <trkpt lat="43.85719" lon="3.90929">
        <ele>152</ele>
        <time>2015-08-30T07:32:12Z</time>
      </trkpt>
      <trkpt lat="43.85725" lon="3.90925">
        <ele>151.5</ele>
        <time>2015-08-30T07:32:13Z</time>
      </trkpt>
      <trkpt lat="43.85731" lon="3.90919">
        <ele>151.1</ele>
        <time>2015-08-30T07:32:14Z</time>
      </trkpt>
      <trkpt lat="43.85739" lon="3.90912">
        <ele>151.1</ele>
        <time>2015-08-30T07:32:15Z</time>
      </trkpt>
      <trkpt lat="43.85748" lon="3.90907">
        <ele>150.6</ele>
        <time>2015-08-30T07:32:16Z</time>
      </trkpt>
      <trkpt lat="43.85769" lon="3.909">
        <ele>149.6</ele>
        <time>2015-08-30T07:32:18Z</time>
      </trkpt>
      <trkpt lat="43.85864" lon="3.90881">
        <ele>149.6</ele>
        <time>2015-08-30T07:32:28Z</time>
      </trkpt>
      <trkpt lat="43.8595" lon="3.90833">
        <ele>155.4</ele>
        <time>2015-08-30T07:32:38Z</time>
      </trkpt>
      <trkpt lat="43.86102" lon="3.90719">
        <ele>164.5</ele>
        <time>2015-08-30T07:33:01Z</time>
      </trkpt>
      <trkpt lat="43.86124" lon="3.90697">
        <ele>166.9</ele>
        <time>2015-08-30T07:33:04Z</time>
      </trkpt>
      <trkpt lat="43.8613" lon="3.90687">
        <ele>167.9</ele>
        <time>2015-08-30T07:33:05Z</time>
      </trkpt>
      <trkpt lat="43.86191" lon="3.90496">
        <ele>164</ele>
        <time>2015-08-30T07:33:25Z</time>
      </trkpt>
      <trkpt lat="43.86192" lon="3.90484">
        <ele>164</ele>
        <time>2015-08-30T07:33:26Z</time>
      </trkpt>
      <trkpt lat="43.8619" lon="3.90458">
        <ele>164</ele>
        <time>2015-08-30T07:33:28Z</time>
      </trkpt>
      <trkpt lat="43.86188" lon="3.90447">
        <ele>164</ele>
        <time>2015-08-30T07:33:29Z</time>
      </trkpt>
      <trkpt lat="43.86184" lon="3.90437">
        <ele>164</ele>
        <time>2015-08-30T07:33:30Z</time>
      </trkpt>
      <trkpt lat="43.86149" lon="3.90281">
        <ele>164</ele>
        <time>2015-08-30T07:33:45Z</time>
      </trkpt>
      <trkpt lat="43.86159" lon="3.9014">
        <ele>163.6</ele>
        <time>2015-08-30T07:33:56Z</time>
      </trkpt>
      <trkpt lat="43.86162" lon="3.90128">
        <ele>164</ele>
        <time>2015-08-30T07:33:57Z</time>
      </trkpt>
      <trkpt lat="43.86231" lon="3.8995">
        <ele>166.9</ele>
        <time>2015-08-30T07:34:12Z</time>
      </trkpt>
      <trkpt lat="43.86248" lon="3.89855">
        <ele>168.4</ele>
        <time>2015-08-30T07:34:21Z</time>
      </trkpt>
      <trkpt lat="43.8626" lon="3.89823">
        <ele>169.3</ele>
        <time>2015-08-30T07:34:23Z</time>
      </trkpt>
      <trkpt lat="43.86537" lon="3.89174">
        <ele>178.5</ele>
        <time>2015-08-30T07:35:06Z</time>
      </trkpt>
      <trkpt lat="43.8663" lon="3.89058">
        <ele>176.1</ele>
        <time>2015-08-30T07:35:14Z</time>
      </trkpt>
      <trkpt lat="43.86899" lon="3.88484">
        <ele>192.4</ele>
        <time>2015-08-30T07:35:45Z</time>
      </trkpt>
      <trkpt lat="43.8692" lon="3.88378">
        <ele>193.4</ele>
        <time>2015-08-30T07:35:53Z</time>
      </trkpt>
      <trkpt lat="43.86992" lon="3.87739">
        <ele>197.7</ele>
        <time>2015-08-30T07:36:28Z</time>
      </trkpt>
      <trkpt lat="43.86965" lon="3.87663">
        <ele>201.5</ele>
        <time>2015-08-30T07:36:32Z</time>
      </trkpt>
      <trkpt lat="43.86961" lon="3.8764">
        <ele>203</ele>
        <time>2015-08-30T07:36:33Z</time>
      </trkpt>
      <trkpt lat="43.86961" lon="3.87563">
        <ele>205.9</ele>
        <time>2015-08-30T07:36:36Z</time>
      </trkpt>
      <trkpt lat="43.86979" lon="3.87313">
        <ele>215.5</ele>
        <time>2015-08-30T07:36:46Z</time>
      </trkpt>
      <trkpt lat="43.86995" lon="3.87269">
        <ele>217.4</ele>
        <time>2015-08-30T07:36:48Z</time>
      </trkpt>
      <trkpt lat="43.87027" lon="3.87218">
        <ele>219.8</ele>
        <time>2015-08-30T07:36:51Z</time>
      </trkpt>
      <trkpt lat="43.8704" lon="3.87181">
        <ele>221.7</ele>
        <time>2015-08-30T07:36:53Z</time>
      </trkpt>
      <trkpt lat="43.87047" lon="3.87143">
        <ele>223.6</ele>
        <time>2015-08-30T07:36:55Z</time>
      </trkpt>
      <trkpt lat="43.87058" lon="3.87027">
        <ele>227.5</ele>
        <time>2015-08-30T07:37:01Z</time>
      </trkpt>
      <trkpt lat="43.87054" lon="3.8701">
        <ele>227.5</ele>
        <time>2015-08-30T07:37:02Z</time>
      </trkpt>
      <trkpt lat="43.8703" lon="3.8695">
        <ele>230.4</ele>
        <time>2015-08-30T07:37:06Z</time>
      </trkpt>
      <trkpt lat="43.87027" lon="3.86934">
        <ele>230.9</ele>
        <time>2015-08-30T07:37:07Z</time>
      </trkpt>
      <trkpt lat="43.87026" lon="3.86917">
        <ele>232.3</ele>
        <time>2015-08-30T07:37:08Z</time>
      </trkpt>
      <trkpt lat="43.87028" lon="3.86899">
        <ele>233.3</ele>
        <time>2015-08-30T07:37:09Z</time>
      </trkpt>
      <trkpt lat="43.87038" lon="3.86864">
        <ele>235.2</ele>
        <time>2015-08-30T07:37:11Z</time>
      </trkpt>
      <trkpt lat="43.8707" lon="3.8679">
        <ele>239</ele>
        <time>2015-08-30T07:37:16Z</time>
      </trkpt>
      <trkpt lat="43.87079" lon="3.86777">
        <ele>240</ele>
        <time>2015-08-30T07:37:17Z</time>
      </trkpt>
      <trkpt lat="43.8709" lon="3.86765">
        <ele>240.5</ele>
        <time>2015-08-30T07:37:18Z</time>
      </trkpt>
      <trkpt lat="43.87101" lon="3.86755">
        <ele>241</ele>
        <time>2015-08-30T07:37:19Z</time>
      </trkpt>
      <trkpt lat="43.87219" lon="3.8667">
        <ele>251</ele>
        <time>2015-08-30T07:37:29Z</time>
      </trkpt>
      <trkpt lat="43.87224" lon="3.86663">
        <ele>250.6</ele>
        <time>2015-08-30T07:37:30Z</time>
      </trkpt>
      <trkpt lat="43.87228" lon="3.86654">
        <ele>250.6</ele>
        <time>2015-08-30T07:37:31Z</time>
      </trkpt>
      <trkpt lat="43.87226" lon="3.86643">
        <ele>250.6</ele>
        <time>2015-08-30T07:37:32Z</time>
      </trkpt>
      <trkpt lat="43.87215" lon="3.86617">
        <ele>252</ele>
        <time>2015-08-30T07:37:34Z</time>
      </trkpt>
      <trkpt lat="43.87172" lon="3.86547">
        <ele>255.9</ele>
        <time>2015-08-30T07:37:39Z</time>
      </trkpt>
      <trkpt lat="43.87167" lon="3.86532">
        <ele>256.8</ele>
        <time>2015-08-30T07:37:40Z</time>
      </trkpt>
      <trkpt lat="43.87165" lon="3.86518">
        <ele>257.8</ele>
        <time>2015-08-30T07:37:41Z</time>
      </trkpt>
      <trkpt lat="43.87166" lon="3.86491">
        <ele>258.3</ele>
        <time>2015-08-30T07:37:43Z</time>
      </trkpt>
      <trkpt lat="43.87165" lon="3.86479">
        <ele>258.7</ele>
        <time>2015-08-30T07:37:44Z</time>
      </trkpt>
      <trkpt lat="43.87162" lon="3.86468">
        <ele>259.2</ele>
        <time>2015-08-30T07:37:45Z</time>
      </trkpt>
      <trkpt lat="43.87156" lon="3.86461">
        <ele>259.7</ele>
        <time>2015-08-30T07:37:46Z</time>
      </trkpt>
      <trkpt lat="43.87148" lon="3.86459">
        <ele>260.2</ele>
        <time>2015-08-30T07:37:47Z</time>
      </trkpt>
      <trkpt lat="43.87138" lon="3.8646">
        <ele>259.7</ele>
        <time>2015-08-30T07:37:48Z</time>
      </trkpt>
      <trkpt lat="43.87118" lon="3.86469">
        <ele>260.2</ele>
        <time>2015-08-30T07:37:50Z</time>
      </trkpt>
      <trkpt lat="43.87107" lon="3.86472">
        <ele>259.7</ele>
        <time>2015-08-30T07:37:51Z</time>
      </trkpt>
      <trkpt lat="43.87095" lon="3.86474">
        <ele>261.6</ele>
        <time>2015-08-30T07:37:52Z</time>
      </trkpt>
      <trkpt lat="43.87083" lon="3.86472">
        <ele>262.6</ele>
        <time>2015-08-30T07:37:53Z</time>
      </trkpt>
      <trkpt lat="43.87071" lon="3.86468">
        <ele>263.5</ele>
        <time>2015-08-30T07:37:54Z</time>
      </trkpt>
      <trkpt lat="43.87059" lon="3.86461">
        <ele>264</ele>
        <time>2015-08-30T07:37:55Z</time>
      </trkpt>
      <trkpt lat="43.87049" lon="3.8645">
        <ele>265</ele>
        <time>2015-08-30T07:37:56Z</time>
      </trkpt>
      <trkpt lat="43.8704" lon="3.86436">
        <ele>265.9</ele>
        <time>2015-08-30T07:37:57Z</time>
      </trkpt>
      <trkpt lat="43.87032" lon="3.8642">
        <ele>266.9</ele>
        <time>2015-08-30T07:37:58Z</time>
      </trkpt>
      <trkpt lat="43.87021" lon="3.86384">
        <ele>269.3</ele>
        <time>2015-08-30T07:38:00Z</time>
      </trkpt>
      <trkpt lat="43.86991" lon="3.86136">
        <ele>279.9</ele>
        <time>2015-08-30T07:38:12Z</time>
      </trkpt>
      <trkpt lat="43.86976" lon="3.86101">
        <ele>281.8</ele>
        <time>2015-08-30T07:38:16Z</time>
      </trkpt>
      <trkpt lat="43.86975" lon="3.86095">
        <ele>282.3</ele>
        <time>2015-08-30T07:38:17Z</time>
      </trkpt>
      <trkpt lat="43.86977" lon="3.8609">
        <ele>282.8</ele>
        <time>2015-08-30T07:38:18Z</time>
      </trkpt>
      <trkpt lat="43.86984" lon="3.86091">
        <ele>283.7</ele>
        <time>2015-08-30T07:38:19Z</time>
      </trkpt>
      <trkpt lat="43.8699" lon="3.86098">
        <ele>284.2</ele>
        <time>2015-08-30T07:38:20Z</time>
      </trkpt>
      <trkpt lat="43.87001" lon="3.86125">
        <ele>285.7</ele>
        <time>2015-08-30T07:38:22Z</time>
      </trkpt>
      <trkpt lat="43.8708" lon="3.86367">
        <ele>299.6</ele>
        <time>2015-08-30T07:38:36Z</time>
      </trkpt>
      <trkpt lat="43.87086" lon="3.86374">
        <ele>299.6</ele>
        <time>2015-08-30T07:38:37Z</time>
      </trkpt>
      <trkpt lat="43.87092" lon="3.86373">
        <ele>300.6</ele>
        <time>2015-08-30T07:38:38Z</time>
      </trkpt>
      <trkpt lat="43.871" lon="3.8637">
        <ele>301</ele>
        <time>2015-08-30T07:38:39Z</time>
      </trkpt>
      <trkpt lat="43.87122" lon="3.86338">
        <ele>303.9</ele>
        <time>2015-08-30T07:38:42Z</time>
      </trkpt>
      <trkpt lat="43.87133" lon="3.86327">
        <ele>304.4</ele>
        <time>2015-08-30T07:38:43Z</time>
      </trkpt>
      <trkpt lat="43.87146" lon="3.8632">
        <ele>305.4</ele>
        <time>2015-08-30T07:38:44Z</time>
      </trkpt>
      <trkpt lat="43.8716" lon="3.86316">
        <ele>305.8</ele>
        <time>2015-08-30T07:38:45Z</time>
      </trkpt>
      <trkpt lat="43.87174" lon="3.86319">
        <ele>306.8</ele>
        <time>2015-08-30T07:38:46Z</time>
      </trkpt>
      <trkpt lat="43.87186" lon="3.86327">
        <ele>307.8</ele>
        <time>2015-08-30T07:38:47Z</time>
      </trkpt>
      <trkpt lat="43.87233" lon="3.86376">
        <ele>312.6</ele>
        <time>2015-08-30T07:38:52Z</time>
      </trkpt>
      <trkpt lat="43.87242" lon="3.86381">
        <ele>313.1</ele>
        <time>2015-08-30T07:38:53Z</time>
      </trkpt>
      <trkpt lat="43.87251" lon="3.8638">
        <ele>314</ele>
        <time>2015-08-30T07:38:54Z</time>
      </trkpt>
      <trkpt lat="43.8726" lon="3.86375">
        <ele>314.5</ele>
        <time>2015-08-30T07:38:55Z</time>
      </trkpt>
      <trkpt lat="43.8728" lon="3.86361">
        <ele>315.5</ele>
        <time>2015-08-30T07:38:57Z</time>
      </trkpt>
      <trkpt lat="43.87326" lon="3.86334">
        <ele>318.3</ele>
        <time>2015-08-30T07:39:01Z</time>
      </trkpt>
      <trkpt lat="43.87521" lon="3.86276">
        <ele>328</ele>
        <time>2015-08-30T07:39:15Z</time>
      </trkpt>
      <trkpt lat="43.87534" lon="3.86268">
        <ele>328.4</ele>
        <time>2015-08-30T07:39:16Z</time>
      </trkpt>
      <trkpt lat="43.87652" lon="3.8617">
        <ele>332.8</ele>
        <time>2015-08-30T07:39:25Z</time>
      </trkpt>
      <trkpt lat="43.87659" lon="3.8616">
        <ele>332.3</ele>
        <time>2015-08-30T07:39:26Z</time>
      </trkpt>
      <trkpt lat="43.87662" lon="3.86145">
        <ele>332.8</ele>
        <time>2015-08-30T07:39:27Z</time>
      </trkpt>
      <trkpt lat="43.8767" lon="3.86069">
        <ele>331.8</ele>
        <time>2015-08-30T07:39:33Z</time>
      </trkpt>
      <trkpt lat="43.87672" lon="3.86064">
        <ele>331.8</ele>
        <time>2015-08-30T07:39:34Z</time>
      </trkpt>
      <trkpt lat="43.87679" lon="3.86068">
        <ele>331.3</ele>
        <time>2015-08-30T07:39:36Z</time>
      </trkpt>
      <trkpt lat="43.87681" lon="3.86074">
        <ele>330.8</ele>
        <time>2015-08-30T07:39:37Z</time>
      </trkpt>
      <trkpt lat="43.87676" lon="3.86125">
        <ele>328.9</ele>
        <time>2015-08-30T07:39:41Z</time>
      </trkpt>
      <trkpt lat="43.87682" lon="3.86162">
        <ele>327.5</ele>
        <time>2015-08-30T07:39:43Z</time>
      </trkpt>
      <trkpt lat="43.87722" lon="3.86355">
        <ele>318.8</ele>
        <time>2015-08-30T07:39:53Z</time>
      </trkpt>
      <trkpt lat="43.8773" lon="3.86534">
        <ele>310.6</ele>
        <time>2015-08-30T07:40:02Z</time>
      </trkpt>
      <trkpt lat="43.87727" lon="3.8657">
        <ele>310.2</ele>
        <time>2015-08-30T07:40:05Z</time>
      </trkpt>
      <trkpt lat="43.87729" lon="3.86577">
        <ele>310.2</ele>
        <time>2015-08-30T07:40:06Z</time>
      </trkpt>
      <trkpt lat="43.87742" lon="3.8655">
        <ele>306.3</ele>
        <time>2015-08-30T07:40:10Z</time>
      </trkpt>
      <trkpt lat="43.87744" lon="3.86535">
        <ele>306.3</ele>
        <time>2015-08-30T07:40:11Z</time>
      </trkpt>
      <trkpt lat="43.87744" lon="3.86517">
        <ele>305.4</ele>
        <time>2015-08-30T07:40:12Z</time>
      </trkpt>
      <trkpt lat="43.8778" lon="3.85946">
        <ele>281.3</ele>
        <time>2015-08-30T07:40:42Z</time>
      </trkpt>
      <trkpt lat="43.87786" lon="3.85926">
        <ele>280.8</ele>
        <time>2015-08-30T07:40:43Z</time>
      </trkpt>
      <trkpt lat="43.87801" lon="3.85886">
        <ele>279.9</ele>
        <time>2015-08-30T07:40:45Z</time>
      </trkpt>
      <trkpt lat="43.87814" lon="3.85843">
        <ele>278.9</ele>
        <time>2015-08-30T07:40:47Z</time>
      </trkpt>
      <trkpt lat="43.87823" lon="3.85797">
        <ele>278</ele>
        <time>2015-08-30T07:40:49Z</time>
      </trkpt>
      <trkpt lat="43.87825" lon="3.85775">
        <ele>277</ele>
        <time>2015-08-30T07:40:50Z</time>
      </trkpt>
      <trkpt lat="43.87827" lon="3.85694">
        <ele>274.6</ele>
        <time>2015-08-30T07:40:54Z</time>
      </trkpt>
      <trkpt lat="43.87825" lon="3.85675">
        <ele>274.1</ele>
        <time>2015-08-30T07:40:55Z</time>
      </trkpt>
      <trkpt lat="43.87806" lon="3.85603">
        <ele>271.2</ele>
        <time>2015-08-30T07:40:59Z</time>
      </trkpt>
      <trkpt lat="43.87798" lon="3.85586">
        <ele>270.8</ele>
        <time>2015-08-30T07:41:00Z</time>
      </trkpt>
      <trkpt lat="43.87788" lon="3.85571">
        <ele>270.3</ele>
        <time>2015-08-30T07:41:01Z</time>
      </trkpt>
      <trkpt lat="43.87777" lon="3.85557">
        <ele>269.3</ele>
        <time>2015-08-30T07:41:02Z</time>
      </trkpt>
      <trkpt lat="43.87765" lon="3.85546">
        <ele>268.8</ele>
        <time>2015-08-30T07:41:03Z</time>
      </trkpt>
      <trkpt lat="43.87752" lon="3.85536">
        <ele>267.9</ele>
        <time>2015-08-30T07:41:04Z</time>
      </trkpt>
      <trkpt lat="43.87738" lon="3.8553">
        <ele>267.4</ele>
        <time>2015-08-30T07:41:05Z</time>
      </trkpt>
      <trkpt lat="43.87725" lon="3.85525">
        <ele>266.4</ele>
        <time>2015-08-30T07:41:06Z</time>
      </trkpt>
      <trkpt lat="43.87675" lon="3.85513">
        <ele>264</ele>
        <time>2015-08-30T07:41:12Z</time>
      </trkpt>
      <trkpt lat="43.87673" lon="3.85509">
        <ele>263.5</ele>
        <time>2015-08-30T07:41:13Z</time>
      </trkpt>
      <trkpt lat="43.87674" lon="3.85504">
        <ele>263.1</ele>
        <time>2015-08-30T07:41:14Z</time>
      </trkpt>
      <trkpt lat="43.8768" lon="3.85503">
        <ele>263.1</ele>
        <time>2015-08-30T07:41:15Z</time>
      </trkpt>
      <trkpt lat="43.87784" lon="3.85534">
        <ele>259.7</ele>
        <time>2015-08-30T07:41:22Z</time>
      </trkpt>
      <trkpt lat="43.87799" lon="3.85544">
        <ele>258.3</ele>
        <time>2015-08-30T07:41:23Z</time>
      </trkpt>
      <trkpt lat="43.87814" lon="3.85556">
        <ele>256.8</ele>
        <time>2015-08-30T07:41:24Z</time>
      </trkpt>
      <trkpt lat="43.87826" lon="3.85571">
        <ele>255.9</ele>
        <time>2015-08-30T07:41:25Z</time>
      </trkpt>
      <trkpt lat="43.87927" lon="3.85743">
        <ele>245.8</ele>
        <time>2015-08-30T07:41:36Z</time>
      </trkpt>
      <trkpt lat="43.87934" lon="3.8576">
        <ele>244.8</ele>
        <time>2015-08-30T07:41:37Z</time>
      </trkpt>
      <trkpt lat="43.87945" lon="3.858">
        <ele>242.4</ele>
        <time>2015-08-30T07:41:39Z</time>
      </trkpt>
      <trkpt lat="43.87989" lon="3.86002">
        <ele>232.8</ele>
        <time>2015-08-30T07:41:49Z</time>
      </trkpt>
      <trkpt lat="43.87997" lon="3.86026">
        <ele>231.8</ele>
        <time>2015-08-30T07:41:51Z</time>
      </trkpt>
      <trkpt lat="43.88002" lon="3.8603">
        <ele>230.9</ele>
        <time>2015-08-30T07:41:52Z</time>
      </trkpt>
      <trkpt lat="43.88009" lon="3.86029">
        <ele>230.4</ele>
        <time>2015-08-30T07:41:53Z</time>
      </trkpt>
      <trkpt lat="43.88015" lon="3.86021">
        <ele>229.9</ele>
        <time>2015-08-30T07:41:54Z</time>
      </trkpt>
      <trkpt lat="43.88026" lon="3.85994">
        <ele>228</ele>
        <time>2015-08-30T07:41:56Z</time>
      </trkpt>
      <trkpt lat="43.88075" lon="3.85696">
        <ele>213.6</ele>
        <time>2015-08-30T07:42:10Z</time>
      </trkpt>
      <trkpt lat="43.88082" lon="3.85637">
        <ele>210.7</ele>
        <time>2015-08-30T07:42:13Z</time>
      </trkpt>
      <trkpt lat="43.88086" lon="3.85622">
        <ele>209.7</ele>
        <time>2015-08-30T07:42:14Z</time>
      </trkpt>
      <trkpt lat="43.88095" lon="3.8561">
        <ele>208.7</ele>
        <time>2015-08-30T07:42:15Z</time>
      </trkpt>
      <trkpt lat="43.88107" lon="3.85602">
        <ele>207.8</ele>
        <time>2015-08-30T07:42:16Z</time>
      </trkpt>
      <trkpt lat="43.88122" lon="3.85599">
        <ele>206.8</ele>
        <time>2015-08-30T07:42:17Z</time>
      </trkpt>
      <trkpt lat="43.89447" lon="3.8564">
        <ele>194.8</ele>
        <time>2015-08-30T07:43:57Z</time>
      </trkpt>
      <trkpt lat="43.89531" lon="3.8566">
        <ele>198.2</ele>
        <time>2015-08-30T07:44:07Z</time>
      </trkpt>
      <trkpt lat="43.89551" lon="3.85655">
        <ele>197.7</ele>
        <time>2015-08-30T07:44:09Z</time>
      </trkpt>
      <trkpt lat="43.90027" lon="3.85424">
        <ele>185.2</ele>
        <time>2015-08-30T07:44:43Z</time>
      </trkpt>
      <trkpt lat="43.90046" lon="3.85426">
        <ele>185.7</ele>
        <time>2015-08-30T07:44:44Z</time>
      </trkpt>
      <trkpt lat="43.90064" lon="3.8543">
        <ele>185.2</ele>
        <time>2015-08-30T07:44:45Z</time>
      </trkpt>
      <trkpt lat="43.90083" lon="3.85438">
        <ele>185.2</ele>
        <time>2015-08-30T07:44:46Z</time>
      </trkpt>
      <trkpt lat="43.90121" lon="3.8546">
        <ele>184.7</ele>
        <time>2015-08-30T07:44:48Z</time>
      </trkpt>
      <trkpt lat="43.9052" lon="3.85748">
        <ele>173.2</ele>
        <time>2015-08-30T07:45:10Z</time>
      </trkpt>
      <trkpt lat="43.90538" lon="3.85751">
        <ele>172.7</ele>
        <time>2015-08-30T07:45:11Z</time>
      </trkpt>
      <trkpt lat="43.90761" lon="3.85713">
        <ele>172.2</ele>
        <time>2015-08-30T07:45:22Z</time>
      </trkpt>
      <trkpt lat="43.90863" lon="3.8572">
        <ele>172.2</ele>
        <time>2015-08-30T07:45:27Z</time>
      </trkpt>
      <trkpt lat="43.90883" lon="3.85728">
        <ele>172.7</ele>
        <time>2015-08-30T07:45:28Z</time>
      </trkpt>
      <trkpt lat="43.9096" lon="3.85766">
        <ele>173.7</ele>
        <time>2015-08-30T07:45:32Z</time>
      </trkpt>
      <trkpt lat="43.90978" lon="3.85766">
        <ele>173.7</ele>
        <time>2015-08-30T07:45:33Z</time>
      </trkpt>
      <trkpt lat="43.90995" lon="3.85762">
        <ele>173.7</ele>
        <time>2015-08-30T07:45:34Z</time>
      </trkpt>
      <trkpt lat="43.91013" lon="3.85753">
        <ele>173.7</ele>
        <time>2015-08-30T07:45:35Z</time>
      </trkpt>
      <trkpt lat="43.91216" lon="3.85644">
        <ele>182.3</ele>
        <time>2015-08-30T07:45:46Z</time>
      </trkpt>
      <trkpt lat="43.91522" lon="3.85344">
        <ele>199.6</ele>
        <time>2015-08-30T07:46:04Z</time>
      </trkpt>
      <trkpt lat="43.91652" lon="3.85154">
        <ele>205.4</ele>
        <time>2015-08-30T07:46:13Z</time>
      </trkpt>
      <trkpt lat="43.9167" lon="3.85138">
        <ele>206.3</ele>
        <time>2015-08-30T07:46:14Z</time>
      </trkpt>
      <trkpt lat="43.91883" lon="3.84982">
        <ele>214</ele>
        <time>2015-08-30T07:46:25Z</time>
      </trkpt>
      <trkpt lat="43.9203" lon="3.84922">
        <ele>219.3</ele>
        <time>2015-08-30T07:46:32Z</time>
      </trkpt>
      <trkpt lat="43.92225" lon="3.849">
        <ele>225.6</ele>
        <time>2015-08-30T07:46:41Z</time>
      </trkpt>
      <trkpt lat="43.92246" lon="3.849">
        <ele>226.5</ele>
        <time>2015-08-30T07:46:42Z</time>
      </trkpt>
      <trkpt lat="43.92267" lon="3.84903">
        <ele>228</ele>
        <time>2015-08-30T07:46:43Z</time>
      </trkpt>
      <trkpt lat="43.92678" lon="3.8504">
        <ele>235.7</ele>
        <time>2015-08-30T07:47:03Z</time>
      </trkpt>
      <trkpt lat="43.92694" lon="3.8504">
        <ele>235.2</ele>
        <time>2015-08-30T07:47:04Z</time>
      </trkpt>
      <trkpt lat="43.92744" lon="3.85031">
        <ele>233.3</ele>
        <time>2015-08-30T07:47:07Z</time>
      </trkpt>
      <trkpt lat="43.92761" lon="3.85034">
        <ele>232.3</ele>
        <time>2015-08-30T07:47:08Z</time>
      </trkpt>
      <trkpt lat="43.92795" lon="3.8505">
        <ele>230.4</ele>
        <time>2015-08-30T07:47:10Z</time>
      </trkpt>
      <trkpt lat="43.92811" lon="3.85062">
        <ele>228.9</ele>
        <time>2015-08-30T07:47:11Z</time>
      </trkpt>
      <trkpt lat="43.92826" lon="3.85076">
        <ele>228</ele>
        <time>2015-08-30T07:47:12Z</time>
      </trkpt>
      <trkpt lat="43.92839" lon="3.85094">
        <ele>227</ele>
        <time>2015-08-30T07:47:13Z</time>
      </trkpt>
      <trkpt lat="43.9285" lon="3.85115">
        <ele>226.1</ele>
        <time>2015-08-30T07:47:14Z</time>
      </trkpt>
      <trkpt lat="43.92868" lon="3.85161">
        <ele>223.6</ele>
        <time>2015-08-30T07:47:16Z</time>
      </trkpt>
      <trkpt lat="43.92896" lon="3.85268">
        <ele>218.8</ele>
        <time>2015-08-30T07:47:22Z</time>
      </trkpt>
      <trkpt lat="43.92903" lon="3.85275">
        <ele>217.9</ele>
        <time>2015-08-30T07:47:23Z</time>
      </trkpt>
      <trkpt lat="43.92911" lon="3.85276">
        <ele>216.9</ele>
        <time>2015-08-30T07:47:24Z</time>
      </trkpt>
      <trkpt lat="43.92921" lon="3.85272">
        <ele>215.5</ele>
        <time>2015-08-30T07:47:25Z</time>
      </trkpt>
      <trkpt lat="43.9293" lon="3.85258">
        <ele>214</ele>
        <time>2015-08-30T07:47:26Z</time>
      </trkpt>
      <trkpt lat="43.92948" lon="3.85227">
        <ele>212.6</ele>
        <time>2015-08-30T07:47:28Z</time>
      </trkpt>
      <trkpt lat="43.93026" lon="3.85124">
        <ele>205.9</ele>
        <time>2015-08-30T07:47:36Z</time>
      </trkpt>
      <trkpt lat="43.93037" lon="3.85117">
        <ele>205.4</ele>
        <time>2015-08-30T07:47:37Z</time>
      </trkpt>
      <trkpt lat="43.93049" lon="3.85117">
        <ele>204.4</ele>
        <time>2015-08-30T07:47:38Z</time>
      </trkpt>
      <trkpt lat="43.93063" lon="3.85119">
        <ele>203.9</ele>
        <time>2015-08-30T07:47:39Z</time>
      </trkpt>
      <trkpt lat="43.93168" lon="3.85159">
        <ele>199.6</ele>
        <time>2015-08-30T07:47:46Z</time>
      </trkpt>
      <trkpt lat="43.93182" lon="3.8516">
        <ele>199.1</ele>
        <time>2015-08-30T07:47:47Z</time>
      </trkpt>
      <trkpt lat="43.93197" lon="3.85155">
        <ele>198.2</ele>
        <time>2015-08-30T07:47:48Z</time>
      </trkpt>
      <trkpt lat="43.93242" lon="3.85119">
        <ele>195.8</ele>
        <time>2015-08-30T07:47:51Z</time>
      </trkpt>
      <trkpt lat="43.93397" lon="3.85036">
        <ele>193.8</ele>
        <time>2015-08-30T07:48:00Z</time>
      </trkpt>
      <trkpt lat="43.93525" lon="3.85046">
        <ele>193.4</ele>
        <time>2015-08-30T07:48:08Z</time>
      </trkpt>
      <trkpt lat="43.93695" lon="3.85077">
        <ele>189</ele>
        <time>2015-08-30T07:48:17Z</time>
      </trkpt>
      <trkpt lat="43.93714" lon="3.85086">
        <ele>188.1</ele>
        <time>2015-08-30T07:48:18Z</time>
      </trkpt>
      <trkpt lat="43.93805" lon="3.85142">
        <ele>185.7</ele>
        <time>2015-08-30T07:48:23Z</time>
      </trkpt>
      <trkpt lat="43.93963" lon="3.85309">
        <ele>179.4</ele>
        <time>2015-08-30T07:48:33Z</time>
      </trkpt>
      <trkpt lat="43.94032" lon="3.85347">
        <ele>178</ele>
        <time>2015-08-30T07:48:38Z</time>
      </trkpt>
      <trkpt lat="43.94109" lon="3.8536">
        <ele>177</ele>
        <time>2015-08-30T07:48:43Z</time>
      </trkpt>
      <trkpt lat="43.94125" lon="3.85366">
        <ele>176.5</ele>
        <time>2015-08-30T07:48:44Z</time>
      </trkpt>
      <trkpt lat="43.94287" lon="3.85459">
        <ele>176.5</ele>
        <time>2015-08-30T07:48:53Z</time>
      </trkpt>
      <trkpt lat="43.94979" lon="3.86084">
        <ele>170.3</ele>
        <time>2015-08-30T07:49:37Z</time>
      </trkpt>
      <trkpt lat="43.95054" lon="3.86123">
        <ele>170.3</ele>
        <time>2015-08-30T07:49:43Z</time>
      </trkpt>
      <trkpt lat="43.95069" lon="3.86126">
        <ele>170.3</ele>
        <time>2015-08-30T07:49:44Z</time>
      </trkpt>
      <trkpt lat="43.95086" lon="3.86126">
        <ele>169.8</ele>
        <time>2015-08-30T07:49:45Z</time>
      </trkpt>
      <trkpt lat="43.95401" lon="3.86088">
        <ele>170.3</ele>
        <time>2015-08-30T07:50:09Z</time>
      </trkpt>
      <trkpt lat="43.95432" lon="3.86095">
        <ele>171.3</ele>
        <time>2015-08-30T07:50:14Z</time>
      </trkpt>
      <trkpt lat="43.95439" lon="3.86093">
        <ele>171.3</ele>
        <time>2015-08-30T07:50:15Z</time>
      </trkpt>
      <trkpt lat="43.95446" lon="3.86089">
        <ele>171.7</ele>
        <time>2015-08-30T07:50:16Z</time>
      </trkpt>
      <trkpt lat="43.95453" lon="3.86083">
        <ele>171.3</ele>
        <time>2015-08-30T07:50:17Z</time>
      </trkpt>
      <trkpt lat="43.95464" lon="3.86069">
        <ele>171.3</ele>
        <time>2015-08-30T07:50:19Z</time>
      </trkpt>
      <trkpt lat="43.95531" lon="3.86006">
        <ele>172.2</ele>
        <time>2015-08-30T07:50:27Z</time>
      </trkpt>
      <trkpt lat="43.9569" lon="3.85881">
        <ele>169.3</ele>
        <time>2015-08-30T07:50:41Z</time>
      </trkpt>
      <trkpt lat="43.95701" lon="3.85877">
        <ele>169.3</ele>
        <time>2015-08-30T07:50:42Z</time>
      </trkpt>
      <trkpt lat="43.95712" lon="3.85879">
        <ele>168.9</ele>
        <time>2015-08-30T07:50:43Z</time>
      </trkpt>
      <trkpt lat="43.9572" lon="3.85887">
        <ele>168.4</ele>
        <time>2015-08-30T07:50:44Z</time>
      </trkpt>
      <trkpt lat="43.95799" lon="3.85978">
        <ele>163.6</ele>
        <time>2015-08-30T07:50:52Z</time>
      </trkpt>
      <trkpt lat="43.95804" lon="3.85987">
        <ele>163.6</ele>
        <time>2015-08-30T07:50:53Z</time>
      </trkpt>
      <trkpt lat="43.95808" lon="3.85998">
        <ele>163.1</ele>
        <time>2015-08-30T07:50:54Z</time>
      </trkpt>
      <trkpt lat="43.95809" lon="3.86009">
        <ele>162.6</ele>
        <time>2015-08-30T07:50:55Z</time>
      </trkpt>
      <trkpt lat="43.95803" lon="3.86066">
        <ele>160.7</ele>
        <time>2015-08-30T07:51:00Z</time>
      </trkpt>
      <trkpt lat="43.95804" lon="3.86093">
        <ele>161.6</ele>
        <time>2015-08-30T07:51:07Z</time>
      </trkpt>
      <trkpt lat="43.95806" lon="3.86104">
        <ele>161.6</ele>
        <time>2015-08-30T07:51:08Z</time>
      </trkpt>
      <trkpt lat="43.95811" lon="3.86114">
        <ele>161.6</ele>
        <time>2015-08-30T07:51:09Z</time>
      </trkpt>
      <trkpt lat="43.95818" lon="3.86119">
        <ele>161.6</ele>
        <time>2015-08-30T07:51:10Z</time>
      </trkpt>
      <trkpt lat="43.95826" lon="3.86118">
        <ele>161.6</ele>
        <time>2015-08-30T07:51:11Z</time>
      </trkpt>
      <trkpt lat="43.95834" lon="3.86112">
        <ele>161.2</ele>
        <time>2015-08-30T07:51:12Z</time>
      </trkpt>
      <trkpt lat="43.96085" lon="3.85798">
        <ele>161.2</ele>
        <time>2015-08-30T07:51:45Z</time>
      </trkpt>
      <trkpt lat="43.96122" lon="3.85757">
        <ele>161.6</ele>
        <time>2015-08-30T07:51:51Z</time>
      </trkpt>
      <trkpt lat="43.96147" lon="3.85714">
        <ele>162.6</ele>
        <time>2015-08-30T07:51:59Z</time>
      </trkpt>
      <trkpt lat="43.9615" lon="3.85714">
        <ele>163.1</ele>
        <time>2015-08-30T07:52:02Z</time>
      </trkpt>
      <trkpt lat="43.96151" lon="3.85714">
        <ele>165</ele>
        <time>2015-08-30T07:52:04Z</time>
      </trkpt>
      <trkpt lat="43.96153" lon="3.85714">
        <ele>165.5</ele>
        <time>2015-08-30T07:52:05Z</time>
      </trkpt>
      <trkpt lat="43.96156" lon="3.85714">
        <ele>166.5</ele>
        <time>2015-08-30T07:52:07Z</time>
      </trkpt>
      <trkpt lat="43.96157" lon="3.85713">
        <ele>166.5</ele>
        <time>2015-08-30T07:52:08Z</time>
      </trkpt>
      <trkpt lat="43.96158" lon="3.85712">
        <ele>166.5</ele>
        <time>2015-08-30T07:52:09Z</time>
      </trkpt>
      <trkpt lat="43.96159" lon="3.85711">
        <ele>166.5</ele>
        <time>2015-08-30T07:52:10Z</time>
      </trkpt>
      <trkpt lat="43.9616" lon="3.8571">
        <ele>166.5</ele>
        <time>2015-08-30T07:52:11Z</time>
      </trkpt>
      <trkpt lat="43.9616" lon="3.85708">
        <ele>164</ele>
        <time>2015-08-30T07:52:23Z</time>
      </trkpt>
      <trkpt lat="43.96162" lon="3.85708">
        <ele>160.2</ele>
        <time>2015-08-30T07:53:00Z</time>
      </trkpt>
      <trkpt lat="43.96167" lon="3.85705">
        <ele>154.4</ele>
        <time>2015-08-30T08:11:18Z</time>
      </trkpt>
      <trkpt lat="43.96164" lon="3.85712">
        <ele>162.6</ele>
        <time>2015-08-30T08:11:49Z</time>
      </trkpt>
      <trkpt lat="43.96207" lon="3.85703">
        <ele>162.1</ele>
        <time>2015-08-30T08:12:06Z</time>
      </trkpt>
      <trkpt lat="43.9621" lon="3.85693">
        <ele>162.1</ele>
        <time>2015-08-30T08:12:08Z</time>
      </trkpt>
      <trkpt lat="43.96209" lon="3.85687">
        <ele>162.1</ele>
        <time>2015-08-30T08:12:09Z</time>
      </trkpt>
      <trkpt lat="43.96206" lon="3.85676">
        <ele>165</ele>
        <time>2015-08-30T08:12:17Z</time>
      </trkpt>
      <trkpt lat="43.96207" lon="3.85665">
        <ele>166</ele>
        <time>2015-08-30T08:12:19Z</time>
      </trkpt>
      <trkpt lat="43.96212" lon="3.85643">
        <ele>166.9</ele>
        <time>2015-08-30T08:12:22Z</time>
      </trkpt>
      <trkpt lat="43.96215" lon="3.85637">
        <ele>166.9</ele>
        <time>2015-08-30T08:12:23Z</time>
      </trkpt>
      <trkpt lat="43.96407" lon="3.85393">
        <ele>175.1</ele>
        <time>2015-08-30T08:12:56Z</time>
      </trkpt>
      <trkpt lat="43.96421" lon="3.85371">
        <ele>175.6</ele>
        <time>2015-08-30T08:13:00Z</time>
      </trkpt>
      <trkpt lat="43.96422" lon="3.85365">
        <ele>176.1</ele>
        <time>2015-08-30T08:13:01Z</time>
      </trkpt>
      <trkpt lat="43.96421" lon="3.85358">
        <ele>176.5</ele>
        <time>2015-08-30T08:13:02Z</time>
      </trkpt>
      <trkpt lat="43.96414" lon="3.85338">
        <ele>176.1</ele>
        <time>2015-08-30T08:13:05Z</time>
      </trkpt>
      <trkpt lat="43.9639" lon="3.85297">
        <ele>176.5</ele>
        <time>2015-08-30T08:13:11Z</time>
      </trkpt>
      <trkpt lat="43.96387" lon="3.85295">
        <ele>177</ele>
        <time>2015-08-30T08:13:12Z</time>
      </trkpt>
      <trkpt lat="43.96384" lon="3.85297">
        <ele>177.5</ele>
        <time>2015-08-30T08:13:13Z</time>
      </trkpt>
      <trkpt lat="43.96383" lon="3.853">
        <ele>177</ele>
        <time>2015-08-30T08:13:14Z</time>
      </trkpt>
      <trkpt lat="43.96388" lon="3.85305">
        <ele>176.5</ele>
        <time>2015-08-30T08:13:22Z</time>
      </trkpt>
      <trkpt lat="43.96391" lon="3.85306">
        <ele>172.7</ele>
        <time>2015-08-30T08:13:32Z</time>
      </trkpt>
      <trkpt lat="43.96398" lon="3.85315">
        <ele>171.7</ele>
        <time>2015-08-30T08:13:34Z</time>
      </trkpt>
      <trkpt lat="43.96403" lon="3.85325">
        <ele>171.7</ele>
        <time>2015-08-30T08:13:35Z</time>
      </trkpt>
      <trkpt lat="43.96407" lon="3.85334">
        <ele>172.2</ele>
        <time>2015-08-30T08:13:36Z</time>
      </trkpt>
      <trkpt lat="43.9641" lon="3.85343">
        <ele>172.7</ele>
        <time>2015-08-30T08:13:37Z</time>
      </trkpt>
      <trkpt lat="43.96411" lon="3.8535">
        <ele>173.2</ele>
        <time>2015-08-30T08:13:38Z</time>
      </trkpt>
      <trkpt lat="43.9641" lon="3.85354">
        <ele>173.7</ele>
        <time>2015-08-30T08:13:41Z</time>
      </trkpt>
      <trkpt lat="43.96409" lon="3.85359">
        <ele>173.7</ele>
        <time>2015-08-30T08:13:42Z</time>
      </trkpt>
      <trkpt lat="43.96408" lon="3.85365">
        <ele>173.7</ele>
        <time>2015-08-30T08:13:43Z</time>
      </trkpt>
      <trkpt lat="43.96408" lon="3.85372">
        <ele>173.2</ele>
        <time>2015-08-30T08:13:44Z</time>
      </trkpt>
      <trkpt lat="43.96413" lon="3.85377">
        <ele>173.7</ele>
        <time>2015-08-30T08:13:45Z</time>
      </trkpt>
      <trkpt lat="43.96418" lon="3.85376">
        <ele>173.7</ele>
        <time>2015-08-30T08:13:46Z</time>
      </trkpt>
      <trkpt lat="43.96432" lon="3.85361">
        <ele>174.6</ele>
        <time>2015-08-30T08:13:48Z</time>
      </trkpt>
      <trkpt lat="43.96439" lon="3.85352">
        <ele>175.1</ele>
        <time>2015-08-30T08:13:49Z</time>
      </trkpt>
      <trkpt lat="43.96445" lon="3.85344">
        <ele>176.1</ele>
        <time>2015-08-30T08:13:50Z</time>
      </trkpt>
      <trkpt lat="43.96452" lon="3.85339">
        <ele>176.1</ele>
        <time>2015-08-30T08:13:51Z</time>
      </trkpt>
      <trkpt lat="43.96458" lon="3.85338">
        <ele>177</ele>
        <time>2015-08-30T08:13:52Z</time>
      </trkpt>
      <trkpt lat="43.96464" lon="3.85339">
        <ele>177.5</ele>
        <time>2015-08-30T08:13:53Z</time>
      </trkpt>
      <trkpt lat="43.96474" lon="3.85345">
        <ele>178</ele>
        <time>2015-08-30T08:13:55Z</time>
      </trkpt>
      <trkpt lat="43.96545" lon="3.85395">
        <ele>177.5</ele>
        <time>2015-08-30T08:14:13Z</time>
      </trkpt>
      <trkpt lat="43.9655" lon="3.85401">
        <ele>177.5</ele>
        <time>2015-08-30T08:14:14Z</time>
      </trkpt>
      <trkpt lat="43.96553" lon="3.85409">
        <ele>177.5</ele>
        <time>2015-08-30T08:14:15Z</time>
      </trkpt>
      <trkpt lat="43.96554" lon="3.85418">
        <ele>177</ele>
        <time>2015-08-30T08:14:16Z</time>
      </trkpt>
      <trkpt lat="43.96547" lon="3.85499">
        <ele>172.7</ele>
        <time>2015-08-30T08:14:25Z</time>
      </trkpt>
      <trkpt lat="43.96548" lon="3.85516">
        <ele>171.3</ele>
        <time>2015-08-30T08:14:33Z</time>
      </trkpt>
      <trkpt lat="43.96549" lon="3.85518">
        <ele>171.7</ele>
        <time>2015-08-30T08:14:34Z</time>
      </trkpt>
      <trkpt lat="43.96552" lon="3.85519">
        <ele>172.2</ele>
        <time>2015-08-30T08:14:35Z</time>
      </trkpt>
      <trkpt lat="43.96765" lon="3.85521">
        <ele>180.9</ele>
        <time>2015-08-30T08:14:59Z</time>
      </trkpt>
      <trkpt lat="43.96863" lon="3.85511">
        <ele>177</ele>
        <time>2015-08-30T08:15:08Z</time>
      </trkpt>
      <trkpt lat="43.96893" lon="3.8549">
        <ele>177.5</ele>
        <time>2015-08-30T08:15:11Z</time>
      </trkpt>
      <trkpt lat="43.96998" lon="3.85405">
        <ele>180.9</ele>
        <time>2015-08-30T08:15:21Z</time>
      </trkpt>
      <trkpt lat="43.97008" lon="3.854">
        <ele>181.4</ele>
        <time>2015-08-30T08:15:22Z</time>
      </trkpt>
      <trkpt lat="43.9702" lon="3.85402">
        <ele>181.8</ele>
        <time>2015-08-30T08:15:23Z</time>
      </trkpt>
      <trkpt lat="43.97032" lon="3.85408">
        <ele>182.8</ele>
        <time>2015-08-30T08:15:24Z</time>
      </trkpt>
      <trkpt lat="43.97043" lon="3.85415">
        <ele>183.3</ele>
        <time>2015-08-30T08:15:25Z</time>
      </trkpt>
      <trkpt lat="43.97055" lon="3.85419">
        <ele>183.8</ele>
        <time>2015-08-30T08:15:26Z</time>
      </trkpt>
      <trkpt lat="43.97068" lon="3.8542">
        <ele>184.2</ele>
        <time>2015-08-30T08:15:27Z</time>
      </trkpt>
      <trkpt lat="43.9708" lon="3.85413">
        <ele>183.8</ele>
        <time>2015-08-30T08:15:28Z</time>
      </trkpt>
      <trkpt lat="43.97106" lon="3.85379">
        <ele>183.8</ele>
        <time>2015-08-30T08:15:30Z</time>
      </trkpt>
      <trkpt lat="43.97253" lon="3.85162">
        <ele>182.3</ele>
        <time>2015-08-30T08:15:42Z</time>
      </trkpt>
      <trkpt lat="43.97281" lon="3.85142">
        <ele>182.3</ele>
        <time>2015-08-30T08:15:44Z</time>
      </trkpt>
      <trkpt lat="43.97296" lon="3.85135">
        <ele>181.8</ele>
        <time>2015-08-30T08:15:45Z</time>
      </trkpt>
      <trkpt lat="43.97314" lon="3.85131">
        <ele>182.3</ele>
        <time>2015-08-30T08:15:46Z</time>
      </trkpt>
      <trkpt lat="43.97332" lon="3.85129">
        <ele>183.3</ele>
        <time>2015-08-30T08:15:47Z</time>
      </trkpt>
      <trkpt lat="43.9735" lon="3.8513">
        <ele>184.2</ele>
        <time>2015-08-30T08:15:48Z</time>
      </trkpt>
      <trkpt lat="43.97368" lon="3.85137">
        <ele>184.2</ele>
        <time>2015-08-30T08:15:49Z</time>
      </trkpt>
      <trkpt lat="43.97385" lon="3.85146">
        <ele>184.7</ele>
        <time>2015-08-30T08:15:50Z</time>
      </trkpt>
      <trkpt lat="43.9742" lon="3.85156">
        <ele>187.6</ele>
        <time>2015-08-30T08:15:52Z</time>
      </trkpt>
      <trkpt lat="43.97478" lon="3.85137">
        <ele>187.6</ele>
        <time>2015-08-30T08:15:55Z</time>
      </trkpt>
      <trkpt lat="43.97495" lon="3.85126">
        <ele>186.2</ele>
        <time>2015-08-30T08:15:56Z</time>
      </trkpt>
      <trkpt lat="43.97509" lon="3.85113">
        <ele>184.7</ele>
        <time>2015-08-30T08:15:57Z</time>
      </trkpt>
      <trkpt lat="43.97524" lon="3.85102">
        <ele>184.7</ele>
        <time>2015-08-30T08:15:58Z</time>
      </trkpt>
      <trkpt lat="43.97555" lon="3.85095">
        <ele>186.2</ele>
        <time>2015-08-30T08:16:00Z</time>
      </trkpt>
      <trkpt lat="43.97569" lon="3.85101">
        <ele>184.2</ele>
        <time>2015-08-30T08:16:01Z</time>
      </trkpt>
      <trkpt lat="43.97583" lon="3.85098">
        <ele>183.8</ele>
        <time>2015-08-30T08:16:02Z</time>
      </trkpt>
      <trkpt lat="43.97597" lon="3.85088">
        <ele>184.2</ele>
        <time>2015-08-30T08:16:03Z</time>
      </trkpt>
      <trkpt lat="43.9761" lon="3.85076">
        <ele>184.2</ele>
        <time>2015-08-30T08:16:04Z</time>
      </trkpt>
      <trkpt lat="43.97625" lon="3.85066">
        <ele>184.2</ele>
        <time>2015-08-30T08:16:05Z</time>
      </trkpt>
      <trkpt lat="43.97676" lon="3.85059">
        <ele>188.6</ele>
        <time>2015-08-30T08:16:08Z</time>
      </trkpt>
      <trkpt lat="43.97695" lon="3.85063">
        <ele>190</ele>
        <time>2015-08-30T08:16:09Z</time>
      </trkpt>
      <trkpt lat="43.97713" lon="3.85061">
        <ele>192.9</ele>
        <time>2015-08-30T08:16:10Z</time>
      </trkpt>
      <trkpt lat="43.97749" lon="3.85051">
        <ele>195.3</ele>
        <time>2015-08-30T08:16:12Z</time>
      </trkpt>
      <trkpt lat="43.97767" lon="3.85044">
        <ele>196.3</ele>
        <time>2015-08-30T08:16:13Z</time>
      </trkpt>
      <trkpt lat="43.97923" lon="3.85001">
        <ele>206.3</ele>
        <time>2015-08-30T08:16:21Z</time>
      </trkpt>
      <trkpt lat="43.97958" lon="3.85003">
        <ele>209.2</ele>
        <time>2015-08-30T08:16:23Z</time>
      </trkpt>
      <trkpt lat="43.98103" lon="3.85125">
        <ele>208.3</ele>
        <time>2015-08-30T08:16:31Z</time>
      </trkpt>
      <trkpt lat="43.98176" lon="3.85157">
        <ele>210.7</ele>
        <time>2015-08-30T08:16:35Z</time>
      </trkpt>
      <trkpt lat="43.98246" lon="3.85199">
        <ele>210.2</ele>
        <time>2015-08-30T08:16:39Z</time>
      </trkpt>
      <trkpt lat="43.9826" lon="3.85218">
        <ele>209.7</ele>
        <time>2015-08-30T08:16:40Z</time>
      </trkpt>
      <trkpt lat="43.9827" lon="3.85239">
        <ele>209.2</ele>
        <time>2015-08-30T08:16:41Z</time>
      </trkpt>
      <trkpt lat="43.98282" lon="3.85256">
        <ele>208.3</ele>
        <time>2015-08-30T08:16:42Z</time>
      </trkpt>
      <trkpt lat="43.98297" lon="3.85269">
        <ele>207.3</ele>
        <time>2015-08-30T08:16:43Z</time>
      </trkpt>
      <trkpt lat="43.98333" lon="3.85285">
        <ele>208.3</ele>
        <time>2015-08-30T08:16:45Z</time>
      </trkpt>
      <trkpt lat="43.98353" lon="3.8529">
        <ele>206.8</ele>
        <time>2015-08-30T08:16:46Z</time>
      </trkpt>
      <trkpt lat="43.98374" lon="3.85293">
        <ele>205.4</ele>
        <time>2015-08-30T08:16:47Z</time>
      </trkpt>
      <trkpt lat="43.98395" lon="3.85283">
        <ele>204.4</ele>
        <time>2015-08-30T08:16:48Z</time>
      </trkpt>
      <trkpt lat="43.98438" lon="3.85252">
        <ele>205.9</ele>
        <time>2015-08-30T08:16:50Z</time>
      </trkpt>
      <trkpt lat="43.98475" lon="3.85233">
        <ele>206.8</ele>
        <time>2015-08-30T08:16:52Z</time>
      </trkpt>
      <trkpt lat="43.98493" lon="3.85229">
        <ele>207.8</ele>
        <time>2015-08-30T08:16:53Z</time>
      </trkpt>
      <trkpt lat="43.98512" lon="3.8523">
        <ele>209.2</ele>
        <time>2015-08-30T08:16:54Z</time>
      </trkpt>
      <trkpt lat="43.98533" lon="3.85233">
        <ele>209.2</ele>
        <time>2015-08-30T08:16:55Z</time>
      </trkpt>
      <trkpt lat="43.98555" lon="3.8524">
        <ele>209.7</ele>
        <time>2015-08-30T08:16:56Z</time>
      </trkpt>
      <trkpt lat="43.98578" lon="3.85249">
        <ele>210.7</ele>
        <time>2015-08-30T08:16:57Z</time>
      </trkpt>
      <trkpt lat="43.98777" lon="3.85303">
        <ele>227</ele>
        <time>2015-08-30T08:17:09Z</time>
      </trkpt>
      <trkpt lat="43.9879" lon="3.85302">
        <ele>227.5</ele>
        <time>2015-08-30T08:17:10Z</time>
      </trkpt>
      <trkpt lat="43.98804" lon="3.853">
        <ele>227.5</ele>
        <time>2015-08-30T08:17:11Z</time>
      </trkpt>
      <trkpt lat="43.98908" lon="3.85267">
        <ele>227</ele>
        <time>2015-08-30T08:17:17Z</time>
      </trkpt>
      <trkpt lat="43.98921" lon="3.85259">
        <ele>227.5</ele>
        <time>2015-08-30T08:17:18Z</time>
      </trkpt>
      <trkpt lat="43.98934" lon="3.8525">
        <ele>228</ele>
        <time>2015-08-30T08:17:19Z</time>
      </trkpt>
      <trkpt lat="43.98982" lon="3.85195">
        <ele>226.5</ele>
        <time>2015-08-30T08:17:22Z</time>
      </trkpt>
      <trkpt lat="43.99177" lon="3.85054">
        <ele>227</ele>
        <time>2015-08-30T08:17:32Z</time>
      </trkpt>
      <trkpt lat="43.99236" lon="3.85045">
        <ele>236.6</ele>
        <time>2015-08-30T08:17:35Z</time>
      </trkpt>
      <trkpt lat="43.99256" lon="3.85047">
        <ele>240.5</ele>
        <time>2015-08-30T08:17:36Z</time>
      </trkpt>
      <trkpt lat="43.99679" lon="3.85139">
        <ele>244.3</ele>
        <time>2015-08-30T08:17:54Z</time>
      </trkpt>
      <trkpt lat="43.99849" lon="3.85142">
        <ele>236.1</ele>
        <time>2015-08-30T08:18:02Z</time>
      </trkpt>
      <trkpt lat="43.99989" lon="3.85104">
        <ele>235.2</ele>
        <time>2015-08-30T08:18:09Z</time>
      </trkpt>
      <trkpt lat="44.00006" lon="3.8511">
        <ele>236.6</ele>
        <time>2015-08-30T08:18:10Z</time>
      </trkpt>
      <trkpt lat="44.00022" lon="3.85122">
        <ele>237.1</ele>
        <time>2015-08-30T08:18:11Z</time>
      </trkpt>
      <trkpt lat="44.00035" lon="3.85136">
        <ele>237.6</ele>
        <time>2015-08-30T08:18:12Z</time>
      </trkpt>
      <trkpt lat="44.00046" lon="3.85153">
        <ele>238.5</ele>
        <time>2015-08-30T08:18:13Z</time>
      </trkpt>
      <trkpt lat="44.00056" lon="3.85228">
        <ele>239.5</ele>
        <time>2015-08-30T08:18:16Z</time>
      </trkpt>
      <trkpt lat="44.0007" lon="3.85276">
        <ele>240</ele>
        <time>2015-08-30T08:18:18Z</time>
      </trkpt>
      <trkpt lat="44.00109" lon="3.85362">
        <ele>245.3</ele>
        <time>2015-08-30T08:18:23Z</time>
      </trkpt>
      <trkpt lat="44.00123" lon="3.85371">
        <ele>245.8</ele>
        <time>2015-08-30T08:18:24Z</time>
      </trkpt>
      <trkpt lat="44.00139" lon="3.85378">
        <ele>246.7</ele>
        <time>2015-08-30T08:18:25Z</time>
      </trkpt>
      <trkpt lat="44.00177" lon="3.85386">
        <ele>247.2</ele>
        <time>2015-08-30T08:18:27Z</time>
      </trkpt>
      <trkpt lat="44.00194" lon="3.85391">
        <ele>246.7</ele>
        <time>2015-08-30T08:18:28Z</time>
      </trkpt>
      <trkpt lat="44.00257" lon="3.85428">
        <ele>250.1</ele>
        <time>2015-08-30T08:18:32Z</time>
      </trkpt>
      <trkpt lat="44.00319" lon="3.85489">
        <ele>254.9</ele>
        <time>2015-08-30T08:18:37Z</time>
      </trkpt>
      <trkpt lat="44.00332" lon="3.85496">
        <ele>254.9</ele>
        <time>2015-08-30T08:18:38Z</time>
      </trkpt>
      <trkpt lat="44.00347" lon="3.85498">
        <ele>254.9</ele>
        <time>2015-08-30T08:18:39Z</time>
      </trkpt>
      <trkpt lat="44.00397" lon="3.85495">
        <ele>257.3</ele>
        <time>2015-08-30T08:18:42Z</time>
      </trkpt>
      <trkpt lat="44.00438" lon="3.85499">
        <ele>260.2</ele>
        <time>2015-08-30T08:18:45Z</time>
      </trkpt>
      <trkpt lat="44.00452" lon="3.85493">
        <ele>260.7</ele>
        <time>2015-08-30T08:18:46Z</time>
      </trkpt>
      <trkpt lat="44.00479" lon="3.85465">
        <ele>265</ele>
        <time>2015-08-30T08:18:48Z</time>
      </trkpt>
      <trkpt lat="44.00503" lon="3.85428">
        <ele>267.4</ele>
        <time>2015-08-30T08:18:50Z</time>
      </trkpt>
      <trkpt lat="44.00592" lon="3.85246">
        <ele>272.2</ele>
        <time>2015-08-30T08:18:58Z</time>
      </trkpt>
      <trkpt lat="44.00651" lon="3.85186">
        <ele>274.6</ele>
        <time>2015-08-30T08:19:02Z</time>
      </trkpt>
      <trkpt lat="44.0067" lon="3.85177">
        <ele>276</ele>
        <time>2015-08-30T08:19:03Z</time>
      </trkpt>
      <trkpt lat="44.00689" lon="3.8517">
        <ele>278.4</ele>
        <time>2015-08-30T08:19:04Z</time>
      </trkpt>
      <trkpt lat="44.00709" lon="3.85169">
        <ele>282.3</ele>
        <time>2015-08-30T08:19:05Z</time>
      </trkpt>
      <trkpt lat="44.00748" lon="3.85178">
        <ele>289</ele>
        <time>2015-08-30T08:19:07Z</time>
      </trkpt>
      <trkpt lat="44.00765" lon="3.85189">
        <ele>291.9</ele>
        <time>2015-08-30T08:19:08Z</time>
      </trkpt>
      <trkpt lat="44.00782" lon="3.85206">
        <ele>297.2</ele>
        <time>2015-08-30T08:19:09Z</time>
      </trkpt>
      <trkpt lat="44.00799" lon="3.85232">
        <ele>292.4</ele>
        <time>2015-08-30T08:19:10Z</time>
      </trkpt>
      <trkpt lat="44.0083" lon="3.85304">
        <ele>289</ele>
        <time>2015-08-30T08:19:13Z</time>
      </trkpt>
      <trkpt lat="44.00868" lon="3.8535">
        <ele>286.6</ele>
        <time>2015-08-30T08:19:16Z</time>
      </trkpt>
      <trkpt lat="44.00882" lon="3.85356">
        <ele>286.6</ele>
        <time>2015-08-30T08:19:17Z</time>
      </trkpt>
      <trkpt lat="44.00901" lon="3.85355">
        <ele>286.1</ele>
        <time>2015-08-30T08:19:18Z</time>
      </trkpt>
      <trkpt lat="44.00919" lon="3.85351">
        <ele>285.7</ele>
        <time>2015-08-30T08:19:19Z</time>
      </trkpt>
      <trkpt lat="44.00979" lon="3.85322">
        <ele>286.1</ele>
        <time>2015-08-30T08:19:22Z</time>
      </trkpt>
      <trkpt lat="44.00996" lon="3.85312">
        <ele>286.1</ele>
        <time>2015-08-30T08:19:23Z</time>
      </trkpt>
      <trkpt lat="44.01084" lon="3.85304">
        <ele>286.1</ele>
        <time>2015-08-30T08:19:28Z</time>
      </trkpt>
      <trkpt lat="44.01102" lon="3.85308">
        <ele>286.1</ele>
        <time>2015-08-30T08:19:29Z</time>
      </trkpt>
      <trkpt lat="44.01176" lon="3.8535">
        <ele>289.5</ele>
        <time>2015-08-30T08:19:34Z</time>
      </trkpt>
      <trkpt lat="44.01183" lon="3.85365">
        <ele>290</ele>
        <time>2015-08-30T08:19:35Z</time>
      </trkpt>
      <trkpt lat="44.012" lon="3.85386">
        <ele>290.9</ele>
        <time>2015-08-30T08:19:37Z</time>
      </trkpt>
      <trkpt lat="44.01209" lon="3.85388">
        <ele>290.9</ele>
        <time>2015-08-30T08:19:38Z</time>
      </trkpt>
      <trkpt lat="44.01218" lon="3.85383">
        <ele>291.4</ele>
        <time>2015-08-30T08:19:39Z</time>
      </trkpt>
      <trkpt lat="44.01227" lon="3.85369">
        <ele>291.9</ele>
        <time>2015-08-30T08:19:40Z</time>
      </trkpt>
      <trkpt lat="44.01231" lon="3.85352">
        <ele>291.9</ele>
        <time>2015-08-30T08:19:41Z</time>
      </trkpt>
      <trkpt lat="44.01221" lon="3.853">
        <ele>295.3</ele>
        <time>2015-08-30T08:19:44Z</time>
      </trkpt>
      <trkpt lat="44.0123" lon="3.85239">
        <ele>295.7</ele>
        <time>2015-08-30T08:19:47Z</time>
      </trkpt>
      <trkpt lat="44.01249" lon="3.85166">
        <ele>298.2</ele>
        <time>2015-08-30T08:19:51Z</time>
      </trkpt>
      <trkpt lat="44.01265" lon="3.85172">
        <ele>299.1</ele>
        <time>2015-08-30T08:19:52Z</time>
      </trkpt>
      <trkpt lat="44.01277" lon="3.85171">
        <ele>300.6</ele>
        <time>2015-08-30T08:19:53Z</time>
      </trkpt>
      <trkpt lat="44.01302" lon="3.85166">
        <ele>303</ele>
        <time>2015-08-30T08:19:55Z</time>
      </trkpt>
      <trkpt lat="44.01323" lon="3.85136">
        <ele>300.6</ele>
        <time>2015-08-30T08:19:58Z</time>
      </trkpt>
      <trkpt lat="44.01326" lon="3.85117">
        <ele>301.5</ele>
        <time>2015-08-30T08:19:59Z</time>
      </trkpt>
      <trkpt lat="44.01348" lon="3.85086">
        <ele>305.8</ele>
        <time>2015-08-30T08:20:01Z</time>
      </trkpt>
      <trkpt lat="44.01393" lon="3.85077">
        <ele>310.6</ele>
        <time>2015-08-30T08:20:04Z</time>
      </trkpt>
      <trkpt lat="44.0141" lon="3.85076">
        <ele>312.1</ele>
        <time>2015-08-30T08:20:05Z</time>
      </trkpt>
      <trkpt lat="44.01444" lon="3.85081">
        <ele>314</ele>
        <time>2015-08-30T08:20:07Z</time>
      </trkpt>
      <trkpt lat="44.0146" lon="3.85081">
        <ele>314.5</ele>
        <time>2015-08-30T08:20:08Z</time>
      </trkpt>
      <trkpt lat="44.01474" lon="3.85072">
        <ele>316.4</ele>
        <time>2015-08-30T08:20:09Z</time>
      </trkpt>
      <trkpt lat="44.01487" lon="3.85067">
        <ele>315.5</ele>
        <time>2015-08-30T08:20:10Z</time>
      </trkpt>
      <trkpt lat="44.01493" lon="3.85053">
        <ele>315.5</ele>
        <time>2015-08-30T08:20:11Z</time>
      </trkpt>
      <trkpt lat="44.01497" lon="3.8504">
        <ele>315.5</ele>
        <time>2015-08-30T08:20:12Z</time>
      </trkpt>
      <trkpt lat="44.01483" lon="3.85012">
        <ele>314</ele>
        <time>2015-08-30T08:20:14Z</time>
      </trkpt>
      <trkpt lat="44.01461" lon="3.85003">
        <ele>315.5</ele>
        <time>2015-08-30T08:20:16Z</time>
      </trkpt>
      <trkpt lat="44.01444" lon="3.85001">
        <ele>316.4</ele>
        <time>2015-08-30T08:20:17Z</time>
      </trkpt>
      <trkpt lat="44.01432" lon="3.84995">
        <ele>315.5</ele>
        <time>2015-08-30T08:20:18Z</time>
      </trkpt>
      <trkpt lat="44.01419" lon="3.84968">
        <ele>316.9</ele>
        <time>2015-08-30T08:20:20Z</time>
      </trkpt>
      <trkpt lat="44.01414" lon="3.84953">
        <ele>317.9</ele>
        <time>2015-08-30T08:20:21Z</time>
      </trkpt>
      <trkpt lat="44.01395" lon="3.84938">
        <ele>318.8</ele>
        <time>2015-08-30T08:20:23Z</time>
      </trkpt>
      <trkpt lat="44.01371" lon="3.8493">
        <ele>319.8</ele>
        <time>2015-08-30T08:20:25Z</time>
      </trkpt>
      <trkpt lat="44.01359" lon="3.84919">
        <ele>320.3</ele>
        <time>2015-08-30T08:20:26Z</time>
      </trkpt>
      <trkpt lat="44.01338" lon="3.84889">
        <ele>322.2</ele>
        <time>2015-08-30T08:20:28Z</time>
      </trkpt>
      <trkpt lat="44.01312" lon="3.8487">
        <ele>323.1</ele>
        <time>2015-08-30T08:20:30Z</time>
      </trkpt>
      <trkpt lat="44.01299" lon="3.84864">
        <ele>324.1</ele>
        <time>2015-08-30T08:20:31Z</time>
      </trkpt>
      <trkpt lat="44.01287" lon="3.84856">
        <ele>325.5</ele>
        <time>2015-08-30T08:20:32Z</time>
      </trkpt>
      <trkpt lat="44.01279" lon="3.84845">
        <ele>326.5</ele>
        <time>2015-08-30T08:20:33Z</time>
      </trkpt>
      <trkpt lat="44.01278" lon="3.84831">
        <ele>328</ele>
        <time>2015-08-30T08:20:34Z</time>
      </trkpt>
      <trkpt lat="44.01282" lon="3.84819">
        <ele>329.4</ele>
        <time>2015-08-30T08:20:35Z</time>
      </trkpt>
      <trkpt lat="44.01292" lon="3.84807">
        <ele>329.4</ele>
        <time>2015-08-30T08:20:36Z</time>
      </trkpt>
      <trkpt lat="44.01324" lon="3.84795">
        <ele>332.3</ele>
        <time>2015-08-30T08:20:38Z</time>
      </trkpt>
      <trkpt lat="44.01341" lon="3.84802">
        <ele>331.8</ele>
        <time>2015-08-30T08:20:39Z</time>
      </trkpt>
      <trkpt lat="44.01389" lon="3.84841">
        <ele>333.7</ele>
        <time>2015-08-30T08:20:42Z</time>
      </trkpt>
      <trkpt lat="44.01417" lon="3.84845">
        <ele>334.7</ele>
        <time>2015-08-30T08:20:44Z</time>
      </trkpt>
      <trkpt lat="44.01479" lon="3.84815">
        <ele>335.2</ele>
        <time>2015-08-30T08:20:48Z</time>
      </trkpt>
      <trkpt lat="44.01495" lon="3.84819">
        <ele>335.2</ele>
        <time>2015-08-30T08:20:49Z</time>
      </trkpt>
      <trkpt lat="44.01511" lon="3.8483">
        <ele>336.6</ele>
        <time>2015-08-30T08:20:50Z</time>
      </trkpt>
      <trkpt lat="44.01523" lon="3.84844">
        <ele>337.6</ele>
        <time>2015-08-30T08:20:51Z</time>
      </trkpt>
      <trkpt lat="44.01533" lon="3.84859">
        <ele>337.1</ele>
        <time>2015-08-30T08:20:52Z</time>
      </trkpt>
      <trkpt lat="44.01547" lon="3.84873">
        <ele>338</ele>
        <time>2015-08-30T08:20:53Z</time>
      </trkpt>
      <trkpt lat="44.01562" lon="3.84881">
        <ele>339</ele>
        <time>2015-08-30T08:20:54Z</time>
      </trkpt>
      <trkpt lat="44.01574" lon="3.84882">
        <ele>339.5</ele>
        <time>2015-08-30T08:20:55Z</time>
      </trkpt>
      <trkpt lat="44.01605" lon="3.84858">
        <ele>342.9</ele>
        <time>2015-08-30T08:20:57Z</time>
      </trkpt>
      <trkpt lat="44.01619" lon="3.84849">
        <ele>344.3</ele>
        <time>2015-08-30T08:20:58Z</time>
      </trkpt>
      <trkpt lat="44.01634" lon="3.84845">
        <ele>345.3</ele>
        <time>2015-08-30T08:20:59Z</time>
      </trkpt>
      <trkpt lat="44.01649" lon="3.84846">
        <ele>346.2</ele>
        <time>2015-08-30T08:21:00Z</time>
      </trkpt>
      <trkpt lat="44.0167" lon="3.84865">
        <ele>347.2</ele>
        <time>2015-08-30T08:21:02Z</time>
      </trkpt>
      <trkpt lat="44.01675" lon="3.84884">
        <ele>347.7</ele>
        <time>2015-08-30T08:21:03Z</time>
      </trkpt>
      <trkpt lat="44.01657" lon="3.84941">
        <ele>350.1</ele>
        <time>2015-08-30T08:21:06Z</time>
      </trkpt>
      <trkpt lat="44.01653" lon="3.8496">
        <ele>350.5</ele>
        <time>2015-08-30T08:21:07Z</time>
      </trkpt>
      <trkpt lat="44.01656" lon="3.85003">
        <ele>350.5</ele>
        <time>2015-08-30T08:21:09Z</time>
      </trkpt>
      <trkpt lat="44.01665" lon="3.85044">
        <ele>351</ele>
        <time>2015-08-30T08:21:11Z</time>
      </trkpt>
      <trkpt lat="44.01674" lon="3.85061">
        <ele>352</ele>
        <time>2015-08-30T08:21:12Z</time>
      </trkpt>
      <trkpt lat="44.01687" lon="3.85074">
        <ele>352.5</ele>
        <time>2015-08-30T08:21:13Z</time>
      </trkpt>
      <trkpt lat="44.01696" lon="3.85089">
        <ele>353.4</ele>
        <time>2015-08-30T08:21:14Z</time>
      </trkpt>
      <trkpt lat="44.01701" lon="3.85108">
        <ele>354.4</ele>
        <time>2015-08-30T08:21:15Z</time>
      </trkpt>
      <trkpt lat="44.0173" lon="3.85181">
        <ele>357.3</ele>
        <time>2015-08-30T08:21:19Z</time>
      </trkpt>
      <trkpt lat="44.01734" lon="3.85202">
        <ele>358.2</ele>
        <time>2015-08-30T08:21:20Z</time>
      </trkpt>
      <trkpt lat="44.01734" lon="3.85226">
        <ele>358.7</ele>
        <time>2015-08-30T08:21:21Z</time>
      </trkpt>
      <trkpt lat="44.01724" lon="3.853">
        <ele>360.6</ele>
        <time>2015-08-30T08:21:24Z</time>
      </trkpt>
      <trkpt lat="44.01728" lon="3.85344">
        <ele>361.6</ele>
        <time>2015-08-30T08:21:26Z</time>
      </trkpt>
      <trkpt lat="44.01738" lon="3.85362">
        <ele>362.6</ele>
        <time>2015-08-30T08:21:27Z</time>
      </trkpt>
      <trkpt lat="44.01767" lon="3.85395">
        <ele>364</ele>
        <time>2015-08-30T08:21:29Z</time>
      </trkpt>
      <trkpt lat="44.01783" lon="3.85409">
        <ele>365</ele>
        <time>2015-08-30T08:21:30Z</time>
      </trkpt>
      <trkpt lat="44.018" lon="3.85418">
        <ele>365.9</ele>
        <time>2015-08-30T08:21:31Z</time>
      </trkpt>
      <trkpt lat="44.01816" lon="3.85424">
        <ele>366.4</ele>
        <time>2015-08-30T08:21:32Z</time>
      </trkpt>
      <trkpt lat="44.01828" lon="3.85434">
        <ele>366.4</ele>
        <time>2015-08-30T08:21:33Z</time>
      </trkpt>
      <trkpt lat="44.01848" lon="3.85487">
        <ele>369.8</ele>
        <time>2015-08-30T08:21:36Z</time>
      </trkpt>
      <trkpt lat="44.0188" lon="3.85531">
        <ele>372.7</ele>
        <time>2015-08-30T08:21:39Z</time>
      </trkpt>
      <trkpt lat="44.01896" lon="3.85548">
        <ele>373.6</ele>
        <time>2015-08-30T08:21:40Z</time>
      </trkpt>
      <trkpt lat="44.01958" lon="3.85599">
        <ele>375.5</ele>
        <time>2015-08-30T08:21:43Z</time>
      </trkpt>
      <trkpt lat="44.0203" lon="3.85702">
        <ele>379.4</ele>
        <time>2015-08-30T08:21:48Z</time>
      </trkpt>
      <trkpt lat="44.02046" lon="3.85756">
        <ele>382.7</ele>
        <time>2015-08-30T08:21:51Z</time>
      </trkpt>
      <trkpt lat="44.02052" lon="3.85771">
        <ele>383.2</ele>
        <time>2015-08-30T08:21:52Z</time>
      </trkpt>
      <trkpt lat="44.0206" lon="3.85782">
        <ele>384.2</ele>
        <time>2015-08-30T08:21:53Z</time>
      </trkpt>
      <trkpt lat="44.02071" lon="3.85787">
        <ele>385.6</ele>
        <time>2015-08-30T08:21:54Z</time>
      </trkpt>
      <trkpt lat="44.02102" lon="3.85796">
        <ele>387.1</ele>
        <time>2015-08-30T08:22:03Z</time>
      </trkpt>
      <trkpt lat="44.02117" lon="3.85805">
        <ele>387.1</ele>
        <time>2015-08-30T08:22:31Z</time>
      </trkpt>
      <trkpt lat="44.02134" lon="3.85812">
        <ele>387.1</ele>
        <time>2015-08-30T08:22:33Z</time>
      </trkpt>
      <trkpt lat="44.02144" lon="3.85819">
        <ele>387.1</ele>
        <time>2015-08-30T08:22:34Z</time>
      </trkpt>
      <trkpt lat="44.02156" lon="3.85831">
        <ele>386.6</ele>
        <time>2015-08-30T08:22:35Z</time>
      </trkpt>
      <trkpt lat="44.02167" lon="3.85845">
        <ele>385.2</ele>
        <time>2015-08-30T08:22:36Z</time>
      </trkpt>
      <trkpt lat="44.0221" lon="3.85926">
        <ele>379.4</ele>
        <time>2015-08-30T08:22:41Z</time>
      </trkpt>
      <trkpt lat="44.02215" lon="3.85942">
        <ele>378.4</ele>
        <time>2015-08-30T08:22:42Z</time>
      </trkpt>
      <trkpt lat="44.02218" lon="3.85959">
        <ele>377.5</ele>
        <time>2015-08-30T08:22:43Z</time>
      </trkpt>
      <trkpt lat="44.02221" lon="3.85993">
        <ele>376</ele>
        <time>2015-08-30T08:22:45Z</time>
      </trkpt>
      <trkpt lat="44.02227" lon="3.86021">
        <ele>374.6</ele>
        <time>2015-08-30T08:22:47Z</time>
      </trkpt>
      <trkpt lat="44.02236" lon="3.86025">
        <ele>375.1</ele>
        <time>2015-08-30T08:22:48Z</time>
      </trkpt>
      <trkpt lat="44.02245" lon="3.86023">
        <ele>374.1</ele>
        <time>2015-08-30T08:22:49Z</time>
      </trkpt>
      <trkpt lat="44.02254" lon="3.86015">
        <ele>372.7</ele>
        <time>2015-08-30T08:22:50Z</time>
      </trkpt>
      <trkpt lat="44.02295" lon="3.85938">
        <ele>369.3</ele>
        <time>2015-08-30T08:22:55Z</time>
      </trkpt>
      <trkpt lat="44.02305" lon="3.85925">
        <ele>368.8</ele>
        <time>2015-08-30T08:22:56Z</time>
      </trkpt>
      <trkpt lat="44.02315" lon="3.85917">
        <ele>368.3</ele>
        <time>2015-08-30T08:22:57Z</time>
      </trkpt>
      <trkpt lat="44.02376" lon="3.8585">
        <ele>365</ele>
        <time>2015-08-30T08:23:04Z</time>
      </trkpt>
      <trkpt lat="44.02382" lon="3.85837">
        <ele>364</ele>
        <time>2015-08-30T08:23:05Z</time>
      </trkpt>
      <trkpt lat="44.02384" lon="3.85819">
        <ele>364</ele>
        <time>2015-08-30T08:23:06Z</time>
      </trkpt>
      <trkpt lat="44.02384" lon="3.85803">
        <ele>363</ele>
        <time>2015-08-30T08:23:07Z</time>
      </trkpt>
      <trkpt lat="44.02375" lon="3.85775">
        <ele>362.1</ele>
        <time>2015-08-30T08:23:09Z</time>
      </trkpt>
      <trkpt lat="44.02374" lon="3.8576">
        <ele>361.6</ele>
        <time>2015-08-30T08:23:10Z</time>
      </trkpt>
      <trkpt lat="44.02374" lon="3.85745">
        <ele>361.6</ele>
        <time>2015-08-30T08:23:11Z</time>
      </trkpt>
      <trkpt lat="44.02377" lon="3.85733">
        <ele>361.1</ele>
        <time>2015-08-30T08:23:12Z</time>
      </trkpt>
      <trkpt lat="44.02384" lon="3.85724">
        <ele>361.1</ele>
        <time>2015-08-30T08:23:13Z</time>
      </trkpt>
      <trkpt lat="44.02401" lon="3.85717">
        <ele>359.2</ele>
        <time>2015-08-30T08:23:15Z</time>
      </trkpt>
      <trkpt lat="44.02413" lon="3.85718">
        <ele>359.2</ele>
        <time>2015-08-30T08:23:16Z</time>
      </trkpt>
      <trkpt lat="44.02428" lon="3.85725">
        <ele>358.2</ele>
        <time>2015-08-30T08:23:17Z</time>
      </trkpt>
      <trkpt lat="44.02456" lon="3.85733">
        <ele>356.8</ele>
        <time>2015-08-30T08:23:19Z</time>
      </trkpt>
      <trkpt lat="44.02469" lon="3.85735">
        <ele>355.3</ele>
        <time>2015-08-30T08:23:20Z</time>
      </trkpt>
      <trkpt lat="44.0248" lon="3.85727">
        <ele>354.4</ele>
        <time>2015-08-30T08:23:21Z</time>
      </trkpt>
      <trkpt lat="44.02488" lon="3.85717">
        <ele>352.9</ele>
        <time>2015-08-30T08:23:22Z</time>
      </trkpt>
      <trkpt lat="44.02504" lon="3.85692">
        <ele>352</ele>
        <time>2015-08-30T08:23:24Z</time>
      </trkpt>
      <trkpt lat="44.02513" lon="3.8568">
        <ele>351</ele>
        <time>2015-08-30T08:23:25Z</time>
      </trkpt>
      <trkpt lat="44.02528" lon="3.85655">
        <ele>349.1</ele>
        <time>2015-08-30T08:23:27Z</time>
      </trkpt>
      <trkpt lat="44.02545" lon="3.85612">
        <ele>347.7</ele>
        <time>2015-08-30T08:23:30Z</time>
      </trkpt>
      <trkpt lat="44.02555" lon="3.85603">
        <ele>347.7</ele>
        <time>2015-08-30T08:23:31Z</time>
      </trkpt>
      <trkpt lat="44.02565" lon="3.85595">
        <ele>346.7</ele>
        <time>2015-08-30T08:23:32Z</time>
      </trkpt>
      <trkpt lat="44.02577" lon="3.85589">
        <ele>346.2</ele>
        <time>2015-08-30T08:23:33Z</time>
      </trkpt>
      <trkpt lat="44.02593" lon="3.85584">
        <ele>345.7</ele>
        <time>2015-08-30T08:23:34Z</time>
      </trkpt>
      <trkpt lat="44.02607" lon="3.85578">
        <ele>344.3</ele>
        <time>2015-08-30T08:23:35Z</time>
      </trkpt>
      <trkpt lat="44.02621" lon="3.85569">
        <ele>343.8</ele>
        <time>2015-08-30T08:23:36Z</time>
      </trkpt>
      <trkpt lat="44.02646" lon="3.85548">
        <ele>341.9</ele>
        <time>2015-08-30T08:23:38Z</time>
      </trkpt>
      <trkpt lat="44.02659" lon="3.85541">
        <ele>340.9</ele>
        <time>2015-08-30T08:23:39Z</time>
      </trkpt>
      <trkpt lat="44.02673" lon="3.85543">
        <ele>340</ele>
        <time>2015-08-30T08:23:40Z</time>
      </trkpt>
      <trkpt lat="44.02688" lon="3.85551">
        <ele>338.5</ele>
        <time>2015-08-30T08:23:41Z</time>
      </trkpt>
      <trkpt lat="44.02702" lon="3.85565">
        <ele>337.6</ele>
        <time>2015-08-30T08:23:42Z</time>
      </trkpt>
      <trkpt lat="44.02715" lon="3.85581">
        <ele>337.1</ele>
        <time>2015-08-30T08:23:43Z</time>
      </trkpt>
      <trkpt lat="44.02725" lon="3.856">
        <ele>336.1</ele>
        <time>2015-08-30T08:23:44Z</time>
      </trkpt>
      <trkpt lat="44.02733" lon="3.85623">
        <ele>336.1</ele>
        <time>2015-08-30T08:23:45Z</time>
      </trkpt>
      <trkpt lat="44.02746" lon="3.85695">
        <ele>334.7</ele>
        <time>2015-08-30T08:23:48Z</time>
      </trkpt>
      <trkpt lat="44.02745" lon="3.85745">
        <ele>331.8</ele>
        <time>2015-08-30T08:23:50Z</time>
      </trkpt>
      <trkpt lat="44.02741" lon="3.85788">
        <ele>329.4</ele>
        <time>2015-08-30T08:23:52Z</time>
      </trkpt>
      <trkpt lat="44.02733" lon="3.85804">
        <ele>328.9</ele>
        <time>2015-08-30T08:23:53Z</time>
      </trkpt>
      <trkpt lat="44.0272" lon="3.85814">
        <ele>328.4</ele>
        <time>2015-08-30T08:23:54Z</time>
      </trkpt>
      <trkpt lat="44.02704" lon="3.85824">
        <ele>328</ele>
        <time>2015-08-30T08:23:55Z</time>
      </trkpt>
      <trkpt lat="44.02691" lon="3.85836">
        <ele>328.4</ele>
        <time>2015-08-30T08:23:56Z</time>
      </trkpt>
      <trkpt lat="44.02679" lon="3.8585">
        <ele>328</ele>
        <time>2015-08-30T08:23:57Z</time>
      </trkpt>
      <trkpt lat="44.02661" lon="3.85877">
        <ele>325.5</ele>
        <time>2015-08-30T08:23:59Z</time>
      </trkpt>
      <trkpt lat="44.02663" lon="3.85893">
        <ele>322.7</ele>
        <time>2015-08-30T08:24:00Z</time>
      </trkpt>
      <trkpt lat="44.02667" lon="3.8591">
        <ele>320.3</ele>
        <time>2015-08-30T08:24:01Z</time>
      </trkpt>
      <trkpt lat="44.02675" lon="3.85922">
        <ele>318.8</ele>
        <time>2015-08-30T08:24:02Z</time>
      </trkpt>
      <trkpt lat="44.02687" lon="3.85929">
        <ele>316.9</ele>
        <time>2015-08-30T08:24:03Z</time>
      </trkpt>
      <trkpt lat="44.02697" lon="3.85939">
        <ele>315.9</ele>
        <time>2015-08-30T08:24:04Z</time>
      </trkpt>
      <trkpt lat="44.02704" lon="3.85953">
        <ele>315</ele>
        <time>2015-08-30T08:24:05Z</time>
      </trkpt>
      <trkpt lat="44.0272" lon="3.86067">
        <ele>308.2</ele>
        <time>2015-08-30T08:24:12Z</time>
      </trkpt>
      <trkpt lat="44.02724" lon="3.86078">
        <ele>307.3</ele>
        <time>2015-08-30T08:24:13Z</time>
      </trkpt>
      <trkpt lat="44.02733" lon="3.86085">
        <ele>308.2</ele>
        <time>2015-08-30T08:24:14Z</time>
      </trkpt>
      <trkpt lat="44.02753" lon="3.86086">
        <ele>308.7</ele>
        <time>2015-08-30T08:24:16Z</time>
      </trkpt>
      <trkpt lat="44.02809" lon="3.86038">
        <ele>308.2</ele>
        <time>2015-08-30T08:24:20Z</time>
      </trkpt>
      <trkpt lat="44.02824" lon="3.86029">
        <ele>307.8</ele>
        <time>2015-08-30T08:24:21Z</time>
      </trkpt>
      <trkpt lat="44.02841" lon="3.86025">
        <ele>307.3</ele>
        <time>2015-08-30T08:24:22Z</time>
      </trkpt>
      <trkpt lat="44.02857" lon="3.86026">
        <ele>307.3</ele>
        <time>2015-08-30T08:24:23Z</time>
      </trkpt>
      <trkpt lat="44.02871" lon="3.86029">
        <ele>306.3</ele>
        <time>2015-08-30T08:24:24Z</time>
      </trkpt>
      <trkpt lat="44.02885" lon="3.86035">
        <ele>304.9</ele>
        <time>2015-08-30T08:24:25Z</time>
      </trkpt>
      <trkpt lat="44.02898" lon="3.86039">
        <ele>303.4</ele>
        <time>2015-08-30T08:24:26Z</time>
      </trkpt>
      <trkpt lat="44.02928" lon="3.86033">
        <ele>301</ele>
        <time>2015-08-30T08:24:28Z</time>
      </trkpt>
      <trkpt lat="44.02986" lon="3.86002">
        <ele>297.2</ele>
        <time>2015-08-30T08:24:32Z</time>
      </trkpt>
      <trkpt lat="44.03009" lon="3.85985">
        <ele>295.3</ele>
        <time>2015-08-30T08:24:34Z</time>
      </trkpt>
      <trkpt lat="44.03016" lon="3.85972">
        <ele>293.8</ele>
        <time>2015-08-30T08:24:35Z</time>
      </trkpt>
      <trkpt lat="44.03019" lon="3.85955">
        <ele>292.4</ele>
        <time>2015-08-30T08:24:36Z</time>
      </trkpt>
      <trkpt lat="44.03017" lon="3.85937">
        <ele>291.4</ele>
        <time>2015-08-30T08:24:37Z</time>
      </trkpt>
      <trkpt lat="44.03008" lon="3.85904">
        <ele>290.9</ele>
        <time>2015-08-30T08:24:39Z</time>
      </trkpt>
      <trkpt lat="44.03003" lon="3.85848">
        <ele>290</ele>
        <time>2015-08-30T08:24:42Z</time>
      </trkpt>
      <trkpt lat="44.02995" lon="3.85833">
        <ele>289</ele>
        <time>2015-08-30T08:24:43Z</time>
      </trkpt>
      <trkpt lat="44.02986" lon="3.8582">
        <ele>288.1</ele>
        <time>2015-08-30T08:24:44Z</time>
      </trkpt>
      <trkpt lat="44.02977" lon="3.8581">
        <ele>287.1</ele>
        <time>2015-08-30T08:24:45Z</time>
      </trkpt>
      <trkpt lat="44.02967" lon="3.85801">
        <ele>286.1</ele>
        <time>2015-08-30T08:24:46Z</time>
      </trkpt>
      <trkpt lat="44.02959" lon="3.85791">
        <ele>284.7</ele>
        <time>2015-08-30T08:24:47Z</time>
      </trkpt>
      <trkpt lat="44.02954" lon="3.8578">
        <ele>284.7</ele>
        <time>2015-08-30T08:24:48Z</time>
      </trkpt>
      <trkpt lat="44.02955" lon="3.85769">
        <ele>284.2</ele>
        <time>2015-08-30T08:24:49Z</time>
      </trkpt>
      <trkpt lat="44.02961" lon="3.85758">
        <ele>283.3</ele>
        <time>2015-08-30T08:24:50Z</time>
      </trkpt>
      <trkpt lat="44.02971" lon="3.85751">
        <ele>282.3</ele>
        <time>2015-08-30T08:24:51Z</time>
      </trkpt>
      <trkpt lat="44.02991" lon="3.85749">
        <ele>279.4</ele>
        <time>2015-08-30T08:24:53Z</time>
      </trkpt>
      <trkpt lat="44.03004" lon="3.85753">
        <ele>278.4</ele>
        <time>2015-08-30T08:24:54Z</time>
      </trkpt>
      <trkpt lat="44.03021" lon="3.85764">
        <ele>280.4</ele>
        <time>2015-08-30T08:24:55Z</time>
      </trkpt>
      <trkpt lat="44.03214" lon="3.85934">
        <ele>278.9</ele>
        <time>2015-08-30T08:25:10Z</time>
      </trkpt>
      <trkpt lat="44.03333" lon="3.86006">
        <ele>279.4</ele>
        <time>2015-08-30T08:25:20Z</time>
      </trkpt>
      <trkpt lat="44.03615" lon="3.86115">
        <ele>270.8</ele>
        <time>2015-08-30T08:25:42Z</time>
      </trkpt>
      <trkpt lat="44.03675" lon="3.86121">
        <ele>269.3</ele>
        <time>2015-08-30T08:25:46Z</time>
      </trkpt>
      <trkpt lat="44.0379" lon="3.86122">
        <ele>267.4</ele>
        <time>2015-08-30T08:25:53Z</time>
      </trkpt>
      <trkpt lat="44.03958" lon="3.86195">
        <ele>268.4</ele>
        <time>2015-08-30T08:26:02Z</time>
      </trkpt>
      <trkpt lat="44.03973" lon="3.86197">
        <ele>268.8</ele>
        <time>2015-08-30T08:26:03Z</time>
      </trkpt>
      <trkpt lat="44.03986" lon="3.86196">
        <ele>269.8</ele>
        <time>2015-08-30T08:26:04Z</time>
      </trkpt>
      <trkpt lat="44.0401" lon="3.86192">
        <ele>271.2</ele>
        <time>2015-08-30T08:26:06Z</time>
      </trkpt>
      <trkpt lat="44.04033" lon="3.86192">
        <ele>273.6</ele>
        <time>2015-08-30T08:26:08Z</time>
      </trkpt>
      <trkpt lat="44.04045" lon="3.86196">
        <ele>274.1</ele>
        <time>2015-08-30T08:26:09Z</time>
      </trkpt>
      <trkpt lat="44.04067" lon="3.86209">
        <ele>275.6</ele>
        <time>2015-08-30T08:26:11Z</time>
      </trkpt>
      <trkpt lat="44.04109" lon="3.86247">
        <ele>278.9</ele>
        <time>2015-08-30T08:26:15Z</time>
      </trkpt>
      <trkpt lat="44.04314" lon="3.86553">
        <ele>281.3</ele>
        <time>2015-08-30T08:26:30Z</time>
      </trkpt>
      <trkpt lat="44.04398" lon="3.86746">
        <ele>272.2</ele>
        <time>2015-08-30T08:26:37Z</time>
      </trkpt>
      <trkpt lat="44.04423" lon="3.86829">
        <ele>266.9</ele>
        <time>2015-08-30T08:26:40Z</time>
      </trkpt>
      <trkpt lat="44.04436" lon="3.86852">
        <ele>265.5</ele>
        <time>2015-08-30T08:26:41Z</time>
      </trkpt>
      <trkpt lat="44.0445" lon="3.86872">
        <ele>263.5</ele>
        <time>2015-08-30T08:26:42Z</time>
      </trkpt>
      <trkpt lat="44.04497" lon="3.86917">
        <ele>258.7</ele>
        <time>2015-08-30T08:26:45Z</time>
      </trkpt>
      <trkpt lat="44.0451" lon="3.86934">
        <ele>257.3</ele>
        <time>2015-08-30T08:26:46Z</time>
      </trkpt>
      <trkpt lat="44.04536" lon="3.86975">
        <ele>255.4</ele>
        <time>2015-08-30T08:26:48Z</time>
      </trkpt>
      <trkpt lat="44.04606" lon="3.87051">
        <ele>249.6</ele>
        <time>2015-08-30T08:26:53Z</time>
      </trkpt>
      <trkpt lat="44.04623" lon="3.87057">
        <ele>248.2</ele>
        <time>2015-08-30T08:26:54Z</time>
      </trkpt>
      <trkpt lat="44.04712" lon="3.87113">
        <ele>243.4</ele>
        <time>2015-08-30T08:26:59Z</time>
      </trkpt>
      <trkpt lat="44.0473" lon="3.87119">
        <ele>242.4</ele>
        <time>2015-08-30T08:27:00Z</time>
      </trkpt>
      <trkpt lat="44.04748" lon="3.8712">
        <ele>241.4</ele>
        <time>2015-08-30T08:27:01Z</time>
      </trkpt>
      <trkpt lat="44.04779" lon="3.87114">
        <ele>240.5</ele>
        <time>2015-08-30T08:27:03Z</time>
      </trkpt>
      <trkpt lat="44.04804" lon="3.8712">
        <ele>239.5</ele>
        <time>2015-08-30T08:27:05Z</time>
      </trkpt>
      <trkpt lat="44.04811" lon="3.87133">
        <ele>239</ele>
        <time>2015-08-30T08:27:06Z</time>
      </trkpt>
      <trkpt lat="44.04812" lon="3.87148">
        <ele>237.1</ele>
        <time>2015-08-30T08:27:07Z</time>
      </trkpt>
      <trkpt lat="44.04808" lon="3.87163">
        <ele>236.1</ele>
        <time>2015-08-30T08:27:08Z</time>
      </trkpt>
      <trkpt lat="44.04799" lon="3.8718">
        <ele>235.2</ele>
        <time>2015-08-30T08:27:09Z</time>
      </trkpt>
      <trkpt lat="44.04764" lon="3.87214">
        <ele>233.7</ele>
        <time>2015-08-30T08:27:11Z</time>
      </trkpt>
      <trkpt lat="44.04654" lon="3.87375">
        <ele>229.9</ele>
        <time>2015-08-30T08:27:18Z</time>
      </trkpt>
      <trkpt lat="44.04645" lon="3.87397">
        <ele>228.9</ele>
        <time>2015-08-30T08:27:19Z</time>
      </trkpt>
      <trkpt lat="44.04632" lon="3.87446">
        <ele>227.5</ele>
        <time>2015-08-30T08:27:21Z</time>
      </trkpt>
      <trkpt lat="44.04624" lon="3.87496">
        <ele>226.1</ele>
        <time>2015-08-30T08:27:23Z</time>
      </trkpt>
      <trkpt lat="44.04622" lon="3.87521">
        <ele>225.1</ele>
        <time>2015-08-30T08:27:24Z</time>
      </trkpt>
      <trkpt lat="44.04623" lon="3.87723">
        <ele>220.3</ele>
        <time>2015-08-30T08:27:31Z</time>
      </trkpt>
      <trkpt lat="44.04599" lon="3.87862">
        <ele>216.9</ele>
        <time>2015-08-30T08:27:36Z</time>
      </trkpt>
      <trkpt lat="44.04592" lon="3.87878">
        <ele>216.4</ele>
        <time>2015-08-30T08:27:37Z</time>
      </trkpt>
      <trkpt lat="44.04581" lon="3.87887">
        <ele>216.4</ele>
        <time>2015-08-30T08:27:38Z</time>
      </trkpt>
      <trkpt lat="44.04569" lon="3.87901">
        <ele>216.4</ele>
        <time>2015-08-30T08:27:39Z</time>
      </trkpt>
      <trkpt lat="44.04554" lon="3.87914">
        <ele>216.4</ele>
        <time>2015-08-30T08:27:40Z</time>
      </trkpt>
      <trkpt lat="44.04523" lon="3.87934">
        <ele>216.9</ele>
        <time>2015-08-30T08:27:42Z</time>
      </trkpt>
      <trkpt lat="44.04479" lon="3.87938">
        <ele>216.4</ele>
        <time>2015-08-30T08:27:44Z</time>
      </trkpt>
      <trkpt lat="44.04457" lon="3.87948">
        <ele>216.9</ele>
        <time>2015-08-30T08:27:45Z</time>
      </trkpt>
      <trkpt lat="44.04438" lon="3.87968">
        <ele>216.9</ele>
        <time>2015-08-30T08:27:46Z</time>
      </trkpt>
      <trkpt lat="44.04411" lon="3.88021">
        <ele>217.4</ele>
        <time>2015-08-30T08:27:48Z</time>
      </trkpt>
      <trkpt lat="44.04392" lon="3.88073">
        <ele>217.9</ele>
        <time>2015-08-30T08:27:50Z</time>
      </trkpt>
      <trkpt lat="44.04364" lon="3.88224">
        <ele>220.3</ele>
        <time>2015-08-30T08:27:56Z</time>
      </trkpt>
      <trkpt lat="44.04355" lon="3.8842">
        <ele>221.7</ele>
        <time>2015-08-30T08:28:03Z</time>
      </trkpt>
      <trkpt lat="44.04349" lon="3.88446">
        <ele>222.2</ele>
        <time>2015-08-30T08:28:04Z</time>
      </trkpt>
      <trkpt lat="44.04313" lon="3.88552">
        <ele>224.1</ele>
        <time>2015-08-30T08:28:08Z</time>
      </trkpt>
      <trkpt lat="44.04293" lon="3.88727">
        <ele>224.1</ele>
        <time>2015-08-30T08:28:14Z</time>
      </trkpt>
      <trkpt lat="44.04297" lon="3.88754">
        <ele>224.1</ele>
        <time>2015-08-30T08:28:15Z</time>
      </trkpt>
      <trkpt lat="44.04342" lon="3.8893">
        <ele>225.1</ele>
        <time>2015-08-30T08:28:21Z</time>
      </trkpt>
      <trkpt lat="44.04354" lon="3.88957">
        <ele>224.1</ele>
        <time>2015-08-30T08:28:22Z</time>
      </trkpt>
      <trkpt lat="44.04457" lon="3.89329">
        <ele>210.7</ele>
        <time>2015-08-30T08:28:33Z</time>
      </trkpt>
      <trkpt lat="44.04483" lon="3.89567">
        <ele>206.8</ele>
        <time>2015-08-30T08:28:40Z</time>
      </trkpt>
      <trkpt lat="44.04502" lon="3.89611">
        <ele>207.3</ele>
        <time>2015-08-30T08:28:42Z</time>
      </trkpt>
      <trkpt lat="44.04535" lon="3.89638">
        <ele>206.8</ele>
        <time>2015-08-30T08:28:44Z</time>
      </trkpt>
      <trkpt lat="44.04581" lon="3.89666">
        <ele>205.9</ele>
        <time>2015-08-30T08:28:46Z</time>
      </trkpt>
      <trkpt lat="44.04604" lon="3.89683">
        <ele>206.3</ele>
        <time>2015-08-30T08:28:47Z</time>
      </trkpt>
      <trkpt lat="44.04673" lon="3.89766">
        <ele>209.2</ele>
        <time>2015-08-30T08:28:51Z</time>
      </trkpt>
      <trkpt lat="44.04714" lon="3.89861">
        <ele>211.2</ele>
        <time>2015-08-30T08:28:55Z</time>
      </trkpt>
      <trkpt lat="44.04729" lon="3.89881">
        <ele>211.2</ele>
        <time>2015-08-30T08:28:56Z</time>
      </trkpt>
      <trkpt lat="44.04747" lon="3.89897">
        <ele>210.7</ele>
        <time>2015-08-30T08:28:57Z</time>
      </trkpt>
      <trkpt lat="44.04972" lon="3.9004">
        <ele>209.2</ele>
        <time>2015-08-30T08:29:07Z</time>
      </trkpt>
      <trkpt lat="44.05047" lon="3.90142">
        <ele>213.1</ele>
        <time>2015-08-30T08:29:12Z</time>
      </trkpt>
      <trkpt lat="44.0508" lon="3.90168">
        <ele>215</ele>
        <time>2015-08-30T08:29:14Z</time>
      </trkpt>
      <trkpt lat="44.05102" lon="3.90175">
        <ele>215.5</ele>
        <time>2015-08-30T08:29:15Z</time>
      </trkpt>
      <trkpt lat="44.05178" lon="3.9019">
        <ele>218.8</ele>
        <time>2015-08-30T08:29:18Z</time>
      </trkpt>
      <trkpt lat="44.05336" lon="3.90201">
        <ele>229.9</ele>
        <time>2015-08-30T08:29:25Z</time>
      </trkpt>
      <trkpt lat="44.05355" lon="3.902">
        <ele>230.9</ele>
        <time>2015-08-30T08:29:26Z</time>
      </trkpt>
      <trkpt lat="44.05372" lon="3.90206">
        <ele>231.8</ele>
        <time>2015-08-30T08:29:27Z</time>
      </trkpt>
      <trkpt lat="44.05386" lon="3.9022">
        <ele>232.3</ele>
        <time>2015-08-30T08:29:28Z</time>
      </trkpt>
      <trkpt lat="44.05395" lon="3.90241">
        <ele>231.8</ele>
        <time>2015-08-30T08:29:29Z</time>
      </trkpt>
      <trkpt lat="44.05393" lon="3.90271">
        <ele>231.3</ele>
        <time>2015-08-30T08:29:30Z</time>
      </trkpt>
      <trkpt lat="44.05396" lon="3.903">
        <ele>230.4</ele>
        <time>2015-08-30T08:29:31Z</time>
      </trkpt>
      <trkpt lat="44.05447" lon="3.90417">
        <ele>228.9</ele>
        <time>2015-08-30T08:29:36Z</time>
      </trkpt>
      <trkpt lat="44.05541" lon="3.90472">
        <ele>228.5</ele>
        <time>2015-08-30T08:29:40Z</time>
      </trkpt>
      <trkpt lat="44.05584" lon="3.90492">
        <ele>228</ele>
        <time>2015-08-30T08:29:42Z</time>
      </trkpt>
      <trkpt lat="44.05609" lon="3.9049">
        <ele>228</ele>
        <time>2015-08-30T08:29:43Z</time>
      </trkpt>
      <trkpt lat="44.05634" lon="3.9049">
        <ele>228</ele>
        <time>2015-08-30T08:29:44Z</time>
      </trkpt>
      <trkpt lat="44.0566" lon="3.90496">
        <ele>228</ele>
        <time>2015-08-30T08:29:45Z</time>
      </trkpt>
      <trkpt lat="44.05682" lon="3.90505">
        <ele>227.5</ele>
        <time>2015-08-30T08:29:46Z</time>
      </trkpt>
      <trkpt lat="44.05753" lon="3.90549">
        <ele>226.5</ele>
        <time>2015-08-30T08:29:49Z</time>
      </trkpt>
      <trkpt lat="44.05832" lon="3.90581">
        <ele>230.4</ele>
        <time>2015-08-30T08:29:52Z</time>
      </trkpt>
      <trkpt lat="44.05877" lon="3.90612">
        <ele>231.3</ele>
        <time>2015-08-30T08:29:54Z</time>
      </trkpt>
      <trkpt lat="44.05918" lon="3.90655">
        <ele>231.8</ele>
        <time>2015-08-30T08:29:56Z</time>
      </trkpt>
      <trkpt lat="44.05936" lon="3.90681">
        <ele>231.8</ele>
        <time>2015-08-30T08:29:57Z</time>
      </trkpt>
      <trkpt lat="44.06117" lon="3.91036">
        <ele>227.5</ele>
        <time>2015-08-30T08:30:09Z</time>
      </trkpt>
      <trkpt lat="44.06136" lon="3.91098">
        <ele>225.6</ele>
        <time>2015-08-30T08:30:11Z</time>
      </trkpt>
      <trkpt lat="44.06139" lon="3.91231">
        <ele>223.6</ele>
        <time>2015-08-30T08:30:15Z</time>
      </trkpt>
      <trkpt lat="44.06146" lon="3.9126">
        <ele>223.6</ele>
        <time>2015-08-30T08:30:16Z</time>
      </trkpt>
      <trkpt lat="44.0619" lon="3.9137">
        <ele>224.1</ele>
        <time>2015-08-30T08:30:20Z</time>
      </trkpt>
      <trkpt lat="44.06198" lon="3.91438">
        <ele>224.6</ele>
        <time>2015-08-30T08:30:22Z</time>
      </trkpt>
      <trkpt lat="44.06198" lon="3.91545">
        <ele>222.2</ele>
        <time>2015-08-30T08:30:25Z</time>
      </trkpt>
      <trkpt lat="44.06194" lon="3.9158">
        <ele>221.2</ele>
        <time>2015-08-30T08:30:26Z</time>
      </trkpt>
      <trkpt lat="44.06186" lon="3.91614">
        <ele>220.3</ele>
        <time>2015-08-30T08:30:27Z</time>
      </trkpt>
      <trkpt lat="44.06166" lon="3.91675">
        <ele>220.3</ele>
        <time>2015-08-30T08:30:29Z</time>
      </trkpt>
      <trkpt lat="44.06154" lon="3.91768">
        <ele>220.3</ele>
        <time>2015-08-30T08:30:32Z</time>
      </trkpt>
      <trkpt lat="44.06172" lon="3.91837">
        <ele>220.3</ele>
        <time>2015-08-30T08:30:34Z</time>
      </trkpt>
      <trkpt lat="44.06273" lon="3.92067">
        <ele>223.2</ele>
        <time>2015-08-30T08:30:42Z</time>
      </trkpt>
      <trkpt lat="44.06325" lon="3.9225">
        <ele>220.8</ele>
        <time>2015-08-30T08:30:49Z</time>
      </trkpt>
      <trkpt lat="44.06325" lon="3.92279">
        <ele>219.3</ele>
        <time>2015-08-30T08:30:50Z</time>
      </trkpt>
      <trkpt lat="44.06312" lon="3.92366">
        <ele>215.5</ele>
        <time>2015-08-30T08:30:53Z</time>
      </trkpt>
      <trkpt lat="44.06312" lon="3.92464">
        <ele>211.6</ele>
        <time>2015-08-30T08:30:56Z</time>
      </trkpt>
      <trkpt lat="44.06336" lon="3.92731">
        <ele>204.4</ele>
        <time>2015-08-30T08:31:04Z</time>
      </trkpt>
      <trkpt lat="44.0636" lon="3.9284">
        <ele>199.6</ele>
        <time>2015-08-30T08:31:08Z</time>
      </trkpt>
      <trkpt lat="44.06359" lon="3.92901">
        <ele>197.2</ele>
        <time>2015-08-30T08:31:10Z</time>
      </trkpt>
      <trkpt lat="44.06333" lon="3.93118">
        <ele>189.5</ele>
        <time>2015-08-30T08:31:16Z</time>
      </trkpt>
      <trkpt lat="44.06336" lon="3.93148">
        <ele>188.1</ele>
        <time>2015-08-30T08:31:17Z</time>
      </trkpt>
      <trkpt lat="44.06344" lon="3.93178">
        <ele>186.2</ele>
        <time>2015-08-30T08:31:18Z</time>
      </trkpt>
      <trkpt lat="44.06376" lon="3.93239">
        <ele>182.8</ele>
        <time>2015-08-30T08:31:20Z</time>
      </trkpt>
      <trkpt lat="44.06441" lon="3.93315">
        <ele>177</ele>
        <time>2015-08-30T08:31:23Z</time>
      </trkpt>
      <trkpt lat="44.06502" lon="3.93349">
        <ele>172.2</ele>
        <time>2015-08-30T08:31:26Z</time>
      </trkpt>
      <trkpt lat="44.06527" lon="3.93355">
        <ele>171.3</ele>
        <time>2015-08-30T08:31:27Z</time>
      </trkpt>
      <trkpt lat="44.06551" lon="3.93364">
        <ele>169.8</ele>
        <time>2015-08-30T08:31:28Z</time>
      </trkpt>
      <trkpt lat="44.06671" lon="3.93473">
        <ele>165.5</ele>
        <time>2015-08-30T08:31:33Z</time>
      </trkpt>
      <trkpt lat="44.06742" lon="3.93577">
        <ele>164</ele>
        <time>2015-08-30T08:31:38Z</time>
      </trkpt>
      <trkpt lat="44.06755" lon="3.93582">
        <ele>164</ele>
        <time>2015-08-30T08:31:39Z</time>
      </trkpt>
      <trkpt lat="44.0677" lon="3.93577">
        <ele>164</ele>
        <time>2015-08-30T08:31:40Z</time>
      </trkpt>
      <trkpt lat="44.06785" lon="3.93574">
        <ele>163.1</ele>
        <time>2015-08-30T08:31:41Z</time>
      </trkpt>
      <trkpt lat="44.06869" lon="3.93508">
        <ele>160.2</ele>
        <time>2015-08-30T08:31:45Z</time>
      </trkpt>
      <trkpt lat="44.06892" lon="3.93495">
        <ele>159.7</ele>
        <time>2015-08-30T08:31:46Z</time>
      </trkpt>
      <trkpt lat="44.06967" lon="3.93479">
        <ele>158.8</ele>
        <time>2015-08-30T08:31:49Z</time>
      </trkpt>
      <trkpt lat="44.07016" lon="3.93458">
        <ele>158.8</ele>
        <time>2015-08-30T08:31:51Z</time>
      </trkpt>
      <trkpt lat="44.07064" lon="3.93445">
        <ele>157.3</ele>
        <time>2015-08-30T08:31:54Z</time>
      </trkpt>
      <trkpt lat="44.07091" lon="3.9347">
        <ele>159.7</ele>
        <time>2015-08-30T08:31:56Z</time>
      </trkpt>
      <trkpt lat="44.07104" lon="3.93493">
        <ele>163.1</ele>
        <time>2015-08-30T08:31:57Z</time>
      </trkpt>
      <trkpt lat="44.07117" lon="3.93511">
        <ele>163.1</ele>
        <time>2015-08-30T08:31:58Z</time>
      </trkpt>
      <trkpt lat="44.0713" lon="3.93526">
        <ele>163.1</ele>
        <time>2015-08-30T08:31:59Z</time>
      </trkpt>
      <trkpt lat="44.07145" lon="3.93537">
        <ele>162.6</ele>
        <time>2015-08-30T08:32:00Z</time>
      </trkpt>
      <trkpt lat="44.07183" lon="3.93552">
        <ele>162.6</ele>
        <time>2015-08-30T08:32:02Z</time>
      </trkpt>
      <trkpt lat="44.07373" lon="3.9358">
        <ele>159.7</ele>
        <time>2015-08-30T08:32:12Z</time>
      </trkpt>
      <trkpt lat="44.07384" lon="3.93589">
        <ele>159.2</ele>
        <time>2015-08-30T08:32:13Z</time>
      </trkpt>
      <trkpt lat="44.07391" lon="3.93601">
        <ele>158.8</ele>
        <time>2015-08-30T08:32:14Z</time>
      </trkpt>
      <trkpt lat="44.07399" lon="3.93647">
        <ele>157.8</ele>
        <time>2015-08-30T08:32:17Z</time>
      </trkpt>
      <trkpt lat="44.074" lon="3.9366">
        <ele>157.3</ele>
        <time>2015-08-30T08:32:18Z</time>
      </trkpt>
      <trkpt lat="44.07398" lon="3.93671">
        <ele>156.8</ele>
        <time>2015-08-30T08:32:19Z</time>
      </trkpt>
      <trkpt lat="44.07395" lon="3.93678">
        <ele>156.4</ele>
        <time>2015-08-30T08:32:20Z</time>
      </trkpt>
      <trkpt lat="44.0739" lon="3.93688">
        <ele>156.8</ele>
        <time>2015-08-30T08:32:22Z</time>
      </trkpt>
      <trkpt lat="44.07385" lon="3.93694">
        <ele>157.3</ele>
        <time>2015-08-30T08:32:25Z</time>
      </trkpt>
      <trkpt lat="44.07382" lon="3.93695">
        <ele>157.8</ele>
        <time>2015-08-30T08:32:37Z</time>
      </trkpt>
      <trkpt lat="44.07377" lon="3.93738">
        <ele>158.3</ele>
        <time>2015-08-30T08:32:47Z</time>
      </trkpt>
      <trkpt lat="44.07379" lon="3.93747">
        <ele>157.8</ele>
        <time>2015-08-30T08:32:48Z</time>
      </trkpt>
      <trkpt lat="44.07383" lon="3.93754">
        <ele>157.3</ele>
        <time>2015-08-30T08:32:49Z</time>
      </trkpt>
      <trkpt lat="44.07389" lon="3.93755">
        <ele>156.8</ele>
        <time>2015-08-30T08:32:50Z</time>
      </trkpt>
      <trkpt lat="44.07399" lon="3.93753">
        <ele>157.8</ele>
        <time>2015-08-30T08:32:51Z</time>
      </trkpt>
      <trkpt lat="44.07409" lon="3.93751">
        <ele>158.3</ele>
        <time>2015-08-30T08:32:52Z</time>
      </trkpt>
      <trkpt lat="44.07421" lon="3.93754">
        <ele>158.3</ele>
        <time>2015-08-30T08:32:53Z</time>
      </trkpt>
      <trkpt lat="44.07434" lon="3.93763">
        <ele>158.8</ele>
        <time>2015-08-30T08:32:54Z</time>
      </trkpt>
      <trkpt lat="44.07494" lon="3.93819">
        <ele>158.3</ele>
        <time>2015-08-30T08:32:59Z</time>
      </trkpt>
      <trkpt lat="44.07503" lon="3.93822">
        <ele>158.3</ele>
        <time>2015-08-30T08:33:00Z</time>
      </trkpt>
      <trkpt lat="44.07512" lon="3.93818">
        <ele>158.3</ele>
        <time>2015-08-30T08:33:01Z</time>
      </trkpt>
      <trkpt lat="44.07519" lon="3.93804">
        <ele>158.3</ele>
        <time>2015-08-30T08:33:02Z</time>
      </trkpt>
      <trkpt lat="44.07546" lon="3.93735">
        <ele>158.3</ele>
        <time>2015-08-30T08:33:05Z</time>
      </trkpt>
      <trkpt lat="44.07557" lon="3.93711">
        <ele>158.3</ele>
        <time>2015-08-30T08:33:06Z</time>
      </trkpt>
      <trkpt lat="44.07588" lon="3.93665">
        <ele>158.3</ele>
        <time>2015-08-30T08:33:08Z</time>
      </trkpt>
      <trkpt lat="44.07644" lon="3.93602">
        <ele>158.3</ele>
        <time>2015-08-30T08:33:11Z</time>
      </trkpt>
      <trkpt lat="44.07753" lon="3.93425">
        <ele>158.3</ele>
        <time>2015-08-30T08:33:18Z</time>
      </trkpt>
      <trkpt lat="44.0776" lon="3.93396">
        <ele>158.3</ele>
        <time>2015-08-30T08:33:19Z</time>
      </trkpt>
      <trkpt lat="44.07766" lon="3.93338">
        <ele>158.3</ele>
        <time>2015-08-30T08:33:21Z</time>
      </trkpt>
      <trkpt lat="44.07764" lon="3.93311">
        <ele>158.3</ele>
        <time>2015-08-30T08:33:22Z</time>
      </trkpt>
      <trkpt lat="44.0776" lon="3.93286">
        <ele>157.8</ele>
        <time>2015-08-30T08:33:23Z</time>
      </trkpt>
      <trkpt lat="44.07744" lon="3.93236">
        <ele>158.3</ele>
        <time>2015-08-30T08:33:25Z</time>
      </trkpt>
      <trkpt lat="44.07732" lon="3.93211">
        <ele>158.8</ele>
        <time>2015-08-30T08:33:26Z</time>
      </trkpt>
      <trkpt lat="44.07717" lon="3.93187">
        <ele>158.8</ele>
        <time>2015-08-30T08:33:27Z</time>
      </trkpt>
      <trkpt lat="44.07615" lon="3.93055">
        <ele>166.9</ele>
        <time>2015-08-30T08:33:33Z</time>
      </trkpt>
      <trkpt lat="44.07603" lon="3.93032">
        <ele>167.9</ele>
        <time>2015-08-30T08:33:34Z</time>
      </trkpt>
      <trkpt lat="44.07594" lon="3.93006">
        <ele>168.4</ele>
        <time>2015-08-30T08:33:35Z</time>
      </trkpt>
      <trkpt lat="44.07586" lon="3.9295">
        <ele>169.8</ele>
        <time>2015-08-30T08:33:37Z</time>
      </trkpt>
      <trkpt lat="44.07584" lon="3.92922">
        <ele>170.3</ele>
        <time>2015-08-30T08:33:38Z</time>
      </trkpt>
      <trkpt lat="44.07586" lon="3.92897">
        <ele>171.3</ele>
        <time>2015-08-30T08:33:39Z</time>
      </trkpt>
      <trkpt lat="44.07596" lon="3.92876">
        <ele>171.3</ele>
        <time>2015-08-30T08:33:40Z</time>
      </trkpt>
      <trkpt lat="44.07613" lon="3.92861">
        <ele>172.2</ele>
        <time>2015-08-30T08:33:41Z</time>
      </trkpt>
      <trkpt lat="44.07647" lon="3.92853">
        <ele>175.6</ele>
        <time>2015-08-30T08:33:42Z</time>
      </trkpt>
      <trkpt lat="44.07751" lon="3.92855">
        <ele>183.8</ele>
        <time>2015-08-30T08:33:45Z</time>
      </trkpt>
      <trkpt lat="44.07836" lon="3.92824">
        <ele>183.8</ele>
        <time>2015-08-30T08:33:49Z</time>
      </trkpt>
      <trkpt lat="44.07854" lon="3.92808">
        <ele>183.8</ele>
        <time>2015-08-30T08:33:50Z</time>
      </trkpt>
      <trkpt lat="44.07887" lon="3.92766">
        <ele>183.3</ele>
        <time>2015-08-30T08:33:52Z</time>
      </trkpt>
      <trkpt lat="44.08063" lon="3.92454">
        <ele>178.9</ele>
        <time>2015-08-30T08:34:04Z</time>
      </trkpt>
      <trkpt lat="44.0832" lon="3.9214">
        <ele>176.1</ele>
        <time>2015-08-30T08:34:18Z</time>
      </trkpt>
      <trkpt lat="44.08485" lon="3.91985">
        <ele>180.4</ele>
        <time>2015-08-30T08:34:26Z</time>
      </trkpt>
      <trkpt lat="44.08685" lon="3.91847">
        <ele>188.6</ele>
        <time>2015-08-30T08:34:36Z</time>
      </trkpt>
      <trkpt lat="44.08888" lon="3.91736">
        <ele>198.7</ele>
        <time>2015-08-30T08:34:47Z</time>
      </trkpt>
      <trkpt lat="44.08971" lon="3.91702">
        <ele>202.5</ele>
        <time>2015-08-30T08:34:52Z</time>
      </trkpt>
      <trkpt lat="44.0899" lon="3.917">
        <ele>203</ele>
        <time>2015-08-30T08:34:53Z</time>
      </trkpt>
      <trkpt lat="44.09174" lon="3.91714">
        <ele>203.9</ele>
        <time>2015-08-30T08:35:02Z</time>
      </trkpt>
      <trkpt lat="44.093" lon="3.91784">
        <ele>200.1</ele>
        <time>2015-08-30T08:35:08Z</time>
      </trkpt>
      <trkpt lat="44.09463" lon="3.91898">
        <ele>193.4</ele>
        <time>2015-08-30T08:35:16Z</time>
      </trkpt>
      <trkpt lat="44.09487" lon="3.91898">
        <ele>192.9</ele>
        <time>2015-08-30T08:35:17Z</time>
      </trkpt>
      <trkpt lat="44.09512" lon="3.91895">
        <ele>191.9</ele>
        <time>2015-08-30T08:35:18Z</time>
      </trkpt>
      <trkpt lat="44.09602" lon="3.9187">
        <ele>190.5</ele>
        <time>2015-08-30T08:35:22Z</time>
      </trkpt>
      <trkpt lat="44.09622" lon="3.91857">
        <ele>190.5</ele>
        <time>2015-08-30T08:35:23Z</time>
      </trkpt>
      <trkpt lat="44.09639" lon="3.9184">
        <ele>190</ele>
        <time>2015-08-30T08:35:24Z</time>
      </trkpt>
      <trkpt lat="44.09655" lon="3.91821">
        <ele>189.5</ele>
        <time>2015-08-30T08:35:25Z</time>
      </trkpt>
      <trkpt lat="44.09683" lon="3.91775">
        <ele>188.1</ele>
        <time>2015-08-30T08:35:27Z</time>
      </trkpt>
      <trkpt lat="44.09751" lon="3.91629">
        <ele>182.8</ele>
        <time>2015-08-30T08:35:33Z</time>
      </trkpt>
      <trkpt lat="44.09755" lon="3.91599">
        <ele>183.3</ele>
        <time>2015-08-30T08:35:34Z</time>
      </trkpt>
      <trkpt lat="44.09755" lon="3.91484">
        <ele>182.3</ele>
        <time>2015-08-30T08:35:38Z</time>
      </trkpt>
      <trkpt lat="44.09768" lon="3.91396">
        <ele>183.3</ele>
        <time>2015-08-30T08:35:41Z</time>
      </trkpt>
      <trkpt lat="44.09841" lon="3.91104">
        <ele>183.3</ele>
        <time>2015-08-30T08:35:51Z</time>
      </trkpt>
      <trkpt lat="44.09785" lon="3.90405">
        <ele>181.4</ele>
        <time>2015-08-30T08:36:13Z</time>
      </trkpt>
      <trkpt lat="44.09808" lon="3.90212">
        <ele>181.8</ele>
        <time>2015-08-30T08:36:19Z</time>
      </trkpt>
      <trkpt lat="44.09827" lon="3.90129">
        <ele>182.3</ele>
        <time>2015-08-30T08:36:22Z</time>
      </trkpt>
      <trkpt lat="44.09935" lon="3.8989">
        <ele>185.2</ele>
        <time>2015-08-30T08:36:32Z</time>
      </trkpt>
      <trkpt lat="44.09993" lon="3.89646">
        <ele>184.2</ele>
        <time>2015-08-30T08:36:42Z</time>
      </trkpt>
      <trkpt lat="44.10011" lon="3.89603">
        <ele>184.7</ele>
        <time>2015-08-30T08:36:44Z</time>
      </trkpt>
      <trkpt lat="44.10022" lon="3.89586">
        <ele>184.7</ele>
        <time>2015-08-30T08:36:45Z</time>
      </trkpt>
      <trkpt lat="44.10045" lon="3.89557">
        <ele>185.2</ele>
        <time>2015-08-30T08:36:47Z</time>
      </trkpt>
      <trkpt lat="44.10067" lon="3.89535">
        <ele>185.7</ele>
        <time>2015-08-30T08:36:49Z</time>
      </trkpt>
      <trkpt lat="44.10079" lon="3.89526">
        <ele>185.7</ele>
        <time>2015-08-30T08:36:50Z</time>
      </trkpt>
      <trkpt lat="44.10089" lon="3.89519">
        <ele>185.7</ele>
        <time>2015-08-30T08:36:51Z</time>
      </trkpt>
      <trkpt lat="44.10101" lon="3.89514">
        <ele>185.7</ele>
        <time>2015-08-30T08:36:52Z</time>
      </trkpt>
      <trkpt lat="44.10112" lon="3.89511">
        <ele>185.2</ele>
        <time>2015-08-30T08:36:53Z</time>
      </trkpt>
      <trkpt lat="44.10131" lon="3.89509">
        <ele>185.2</ele>
        <time>2015-08-30T08:36:55Z</time>
      </trkpt>
      <trkpt lat="44.10137" lon="3.89506">
        <ele>185.2</ele>
        <time>2015-08-30T08:36:56Z</time>
      </trkpt>
      <trkpt lat="44.10139" lon="3.89501">
        <ele>185.2</ele>
        <time>2015-08-30T08:36:57Z</time>
      </trkpt>
      <trkpt lat="44.10139" lon="3.89495">
        <ele>184.2</ele>
        <time>2015-08-30T08:36:58Z</time>
      </trkpt>
      <trkpt lat="44.10136" lon="3.89486">
        <ele>183.8</ele>
        <time>2015-08-30T08:36:59Z</time>
      </trkpt>
      <trkpt lat="44.10132" lon="3.89474">
        <ele>184.2</ele>
        <time>2015-08-30T08:37:00Z</time>
      </trkpt>
      <trkpt lat="44.10131" lon="3.8946">
        <ele>184.7</ele>
        <time>2015-08-30T08:37:01Z</time>
      </trkpt>
      <trkpt lat="44.10146" lon="3.89221">
        <ele>186.6</ele>
        <time>2015-08-30T08:37:15Z</time>
      </trkpt>
      <trkpt lat="44.10159" lon="3.89155">
        <ele>190</ele>
        <time>2015-08-30T08:37:21Z</time>
      </trkpt>
      <trkpt lat="44.10169" lon="3.89151">
        <ele>190.5</ele>
        <time>2015-08-30T08:37:22Z</time>
      </trkpt>
      <trkpt lat="44.10205" lon="3.891">
        <ele>190.5</ele>
        <time>2015-08-30T08:37:26Z</time>
      </trkpt>
      <trkpt lat="44.10211" lon="3.89083">
        <ele>190</ele>
        <time>2015-08-30T08:37:27Z</time>
      </trkpt>
      <trkpt lat="44.10245" lon="3.88872">
        <ele>192.4</ele>
        <time>2015-08-30T08:37:42Z</time>
      </trkpt>
      <trkpt lat="44.10261" lon="3.88863">
        <ele>193.8</ele>
        <time>2015-08-30T08:37:44Z</time>
      </trkpt>
      <trkpt lat="44.10272" lon="3.88861">
        <ele>195.3</ele>
        <time>2015-08-30T08:37:45Z</time>
      </trkpt>
      <trkpt lat="44.10305" lon="3.88851">
        <ele>197.2</ele>
        <time>2015-08-30T08:37:48Z</time>
      </trkpt>
      <trkpt lat="44.10315" lon="3.88844">
        <ele>197.2</ele>
        <time>2015-08-30T08:37:49Z</time>
      </trkpt>
      <trkpt lat="44.10342" lon="3.88814">
        <ele>194.8</ele>
        <time>2015-08-30T08:37:52Z</time>
      </trkpt>
      <trkpt lat="44.10425" lon="3.88681">
        <ele>198.7</ele>
        <time>2015-08-30T08:38:04Z</time>
      </trkpt>
      <trkpt lat="44.10518" lon="3.8858">
        <ele>196.7</ele>
        <time>2015-08-30T08:38:19Z</time>
      </trkpt>
      <trkpt lat="44.1056" lon="3.88515">
        <ele>197.2</ele>
        <time>2015-08-30T08:38:28Z</time>
      </trkpt>
      <trkpt lat="44.10573" lon="3.88504">
        <ele>210.2</ele>
        <time>2015-08-30T08:38:36Z</time>
      </trkpt>
      <trkpt lat="44.10573" lon="3.88503">
        <ele>212.1</ele>
        <time>2015-08-30T08:38:39Z</time>
      </trkpt>
      <trkpt lat="44.10559" lon="3.88496">
        <ele>208.3</ele>
        <time>2015-08-30T08:39:01Z</time>
      </trkpt>
      <trkpt lat="44.10559" lon="3.88495">
        <ele>207.3</ele>
        <time>2015-08-30T08:39:02Z</time>
      </trkpt>
      <trkpt lat="44.10555" lon="3.88491">
        <ele>206.3</ele>
        <time>2015-08-30T08:39:04Z</time>
      </trkpt>
      <trkpt lat="44.10548" lon="3.88487">
        <ele>206.3</ele>
        <time>2015-08-30T08:39:07Z</time>
      </trkpt>
      <trkpt lat="44.10547" lon="3.88485">
        <ele>206.3</ele>
        <time>2015-08-30T08:39:08Z</time>
      </trkpt>
      <trkpt lat="44.10545" lon="3.88483">
        <ele>205.9</ele>
        <time>2015-08-30T08:39:09Z</time>
      </trkpt>
      <trkpt lat="44.10544" lon="3.88483">
        <ele>205.9</ele>
        <time>2015-08-30T08:39:10Z</time>
      </trkpt>
      <trkpt lat="44.10471" lon="3.88444">
        <ele>199.6</ele>
        <time>2015-08-30T08:39:38Z</time>
      </trkpt>
      <trkpt lat="44.10467" lon="3.88447">
        <ele>199.1</ele>
        <time>2015-08-30T08:39:39Z</time>
      </trkpt>
      <trkpt lat="44.10464" lon="3.8845">
        <ele>198.7</ele>
        <time>2015-08-30T08:39:40Z</time>
      </trkpt>
      <trkpt lat="44.10462" lon="3.88454">
        <ele>199.1</ele>
        <time>2015-08-30T08:39:41Z</time>
      </trkpt>
      <trkpt lat="44.1046" lon="3.88459">
        <ele>198.2</ele>
        <time>2015-08-30T08:39:42Z</time>
      </trkpt>
      <trkpt lat="44.10458" lon="3.88462">
        <ele>197.2</ele>
        <time>2015-08-30T08:39:43Z</time>
      </trkpt>
      <trkpt lat="44.10447" lon="3.88475">
        <ele>197.7</ele>
        <time>2015-08-30T08:39:54Z</time>
      </trkpt>
      <trkpt lat="44.10457" lon="3.88471">
        <ele>199.6</ele>
        <time>2015-08-30T08:40:09Z</time>
      </trkpt>
      <trkpt lat="44.10457" lon="3.8847">
        <ele>199.6</ele>
        <time>2015-08-30T08:40:11Z</time>
      </trkpt>
      <trkpt lat="44.10475" lon="3.88462">
        <ele>186.6</ele>
        <time>2015-08-30T09:26:40Z</time>
      </trkpt>
      <trkpt lat="44.10457" lon="3.88463">
        <ele>193.4</ele>
        <time>2015-08-30T09:27:15Z</time>
      </trkpt>
      <trkpt lat="44.10457" lon="3.88461">
        <ele>193.8</ele>
        <time>2015-08-30T09:27:18Z</time>
      </trkpt>
      <trkpt lat="44.10461" lon="3.88458">
        <ele>193.8</ele>
        <time>2015-08-30T09:27:21Z</time>
      </trkpt>
      <trkpt lat="44.10464" lon="3.88453">
        <ele>193.4</ele>
        <time>2015-08-30T09:27:35Z</time>
      </trkpt>
      <trkpt lat="44.10471" lon="3.88448">
        <ele>195.3</ele>
        <time>2015-08-30T09:28:03Z</time>
      </trkpt>
      <trkpt lat="44.10476" lon="3.88447">
        <ele>196.3</ele>
        <time>2015-08-30T09:28:04Z</time>
      </trkpt>
      <trkpt lat="44.1048" lon="3.88448">
        <ele>196.7</ele>
        <time>2015-08-30T09:28:05Z</time>
      </trkpt>
      <trkpt lat="44.10533" lon="3.8848">
        <ele>200.6</ele>
        <time>2015-08-30T09:28:15Z</time>
      </trkpt>
      <trkpt lat="44.10535" lon="3.88481">
        <ele>200.6</ele>
        <time>2015-08-30T09:28:16Z</time>
      </trkpt>
      <trkpt lat="44.10551" lon="3.88491">
        <ele>203.5</ele>
        <time>2015-08-30T09:28:23Z</time>
      </trkpt>
      <trkpt lat="44.10659" lon="3.88587">
        <ele>210.7</ele>
        <time>2015-08-30T09:28:57Z</time>
      </trkpt>
      <trkpt lat="44.10663" lon="3.88585">
        <ele>210.2</ele>
        <time>2015-08-30T09:28:58Z</time>
      </trkpt>
      <trkpt lat="44.10668" lon="3.88579">
        <ele>209.2</ele>
        <time>2015-08-30T09:28:59Z</time>
      </trkpt>
      <trkpt lat="44.10725" lon="3.88465">
        <ele>206.8</ele>
        <time>2015-08-30T09:29:09Z</time>
      </trkpt>
      <trkpt lat="44.10781" lon="3.88321">
        <ele>207.8</ele>
        <time>2015-08-30T09:29:19Z</time>
      </trkpt>
      <trkpt lat="44.10808" lon="3.88127">
        <ele>207.8</ele>
        <time>2015-08-30T09:29:29Z</time>
      </trkpt>
      <trkpt lat="44.10809" lon="3.88033">
        <ele>206.8</ele>
        <time>2015-08-30T09:29:34Z</time>
      </trkpt>
      <trkpt lat="44.108" lon="3.87993">
        <ele>205.9</ele>
        <time>2015-08-30T09:29:36Z</time>
      </trkpt>
      <trkpt lat="44.10786" lon="3.87954">
        <ele>204.9</ele>
        <time>2015-08-30T09:29:38Z</time>
      </trkpt>
      <trkpt lat="44.10744" lon="3.87874">
        <ele>201.5</ele>
        <time>2015-08-30T09:29:43Z</time>
      </trkpt>
      <trkpt lat="44.10738" lon="3.87856">
        <ele>200.1</ele>
        <time>2015-08-30T09:29:44Z</time>
      </trkpt>
      <trkpt lat="44.10734" lon="3.87819">
        <ele>200.1</ele>
        <time>2015-08-30T09:29:46Z</time>
      </trkpt>
      <trkpt lat="44.1075" lon="3.87649">
        <ele>195.3</ele>
        <time>2015-08-30T09:29:55Z</time>
      </trkpt>
      <trkpt lat="44.10759" lon="3.87632">
        <ele>194.8</ele>
        <time>2015-08-30T09:29:56Z</time>
      </trkpt>
      <trkpt lat="44.10877" lon="3.87472">
        <ele>195.8</ele>
        <time>2015-08-30T09:30:07Z</time>
      </trkpt>
      <trkpt lat="44.11" lon="3.87368">
        <ele>199.6</ele>
        <time>2015-08-30T09:30:17Z</time>
      </trkpt>
      <trkpt lat="44.11014" lon="3.8736">
        <ele>199.6</ele>
        <time>2015-08-30T09:30:18Z</time>
      </trkpt>
      <trkpt lat="44.11028" lon="3.87354">
        <ele>201.1</ele>
        <time>2015-08-30T09:30:19Z</time>
      </trkpt>
      <trkpt lat="44.11219" lon="3.87335">
        <ele>200.6</ele>
        <time>2015-08-30T09:30:31Z</time>
      </trkpt>
      <trkpt lat="44.11235" lon="3.87329">
        <ele>200.6</ele>
        <time>2015-08-30T09:30:32Z</time>
      </trkpt>
      <trkpt lat="44.11251" lon="3.87321">
        <ele>200.6</ele>
        <time>2015-08-30T09:30:33Z</time>
      </trkpt>
      <trkpt lat="44.11365" lon="3.87251">
        <ele>200.6</ele>
        <time>2015-08-30T09:30:41Z</time>
      </trkpt>
      <trkpt lat="44.11433" lon="3.87155">
        <ele>199.1</ele>
        <time>2015-08-30T09:30:47Z</time>
      </trkpt>
      <trkpt lat="44.1144" lon="3.87133">
        <ele>198.7</ele>
        <time>2015-08-30T09:30:48Z</time>
      </trkpt>
      <trkpt lat="44.11445" lon="3.87108">
        <ele>198.2</ele>
        <time>2015-08-30T09:30:49Z</time>
      </trkpt>
      <trkpt lat="44.11469" lon="3.86902">
        <ele>202.5</ele>
        <time>2015-08-30T09:30:57Z</time>
      </trkpt>
      <trkpt lat="44.11464" lon="3.86823">
        <ele>201.5</ele>
        <time>2015-08-30T09:31:00Z</time>
      </trkpt>
      <trkpt lat="44.11459" lon="3.86798">
        <ele>202</ele>
        <time>2015-08-30T09:31:01Z</time>
      </trkpt>
      <trkpt lat="44.11451" lon="3.86774">
        <ele>202.5</ele>
        <time>2015-08-30T09:31:02Z</time>
      </trkpt>
      <trkpt lat="44.11243" lon="3.86346">
        <ele>207.3</ele>
        <time>2015-08-30T09:31:24Z</time>
      </trkpt>
      <trkpt lat="44.11228" lon="3.86232">
        <ele>205.9</ele>
        <time>2015-08-30T09:31:29Z</time>
      </trkpt>
      <trkpt lat="44.11219" lon="3.86216">
        <ele>207.3</ele>
        <time>2015-08-30T09:31:30Z</time>
      </trkpt>
      <trkpt lat="44.11213" lon="3.86198">
        <ele>208.3</ele>
        <time>2015-08-30T09:31:31Z</time>
      </trkpt>
      <trkpt lat="44.11212" lon="3.86175">
        <ele>208.3</ele>
        <time>2015-08-30T09:31:32Z</time>
      </trkpt>
      <trkpt lat="44.11216" lon="3.86153">
        <ele>207.8</ele>
        <time>2015-08-30T09:31:33Z</time>
      </trkpt>
      <trkpt lat="44.11297" lon="3.85924">
        <ele>214.5</ele>
        <time>2015-08-30T09:31:45Z</time>
      </trkpt>
      <trkpt lat="44.11306" lon="3.85929">
        <ele>215</ele>
        <time>2015-08-30T09:31:46Z</time>
      </trkpt>
      <trkpt lat="44.11317" lon="3.85942">
        <ele>216</ele>
        <time>2015-08-30T09:31:47Z</time>
      </trkpt>
      <trkpt lat="44.11351" lon="3.85999">
        <ele>216.4</ele>
        <time>2015-08-30T09:31:50Z</time>
      </trkpt>
      <trkpt lat="44.11369" lon="3.86016">
        <ele>217.4</ele>
        <time>2015-08-30T09:31:51Z</time>
      </trkpt>
      <trkpt lat="44.11663" lon="3.86188">
        <ele>228.9</ele>
        <time>2015-08-30T09:32:05Z</time>
      </trkpt>
      <trkpt lat="44.11854" lon="3.86293">
        <ele>240</ele>
        <time>2015-08-30T09:32:15Z</time>
      </trkpt>
      <trkpt lat="44.11897" lon="3.86311">
        <ele>242.4</ele>
        <time>2015-08-30T09:32:18Z</time>
      </trkpt>
      <trkpt lat="44.1191" lon="3.86307">
        <ele>243.4</ele>
        <time>2015-08-30T09:32:19Z</time>
      </trkpt>
      <trkpt lat="44.1192" lon="3.86297">
        <ele>243.8</ele>
        <time>2015-08-30T09:32:20Z</time>
      </trkpt>
      <trkpt lat="44.11936" lon="3.8627">
        <ele>244.8</ele>
        <time>2015-08-30T09:32:22Z</time>
      </trkpt>
      <trkpt lat="44.11947" lon="3.86258">
        <ele>244.8</ele>
        <time>2015-08-30T09:32:23Z</time>
      </trkpt>
      <trkpt lat="44.11962" lon="3.86251">
        <ele>245.8</ele>
        <time>2015-08-30T09:32:24Z</time>
      </trkpt>
      <trkpt lat="44.11979" lon="3.86249">
        <ele>245.8</ele>
        <time>2015-08-30T09:32:25Z</time>
      </trkpt>
      <trkpt lat="44.11998" lon="3.86252">
        <ele>245.8</ele>
        <time>2015-08-30T09:32:26Z</time>
      </trkpt>
      <trkpt lat="44.12017" lon="3.86261">
        <ele>245.3</ele>
        <time>2015-08-30T09:32:27Z</time>
      </trkpt>
      <trkpt lat="44.12038" lon="3.86275">
        <ele>245.3</ele>
        <time>2015-08-30T09:32:28Z</time>
      </trkpt>
      <trkpt lat="44.12092" lon="3.86337">
        <ele>253</ele>
        <time>2015-08-30T09:32:31Z</time>
      </trkpt>
      <trkpt lat="44.12202" lon="3.86407">
        <ele>263.5</ele>
        <time>2015-08-30T09:32:37Z</time>
      </trkpt>
      <trkpt lat="44.12224" lon="3.86408">
        <ele>265.5</ele>
        <time>2015-08-30T09:32:38Z</time>
      </trkpt>
      <trkpt lat="44.12247" lon="3.86407">
        <ele>266.4</ele>
        <time>2015-08-30T09:32:39Z</time>
      </trkpt>
      <trkpt lat="44.12427" lon="3.86427">
        <ele>279.9</ele>
        <time>2015-08-30T09:32:46Z</time>
      </trkpt>
      <trkpt lat="44.12572" lon="3.86471">
        <ele>294.3</ele>
        <time>2015-08-30T09:32:52Z</time>
      </trkpt>
      <trkpt lat="44.12623" lon="3.8647">
        <ele>301</ele>
        <time>2015-08-30T09:32:55Z</time>
      </trkpt>
      <trkpt lat="44.12663" lon="3.86449">
        <ele>303.9</ele>
        <time>2015-08-30T09:32:58Z</time>
      </trkpt>
      <trkpt lat="44.12673" lon="3.86455">
        <ele>306.3</ele>
        <time>2015-08-30T09:33:00Z</time>
      </trkpt>
      <trkpt lat="44.12672" lon="3.86481">
        <ele>307.8</ele>
        <time>2015-08-30T09:33:02Z</time>
      </trkpt>
      <trkpt lat="44.12669" lon="3.86498">
        <ele>308.2</ele>
        <time>2015-08-30T09:33:03Z</time>
      </trkpt>
      <trkpt lat="44.12668" lon="3.86521">
        <ele>308.7</ele>
        <time>2015-08-30T09:33:04Z</time>
      </trkpt>
      <trkpt lat="44.12677" lon="3.86562">
        <ele>307.3</ele>
        <time>2015-08-30T09:33:06Z</time>
      </trkpt>
      <trkpt lat="44.12739" lon="3.86649">
        <ele>311.1</ele>
        <time>2015-08-30T09:33:12Z</time>
      </trkpt>
      <trkpt lat="44.12739" lon="3.86663">
        <ele>313.5</ele>
        <time>2015-08-30T09:33:13Z</time>
      </trkpt>
      <trkpt lat="44.12736" lon="3.86668">
        <ele>314.5</ele>
        <time>2015-08-30T09:33:14Z</time>
      </trkpt>
      <trkpt lat="44.12716" lon="3.8667">
        <ele>313.1</ele>
        <time>2015-08-30T09:33:16Z</time>
      </trkpt>
      <trkpt lat="44.12662" lon="3.86648">
        <ele>313.1</ele>
        <time>2015-08-30T09:33:19Z</time>
      </trkpt>
      <trkpt lat="44.12614" lon="3.86656">
        <ele>315</ele>
        <time>2015-08-30T09:33:21Z</time>
      </trkpt>
      <trkpt lat="44.12591" lon="3.86663">
        <ele>315.5</ele>
        <time>2015-08-30T09:33:22Z</time>
      </trkpt>
      <trkpt lat="44.12491" lon="3.86676">
        <ele>320.7</ele>
        <time>2015-08-30T09:33:28Z</time>
      </trkpt>
      <trkpt lat="44.12484" lon="3.86683">
        <ele>319.8</ele>
        <time>2015-08-30T09:33:29Z</time>
      </trkpt>
      <trkpt lat="44.12485" lon="3.86691">
        <ele>319.3</ele>
        <time>2015-08-30T09:33:30Z</time>
      </trkpt>
      <trkpt lat="44.1251" lon="3.867">
        <ele>318.8</ele>
        <time>2015-08-30T09:33:32Z</time>
      </trkpt>
      <trkpt lat="44.12529" lon="3.86704">
        <ele>319.3</ele>
        <time>2015-08-30T09:33:33Z</time>
      </trkpt>
      <trkpt lat="44.12605" lon="3.867">
        <ele>324.1</ele>
        <time>2015-08-30T09:33:36Z</time>
      </trkpt>
      <trkpt lat="44.12625" lon="3.86696">
        <ele>325.1</ele>
        <time>2015-08-30T09:33:37Z</time>
      </trkpt>
      <trkpt lat="44.12646" lon="3.86694">
        <ele>326.5</ele>
        <time>2015-08-30T09:33:38Z</time>
      </trkpt>
      <trkpt lat="44.12667" lon="3.86695">
        <ele>328</ele>
        <time>2015-08-30T09:33:39Z</time>
      </trkpt>
      <trkpt lat="44.12704" lon="3.86709">
        <ele>330.4</ele>
        <time>2015-08-30T09:33:41Z</time>
      </trkpt>
      <trkpt lat="44.12737" lon="3.86729">
        <ele>332.8</ele>
        <time>2015-08-30T09:33:43Z</time>
      </trkpt>
      <trkpt lat="44.1275" lon="3.86742">
        <ele>334.2</ele>
        <time>2015-08-30T09:33:44Z</time>
      </trkpt>
      <trkpt lat="44.12759" lon="3.86757">
        <ele>336.1</ele>
        <time>2015-08-30T09:33:45Z</time>
      </trkpt>
      <trkpt lat="44.12764" lon="3.86786">
        <ele>338</ele>
        <time>2015-08-30T09:33:47Z</time>
      </trkpt>
      <trkpt lat="44.12771" lon="3.86795">
        <ele>339</ele>
        <time>2015-08-30T09:33:48Z</time>
      </trkpt>
      <trkpt lat="44.12779" lon="3.86794">
        <ele>339.5</ele>
        <time>2015-08-30T09:33:49Z</time>
      </trkpt>
      <trkpt lat="44.12802" lon="3.86776">
        <ele>339</ele>
        <time>2015-08-30T09:33:51Z</time>
      </trkpt>
      <trkpt lat="44.12825" lon="3.8675">
        <ele>340.9</ele>
        <time>2015-08-30T09:33:53Z</time>
      </trkpt>
      <trkpt lat="44.12839" lon="3.86724">
        <ele>343.3</ele>
        <time>2015-08-30T09:33:55Z</time>
      </trkpt>
      <trkpt lat="44.1283" lon="3.86677">
        <ele>348.6</ele>
        <time>2015-08-30T09:33:58Z</time>
      </trkpt>
      <trkpt lat="44.12765" lon="3.86512">
        <ele>356.3</ele>
        <time>2015-08-30T09:34:05Z</time>
      </trkpt>
      <trkpt lat="44.12764" lon="3.86492">
        <ele>356.8</ele>
        <time>2015-08-30T09:34:06Z</time>
      </trkpt>
      <trkpt lat="44.12783" lon="3.86461">
        <ele>359.2</ele>
        <time>2015-08-30T09:34:08Z</time>
      </trkpt>
      <trkpt lat="44.12797" lon="3.8645">
        <ele>360.6</ele>
        <time>2015-08-30T09:34:09Z</time>
      </trkpt>
      <trkpt lat="44.12815" lon="3.86444">
        <ele>362.6</ele>
        <time>2015-08-30T09:34:10Z</time>
      </trkpt>
      <trkpt lat="44.12833" lon="3.86442">
        <ele>363</ele>
        <time>2015-08-30T09:34:11Z</time>
      </trkpt>
      <trkpt lat="44.12852" lon="3.86437">
        <ele>362.6</ele>
        <time>2015-08-30T09:34:12Z</time>
      </trkpt>
      <trkpt lat="44.12889" lon="3.86416">
        <ele>365.4</ele>
        <time>2015-08-30T09:34:14Z</time>
      </trkpt>
      <trkpt lat="44.12905" lon="3.86401">
        <ele>366.4</ele>
        <time>2015-08-30T09:34:15Z</time>
      </trkpt>
      <trkpt lat="44.12938" lon="3.86352">
        <ele>370.2</ele>
        <time>2015-08-30T09:34:18Z</time>
      </trkpt>
      <trkpt lat="44.12951" lon="3.86327">
        <ele>371.7</ele>
        <time>2015-08-30T09:34:20Z</time>
      </trkpt>
      <trkpt lat="44.12949" lon="3.86308">
        <ele>374.1</ele>
        <time>2015-08-30T09:34:22Z</time>
      </trkpt>
      <trkpt lat="44.12925" lon="3.86301">
        <ele>375.5</ele>
        <time>2015-08-30T09:34:24Z</time>
      </trkpt>
      <trkpt lat="44.129" lon="3.86302">
        <ele>377.5</ele>
        <time>2015-08-30T09:34:26Z</time>
      </trkpt>
      <trkpt lat="44.12888" lon="3.86299">
        <ele>377.5</ele>
        <time>2015-08-30T09:34:27Z</time>
      </trkpt>
      <trkpt lat="44.12876" lon="3.86293">
        <ele>378.4</ele>
        <time>2015-08-30T09:34:28Z</time>
      </trkpt>
      <trkpt lat="44.12865" lon="3.86283">
        <ele>379.4</ele>
        <time>2015-08-30T09:34:29Z</time>
      </trkpt>
      <trkpt lat="44.12856" lon="3.86267">
        <ele>380.3</ele>
        <time>2015-08-30T09:34:30Z</time>
      </trkpt>
      <trkpt lat="44.12842" lon="3.8619">
        <ele>382.3</ele>
        <time>2015-08-30T09:34:33Z</time>
      </trkpt>
      <trkpt lat="44.12821" lon="3.86143">
        <ele>386.6</ele>
        <time>2015-08-30T09:34:36Z</time>
      </trkpt>
      <trkpt lat="44.128" lon="3.86149">
        <ele>387.6</ele>
        <time>2015-08-30T09:34:38Z</time>
      </trkpt>
      <trkpt lat="44.12789" lon="3.86158">
        <ele>389.5</ele>
        <time>2015-08-30T09:34:39Z</time>
      </trkpt>
      <trkpt lat="44.12776" lon="3.86164">
        <ele>392.8</ele>
        <time>2015-08-30T09:34:40Z</time>
      </trkpt>
      <trkpt lat="44.12766" lon="3.86158">
        <ele>394.3</ele>
        <time>2015-08-30T09:34:41Z</time>
      </trkpt>
      <trkpt lat="44.12746" lon="3.86141">
        <ele>398.1</ele>
        <time>2015-08-30T09:34:43Z</time>
      </trkpt>
      <trkpt lat="44.12734" lon="3.86135">
        <ele>399.1</ele>
        <time>2015-08-30T09:34:44Z</time>
      </trkpt>
      <trkpt lat="44.12721" lon="3.86138">
        <ele>401</ele>
        <time>2015-08-30T09:34:45Z</time>
      </trkpt>
      <trkpt lat="44.12691" lon="3.86165">
        <ele>406.8</ele>
        <time>2015-08-30T09:34:47Z</time>
      </trkpt>
      <trkpt lat="44.1266" lon="3.86199">
        <ele>406.3</ele>
        <time>2015-08-30T09:34:49Z</time>
      </trkpt>
      <trkpt lat="44.12615" lon="3.86217">
        <ele>408.7</ele>
        <time>2015-08-30T09:34:52Z</time>
      </trkpt>
      <trkpt lat="44.12601" lon="3.86208">
        <ele>412.1</ele>
        <time>2015-08-30T09:34:53Z</time>
      </trkpt>
      <trkpt lat="44.12579" lon="3.86167">
        <ele>411.6</ele>
        <time>2015-08-30T09:34:55Z</time>
      </trkpt>
      <trkpt lat="44.12546" lon="3.86127">
        <ele>415.9</ele>
        <time>2015-08-30T09:34:57Z</time>
      </trkpt>
      <trkpt lat="44.12526" lon="3.8611">
        <ele>417.8</ele>
        <time>2015-08-30T09:34:58Z</time>
      </trkpt>
      <trkpt lat="44.12505" lon="3.86095">
        <ele>418.8</ele>
        <time>2015-08-30T09:34:59Z</time>
      </trkpt>
      <trkpt lat="44.12482" lon="3.86084">
        <ele>420.7</ele>
        <time>2015-08-30T09:35:00Z</time>
      </trkpt>
      <trkpt lat="44.12415" lon="3.86056">
        <ele>419.8</ele>
        <time>2015-08-30T09:35:03Z</time>
      </trkpt>
      <trkpt lat="44.12355" lon="3.85988">
        <ele>422.6</ele>
        <time>2015-08-30T09:35:07Z</time>
      </trkpt>
      <trkpt lat="44.12347" lon="3.85962">
        <ele>421.2</ele>
        <time>2015-08-30T09:35:08Z</time>
      </trkpt>
      <trkpt lat="44.12333" lon="3.85944">
        <ele>422.2</ele>
        <time>2015-08-30T09:35:09Z</time>
      </trkpt>
      <trkpt lat="44.12316" lon="3.85929">
        <ele>422.6</ele>
        <time>2015-08-30T09:35:10Z</time>
      </trkpt>
      <trkpt lat="44.12296" lon="3.85917">
        <ele>423.1</ele>
        <time>2015-08-30T09:35:11Z</time>
      </trkpt>
      <trkpt lat="44.12272" lon="3.85911">
        <ele>423.6</ele>
        <time>2015-08-30T09:35:12Z</time>
      </trkpt>
      <trkpt lat="44.12227" lon="3.85908">
        <ele>426</ele>
        <time>2015-08-30T09:35:14Z</time>
      </trkpt>
      <trkpt lat="44.12207" lon="3.85905">
        <ele>427.9</ele>
        <time>2015-08-30T09:35:15Z</time>
      </trkpt>
      <trkpt lat="44.12191" lon="3.85893">
        <ele>428.9</ele>
        <time>2015-08-30T09:35:16Z</time>
      </trkpt>
      <trkpt lat="44.12179" lon="3.85879">
        <ele>431.3</ele>
        <time>2015-08-30T09:35:17Z</time>
      </trkpt>
      <trkpt lat="44.12168" lon="3.85861">
        <ele>433.7</ele>
        <time>2015-08-30T09:35:18Z</time>
      </trkpt>
      <trkpt lat="44.12129" lon="3.85751">
        <ele>441.9</ele>
        <time>2015-08-30T09:35:22Z</time>
      </trkpt>
      <trkpt lat="44.12125" lon="3.85722">
        <ele>443.3</ele>
        <time>2015-08-30T09:35:23Z</time>
      </trkpt>
      <trkpt lat="44.12123" lon="3.85694">
        <ele>444.8</ele>
        <time>2015-08-30T09:35:24Z</time>
      </trkpt>
      <trkpt lat="44.12126" lon="3.85671">
        <ele>447.6</ele>
        <time>2015-08-30T09:35:25Z</time>
      </trkpt>
      <trkpt lat="44.1213" lon="3.85653">
        <ele>450.5</ele>
        <time>2015-08-30T09:35:26Z</time>
      </trkpt>
      <trkpt lat="44.12139" lon="3.85638">
        <ele>452.4</ele>
        <time>2015-08-30T09:35:27Z</time>
      </trkpt>
      <trkpt lat="44.12148" lon="3.85626">
        <ele>453.9</ele>
        <time>2015-08-30T09:35:28Z</time>
      </trkpt>
      <trkpt lat="44.12159" lon="3.85617">
        <ele>455.8</ele>
        <time>2015-08-30T09:35:29Z</time>
      </trkpt>
      <trkpt lat="44.12172" lon="3.85609">
        <ele>456.8</ele>
        <time>2015-08-30T09:35:30Z</time>
      </trkpt>
      <trkpt lat="44.12185" lon="3.85604">
        <ele>458.7</ele>
        <time>2015-08-30T09:35:31Z</time>
      </trkpt>
      <trkpt lat="44.122" lon="3.85601">
        <ele>460.1</ele>
        <time>2015-08-30T09:35:32Z</time>
      </trkpt>
      <trkpt lat="44.12365" lon="3.85595">
        <ele>474.6</ele>
        <time>2015-08-30T09:35:39Z</time>
      </trkpt>
      <trkpt lat="44.12402" lon="3.85577">
        <ele>477</ele>
        <time>2015-08-30T09:35:41Z</time>
      </trkpt>
      <trkpt lat="44.12416" lon="3.85564">
        <ele>477</ele>
        <time>2015-08-30T09:35:42Z</time>
      </trkpt>
      <trkpt lat="44.12427" lon="3.85549">
        <ele>477.4</ele>
        <time>2015-08-30T09:35:43Z</time>
      </trkpt>
      <trkpt lat="44.12439" lon="3.85538">
        <ele>478.4</ele>
        <time>2015-08-30T09:35:44Z</time>
      </trkpt>
      <trkpt lat="44.12452" lon="3.85532">
        <ele>479.4</ele>
        <time>2015-08-30T09:35:45Z</time>
      </trkpt>
      <trkpt lat="44.12468" lon="3.85537">
        <ele>481.3</ele>
        <time>2015-08-30T09:35:46Z</time>
      </trkpt>
      <trkpt lat="44.12549" lon="3.85551">
        <ele>487.5</ele>
        <time>2015-08-30T09:35:50Z</time>
      </trkpt>
      <trkpt lat="44.12573" lon="3.85547">
        <ele>489</ele>
        <time>2015-08-30T09:35:51Z</time>
      </trkpt>
      <trkpt lat="44.12596" lon="3.85534">
        <ele>489.9</ele>
        <time>2015-08-30T09:35:52Z</time>
      </trkpt>
      <trkpt lat="44.12618" lon="3.85518">
        <ele>490.4</ele>
        <time>2015-08-30T09:35:53Z</time>
      </trkpt>
      <trkpt lat="44.12683" lon="3.85453">
        <ele>494.3</ele>
        <time>2015-08-30T09:35:56Z</time>
      </trkpt>
      <trkpt lat="44.12728" lon="3.8542">
        <ele>498.6</ele>
        <time>2015-08-30T09:35:58Z</time>
      </trkpt>
      <trkpt lat="44.12751" lon="3.8541">
        <ele>500.5</ele>
        <time>2015-08-30T09:35:59Z</time>
      </trkpt>
      <trkpt lat="44.12875" lon="3.85322">
        <ele>511.6</ele>
        <time>2015-08-30T09:36:06Z</time>
      </trkpt>
      <trkpt lat="44.12892" lon="3.85322">
        <ele>513</ele>
        <time>2015-08-30T09:36:07Z</time>
      </trkpt>
      <trkpt lat="44.12927" lon="3.8534">
        <ele>515.4</ele>
        <time>2015-08-30T09:36:09Z</time>
      </trkpt>
      <trkpt lat="44.12945" lon="3.85346">
        <ele>516.9</ele>
        <time>2015-08-30T09:36:10Z</time>
      </trkpt>
      <trkpt lat="44.12981" lon="3.85339">
        <ele>518.8</ele>
        <time>2015-08-30T09:36:12Z</time>
      </trkpt>
      <trkpt lat="44.12995" lon="3.85325">
        <ele>518.8</ele>
        <time>2015-08-30T09:36:13Z</time>
      </trkpt>
      <trkpt lat="44.13008" lon="3.85303">
        <ele>520.2</ele>
        <time>2015-08-30T09:36:14Z</time>
      </trkpt>
      <trkpt lat="44.13017" lon="3.85278">
        <ele>521.2</ele>
        <time>2015-08-30T09:36:15Z</time>
      </trkpt>
      <trkpt lat="44.13023" lon="3.85221">
        <ele>523.1</ele>
        <time>2015-08-30T09:36:17Z</time>
      </trkpt>
      <trkpt lat="44.13028" lon="3.85198">
        <ele>523.1</ele>
        <time>2015-08-30T09:36:18Z</time>
      </trkpt>
      <trkpt lat="44.13036" lon="3.85178">
        <ele>524.1</ele>
        <time>2015-08-30T09:36:19Z</time>
      </trkpt>
      <trkpt lat="44.13048" lon="3.85164">
        <ele>525.5</ele>
        <time>2015-08-30T09:36:20Z</time>
      </trkpt>
      <trkpt lat="44.13063" lon="3.85152">
        <ele>526</ele>
        <time>2015-08-30T09:36:21Z</time>
      </trkpt>
      <trkpt lat="44.13082" lon="3.85143">
        <ele>527.4</ele>
        <time>2015-08-30T09:36:22Z</time>
      </trkpt>
      <trkpt lat="44.13104" lon="3.85135">
        <ele>528.9</ele>
        <time>2015-08-30T09:36:23Z</time>
      </trkpt>
      <trkpt lat="44.13145" lon="3.85104">
        <ele>530.3</ele>
        <time>2015-08-30T09:36:25Z</time>
      </trkpt>
      <trkpt lat="44.13206" lon="3.85035">
        <ele>533.2</ele>
        <time>2015-08-30T09:36:30Z</time>
      </trkpt>
      <trkpt lat="44.13195" lon="3.84995">
        <ele>535.1</ele>
        <time>2015-08-30T09:36:32Z</time>
      </trkpt>
      <trkpt lat="44.1319" lon="3.84946">
        <ele>537</ele>
        <time>2015-08-30T09:36:34Z</time>
      </trkpt>
      <trkpt lat="44.13197" lon="3.84921">
        <ele>538.5</ele>
        <time>2015-08-30T09:36:35Z</time>
      </trkpt>
      <trkpt lat="44.13334" lon="3.84732">
        <ele>548.6</ele>
        <time>2015-08-30T09:36:43Z</time>
      </trkpt>
      <trkpt lat="44.13355" lon="3.84691">
        <ele>551</ele>
        <time>2015-08-30T09:36:45Z</time>
      </trkpt>
      <trkpt lat="44.13365" lon="3.8468">
        <ele>552.4</ele>
        <time>2015-08-30T09:36:46Z</time>
      </trkpt>
      <trkpt lat="44.13392" lon="3.84678">
        <ele>552.9</ele>
        <time>2015-08-30T09:36:48Z</time>
      </trkpt>
      <trkpt lat="44.13409" lon="3.84678">
        <ele>553.9</ele>
        <time>2015-08-30T09:36:49Z</time>
      </trkpt>
      <trkpt lat="44.13429" lon="3.84676">
        <ele>554.8</ele>
        <time>2015-08-30T09:36:50Z</time>
      </trkpt>
      <trkpt lat="44.13476" lon="3.84656">
        <ele>558.7</ele>
        <time>2015-08-30T09:36:53Z</time>
      </trkpt>
      <trkpt lat="44.1348" lon="3.84642">
        <ele>559.1</ele>
        <time>2015-08-30T09:36:54Z</time>
      </trkpt>
      <trkpt lat="44.13479" lon="3.8458">
        <ele>562.5</ele>
        <time>2015-08-30T09:36:57Z</time>
      </trkpt>
      <trkpt lat="44.13487" lon="3.84509">
        <ele>566.8</ele>
        <time>2015-08-30T09:37:00Z</time>
      </trkpt>
      <trkpt lat="44.13484" lon="3.84488">
        <ele>568.3</ele>
        <time>2015-08-30T09:37:01Z</time>
      </trkpt>
      <trkpt lat="44.13466" lon="3.84452">
        <ele>568.8</ele>
        <time>2015-08-30T09:37:03Z</time>
      </trkpt>
      <trkpt lat="44.13453" lon="3.8444">
        <ele>568.3</ele>
        <time>2015-08-30T09:37:04Z</time>
      </trkpt>
      <trkpt lat="44.1342" lon="3.84428">
        <ele>577.9</ele>
        <time>2015-08-30T09:37:06Z</time>
      </trkpt>
      <trkpt lat="44.13415" lon="3.8441">
        <ele>577.9</ele>
        <time>2015-08-30T09:37:07Z</time>
      </trkpt>
      <trkpt lat="44.13415" lon="3.84393">
        <ele>578.9</ele>
        <time>2015-08-30T09:37:08Z</time>
      </trkpt>
      <trkpt lat="44.13439" lon="3.8436">
        <ele>580.3</ele>
        <time>2015-08-30T09:37:10Z</time>
      </trkpt>
      <trkpt lat="44.13508" lon="3.8427">
        <ele>589</ele>
        <time>2015-08-30T09:37:15Z</time>
      </trkpt>
      <trkpt lat="44.13518" lon="3.84248">
        <ele>590.4</ele>
        <time>2015-08-30T09:37:16Z</time>
      </trkpt>
      <trkpt lat="44.13521" lon="3.84222">
        <ele>591.4</ele>
        <time>2015-08-30T09:37:17Z</time>
      </trkpt>
      <trkpt lat="44.13503" lon="3.84106">
        <ele>595.2</ele>
        <time>2015-08-30T09:37:21Z</time>
      </trkpt>
      <trkpt lat="44.135" lon="3.83999">
        <ele>598.6</ele>
        <time>2015-08-30T09:37:24Z</time>
      </trkpt>
      <trkpt lat="44.13532" lon="3.83811">
        <ele>601.9</ele>
        <time>2015-08-30T09:37:30Z</time>
      </trkpt>
      <trkpt lat="44.13547" lon="3.83782">
        <ele>601.4</ele>
        <time>2015-08-30T09:37:31Z</time>
      </trkpt>
      <trkpt lat="44.13609" lon="3.83566">
        <ele>592.8</ele>
        <time>2015-08-30T09:37:37Z</time>
      </trkpt>
      <trkpt lat="44.13638" lon="3.835">
        <ele>589.9</ele>
        <time>2015-08-30T09:37:39Z</time>
      </trkpt>
      <trkpt lat="44.13659" lon="3.83472">
        <ele>588.5</ele>
        <time>2015-08-30T09:37:40Z</time>
      </trkpt>
      <trkpt lat="44.13683" lon="3.83448">
        <ele>586.5</ele>
        <time>2015-08-30T09:37:41Z</time>
      </trkpt>
      <trkpt lat="44.13784" lon="3.8339">
        <ele>580.8</ele>
        <time>2015-08-30T09:37:46Z</time>
      </trkpt>
      <trkpt lat="44.13804" lon="3.83394">
        <ele>577.9</ele>
        <time>2015-08-30T09:37:47Z</time>
      </trkpt>
      <trkpt lat="44.13822" lon="3.83402">
        <ele>575.5</ele>
        <time>2015-08-30T09:37:48Z</time>
      </trkpt>
      <trkpt lat="44.1384" lon="3.83406">
        <ele>573.6</ele>
        <time>2015-08-30T09:37:49Z</time>
      </trkpt>
      <trkpt lat="44.13858" lon="3.83404">
        <ele>571.6</ele>
        <time>2015-08-30T09:37:50Z</time>
      </trkpt>
      <trkpt lat="44.13876" lon="3.83395">
        <ele>570.7</ele>
        <time>2015-08-30T09:37:51Z</time>
      </trkpt>
      <trkpt lat="44.13916" lon="3.8337">
        <ele>568.8</ele>
        <time>2015-08-30T09:37:53Z</time>
      </trkpt>
      <trkpt lat="44.13957" lon="3.83351">
        <ele>568.8</ele>
        <time>2015-08-30T09:37:55Z</time>
      </trkpt>
      <trkpt lat="44.14001" lon="3.833">
        <ele>577.9</ele>
        <time>2015-08-30T09:37:59Z</time>
      </trkpt>
      <trkpt lat="44.14002" lon="3.83284">
        <ele>579.8</ele>
        <time>2015-08-30T09:38:00Z</time>
      </trkpt>
      <trkpt lat="44.13995" lon="3.83264">
        <ele>580.3</ele>
        <time>2015-08-30T09:38:01Z</time>
      </trkpt>
      <trkpt lat="44.13932" lon="3.83204">
        <ele>581.7</ele>
        <time>2015-08-30T09:38:04Z</time>
      </trkpt>
      <trkpt lat="44.1387" lon="3.83157">
        <ele>583.7</ele>
        <time>2015-08-30T09:38:07Z</time>
      </trkpt>
      <trkpt lat="44.13832" lon="3.83093">
        <ele>585.1</ele>
        <time>2015-08-30T09:38:10Z</time>
      </trkpt>
      <trkpt lat="44.1383" lon="3.83061">
        <ele>583.2</ele>
        <time>2015-08-30T09:38:11Z</time>
      </trkpt>
      <trkpt lat="44.13837" lon="3.83031">
        <ele>582.7</ele>
        <time>2015-08-30T09:38:12Z</time>
      </trkpt>
      <trkpt lat="44.13835" lon="3.82997">
        <ele>582.2</ele>
        <time>2015-08-30T09:38:13Z</time>
      </trkpt>
      <trkpt lat="44.13829" lon="3.82967">
        <ele>582.7</ele>
        <time>2015-08-30T09:38:14Z</time>
      </trkpt>
      <trkpt lat="44.13751" lon="3.82738">
        <ele>589</ele>
        <time>2015-08-30T09:38:21Z</time>
      </trkpt>
      <trkpt lat="44.13718" lon="3.82592">
        <ele>593.3</ele>
        <time>2015-08-30T09:38:26Z</time>
      </trkpt>
      <trkpt lat="44.13719" lon="3.82559">
        <ele>593.3</ele>
        <time>2015-08-30T09:38:27Z</time>
      </trkpt>
      <trkpt lat="44.13724" lon="3.82527">
        <ele>593.3</ele>
        <time>2015-08-30T09:38:28Z</time>
      </trkpt>
      <trkpt lat="44.13745" lon="3.82464">
        <ele>598.6</ele>
        <time>2015-08-30T09:38:30Z</time>
      </trkpt>
      <trkpt lat="44.13751" lon="3.82431">
        <ele>601</ele>
        <time>2015-08-30T09:38:31Z</time>
      </trkpt>
      <trkpt lat="44.13796" lon="3.82272">
        <ele>612.5</ele>
        <time>2015-08-30T09:38:37Z</time>
      </trkpt>
      <trkpt lat="44.13802" lon="3.8223">
        <ele>616.8</ele>
        <time>2015-08-30T09:38:39Z</time>
      </trkpt>
      <trkpt lat="44.13799" lon="3.82212">
        <ele>618.3</ele>
        <time>2015-08-30T09:38:40Z</time>
      </trkpt>
      <trkpt lat="44.1379" lon="3.82197">
        <ele>619.2</ele>
        <time>2015-08-30T09:38:41Z</time>
      </trkpt>
      <trkpt lat="44.13749" lon="3.82175">
        <ele>620.7</ele>
        <time>2015-08-30T09:38:43Z</time>
      </trkpt>
      <trkpt lat="44.13675" lon="3.8216">
        <ele>624</ele>
        <time>2015-08-30T09:38:46Z</time>
      </trkpt>
      <trkpt lat="44.13528" lon="3.82082">
        <ele>632.2</ele>
        <time>2015-08-30T09:38:52Z</time>
      </trkpt>
      <trkpt lat="44.13384" lon="3.81913">
        <ele>636.5</ele>
        <time>2015-08-30T09:39:01Z</time>
      </trkpt>
      <trkpt lat="44.1331" lon="3.81759">
        <ele>640.9</ele>
        <time>2015-08-30T09:39:08Z</time>
      </trkpt>
      <trkpt lat="44.13229" lon="3.81425">
        <ele>642.8</ele>
        <time>2015-08-30T09:39:17Z</time>
      </trkpt>
      <trkpt lat="44.13215" lon="3.81399">
        <ele>642.3</ele>
        <time>2015-08-30T09:39:18Z</time>
      </trkpt>
      <trkpt lat="44.13155" lon="3.81333">
        <ele>641.3</ele>
        <time>2015-08-30T09:39:21Z</time>
      </trkpt>
      <trkpt lat="44.13125" lon="3.81274">
        <ele>641.3</ele>
        <time>2015-08-30T09:39:23Z</time>
      </trkpt>
      <trkpt lat="44.13115" lon="3.81242">
        <ele>640.9</ele>
        <time>2015-08-30T09:39:24Z</time>
      </trkpt>
      <trkpt lat="44.13042" lon="3.81088">
        <ele>643.3</ele>
        <time>2015-08-30T09:39:30Z</time>
      </trkpt>
      <trkpt lat="44.1304" lon="3.8106">
        <ele>643.3</ele>
        <time>2015-08-30T09:39:31Z</time>
      </trkpt>
      <trkpt lat="44.13044" lon="3.81031">
        <ele>643.3</ele>
        <time>2015-08-30T09:39:32Z</time>
      </trkpt>
      <trkpt lat="44.13075" lon="3.80946">
        <ele>645.7</ele>
        <time>2015-08-30T09:39:35Z</time>
      </trkpt>
      <trkpt lat="44.13083" lon="3.80919">
        <ele>645.2</ele>
        <time>2015-08-30T09:39:36Z</time>
      </trkpt>
      <trkpt lat="44.13091" lon="3.80833">
        <ele>645.2</ele>
        <time>2015-08-30T09:39:39Z</time>
      </trkpt>
      <trkpt lat="44.13088" lon="3.80802">
        <ele>645.7</ele>
        <time>2015-08-30T09:39:40Z</time>
      </trkpt>
      <trkpt lat="44.13046" lon="3.80712">
        <ele>646.6</ele>
        <time>2015-08-30T09:39:43Z</time>
      </trkpt>
      <trkpt lat="44.13009" lon="3.80663">
        <ele>646.1</ele>
        <time>2015-08-30T09:39:45Z</time>
      </trkpt>
      <trkpt lat="44.12983" lon="3.80612">
        <ele>645.7</ele>
        <time>2015-08-30T09:39:47Z</time>
      </trkpt>
      <trkpt lat="44.12955" lon="3.80472">
        <ele>645.7</ele>
        <time>2015-08-30T09:39:52Z</time>
      </trkpt>
      <trkpt lat="44.12908" lon="3.80118">
        <ele>639.9</ele>
        <time>2015-08-30T09:40:03Z</time>
      </trkpt>
      <trkpt lat="44.12923" lon="3.80051">
        <ele>639.4</ele>
        <time>2015-08-30T09:40:05Z</time>
      </trkpt>
      <trkpt lat="44.13051" lon="3.79667">
        <ele>642.3</ele>
        <time>2015-08-30T09:40:17Z</time>
      </trkpt>
      <trkpt lat="44.13077" lon="3.79611">
        <ele>642.3</ele>
        <time>2015-08-30T09:40:19Z</time>
      </trkpt>
      <trkpt lat="44.131" lon="3.7955">
        <ele>641.8</ele>
        <time>2015-08-30T09:40:21Z</time>
      </trkpt>
      <trkpt lat="44.13224" lon="3.79382">
        <ele>638.5</ele>
        <time>2015-08-30T09:40:29Z</time>
      </trkpt>
      <trkpt lat="44.13295" lon="3.7892">
        <ele>632.7</ele>
        <time>2015-08-30T09:40:42Z</time>
      </trkpt>
      <trkpt lat="44.13312" lon="3.78902">
        <ele>633.2</ele>
        <time>2015-08-30T09:40:43Z</time>
      </trkpt>
      <trkpt lat="44.13333" lon="3.78891">
        <ele>632.7</ele>
        <time>2015-08-30T09:40:44Z</time>
      </trkpt>
      <trkpt lat="44.13352" lon="3.78874">
        <ele>632.7</ele>
        <time>2015-08-30T09:40:45Z</time>
      </trkpt>
      <trkpt lat="44.13371" lon="3.7886">
        <ele>632.2</ele>
        <time>2015-08-30T09:40:46Z</time>
      </trkpt>
      <trkpt lat="44.13592" lon="3.78501">
        <ele>644.2</ele>
        <time>2015-08-30T09:40:59Z</time>
      </trkpt>
      <trkpt lat="44.13601" lon="3.78441">
        <ele>646.6</ele>
        <time>2015-08-30T09:41:01Z</time>
      </trkpt>
      <trkpt lat="44.13601" lon="3.78377">
        <ele>649.5</ele>
        <time>2015-08-30T09:41:03Z</time>
      </trkpt>
      <trkpt lat="44.13632" lon="3.78296">
        <ele>655.8</ele>
        <time>2015-08-30T09:41:07Z</time>
      </trkpt>
      <trkpt lat="44.13651" lon="3.78284">
        <ele>657.2</ele>
        <time>2015-08-30T09:41:08Z</time>
      </trkpt>
      <trkpt lat="44.13672" lon="3.78271">
        <ele>659.1</ele>
        <time>2015-08-30T09:41:09Z</time>
      </trkpt>
      <trkpt lat="44.13704" lon="3.78239">
        <ele>662.5</ele>
        <time>2015-08-30T09:41:11Z</time>
      </trkpt>
      <trkpt lat="44.13719" lon="3.78229">
        <ele>663.9</ele>
        <time>2015-08-30T09:41:12Z</time>
      </trkpt>
      <trkpt lat="44.13734" lon="3.78227">
        <ele>665.4</ele>
        <time>2015-08-30T09:41:13Z</time>
      </trkpt>
      <trkpt lat="44.13749" lon="3.78231">
        <ele>665.9</ele>
        <time>2015-08-30T09:41:14Z</time>
      </trkpt>
      <trkpt lat="44.13764" lon="3.78239">
        <ele>664.4</ele>
        <time>2015-08-30T09:41:15Z</time>
      </trkpt>
      <trkpt lat="44.13777" lon="3.78249">
        <ele>665.4</ele>
        <time>2015-08-30T09:41:16Z</time>
      </trkpt>
      <trkpt lat="44.13791" lon="3.78253">
        <ele>665.9</ele>
        <time>2015-08-30T09:41:17Z</time>
      </trkpt>
      <trkpt lat="44.13805" lon="3.78252">
        <ele>666.8</ele>
        <time>2015-08-30T09:41:18Z</time>
      </trkpt>
      <trkpt lat="44.13821" lon="3.78239">
        <ele>666.3</ele>
        <time>2015-08-30T09:41:19Z</time>
      </trkpt>
      <trkpt lat="44.13836" lon="3.78222">
        <ele>668.3</ele>
        <time>2015-08-30T09:41:20Z</time>
      </trkpt>
      <trkpt lat="44.13851" lon="3.78201">
        <ele>671.1</ele>
        <time>2015-08-30T09:41:21Z</time>
      </trkpt>
      <trkpt lat="44.13963" lon="3.78085">
        <ele>685.6</ele>
        <time>2015-08-30T09:41:27Z</time>
      </trkpt>
      <trkpt lat="44.14157" lon="3.77978">
        <ele>700.5</ele>
        <time>2015-08-30T09:41:38Z</time>
      </trkpt>
      <trkpt lat="44.14173" lon="3.77962">
        <ele>700.9</ele>
        <time>2015-08-30T09:41:39Z</time>
      </trkpt>
      <trkpt lat="44.14272" lon="3.77814">
        <ele>700.5</ele>
        <time>2015-08-30T09:41:49Z</time>
      </trkpt>
      <trkpt lat="44.14367" lon="3.77719">
        <ele>698.1</ele>
        <time>2015-08-30T09:41:59Z</time>
      </trkpt>
      <trkpt lat="44.14647" lon="3.77557">
        <ele>681.2</ele>
        <time>2015-08-30T09:42:13Z</time>
      </trkpt>
      <trkpt lat="44.14687" lon="3.77579">
        <ele>677.9</ele>
        <time>2015-08-30T09:42:15Z</time>
      </trkpt>
      <trkpt lat="44.14705" lon="3.77598">
        <ele>676.4</ele>
        <time>2015-08-30T09:42:16Z</time>
      </trkpt>
      <trkpt lat="44.14719" lon="3.77622">
        <ele>675</ele>
        <time>2015-08-30T09:42:17Z</time>
      </trkpt>
      <trkpt lat="44.1473" lon="3.77651">
        <ele>673.5</ele>
        <time>2015-08-30T09:42:18Z</time>
      </trkpt>
      <trkpt lat="44.1473" lon="3.7768">
        <ele>670.7</ele>
        <time>2015-08-30T09:42:19Z</time>
      </trkpt>
      <trkpt lat="44.14722" lon="3.77737">
        <ele>664.4</ele>
        <time>2015-08-30T09:42:21Z</time>
      </trkpt>
      <trkpt lat="44.14708" lon="3.77792">
        <ele>660.1</ele>
        <time>2015-08-30T09:42:24Z</time>
      </trkpt>
      <trkpt lat="44.14707" lon="3.77806">
        <ele>659.1</ele>
        <time>2015-08-30T09:42:25Z</time>
      </trkpt>
      <trkpt lat="44.14721" lon="3.77814">
        <ele>656.7</ele>
        <time>2015-08-30T09:42:27Z</time>
      </trkpt>
      <trkpt lat="44.14731" lon="3.77808">
        <ele>655.8</ele>
        <time>2015-08-30T09:42:28Z</time>
      </trkpt>
      <trkpt lat="44.14744" lon="3.77798">
        <ele>652.4</ele>
        <time>2015-08-30T09:42:29Z</time>
      </trkpt>
      <trkpt lat="44.14754" lon="3.77778">
        <ele>650</ele>
        <time>2015-08-30T09:42:30Z</time>
      </trkpt>
      <trkpt lat="44.14775" lon="3.77717">
        <ele>646.6</ele>
        <time>2015-08-30T09:42:32Z</time>
      </trkpt>
      <trkpt lat="44.14799" lon="3.77604">
        <ele>640.9</ele>
        <time>2015-08-30T09:42:35Z</time>
      </trkpt>
      <trkpt lat="44.14809" lon="3.7748">
        <ele>630.8</ele>
        <time>2015-08-30T09:42:39Z</time>
      </trkpt>
      <trkpt lat="44.14789" lon="3.77405">
        <ele>622.6</ele>
        <time>2015-08-30T09:42:42Z</time>
      </trkpt>
      <trkpt lat="44.14788" lon="3.77374">
        <ele>620.7</ele>
        <time>2015-08-30T09:42:43Z</time>
      </trkpt>
      <trkpt lat="44.14791" lon="3.77343">
        <ele>619.2</ele>
        <time>2015-08-30T09:42:44Z</time>
      </trkpt>
      <trkpt lat="44.14814" lon="3.77253">
        <ele>618.3</ele>
        <time>2015-08-30T09:42:47Z</time>
      </trkpt>
      <trkpt lat="44.14861" lon="3.77108">
        <ele>619.2</ele>
        <time>2015-08-30T09:42:53Z</time>
      </trkpt>
      <trkpt lat="44.14872" lon="3.77093">
        <ele>618.3</ele>
        <time>2015-08-30T09:42:54Z</time>
      </trkpt>
      <trkpt lat="44.14957" lon="3.77016">
        <ele>623.6</ele>
        <time>2015-08-30T09:43:01Z</time>
      </trkpt>
      <trkpt lat="44.14965" lon="3.77002">
        <ele>624.5</ele>
        <time>2015-08-30T09:43:02Z</time>
      </trkpt>
      <trkpt lat="44.14978" lon="3.76973">
        <ele>626.4</ele>
        <time>2015-08-30T09:43:04Z</time>
      </trkpt>
      <trkpt lat="44.14992" lon="3.76923">
        <ele>627.9</ele>
        <time>2015-08-30T09:43:07Z</time>
      </trkpt>
      <trkpt lat="44.14993" lon="3.76905">
        <ele>628.4</ele>
        <time>2015-08-30T09:43:08Z</time>
      </trkpt>
      <trkpt lat="44.14993" lon="3.76886">
        <ele>628.4</ele>
        <time>2015-08-30T09:43:09Z</time>
      </trkpt>
      <trkpt lat="44.14978" lon="3.76801">
        <ele>630.8</ele>
        <time>2015-08-30T09:43:13Z</time>
      </trkpt>
      <trkpt lat="44.14977" lon="3.76782">
        <ele>631.7</ele>
        <time>2015-08-30T09:43:14Z</time>
      </trkpt>
      <trkpt lat="44.14978" lon="3.76763">
        <ele>631.7</ele>
        <time>2015-08-30T09:43:15Z</time>
      </trkpt>
      <trkpt lat="44.14985" lon="3.76731">
        <ele>632.7</ele>
        <time>2015-08-30T09:43:17Z</time>
      </trkpt>
      <trkpt lat="44.14995" lon="3.76703">
        <ele>633.7</ele>
        <time>2015-08-30T09:43:19Z</time>
      </trkpt>
      <trkpt lat="44.15055" lon="3.76583">
        <ele>634.6</ele>
        <time>2015-08-30T09:43:25Z</time>
      </trkpt>
      <trkpt lat="44.15078" lon="3.76502">
        <ele>635.1</ele>
        <time>2015-08-30T09:43:28Z</time>
      </trkpt>
      <trkpt lat="44.1508" lon="3.76382">
        <ele>637.5</ele>
        <time>2015-08-30T09:43:32Z</time>
      </trkpt>
      <trkpt lat="44.1509" lon="3.76355">
        <ele>638</ele>
        <time>2015-08-30T09:43:33Z</time>
      </trkpt>
      <trkpt lat="44.15118" lon="3.76301">
        <ele>638.9</ele>
        <time>2015-08-30T09:43:35Z</time>
      </trkpt>
      <trkpt lat="44.1522" lon="3.76149">
        <ele>643.7</ele>
        <time>2015-08-30T09:43:41Z</time>
      </trkpt>
      <trkpt lat="44.15227" lon="3.76108">
        <ele>646.6</ele>
        <time>2015-08-30T09:43:42Z</time>
      </trkpt>
      <trkpt lat="44.15229" lon="3.75901">
        <ele>654.8</ele>
        <time>2015-08-30T09:43:47Z</time>
      </trkpt>
      <trkpt lat="44.15284" lon="3.75606">
        <ele>667.3</ele>
        <time>2015-08-30T09:43:55Z</time>
      </trkpt>
      <trkpt lat="44.15298" lon="3.75582">
        <ele>669.2</ele>
        <time>2015-08-30T09:43:56Z</time>
      </trkpt>
      <trkpt lat="44.15314" lon="3.75559">
        <ele>671.6</ele>
        <time>2015-08-30T09:43:57Z</time>
      </trkpt>
      <trkpt lat="44.15364" lon="3.7543">
        <ele>679.8</ele>
        <time>2015-08-30T09:44:02Z</time>
      </trkpt>
      <trkpt lat="44.1539" lon="3.75255">
        <ele>697.1</ele>
        <time>2015-08-30T09:44:11Z</time>
      </trkpt>
      <trkpt lat="44.15396" lon="3.7524">
        <ele>698.1</ele>
        <time>2015-08-30T09:44:12Z</time>
      </trkpt>
      <trkpt lat="44.15404" lon="3.75225">
        <ele>699.5</ele>
        <time>2015-08-30T09:44:13Z</time>
      </trkpt>
      <trkpt lat="44.15424" lon="3.75202">
        <ele>699.5</ele>
        <time>2015-08-30T09:44:15Z</time>
      </trkpt>
      <trkpt lat="44.1553" lon="3.75028">
        <ele>708.2</ele>
        <time>2015-08-30T09:44:23Z</time>
      </trkpt>
      <trkpt lat="44.15566" lon="3.75014">
        <ele>708.2</ele>
        <time>2015-08-30T09:44:25Z</time>
      </trkpt>
      <trkpt lat="44.15582" lon="3.7502">
        <ele>709.6</ele>
        <time>2015-08-30T09:44:26Z</time>
      </trkpt>
      <trkpt lat="44.156" lon="3.75023">
        <ele>712</ele>
        <time>2015-08-30T09:44:27Z</time>
      </trkpt>
      <trkpt lat="44.15623" lon="3.75025">
        <ele>712.5</ele>
        <time>2015-08-30T09:44:28Z</time>
      </trkpt>
      <trkpt lat="44.15647" lon="3.75021">
        <ele>712.5</ele>
        <time>2015-08-30T09:44:29Z</time>
      </trkpt>
      <trkpt lat="44.15669" lon="3.75009">
        <ele>713</ele>
        <time>2015-08-30T09:44:30Z</time>
      </trkpt>
      <trkpt lat="44.15686" lon="3.74991">
        <ele>712.5</ele>
        <time>2015-08-30T09:44:31Z</time>
      </trkpt>
      <trkpt lat="44.15699" lon="3.74967">
        <ele>712</ele>
        <time>2015-08-30T09:44:32Z</time>
      </trkpt>
      <trkpt lat="44.15706" lon="3.74939">
        <ele>713.4</ele>
        <time>2015-08-30T09:44:33Z</time>
      </trkpt>
      <trkpt lat="44.15709" lon="3.74906">
        <ele>716.8</ele>
        <time>2015-08-30T09:44:34Z</time>
      </trkpt>
      <trkpt lat="44.15699" lon="3.74829">
        <ele>719.2</ele>
        <time>2015-08-30T09:44:36Z</time>
      </trkpt>
      <trkpt lat="44.15694" lon="3.74615">
        <ele>727.4</ele>
        <time>2015-08-30T09:44:42Z</time>
      </trkpt>
      <trkpt lat="44.15701" lon="3.74583">
        <ele>729.8</ele>
        <time>2015-08-30T09:44:43Z</time>
      </trkpt>
      <trkpt lat="44.15704" lon="3.74511">
        <ele>733.6</ele>
        <time>2015-08-30T09:44:45Z</time>
      </trkpt>
      <trkpt lat="44.15695" lon="3.74028">
        <ele>758.6</ele>
        <time>2015-08-30T09:44:58Z</time>
      </trkpt>
      <trkpt lat="44.15659" lon="3.73893">
        <ele>764.9</ele>
        <time>2015-08-30T09:45:02Z</time>
      </trkpt>
      <trkpt lat="44.15656" lon="3.73818">
        <ele>768.2</ele>
        <time>2015-08-30T09:45:04Z</time>
      </trkpt>
      <trkpt lat="44.15662" lon="3.73746">
        <ele>772.6</ele>
        <time>2015-08-30T09:45:06Z</time>
      </trkpt>
      <trkpt lat="44.15743" lon="3.73457">
        <ele>789.4</ele>
        <time>2015-08-30T09:45:15Z</time>
      </trkpt>
      <trkpt lat="44.15761" lon="3.73436">
        <ele>790.8</ele>
        <time>2015-08-30T09:45:16Z</time>
      </trkpt>
      <trkpt lat="44.15781" lon="3.73419">
        <ele>792.7</ele>
        <time>2015-08-30T09:45:17Z</time>
      </trkpt>
      <trkpt lat="44.15842" lon="3.73387">
        <ele>796.1</ele>
        <time>2015-08-30T09:45:20Z</time>
      </trkpt>
      <trkpt lat="44.15937" lon="3.73299">
        <ele>800.4</ele>
        <time>2015-08-30T09:45:25Z</time>
      </trkpt>
      <trkpt lat="44.15969" lon="3.73259">
        <ele>800.4</ele>
        <time>2015-08-30T09:45:27Z</time>
      </trkpt>
      <trkpt lat="44.16004" lon="3.73239">
        <ele>800.4</ele>
        <time>2015-08-30T09:45:29Z</time>
      </trkpt>
      <trkpt lat="44.16022" lon="3.73231">
        <ele>800.4</ele>
        <time>2015-08-30T09:45:30Z</time>
      </trkpt>
      <trkpt lat="44.16039" lon="3.7322">
        <ele>800.4</ele>
        <time>2015-08-30T09:45:31Z</time>
      </trkpt>
      <trkpt lat="44.16055" lon="3.73206">
        <ele>799.5</ele>
        <time>2015-08-30T09:45:32Z</time>
      </trkpt>
      <trkpt lat="44.16069" lon="3.73186">
        <ele>797.6</ele>
        <time>2015-08-30T09:45:33Z</time>
      </trkpt>
      <trkpt lat="44.16085" lon="3.73138">
        <ele>794.2</ele>
        <time>2015-08-30T09:45:35Z</time>
      </trkpt>
      <trkpt lat="44.1609" lon="3.7311">
        <ele>793.7</ele>
        <time>2015-08-30T09:45:36Z</time>
      </trkpt>
      <trkpt lat="44.16095" lon="3.73056">
        <ele>791.3</ele>
        <time>2015-08-30T09:45:38Z</time>
      </trkpt>
      <trkpt lat="44.161" lon="3.7303">
        <ele>791.3</ele>
        <time>2015-08-30T09:45:39Z</time>
      </trkpt>
      <trkpt lat="44.16108" lon="3.73006">
        <ele>791.3</ele>
        <time>2015-08-30T09:45:40Z</time>
      </trkpt>
      <trkpt lat="44.16119" lon="3.72985">
        <ele>790.8</ele>
        <time>2015-08-30T09:45:41Z</time>
      </trkpt>
      <trkpt lat="44.16135" lon="3.72967">
        <ele>790.3</ele>
        <time>2015-08-30T09:45:42Z</time>
      </trkpt>
      <trkpt lat="44.16177" lon="3.72942">
        <ele>789.4</ele>
        <time>2015-08-30T09:45:44Z</time>
      </trkpt>
      <trkpt lat="44.16199" lon="3.72935">
        <ele>788.9</ele>
        <time>2015-08-30T09:45:45Z</time>
      </trkpt>
      <trkpt lat="44.16221" lon="3.72933">
        <ele>788.9</ele>
        <time>2015-08-30T09:45:46Z</time>
      </trkpt>
      <trkpt lat="44.16262" lon="3.72935">
        <ele>788.9</ele>
        <time>2015-08-30T09:45:48Z</time>
      </trkpt>
      <trkpt lat="44.16281" lon="3.72933">
        <ele>788.9</ele>
        <time>2015-08-30T09:45:49Z</time>
      </trkpt>
      <trkpt lat="44.16298" lon="3.72929">
        <ele>788.9</ele>
        <time>2015-08-30T09:45:50Z</time>
      </trkpt>
      <trkpt lat="44.16316" lon="3.72919">
        <ele>789.9</ele>
        <time>2015-08-30T09:45:51Z</time>
      </trkpt>
      <trkpt lat="44.1633" lon="3.72903">
        <ele>788.9</ele>
        <time>2015-08-30T09:45:52Z</time>
      </trkpt>
      <trkpt lat="44.16343" lon="3.72881">
        <ele>789.4</ele>
        <time>2015-08-30T09:45:53Z</time>
      </trkpt>
      <trkpt lat="44.16358" lon="3.72827">
        <ele>793.2</ele>
        <time>2015-08-30T09:45:55Z</time>
      </trkpt>
      <trkpt lat="44.16377" lon="3.72779">
        <ele>796.6</ele>
        <time>2015-08-30T09:45:57Z</time>
      </trkpt>
      <trkpt lat="44.16391" lon="3.72757">
        <ele>797.6</ele>
        <time>2015-08-30T09:45:58Z</time>
      </trkpt>
      <trkpt lat="44.16407" lon="3.72737">
        <ele>798.5</ele>
        <time>2015-08-30T09:45:59Z</time>
      </trkpt>
      <trkpt lat="44.16425" lon="3.72721">
        <ele>799.5</ele>
        <time>2015-08-30T09:46:00Z</time>
      </trkpt>
      <trkpt lat="44.16462" lon="3.72693">
        <ele>801.4</ele>
        <time>2015-08-30T09:46:02Z</time>
      </trkpt>
      <trkpt lat="44.16479" lon="3.72678">
        <ele>801.9</ele>
        <time>2015-08-30T09:46:03Z</time>
      </trkpt>
      <trkpt lat="44.16495" lon="3.72659">
        <ele>802.8</ele>
        <time>2015-08-30T09:46:04Z</time>
      </trkpt>
      <trkpt lat="44.16509" lon="3.72638">
        <ele>803.3</ele>
        <time>2015-08-30T09:46:05Z</time>
      </trkpt>
      <trkpt lat="44.16528" lon="3.72582">
        <ele>803.8</ele>
        <time>2015-08-30T09:46:07Z</time>
      </trkpt>
      <trkpt lat="44.16533" lon="3.7255">
        <ele>805.2</ele>
        <time>2015-08-30T09:46:08Z</time>
      </trkpt>
      <trkpt lat="44.16534" lon="3.72518">
        <ele>805.7</ele>
        <time>2015-08-30T09:46:09Z</time>
      </trkpt>
      <trkpt lat="44.1651" lon="3.72209">
        <ele>810.5</ele>
        <time>2015-08-30T09:46:17Z</time>
      </trkpt>
      <trkpt lat="44.16517" lon="3.72136">
        <ele>812</ele>
        <time>2015-08-30T09:46:19Z</time>
      </trkpt>
      <trkpt lat="44.16528" lon="3.72104">
        <ele>812.5</ele>
        <time>2015-08-30T09:46:20Z</time>
      </trkpt>
      <trkpt lat="44.16576" lon="3.7202">
        <ele>813.4</ele>
        <time>2015-08-30T09:46:23Z</time>
      </trkpt>
      <trkpt lat="44.16588" lon="3.71991">
        <ele>813.9</ele>
        <time>2015-08-30T09:46:24Z</time>
      </trkpt>
      <trkpt lat="44.16598" lon="3.71959">
        <ele>814.9</ele>
        <time>2015-08-30T09:46:25Z</time>
      </trkpt>
      <trkpt lat="44.16603" lon="3.71925">
        <ele>815.3</ele>
        <time>2015-08-30T09:46:26Z</time>
      </trkpt>
      <trkpt lat="44.16603" lon="3.71888">
        <ele>815.8</ele>
        <time>2015-08-30T09:46:27Z</time>
      </trkpt>
      <trkpt lat="44.16587" lon="3.7177">
        <ele>815.3</ele>
        <time>2015-08-30T09:46:30Z</time>
      </trkpt>
      <trkpt lat="44.16588" lon="3.71558">
        <ele>817.3</ele>
        <time>2015-08-30T09:46:36Z</time>
      </trkpt>
      <trkpt lat="44.16592" lon="3.71526">
        <ele>818.2</ele>
        <time>2015-08-30T09:46:37Z</time>
      </trkpt>
      <trkpt lat="44.16591" lon="3.71494">
        <ele>818.7</ele>
        <time>2015-08-30T09:46:38Z</time>
      </trkpt>
      <trkpt lat="44.16584" lon="3.71462">
        <ele>819.2</ele>
        <time>2015-08-30T09:46:39Z</time>
      </trkpt>
      <trkpt lat="44.16526" lon="3.71327">
        <ele>820.6</ele>
        <time>2015-08-30T09:46:43Z</time>
      </trkpt>
      <trkpt lat="44.16468" lon="3.71112">
        <ele>823</ele>
        <time>2015-08-30T09:46:49Z</time>
      </trkpt>
      <trkpt lat="44.1647" lon="3.71074">
        <ele>823.5</ele>
        <time>2015-08-30T09:46:50Z</time>
      </trkpt>
      <trkpt lat="44.16484" lon="3.70997">
        <ele>824</ele>
        <time>2015-08-30T09:46:52Z</time>
      </trkpt>
      <trkpt lat="44.16528" lon="3.70835">
        <ele>828.8</ele>
        <time>2015-08-30T09:46:57Z</time>
      </trkpt>
      <trkpt lat="44.16536" lon="3.70767">
        <ele>830.2</ele>
        <time>2015-08-30T09:46:59Z</time>
      </trkpt>
      <trkpt lat="44.16552" lon="3.70696">
        <ele>830.7</ele>
        <time>2015-08-30T09:47:01Z</time>
      </trkpt>
      <trkpt lat="44.16579" lon="3.70627">
        <ele>830.7</ele>
        <time>2015-08-30T09:47:03Z</time>
      </trkpt>
      <trkpt lat="44.16811" lon="3.70247">
        <ele>839.4</ele>
        <time>2015-08-30T09:47:16Z</time>
      </trkpt>
      <trkpt lat="44.16832" lon="3.70223">
        <ele>839.9</ele>
        <time>2015-08-30T09:47:17Z</time>
      </trkpt>
      <trkpt lat="44.16854" lon="3.70203">
        <ele>839.9</ele>
        <time>2015-08-30T09:47:18Z</time>
      </trkpt>
      <trkpt lat="44.16971" lon="3.70063">
        <ele>841.3</ele>
        <time>2015-08-30T09:47:24Z</time>
      </trkpt>
      <trkpt lat="44.16987" lon="3.70039">
        <ele>841.8</ele>
        <time>2015-08-30T09:47:25Z</time>
      </trkpt>
      <trkpt lat="44.17001" lon="3.7001">
        <ele>842.7</ele>
        <time>2015-08-30T09:47:26Z</time>
      </trkpt>
      <trkpt lat="44.17032" lon="3.69912">
        <ele>843.2</ele>
        <time>2015-08-30T09:47:29Z</time>
      </trkpt>
      <trkpt lat="44.17045" lon="3.69844">
        <ele>844.2</ele>
        <time>2015-08-30T09:47:31Z</time>
      </trkpt>
      <trkpt lat="44.17048" lon="3.69442">
        <ele>845.1</ele>
        <time>2015-08-30T09:47:42Z</time>
      </trkpt>
      <trkpt lat="44.17055" lon="3.69406">
        <ele>845.6</ele>
        <time>2015-08-30T09:47:43Z</time>
      </trkpt>
      <trkpt lat="44.17067" lon="3.69373">
        <ele>846.1</ele>
        <time>2015-08-30T09:47:44Z</time>
      </trkpt>
      <trkpt lat="44.17112" lon="3.69282">
        <ele>846.6</ele>
        <time>2015-08-30T09:47:47Z</time>
      </trkpt>
      <trkpt lat="44.17148" lon="3.69229">
        <ele>847.1</ele>
        <time>2015-08-30T09:47:49Z</time>
      </trkpt>
      <trkpt lat="44.17169" lon="3.69209">
        <ele>847.5</ele>
        <time>2015-08-30T09:47:50Z</time>
      </trkpt>
      <trkpt lat="44.1724" lon="3.69161">
        <ele>848</ele>
        <time>2015-08-30T09:47:53Z</time>
      </trkpt>
      <trkpt lat="44.17541" lon="3.68818">
        <ele>850.4</ele>
        <time>2015-08-30T09:48:07Z</time>
      </trkpt>
      <trkpt lat="44.17622" lon="3.68744">
        <ele>849.5</ele>
        <time>2015-08-30T09:48:11Z</time>
      </trkpt>
      <trkpt lat="44.17646" lon="3.68735">
        <ele>847.5</ele>
        <time>2015-08-30T09:48:12Z</time>
      </trkpt>
      <trkpt lat="44.17672" lon="3.68731">
        <ele>847.1</ele>
        <time>2015-08-30T09:48:13Z</time>
      </trkpt>
      <trkpt lat="44.17696" lon="3.68724">
        <ele>846.6</ele>
        <time>2015-08-30T09:48:14Z</time>
      </trkpt>
      <trkpt lat="44.1772" lon="3.68714">
        <ele>846.1</ele>
        <time>2015-08-30T09:48:15Z</time>
      </trkpt>
      <trkpt lat="44.17744" lon="3.68697">
        <ele>845.6</ele>
        <time>2015-08-30T09:48:16Z</time>
      </trkpt>
      <trkpt lat="44.18041" lon="3.68432">
        <ele>847.5</ele>
        <time>2015-08-30T09:48:29Z</time>
      </trkpt>
      <trkpt lat="44.18107" lon="3.68424">
        <ele>847.5</ele>
        <time>2015-08-30T09:48:32Z</time>
      </trkpt>
      <trkpt lat="44.18129" lon="3.68431">
        <ele>848</ele>
        <time>2015-08-30T09:48:33Z</time>
      </trkpt>
      <trkpt lat="44.1815" lon="3.68442">
        <ele>848.5</ele>
        <time>2015-08-30T09:48:34Z</time>
      </trkpt>
      <trkpt lat="44.1821" lon="3.68462">
        <ele>849.5</ele>
        <time>2015-08-30T09:48:37Z</time>
      </trkpt>
      <trkpt lat="44.18229" lon="3.6846">
        <ele>849.9</ele>
        <time>2015-08-30T09:48:38Z</time>
      </trkpt>
      <trkpt lat="44.18246" lon="3.68453">
        <ele>849</ele>
        <time>2015-08-30T09:48:39Z</time>
      </trkpt>
      <trkpt lat="44.1826" lon="3.68436">
        <ele>848</ele>
        <time>2015-08-30T09:48:40Z</time>
      </trkpt>
      <trkpt lat="44.1827" lon="3.68413">
        <ele>848</ele>
        <time>2015-08-30T09:48:41Z</time>
      </trkpt>
      <trkpt lat="44.18301" lon="3.67779">
        <ele>840.3</ele>
        <time>2015-08-30T09:48:57Z</time>
      </trkpt>
      <trkpt lat="44.18317" lon="3.67704">
        <ele>837.9</ele>
        <time>2015-08-30T09:48:59Z</time>
      </trkpt>
      <trkpt lat="44.18341" lon="3.67636">
        <ele>836</ele>
        <time>2015-08-30T09:49:01Z</time>
      </trkpt>
      <trkpt lat="44.18355" lon="3.67606">
        <ele>835.5</ele>
        <time>2015-08-30T09:49:02Z</time>
      </trkpt>
      <trkpt lat="44.18371" lon="3.67578">
        <ele>834.6</ele>
        <time>2015-08-30T09:49:03Z</time>
      </trkpt>
      <trkpt lat="44.18389" lon="3.67553">
        <ele>834.6</ele>
        <time>2015-08-30T09:49:04Z</time>
      </trkpt>
      <trkpt lat="44.18621" lon="3.67117">
        <ele>832.2</ele>
        <time>2015-08-30T09:49:19Z</time>
      </trkpt>
      <trkpt lat="44.18675" lon="3.66967">
        <ele>831.2</ele>
        <time>2015-08-30T09:49:24Z</time>
      </trkpt>
      <trkpt lat="44.18693" lon="3.66944">
        <ele>830.7</ele>
        <time>2015-08-30T09:49:25Z</time>
      </trkpt>
      <trkpt lat="44.18712" lon="3.66927">
        <ele>831.2</ele>
        <time>2015-08-30T09:49:26Z</time>
      </trkpt>
      <trkpt lat="44.18756" lon="3.66908">
        <ele>828.3</ele>
        <time>2015-08-30T09:49:28Z</time>
      </trkpt>
      <trkpt lat="44.18781" lon="3.66909">
        <ele>828.8</ele>
        <time>2015-08-30T09:49:29Z</time>
      </trkpt>
      <trkpt lat="44.18849" lon="3.66926">
        <ele>828.3</ele>
        <time>2015-08-30T09:49:32Z</time>
      </trkpt>
      <trkpt lat="44.18899" lon="3.66921">
        <ele>826.9</ele>
        <time>2015-08-30T09:49:34Z</time>
      </trkpt>
      <trkpt lat="44.19148" lon="3.66826">
        <ele>817.3</ele>
        <time>2015-08-30T09:49:43Z</time>
      </trkpt>
      <trkpt lat="44.19282" lon="3.66726">
        <ele>812.5</ele>
        <time>2015-08-30T09:49:49Z</time>
      </trkpt>
      <trkpt lat="44.19313" lon="3.66672">
        <ele>811</ele>
        <time>2015-08-30T09:49:51Z</time>
      </trkpt>
      <trkpt lat="44.19326" lon="3.66644">
        <ele>810.1</ele>
        <time>2015-08-30T09:49:52Z</time>
      </trkpt>
      <trkpt lat="44.19336" lon="3.66615">
        <ele>809.6</ele>
        <time>2015-08-30T09:49:53Z</time>
      </trkpt>
      <trkpt lat="44.19343" lon="3.66583">
        <ele>808.6</ele>
        <time>2015-08-30T09:49:54Z</time>
      </trkpt>
      <trkpt lat="44.19351" lon="3.66477">
        <ele>804.3</ele>
        <time>2015-08-30T09:49:57Z</time>
      </trkpt>
      <trkpt lat="44.19345" lon="3.66279">
        <ele>798.5</ele>
        <time>2015-08-30T09:50:03Z</time>
      </trkpt>
      <trkpt lat="44.19376" lon="3.66054">
        <ele>791.8</ele>
        <time>2015-08-30T09:50:10Z</time>
      </trkpt>
      <trkpt lat="44.19385" lon="3.66026">
        <ele>790.3</ele>
        <time>2015-08-30T09:50:11Z</time>
      </trkpt>
      <trkpt lat="44.19492" lon="3.65774">
        <ele>784.6</ele>
        <time>2015-08-30T09:50:27Z</time>
      </trkpt>
      <trkpt lat="44.19517" lon="3.65292">
        <ele>788.9</ele>
        <time>2015-08-30T09:51:20Z</time>
      </trkpt>
      <trkpt lat="44.19513" lon="3.65238">
        <ele>792.7</ele>
        <time>2015-08-30T09:51:24Z</time>
      </trkpt>
      <trkpt lat="44.19475" lon="3.65101">
        <ele>804.8</ele>
        <time>2015-08-30T09:51:35Z</time>
      </trkpt>
      <trkpt lat="44.19462" lon="3.65069">
        <ele>807.6</ele>
        <time>2015-08-30T09:51:37Z</time>
      </trkpt>
      <trkpt lat="44.19433" lon="3.65028">
        <ele>811</ele>
        <time>2015-08-30T09:51:40Z</time>
      </trkpt>
      <trkpt lat="44.19426" lon="3.65015">
        <ele>813.4</ele>
        <time>2015-08-30T09:51:41Z</time>
      </trkpt>
      <trkpt lat="44.19421" lon="3.65">
        <ele>814.9</ele>
        <time>2015-08-30T09:51:42Z</time>
      </trkpt>
      <trkpt lat="44.19403" lon="3.64903">
        <ele>821.6</ele>
        <time>2015-08-30T09:51:48Z</time>
      </trkpt>
      <trkpt lat="44.19397" lon="3.64895">
        <ele>822.6</ele>
        <time>2015-08-30T09:51:49Z</time>
      </trkpt>
      <trkpt lat="44.19388" lon="3.64893">
        <ele>824</ele>
        <time>2015-08-30T09:51:50Z</time>
      </trkpt>
      <trkpt lat="44.19367" lon="3.64902">
        <ele>826.9</ele>
        <time>2015-08-30T09:51:52Z</time>
      </trkpt>
      <trkpt lat="44.19358" lon="3.64908">
        <ele>828.3</ele>
        <time>2015-08-30T09:51:53Z</time>
      </trkpt>
      <trkpt lat="44.1935" lon="3.64911">
        <ele>829.8</ele>
        <time>2015-08-30T09:51:54Z</time>
      </trkpt>
      <trkpt lat="44.19345" lon="3.64907">
        <ele>830.7</ele>
        <time>2015-08-30T09:51:55Z</time>
      </trkpt>
      <trkpt lat="44.19362" lon="3.64885">
        <ele>833.6</ele>
        <time>2015-08-30T09:51:58Z</time>
      </trkpt>
      <trkpt lat="44.19402" lon="3.64861">
        <ele>836.5</ele>
        <time>2015-08-30T09:52:01Z</time>
      </trkpt>
      <trkpt lat="44.19413" lon="3.64863">
        <ele>837.9</ele>
        <time>2015-08-30T09:52:02Z</time>
      </trkpt>
      <trkpt lat="44.19423" lon="3.64868">
        <ele>837.5</ele>
        <time>2015-08-30T09:52:03Z</time>
      </trkpt>
      <trkpt lat="44.19428" lon="3.64887">
        <ele>840.3</ele>
        <time>2015-08-30T09:52:04Z</time>
      </trkpt>
      <trkpt lat="44.19442" lon="3.64922">
        <ele>842.7</ele>
        <time>2015-08-30T09:52:06Z</time>
      </trkpt>
      <trkpt lat="44.19453" lon="3.64937">
        <ele>843.7</ele>
        <time>2015-08-30T09:52:07Z</time>
      </trkpt>
      <trkpt lat="44.19466" lon="3.64948">
        <ele>844.2</ele>
        <time>2015-08-30T09:52:08Z</time>
      </trkpt>
      <trkpt lat="44.1948" lon="3.64952">
        <ele>844.7</ele>
        <time>2015-08-30T09:52:09Z</time>
      </trkpt>
      <trkpt lat="44.19494" lon="3.64951">
        <ele>845.1</ele>
        <time>2015-08-30T09:52:10Z</time>
      </trkpt>
      <trkpt lat="44.19503" lon="3.64945">
        <ele>846.1</ele>
        <time>2015-08-30T09:52:11Z</time>
      </trkpt>
      <trkpt lat="44.19507" lon="3.64935">
        <ele>847.5</ele>
        <time>2015-08-30T09:52:12Z</time>
      </trkpt>
      <trkpt lat="44.19498" lon="3.64895">
        <ele>850.4</ele>
        <time>2015-08-30T09:52:14Z</time>
      </trkpt>
      <trkpt lat="44.19484" lon="3.64854">
        <ele>853.8</ele>
        <time>2015-08-30T09:52:16Z</time>
      </trkpt>
      <trkpt lat="44.19457" lon="3.64796">
        <ele>857.2</ele>
        <time>2015-08-30T09:52:20Z</time>
      </trkpt>
      <trkpt lat="44.19445" lon="3.64795">
        <ele>858.1</ele>
        <time>2015-08-30T09:52:21Z</time>
      </trkpt>
      <trkpt lat="44.19429" lon="3.64797">
        <ele>860</ele>
        <time>2015-08-30T09:52:22Z</time>
      </trkpt>
      <trkpt lat="44.19412" lon="3.64797">
        <ele>861.5</ele>
        <time>2015-08-30T09:52:23Z</time>
      </trkpt>
      <trkpt lat="44.19396" lon="3.64793">
        <ele>862.4</ele>
        <time>2015-08-30T09:52:24Z</time>
      </trkpt>
      <trkpt lat="44.19379" lon="3.64783">
        <ele>863.4</ele>
        <time>2015-08-30T09:52:25Z</time>
      </trkpt>
      <trkpt lat="44.19366" lon="3.64767">
        <ele>864.8</ele>
        <time>2015-08-30T09:52:26Z</time>
      </trkpt>
      <trkpt lat="44.19345" lon="3.64727">
        <ele>869.7</ele>
        <time>2015-08-30T09:52:28Z</time>
      </trkpt>
      <trkpt lat="44.19331" lon="3.64709">
        <ele>870.6</ele>
        <time>2015-08-30T09:52:29Z</time>
      </trkpt>
      <trkpt lat="44.19316" lon="3.64696">
        <ele>871.6</ele>
        <time>2015-08-30T09:52:30Z</time>
      </trkpt>
      <trkpt lat="44.19299" lon="3.6469">
        <ele>873</ele>
        <time>2015-08-30T09:52:31Z</time>
      </trkpt>
      <trkpt lat="44.19281" lon="3.64689">
        <ele>874.5</ele>
        <time>2015-08-30T09:52:32Z</time>
      </trkpt>
      <trkpt lat="44.19264" lon="3.64691">
        <ele>876.4</ele>
        <time>2015-08-30T09:52:33Z</time>
      </trkpt>
      <trkpt lat="44.19231" lon="3.64699">
        <ele>882.2</ele>
        <time>2015-08-30T09:52:35Z</time>
      </trkpt>
      <trkpt lat="44.19217" lon="3.64698">
        <ele>884.6</ele>
        <time>2015-08-30T09:52:36Z</time>
      </trkpt>
      <trkpt lat="44.19205" lon="3.6469">
        <ele>886</ele>
        <time>2015-08-30T09:52:37Z</time>
      </trkpt>
      <trkpt lat="44.19195" lon="3.64676">
        <ele>887.9</ele>
        <time>2015-08-30T09:52:38Z</time>
      </trkpt>
      <trkpt lat="44.19191" lon="3.64659">
        <ele>889.8</ele>
        <time>2015-08-30T09:52:39Z</time>
      </trkpt>
      <trkpt lat="44.19191" lon="3.64639">
        <ele>891.3</ele>
        <time>2015-08-30T09:52:40Z</time>
      </trkpt>
      <trkpt lat="44.19208" lon="3.64607">
        <ele>893.2</ele>
        <time>2015-08-30T09:52:42Z</time>
      </trkpt>
      <trkpt lat="44.19314" lon="3.645">
        <ele>904.3</ele>
        <time>2015-08-30T09:52:49Z</time>
      </trkpt>
      <trkpt lat="44.19329" lon="3.64495">
        <ele>906.2</ele>
        <time>2015-08-30T09:52:50Z</time>
      </trkpt>
      <trkpt lat="44.19345" lon="3.64496">
        <ele>907.1</ele>
        <time>2015-08-30T09:52:51Z</time>
      </trkpt>
      <trkpt lat="44.19361" lon="3.64499">
        <ele>908.6</ele>
        <time>2015-08-30T09:52:52Z</time>
      </trkpt>
      <trkpt lat="44.19396" lon="3.64515">
        <ele>912</ele>
        <time>2015-08-30T09:52:54Z</time>
      </trkpt>
      <trkpt lat="44.19584" lon="3.64515">
        <ele>920.6</ele>
        <time>2015-08-30T09:53:03Z</time>
      </trkpt>
      <trkpt lat="44.19596" lon="3.64508">
        <ele>920.6</ele>
        <time>2015-08-30T09:53:04Z</time>
      </trkpt>
      <trkpt lat="44.19606" lon="3.64494">
        <ele>920.6</ele>
        <time>2015-08-30T09:53:05Z</time>
      </trkpt>
      <trkpt lat="44.19621" lon="3.64426">
        <ele>923</ele>
        <time>2015-08-30T09:53:08Z</time>
      </trkpt>
      <trkpt lat="44.19667" lon="3.64111">
        <ele>949</ele>
        <time>2015-08-30T09:53:20Z</time>
      </trkpt>
      <trkpt lat="44.19681" lon="3.64065">
        <ele>952.3</ele>
        <time>2015-08-30T09:53:22Z</time>
      </trkpt>
      <trkpt lat="44.19762" lon="3.63879">
        <ele>966.3</ele>
        <time>2015-08-30T09:53:30Z</time>
      </trkpt>
      <trkpt lat="44.1978" lon="3.6382">
        <ele>970.6</ele>
        <time>2015-08-30T09:53:33Z</time>
      </trkpt>
      <trkpt lat="44.19782" lon="3.63802">
        <ele>972.5</ele>
        <time>2015-08-30T09:53:34Z</time>
      </trkpt>
      <trkpt lat="44.1978" lon="3.63784">
        <ele>973.5</ele>
        <time>2015-08-30T09:53:35Z</time>
      </trkpt>
      <trkpt lat="44.19775" lon="3.63767">
        <ele>974.4</ele>
        <time>2015-08-30T09:53:36Z</time>
      </trkpt>
      <trkpt lat="44.19742" lon="3.63712">
        <ele>979.7</ele>
        <time>2015-08-30T09:53:41Z</time>
      </trkpt>
      <trkpt lat="44.19743" lon="3.63706">
        <ele>980.7</ele>
        <time>2015-08-30T09:53:42Z</time>
      </trkpt>
      <trkpt lat="44.19755" lon="3.63723">
        <ele>983.6</ele>
        <time>2015-08-30T09:53:45Z</time>
      </trkpt>
      <trkpt lat="44.19762" lon="3.63734">
        <ele>984.5</ele>
        <time>2015-08-30T09:53:46Z</time>
      </trkpt>
      <trkpt lat="44.19806" lon="3.63793">
        <ele>987.4</ele>
        <time>2015-08-30T09:53:50Z</time>
      </trkpt>
      <trkpt lat="44.19812" lon="3.63813">
        <ele>987.9</ele>
        <time>2015-08-30T09:53:51Z</time>
      </trkpt>
      <trkpt lat="44.19815" lon="3.63861">
        <ele>988.9</ele>
        <time>2015-08-30T09:53:53Z</time>
      </trkpt>
      <trkpt lat="44.19804" lon="3.63948">
        <ele>995.1</ele>
        <time>2015-08-30T09:53:56Z</time>
      </trkpt>
      <trkpt lat="44.19798" lon="3.63979">
        <ele>998</ele>
        <time>2015-08-30T09:53:57Z</time>
      </trkpt>
      <trkpt lat="44.19748" lon="3.64121">
        <ele>1003.8</ele>
        <time>2015-08-30T09:54:03Z</time>
      </trkpt>
      <trkpt lat="44.19745" lon="3.64142">
        <ele>1005.7</ele>
        <time>2015-08-30T09:54:04Z</time>
      </trkpt>
      <trkpt lat="44.19747" lon="3.64163">
        <ele>1007.1</ele>
        <time>2015-08-30T09:54:05Z</time>
      </trkpt>
      <trkpt lat="44.19753" lon="3.64182">
        <ele>1009</ele>
        <time>2015-08-30T09:54:06Z</time>
      </trkpt>
      <trkpt lat="44.19767" lon="3.64196">
        <ele>1010</ele>
        <time>2015-08-30T09:54:07Z</time>
      </trkpt>
      <trkpt lat="44.19783" lon="3.64205">
        <ele>1011.4</ele>
        <time>2015-08-30T09:54:08Z</time>
      </trkpt>
      <trkpt lat="44.198" lon="3.6421">
        <ele>1011.9</ele>
        <time>2015-08-30T09:54:09Z</time>
      </trkpt>
      <trkpt lat="44.19818" lon="3.64205">
        <ele>1012.9</ele>
        <time>2015-08-30T09:54:10Z</time>
      </trkpt>
      <trkpt lat="44.19835" lon="3.64191">
        <ele>1014.3</ele>
        <time>2015-08-30T09:54:11Z</time>
      </trkpt>
      <trkpt lat="44.19888" lon="3.64126">
        <ele>1020.1</ele>
        <time>2015-08-30T09:54:14Z</time>
      </trkpt>
      <trkpt lat="44.19925" lon="3.64093">
        <ele>1023.5</ele>
        <time>2015-08-30T09:54:16Z</time>
      </trkpt>
      <trkpt lat="44.19946" lon="3.64082">
        <ele>1025.4</ele>
        <time>2015-08-30T09:54:17Z</time>
      </trkpt>
      <trkpt lat="44.19967" lon="3.64076">
        <ele>1027.3</ele>
        <time>2015-08-30T09:54:18Z</time>
      </trkpt>
      <trkpt lat="44.1999" lon="3.64077">
        <ele>1028.8</ele>
        <time>2015-08-30T09:54:19Z</time>
      </trkpt>
      <trkpt lat="44.20178" lon="3.64103">
        <ele>1045.6</ele>
        <time>2015-08-30T09:54:29Z</time>
      </trkpt>
      <trkpt lat="44.20199" lon="3.641">
        <ele>1047.5</ele>
        <time>2015-08-30T09:54:30Z</time>
      </trkpt>
      <trkpt lat="44.2022" lon="3.64094">
        <ele>1048.9</ele>
        <time>2015-08-30T09:54:31Z</time>
      </trkpt>
      <trkpt lat="44.20239" lon="3.64082">
        <ele>1049.9</ele>
        <time>2015-08-30T09:54:32Z</time>
      </trkpt>
      <trkpt lat="44.20275" lon="3.64042">
        <ele>1052.3</ele>
        <time>2015-08-30T09:54:34Z</time>
      </trkpt>
      <trkpt lat="44.20401" lon="3.63886">
        <ele>1050.9</ele>
        <time>2015-08-30T09:54:42Z</time>
      </trkpt>
      <trkpt lat="44.20495" lon="3.63724">
        <ele>1048.9</ele>
        <time>2015-08-30T09:54:49Z</time>
      </trkpt>
      <trkpt lat="44.2062" lon="3.6346">
        <ele>1047.5</ele>
        <time>2015-08-30T09:54:59Z</time>
      </trkpt>
      <trkpt lat="44.20636" lon="3.63441">
        <ele>1047.5</ele>
        <time>2015-08-30T09:55:00Z</time>
      </trkpt>
      <trkpt lat="44.20656" lon="3.63429">
        <ele>1047</ele>
        <time>2015-08-30T09:55:01Z</time>
      </trkpt>
      <trkpt lat="44.20677" lon="3.6342">
        <ele>1046.5</ele>
        <time>2015-08-30T09:55:02Z</time>
      </trkpt>
      <trkpt lat="44.20721" lon="3.63407">
        <ele>1045.6</ele>
        <time>2015-08-30T09:55:04Z</time>
      </trkpt>
      <trkpt lat="44.20868" lon="3.63327">
        <ele>1044.1</ele>
        <time>2015-08-30T09:55:11Z</time>
      </trkpt>
      <trkpt lat="44.20904" lon="3.63291">
        <ele>1044.1</ele>
        <time>2015-08-30T09:55:13Z</time>
      </trkpt>
      <trkpt lat="44.20935" lon="3.63241">
        <ele>1043.7</ele>
        <time>2015-08-30T09:55:15Z</time>
      </trkpt>
      <trkpt lat="44.2105" lon="3.63013">
        <ele>1041.3</ele>
        <time>2015-08-30T09:55:24Z</time>
      </trkpt>
      <trkpt lat="44.21164" lon="3.62863">
        <ele>1034.5</ele>
        <time>2015-08-30T09:55:31Z</time>
      </trkpt>
      <trkpt lat="44.21299" lon="3.62749">
        <ele>1034.5</ele>
        <time>2015-08-30T09:55:38Z</time>
      </trkpt>
      <trkpt lat="44.21962" lon="3.62339">
        <ele>1036.4</ele>
        <time>2015-08-30T09:56:10Z</time>
      </trkpt>
      <trkpt lat="44.22424" lon="3.62007">
        <ele>1040.8</ele>
        <time>2015-08-30T09:56:34Z</time>
      </trkpt>
      <trkpt lat="44.22663" lon="3.61889">
        <ele>1045.1</ele>
        <time>2015-08-30T09:56:45Z</time>
      </trkpt>
      <trkpt lat="44.22814" lon="3.61856">
        <ele>1047.5</ele>
        <time>2015-08-30T09:56:52Z</time>
      </trkpt>
      <trkpt lat="44.23017" lon="3.61891">
        <ele>1045.6</ele>
        <time>2015-08-30T09:57:06Z</time>
      </trkpt>
      <trkpt lat="44.2318" lon="3.61895">
        <ele>1031.6</ele>
        <time>2015-08-30T09:57:15Z</time>
      </trkpt>
      <trkpt lat="44.232" lon="3.61888">
        <ele>1029.7</ele>
        <time>2015-08-30T09:57:16Z</time>
      </trkpt>
      <trkpt lat="44.23422" lon="3.61789">
        <ele>1015.8</ele>
        <time>2015-08-30T09:57:27Z</time>
      </trkpt>
      <trkpt lat="44.23665" lon="3.61709">
        <ele>1013.9</ele>
        <time>2015-08-30T09:57:38Z</time>
      </trkpt>
      <trkpt lat="44.23689" lon="3.61708">
        <ele>1013.9</ele>
        <time>2015-08-30T09:57:39Z</time>
      </trkpt>
      <trkpt lat="44.23714" lon="3.6171">
        <ele>1013.9</ele>
        <time>2015-08-30T09:57:40Z</time>
      </trkpt>
      <trkpt lat="44.23914" lon="3.61699">
        <ele>1011.9</ele>
        <time>2015-08-30T09:57:48Z</time>
      </trkpt>
      <trkpt lat="44.24051" lon="3.61671">
        <ele>1014.3</ele>
        <time>2015-08-30T09:57:54Z</time>
      </trkpt>
      <trkpt lat="44.24074" lon="3.61672">
        <ele>1015.3</ele>
        <time>2015-08-30T09:57:55Z</time>
      </trkpt>
      <trkpt lat="44.24098" lon="3.61677">
        <ele>1015.8</ele>
        <time>2015-08-30T09:57:56Z</time>
      </trkpt>
      <trkpt lat="44.24122" lon="3.6169">
        <ele>1016.3</ele>
        <time>2015-08-30T09:57:57Z</time>
      </trkpt>
      <trkpt lat="44.24145" lon="3.61708">
        <ele>1016.7</ele>
        <time>2015-08-30T09:57:58Z</time>
      </trkpt>
      <trkpt lat="44.24167" lon="3.6173">
        <ele>1017.2</ele>
        <time>2015-08-30T09:57:59Z</time>
      </trkpt>
      <trkpt lat="44.2443" lon="3.62162">
        <ele>1017.7</ele>
        <time>2015-08-30T09:58:16Z</time>
      </trkpt>
      <trkpt lat="44.24497" lon="3.62202">
        <ele>1016.3</ele>
        <time>2015-08-30T09:58:19Z</time>
      </trkpt>
      <trkpt lat="44.24518" lon="3.6222">
        <ele>1015.8</ele>
        <time>2015-08-30T09:58:20Z</time>
      </trkpt>
      <trkpt lat="44.24538" lon="3.62243">
        <ele>1014.8</ele>
        <time>2015-08-30T09:58:21Z</time>
      </trkpt>
      <trkpt lat="44.24768" lon="3.62593">
        <ele>1023.9</ele>
        <time>2015-08-30T09:58:35Z</time>
      </trkpt>
      <trkpt lat="44.24787" lon="3.62607">
        <ele>1024.9</ele>
        <time>2015-08-30T09:58:36Z</time>
      </trkpt>
      <trkpt lat="44.24809" lon="3.62614">
        <ele>1025.4</ele>
        <time>2015-08-30T09:58:37Z</time>
      </trkpt>
      <trkpt lat="44.24855" lon="3.62608">
        <ele>1027.8</ele>
        <time>2015-08-30T09:58:39Z</time>
      </trkpt>
      <trkpt lat="44.24878" lon="3.62597">
        <ele>1027.3</ele>
        <time>2015-08-30T09:58:40Z</time>
      </trkpt>
      <trkpt lat="44.25279" lon="3.62368">
        <ele>1033.6</ele>
        <time>2015-08-30T09:58:56Z</time>
      </trkpt>
      <trkpt lat="44.25859" lon="3.62205">
        <ele>1011</ele>
        <time>2015-08-30T09:59:19Z</time>
      </trkpt>
      <trkpt lat="44.25904" lon="3.622">
        <ele>1007.1</ele>
        <time>2015-08-30T09:59:21Z</time>
      </trkpt>
      <trkpt lat="44.25926" lon="3.62203">
        <ele>1005.2</ele>
        <time>2015-08-30T09:59:22Z</time>
      </trkpt>
      <trkpt lat="44.26033" lon="3.6223">
        <ele>993.2</ele>
        <time>2015-08-30T09:59:27Z</time>
      </trkpt>
      <trkpt lat="44.26053" lon="3.62226">
        <ele>990.8</ele>
        <time>2015-08-30T09:59:28Z</time>
      </trkpt>
      <trkpt lat="44.26072" lon="3.62214">
        <ele>987.4</ele>
        <time>2015-08-30T09:59:29Z</time>
      </trkpt>
      <trkpt lat="44.26276" lon="3.61967">
        <ele>959.1</ele>
        <time>2015-08-30T09:59:41Z</time>
      </trkpt>
      <trkpt lat="44.26293" lon="3.61952">
        <ele>957.1</ele>
        <time>2015-08-30T09:59:42Z</time>
      </trkpt>
      <trkpt lat="44.2633" lon="3.6193">
        <ele>953.8</ele>
        <time>2015-08-30T09:59:44Z</time>
      </trkpt>
      <trkpt lat="44.26347" lon="3.61926">
        <ele>952.3</ele>
        <time>2015-08-30T09:59:45Z</time>
      </trkpt>
      <trkpt lat="44.26379" lon="3.61931">
        <ele>949</ele>
        <time>2015-08-30T09:59:47Z</time>
      </trkpt>
      <trkpt lat="44.26393" lon="3.61932">
        <ele>947.5</ele>
        <time>2015-08-30T09:59:48Z</time>
      </trkpt>
      <trkpt lat="44.26405" lon="3.61929">
        <ele>946.1</ele>
        <time>2015-08-30T09:59:49Z</time>
      </trkpt>
      <trkpt lat="44.26415" lon="3.61919">
        <ele>944.2</ele>
        <time>2015-08-30T09:59:50Z</time>
      </trkpt>
      <trkpt lat="44.26429" lon="3.61881">
        <ele>941.3</ele>
        <time>2015-08-30T09:59:52Z</time>
      </trkpt>
      <trkpt lat="44.26434" lon="3.61855">
        <ele>941.3</ele>
        <time>2015-08-30T09:59:53Z</time>
      </trkpt>
      <trkpt lat="44.26438" lon="3.61797">
        <ele>936</ele>
        <time>2015-08-30T09:59:55Z</time>
      </trkpt>
      <trkpt lat="44.26426" lon="3.61688">
        <ele>927.3</ele>
        <time>2015-08-30T09:59:59Z</time>
      </trkpt>
      <trkpt lat="44.26427" lon="3.61663">
        <ele>925.4</ele>
        <time>2015-08-30T10:00:00Z</time>
      </trkpt>
      <trkpt lat="44.26431" lon="3.6164">
        <ele>924.5</ele>
        <time>2015-08-30T10:00:01Z</time>
      </trkpt>
      <trkpt lat="44.26436" lon="3.6162">
        <ele>924.5</ele>
        <time>2015-08-30T10:00:02Z</time>
      </trkpt>
      <trkpt lat="44.26532" lon="3.61422">
        <ele>914.4</ele>
        <time>2015-08-30T10:00:12Z</time>
      </trkpt>
      <trkpt lat="44.26761" lon="3.61046">
        <ele>889.8</ele>
        <time>2015-08-30T10:00:29Z</time>
      </trkpt>
      <trkpt lat="44.26769" lon="3.61027">
        <ele>888.9</ele>
        <time>2015-08-30T10:00:30Z</time>
      </trkpt>
      <trkpt lat="44.26771" lon="3.61007">
        <ele>887.4</ele>
        <time>2015-08-30T10:00:31Z</time>
      </trkpt>
      <trkpt lat="44.2677" lon="3.60936">
        <ele>884.1</ele>
        <time>2015-08-30T10:00:34Z</time>
      </trkpt>
      <trkpt lat="44.26773" lon="3.60911">
        <ele>883.1</ele>
        <time>2015-08-30T10:00:35Z</time>
      </trkpt>
      <trkpt lat="44.26778" lon="3.60887">
        <ele>882.2</ele>
        <time>2015-08-30T10:00:36Z</time>
      </trkpt>
      <trkpt lat="44.26786" lon="3.60865">
        <ele>881.7</ele>
        <time>2015-08-30T10:00:37Z</time>
      </trkpt>
      <trkpt lat="44.26799" lon="3.60845">
        <ele>881.2</ele>
        <time>2015-08-30T10:00:38Z</time>
      </trkpt>
      <trkpt lat="44.26814" lon="3.60826">
        <ele>880.7</ele>
        <time>2015-08-30T10:00:39Z</time>
      </trkpt>
      <trkpt lat="44.26833" lon="3.60811">
        <ele>880.2</ele>
        <time>2015-08-30T10:00:40Z</time>
      </trkpt>
      <trkpt lat="44.26928" lon="3.60752">
        <ele>877.3</ele>
        <time>2015-08-30T10:00:45Z</time>
      </trkpt>
      <trkpt lat="44.26943" lon="3.60736">
        <ele>876.4</ele>
        <time>2015-08-30T10:00:46Z</time>
      </trkpt>
      <trkpt lat="44.26955" lon="3.60716">
        <ele>875.4</ele>
        <time>2015-08-30T10:00:47Z</time>
      </trkpt>
      <trkpt lat="44.27013" lon="3.60493">
        <ele>865.3</ele>
        <time>2015-08-30T10:00:55Z</time>
      </trkpt>
      <trkpt lat="44.27025" lon="3.6047">
        <ele>864.4</ele>
        <time>2015-08-30T10:00:56Z</time>
      </trkpt>
      <trkpt lat="44.27039" lon="3.6045">
        <ele>863.4</ele>
        <time>2015-08-30T10:00:57Z</time>
      </trkpt>
      <trkpt lat="44.27134" lon="3.60338">
        <ele>855.7</ele>
        <time>2015-08-30T10:01:06Z</time>
      </trkpt>
      <trkpt lat="44.2735" lon="3.59958">
        <ele>819.2</ele>
        <time>2015-08-30T10:01:26Z</time>
      </trkpt>
      <trkpt lat="44.27354" lon="3.5994">
        <ele>817.3</ele>
        <time>2015-08-30T10:01:27Z</time>
      </trkpt>
      <trkpt lat="44.27354" lon="3.59923">
        <ele>815.3</ele>
        <time>2015-08-30T10:01:28Z</time>
      </trkpt>
      <trkpt lat="44.27349" lon="3.5991">
        <ele>814.4</ele>
        <time>2015-08-30T10:01:29Z</time>
      </trkpt>
      <trkpt lat="44.27339" lon="3.59893">
        <ele>811.5</ele>
        <time>2015-08-30T10:01:30Z</time>
      </trkpt>
      <trkpt lat="44.27325" lon="3.59885">
        <ele>809.1</ele>
        <time>2015-08-30T10:01:31Z</time>
      </trkpt>
      <trkpt lat="44.2729" lon="3.59872">
        <ele>807.2</ele>
        <time>2015-08-30T10:01:34Z</time>
      </trkpt>
      <trkpt lat="44.27285" lon="3.59867">
        <ele>806.2</ele>
        <time>2015-08-30T10:01:35Z</time>
      </trkpt>
      <trkpt lat="44.27283" lon="3.59861">
        <ele>804.8</ele>
        <time>2015-08-30T10:01:36Z</time>
      </trkpt>
      <trkpt lat="44.27286" lon="3.59855">
        <ele>803.8</ele>
        <time>2015-08-30T10:01:37Z</time>
      </trkpt>
      <trkpt lat="44.27296" lon="3.59855">
        <ele>801.9</ele>
        <time>2015-08-30T10:01:38Z</time>
      </trkpt>
      <trkpt lat="44.27324" lon="3.59861">
        <ele>799.5</ele>
        <time>2015-08-30T10:01:40Z</time>
      </trkpt>
      <trkpt lat="44.27343" lon="3.59858">
        <ele>797.1</ele>
        <time>2015-08-30T10:01:41Z</time>
      </trkpt>
      <trkpt lat="44.27384" lon="3.5984">
        <ele>793.7</ele>
        <time>2015-08-30T10:01:43Z</time>
      </trkpt>
      <trkpt lat="44.27494" lon="3.59767">
        <ele>783.1</ele>
        <time>2015-08-30T10:01:48Z</time>
      </trkpt>
      <trkpt lat="44.27658" lon="3.59616">
        <ele>763.9</ele>
        <time>2015-08-30T10:01:56Z</time>
      </trkpt>
      <trkpt lat="44.27724" lon="3.59465">
        <ele>757.7</ele>
        <time>2015-08-30T10:02:02Z</time>
      </trkpt>
      <trkpt lat="44.27737" lon="3.59446">
        <ele>756.2</ele>
        <time>2015-08-30T10:02:03Z</time>
      </trkpt>
      <trkpt lat="44.27753" lon="3.59434">
        <ele>754.8</ele>
        <time>2015-08-30T10:02:04Z</time>
      </trkpt>
      <trkpt lat="44.27788" lon="3.59427">
        <ele>750.9</ele>
        <time>2015-08-30T10:02:06Z</time>
      </trkpt>
      <trkpt lat="44.27919" lon="3.59438">
        <ele>742.3</ele>
        <time>2015-08-30T10:02:13Z</time>
      </trkpt>
      <trkpt lat="44.27939" lon="3.59432">
        <ele>740.8</ele>
        <time>2015-08-30T10:02:14Z</time>
      </trkpt>
      <trkpt lat="44.28025" lon="3.59394">
        <ele>734.1</ele>
        <time>2015-08-30T10:02:19Z</time>
      </trkpt>
      <trkpt lat="44.28041" lon="3.59395">
        <ele>733.1</ele>
        <time>2015-08-30T10:02:20Z</time>
      </trkpt>
      <trkpt lat="44.28055" lon="3.59398">
        <ele>731.2</ele>
        <time>2015-08-30T10:02:21Z</time>
      </trkpt>
      <trkpt lat="44.28066" lon="3.59406">
        <ele>729.3</ele>
        <time>2015-08-30T10:02:22Z</time>
      </trkpt>
      <trkpt lat="44.28076" lon="3.59415">
        <ele>727.9</ele>
        <time>2015-08-30T10:02:23Z</time>
      </trkpt>
      <trkpt lat="44.28078" lon="3.59434">
        <ele>725.9</ele>
        <time>2015-08-30T10:02:24Z</time>
      </trkpt>
      <trkpt lat="44.28076" lon="3.59455">
        <ele>724</ele>
        <time>2015-08-30T10:02:25Z</time>
      </trkpt>
      <trkpt lat="44.28072" lon="3.59477">
        <ele>722.6</ele>
        <time>2015-08-30T10:02:26Z</time>
      </trkpt>
      <trkpt lat="44.28054" lon="3.59522">
        <ele>719.7</ele>
        <time>2015-08-30T10:02:28Z</time>
      </trkpt>
      <trkpt lat="44.2804" lon="3.59548">
        <ele>717.3</ele>
        <time>2015-08-30T10:02:29Z</time>
      </trkpt>
      <trkpt lat="44.28021" lon="3.59572">
        <ele>715.8</ele>
        <time>2015-08-30T10:02:30Z</time>
      </trkpt>
      <trkpt lat="44.27999" lon="3.59594">
        <ele>713.9</ele>
        <time>2015-08-30T10:02:31Z</time>
      </trkpt>
      <trkpt lat="44.27937" lon="3.59641">
        <ele>709.1</ele>
        <time>2015-08-30T10:02:34Z</time>
      </trkpt>
      <trkpt lat="44.27921" lon="3.59659">
        <ele>707.2</ele>
        <time>2015-08-30T10:02:35Z</time>
      </trkpt>
      <trkpt lat="44.279" lon="3.59708">
        <ele>704.3</ele>
        <time>2015-08-30T10:02:37Z</time>
      </trkpt>
      <trkpt lat="44.27851" lon="3.59771">
        <ele>698.5</ele>
        <time>2015-08-30T10:02:40Z</time>
      </trkpt>
      <trkpt lat="44.27793" lon="3.59827">
        <ele>692.8</ele>
        <time>2015-08-30T10:02:43Z</time>
      </trkpt>
      <trkpt lat="44.27777" lon="3.59851">
        <ele>690.8</ele>
        <time>2015-08-30T10:02:44Z</time>
      </trkpt>
      <trkpt lat="44.2767" lon="3.60059">
        <ele>681.2</ele>
        <time>2015-08-30T10:02:52Z</time>
      </trkpt>
      <trkpt lat="44.27663" lon="3.60089">
        <ele>678.4</ele>
        <time>2015-08-30T10:02:55Z</time>
      </trkpt>
      <trkpt lat="44.27675" lon="3.60092">
        <ele>675</ele>
        <time>2015-08-30T10:02:57Z</time>
      </trkpt>
      <trkpt lat="44.2772" lon="3.60018">
        <ele>672.1</ele>
        <time>2015-08-30T10:03:01Z</time>
      </trkpt>
      <trkpt lat="44.27735" lon="3.59997">
        <ele>671.1</ele>
        <time>2015-08-30T10:03:02Z</time>
      </trkpt>
      <trkpt lat="44.27753" lon="3.59978">
        <ele>670.2</ele>
        <time>2015-08-30T10:03:03Z</time>
      </trkpt>
      <trkpt lat="44.27773" lon="3.59963">
        <ele>670.7</ele>
        <time>2015-08-30T10:03:04Z</time>
      </trkpt>
      <trkpt lat="44.28077" lon="3.59811">
        <ele>640.4</ele>
        <time>2015-08-30T10:03:17Z</time>
      </trkpt>
      <trkpt lat="44.28099" lon="3.59808">
        <ele>637.5</ele>
        <time>2015-08-30T10:03:18Z</time>
      </trkpt>
      <trkpt lat="44.28119" lon="3.59807">
        <ele>634.6</ele>
        <time>2015-08-30T10:03:19Z</time>
      </trkpt>
      <trkpt lat="44.28155" lon="3.59808">
        <ele>628.8</ele>
        <time>2015-08-30T10:03:21Z</time>
      </trkpt>
      <trkpt lat="44.28202" lon="3.59797">
        <ele>621.2</ele>
        <time>2015-08-30T10:03:24Z</time>
      </trkpt>
      <trkpt lat="44.28217" lon="3.59784">
        <ele>618.8</ele>
        <time>2015-08-30T10:03:25Z</time>
      </trkpt>
      <trkpt lat="44.28266" lon="3.59725">
        <ele>612.5</ele>
        <time>2015-08-30T10:03:28Z</time>
      </trkpt>
      <trkpt lat="44.2837" lon="3.5957">
        <ele>595.2</ele>
        <time>2015-08-30T10:03:35Z</time>
      </trkpt>
      <trkpt lat="44.28379" lon="3.59547">
        <ele>593.3</ele>
        <time>2015-08-30T10:03:36Z</time>
      </trkpt>
      <trkpt lat="44.28387" lon="3.59496">
        <ele>589.4</ele>
        <time>2015-08-30T10:03:38Z</time>
      </trkpt>
      <trkpt lat="44.28388" lon="3.5947">
        <ele>587.5</ele>
        <time>2015-08-30T10:03:39Z</time>
      </trkpt>
      <trkpt lat="44.28386" lon="3.59446">
        <ele>585.1</ele>
        <time>2015-08-30T10:03:40Z</time>
      </trkpt>
      <trkpt lat="44.28377" lon="3.59405">
        <ele>582.7</ele>
        <time>2015-08-30T10:03:42Z</time>
      </trkpt>
      <trkpt lat="44.28377" lon="3.59389">
        <ele>581.7</ele>
        <time>2015-08-30T10:03:43Z</time>
      </trkpt>
      <trkpt lat="44.28381" lon="3.59376">
        <ele>580.3</ele>
        <time>2015-08-30T10:03:44Z</time>
      </trkpt>
      <trkpt lat="44.28389" lon="3.59367">
        <ele>579.3</ele>
        <time>2015-08-30T10:03:45Z</time>
      </trkpt>
      <trkpt lat="44.28399" lon="3.59364">
        <ele>578.4</ele>
        <time>2015-08-30T10:03:46Z</time>
      </trkpt>
      <trkpt lat="44.2841" lon="3.5937">
        <ele>577.9</ele>
        <time>2015-08-30T10:03:47Z</time>
      </trkpt>
      <trkpt lat="44.28419" lon="3.59385">
        <ele>576.9</ele>
        <time>2015-08-30T10:03:48Z</time>
      </trkpt>
      <trkpt lat="44.28433" lon="3.59424">
        <ele>576</ele>
        <time>2015-08-30T10:03:50Z</time>
      </trkpt>
      <trkpt lat="44.2845" lon="3.59512">
        <ele>578.9</ele>
        <time>2015-08-30T10:03:53Z</time>
      </trkpt>
      <trkpt lat="44.28466" lon="3.59744">
        <ele>603.4</ele>
        <time>2015-08-30T10:04:02Z</time>
      </trkpt>
      <trkpt lat="44.28475" lon="3.59752">
        <ele>604.3</ele>
        <time>2015-08-30T10:04:03Z</time>
      </trkpt>
      <trkpt lat="44.28487" lon="3.5975">
        <ele>606.3</ele>
        <time>2015-08-30T10:04:04Z</time>
      </trkpt>
      <trkpt lat="44.285" lon="3.59746">
        <ele>604.8</ele>
        <time>2015-08-30T10:04:05Z</time>
      </trkpt>
      <trkpt lat="44.2857" lon="3.59683">
        <ele>614.9</ele>
        <time>2015-08-30T10:04:09Z</time>
      </trkpt>
      <trkpt lat="44.2867" lon="3.59642">
        <ele>621.6</ele>
        <time>2015-08-30T10:04:14Z</time>
      </trkpt>
      <trkpt lat="44.28696" lon="3.59619">
        <ele>624</ele>
        <time>2015-08-30T10:04:16Z</time>
      </trkpt>
      <trkpt lat="44.28729" lon="3.59566">
        <ele>628.4</ele>
        <time>2015-08-30T10:04:19Z</time>
      </trkpt>
      <trkpt lat="44.28744" lon="3.59551">
        <ele>629.3</ele>
        <time>2015-08-30T10:04:20Z</time>
      </trkpt>
      <trkpt lat="44.2878" lon="3.59528">
        <ele>630.8</ele>
        <time>2015-08-30T10:04:22Z</time>
      </trkpt>
      <trkpt lat="44.28881" lon="3.59421">
        <ele>634.1</ele>
        <time>2015-08-30T10:04:28Z</time>
      </trkpt>
      <trkpt lat="44.28906" lon="3.59407">
        <ele>634.6</ele>
        <time>2015-08-30T10:04:30Z</time>
      </trkpt>
      <trkpt lat="44.28916" lon="3.59413">
        <ele>634.1</ele>
        <time>2015-08-30T10:04:31Z</time>
      </trkpt>
      <trkpt lat="44.28925" lon="3.59425">
        <ele>634.1</ele>
        <time>2015-08-30T10:04:32Z</time>
      </trkpt>
      <trkpt lat="44.28928" lon="3.59442">
        <ele>634.1</ele>
        <time>2015-08-30T10:04:33Z</time>
      </trkpt>
      <trkpt lat="44.28925" lon="3.59486">
        <ele>636.1</ele>
        <time>2015-08-30T10:04:35Z</time>
      </trkpt>
      <trkpt lat="44.28919" lon="3.59516">
        <ele>639.9</ele>
        <time>2015-08-30T10:04:36Z</time>
      </trkpt>
      <trkpt lat="44.28917" lon="3.5957">
        <ele>639.4</ele>
        <time>2015-08-30T10:04:38Z</time>
      </trkpt>
      <trkpt lat="44.2892" lon="3.59593">
        <ele>639.9</ele>
        <time>2015-08-30T10:04:39Z</time>
      </trkpt>
      <trkpt lat="44.2893" lon="3.59612">
        <ele>639.4</ele>
        <time>2015-08-30T10:04:40Z</time>
      </trkpt>
      <trkpt lat="44.28944" lon="3.59625">
        <ele>638.9</ele>
        <time>2015-08-30T10:04:41Z</time>
      </trkpt>
      <trkpt lat="44.28985" lon="3.5964">
        <ele>641.8</ele>
        <time>2015-08-30T10:04:43Z</time>
      </trkpt>
      <trkpt lat="44.29006" lon="3.59655">
        <ele>641.8</ele>
        <time>2015-08-30T10:04:44Z</time>
      </trkpt>
      <trkpt lat="44.29024" lon="3.59677">
        <ele>641.8</ele>
        <time>2015-08-30T10:04:45Z</time>
      </trkpt>
      <trkpt lat="44.29039" lon="3.59701">
        <ele>642.3</ele>
        <time>2015-08-30T10:04:46Z</time>
      </trkpt>
      <trkpt lat="44.29051" lon="3.59727">
        <ele>642.8</ele>
        <time>2015-08-30T10:04:47Z</time>
      </trkpt>
      <trkpt lat="44.29072" lon="3.59805">
        <ele>643.3</ele>
        <time>2015-08-30T10:04:50Z</time>
      </trkpt>
      <trkpt lat="44.29081" lon="3.59824">
        <ele>643.7</ele>
        <time>2015-08-30T10:04:51Z</time>
      </trkpt>
      <trkpt lat="44.29093" lon="3.59837">
        <ele>644.2</ele>
        <time>2015-08-30T10:04:52Z</time>
      </trkpt>
      <trkpt lat="44.29106" lon="3.59844">
        <ele>643.7</ele>
        <time>2015-08-30T10:04:53Z</time>
      </trkpt>
      <trkpt lat="44.29121" lon="3.5984">
        <ele>643.7</ele>
        <time>2015-08-30T10:04:54Z</time>
      </trkpt>
      <trkpt lat="44.29136" lon="3.59827">
        <ele>644.2</ele>
        <time>2015-08-30T10:04:55Z</time>
      </trkpt>
      <trkpt lat="44.29164" lon="3.5979">
        <ele>643.3</ele>
        <time>2015-08-30T10:04:57Z</time>
      </trkpt>
      <trkpt lat="44.29208" lon="3.59711">
        <ele>642.8</ele>
        <time>2015-08-30T10:05:00Z</time>
      </trkpt>
      <trkpt lat="44.29225" lon="3.59688">
        <ele>643.3</ele>
        <time>2015-08-30T10:05:01Z</time>
      </trkpt>
      <trkpt lat="44.29243" lon="3.5967">
        <ele>643.7</ele>
        <time>2015-08-30T10:05:02Z</time>
      </trkpt>
      <trkpt lat="44.29262" lon="3.59655">
        <ele>643.7</ele>
        <time>2015-08-30T10:05:03Z</time>
      </trkpt>
      <trkpt lat="44.29282" lon="3.59645">
        <ele>644.2</ele>
        <time>2015-08-30T10:05:04Z</time>
      </trkpt>
      <trkpt lat="44.29302" lon="3.59641">
        <ele>645.2</ele>
        <time>2015-08-30T10:05:05Z</time>
      </trkpt>
      <trkpt lat="44.29321" lon="3.59643">
        <ele>646.6</ele>
        <time>2015-08-30T10:05:06Z</time>
      </trkpt>
      <trkpt lat="44.29342" lon="3.59642">
        <ele>647.1</ele>
        <time>2015-08-30T10:05:07Z</time>
      </trkpt>
      <trkpt lat="44.29361" lon="3.59637">
        <ele>647.6</ele>
        <time>2015-08-30T10:05:08Z</time>
      </trkpt>
      <trkpt lat="44.29379" lon="3.59627">
        <ele>647.6</ele>
        <time>2015-08-30T10:05:09Z</time>
      </trkpt>
      <trkpt lat="44.29396" lon="3.59612">
        <ele>647.6</ele>
        <time>2015-08-30T10:05:10Z</time>
      </trkpt>
      <trkpt lat="44.29424" lon="3.59579">
        <ele>648.6</ele>
        <time>2015-08-30T10:05:12Z</time>
      </trkpt>
      <trkpt lat="44.29439" lon="3.59568">
        <ele>648.6</ele>
        <time>2015-08-30T10:05:13Z</time>
      </trkpt>
      <trkpt lat="44.29454" lon="3.59566">
        <ele>649</ele>
        <time>2015-08-30T10:05:14Z</time>
      </trkpt>
      <trkpt lat="44.2947" lon="3.59571">
        <ele>649.5</ele>
        <time>2015-08-30T10:05:15Z</time>
      </trkpt>
      <trkpt lat="44.29521" lon="3.59605">
        <ele>650.5</ele>
        <time>2015-08-30T10:05:18Z</time>
      </trkpt>
      <trkpt lat="44.29539" lon="3.59611">
        <ele>650.5</ele>
        <time>2015-08-30T10:05:19Z</time>
      </trkpt>
      <trkpt lat="44.29556" lon="3.59612">
        <ele>651</ele>
        <time>2015-08-30T10:05:20Z</time>
      </trkpt>
      <trkpt lat="44.29573" lon="3.59609">
        <ele>650.5</ele>
        <time>2015-08-30T10:05:21Z</time>
      </trkpt>
      <trkpt lat="44.29588" lon="3.59607">
        <ele>650.5</ele>
        <time>2015-08-30T10:05:22Z</time>
      </trkpt>
      <trkpt lat="44.29603" lon="3.59611">
        <ele>650.5</ele>
        <time>2015-08-30T10:05:23Z</time>
      </trkpt>
      <trkpt lat="44.29617" lon="3.59622">
        <ele>650.5</ele>
        <time>2015-08-30T10:05:24Z</time>
      </trkpt>
      <trkpt lat="44.29627" lon="3.5964">
        <ele>650.5</ele>
        <time>2015-08-30T10:05:25Z</time>
      </trkpt>
      <trkpt lat="44.29634" lon="3.59663">
        <ele>650.5</ele>
        <time>2015-08-30T10:05:26Z</time>
      </trkpt>
      <trkpt lat="44.29635" lon="3.59717">
        <ele>649.5</ele>
        <time>2015-08-30T10:05:28Z</time>
      </trkpt>
      <trkpt lat="44.29616" lon="3.59858">
        <ele>645.2</ele>
        <time>2015-08-30T10:05:33Z</time>
      </trkpt>
      <trkpt lat="44.29618" lon="3.59886">
        <ele>644.2</ele>
        <time>2015-08-30T10:05:34Z</time>
      </trkpt>
      <trkpt lat="44.29636" lon="3.59966">
        <ele>641.8</ele>
        <time>2015-08-30T10:05:37Z</time>
      </trkpt>
      <trkpt lat="44.29645" lon="3.59986">
        <ele>640.9</ele>
        <time>2015-08-30T10:05:38Z</time>
      </trkpt>
      <trkpt lat="44.29657" lon="3.6">
        <ele>639.9</ele>
        <time>2015-08-30T10:05:39Z</time>
      </trkpt>
      <trkpt lat="44.29672" lon="3.60007">
        <ele>639.4</ele>
        <time>2015-08-30T10:05:40Z</time>
      </trkpt>
      <trkpt lat="44.29691" lon="3.60008">
        <ele>638</ele>
        <time>2015-08-30T10:05:41Z</time>
      </trkpt>
      <trkpt lat="44.29735" lon="3.59998">
        <ele>635.6</ele>
        <time>2015-08-30T10:05:43Z</time>
      </trkpt>
      <trkpt lat="44.2979" lon="3.59975">
        <ele>635.1</ele>
        <time>2015-08-30T10:05:45Z</time>
      </trkpt>
      <trkpt lat="44.29854" lon="3.59961">
        <ele>633.2</ele>
        <time>2015-08-30T10:05:47Z</time>
      </trkpt>
      <trkpt lat="44.30007" lon="3.59952">
        <ele>624.5</ele>
        <time>2015-08-30T10:05:53Z</time>
      </trkpt>
      <trkpt lat="44.30023" lon="3.59966">
        <ele>623.6</ele>
        <time>2015-08-30T10:05:54Z</time>
      </trkpt>
      <trkpt lat="44.30064" lon="3.60021">
        <ele>618.8</ele>
        <time>2015-08-30T10:05:57Z</time>
      </trkpt>
      <trkpt lat="44.30081" lon="3.60032">
        <ele>617.3</ele>
        <time>2015-08-30T10:05:58Z</time>
      </trkpt>
      <trkpt lat="44.301" lon="3.60035">
        <ele>615.4</ele>
        <time>2015-08-30T10:05:59Z</time>
      </trkpt>
      <trkpt lat="44.30119" lon="3.60032">
        <ele>613.5</ele>
        <time>2015-08-30T10:06:00Z</time>
      </trkpt>
      <trkpt lat="44.30138" lon="3.60023">
        <ele>610.1</ele>
        <time>2015-08-30T10:06:01Z</time>
      </trkpt>
      <trkpt lat="44.30173" lon="3.59982">
        <ele>604.3</ele>
        <time>2015-08-30T10:06:03Z</time>
      </trkpt>
      <trkpt lat="44.3019" lon="3.59957">
        <ele>603.4</ele>
        <time>2015-08-30T10:06:04Z</time>
      </trkpt>
      <trkpt lat="44.30207" lon="3.59927">
        <ele>602.4</ele>
        <time>2015-08-30T10:06:05Z</time>
      </trkpt>
      <trkpt lat="44.30235" lon="3.59859">
        <ele>599</ele>
        <time>2015-08-30T10:06:07Z</time>
      </trkpt>
      <trkpt lat="44.30327" lon="3.59687">
        <ele>594.2</ele>
        <time>2015-08-30T10:06:13Z</time>
      </trkpt>
      <trkpt lat="44.30345" lon="3.5967">
        <ele>592.3</ele>
        <time>2015-08-30T10:06:14Z</time>
      </trkpt>
      <trkpt lat="44.30367" lon="3.59657">
        <ele>590.9</ele>
        <time>2015-08-30T10:06:15Z</time>
      </trkpt>
      <trkpt lat="44.30416" lon="3.59644">
        <ele>587.5</ele>
        <time>2015-08-30T10:06:17Z</time>
      </trkpt>
      <trkpt lat="44.30533" lon="3.5962">
        <ele>581.3</ele>
        <time>2015-08-30T10:06:22Z</time>
      </trkpt>
      <trkpt lat="44.30554" lon="3.59625">
        <ele>579.8</ele>
        <time>2015-08-30T10:06:23Z</time>
      </trkpt>
      <trkpt lat="44.30573" lon="3.59633">
        <ele>579.3</ele>
        <time>2015-08-30T10:06:24Z</time>
      </trkpt>
      <trkpt lat="44.30591" lon="3.59644">
        <ele>577.9</ele>
        <time>2015-08-30T10:06:25Z</time>
      </trkpt>
      <trkpt lat="44.30625" lon="3.59672">
        <ele>576.5</ele>
        <time>2015-08-30T10:06:27Z</time>
      </trkpt>
      <trkpt lat="44.30897" lon="3.59805">
        <ele>564.4</ele>
        <time>2015-08-30T10:06:39Z</time>
      </trkpt>
      <trkpt lat="44.31056" lon="3.5986">
        <ele>556.7</ele>
        <time>2015-08-30T10:06:48Z</time>
      </trkpt>
      <trkpt lat="44.31287" lon="3.59815">
        <ele>549.5</ele>
        <time>2015-08-30T10:07:00Z</time>
      </trkpt>
      <trkpt lat="44.31431" lon="3.59771">
        <ele>548.6</ele>
        <time>2015-08-30T10:07:08Z</time>
      </trkpt>
      <trkpt lat="44.31521" lon="3.59772">
        <ele>549.1</ele>
        <time>2015-08-30T10:07:12Z</time>
      </trkpt>
      <trkpt lat="44.31588" lon="3.59801">
        <ele>549.1</ele>
        <time>2015-08-30T10:07:15Z</time>
      </trkpt>
      <trkpt lat="44.3161" lon="3.59807">
        <ele>548.6</ele>
        <time>2015-08-30T10:07:16Z</time>
      </trkpt>
      <trkpt lat="44.3165" lon="3.5981">
        <ele>549.1</ele>
        <time>2015-08-30T10:07:18Z</time>
      </trkpt>
      <trkpt lat="44.31783" lon="3.59804">
        <ele>550</ele>
        <time>2015-08-30T10:07:26Z</time>
      </trkpt>
      <trkpt lat="44.31875" lon="3.59784">
        <ele>550.5</ele>
        <time>2015-08-30T10:07:33Z</time>
      </trkpt>
      <trkpt lat="44.31882" lon="3.59786">
        <ele>550</ele>
        <time>2015-08-30T10:07:34Z</time>
      </trkpt>
      <trkpt lat="44.31888" lon="3.59792">
        <ele>551</ele>
        <time>2015-08-30T10:07:35Z</time>
      </trkpt>
      <trkpt lat="44.31899" lon="3.59799">
        <ele>551.5</ele>
        <time>2015-08-30T10:07:37Z</time>
      </trkpt>
      <trkpt lat="44.31904" lon="3.59795">
        <ele>551.5</ele>
        <time>2015-08-30T10:07:38Z</time>
      </trkpt>
      <trkpt lat="44.31908" lon="3.59788">
        <ele>551.9</ele>
        <time>2015-08-30T10:07:39Z</time>
      </trkpt>
      <trkpt lat="44.31914" lon="3.5978">
        <ele>552.4</ele>
        <time>2015-08-30T10:07:40Z</time>
      </trkpt>
      <trkpt lat="44.31921" lon="3.59773">
        <ele>552.4</ele>
        <time>2015-08-30T10:07:41Z</time>
      </trkpt>
      <trkpt lat="44.3193" lon="3.59767">
        <ele>552.4</ele>
        <time>2015-08-30T10:07:42Z</time>
      </trkpt>
      <trkpt lat="44.32036" lon="3.59716">
        <ele>552.9</ele>
        <time>2015-08-30T10:07:54Z</time>
      </trkpt>
      <trkpt lat="44.32133" lon="3.59659">
        <ele>553.4</ele>
        <time>2015-08-30T10:08:06Z</time>
      </trkpt>
      <trkpt lat="44.32282" lon="3.59628">
        <ele>550.5</ele>
        <time>2015-08-30T10:08:24Z</time>
      </trkpt>
      <trkpt lat="44.32287" lon="3.59625">
        <ele>550.5</ele>
        <time>2015-08-30T10:08:25Z</time>
      </trkpt>
      <trkpt lat="44.3229" lon="3.59623">
        <ele>550</ele>
        <time>2015-08-30T10:08:26Z</time>
      </trkpt>
      <trkpt lat="44.3229" lon="3.59617">
        <ele>550</ele>
        <time>2015-08-30T10:08:27Z</time>
      </trkpt>
      <trkpt lat="44.32288" lon="3.59609">
        <ele>549.1</ele>
        <time>2015-08-30T10:08:28Z</time>
      </trkpt>
      <trkpt lat="44.32257" lon="3.59538">
        <ele>555.8</ele>
        <time>2015-08-30T10:08:39Z</time>
      </trkpt>
      <trkpt lat="44.32257" lon="3.59535">
        <ele>555.3</ele>
        <time>2015-08-30T10:08:40Z</time>
      </trkpt>
      <trkpt lat="44.32272" lon="3.59519">
        <ele>555.8</ele>
        <time>2015-08-30T10:08:43Z</time>
      </trkpt>
      <trkpt lat="44.32308" lon="3.59485">
        <ele>556.7</ele>
        <time>2015-08-30T10:08:49Z</time>
      </trkpt>
      <trkpt lat="44.32324" lon="3.59465">
        <ele>556.3</ele>
        <time>2015-08-30T10:08:54Z</time>
      </trkpt>
      <trkpt lat="44.32321" lon="3.59457">
        <ele>556.7</ele>
        <time>2015-08-30T10:08:55Z</time>
      </trkpt>
      <trkpt lat="44.32319" lon="3.59448">
        <ele>557.2</ele>
        <time>2015-08-30T10:08:56Z</time>
      </trkpt>
      <trkpt lat="44.32317" lon="3.5943">
        <ele>558.2</ele>
        <time>2015-08-30T10:08:58Z</time>
      </trkpt>
      <trkpt lat="44.32311" lon="3.5941">
        <ele>559.1</ele>
        <time>2015-08-30T10:09:00Z</time>
      </trkpt>
      <trkpt lat="44.32302" lon="3.59394">
        <ele>562.5</ele>
        <time>2015-08-30T10:09:02Z</time>
      </trkpt>
      <trkpt lat="44.32296" lon="3.59379">
        <ele>562</ele>
        <time>2015-08-30T10:09:04Z</time>
      </trkpt>
      <trkpt lat="44.32294" lon="3.59372">
        <ele>563.5</ele>
        <time>2015-08-30T10:09:05Z</time>
      </trkpt>
      <trkpt lat="44.32294" lon="3.59352">
        <ele>562</ele>
        <time>2015-08-30T10:09:07Z</time>
      </trkpt>
      <trkpt lat="44.32308" lon="3.5926">
        <ele>560.6</ele>
        <time>2015-08-30T10:09:17Z</time>
      </trkpt>
      <trkpt lat="44.32308" lon="3.59255">
        <ele>560.1</ele>
        <time>2015-08-30T10:09:18Z</time>
      </trkpt>
      <trkpt lat="44.32306" lon="3.59251">
        <ele>560.1</ele>
        <time>2015-08-30T10:09:19Z</time>
      </trkpt>
      <trkpt lat="44.32305" lon="3.59248">
        <ele>560.1</ele>
        <time>2015-08-30T10:09:20Z</time>
      </trkpt>
      <trkpt lat="44.32302" lon="3.59245">
        <ele>560.1</ele>
        <time>2015-08-30T10:09:22Z</time>
      </trkpt>
      <trkpt lat="44.32295" lon="3.59242">
        <ele>561.6</ele>
        <time>2015-08-30T10:09:33Z</time>
      </trkpt>
      <trkpt lat="44.32296" lon="3.59245">
        <ele>561.1</ele>
        <time>2015-08-30T10:10:06Z</time>
      </trkpt>
      <trkpt lat="44.32297" lon="3.59245">
        <ele>566.8</ele>
        <time>2015-08-30T10:57:47Z</time>
      </trkpt>
      <trkpt lat="44.32295" lon="3.59246">
        <ele>563</ele>
        <time>2015-08-30T10:59:38Z</time>
      </trkpt>
      <trkpt lat="44.32295" lon="3.59254">
        <ele>563</ele>
        <time>2015-08-30T10:59:52Z</time>
      </trkpt>
      <trkpt lat="44.32295" lon="3.59254">
        <ele>562.5</ele>
        <time>2015-08-30T10:59:54Z</time>
      </trkpt>
      <trkpt lat="44.32293" lon="3.59275">
        <ele>561.1</ele>
        <time>2015-08-30T10:59:59Z</time>
      </trkpt>
      <trkpt lat="44.32285" lon="3.59334">
        <ele>560.1</ele>
        <time>2015-08-30T11:00:07Z</time>
      </trkpt>
      <trkpt lat="44.32286" lon="3.59348">
        <ele>559.6</ele>
        <time>2015-08-30T11:00:09Z</time>
      </trkpt>
      <trkpt lat="44.32289" lon="3.59361">
        <ele>559.1</ele>
        <time>2015-08-30T11:00:11Z</time>
      </trkpt>
      <trkpt lat="44.32316" lon="3.59441">
        <ele>556.7</ele>
        <time>2015-08-30T11:00:23Z</time>
      </trkpt>
      <trkpt lat="44.32317" lon="3.59454">
        <ele>555.8</ele>
        <time>2015-08-30T11:00:25Z</time>
      </trkpt>
      <trkpt lat="44.32318" lon="3.59461">
        <ele>554.8</ele>
        <time>2015-08-30T11:00:26Z</time>
      </trkpt>
      <trkpt lat="44.3232" lon="3.59467">
        <ele>554.3</ele>
        <time>2015-08-30T11:00:27Z</time>
      </trkpt>
      <trkpt lat="44.32322" lon="3.5949">
        <ele>555.3</ele>
        <time>2015-08-30T11:00:31Z</time>
      </trkpt>
      <trkpt lat="44.32319" lon="3.59494">
        <ele>555.8</ele>
        <time>2015-08-30T11:00:32Z</time>
      </trkpt>
      <trkpt lat="44.32313" lon="3.59497">
        <ele>556.3</ele>
        <time>2015-08-30T11:00:33Z</time>
      </trkpt>
      <trkpt lat="44.32304" lon="3.59498">
        <ele>555.3</ele>
        <time>2015-08-30T11:00:34Z</time>
      </trkpt>
      <trkpt lat="44.32297" lon="3.59501">
        <ele>553.4</ele>
        <time>2015-08-30T11:00:35Z</time>
      </trkpt>
      <trkpt lat="44.32279" lon="3.59513">
        <ele>551.5</ele>
        <time>2015-08-30T11:00:38Z</time>
      </trkpt>
      <trkpt lat="44.3227" lon="3.59521">
        <ele>552.9</ele>
        <time>2015-08-30T11:00:40Z</time>
      </trkpt>
      <trkpt lat="44.32268" lon="3.59525">
        <ele>552.4</ele>
        <time>2015-08-30T11:00:41Z</time>
      </trkpt>
      <trkpt lat="44.32052" lon="3.59705">
        <ele>554.3</ele>
        <time>2015-08-30T11:01:21Z</time>
      </trkpt>
      <trkpt lat="44.3194" lon="3.59761">
        <ele>551.9</ele>
        <time>2015-08-30T11:01:35Z</time>
      </trkpt>
      <trkpt lat="44.31893" lon="3.59778">
        <ele>551.5</ele>
        <time>2015-08-30T11:01:41Z</time>
      </trkpt>
      <trkpt lat="44.31887" lon="3.59783">
        <ele>551.9</ele>
        <time>2015-08-30T11:01:42Z</time>
      </trkpt>
      <trkpt lat="44.31883" lon="3.59789">
        <ele>551.9</ele>
        <time>2015-08-30T11:01:43Z</time>
      </trkpt>
      <trkpt lat="44.31881" lon="3.59798">
        <ele>551.5</ele>
        <time>2015-08-30T11:01:44Z</time>
      </trkpt>
      <trkpt lat="44.31881" lon="3.59812">
        <ele>551.5</ele>
        <time>2015-08-30T11:01:45Z</time>
      </trkpt>
      <trkpt lat="44.31879" lon="3.59826">
        <ele>551.9</ele>
        <time>2015-08-30T11:01:46Z</time>
      </trkpt>
      <trkpt lat="44.31834" lon="3.6">
        <ele>555.8</ele>
        <time>2015-08-30T11:02:04Z</time>
      </trkpt>
      <trkpt lat="44.31836" lon="3.60002">
        <ele>561.6</ele>
        <time>2015-08-30T11:02:08Z</time>
      </trkpt>
      <trkpt lat="44.31842" lon="3.60003">
        <ele>563</ele>
        <time>2015-08-30T11:02:09Z</time>
      </trkpt>
      <trkpt lat="44.32085" lon="3.60039">
        <ele>581.3</ele>
        <time>2015-08-30T11:02:23Z</time>
      </trkpt>
      <trkpt lat="44.32105" lon="3.60035">
        <ele>581.3</ele>
        <time>2015-08-30T11:02:24Z</time>
      </trkpt>
      <trkpt lat="44.32125" lon="3.60027">
        <ele>581.7</ele>
        <time>2015-08-30T11:02:25Z</time>
      </trkpt>
      <trkpt lat="44.32144" lon="3.60017">
        <ele>581.7</ele>
        <time>2015-08-30T11:02:26Z</time>
      </trkpt>
      <trkpt lat="44.3238" lon="3.59823">
        <ele>566.8</ele>
        <time>2015-08-30T11:02:39Z</time>
      </trkpt>
      <trkpt lat="44.32524" lon="3.59682">
        <ele>552.9</ele>
        <time>2015-08-30T11:02:50Z</time>
      </trkpt>
      <trkpt lat="44.32616" lon="3.59614">
        <ele>550</ele>
        <time>2015-08-30T11:02:58Z</time>
      </trkpt>
      <trkpt lat="44.32654" lon="3.59605">
        <ele>549.5</ele>
        <time>2015-08-30T11:03:02Z</time>
      </trkpt>
      <trkpt lat="44.32662" lon="3.59597">
        <ele>550</ele>
        <time>2015-08-30T11:03:03Z</time>
      </trkpt>
      <trkpt lat="44.32882" lon="3.59427">
        <ele>549.5</ele>
        <time>2015-08-30T11:03:19Z</time>
      </trkpt>
      <trkpt lat="44.33175" lon="3.59102">
        <ele>551.5</ele>
        <time>2015-08-30T11:03:37Z</time>
      </trkpt>
      <trkpt lat="44.33188" lon="3.59079">
        <ele>551.5</ele>
        <time>2015-08-30T11:03:38Z</time>
      </trkpt>
      <trkpt lat="44.33267" lon="3.58877">
        <ele>551.5</ele>
        <time>2015-08-30T11:03:45Z</time>
      </trkpt>
      <trkpt lat="44.33373" lon="3.58676">
        <ele>551.5</ele>
        <time>2015-08-30T11:03:53Z</time>
      </trkpt>
      <trkpt lat="44.33406" lon="3.58648">
        <ele>551.5</ele>
        <time>2015-08-30T11:03:55Z</time>
      </trkpt>
      <trkpt lat="44.33438" lon="3.58628">
        <ele>551.9</ele>
        <time>2015-08-30T11:03:57Z</time>
      </trkpt>
      <trkpt lat="44.33471" lon="3.58614">
        <ele>552.4</ele>
        <time>2015-08-30T11:03:59Z</time>
      </trkpt>
      <trkpt lat="44.33488" lon="3.5861">
        <ele>552.4</ele>
        <time>2015-08-30T11:04:00Z</time>
      </trkpt>
      <trkpt lat="44.33506" lon="3.58607">
        <ele>552.9</ele>
        <time>2015-08-30T11:04:01Z</time>
      </trkpt>
      <trkpt lat="44.33522" lon="3.58606">
        <ele>552.9</ele>
        <time>2015-08-30T11:04:02Z</time>
      </trkpt>
      <trkpt lat="44.33551" lon="3.58608">
        <ele>553.4</ele>
        <time>2015-08-30T11:04:04Z</time>
      </trkpt>
      <trkpt lat="44.33576" lon="3.58616">
        <ele>551.5</ele>
        <time>2015-08-30T11:04:06Z</time>
      </trkpt>
      <trkpt lat="44.33588" lon="3.58624">
        <ele>546.7</ele>
        <time>2015-08-30T11:04:07Z</time>
      </trkpt>
      <trkpt lat="44.336" lon="3.58629">
        <ele>545.2</ele>
        <time>2015-08-30T11:04:08Z</time>
      </trkpt>
      <trkpt lat="44.33611" lon="3.58631">
        <ele>545.2</ele>
        <time>2015-08-30T11:04:09Z</time>
      </trkpt>
      <trkpt lat="44.33625" lon="3.58631">
        <ele>544.7</ele>
        <time>2015-08-30T11:04:10Z</time>
      </trkpt>
      <trkpt lat="44.33734" lon="3.58649">
        <ele>544.7</ele>
        <time>2015-08-30T11:04:16Z</time>
      </trkpt>
      <trkpt lat="44.33878" lon="3.5863">
        <ele>545.2</ele>
        <time>2015-08-30T11:04:23Z</time>
      </trkpt>
      <trkpt lat="44.33986" lon="3.58585">
        <ele>546.7</ele>
        <time>2015-08-30T11:04:30Z</time>
      </trkpt>
      <trkpt lat="44.33998" lon="3.58581">
        <ele>546.7</ele>
        <time>2015-08-30T11:04:31Z</time>
      </trkpt>
      <trkpt lat="44.3401" lon="3.58577">
        <ele>547.1</ele>
        <time>2015-08-30T11:04:32Z</time>
      </trkpt>
      <trkpt lat="44.34266" lon="3.58386">
        <ele>546.2</ele>
        <time>2015-08-30T11:04:47Z</time>
      </trkpt>
      <trkpt lat="44.34573" lon="3.57979">
        <ele>546.2</ele>
        <time>2015-08-30T11:05:05Z</time>
      </trkpt>
      <trkpt lat="44.34626" lon="3.57868">
        <ele>550</ele>
        <time>2015-08-30T11:05:10Z</time>
      </trkpt>
      <trkpt lat="44.34663" lon="3.57725">
        <ele>558.2</ele>
        <time>2015-08-30T11:05:19Z</time>
      </trkpt>
      <trkpt lat="44.34686" lon="3.57691">
        <ele>560.1</ele>
        <time>2015-08-30T11:05:21Z</time>
      </trkpt>
      <trkpt lat="44.34706" lon="3.57685">
        <ele>560.1</ele>
        <time>2015-08-30T11:05:22Z</time>
      </trkpt>
      <trkpt lat="44.3509" lon="3.57728">
        <ele>559.6</ele>
        <time>2015-08-30T11:05:35Z</time>
      </trkpt>
      <trkpt lat="44.35443" lon="3.57719">
        <ele>560.1</ele>
        <time>2015-08-30T11:05:47Z</time>
      </trkpt>
      <trkpt lat="44.35563" lon="3.57689">
        <ele>563.5</ele>
        <time>2015-08-30T11:05:53Z</time>
      </trkpt>
      <trkpt lat="44.35593" lon="3.57672">
        <ele>563</ele>
        <time>2015-08-30T11:05:55Z</time>
      </trkpt>
      <trkpt lat="44.35622" lon="3.57644">
        <ele>564.4</ele>
        <time>2015-08-30T11:05:57Z</time>
      </trkpt>
      <trkpt lat="44.35634" lon="3.57626">
        <ele>564.4</ele>
        <time>2015-08-30T11:05:58Z</time>
      </trkpt>
      <trkpt lat="44.35644" lon="3.57605">
        <ele>564</ele>
        <time>2015-08-30T11:05:59Z</time>
      </trkpt>
      <trkpt lat="44.35653" lon="3.57579">
        <ele>564.4</ele>
        <time>2015-08-30T11:06:00Z</time>
      </trkpt>
      <trkpt lat="44.35755" lon="3.5707">
        <ele>577.4</ele>
        <time>2015-08-30T11:06:14Z</time>
      </trkpt>
      <trkpt lat="44.35755" lon="3.57037">
        <ele>577.9</ele>
        <time>2015-08-30T11:06:15Z</time>
      </trkpt>
      <trkpt lat="44.35783" lon="3.56892">
        <ele>581.7</ele>
        <time>2015-08-30T11:06:20Z</time>
      </trkpt>
      <trkpt lat="44.35797" lon="3.56872">
        <ele>581.7</ele>
        <time>2015-08-30T11:06:21Z</time>
      </trkpt>
      <trkpt lat="44.35816" lon="3.5686">
        <ele>582.7</ele>
        <time>2015-08-30T11:06:22Z</time>
      </trkpt>
      <trkpt lat="44.35836" lon="3.56855">
        <ele>583.2</ele>
        <time>2015-08-30T11:06:23Z</time>
      </trkpt>
      <trkpt lat="44.35992" lon="3.56877">
        <ele>589.4</ele>
        <time>2015-08-30T11:06:29Z</time>
      </trkpt>
      <trkpt lat="44.36114" lon="3.56842">
        <ele>591.8</ele>
        <time>2015-08-30T11:06:35Z</time>
      </trkpt>
      <trkpt lat="44.36215" lon="3.56746">
        <ele>584.6</ele>
        <time>2015-08-30T11:06:44Z</time>
      </trkpt>
      <trkpt lat="44.36274" lon="3.56637">
        <ele>561.1</ele>
        <time>2015-08-30T11:06:58Z</time>
      </trkpt>
      <trkpt lat="44.36279" lon="3.56627">
        <ele>560.6</ele>
        <time>2015-08-30T11:07:00Z</time>
      </trkpt>
      <trkpt lat="44.36291" lon="3.56547">
        <ele>558.2</ele>
        <time>2015-08-30T11:07:06Z</time>
      </trkpt>
      <trkpt lat="44.36275" lon="3.56294">
        <ele>548.1</ele>
        <time>2015-08-30T11:07:16Z</time>
      </trkpt>
      <trkpt lat="44.36194" lon="3.56024">
        <ele>544.7</ele>
        <time>2015-08-30T11:07:27Z</time>
      </trkpt>
      <trkpt lat="44.36192" lon="3.56003">
        <ele>544.7</ele>
        <time>2015-08-30T11:07:28Z</time>
      </trkpt>
      <trkpt lat="44.36197" lon="3.55976">
        <ele>543.8</ele>
        <time>2015-08-30T11:07:29Z</time>
      </trkpt>
      <trkpt lat="44.36213" lon="3.55924">
        <ele>544.7</ele>
        <time>2015-08-30T11:07:31Z</time>
      </trkpt>
      <trkpt lat="44.36225" lon="3.55902">
        <ele>543.8</ele>
        <time>2015-08-30T11:07:32Z</time>
      </trkpt>
      <trkpt lat="44.36254" lon="3.55864">
        <ele>542.3</ele>
        <time>2015-08-30T11:07:34Z</time>
      </trkpt>
      <trkpt lat="44.36269" lon="3.55846">
        <ele>541.8</ele>
        <time>2015-08-30T11:07:35Z</time>
      </trkpt>
      <trkpt lat="44.36378" lon="3.55753">
        <ele>539.4</ele>
        <time>2015-08-30T11:07:42Z</time>
      </trkpt>
      <trkpt lat="44.36445" lon="3.55718">
        <ele>539</ele>
        <time>2015-08-30T11:07:45Z</time>
      </trkpt>
      <trkpt lat="44.3647" lon="3.55711">
        <ele>538.5</ele>
        <time>2015-08-30T11:07:46Z</time>
      </trkpt>
      <trkpt lat="44.36519" lon="3.55707">
        <ele>538</ele>
        <time>2015-08-30T11:07:48Z</time>
      </trkpt>
      <trkpt lat="44.36562" lon="3.55707">
        <ele>537.5</ele>
        <time>2015-08-30T11:07:50Z</time>
      </trkpt>
      <trkpt lat="44.36924" lon="3.55666">
        <ele>521.2</ele>
        <time>2015-08-30T11:08:17Z</time>
      </trkpt>
      <trkpt lat="44.37187" lon="3.55593">
        <ele>516.4</ele>
        <time>2015-08-30T11:08:36Z</time>
      </trkpt>
      <trkpt lat="44.37331" lon="3.55519">
        <ele>522.1</ele>
        <time>2015-08-30T11:08:43Z</time>
      </trkpt>
      <trkpt lat="44.37471" lon="3.55398">
        <ele>525</ele>
        <time>2015-08-30T11:08:50Z</time>
      </trkpt>
      <trkpt lat="44.37597" lon="3.55233">
        <ele>526.5</ele>
        <time>2015-08-30T11:08:57Z</time>
      </trkpt>
      <trkpt lat="44.37691" lon="3.55058">
        <ele>524.5</ele>
        <time>2015-08-30T11:09:04Z</time>
      </trkpt>
      <trkpt lat="44.37733" lon="3.5495">
        <ele>522.6</ele>
        <time>2015-08-30T11:09:09Z</time>
      </trkpt>
      <trkpt lat="44.37737" lon="3.54905">
        <ele>521.7</ele>
        <time>2015-08-30T11:09:11Z</time>
      </trkpt>
      <trkpt lat="44.37722" lon="3.54582">
        <ele>522.6</ele>
        <time>2015-08-30T11:09:22Z</time>
      </trkpt>
      <trkpt lat="44.37706" lon="3.54501">
        <ele>522.6</ele>
        <time>2015-08-30T11:09:25Z</time>
      </trkpt>
      <trkpt lat="44.37695" lon="3.54476">
        <ele>521.7</ele>
        <time>2015-08-30T11:09:26Z</time>
      </trkpt>
      <trkpt lat="44.3768" lon="3.54455">
        <ele>520.2</ele>
        <time>2015-08-30T11:09:27Z</time>
      </trkpt>
      <trkpt lat="44.37656" lon="3.54442">
        <ele>521.7</ele>
        <time>2015-08-30T11:09:28Z</time>
      </trkpt>
      <trkpt lat="44.37635" lon="3.54422">
        <ele>522.1</ele>
        <time>2015-08-30T11:09:29Z</time>
      </trkpt>
      <trkpt lat="44.37615" lon="3.54399">
        <ele>522.1</ele>
        <time>2015-08-30T11:09:30Z</time>
      </trkpt>
      <trkpt lat="44.37423" lon="3.54149">
        <ele>519.7</ele>
        <time>2015-08-30T11:09:40Z</time>
      </trkpt>
      <trkpt lat="44.37284" lon="3.54027">
        <ele>520.7</ele>
        <time>2015-08-30T11:09:45Z</time>
      </trkpt>
      <trkpt lat="44.37083" lon="3.53904">
        <ele>529.8</ele>
        <time>2015-08-30T11:09:54Z</time>
      </trkpt>
      <trkpt lat="44.37075" lon="3.53892">
        <ele>531.3</ele>
        <time>2015-08-30T11:09:55Z</time>
      </trkpt>
      <trkpt lat="44.37063" lon="3.53844">
        <ele>531.8</ele>
        <time>2015-08-30T11:09:58Z</time>
      </trkpt>
      <trkpt lat="44.37059" lon="3.53831">
        <ele>532.2</ele>
        <time>2015-08-30T11:09:59Z</time>
      </trkpt>
      <trkpt lat="44.37049" lon="3.53809">
        <ele>532.2</ele>
        <time>2015-08-30T11:10:01Z</time>
      </trkpt>
      <trkpt lat="44.37027" lon="3.53772">
        <ele>532.2</ele>
        <time>2015-08-30T11:10:05Z</time>
      </trkpt>
      <trkpt lat="44.37024" lon="3.53762">
        <ele>531.8</ele>
        <time>2015-08-30T11:10:06Z</time>
      </trkpt>
      <trkpt lat="44.37022" lon="3.53752">
        <ele>531.8</ele>
        <time>2015-08-30T11:10:07Z</time>
      </trkpt>
      <trkpt lat="44.37024" lon="3.53741">
        <ele>532.2</ele>
        <time>2015-08-30T11:10:08Z</time>
      </trkpt>
      <trkpt lat="44.37029" lon="3.53733">
        <ele>531.8</ele>
        <time>2015-08-30T11:10:09Z</time>
      </trkpt>
      <trkpt lat="44.37032" lon="3.53724">
        <ele>531.3</ele>
        <time>2015-08-30T11:10:10Z</time>
      </trkpt>
      <trkpt lat="44.37044" lon="3.53702">
        <ele>532.7</ele>
        <time>2015-08-30T11:10:17Z</time>
      </trkpt>
      <trkpt lat="44.37047" lon="3.537">
        <ele>529.3</ele>
        <time>2015-08-30T11:10:38Z</time>
      </trkpt>
      <trkpt lat="44.37047" lon="3.53703">
        <ele>530.3</ele>
        <time>2015-08-30T11:11:07Z</time>
      </trkpt>
      <trkpt lat="44.37046" lon="3.53689">
        <ele>528.9</ele>
        <time>2015-08-30T11:21:51Z</time>
      </trkpt>
      <trkpt lat="44.37083" lon="3.535">
        <ele>525</ele>
        <time>2015-08-30T11:23:19Z</time>
      </trkpt>
      <trkpt lat="44.37197" lon="3.53336">
        <ele>524.5</ele>
        <time>2015-08-30T11:23:48Z</time>
      </trkpt>
      <trkpt lat="44.37235" lon="3.53244">
        <ele>522.1</ele>
        <time>2015-08-30T11:24:01Z</time>
      </trkpt>
      <trkpt lat="44.37339" lon="3.53131">
        <ele>519.3</ele>
        <time>2015-08-30T11:24:18Z</time>
      </trkpt>
      <trkpt lat="44.37458" lon="3.53051">
        <ele>517.8</ele>
        <time>2015-08-30T11:24:33Z</time>
      </trkpt>
      <trkpt lat="44.37511" lon="3.53007">
        <ele>518.3</ele>
        <time>2015-08-30T11:24:38Z</time>
      </trkpt>
      <trkpt lat="44.3752" lon="3.52994">
        <ele>518.3</ele>
        <time>2015-08-30T11:24:39Z</time>
      </trkpt>
      <trkpt lat="44.37528" lon="3.52979">
        <ele>518.3</ele>
        <time>2015-08-30T11:24:40Z</time>
      </trkpt>
      <trkpt lat="44.37535" lon="3.52962">
        <ele>517.8</ele>
        <time>2015-08-30T11:24:41Z</time>
      </trkpt>
      <trkpt lat="44.3754" lon="3.52944">
        <ele>517.3</ele>
        <time>2015-08-30T11:24:42Z</time>
      </trkpt>
      <trkpt lat="44.37597" lon="3.52648">
        <ele>516.4</ele>
        <time>2015-08-30T11:24:56Z</time>
      </trkpt>
      <trkpt lat="44.37619" lon="3.52589">
        <ele>516.4</ele>
        <time>2015-08-30T11:24:59Z</time>
      </trkpt>
      <trkpt lat="44.37666" lon="3.52501">
        <ele>516.4</ele>
        <time>2015-08-30T11:25:05Z</time>
      </trkpt>
      <trkpt lat="44.37672" lon="3.52485">
        <ele>516.4</ele>
        <time>2015-08-30T11:25:06Z</time>
      </trkpt>
      <trkpt lat="44.37675" lon="3.52467">
        <ele>516.4</ele>
        <time>2015-08-30T11:25:07Z</time>
      </trkpt>
      <trkpt lat="44.37689" lon="3.52288">
        <ele>514.9</ele>
        <time>2015-08-30T11:25:18Z</time>
      </trkpt>
      <trkpt lat="44.37684" lon="3.52148">
        <ele>514.4</ele>
        <time>2015-08-30T11:25:27Z</time>
      </trkpt>
      <trkpt lat="44.37679" lon="3.52135">
        <ele>514.9</ele>
        <time>2015-08-30T11:25:28Z</time>
      </trkpt>
      <trkpt lat="44.37671" lon="3.52124">
        <ele>515.4</ele>
        <time>2015-08-30T11:25:29Z</time>
      </trkpt>
      <trkpt lat="44.37662" lon="3.52116">
        <ele>515.4</ele>
        <time>2015-08-30T11:25:30Z</time>
      </trkpt>
      <trkpt lat="44.37649" lon="3.52114">
        <ele>515.4</ele>
        <time>2015-08-30T11:25:31Z</time>
      </trkpt>
      <trkpt lat="44.37623" lon="3.52119">
        <ele>515.4</ele>
        <time>2015-08-30T11:25:33Z</time>
      </trkpt>
      <trkpt lat="44.3761" lon="3.52119">
        <ele>515.4</ele>
        <time>2015-08-30T11:25:34Z</time>
      </trkpt>
      <trkpt lat="44.37596" lon="3.52115">
        <ele>515.9</ele>
        <time>2015-08-30T11:25:35Z</time>
      </trkpt>
      <trkpt lat="44.37583" lon="3.52107">
        <ele>516.4</ele>
        <time>2015-08-30T11:25:36Z</time>
      </trkpt>
      <trkpt lat="44.37569" lon="3.52097">
        <ele>516.9</ele>
        <time>2015-08-30T11:25:37Z</time>
      </trkpt>
      <trkpt lat="44.37543" lon="3.52069">
        <ele>516.9</ele>
        <time>2015-08-30T11:25:39Z</time>
      </trkpt>
      <trkpt lat="44.37449" lon="3.51999">
        <ele>514.4</ele>
        <time>2015-08-30T11:25:45Z</time>
      </trkpt>
      <trkpt lat="44.37431" lon="3.51994">
        <ele>513.5</ele>
        <time>2015-08-30T11:25:46Z</time>
      </trkpt>
      <trkpt lat="44.37244" lon="3.51909">
        <ele>511.6</ele>
        <time>2015-08-30T11:25:57Z</time>
      </trkpt>
      <trkpt lat="44.37108" lon="3.51914">
        <ele>512.5</ele>
        <time>2015-08-30T11:26:04Z</time>
      </trkpt>
      <trkpt lat="44.37066" lon="3.51934">
        <ele>512.5</ele>
        <time>2015-08-30T11:26:06Z</time>
      </trkpt>
      <trkpt lat="44.36576" lon="3.52191">
        <ele>511.6</ele>
        <time>2015-08-30T11:26:29Z</time>
      </trkpt>
      <trkpt lat="44.36292" lon="3.52245">
        <ele>510.6</ele>
        <time>2015-08-30T11:26:42Z</time>
      </trkpt>
      <trkpt lat="44.36272" lon="3.52243">
        <ele>510.1</ele>
        <time>2015-08-30T11:26:43Z</time>
      </trkpt>
      <trkpt lat="44.36253" lon="3.52238">
        <ele>510.1</ele>
        <time>2015-08-30T11:26:44Z</time>
      </trkpt>
      <trkpt lat="44.362" lon="3.52217">
        <ele>509.6</ele>
        <time>2015-08-30T11:26:47Z</time>
      </trkpt>
      <trkpt lat="44.36183" lon="3.52214">
        <ele>509.6</ele>
        <time>2015-08-30T11:26:48Z</time>
      </trkpt>
      <trkpt lat="44.36135" lon="3.52218">
        <ele>509.6</ele>
        <time>2015-08-30T11:26:51Z</time>
      </trkpt>
      <trkpt lat="44.3612" lon="3.52216">
        <ele>509.6</ele>
        <time>2015-08-30T11:26:52Z</time>
      </trkpt>
      <trkpt lat="44.36039" lon="3.52178">
        <ele>509.6</ele>
        <time>2015-08-30T11:26:57Z</time>
      </trkpt>
      <trkpt lat="44.35835" lon="3.52121">
        <ele>510.1</ele>
        <time>2015-08-30T11:27:07Z</time>
      </trkpt>
      <trkpt lat="44.35741" lon="3.52062">
        <ele>510.1</ele>
        <time>2015-08-30T11:27:12Z</time>
      </trkpt>
      <trkpt lat="44.35724" lon="3.52047">
        <ele>510.6</ele>
        <time>2015-08-30T11:27:13Z</time>
      </trkpt>
      <trkpt lat="44.35708" lon="3.52028">
        <ele>510.6</ele>
        <time>2015-08-30T11:27:14Z</time>
      </trkpt>
      <trkpt lat="44.35618" lon="3.51947">
        <ele>511.1</ele>
        <time>2015-08-30T11:27:20Z</time>
      </trkpt>
      <trkpt lat="44.35456" lon="3.51776">
        <ele>512.5</ele>
        <time>2015-08-30T11:27:36Z</time>
      </trkpt>
      <trkpt lat="44.35441" lon="3.51769">
        <ele>512.5</ele>
        <time>2015-08-30T11:27:37Z</time>
      </trkpt>
      <trkpt lat="44.35422" lon="3.51769">
        <ele>513.5</ele>
        <time>2015-08-30T11:27:38Z</time>
      </trkpt>
      <trkpt lat="44.35172" lon="3.51773">
        <ele>517.8</ele>
        <time>2015-08-30T11:27:51Z</time>
      </trkpt>
      <trkpt lat="44.35156" lon="3.51777">
        <ele>517.8</ele>
        <time>2015-08-30T11:27:52Z</time>
      </trkpt>
      <trkpt lat="44.35124" lon="3.51794">
        <ele>518.3</ele>
        <time>2015-08-30T11:27:54Z</time>
      </trkpt>
      <trkpt lat="44.35091" lon="3.51808">
        <ele>519.3</ele>
        <time>2015-08-30T11:27:56Z</time>
      </trkpt>
      <trkpt lat="44.35036" lon="3.5184">
        <ele>520.2</ele>
        <time>2015-08-30T11:28:00Z</time>
      </trkpt>
      <trkpt lat="44.35023" lon="3.51838">
        <ele>520.2</ele>
        <time>2015-08-30T11:28:01Z</time>
      </trkpt>
      <trkpt lat="44.35008" lon="3.5183">
        <ele>519.7</ele>
        <time>2015-08-30T11:28:02Z</time>
      </trkpt>
      <trkpt lat="44.34998" lon="3.5181">
        <ele>516.4</ele>
        <time>2015-08-30T11:28:03Z</time>
      </trkpt>
      <trkpt lat="44.34993" lon="3.51787">
        <ele>514.9</ele>
        <time>2015-08-30T11:28:04Z</time>
      </trkpt>
      <trkpt lat="44.34996" lon="3.51765">
        <ele>514.9</ele>
        <time>2015-08-30T11:28:05Z</time>
      </trkpt>
      <trkpt lat="44.3501" lon="3.51738">
        <ele>517.3</ele>
        <time>2015-08-30T11:28:06Z</time>
      </trkpt>
      <trkpt lat="44.35197" lon="3.51207">
        <ele>512.5</ele>
        <time>2015-08-30T11:28:26Z</time>
      </trkpt>
      <trkpt lat="44.352" lon="3.51186">
        <ele>513</ele>
        <time>2015-08-30T11:28:27Z</time>
      </trkpt>
      <trkpt lat="44.35199" lon="3.51167">
        <ele>513</ele>
        <time>2015-08-30T11:28:28Z</time>
      </trkpt>
      <trkpt lat="44.35182" lon="3.51128">
        <ele>513</ele>
        <time>2015-08-30T11:28:30Z</time>
      </trkpt>
      <trkpt lat="44.3517" lon="3.51108">
        <ele>513.5</ele>
        <time>2015-08-30T11:28:31Z</time>
      </trkpt>
      <trkpt lat="44.3514" lon="3.51072">
        <ele>514.9</ele>
        <time>2015-08-30T11:28:33Z</time>
      </trkpt>
      <trkpt lat="44.35124" lon="3.51056">
        <ele>515.4</ele>
        <time>2015-08-30T11:28:34Z</time>
      </trkpt>
      <trkpt lat="44.35108" lon="3.51043">
        <ele>515.9</ele>
        <time>2015-08-30T11:28:35Z</time>
      </trkpt>
      <trkpt lat="44.3509" lon="3.51034">
        <ele>515.9</ele>
        <time>2015-08-30T11:28:36Z</time>
      </trkpt>
      <trkpt lat="44.35071" lon="3.51027">
        <ele>515.9</ele>
        <time>2015-08-30T11:28:37Z</time>
      </trkpt>
      <trkpt lat="44.35049" lon="3.5103">
        <ele>515.9</ele>
        <time>2015-08-30T11:28:38Z</time>
      </trkpt>
      <trkpt lat="44.35027" lon="3.51034">
        <ele>516.4</ele>
        <time>2015-08-30T11:28:39Z</time>
      </trkpt>
      <trkpt lat="44.34987" lon="3.51049">
        <ele>516.4</ele>
        <time>2015-08-30T11:28:41Z</time>
      </trkpt>
      <trkpt lat="44.3497" lon="3.51057">
        <ele>516.4</ele>
        <time>2015-08-30T11:28:42Z</time>
      </trkpt>
      <trkpt lat="44.34953" lon="3.51066">
        <ele>516.9</ele>
        <time>2015-08-30T11:28:43Z</time>
      </trkpt>
      <trkpt lat="44.34939" lon="3.51077">
        <ele>516.9</ele>
        <time>2015-08-30T11:28:44Z</time>
      </trkpt>
      <trkpt lat="44.34926" lon="3.51093">
        <ele>516.9</ele>
        <time>2015-08-30T11:28:45Z</time>
      </trkpt>
      <trkpt lat="44.34821" lon="3.51194">
        <ele>521.2</ele>
        <time>2015-08-30T11:28:52Z</time>
      </trkpt>
      <trkpt lat="44.34806" lon="3.51205">
        <ele>521.7</ele>
        <time>2015-08-30T11:28:53Z</time>
      </trkpt>
      <trkpt lat="44.34789" lon="3.51215">
        <ele>522.1</ele>
        <time>2015-08-30T11:28:54Z</time>
      </trkpt>
      <trkpt lat="44.34666" lon="3.51256">
        <ele>520.7</ele>
        <time>2015-08-30T11:29:00Z</time>
      </trkpt>
      <trkpt lat="44.34644" lon="3.51255">
        <ele>520.2</ele>
        <time>2015-08-30T11:29:01Z</time>
      </trkpt>
      <trkpt lat="44.34555" lon="3.51232">
        <ele>516.9</ele>
        <time>2015-08-30T11:29:06Z</time>
      </trkpt>
      <trkpt lat="44.34542" lon="3.51217">
        <ele>516.9</ele>
        <time>2015-08-30T11:29:07Z</time>
      </trkpt>
      <trkpt lat="44.34505" lon="3.51155">
        <ele>515.4</ele>
        <time>2015-08-30T11:29:10Z</time>
      </trkpt>
      <trkpt lat="44.3449" lon="3.51135">
        <ele>514</ele>
        <time>2015-08-30T11:29:11Z</time>
      </trkpt>
      <trkpt lat="44.34323" lon="3.50818">
        <ele>503.4</ele>
        <time>2015-08-30T11:29:24Z</time>
      </trkpt>
      <trkpt lat="44.34127" lon="3.50128">
        <ele>497.1</ele>
        <time>2015-08-30T11:29:48Z</time>
      </trkpt>
      <trkpt lat="44.34071" lon="3.5002">
        <ele>497.6</ele>
        <time>2015-08-30T11:29:54Z</time>
      </trkpt>
      <trkpt lat="44.3388" lon="3.49749">
        <ele>504.4</ele>
        <time>2015-08-30T11:30:06Z</time>
      </trkpt>
      <trkpt lat="44.33741" lon="3.49639">
        <ele>512.5</ele>
        <time>2015-08-30T11:30:13Z</time>
      </trkpt>
      <trkpt lat="44.33596" lon="3.49592">
        <ele>520.2</ele>
        <time>2015-08-30T11:30:20Z</time>
      </trkpt>
      <trkpt lat="44.33539" lon="3.49561">
        <ele>522.6</ele>
        <time>2015-08-30T11:30:24Z</time>
      </trkpt>
      <trkpt lat="44.33536" lon="3.49538">
        <ele>520.2</ele>
        <time>2015-08-30T11:30:25Z</time>
      </trkpt>
      <trkpt lat="44.33536" lon="3.49514">
        <ele>519.7</ele>
        <time>2015-08-30T11:30:26Z</time>
      </trkpt>
      <trkpt lat="44.33542" lon="3.49487">
        <ele>521.2</ele>
        <time>2015-08-30T11:30:27Z</time>
      </trkpt>
      <trkpt lat="44.33549" lon="3.49464">
        <ele>521.7</ele>
        <time>2015-08-30T11:30:28Z</time>
      </trkpt>
      <trkpt lat="44.3356" lon="3.49443">
        <ele>521.7</ele>
        <time>2015-08-30T11:30:29Z</time>
      </trkpt>
      <trkpt lat="44.33604" lon="3.49383">
        <ele>519.7</ele>
        <time>2015-08-30T11:30:32Z</time>
      </trkpt>
      <trkpt lat="44.33733" lon="3.49233">
        <ele>519.3</ele>
        <time>2015-08-30T11:30:40Z</time>
      </trkpt>
      <trkpt lat="44.33745" lon="3.4921">
        <ele>518.8</ele>
        <time>2015-08-30T11:30:41Z</time>
      </trkpt>
      <trkpt lat="44.33764" lon="3.49158">
        <ele>518.3</ele>
        <time>2015-08-30T11:30:43Z</time>
      </trkpt>
      <trkpt lat="44.33772" lon="3.4913">
        <ele>517.8</ele>
        <time>2015-08-30T11:30:44Z</time>
      </trkpt>
      <trkpt lat="44.33777" lon="3.491">
        <ele>517.3</ele>
        <time>2015-08-30T11:30:45Z</time>
      </trkpt>
      <trkpt lat="44.33778" lon="3.49072">
        <ele>516.9</ele>
        <time>2015-08-30T11:30:46Z</time>
      </trkpt>
      <trkpt lat="44.33767" lon="3.48991">
        <ele>515.9</ele>
        <time>2015-08-30T11:30:49Z</time>
      </trkpt>
      <trkpt lat="44.33756" lon="3.48942">
        <ele>514.9</ele>
        <time>2015-08-30T11:30:51Z</time>
      </trkpt>
      <trkpt lat="44.33736" lon="3.48881">
        <ele>512.5</ele>
        <time>2015-08-30T11:30:54Z</time>
      </trkpt>
      <trkpt lat="44.33724" lon="3.48871">
        <ele>511.6</ele>
        <time>2015-08-30T11:30:55Z</time>
      </trkpt>
      <trkpt lat="44.33678" lon="3.48851">
        <ele>512</ele>
        <time>2015-08-30T11:30:58Z</time>
      </trkpt>
      <trkpt lat="44.33663" lon="3.48838">
        <ele>512</ele>
        <time>2015-08-30T11:30:59Z</time>
      </trkpt>
      <trkpt lat="44.33636" lon="3.48804">
        <ele>512.5</ele>
        <time>2015-08-30T11:31:01Z</time>
      </trkpt>
      <trkpt lat="44.33588" lon="3.48716">
        <ele>511.6</ele>
        <time>2015-08-30T11:31:06Z</time>
      </trkpt>
      <trkpt lat="44.33581" lon="3.48699">
        <ele>511.1</ele>
        <time>2015-08-30T11:31:07Z</time>
      </trkpt>
      <trkpt lat="44.33575" lon="3.4858">
        <ele>514</ele>
        <time>2015-08-30T11:31:14Z</time>
      </trkpt>
      <trkpt lat="44.33578" lon="3.48569">
        <ele>513.5</ele>
        <time>2015-08-30T11:31:15Z</time>
      </trkpt>
      <trkpt lat="44.33596" lon="3.48532">
        <ele>512.5</ele>
        <time>2015-08-30T11:31:18Z</time>
      </trkpt>
      <trkpt lat="44.33701" lon="3.48388">
        <ele>510.6</ele>
        <time>2015-08-30T11:31:32Z</time>
      </trkpt>
      <trkpt lat="44.33712" lon="3.48364">
        <ele>510.6</ele>
        <time>2015-08-30T11:31:34Z</time>
      </trkpt>
      <trkpt lat="44.33776" lon="3.48178">
        <ele>510.6</ele>
        <time>2015-08-30T11:31:48Z</time>
      </trkpt>
      <trkpt lat="44.33777" lon="3.48161">
        <ele>510.6</ele>
        <time>2015-08-30T11:31:49Z</time>
      </trkpt>
      <trkpt lat="44.33775" lon="3.48144">
        <ele>511.1</ele>
        <time>2015-08-30T11:31:50Z</time>
      </trkpt>
      <trkpt lat="44.33771" lon="3.48126">
        <ele>511.1</ele>
        <time>2015-08-30T11:31:51Z</time>
      </trkpt>
      <trkpt lat="44.33703" lon="3.47855">
        <ele>514.9</ele>
        <time>2015-08-30T11:32:03Z</time>
      </trkpt>
      <trkpt lat="44.33695" lon="3.47833">
        <ele>515.4</ele>
        <time>2015-08-30T11:32:04Z</time>
      </trkpt>
      <trkpt lat="44.33668" lon="3.47734">
        <ele>516.9</ele>
        <time>2015-08-30T11:32:09Z</time>
      </trkpt>
      <trkpt lat="44.33675" lon="3.47713">
        <ele>516.9</ele>
        <time>2015-08-30T11:32:10Z</time>
      </trkpt>
      <trkpt lat="44.33686" lon="3.47694">
        <ele>518.8</ele>
        <time>2015-08-30T11:32:11Z</time>
      </trkpt>
      <trkpt lat="44.337" lon="3.47678">
        <ele>519.7</ele>
        <time>2015-08-30T11:32:12Z</time>
      </trkpt>
      <trkpt lat="44.33735" lon="3.47649">
        <ele>521.2</ele>
        <time>2015-08-30T11:32:14Z</time>
      </trkpt>
      <trkpt lat="44.33751" lon="3.47633">
        <ele>521.7</ele>
        <time>2015-08-30T11:32:15Z</time>
      </trkpt>
      <trkpt lat="44.33816" lon="3.47555">
        <ele>525.5</ele>
        <time>2015-08-30T11:32:20Z</time>
      </trkpt>
      <trkpt lat="44.33854" lon="3.47531">
        <ele>526.9</ele>
        <time>2015-08-30T11:32:23Z</time>
      </trkpt>
      <trkpt lat="44.33862" lon="3.47516">
        <ele>527.4</ele>
        <time>2015-08-30T11:32:24Z</time>
      </trkpt>
      <trkpt lat="44.33868" lon="3.475">
        <ele>527.4</ele>
        <time>2015-08-30T11:32:25Z</time>
      </trkpt>
      <trkpt lat="44.33876" lon="3.4746">
        <ele>529.3</ele>
        <time>2015-08-30T11:32:27Z</time>
      </trkpt>
      <trkpt lat="44.33882" lon="3.4744">
        <ele>529.8</ele>
        <time>2015-08-30T11:32:28Z</time>
      </trkpt>
      <trkpt lat="44.33891" lon="3.47423">
        <ele>530.8</ele>
        <time>2015-08-30T11:32:29Z</time>
      </trkpt>
      <trkpt lat="44.33901" lon="3.47408">
        <ele>531.3</ele>
        <time>2015-08-30T11:32:30Z</time>
      </trkpt>
      <trkpt lat="44.3394" lon="3.47381">
        <ele>532.2</ele>
        <time>2015-08-30T11:32:33Z</time>
      </trkpt>
      <trkpt lat="44.33963" lon="3.47324">
        <ele>533.2</ele>
        <time>2015-08-30T11:32:36Z</time>
      </trkpt>
      <trkpt lat="44.33974" lon="3.47307">
        <ele>534.2</ele>
        <time>2015-08-30T11:32:37Z</time>
      </trkpt>
      <trkpt lat="44.34001" lon="3.47278">
        <ele>535.1</ele>
        <time>2015-08-30T11:32:39Z</time>
      </trkpt>
      <trkpt lat="44.34016" lon="3.47264">
        <ele>535.6</ele>
        <time>2015-08-30T11:32:40Z</time>
      </trkpt>
      <trkpt lat="44.34048" lon="3.47244">
        <ele>537.5</ele>
        <time>2015-08-30T11:32:42Z</time>
      </trkpt>
      <trkpt lat="44.34093" lon="3.47222">
        <ele>540.4</ele>
        <time>2015-08-30T11:32:45Z</time>
      </trkpt>
      <trkpt lat="44.34106" lon="3.47211">
        <ele>540.9</ele>
        <time>2015-08-30T11:32:46Z</time>
      </trkpt>
      <trkpt lat="44.34118" lon="3.47197">
        <ele>540.9</ele>
        <time>2015-08-30T11:32:47Z</time>
      </trkpt>
      <trkpt lat="44.34127" lon="3.47179">
        <ele>541.4</ele>
        <time>2015-08-30T11:32:48Z</time>
      </trkpt>
      <trkpt lat="44.34129" lon="3.47159">
        <ele>541.8</ele>
        <time>2015-08-30T11:32:49Z</time>
      </trkpt>
      <trkpt lat="44.34129" lon="3.47138">
        <ele>542.3</ele>
        <time>2015-08-30T11:32:50Z</time>
      </trkpt>
      <trkpt lat="44.341" lon="3.46701">
        <ele>554.8</ele>
        <time>2015-08-30T11:33:07Z</time>
      </trkpt>
      <trkpt lat="44.34102" lon="3.46686">
        <ele>555.8</ele>
        <time>2015-08-30T11:33:08Z</time>
      </trkpt>
      <trkpt lat="44.34106" lon="3.46672">
        <ele>557.2</ele>
        <time>2015-08-30T11:33:09Z</time>
      </trkpt>
      <trkpt lat="44.34114" lon="3.46661">
        <ele>559.1</ele>
        <time>2015-08-30T11:33:10Z</time>
      </trkpt>
      <trkpt lat="44.34126" lon="3.46654">
        <ele>560.6</ele>
        <time>2015-08-30T11:33:11Z</time>
      </trkpt>
      <trkpt lat="44.34174" lon="3.46639">
        <ele>564</ele>
        <time>2015-08-30T11:33:14Z</time>
      </trkpt>
      <trkpt lat="44.34254" lon="3.46629">
        <ele>567.3</ele>
        <time>2015-08-30T11:33:19Z</time>
      </trkpt>
      <trkpt lat="44.34281" lon="3.46612">
        <ele>568.8</ele>
        <time>2015-08-30T11:33:21Z</time>
      </trkpt>
      <trkpt lat="44.34294" lon="3.46608">
        <ele>569.7</ele>
        <time>2015-08-30T11:33:22Z</time>
      </trkpt>
      <trkpt lat="44.3434" lon="3.46619">
        <ele>571.6</ele>
        <time>2015-08-30T11:33:25Z</time>
      </trkpt>
      <trkpt lat="44.34378" lon="3.46619">
        <ele>573.6</ele>
        <time>2015-08-30T11:33:27Z</time>
      </trkpt>
      <trkpt lat="44.34433" lon="3.4661">
        <ele>572.6</ele>
        <time>2015-08-30T11:33:30Z</time>
      </trkpt>
      <trkpt lat="44.3447" lon="3.46583">
        <ele>572.6</ele>
        <time>2015-08-30T11:33:32Z</time>
      </trkpt>
      <trkpt lat="44.34561" lon="3.46532">
        <ele>568.8</ele>
        <time>2015-08-30T11:33:37Z</time>
      </trkpt>
      <trkpt lat="44.34577" lon="3.46531">
        <ele>568.3</ele>
        <time>2015-08-30T11:33:38Z</time>
      </trkpt>
      <trkpt lat="44.34606" lon="3.4652">
        <ele>567.3</ele>
        <time>2015-08-30T11:33:40Z</time>
      </trkpt>
      <trkpt lat="44.34637" lon="3.46484">
        <ele>565.4</ele>
        <time>2015-08-30T11:33:43Z</time>
      </trkpt>
      <trkpt lat="44.34646" lon="3.4648">
        <ele>564.4</ele>
        <time>2015-08-30T11:33:44Z</time>
      </trkpt>
      <trkpt lat="44.34657" lon="3.46478">
        <ele>564.4</ele>
        <time>2015-08-30T11:33:45Z</time>
      </trkpt>
      <trkpt lat="44.34668" lon="3.46481">
        <ele>564.9</ele>
        <time>2015-08-30T11:33:46Z</time>
      </trkpt>
      <trkpt lat="44.3468" lon="3.46489">
        <ele>564.9</ele>
        <time>2015-08-30T11:33:47Z</time>
      </trkpt>
      <trkpt lat="44.34701" lon="3.46513">
        <ele>563</ele>
        <time>2015-08-30T11:33:49Z</time>
      </trkpt>
      <trkpt lat="44.34712" lon="3.4652">
        <ele>562.5</ele>
        <time>2015-08-30T11:33:50Z</time>
      </trkpt>
      <trkpt lat="44.34724" lon="3.46524">
        <ele>562</ele>
        <time>2015-08-30T11:33:51Z</time>
      </trkpt>
      <trkpt lat="44.34735" lon="3.46523">
        <ele>561.1</ele>
        <time>2015-08-30T11:33:52Z</time>
      </trkpt>
      <trkpt lat="44.34744" lon="3.46519">
        <ele>560.6</ele>
        <time>2015-08-30T11:33:53Z</time>
      </trkpt>
      <trkpt lat="44.3475" lon="3.46509">
        <ele>559.1</ele>
        <time>2015-08-30T11:33:54Z</time>
      </trkpt>
      <trkpt lat="44.3475" lon="3.46494">
        <ele>558.7</ele>
        <time>2015-08-30T11:33:55Z</time>
      </trkpt>
      <trkpt lat="44.34744" lon="3.46411">
        <ele>559.6</ele>
        <time>2015-08-30T11:33:59Z</time>
      </trkpt>
      <trkpt lat="44.34749" lon="3.46358">
        <ele>557.7</ele>
        <time>2015-08-30T11:34:02Z</time>
      </trkpt>
      <trkpt lat="44.34802" lon="3.46304">
        <ele>554.8</ele>
        <time>2015-08-30T11:34:06Z</time>
      </trkpt>
      <trkpt lat="44.34868" lon="3.46214">
        <ele>550.5</ele>
        <time>2015-08-30T11:34:13Z</time>
      </trkpt>
      <trkpt lat="44.3488" lon="3.46189">
        <ele>549.5</ele>
        <time>2015-08-30T11:34:15Z</time>
      </trkpt>
      <trkpt lat="44.34887" lon="3.46177">
        <ele>549.1</ele>
        <time>2015-08-30T11:34:16Z</time>
      </trkpt>
      <trkpt lat="44.34903" lon="3.46157">
        <ele>548.1</ele>
        <time>2015-08-30T11:34:18Z</time>
      </trkpt>
      <trkpt lat="44.34912" lon="3.46148">
        <ele>548.1</ele>
        <time>2015-08-30T11:34:19Z</time>
      </trkpt>
      <trkpt lat="44.34924" lon="3.4614">
        <ele>547.6</ele>
        <time>2015-08-30T11:34:20Z</time>
      </trkpt>
      <trkpt lat="44.3501" lon="3.46056">
        <ele>544.7</ele>
        <time>2015-08-30T11:34:29Z</time>
      </trkpt>
      <trkpt lat="44.35037" lon="3.46007">
        <ele>542.8</ele>
        <time>2015-08-30T11:34:34Z</time>
      </trkpt>
      <trkpt lat="44.35046" lon="3.45971">
        <ele>541.8</ele>
        <time>2015-08-30T11:34:37Z</time>
      </trkpt>
      <trkpt lat="44.3505" lon="3.45962">
        <ele>541.4</ele>
        <time>2015-08-30T11:34:38Z</time>
      </trkpt>
      <trkpt lat="44.35056" lon="3.45956">
        <ele>540.9</ele>
        <time>2015-08-30T11:34:39Z</time>
      </trkpt>
      <trkpt lat="44.35063" lon="3.45953">
        <ele>540.4</ele>
        <time>2015-08-30T11:34:40Z</time>
      </trkpt>
      <trkpt lat="44.35093" lon="3.4596">
        <ele>538</ele>
        <time>2015-08-30T11:34:43Z</time>
      </trkpt>
      <trkpt lat="44.35166" lon="3.45965">
        <ele>538.5</ele>
        <time>2015-08-30T11:34:51Z</time>
      </trkpt>
      <trkpt lat="44.35175" lon="3.45963">
        <ele>539</ele>
        <time>2015-08-30T11:34:52Z</time>
      </trkpt>
      <trkpt lat="44.35236" lon="3.45932">
        <ele>543.3</ele>
        <time>2015-08-30T11:35:00Z</time>
      </trkpt>
      <trkpt lat="44.35244" lon="3.45924">
        <ele>543.8</ele>
        <time>2015-08-30T11:35:01Z</time>
      </trkpt>
      <trkpt lat="44.35278" lon="3.45879">
        <ele>543.3</ele>
        <time>2015-08-30T11:35:06Z</time>
      </trkpt>
      <trkpt lat="44.35288" lon="3.45853">
        <ele>543.8</ele>
        <time>2015-08-30T11:35:08Z</time>
      </trkpt>
      <trkpt lat="44.35444" lon="3.45229">
        <ele>544.2</ele>
        <time>2015-08-30T11:35:41Z</time>
      </trkpt>
      <trkpt lat="44.35467" lon="3.45087">
        <ele>543.8</ele>
        <time>2015-08-30T11:35:46Z</time>
      </trkpt>
      <trkpt lat="44.35466" lon="3.45034">
        <ele>543.3</ele>
        <time>2015-08-30T11:35:48Z</time>
      </trkpt>
      <trkpt lat="44.35456" lon="3.44986">
        <ele>542.8</ele>
        <time>2015-08-30T11:35:50Z</time>
      </trkpt>
      <trkpt lat="44.35416" lon="3.44885">
        <ele>542.3</ele>
        <time>2015-08-30T11:35:55Z</time>
      </trkpt>
      <trkpt lat="44.35419" lon="3.44868">
        <ele>541.4</ele>
        <time>2015-08-30T11:35:56Z</time>
      </trkpt>
      <trkpt lat="44.35437" lon="3.44831">
        <ele>541.4</ele>
        <time>2015-08-30T11:35:58Z</time>
      </trkpt>
      <trkpt lat="44.35451" lon="3.44814">
        <ele>542.3</ele>
        <time>2015-08-30T11:35:59Z</time>
      </trkpt>
      <trkpt lat="44.35472" lon="3.44799">
        <ele>542.8</ele>
        <time>2015-08-30T11:36:00Z</time>
      </trkpt>
      <trkpt lat="44.35496" lon="3.44786">
        <ele>542.8</ele>
        <time>2015-08-30T11:36:01Z</time>
      </trkpt>
      <trkpt lat="44.35547" lon="3.44768">
        <ele>541.8</ele>
        <time>2015-08-30T11:36:03Z</time>
      </trkpt>
      <trkpt lat="44.35596" lon="3.44755">
        <ele>539.9</ele>
        <time>2015-08-30T11:36:05Z</time>
      </trkpt>
      <trkpt lat="44.35725" lon="3.44745">
        <ele>536.1</ele>
        <time>2015-08-30T11:36:11Z</time>
      </trkpt>
      <trkpt lat="44.35761" lon="3.44736">
        <ele>534.6</ele>
        <time>2015-08-30T11:36:13Z</time>
      </trkpt>
      <trkpt lat="44.35892" lon="3.44678">
        <ele>528.4</ele>
        <time>2015-08-30T11:36:20Z</time>
      </trkpt>
      <trkpt lat="44.35904" lon="3.44661">
        <ele>526.9</ele>
        <time>2015-08-30T11:36:21Z</time>
      </trkpt>
      <trkpt lat="44.35959" lon="3.44565">
        <ele>523.1</ele>
        <time>2015-08-30T11:36:26Z</time>
      </trkpt>
      <trkpt lat="44.35969" lon="3.44544">
        <ele>521.7</ele>
        <time>2015-08-30T11:36:27Z</time>
      </trkpt>
      <trkpt lat="44.35984" lon="3.44494">
        <ele>521.2</ele>
        <time>2015-08-30T11:36:29Z</time>
      </trkpt>
      <trkpt lat="44.35995" lon="3.44438">
        <ele>520.2</ele>
        <time>2015-08-30T11:36:31Z</time>
      </trkpt>
      <trkpt lat="44.35998" lon="3.44354">
        <ele>519.7</ele>
        <time>2015-08-30T11:36:34Z</time>
      </trkpt>
      <trkpt lat="44.35996" lon="3.44327">
        <ele>519.7</ele>
        <time>2015-08-30T11:36:35Z</time>
      </trkpt>
      <trkpt lat="44.35992" lon="3.443">
        <ele>519.7</ele>
        <time>2015-08-30T11:36:36Z</time>
      </trkpt>
      <trkpt lat="44.35984" lon="3.44274">
        <ele>520.2</ele>
        <time>2015-08-30T11:36:37Z</time>
      </trkpt>
      <trkpt lat="44.3594" lon="3.4419">
        <ele>520.2</ele>
        <time>2015-08-30T11:36:40Z</time>
      </trkpt>
      <trkpt lat="44.35844" lon="3.44032">
        <ele>511.6</ele>
        <time>2015-08-30T11:36:46Z</time>
      </trkpt>
      <trkpt lat="44.35796" lon="3.43914">
        <ele>505.3</ele>
        <time>2015-08-30T11:36:50Z</time>
      </trkpt>
      <trkpt lat="44.35783" lon="3.4385">
        <ele>502.4</ele>
        <time>2015-08-30T11:36:52Z</time>
      </trkpt>
      <trkpt lat="44.35776" lon="3.43788">
        <ele>500.5</ele>
        <time>2015-08-30T11:36:54Z</time>
      </trkpt>
      <trkpt lat="44.35777" lon="3.4376">
        <ele>500</ele>
        <time>2015-08-30T11:36:55Z</time>
      </trkpt>
      <trkpt lat="44.35779" lon="3.43733">
        <ele>499.5</ele>
        <time>2015-08-30T11:36:56Z</time>
      </trkpt>
      <trkpt lat="44.35797" lon="3.43683">
        <ele>498.6</ele>
        <time>2015-08-30T11:36:58Z</time>
      </trkpt>
      <trkpt lat="44.3581" lon="3.4366">
        <ele>497.6</ele>
        <time>2015-08-30T11:36:59Z</time>
      </trkpt>
      <trkpt lat="44.35843" lon="3.43619">
        <ele>496.2</ele>
        <time>2015-08-30T11:37:01Z</time>
      </trkpt>
      <trkpt lat="44.35862" lon="3.43601">
        <ele>496.2</ele>
        <time>2015-08-30T11:37:02Z</time>
      </trkpt>
      <trkpt lat="44.35882" lon="3.43586">
        <ele>495.7</ele>
        <time>2015-08-30T11:37:03Z</time>
      </trkpt>
      <trkpt lat="44.35904" lon="3.43575">
        <ele>495.2</ele>
        <time>2015-08-30T11:37:04Z</time>
      </trkpt>
      <trkpt lat="44.35973" lon="3.43555">
        <ele>492.3</ele>
        <time>2015-08-30T11:37:07Z</time>
      </trkpt>
      <trkpt lat="44.36366" lon="3.43526">
        <ele>484.6</ele>
        <time>2015-08-30T11:37:23Z</time>
      </trkpt>
      <trkpt lat="44.3654" lon="3.43458">
        <ele>483.7</ele>
        <time>2015-08-30T11:37:31Z</time>
      </trkpt>
      <trkpt lat="44.36579" lon="3.43423">
        <ele>484.2</ele>
        <time>2015-08-30T11:37:33Z</time>
      </trkpt>
      <trkpt lat="44.36596" lon="3.43402">
        <ele>483.7</ele>
        <time>2015-08-30T11:37:34Z</time>
      </trkpt>
      <trkpt lat="44.36624" lon="3.43358">
        <ele>483.7</ele>
        <time>2015-08-30T11:37:36Z</time>
      </trkpt>
      <trkpt lat="44.36688" lon="3.43193">
        <ele>485.1</ele>
        <time>2015-08-30T11:37:43Z</time>
      </trkpt>
      <trkpt lat="44.36689" lon="3.43099">
        <ele>485.1</ele>
        <time>2015-08-30T11:37:46Z</time>
      </trkpt>
      <trkpt lat="44.36682" lon="3.43034">
        <ele>485.1</ele>
        <time>2015-08-30T11:37:48Z</time>
      </trkpt>
      <trkpt lat="44.36656" lon="3.42934">
        <ele>484.6</ele>
        <time>2015-08-30T11:37:51Z</time>
      </trkpt>
      <trkpt lat="44.36559" lon="3.4272">
        <ele>483.2</ele>
        <time>2015-08-30T11:37:59Z</time>
      </trkpt>
      <trkpt lat="44.36546" lon="3.42663">
        <ele>480.8</ele>
        <time>2015-08-30T11:38:01Z</time>
      </trkpt>
      <trkpt lat="44.36536" lon="3.42368">
        <ele>479.4</ele>
        <time>2015-08-30T11:38:10Z</time>
      </trkpt>
      <trkpt lat="44.36599" lon="3.42138">
        <ele>482.2</ele>
        <time>2015-08-30T11:38:18Z</time>
      </trkpt>
      <trkpt lat="44.36629" lon="3.41818">
        <ele>482.7</ele>
        <time>2015-08-30T11:38:31Z</time>
      </trkpt>
      <trkpt lat="44.36622" lon="3.416">
        <ele>481.3</ele>
        <time>2015-08-30T11:38:44Z</time>
      </trkpt>
      <trkpt lat="44.36609" lon="3.41546">
        <ele>482.2</ele>
        <time>2015-08-30T11:38:47Z</time>
      </trkpt>
      <trkpt lat="44.36604" lon="3.41478">
        <ele>481.8</ele>
        <time>2015-08-30T11:38:51Z</time>
      </trkpt>
      <trkpt lat="44.36617" lon="3.41389">
        <ele>481.8</ele>
        <time>2015-08-30T11:38:57Z</time>
      </trkpt>
      <trkpt lat="44.36616" lon="3.4136">
        <ele>481.8</ele>
        <time>2015-08-30T11:38:59Z</time>
      </trkpt>
      <trkpt lat="44.36611" lon="3.41321">
        <ele>481.3</ele>
        <time>2015-08-30T11:39:02Z</time>
      </trkpt>
      <trkpt lat="44.36591" lon="3.41234">
        <ele>479.4</ele>
        <time>2015-08-30T11:39:10Z</time>
      </trkpt>
      <trkpt lat="44.36585" lon="3.41222">
        <ele>478.4</ele>
        <time>2015-08-30T11:39:12Z</time>
      </trkpt>
      <trkpt lat="44.3658" lon="3.4122">
        <ele>477.4</ele>
        <time>2015-08-30T11:39:13Z</time>
      </trkpt>
      <trkpt lat="44.36571" lon="3.41221">
        <ele>477</ele>
        <time>2015-08-30T11:39:14Z</time>
      </trkpt>
      <trkpt lat="44.36563" lon="3.41219">
        <ele>476.5</ele>
        <time>2015-08-30T11:39:15Z</time>
      </trkpt>
      <trkpt lat="44.36556" lon="3.41217">
        <ele>475.5</ele>
        <time>2015-08-30T11:39:16Z</time>
      </trkpt>
      <trkpt lat="44.3655" lon="3.41209">
        <ele>474.6</ele>
        <time>2015-08-30T11:39:17Z</time>
      </trkpt>
      <trkpt lat="44.36546" lon="3.412">
        <ele>474.1</ele>
        <time>2015-08-30T11:39:18Z</time>
      </trkpt>
      <trkpt lat="44.36544" lon="3.41189">
        <ele>473.1</ele>
        <time>2015-08-30T11:39:19Z</time>
      </trkpt>
      <trkpt lat="44.36542" lon="3.41168">
        <ele>472.1</ele>
        <time>2015-08-30T11:39:21Z</time>
      </trkpt>
      <trkpt lat="44.36542" lon="3.41125">
        <ele>471.7</ele>
        <time>2015-08-30T11:39:25Z</time>
      </trkpt>
      <trkpt lat="44.3656" lon="3.41048">
        <ele>473.6</ele>
        <time>2015-08-30T11:39:33Z</time>
      </trkpt>
      <trkpt lat="44.36561" lon="3.41038">
        <ele>473.6</ele>
        <time>2015-08-30T11:39:34Z</time>
      </trkpt>
      <trkpt lat="44.36559" lon="3.41027">
        <ele>474.1</ele>
        <time>2015-08-30T11:39:35Z</time>
      </trkpt>
      <trkpt lat="44.36541" lon="3.40973">
        <ele>475.5</ele>
        <time>2015-08-30T11:39:39Z</time>
      </trkpt>
      <trkpt lat="44.36534" lon="3.4096">
        <ele>475.5</ele>
        <time>2015-08-30T11:39:40Z</time>
      </trkpt>
      <trkpt lat="44.36525" lon="3.40947">
        <ele>475.5</ele>
        <time>2015-08-30T11:39:41Z</time>
      </trkpt>
      <trkpt lat="44.36514" lon="3.40936">
        <ele>475</ele>
        <time>2015-08-30T11:39:42Z</time>
      </trkpt>
      <trkpt lat="44.36488" lon="3.40916">
        <ele>475</ele>
        <time>2015-08-30T11:39:44Z</time>
      </trkpt>
      <trkpt lat="44.36471" lon="3.40914">
        <ele>475</ele>
        <time>2015-08-30T11:39:45Z</time>
      </trkpt>
      <trkpt lat="44.36435" lon="3.40917">
        <ele>476</ele>
        <time>2015-08-30T11:39:47Z</time>
      </trkpt>
      <trkpt lat="44.3642" lon="3.4092">
        <ele>476</ele>
        <time>2015-08-30T11:39:48Z</time>
      </trkpt>
      <trkpt lat="44.36406" lon="3.40925">
        <ele>476</ele>
        <time>2015-08-30T11:39:49Z</time>
      </trkpt>
      <trkpt lat="44.3638" lon="3.40941">
        <ele>476.5</ele>
        <time>2015-08-30T11:39:51Z</time>
      </trkpt>
      <trkpt lat="44.36314" lon="3.41023">
        <ele>478.9</ele>
        <time>2015-08-30T11:39:58Z</time>
      </trkpt>
      <trkpt lat="44.36297" lon="3.41068">
        <ele>479.4</ele>
        <time>2015-08-30T11:40:04Z</time>
      </trkpt>
      <trkpt lat="44.36307" lon="3.41074">
        <ele>489</ele>
        <time>2015-08-30T11:40:14Z</time>
      </trkpt>
      <trkpt lat="44.3631" lon="3.41115">
        <ele>490.9</ele>
        <time>2015-08-30T11:40:19Z</time>
      </trkpt>
      <trkpt lat="44.36308" lon="3.41132">
        <ele>491.4</ele>
        <time>2015-08-30T11:40:21Z</time>
      </trkpt>
      <trkpt lat="44.36305" lon="3.41147">
        <ele>491.4</ele>
        <time>2015-08-30T11:40:23Z</time>
      </trkpt>
      <trkpt lat="44.363" lon="3.41154">
        <ele>490.4</ele>
        <time>2015-08-30T11:40:24Z</time>
      </trkpt>
      <trkpt lat="44.36294" lon="3.41161">
        <ele>489.9</ele>
        <time>2015-08-30T11:40:25Z</time>
      </trkpt>
      <trkpt lat="44.36287" lon="3.41168">
        <ele>489.5</ele>
        <time>2015-08-30T11:40:26Z</time>
      </trkpt>
      <trkpt lat="44.36279" lon="3.41173">
        <ele>489</ele>
        <time>2015-08-30T11:40:27Z</time>
      </trkpt>
      <trkpt lat="44.36271" lon="3.41176">
        <ele>489</ele>
        <time>2015-08-30T11:40:28Z</time>
      </trkpt>
      <trkpt lat="44.36262" lon="3.41177">
        <ele>489</ele>
        <time>2015-08-30T11:40:29Z</time>
      </trkpt>
      <trkpt lat="44.36252" lon="3.41176">
        <ele>489.5</ele>
        <time>2015-08-30T11:40:30Z</time>
      </trkpt>
      <trkpt lat="44.36242" lon="3.41173">
        <ele>489.9</ele>
        <time>2015-08-30T11:40:31Z</time>
      </trkpt>
      <trkpt lat="44.36234" lon="3.41167">
        <ele>489</ele>
        <time>2015-08-30T11:40:32Z</time>
      </trkpt>
      <trkpt lat="44.3622" lon="3.41152">
        <ele>488</ele>
        <time>2015-08-30T11:40:34Z</time>
      </trkpt>
      <trkpt lat="44.36208" lon="3.41135">
        <ele>487.5</ele>
        <time>2015-08-30T11:40:36Z</time>
      </trkpt>
      <trkpt lat="44.3597" lon="3.40614">
        <ele>477</ele>
        <time>2015-08-30T11:41:06Z</time>
      </trkpt>
      <trkpt lat="44.35957" lon="3.40596">
        <ele>476.5</ele>
        <time>2015-08-30T11:41:07Z</time>
      </trkpt>
      <trkpt lat="44.35855" lon="3.40476">
        <ele>475</ele>
        <time>2015-08-30T11:41:14Z</time>
      </trkpt>
      <trkpt lat="44.35821" lon="3.40452">
        <ele>474.6</ele>
        <time>2015-08-30T11:41:16Z</time>
      </trkpt>
      <trkpt lat="44.35803" lon="3.40445">
        <ele>474.1</ele>
        <time>2015-08-30T11:41:17Z</time>
      </trkpt>
      <trkpt lat="44.35736" lon="3.40446">
        <ele>474.6</ele>
        <time>2015-08-30T11:41:20Z</time>
      </trkpt>
      <trkpt lat="44.35713" lon="3.40443">
        <ele>474.1</ele>
        <time>2015-08-30T11:41:21Z</time>
      </trkpt>
      <trkpt lat="44.35532" lon="3.4039">
        <ele>477</ele>
        <time>2015-08-30T11:41:29Z</time>
      </trkpt>
      <trkpt lat="44.35421" lon="3.40297">
        <ele>477.9</ele>
        <time>2015-08-30T11:41:35Z</time>
      </trkpt>
      <trkpt lat="44.35284" lon="3.39997">
        <ele>481.3</ele>
        <time>2015-08-30T11:41:47Z</time>
      </trkpt>
      <trkpt lat="44.3519" lon="3.39697">
        <ele>484.6</ele>
        <time>2015-08-30T11:41:58Z</time>
      </trkpt>
      <trkpt lat="44.35174" lon="3.39676">
        <ele>484.2</ele>
        <time>2015-08-30T11:41:59Z</time>
      </trkpt>
      <trkpt lat="44.35121" lon="3.39623">
        <ele>485.1</ele>
        <time>2015-08-30T11:42:02Z</time>
      </trkpt>
      <trkpt lat="44.3505" lon="3.39565">
        <ele>487.1</ele>
        <time>2015-08-30T11:42:06Z</time>
      </trkpt>
      <trkpt lat="44.35031" lon="3.39556">
        <ele>487.1</ele>
        <time>2015-08-30T11:42:07Z</time>
      </trkpt>
      <trkpt lat="44.35012" lon="3.39552">
        <ele>487.5</ele>
        <time>2015-08-30T11:42:08Z</time>
      </trkpt>
      <trkpt lat="44.34994" lon="3.39556">
        <ele>488.5</ele>
        <time>2015-08-30T11:42:09Z</time>
      </trkpt>
      <trkpt lat="44.34964" lon="3.39568">
        <ele>489</ele>
        <time>2015-08-30T11:42:11Z</time>
      </trkpt>
      <trkpt lat="44.34915" lon="3.39562">
        <ele>489.9</ele>
        <time>2015-08-30T11:42:14Z</time>
      </trkpt>
      <trkpt lat="44.34896" lon="3.39558">
        <ele>490.4</ele>
        <time>2015-08-30T11:42:15Z</time>
      </trkpt>
      <trkpt lat="44.34876" lon="3.39557">
        <ele>490.4</ele>
        <time>2015-08-30T11:42:16Z</time>
      </trkpt>
      <trkpt lat="44.34713" lon="3.39582">
        <ele>489.5</ele>
        <time>2015-08-30T11:42:24Z</time>
      </trkpt>
      <trkpt lat="44.34694" lon="3.3958">
        <ele>489.9</ele>
        <time>2015-08-30T11:42:25Z</time>
      </trkpt>
      <trkpt lat="44.34676" lon="3.39574">
        <ele>489.5</ele>
        <time>2015-08-30T11:42:26Z</time>
      </trkpt>
      <trkpt lat="44.3466" lon="3.39567">
        <ele>489.5</ele>
        <time>2015-08-30T11:42:27Z</time>
      </trkpt>
      <trkpt lat="44.34645" lon="3.39557">
        <ele>489.5</ele>
        <time>2015-08-30T11:42:28Z</time>
      </trkpt>
      <trkpt lat="44.34618" lon="3.39529">
        <ele>489</ele>
        <time>2015-08-30T11:42:30Z</time>
      </trkpt>
      <trkpt lat="44.3459" lon="3.39493">
        <ele>488.5</ele>
        <time>2015-08-30T11:42:32Z</time>
      </trkpt>
      <trkpt lat="44.34577" lon="3.39471">
        <ele>488.5</ele>
        <time>2015-08-30T11:42:33Z</time>
      </trkpt>
      <trkpt lat="44.34532" lon="3.39358">
        <ele>484.2</ele>
        <time>2015-08-30T11:42:38Z</time>
      </trkpt>
      <trkpt lat="44.34531" lon="3.39336">
        <ele>484.2</ele>
        <time>2015-08-30T11:42:39Z</time>
      </trkpt>
      <trkpt lat="44.34539" lon="3.3929">
        <ele>484.2</ele>
        <time>2015-08-30T11:42:41Z</time>
      </trkpt>
      <trkpt lat="44.34547" lon="3.39267">
        <ele>484.6</ele>
        <time>2015-08-30T11:42:42Z</time>
      </trkpt>
      <trkpt lat="44.34576" lon="3.3904">
        <ele>486.1</ele>
        <time>2015-08-30T11:42:52Z</time>
      </trkpt>
      <trkpt lat="44.34572" lon="3.3902">
        <ele>486.6</ele>
        <time>2015-08-30T11:42:53Z</time>
      </trkpt>
      <trkpt lat="44.34565" lon="3.39003">
        <ele>486.1</ele>
        <time>2015-08-30T11:42:54Z</time>
      </trkpt>
      <trkpt lat="44.34532" lon="3.3895">
        <ele>486.1</ele>
        <time>2015-08-30T11:42:57Z</time>
      </trkpt>
      <trkpt lat="44.3452" lon="3.38935">
        <ele>486.1</ele>
        <time>2015-08-30T11:42:58Z</time>
      </trkpt>
      <trkpt lat="44.34507" lon="3.38923">
        <ele>486.1</ele>
        <time>2015-08-30T11:42:59Z</time>
      </trkpt>
      <trkpt lat="44.34492" lon="3.38913">
        <ele>486.6</ele>
        <time>2015-08-30T11:43:00Z</time>
      </trkpt>
      <trkpt lat="44.34476" lon="3.38908">
        <ele>488</ele>
        <time>2015-08-30T11:43:01Z</time>
      </trkpt>
      <trkpt lat="44.34442" lon="3.38907">
        <ele>489.9</ele>
        <time>2015-08-30T11:43:03Z</time>
      </trkpt>
      <trkpt lat="44.34427" lon="3.38904">
        <ele>490.4</ele>
        <time>2015-08-30T11:43:04Z</time>
      </trkpt>
      <trkpt lat="44.34412" lon="3.38899">
        <ele>490.9</ele>
        <time>2015-08-30T11:43:05Z</time>
      </trkpt>
      <trkpt lat="44.34398" lon="3.3889">
        <ele>490.9</ele>
        <time>2015-08-30T11:43:06Z</time>
      </trkpt>
      <trkpt lat="44.34389" lon="3.38876">
        <ele>489.9</ele>
        <time>2015-08-30T11:43:07Z</time>
      </trkpt>
      <trkpt lat="44.34378" lon="3.38867">
        <ele>489.9</ele>
        <time>2015-08-30T11:43:08Z</time>
      </trkpt>
      <trkpt lat="44.34364" lon="3.38862">
        <ele>490.4</ele>
        <time>2015-08-30T11:43:09Z</time>
      </trkpt>
      <trkpt lat="44.34349" lon="3.38859">
        <ele>490.4</ele>
        <time>2015-08-30T11:43:10Z</time>
      </trkpt>
      <trkpt lat="44.34333" lon="3.38859">
        <ele>490.4</ele>
        <time>2015-08-30T11:43:11Z</time>
      </trkpt>
      <trkpt lat="44.343" lon="3.38863">
        <ele>490.9</ele>
        <time>2015-08-30T11:43:13Z</time>
      </trkpt>
      <trkpt lat="44.34285" lon="3.38866">
        <ele>490.9</ele>
        <time>2015-08-30T11:43:14Z</time>
      </trkpt>
      <trkpt lat="44.34271" lon="3.38867">
        <ele>489.5</ele>
        <time>2015-08-30T11:43:15Z</time>
      </trkpt>
      <trkpt lat="44.3424" lon="3.38854">
        <ele>488</ele>
        <time>2015-08-30T11:43:17Z</time>
      </trkpt>
      <trkpt lat="44.34226" lon="3.38843">
        <ele>487.1</ele>
        <time>2015-08-30T11:43:18Z</time>
      </trkpt>
      <trkpt lat="44.34213" lon="3.38827">
        <ele>486.6</ele>
        <time>2015-08-30T11:43:19Z</time>
      </trkpt>
      <trkpt lat="44.3419" lon="3.38751">
        <ele>480.8</ele>
        <time>2015-08-30T11:43:22Z</time>
      </trkpt>
      <trkpt lat="44.34134" lon="3.38595">
        <ele>478.9</ele>
        <time>2015-08-30T11:43:29Z</time>
      </trkpt>
      <trkpt lat="44.34097" lon="3.38559">
        <ele>477.4</ele>
        <time>2015-08-30T11:43:31Z</time>
      </trkpt>
      <trkpt lat="44.33987" lon="3.38435">
        <ele>479.4</ele>
        <time>2015-08-30T11:43:38Z</time>
      </trkpt>
      <trkpt lat="44.33904" lon="3.38263">
        <ele>478.9</ele>
        <time>2015-08-30T11:43:46Z</time>
      </trkpt>
      <trkpt lat="44.33835" lon="3.38186">
        <ele>481.8</ele>
        <time>2015-08-30T11:43:51Z</time>
      </trkpt>
      <trkpt lat="44.3382" lon="3.38173">
        <ele>481.3</ele>
        <time>2015-08-30T11:43:52Z</time>
      </trkpt>
      <trkpt lat="44.33804" lon="3.38163">
        <ele>480.8</ele>
        <time>2015-08-30T11:43:53Z</time>
      </trkpt>
      <trkpt lat="44.33768" lon="3.38153">
        <ele>480.3</ele>
        <time>2015-08-30T11:43:55Z</time>
      </trkpt>
      <trkpt lat="44.33683" lon="3.38151">
        <ele>478.4</ele>
        <time>2015-08-30T11:44:00Z</time>
      </trkpt>
      <trkpt lat="44.33669" lon="3.38161">
        <ele>477.9</ele>
        <time>2015-08-30T11:44:01Z</time>
      </trkpt>
      <trkpt lat="44.33646" lon="3.38179">
        <ele>477.9</ele>
        <time>2015-08-30T11:44:03Z</time>
      </trkpt>
      <trkpt lat="44.3363" lon="3.38201">
        <ele>481.8</ele>
        <time>2015-08-30T11:44:08Z</time>
      </trkpt>
      <trkpt lat="44.33635" lon="3.38233">
        <ele>503.4</ele>
        <time>2015-08-30T11:44:26Z</time>
      </trkpt>
      <trkpt lat="44.33569" lon="3.38265">
        <ele>498.6</ele>
        <time>2015-08-30T11:44:36Z</time>
      </trkpt>
      <trkpt lat="44.33557" lon="3.38249">
        <ele>498.6</ele>
        <time>2015-08-30T11:44:37Z</time>
      </trkpt>
      <trkpt lat="44.33554" lon="3.38235">
        <ele>496.2</ele>
        <time>2015-08-30T11:44:38Z</time>
      </trkpt>
      <trkpt lat="44.33554" lon="3.38221">
        <ele>493.8</ele>
        <time>2015-08-30T11:44:39Z</time>
      </trkpt>
      <trkpt lat="44.33559" lon="3.38183">
        <ele>492.3</ele>
        <time>2015-08-30T11:44:42Z</time>
      </trkpt>
      <trkpt lat="44.33566" lon="3.3816">
        <ele>491.9</ele>
        <time>2015-08-30T11:44:44Z</time>
      </trkpt>
      <trkpt lat="44.33572" lon="3.38149">
        <ele>491.9</ele>
        <time>2015-08-30T11:44:45Z</time>
      </trkpt>
      <trkpt lat="44.3358" lon="3.38138">
        <ele>491.9</ele>
        <time>2015-08-30T11:44:46Z</time>
      </trkpt>
      <trkpt lat="44.33589" lon="3.38128">
        <ele>491.9</ele>
        <time>2015-08-30T11:44:47Z</time>
      </trkpt>
      <trkpt lat="44.33758" lon="3.37977">
        <ele>490.4</ele>
        <time>2015-08-30T11:45:01Z</time>
      </trkpt>
      <trkpt lat="44.33901" lon="3.37813">
        <ele>488.5</ele>
        <time>2015-08-30T11:45:12Z</time>
      </trkpt>
      <trkpt lat="44.34058" lon="3.37523">
        <ele>475</ele>
        <time>2015-08-30T11:45:28Z</time>
      </trkpt>
      <trkpt lat="44.34069" lon="3.37511">
        <ele>474.1</ele>
        <time>2015-08-30T11:45:29Z</time>
      </trkpt>
      <trkpt lat="44.34111" lon="3.37476">
        <ele>472.1</ele>
        <time>2015-08-30T11:45:33Z</time>
      </trkpt>
      <trkpt lat="44.34151" lon="3.37456">
        <ele>472.6</ele>
        <time>2015-08-30T11:45:37Z</time>
      </trkpt>
      <trkpt lat="44.3416" lon="3.37448">
        <ele>473.6</ele>
        <time>2015-08-30T11:45:38Z</time>
      </trkpt>
      <trkpt lat="44.34253" lon="3.3729">
        <ele>468.8</ele>
        <time>2015-08-30T11:45:52Z</time>
      </trkpt>
      <trkpt lat="44.34302" lon="3.37193">
        <ele>472.6</ele>
        <time>2015-08-30T11:46:00Z</time>
      </trkpt>
      <trkpt lat="44.34314" lon="3.37038">
        <ele>473.6</ele>
        <time>2015-08-30T11:46:09Z</time>
      </trkpt>
      <trkpt lat="44.34308" lon="3.36913">
        <ele>471.7</ele>
        <time>2015-08-30T11:46:17Z</time>
      </trkpt>
      <trkpt lat="44.34287" lon="3.36813">
        <ele>479.4</ele>
        <time>2015-08-30T11:46:24Z</time>
      </trkpt>
      <trkpt lat="44.34276" lon="3.36783">
        <ele>480.3</ele>
        <time>2015-08-30T11:46:26Z</time>
      </trkpt>
      <trkpt lat="44.34206" lon="3.36642">
        <ele>477.9</ele>
        <time>2015-08-30T11:46:35Z</time>
      </trkpt>
      <trkpt lat="44.3412" lon="3.36524">
        <ele>471.2</ele>
        <time>2015-08-30T11:46:44Z</time>
      </trkpt>
      <trkpt lat="44.341" lon="3.36501">
        <ele>471.7</ele>
        <time>2015-08-30T11:46:46Z</time>
      </trkpt>
      <trkpt lat="44.34081" lon="3.36474">
        <ele>471.7</ele>
        <time>2015-08-30T11:46:48Z</time>
      </trkpt>
      <trkpt lat="44.34005" lon="3.36349">
        <ele>476</ele>
        <time>2015-08-30T11:46:57Z</time>
      </trkpt>
      <trkpt lat="44.33997" lon="3.36327">
        <ele>477</ele>
        <time>2015-08-30T11:46:59Z</time>
      </trkpt>
      <trkpt lat="44.3399" lon="3.36318">
        <ele>477.4</ele>
        <time>2015-08-30T11:47:00Z</time>
      </trkpt>
      <trkpt lat="44.33982" lon="3.36311">
        <ele>477.9</ele>
        <time>2015-08-30T11:47:01Z</time>
      </trkpt>
      <trkpt lat="44.33957" lon="3.36297">
        <ele>478.9</ele>
        <time>2015-08-30T11:47:04Z</time>
      </trkpt>
      <trkpt lat="44.3395" lon="3.36291">
        <ele>479.4</ele>
        <time>2015-08-30T11:47:05Z</time>
      </trkpt>
      <trkpt lat="44.33944" lon="3.36282">
        <ele>480.3</ele>
        <time>2015-08-30T11:47:06Z</time>
      </trkpt>
      <trkpt lat="44.33938" lon="3.36271">
        <ele>480.8</ele>
        <time>2015-08-30T11:47:07Z</time>
      </trkpt>
      <trkpt lat="44.33934" lon="3.36258">
        <ele>480.8</ele>
        <time>2015-08-30T11:47:08Z</time>
      </trkpt>
      <trkpt lat="44.3393" lon="3.36225">
        <ele>481.3</ele>
        <time>2015-08-30T11:47:10Z</time>
      </trkpt>
      <trkpt lat="44.33917" lon="3.36181">
        <ele>484.2</ele>
        <time>2015-08-30T11:47:13Z</time>
      </trkpt>
      <trkpt lat="44.33911" lon="3.36168">
        <ele>484.6</ele>
        <time>2015-08-30T11:47:14Z</time>
      </trkpt>
      <trkpt lat="44.33893" lon="3.36149">
        <ele>486.1</ele>
        <time>2015-08-30T11:47:16Z</time>
      </trkpt>
      <trkpt lat="44.33884" lon="3.36141">
        <ele>487.1</ele>
        <time>2015-08-30T11:47:17Z</time>
      </trkpt>
      <trkpt lat="44.33874" lon="3.36133">
        <ele>487.5</ele>
        <time>2015-08-30T11:47:18Z</time>
      </trkpt>
      <trkpt lat="44.33863" lon="3.36127">
        <ele>488</ele>
        <time>2015-08-30T11:47:19Z</time>
      </trkpt>
      <trkpt lat="44.33799" lon="3.36112">
        <ele>494.7</ele>
        <time>2015-08-30T11:47:25Z</time>
      </trkpt>
      <trkpt lat="44.33789" lon="3.36115">
        <ele>496.2</ele>
        <time>2015-08-30T11:47:26Z</time>
      </trkpt>
      <trkpt lat="44.33782" lon="3.36121">
        <ele>497.6</ele>
        <time>2015-08-30T11:47:27Z</time>
      </trkpt>
      <trkpt lat="44.33776" lon="3.36131">
        <ele>499.1</ele>
        <time>2015-08-30T11:47:28Z</time>
      </trkpt>
      <trkpt lat="44.33769" lon="3.36138">
        <ele>500</ele>
        <time>2015-08-30T11:47:29Z</time>
      </trkpt>
      <trkpt lat="44.33751" lon="3.36175">
        <ele>499.1</ele>
        <time>2015-08-30T11:47:32Z</time>
      </trkpt>
      <trkpt lat="44.33742" lon="3.36187">
        <ele>499.5</ele>
        <time>2015-08-30T11:47:33Z</time>
      </trkpt>
      <trkpt lat="44.33732" lon="3.36193">
        <ele>499.5</ele>
        <time>2015-08-30T11:47:34Z</time>
      </trkpt>
      <trkpt lat="44.3371" lon="3.36202">
        <ele>498.6</ele>
        <time>2015-08-30T11:47:36Z</time>
      </trkpt>
      <trkpt lat="44.33698" lon="3.36208">
        <ele>497.6</ele>
        <time>2015-08-30T11:47:37Z</time>
      </trkpt>
      <trkpt lat="44.33686" lon="3.36216">
        <ele>497.1</ele>
        <time>2015-08-30T11:47:38Z</time>
      </trkpt>
      <trkpt lat="44.33651" lon="3.36243">
        <ele>495.2</ele>
        <time>2015-08-30T11:47:41Z</time>
      </trkpt>
      <trkpt lat="44.3364" lon="3.36249">
        <ele>494.3</ele>
        <time>2015-08-30T11:47:42Z</time>
      </trkpt>
      <trkpt lat="44.33628" lon="3.36252">
        <ele>493.8</ele>
        <time>2015-08-30T11:47:43Z</time>
      </trkpt>
      <trkpt lat="44.33617" lon="3.36254">
        <ele>493.3</ele>
        <time>2015-08-30T11:47:44Z</time>
      </trkpt>
      <trkpt lat="44.33607" lon="3.36253">
        <ele>492.8</ele>
        <time>2015-08-30T11:47:45Z</time>
      </trkpt>
      <trkpt lat="44.33598" lon="3.36249">
        <ele>491.9</ele>
        <time>2015-08-30T11:47:46Z</time>
      </trkpt>
      <trkpt lat="44.3359" lon="3.36237">
        <ele>489.5</ele>
        <time>2015-08-30T11:47:47Z</time>
      </trkpt>
      <trkpt lat="44.33584" lon="3.36222">
        <ele>486.6</ele>
        <time>2015-08-30T11:47:48Z</time>
      </trkpt>
      <trkpt lat="44.33579" lon="3.36187">
        <ele>484.2</ele>
        <time>2015-08-30T11:47:50Z</time>
      </trkpt>
      <trkpt lat="44.33579" lon="3.36167">
        <ele>481.8</ele>
        <time>2015-08-30T11:47:51Z</time>
      </trkpt>
      <trkpt lat="44.33583" lon="3.36144">
        <ele>481.3</ele>
        <time>2015-08-30T11:47:52Z</time>
      </trkpt>
      <trkpt lat="44.33587" lon="3.35965">
        <ele>476.5</ele>
        <time>2015-08-30T11:48:02Z</time>
      </trkpt>
      <trkpt lat="44.33567" lon="3.35805">
        <ele>475</ele>
        <time>2015-08-30T11:48:13Z</time>
      </trkpt>
      <trkpt lat="44.33552" lon="3.35789">
        <ele>476</ele>
        <time>2015-08-30T11:48:15Z</time>
      </trkpt>
      <trkpt lat="44.3347" lon="3.35656">
        <ele>473.6</ele>
        <time>2015-08-30T11:48:25Z</time>
      </trkpt>
      <trkpt lat="44.33448" lon="3.35628">
        <ele>473.1</ele>
        <time>2015-08-30T11:48:27Z</time>
      </trkpt>
      <trkpt lat="44.33436" lon="3.35617">
        <ele>472.6</ele>
        <time>2015-08-30T11:48:28Z</time>
      </trkpt>
      <trkpt lat="44.33317" lon="3.35524">
        <ele>472.6</ele>
        <time>2015-08-30T11:48:37Z</time>
      </trkpt>
      <trkpt lat="44.33253" lon="3.35488">
        <ele>471.7</ele>
        <time>2015-08-30T11:48:41Z</time>
      </trkpt>
      <trkpt lat="44.33222" lon="3.35477">
        <ele>471.7</ele>
        <time>2015-08-30T11:48:43Z</time>
      </trkpt>
      <trkpt lat="44.33161" lon="3.35446">
        <ele>471.7</ele>
        <time>2015-08-30T11:48:47Z</time>
      </trkpt>
      <trkpt lat="44.33018" lon="3.35397">
        <ele>472.6</ele>
        <time>2015-08-30T11:48:56Z</time>
      </trkpt>
      <trkpt lat="44.33004" lon="3.35386">
        <ele>473.1</ele>
        <time>2015-08-30T11:48:57Z</time>
      </trkpt>
      <trkpt lat="44.32991" lon="3.35373">
        <ele>473.1</ele>
        <time>2015-08-30T11:48:58Z</time>
      </trkpt>
      <trkpt lat="44.3298" lon="3.35358">
        <ele>473.1</ele>
        <time>2015-08-30T11:48:59Z</time>
      </trkpt>
      <trkpt lat="44.32952" lon="3.35306">
        <ele>470.7</ele>
        <time>2015-08-30T11:49:02Z</time>
      </trkpt>
      <trkpt lat="44.32938" lon="3.35268">
        <ele>469.7</ele>
        <time>2015-08-30T11:49:04Z</time>
      </trkpt>
      <trkpt lat="44.32889" lon="3.3508">
        <ele>471.7</ele>
        <time>2015-08-30T11:49:14Z</time>
      </trkpt>
      <trkpt lat="44.32869" lon="3.35024">
        <ele>472.6</ele>
        <time>2015-08-30T11:49:18Z</time>
      </trkpt>
      <trkpt lat="44.32859" lon="3.3495">
        <ele>474.6</ele>
        <time>2015-08-30T11:49:24Z</time>
      </trkpt>
      <trkpt lat="44.32856" lon="3.34941">
        <ele>475</ele>
        <time>2015-08-30T11:49:25Z</time>
      </trkpt>
      <trkpt lat="44.32851" lon="3.34927">
        <ele>477</ele>
        <time>2015-08-30T11:49:27Z</time>
      </trkpt>
      <trkpt lat="44.32851" lon="3.34924">
        <ele>476</ele>
        <time>2015-08-30T11:49:28Z</time>
      </trkpt>
      <trkpt lat="44.32852" lon="3.34923">
        <ele>475</ele>
        <time>2015-08-30T11:49:29Z</time>
      </trkpt>
      <trkpt lat="44.32854" lon="3.34917">
        <ele>476.5</ele>
        <time>2015-08-30T11:49:33Z</time>
      </trkpt>
      <trkpt lat="44.32853" lon="3.34922">
        <ele>479.4</ele>
        <time>2015-08-30T11:49:47Z</time>
      </trkpt>
      <trkpt lat="44.32855" lon="3.34924">
        <ele>474.1</ele>
        <time>2015-08-30T11:50:43Z</time>
      </trkpt>
      <trkpt lat="44.32855" lon="3.34925">
        <ele>474.1</ele>
        <time>2015-08-30T11:51:00Z</time>
      </trkpt>
      <trkpt lat="44.32853" lon="3.34928">
        <ele>488</ele>
        <time>2015-08-30T11:58:24Z</time>
      </trkpt>
      <trkpt lat="44.32853" lon="3.34927">
        <ele>485.6</ele>
        <time>2015-08-30T11:58:35Z</time>
      </trkpt>
      <trkpt lat="44.32843" lon="3.34911">
        <ele>482.2</ele>
        <time>2015-08-30T11:58:40Z</time>
      </trkpt>
      <trkpt lat="44.32831" lon="3.34877">
        <ele>480.8</ele>
        <time>2015-08-30T11:58:44Z</time>
      </trkpt>
      <trkpt lat="44.32819" lon="3.3486">
        <ele>481.3</ele>
        <time>2015-08-30T11:58:46Z</time>
      </trkpt>
      <trkpt lat="44.32731" lon="3.34749">
        <ele>478.9</ele>
        <time>2015-08-30T11:58:57Z</time>
      </trkpt>
      <trkpt lat="44.3271" lon="3.34733">
        <ele>478.4</ele>
        <time>2015-08-30T11:58:59Z</time>
      </trkpt>
      <trkpt lat="44.32698" lon="3.34722">
        <ele>478.9</ele>
        <time>2015-08-30T11:59:00Z</time>
      </trkpt>
      <trkpt lat="44.32687" lon="3.34708">
        <ele>478.4</ele>
        <time>2015-08-30T11:59:01Z</time>
      </trkpt>
      <trkpt lat="44.32664" lon="3.34657">
        <ele>476.5</ele>
        <time>2015-08-30T11:59:04Z</time>
      </trkpt>
      <trkpt lat="44.32652" lon="3.34645">
        <ele>476</ele>
        <time>2015-08-30T11:59:05Z</time>
      </trkpt>
      <trkpt lat="44.32556" lon="3.34601">
        <ele>475</ele>
        <time>2015-08-30T11:59:11Z</time>
      </trkpt>
      <trkpt lat="44.32538" lon="3.34605">
        <ele>477</ele>
        <time>2015-08-30T11:59:12Z</time>
      </trkpt>
      <trkpt lat="44.32522" lon="3.34601">
        <ele>477</ele>
        <time>2015-08-30T11:59:13Z</time>
      </trkpt>
      <trkpt lat="44.3247" lon="3.3458">
        <ele>477.4</ele>
        <time>2015-08-30T11:59:17Z</time>
      </trkpt>
      <trkpt lat="44.32394" lon="3.34564">
        <ele>477.9</ele>
        <time>2015-08-30T11:59:23Z</time>
      </trkpt>
      <trkpt lat="44.32382" lon="3.34555">
        <ele>477.9</ele>
        <time>2015-08-30T11:59:24Z</time>
      </trkpt>
      <trkpt lat="44.32352" lon="3.34522">
        <ele>478.4</ele>
        <time>2015-08-30T11:59:27Z</time>
      </trkpt>
      <trkpt lat="44.3234" lon="3.34516">
        <ele>477.9</ele>
        <time>2015-08-30T11:59:28Z</time>
      </trkpt>
      <trkpt lat="44.32327" lon="3.3452">
        <ele>478.9</ele>
        <time>2015-08-30T11:59:29Z</time>
      </trkpt>
      <trkpt lat="44.32288" lon="3.3455">
        <ele>478.4</ele>
        <time>2015-08-30T11:59:32Z</time>
      </trkpt>
      <trkpt lat="44.32273" lon="3.34557">
        <ele>478.4</ele>
        <time>2015-08-30T11:59:33Z</time>
      </trkpt>
      <trkpt lat="44.32257" lon="3.34561">
        <ele>478.4</ele>
        <time>2015-08-30T11:59:34Z</time>
      </trkpt>
      <trkpt lat="44.32222" lon="3.3456">
        <ele>478.4</ele>
        <time>2015-08-30T11:59:36Z</time>
      </trkpt>
      <trkpt lat="44.31915" lon="3.34611">
        <ele>474.6</ele>
        <time>2015-08-30T11:59:54Z</time>
      </trkpt>
      <trkpt lat="44.31815" lon="3.34592">
        <ele>474.1</ele>
        <time>2015-08-30T11:59:59Z</time>
      </trkpt>
      <trkpt lat="44.31797" lon="3.34582">
        <ele>473.6</ele>
        <time>2015-08-30T12:00:00Z</time>
      </trkpt>
      <trkpt lat="44.31781" lon="3.34569">
        <ele>474.1</ele>
        <time>2015-08-30T12:00:01Z</time>
      </trkpt>
      <trkpt lat="44.31766" lon="3.34553">
        <ele>474.1</ele>
        <time>2015-08-30T12:00:02Z</time>
      </trkpt>
      <trkpt lat="44.31742" lon="3.34509">
        <ele>474.1</ele>
        <time>2015-08-30T12:00:04Z</time>
      </trkpt>
      <trkpt lat="44.31724" lon="3.34462">
        <ele>473.1</ele>
        <time>2015-08-30T12:00:06Z</time>
      </trkpt>
      <trkpt lat="44.31644" lon="3.34112">
        <ele>466.4</ele>
        <time>2015-08-30T12:00:20Z</time>
      </trkpt>
      <trkpt lat="44.31569" lon="3.33914">
        <ele>461.1</ele>
        <time>2015-08-30T12:00:28Z</time>
      </trkpt>
      <trkpt lat="44.31541" lon="3.33874">
        <ele>461.6</ele>
        <time>2015-08-30T12:00:30Z</time>
      </trkpt>
      <trkpt lat="44.31526" lon="3.33857">
        <ele>460.6</ele>
        <time>2015-08-30T12:00:31Z</time>
      </trkpt>
      <trkpt lat="44.31492" lon="3.33832">
        <ele>459.7</ele>
        <time>2015-08-30T12:00:33Z</time>
      </trkpt>
      <trkpt lat="44.31455" lon="3.33812">
        <ele>458.2</ele>
        <time>2015-08-30T12:00:35Z</time>
      </trkpt>
      <trkpt lat="44.31325" lon="3.33714">
        <ele>456.3</ele>
        <time>2015-08-30T12:00:42Z</time>
      </trkpt>
      <trkpt lat="44.31223" lon="3.33605">
        <ele>454.8</ele>
        <time>2015-08-30T12:00:48Z</time>
      </trkpt>
      <trkpt lat="44.31007" lon="3.33217">
        <ele>454.8</ele>
        <time>2015-08-30T12:01:06Z</time>
      </trkpt>
      <trkpt lat="44.30875" lon="3.3307">
        <ele>454.8</ele>
        <time>2015-08-30T12:01:14Z</time>
      </trkpt>
      <trkpt lat="44.30717" lon="3.32955">
        <ele>455.8</ele>
        <time>2015-08-30T12:01:23Z</time>
      </trkpt>
      <trkpt lat="44.307" lon="3.32936">
        <ele>455.3</ele>
        <time>2015-08-30T12:01:24Z</time>
      </trkpt>
      <trkpt lat="44.30281" lon="3.32337">
        <ele>456.3</ele>
        <time>2015-08-30T12:01:54Z</time>
      </trkpt>
      <trkpt lat="44.30221" lon="3.32276">
        <ele>454.8</ele>
        <time>2015-08-30T12:02:00Z</time>
      </trkpt>
      <trkpt lat="44.30207" lon="3.32253">
        <ele>453.4</ele>
        <time>2015-08-30T12:02:02Z</time>
      </trkpt>
      <trkpt lat="44.30138" lon="3.32119">
        <ele>452.4</ele>
        <time>2015-08-30T12:02:13Z</time>
      </trkpt>
      <trkpt lat="44.3013" lon="3.3209">
        <ele>452.4</ele>
        <time>2015-08-30T12:02:15Z</time>
      </trkpt>
      <trkpt lat="44.30124" lon="3.32048">
        <ele>452.4</ele>
        <time>2015-08-30T12:02:18Z</time>
      </trkpt>
      <trkpt lat="44.30125" lon="3.32033">
        <ele>452.9</ele>
        <time>2015-08-30T12:02:20Z</time>
      </trkpt>
      <trkpt lat="44.30131" lon="3.32018">
        <ele>454.4</ele>
        <time>2015-08-30T12:02:23Z</time>
      </trkpt>
      <trkpt lat="44.30133" lon="3.32005">
        <ele>454.8</ele>
        <time>2015-08-30T12:02:25Z</time>
      </trkpt>
      <trkpt lat="44.30132" lon="3.3199">
        <ele>455.3</ele>
        <time>2015-08-30T12:02:27Z</time>
      </trkpt>
      <trkpt lat="44.30124" lon="3.31939">
        <ele>458.2</ele>
        <time>2015-08-30T12:02:33Z</time>
      </trkpt>
      <trkpt lat="44.30129" lon="3.31781">
        <ele>460.6</ele>
        <time>2015-08-30T12:02:41Z</time>
      </trkpt>
      <trkpt lat="44.3014" lon="3.31688">
        <ele>462.1</ele>
        <time>2015-08-30T12:02:45Z</time>
      </trkpt>
      <trkpt lat="44.30138" lon="3.31663">
        <ele>462.5</ele>
        <time>2015-08-30T12:02:46Z</time>
      </trkpt>
      <trkpt lat="44.30101" lon="3.31478">
        <ele>466.4</ele>
        <time>2015-08-30T12:02:55Z</time>
      </trkpt>
      <trkpt lat="44.30079" lon="3.31417">
        <ele>465.4</ele>
        <time>2015-08-30T12:02:58Z</time>
      </trkpt>
      <trkpt lat="44.3" lon="3.31295">
        <ele>468.8</ele>
        <time>2015-08-30T12:03:05Z</time>
      </trkpt>
      <trkpt lat="44.29997" lon="3.31277">
        <ele>469.3</ele>
        <time>2015-08-30T12:03:06Z</time>
      </trkpt>
      <trkpt lat="44.3" lon="3.31261">
        <ele>470.2</ele>
        <time>2015-08-30T12:03:07Z</time>
      </trkpt>
      <trkpt lat="44.30007" lon="3.31247">
        <ele>471.7</ele>
        <time>2015-08-30T12:03:08Z</time>
      </trkpt>
      <trkpt lat="44.3002" lon="3.31234">
        <ele>472.1</ele>
        <time>2015-08-30T12:03:09Z</time>
      </trkpt>
      <trkpt lat="44.30038" lon="3.31223">
        <ele>472.6</ele>
        <time>2015-08-30T12:03:10Z</time>
      </trkpt>
      <trkpt lat="44.30119" lon="3.31191">
        <ele>474.1</ele>
        <time>2015-08-30T12:03:14Z</time>
      </trkpt>
      <trkpt lat="44.30155" lon="3.31168">
        <ele>473.1</ele>
        <time>2015-08-30T12:03:16Z</time>
      </trkpt>
      <trkpt lat="44.30208" lon="3.31124">
        <ele>475</ele>
        <time>2015-08-30T12:03:19Z</time>
      </trkpt>
      <trkpt lat="44.30227" lon="3.31111">
        <ele>475.5</ele>
        <time>2015-08-30T12:03:20Z</time>
      </trkpt>
      <trkpt lat="44.30346" lon="3.30992">
        <ele>474.6</ele>
        <time>2015-08-30T12:03:27Z</time>
      </trkpt>
      <trkpt lat="44.30373" lon="3.30946">
        <ele>474.6</ele>
        <time>2015-08-30T12:03:29Z</time>
      </trkpt>
      <trkpt lat="44.30472" lon="3.30716">
        <ele>474.1</ele>
        <time>2015-08-30T12:03:38Z</time>
      </trkpt>
      <trkpt lat="44.30546" lon="3.30585">
        <ele>472.6</ele>
        <time>2015-08-30T12:03:44Z</time>
      </trkpt>
      <trkpt lat="44.30557" lon="3.30561">
        <ele>472.6</ele>
        <time>2015-08-30T12:03:45Z</time>
      </trkpt>
      <trkpt lat="44.30609" lon="3.30404">
        <ele>471.7</ele>
        <time>2015-08-30T12:03:51Z</time>
      </trkpt>
      <trkpt lat="44.30655" lon="3.3031">
        <ele>468.8</ele>
        <time>2015-08-30T12:03:56Z</time>
      </trkpt>
      <trkpt lat="44.30657" lon="3.30294">
        <ele>468.8</ele>
        <time>2015-08-30T12:03:57Z</time>
      </trkpt>
      <trkpt lat="44.30644" lon="3.30239">
        <ele>467.8</ele>
        <time>2015-08-30T12:04:00Z</time>
      </trkpt>
      <trkpt lat="44.30643" lon="3.30216">
        <ele>467.3</ele>
        <time>2015-08-30T12:04:01Z</time>
      </trkpt>
      <trkpt lat="44.30652" lon="3.30142">
        <ele>464.9</ele>
        <time>2015-08-30T12:04:04Z</time>
      </trkpt>
      <trkpt lat="44.30648" lon="3.30089">
        <ele>463.5</ele>
        <time>2015-08-30T12:04:06Z</time>
      </trkpt>
      <trkpt lat="44.30644" lon="3.30063">
        <ele>463.5</ele>
        <time>2015-08-30T12:04:07Z</time>
      </trkpt>
      <trkpt lat="44.30622" lon="3.29996">
        <ele>462.5</ele>
        <time>2015-08-30T12:04:10Z</time>
      </trkpt>
      <trkpt lat="44.30603" lon="3.29903">
        <ele>459.7</ele>
        <time>2015-08-30T12:04:14Z</time>
      </trkpt>
      <trkpt lat="44.30594" lon="3.29882">
        <ele>460.1</ele>
        <time>2015-08-30T12:04:15Z</time>
      </trkpt>
      <trkpt lat="44.30506" lon="3.29747">
        <ele>457.2</ele>
        <time>2015-08-30T12:04:23Z</time>
      </trkpt>
      <trkpt lat="44.30495" lon="3.29735">
        <ele>456.8</ele>
        <time>2015-08-30T12:04:24Z</time>
      </trkpt>
      <trkpt lat="44.30463" lon="3.29692">
        <ele>456.3</ele>
        <time>2015-08-30T12:04:27Z</time>
      </trkpt>
      <trkpt lat="44.30449" lon="3.29679">
        <ele>456.3</ele>
        <time>2015-08-30T12:04:28Z</time>
      </trkpt>
      <trkpt lat="44.30415" lon="3.29656">
        <ele>457.2</ele>
        <time>2015-08-30T12:04:30Z</time>
      </trkpt>
      <trkpt lat="44.30325" lon="3.29616">
        <ele>458.7</ele>
        <time>2015-08-30T12:04:36Z</time>
      </trkpt>
      <trkpt lat="44.30291" lon="3.29583">
        <ele>459.2</ele>
        <time>2015-08-30T12:04:39Z</time>
      </trkpt>
      <trkpt lat="44.30279" lon="3.29579">
        <ele>459.2</ele>
        <time>2015-08-30T12:04:40Z</time>
      </trkpt>
      <trkpt lat="44.3025" lon="3.29583">
        <ele>461.1</ele>
        <time>2015-08-30T12:04:42Z</time>
      </trkpt>
      <trkpt lat="44.30237" lon="3.29583">
        <ele>462.1</ele>
        <time>2015-08-30T12:04:43Z</time>
      </trkpt>
      <trkpt lat="44.30224" lon="3.29581">
        <ele>462.5</ele>
        <time>2015-08-30T12:04:44Z</time>
      </trkpt>
      <trkpt lat="44.30211" lon="3.29577">
        <ele>463.5</ele>
        <time>2015-08-30T12:04:45Z</time>
      </trkpt>
      <trkpt lat="44.30199" lon="3.2957">
        <ele>464</ele>
        <time>2015-08-30T12:04:46Z</time>
      </trkpt>
      <trkpt lat="44.30188" lon="3.29562">
        <ele>464.5</ele>
        <time>2015-08-30T12:04:47Z</time>
      </trkpt>
      <trkpt lat="44.30175" lon="3.29536">
        <ele>466.9</ele>
        <time>2015-08-30T12:04:49Z</time>
      </trkpt>
      <trkpt lat="44.30176" lon="3.29475">
        <ele>468.3</ele>
        <time>2015-08-30T12:04:52Z</time>
      </trkpt>
      <trkpt lat="44.30174" lon="3.29456">
        <ele>468.3</ele>
        <time>2015-08-30T12:04:53Z</time>
      </trkpt>
      <trkpt lat="44.30168" lon="3.2944">
        <ele>469.3</ele>
        <time>2015-08-30T12:04:54Z</time>
      </trkpt>
      <trkpt lat="44.30139" lon="3.29388">
        <ele>470.7</ele>
        <time>2015-08-30T12:04:57Z</time>
      </trkpt>
      <trkpt lat="44.30043" lon="3.29099">
        <ele>476.5</ele>
        <time>2015-08-30T12:05:10Z</time>
      </trkpt>
      <trkpt lat="44.30031" lon="3.29078">
        <ele>475.5</ele>
        <time>2015-08-30T12:05:11Z</time>
      </trkpt>
      <trkpt lat="44.29909" lon="3.28964">
        <ele>482.2</ele>
        <time>2015-08-30T12:05:19Z</time>
      </trkpt>
      <trkpt lat="44.29893" lon="3.28953">
        <ele>482.2</ele>
        <time>2015-08-30T12:05:20Z</time>
      </trkpt>
      <trkpt lat="44.29877" lon="3.28947">
        <ele>483.7</ele>
        <time>2015-08-30T12:05:21Z</time>
      </trkpt>
      <trkpt lat="44.29845" lon="3.2894">
        <ele>484.2</ele>
        <time>2015-08-30T12:05:23Z</time>
      </trkpt>
      <trkpt lat="44.29817" lon="3.28939">
        <ele>483.7</ele>
        <time>2015-08-30T12:05:25Z</time>
      </trkpt>
      <trkpt lat="44.29804" lon="3.28936">
        <ele>484.2</ele>
        <time>2015-08-30T12:05:26Z</time>
      </trkpt>
      <trkpt lat="44.29795" lon="3.28922">
        <ele>484.6</ele>
        <time>2015-08-30T12:05:27Z</time>
      </trkpt>
      <trkpt lat="44.2978" lon="3.28886">
        <ele>485.6</ele>
        <time>2015-08-30T12:05:29Z</time>
      </trkpt>
      <trkpt lat="44.29774" lon="3.28839">
        <ele>486.6</ele>
        <time>2015-08-30T12:05:31Z</time>
      </trkpt>
      <trkpt lat="44.29777" lon="3.28777">
        <ele>488.5</ele>
        <time>2015-08-30T12:05:34Z</time>
      </trkpt>
      <trkpt lat="44.29774" lon="3.28759">
        <ele>489</ele>
        <time>2015-08-30T12:05:35Z</time>
      </trkpt>
      <trkpt lat="44.29769" lon="3.28741">
        <ele>489</ele>
        <time>2015-08-30T12:05:36Z</time>
      </trkpt>
      <trkpt lat="44.29765" lon="3.28722">
        <ele>489.5</ele>
        <time>2015-08-30T12:05:37Z</time>
      </trkpt>
      <trkpt lat="44.29764" lon="3.28655">
        <ele>491.4</ele>
        <time>2015-08-30T12:05:40Z</time>
      </trkpt>
      <trkpt lat="44.29754" lon="3.28594">
        <ele>491.9</ele>
        <time>2015-08-30T12:05:43Z</time>
      </trkpt>
      <trkpt lat="44.29765" lon="3.28514">
        <ele>491.9</ele>
        <time>2015-08-30T12:05:47Z</time>
      </trkpt>
      <trkpt lat="44.29763" lon="3.28497">
        <ele>491.4</ele>
        <time>2015-08-30T12:05:48Z</time>
      </trkpt>
      <trkpt lat="44.29753" lon="3.28464">
        <ele>490.9</ele>
        <time>2015-08-30T12:05:50Z</time>
      </trkpt>
      <trkpt lat="44.2975" lon="3.28446">
        <ele>490.4</ele>
        <time>2015-08-30T12:05:51Z</time>
      </trkpt>
      <trkpt lat="44.2975" lon="3.28427">
        <ele>489.9</ele>
        <time>2015-08-30T12:05:52Z</time>
      </trkpt>
      <trkpt lat="44.29754" lon="3.28409">
        <ele>489.9</ele>
        <time>2015-08-30T12:05:53Z</time>
      </trkpt>
      <trkpt lat="44.29761" lon="3.28392">
        <ele>491.4</ele>
        <time>2015-08-30T12:05:54Z</time>
      </trkpt>
      <trkpt lat="44.29767" lon="3.28375">
        <ele>491.4</ele>
        <time>2015-08-30T12:05:55Z</time>
      </trkpt>
      <trkpt lat="44.29772" lon="3.28339">
        <ele>491.4</ele>
        <time>2015-08-30T12:05:57Z</time>
      </trkpt>
      <trkpt lat="44.29769" lon="3.28323">
        <ele>490.4</ele>
        <time>2015-08-30T12:05:58Z</time>
      </trkpt>
      <trkpt lat="44.2975" lon="3.28281">
        <ele>489.9</ele>
        <time>2015-08-30T12:06:01Z</time>
      </trkpt>
      <trkpt lat="44.29741" lon="3.28267">
        <ele>491.9</ele>
        <time>2015-08-30T12:06:03Z</time>
      </trkpt>
      <trkpt lat="44.29739" lon="3.28265">
        <ele>492.3</ele>
        <time>2015-08-30T12:06:04Z</time>
      </trkpt>
      <trkpt lat="44.29739" lon="3.28277">
        <ele>517.3</ele>
        <time>2015-08-30T12:06:22Z</time>
      </trkpt>
      <trkpt lat="44.29736" lon="3.2828">
        <ele>539.4</ele>
        <time>2015-08-30T12:06:42Z</time>
      </trkpt>
      <trkpt lat="44.29732" lon="3.28276">
        <ele>541.8</ele>
        <time>2015-08-30T12:07:09Z</time>
      </trkpt>
      <trkpt lat="44.29733" lon="3.28266">
        <ele>532.7</ele>
        <time>2015-08-30T12:07:11Z</time>
      </trkpt>
      <trkpt lat="44.29733" lon="3.28261">
        <ele>529.3</ele>
        <time>2015-08-30T12:07:12Z</time>
      </trkpt>
      <trkpt lat="44.29734" lon="3.28255">
        <ele>525.5</ele>
        <time>2015-08-30T12:07:13Z</time>
      </trkpt>
      <trkpt lat="44.29769" lon="3.2817">
        <ele>508.7</ele>
        <time>2015-08-30T12:07:21Z</time>
      </trkpt>
      <trkpt lat="44.29776" lon="3.28159">
        <ele>506.8</ele>
        <time>2015-08-30T12:07:22Z</time>
      </trkpt>
      <trkpt lat="44.29784" lon="3.28149">
        <ele>505.8</ele>
        <time>2015-08-30T12:07:23Z</time>
      </trkpt>
      <trkpt lat="44.29794" lon="3.28142">
        <ele>504.4</ele>
        <time>2015-08-30T12:07:24Z</time>
      </trkpt>
      <trkpt lat="44.29806" lon="3.28138">
        <ele>502.9</ele>
        <time>2015-08-30T12:07:25Z</time>
      </trkpt>
      <trkpt lat="44.2982" lon="3.28138">
        <ele>501</ele>
        <time>2015-08-30T12:07:26Z</time>
      </trkpt>
      <trkpt lat="44.29832" lon="3.28134">
        <ele>499.5</ele>
        <time>2015-08-30T12:07:27Z</time>
      </trkpt>
      <trkpt lat="44.29844" lon="3.28124">
        <ele>497.6</ele>
        <time>2015-08-30T12:07:28Z</time>
      </trkpt>
      <trkpt lat="44.29852" lon="3.28111">
        <ele>495.7</ele>
        <time>2015-08-30T12:07:29Z</time>
      </trkpt>
      <trkpt lat="44.29856" lon="3.28094">
        <ele>493.8</ele>
        <time>2015-08-30T12:07:30Z</time>
      </trkpt>
      <trkpt lat="44.29864" lon="3.28043">
        <ele>491.4</ele>
        <time>2015-08-30T12:07:33Z</time>
      </trkpt>
      <trkpt lat="44.29872" lon="3.28018">
        <ele>488.5</ele>
        <time>2015-08-30T12:07:35Z</time>
      </trkpt>
      <trkpt lat="44.29909" lon="3.27957">
        <ele>485.6</ele>
        <time>2015-08-30T12:07:40Z</time>
      </trkpt>
      <trkpt lat="44.29917" lon="3.27946">
        <ele>485.1</ele>
        <time>2015-08-30T12:07:41Z</time>
      </trkpt>
      <trkpt lat="44.29925" lon="3.27934">
        <ele>484.6</ele>
        <time>2015-08-30T12:07:42Z</time>
      </trkpt>
      <trkpt lat="44.29932" lon="3.27919">
        <ele>484.2</ele>
        <time>2015-08-30T12:07:43Z</time>
      </trkpt>
      <trkpt lat="44.29936" lon="3.27904">
        <ele>483.7</ele>
        <time>2015-08-30T12:07:44Z</time>
      </trkpt>
      <trkpt lat="44.29942" lon="3.27855">
        <ele>481.3</ele>
        <time>2015-08-30T12:07:47Z</time>
      </trkpt>
      <trkpt lat="44.29952" lon="3.27824">
        <ele>479.4</ele>
        <time>2015-08-30T12:07:49Z</time>
      </trkpt>
      <trkpt lat="44.29959" lon="3.27811">
        <ele>477.4</ele>
        <time>2015-08-30T12:07:50Z</time>
      </trkpt>
      <trkpt lat="44.29978" lon="3.27788">
        <ele>477.9</ele>
        <time>2015-08-30T12:07:52Z</time>
      </trkpt>
      <trkpt lat="44.29985" lon="3.27775">
        <ele>477.4</ele>
        <time>2015-08-30T12:07:53Z</time>
      </trkpt>
      <trkpt lat="44.29991" lon="3.2776">
        <ele>477</ele>
        <time>2015-08-30T12:07:54Z</time>
      </trkpt>
      <trkpt lat="44.29993" lon="3.27745">
        <ele>476.5</ele>
        <time>2015-08-30T12:07:55Z</time>
      </trkpt>
      <trkpt lat="44.29987" lon="3.27713">
        <ele>473.6</ele>
        <time>2015-08-30T12:07:57Z</time>
      </trkpt>
      <trkpt lat="44.29986" lon="3.27695">
        <ele>472.6</ele>
        <time>2015-08-30T12:07:58Z</time>
      </trkpt>
      <trkpt lat="44.29989" lon="3.27678">
        <ele>472.1</ele>
        <time>2015-08-30T12:07:59Z</time>
      </trkpt>
      <trkpt lat="44.29995" lon="3.27661">
        <ele>471.7</ele>
        <time>2015-08-30T12:08:00Z</time>
      </trkpt>
      <trkpt lat="44.30003" lon="3.27645">
        <ele>470.7</ele>
        <time>2015-08-30T12:08:01Z</time>
      </trkpt>
      <trkpt lat="44.30019" lon="3.27633">
        <ele>470.2</ele>
        <time>2015-08-30T12:08:02Z</time>
      </trkpt>
      <trkpt lat="44.30033" lon="3.27616">
        <ele>470.2</ele>
        <time>2015-08-30T12:08:03Z</time>
      </trkpt>
      <trkpt lat="44.30102" lon="3.27461">
        <ele>464.9</ele>
        <time>2015-08-30T12:08:10Z</time>
      </trkpt>
      <trkpt lat="44.30204" lon="3.2732">
        <ele>462.5</ele>
        <time>2015-08-30T12:08:19Z</time>
      </trkpt>
      <trkpt lat="44.30259" lon="3.27283">
        <ele>456.3</ele>
        <time>2015-08-30T12:08:23Z</time>
      </trkpt>
      <trkpt lat="44.30266" lon="3.27268">
        <ele>455.8</ele>
        <time>2015-08-30T12:08:24Z</time>
      </trkpt>
      <trkpt lat="44.3027" lon="3.2725">
        <ele>454.8</ele>
        <time>2015-08-30T12:08:25Z</time>
      </trkpt>
      <trkpt lat="44.3027" lon="3.2723">
        <ele>454.4</ele>
        <time>2015-08-30T12:08:26Z</time>
      </trkpt>
      <trkpt lat="44.30266" lon="3.27209">
        <ele>454.4</ele>
        <time>2015-08-30T12:08:27Z</time>
      </trkpt>
      <trkpt lat="44.30266" lon="3.27189">
        <ele>453.9</ele>
        <time>2015-08-30T12:08:28Z</time>
      </trkpt>
      <trkpt lat="44.30269" lon="3.27148">
        <ele>452</ele>
        <time>2015-08-30T12:08:30Z</time>
      </trkpt>
      <trkpt lat="44.30277" lon="3.27131">
        <ele>452</ele>
        <time>2015-08-30T12:08:31Z</time>
      </trkpt>
      <trkpt lat="44.30296" lon="3.27108">
        <ele>451.5</ele>
        <time>2015-08-30T12:08:33Z</time>
      </trkpt>
      <trkpt lat="44.30301" lon="3.27097">
        <ele>451.5</ele>
        <time>2015-08-30T12:08:34Z</time>
      </trkpt>
      <trkpt lat="44.303" lon="3.27049">
        <ele>452</ele>
        <time>2015-08-30T12:08:37Z</time>
      </trkpt>
      <trkpt lat="44.30303" lon="3.27027">
        <ele>452</ele>
        <time>2015-08-30T12:08:38Z</time>
      </trkpt>
      <trkpt lat="44.30308" lon="3.27005">
        <ele>452</ele>
        <time>2015-08-30T12:08:39Z</time>
      </trkpt>
      <trkpt lat="44.30316" lon="3.26984">
        <ele>452</ele>
        <time>2015-08-30T12:08:40Z</time>
      </trkpt>
      <trkpt lat="44.30327" lon="3.26965">
        <ele>452.4</ele>
        <time>2015-08-30T12:08:41Z</time>
      </trkpt>
      <trkpt lat="44.30367" lon="3.26914">
        <ele>453.4</ele>
        <time>2015-08-30T12:08:44Z</time>
      </trkpt>
      <trkpt lat="44.30491" lon="3.26798">
        <ele>455.8</ele>
        <time>2015-08-30T12:08:52Z</time>
      </trkpt>
      <trkpt lat="44.30533" lon="3.26743">
        <ele>455.8</ele>
        <time>2015-08-30T12:08:55Z</time>
      </trkpt>
      <trkpt lat="44.30543" lon="3.2672">
        <ele>455.8</ele>
        <time>2015-08-30T12:08:56Z</time>
      </trkpt>
      <trkpt lat="44.30557" lon="3.26668">
        <ele>457.2</ele>
        <time>2015-08-30T12:08:58Z</time>
      </trkpt>
      <trkpt lat="44.3056" lon="3.26641">
        <ele>457.2</ele>
        <time>2015-08-30T12:08:59Z</time>
      </trkpt>
      <trkpt lat="44.30559" lon="3.26616">
        <ele>457.7</ele>
        <time>2015-08-30T12:09:00Z</time>
      </trkpt>
      <trkpt lat="44.30536" lon="3.26535">
        <ele>456.3</ele>
        <time>2015-08-30T12:09:04Z</time>
      </trkpt>
      <trkpt lat="44.30542" lon="3.26492">
        <ele>456.8</ele>
        <time>2015-08-30T12:09:06Z</time>
      </trkpt>
      <trkpt lat="44.30554" lon="3.26448">
        <ele>456.3</ele>
        <time>2015-08-30T12:09:08Z</time>
      </trkpt>
      <trkpt lat="44.30558" lon="3.26401">
        <ele>455.8</ele>
        <time>2015-08-30T12:09:10Z</time>
      </trkpt>
      <trkpt lat="44.30553" lon="3.26349">
        <ele>455.3</ele>
        <time>2015-08-30T12:09:12Z</time>
      </trkpt>
      <trkpt lat="44.30562" lon="3.26177">
        <ele>450.5</ele>
        <time>2015-08-30T12:09:19Z</time>
      </trkpt>
      <trkpt lat="44.30577" lon="3.26101">
        <ele>447.6</ele>
        <time>2015-08-30T12:09:23Z</time>
      </trkpt>
      <trkpt lat="44.30566" lon="3.26049">
        <ele>447.6</ele>
        <time>2015-08-30T12:09:27Z</time>
      </trkpt>
      <trkpt lat="44.30559" lon="3.26039">
        <ele>450.5</ele>
        <time>2015-08-30T12:09:28Z</time>
      </trkpt>
      <trkpt lat="44.30554" lon="3.26029">
        <ele>453.4</ele>
        <time>2015-08-30T12:09:29Z</time>
      </trkpt>
      <trkpt lat="44.30547" lon="3.26003">
        <ele>452.9</ele>
        <time>2015-08-30T12:09:31Z</time>
      </trkpt>
      <trkpt lat="44.3054" lon="3.25993">
        <ele>455.8</ele>
        <time>2015-08-30T12:09:32Z</time>
      </trkpt>
      <trkpt lat="44.30535" lon="3.2598">
        <ele>457.2</ele>
        <time>2015-08-30T12:09:33Z</time>
      </trkpt>
      <trkpt lat="44.30532" lon="3.25595">
        <ele>445.7</ele>
        <time>2015-08-30T12:09:51Z</time>
      </trkpt>
      <trkpt lat="44.30615" lon="3.25451">
        <ele>427</ele>
        <time>2015-08-30T12:09:58Z</time>
      </trkpt>
      <trkpt lat="44.30695" lon="3.25339">
        <ele>426</ele>
        <time>2015-08-30T12:10:05Z</time>
      </trkpt>
      <trkpt lat="44.30742" lon="3.2531">
        <ele>436.6</ele>
        <time>2015-08-30T12:10:08Z</time>
      </trkpt>
      <trkpt lat="44.30792" lon="3.2524">
        <ele>438</ele>
        <time>2015-08-30T12:10:14Z</time>
      </trkpt>
      <trkpt lat="44.30793" lon="3.25217">
        <ele>439.9</ele>
        <time>2015-08-30T12:10:15Z</time>
      </trkpt>
      <trkpt lat="44.30821" lon="3.25075">
        <ele>444.8</ele>
        <time>2015-08-30T12:10:22Z</time>
      </trkpt>
      <trkpt lat="44.30833" lon="3.24888">
        <ele>450</ele>
        <time>2015-08-30T12:10:31Z</time>
      </trkpt>
      <trkpt lat="44.30831" lon="3.24868">
        <ele>450.5</ele>
        <time>2015-08-30T12:10:32Z</time>
      </trkpt>
      <trkpt lat="44.30827" lon="3.2485">
        <ele>450</ele>
        <time>2015-08-30T12:10:33Z</time>
      </trkpt>
      <trkpt lat="44.3082" lon="3.24831">
        <ele>450</ele>
        <time>2015-08-30T12:10:34Z</time>
      </trkpt>
      <trkpt lat="44.30799" lon="3.2479">
        <ele>450</ele>
        <time>2015-08-30T12:10:36Z</time>
      </trkpt>
      <trkpt lat="44.30776" lon="3.24725">
        <ele>449.6</ele>
        <time>2015-08-30T12:10:39Z</time>
      </trkpt>
      <trkpt lat="44.30766" lon="3.24663">
        <ele>449.6</ele>
        <time>2015-08-30T12:10:42Z</time>
      </trkpt>
      <trkpt lat="44.30754" lon="3.24626">
        <ele>449.1</ele>
        <time>2015-08-30T12:10:44Z</time>
      </trkpt>
      <trkpt lat="44.30693" lon="3.24532">
        <ele>448.1</ele>
        <time>2015-08-30T12:10:49Z</time>
      </trkpt>
      <trkpt lat="44.30676" lon="3.24517">
        <ele>448.6</ele>
        <time>2015-08-30T12:10:50Z</time>
      </trkpt>
      <trkpt lat="44.30464" lon="3.24367">
        <ele>444.8</ele>
        <time>2015-08-30T12:11:02Z</time>
      </trkpt>
      <trkpt lat="44.30453" lon="3.24351">
        <ele>444.8</ele>
        <time>2015-08-30T12:11:03Z</time>
      </trkpt>
      <trkpt lat="44.30444" lon="3.2433">
        <ele>444.8</ele>
        <time>2015-08-30T12:11:04Z</time>
      </trkpt>
      <trkpt lat="44.30423" lon="3.24195">
        <ele>445.2</ele>
        <time>2015-08-30T12:11:09Z</time>
      </trkpt>
      <trkpt lat="44.30417" lon="3.23952">
        <ele>448.1</ele>
        <time>2015-08-30T12:11:18Z</time>
      </trkpt>
      <trkpt lat="44.30408" lon="3.23925">
        <ele>446.7</ele>
        <time>2015-08-30T12:11:19Z</time>
      </trkpt>
      <trkpt lat="44.30397" lon="3.23901">
        <ele>445.7</ele>
        <time>2015-08-30T12:11:20Z</time>
      </trkpt>
      <trkpt lat="44.30383" lon="3.2388">
        <ele>446.2</ele>
        <time>2015-08-30T12:11:21Z</time>
      </trkpt>
      <trkpt lat="44.30321" lon="3.23815">
        <ele>446.7</ele>
        <time>2015-08-30T12:11:25Z</time>
      </trkpt>
      <trkpt lat="44.30303" lon="3.23803">
        <ele>445.7</ele>
        <time>2015-08-30T12:11:26Z</time>
      </trkpt>
      <trkpt lat="44.30285" lon="3.23795">
        <ele>445.2</ele>
        <time>2015-08-30T12:11:27Z</time>
      </trkpt>
      <trkpt lat="44.30267" lon="3.23791">
        <ele>445.7</ele>
        <time>2015-08-30T12:11:28Z</time>
      </trkpt>
      <trkpt lat="44.3025" lon="3.2379">
        <ele>445.7</ele>
        <time>2015-08-30T12:11:29Z</time>
      </trkpt>
      <trkpt lat="44.30204" lon="3.23802">
        <ele>446.7</ele>
        <time>2015-08-30T12:11:32Z</time>
      </trkpt>
      <trkpt lat="44.3019" lon="3.23802">
        <ele>447.2</ele>
        <time>2015-08-30T12:11:33Z</time>
      </trkpt>
      <trkpt lat="44.30176" lon="3.238">
        <ele>447.2</ele>
        <time>2015-08-30T12:11:34Z</time>
      </trkpt>
      <trkpt lat="44.30163" lon="3.23797">
        <ele>447.6</ele>
        <time>2015-08-30T12:11:35Z</time>
      </trkpt>
      <trkpt lat="44.30151" lon="3.23794">
        <ele>448.1</ele>
        <time>2015-08-30T12:11:36Z</time>
      </trkpt>
      <trkpt lat="44.30139" lon="3.23794">
        <ele>448.1</ele>
        <time>2015-08-30T12:11:37Z</time>
      </trkpt>
      <trkpt lat="44.30127" lon="3.23799">
        <ele>448.1</ele>
        <time>2015-08-30T12:11:38Z</time>
      </trkpt>
      <trkpt lat="44.30106" lon="3.23816">
        <ele>449.1</ele>
        <time>2015-08-30T12:11:40Z</time>
      </trkpt>
      <trkpt lat="44.30047" lon="3.23848">
        <ele>451</ele>
        <time>2015-08-30T12:11:45Z</time>
      </trkpt>
      <trkpt lat="44.2991" lon="3.23868">
        <ele>452.4</ele>
        <time>2015-08-30T12:11:51Z</time>
      </trkpt>
      <trkpt lat="44.29678" lon="3.23863">
        <ele>452.4</ele>
        <time>2015-08-30T12:12:02Z</time>
      </trkpt>
      <trkpt lat="44.2966" lon="3.23858">
        <ele>452.9</ele>
        <time>2015-08-30T12:12:03Z</time>
      </trkpt>
      <trkpt lat="44.29625" lon="3.23842">
        <ele>452.9</ele>
        <time>2015-08-30T12:12:05Z</time>
      </trkpt>
      <trkpt lat="44.29567" lon="3.23823">
        <ele>452.4</ele>
        <time>2015-08-30T12:12:08Z</time>
      </trkpt>
      <trkpt lat="44.29549" lon="3.23813">
        <ele>452</ele>
        <time>2015-08-30T12:12:09Z</time>
      </trkpt>
      <trkpt lat="44.29485" lon="3.23763">
        <ele>451</ele>
        <time>2015-08-30T12:12:13Z</time>
      </trkpt>
      <trkpt lat="44.29472" lon="3.2375">
        <ele>451</ele>
        <time>2015-08-30T12:12:14Z</time>
      </trkpt>
      <trkpt lat="44.29458" lon="3.23739">
        <ele>451</ele>
        <time>2015-08-30T12:12:15Z</time>
      </trkpt>
      <trkpt lat="44.29443" lon="3.2373">
        <ele>450.5</ele>
        <time>2015-08-30T12:12:16Z</time>
      </trkpt>
      <trkpt lat="44.29391" lon="3.23672">
        <ele>450</ele>
        <time>2015-08-30T12:12:20Z</time>
      </trkpt>
      <trkpt lat="44.29378" lon="3.23661">
        <ele>449.6</ele>
        <time>2015-08-30T12:12:21Z</time>
      </trkpt>
      <trkpt lat="44.29348" lon="3.2366">
        <ele>449.6</ele>
        <time>2015-08-30T12:12:23Z</time>
      </trkpt>
      <trkpt lat="44.29335" lon="3.23664">
        <ele>449.6</ele>
        <time>2015-08-30T12:12:24Z</time>
      </trkpt>
      <trkpt lat="44.29276" lon="3.23722">
        <ele>448.6</ele>
        <time>2015-08-30T12:12:28Z</time>
      </trkpt>
      <trkpt lat="44.29261" lon="3.23732">
        <ele>448.6</ele>
        <time>2015-08-30T12:12:29Z</time>
      </trkpt>
      <trkpt lat="44.29245" lon="3.2374">
        <ele>448.6</ele>
        <time>2015-08-30T12:12:30Z</time>
      </trkpt>
      <trkpt lat="44.29216" lon="3.23748">
        <ele>448.1</ele>
        <time>2015-08-30T12:12:32Z</time>
      </trkpt>
      <trkpt lat="44.29107" lon="3.23758">
        <ele>447.2</ele>
        <time>2015-08-30T12:12:39Z</time>
      </trkpt>
      <trkpt lat="44.29044" lon="3.23781">
        <ele>445.7</ele>
        <time>2015-08-30T12:12:43Z</time>
      </trkpt>
      <trkpt lat="44.2903" lon="3.23783">
        <ele>445.7</ele>
        <time>2015-08-30T12:12:44Z</time>
      </trkpt>
      <trkpt lat="44.29018" lon="3.23783">
        <ele>445.2</ele>
        <time>2015-08-30T12:12:45Z</time>
      </trkpt>
      <trkpt lat="44.29006" lon="3.23781">
        <ele>444.8</ele>
        <time>2015-08-30T12:12:46Z</time>
      </trkpt>
      <trkpt lat="44.28994" lon="3.23775">
        <ele>445.2</ele>
        <time>2015-08-30T12:12:47Z</time>
      </trkpt>
      <trkpt lat="44.28981" lon="3.23764">
        <ele>445.2</ele>
        <time>2015-08-30T12:12:48Z</time>
      </trkpt>
      <trkpt lat="44.28953" lon="3.23735">
        <ele>445.2</ele>
        <time>2015-08-30T12:12:50Z</time>
      </trkpt>
      <trkpt lat="44.28842" lon="3.23645">
        <ele>440.4</ele>
        <time>2015-08-30T12:12:57Z</time>
      </trkpt>
      <trkpt lat="44.28804" lon="3.23625">
        <ele>438</ele>
        <time>2015-08-30T12:13:00Z</time>
      </trkpt>
      <trkpt lat="44.28796" lon="3.23615">
        <ele>437.5</ele>
        <time>2015-08-30T12:13:01Z</time>
      </trkpt>
      <trkpt lat="44.28644" lon="3.23339">
        <ele>428.4</ele>
        <time>2015-08-30T12:13:17Z</time>
      </trkpt>
      <trkpt lat="44.28614" lon="3.23312">
        <ele>426.5</ele>
        <time>2015-08-30T12:13:19Z</time>
      </trkpt>
      <trkpt lat="44.28353" lon="3.23125">
        <ele>425.5</ele>
        <time>2015-08-30T12:13:33Z</time>
      </trkpt>
      <trkpt lat="44.28338" lon="3.23107">
        <ele>425</ele>
        <time>2015-08-30T12:13:34Z</time>
      </trkpt>
      <trkpt lat="44.28295" lon="3.23022">
        <ele>426.5</ele>
        <time>2015-08-30T12:13:38Z</time>
      </trkpt>
      <trkpt lat="44.28283" lon="3.23008">
        <ele>426</ele>
        <time>2015-08-30T12:13:39Z</time>
      </trkpt>
      <trkpt lat="44.2827" lon="3.23">
        <ele>426</ele>
        <time>2015-08-30T12:13:40Z</time>
      </trkpt>
      <trkpt lat="44.28256" lon="3.22995">
        <ele>426</ele>
        <time>2015-08-30T12:13:41Z</time>
      </trkpt>
      <trkpt lat="44.28229" lon="3.22992">
        <ele>426.5</ele>
        <time>2015-08-30T12:13:43Z</time>
      </trkpt>
      <trkpt lat="44.28146" lon="3.22958">
        <ele>426.5</ele>
        <time>2015-08-30T12:13:51Z</time>
      </trkpt>
      <trkpt lat="44.28136" lon="3.2295">
        <ele>427</ele>
        <time>2015-08-30T12:13:52Z</time>
      </trkpt>
      <trkpt lat="44.28083" lon="3.22897">
        <ele>427.9</ele>
        <time>2015-08-30T12:13:58Z</time>
      </trkpt>
      <trkpt lat="44.28073" lon="3.2289">
        <ele>427.9</ele>
        <time>2015-08-30T12:13:59Z</time>
      </trkpt>
      <trkpt lat="44.28063" lon="3.22886">
        <ele>427.9</ele>
        <time>2015-08-30T12:14:00Z</time>
      </trkpt>
      <trkpt lat="44.28052" lon="3.22884">
        <ele>427.9</ele>
        <time>2015-08-30T12:14:01Z</time>
      </trkpt>
      <trkpt lat="44.28041" lon="3.22885">
        <ele>428.4</ele>
        <time>2015-08-30T12:14:02Z</time>
      </trkpt>
      <trkpt lat="44.27984" lon="3.22896">
        <ele>427.9</ele>
        <time>2015-08-30T12:14:07Z</time>
      </trkpt>
      <trkpt lat="44.27972" lon="3.22895">
        <ele>427.9</ele>
        <time>2015-08-30T12:14:08Z</time>
      </trkpt>
      <trkpt lat="44.27961" lon="3.22892">
        <ele>427.9</ele>
        <time>2015-08-30T12:14:09Z</time>
      </trkpt>
      <trkpt lat="44.2795" lon="3.22887">
        <ele>427.4</ele>
        <time>2015-08-30T12:14:10Z</time>
      </trkpt>
      <trkpt lat="44.27847" lon="3.22822">
        <ele>427</ele>
        <time>2015-08-30T12:14:21Z</time>
      </trkpt>
      <trkpt lat="44.27742" lon="3.22719">
        <ele>426</ele>
        <time>2015-08-30T12:14:33Z</time>
      </trkpt>
      <trkpt lat="44.27692" lon="3.22643">
        <ele>426.5</ele>
        <time>2015-08-30T12:14:39Z</time>
      </trkpt>
      <trkpt lat="44.27682" lon="3.22602">
        <ele>426</ele>
        <time>2015-08-30T12:14:42Z</time>
      </trkpt>
      <trkpt lat="44.27675" lon="3.22597">
        <ele>426.5</ele>
        <time>2015-08-30T12:14:43Z</time>
      </trkpt>
      <trkpt lat="44.27668" lon="3.22589">
        <ele>426</ele>
        <time>2015-08-30T12:14:44Z</time>
      </trkpt>
      <trkpt lat="44.27658" lon="3.22589">
        <ele>425</ele>
        <time>2015-08-30T12:14:45Z</time>
      </trkpt>
      <trkpt lat="44.27631" lon="3.2261">
        <ele>426</ele>
        <time>2015-08-30T12:14:48Z</time>
      </trkpt>
      <trkpt lat="44.27621" lon="3.22612">
        <ele>426.5</ele>
        <time>2015-08-30T12:14:49Z</time>
      </trkpt>
      <trkpt lat="44.2761" lon="3.22611">
        <ele>427</ele>
        <time>2015-08-30T12:14:50Z</time>
      </trkpt>
      <trkpt lat="44.27588" lon="3.22602">
        <ele>427</ele>
        <time>2015-08-30T12:14:52Z</time>
      </trkpt>
      <trkpt lat="44.27505" lon="3.22572">
        <ele>426.5</ele>
        <time>2015-08-30T12:14:59Z</time>
      </trkpt>
      <trkpt lat="44.27458" lon="3.22574">
        <ele>427</ele>
        <time>2015-08-30T12:15:02Z</time>
      </trkpt>
      <trkpt lat="44.2744" lon="3.22572">
        <ele>427</ele>
        <time>2015-08-30T12:15:03Z</time>
      </trkpt>
      <trkpt lat="44.27304" lon="3.22577">
        <ele>428.4</ele>
        <time>2015-08-30T12:15:10Z</time>
      </trkpt>
      <trkpt lat="44.27239" lon="3.22568">
        <ele>429.9</ele>
        <time>2015-08-30T12:15:14Z</time>
      </trkpt>
      <trkpt lat="44.27216" lon="3.22552">
        <ele>430.8</ele>
        <time>2015-08-30T12:15:16Z</time>
      </trkpt>
      <trkpt lat="44.27204" lon="3.22552">
        <ele>430.8</ele>
        <time>2015-08-30T12:15:17Z</time>
      </trkpt>
      <trkpt lat="44.27164" lon="3.22583">
        <ele>431.3</ele>
        <time>2015-08-30T12:15:20Z</time>
      </trkpt>
      <trkpt lat="44.27147" lon="3.22588">
        <ele>431.3</ele>
        <time>2015-08-30T12:15:21Z</time>
      </trkpt>
      <trkpt lat="44.26979" lon="3.22611">
        <ele>432.7</ele>
        <time>2015-08-30T12:15:29Z</time>
      </trkpt>
      <trkpt lat="44.26832" lon="3.22605">
        <ele>433.2</ele>
        <time>2015-08-30T12:15:36Z</time>
      </trkpt>
      <trkpt lat="44.26616" lon="3.22573">
        <ele>429.9</ele>
        <time>2015-08-30T12:15:46Z</time>
      </trkpt>
      <trkpt lat="44.26471" lon="3.22571">
        <ele>426</ele>
        <time>2015-08-30T12:15:52Z</time>
      </trkpt>
      <trkpt lat="44.26303" lon="3.22628">
        <ele>424.1</ele>
        <time>2015-08-30T12:15:59Z</time>
      </trkpt>
      <trkpt lat="44.25593" lon="3.23067">
        <ele>421.7</ele>
        <time>2015-08-30T12:16:32Z</time>
      </trkpt>
      <trkpt lat="44.25569" lon="3.23074">
        <ele>421.7</ele>
        <time>2015-08-30T12:16:33Z</time>
      </trkpt>
      <trkpt lat="44.25323" lon="3.23189">
        <ele>427.4</ele>
        <time>2015-08-30T12:16:45Z</time>
      </trkpt>
      <trkpt lat="44.25226" lon="3.23211">
        <ele>430.8</ele>
        <time>2015-08-30T12:16:50Z</time>
      </trkpt>
      <trkpt lat="44.25191" lon="3.23226">
        <ele>431.3</ele>
        <time>2015-08-30T12:16:52Z</time>
      </trkpt>
      <trkpt lat="44.25172" lon="3.23229">
        <ele>431.8</ele>
        <time>2015-08-30T12:16:53Z</time>
      </trkpt>
      <trkpt lat="44.25153" lon="3.2323">
        <ele>431.8</ele>
        <time>2015-08-30T12:16:54Z</time>
      </trkpt>
      <trkpt lat="44.24758" lon="3.23182">
        <ele>426.5</ele>
        <time>2015-08-30T12:17:12Z</time>
      </trkpt>
      <trkpt lat="44.24689" lon="3.23189">
        <ele>427</ele>
        <time>2015-08-30T12:17:15Z</time>
      </trkpt>
      <trkpt lat="44.24473" lon="3.23232">
        <ele>424.1</ele>
        <time>2015-08-30T12:17:25Z</time>
      </trkpt>
      <trkpt lat="44.24411" lon="3.23207">
        <ele>422.6</ele>
        <time>2015-08-30T12:17:28Z</time>
      </trkpt>
      <trkpt lat="44.2437" lon="3.2318">
        <ele>422.6</ele>
        <time>2015-08-30T12:17:30Z</time>
      </trkpt>
      <trkpt lat="44.24351" lon="3.23165">
        <ele>422.2</ele>
        <time>2015-08-30T12:17:31Z</time>
      </trkpt>
      <trkpt lat="44.24292" lon="3.23131">
        <ele>423.6</ele>
        <time>2015-08-30T12:17:34Z</time>
      </trkpt>
      <trkpt lat="44.24271" lon="3.23127">
        <ele>423.6</ele>
        <time>2015-08-30T12:17:35Z</time>
      </trkpt>
      <trkpt lat="44.24252" lon="3.23126">
        <ele>423.6</ele>
        <time>2015-08-30T12:17:36Z</time>
      </trkpt>
      <trkpt lat="44.24002" lon="3.23069">
        <ele>421.7</ele>
        <time>2015-08-30T12:17:49Z</time>
      </trkpt>
      <trkpt lat="44.23895" lon="3.23068">
        <ele>423.1</ele>
        <time>2015-08-30T12:17:55Z</time>
      </trkpt>
      <trkpt lat="44.23863" lon="3.23071">
        <ele>424.6</ele>
        <time>2015-08-30T12:17:57Z</time>
      </trkpt>
      <trkpt lat="44.23847" lon="3.23069">
        <ele>425.5</ele>
        <time>2015-08-30T12:17:58Z</time>
      </trkpt>
      <trkpt lat="44.23745" lon="3.23041">
        <ele>427.4</ele>
        <time>2015-08-30T12:18:04Z</time>
      </trkpt>
      <trkpt lat="44.23727" lon="3.23043">
        <ele>427.4</ele>
        <time>2015-08-30T12:18:05Z</time>
      </trkpt>
      <trkpt lat="44.23595" lon="3.23038">
        <ele>435.6</ele>
        <time>2015-08-30T12:18:11Z</time>
      </trkpt>
      <trkpt lat="44.23552" lon="3.23028">
        <ele>434.7</ele>
        <time>2015-08-30T12:18:13Z</time>
      </trkpt>
      <trkpt lat="44.23507" lon="3.23033">
        <ele>435.6</ele>
        <time>2015-08-30T12:18:15Z</time>
      </trkpt>
      <trkpt lat="44.23486" lon="3.23037">
        <ele>435.1</ele>
        <time>2015-08-30T12:18:16Z</time>
      </trkpt>
      <trkpt lat="44.2341" lon="3.23061">
        <ele>432.3</ele>
        <time>2015-08-30T12:18:20Z</time>
      </trkpt>
      <trkpt lat="44.23392" lon="3.23062">
        <ele>431.8</ele>
        <time>2015-08-30T12:18:21Z</time>
      </trkpt>
      <trkpt lat="44.23373" lon="3.2306">
        <ele>431.8</ele>
        <time>2015-08-30T12:18:22Z</time>
      </trkpt>
      <trkpt lat="44.23355" lon="3.23053">
        <ele>431.8</ele>
        <time>2015-08-30T12:18:23Z</time>
      </trkpt>
      <trkpt lat="44.23318" lon="3.2303">
        <ele>430.8</ele>
        <time>2015-08-30T12:18:25Z</time>
      </trkpt>
      <trkpt lat="44.23299" lon="3.23021">
        <ele>428.9</ele>
        <time>2015-08-30T12:18:26Z</time>
      </trkpt>
      <trkpt lat="44.23278" lon="3.23015">
        <ele>426.5</ele>
        <time>2015-08-30T12:18:27Z</time>
      </trkpt>
      <trkpt lat="44.2288" lon="3.22983">
        <ele>421.2</ele>
        <time>2015-08-30T12:18:45Z</time>
      </trkpt>
      <trkpt lat="44.22858" lon="3.22975">
        <ele>421.7</ele>
        <time>2015-08-30T12:18:46Z</time>
      </trkpt>
      <trkpt lat="44.22758" lon="3.22923">
        <ele>423.1</ele>
        <time>2015-08-30T12:18:51Z</time>
      </trkpt>
      <trkpt lat="44.22574" lon="3.22903">
        <ele>428.9</ele>
        <time>2015-08-30T12:19:00Z</time>
      </trkpt>
      <trkpt lat="44.22521" lon="3.22872">
        <ele>430.3</ele>
        <time>2015-08-30T12:19:03Z</time>
      </trkpt>
      <trkpt lat="44.22417" lon="3.22759">
        <ele>429.9</ele>
        <time>2015-08-30T12:19:11Z</time>
      </trkpt>
      <trkpt lat="44.22409" lon="3.22745">
        <ele>429.4</ele>
        <time>2015-08-30T12:19:12Z</time>
      </trkpt>
      <trkpt lat="44.22396" lon="3.2271">
        <ele>427.4</ele>
        <time>2015-08-30T12:19:14Z</time>
      </trkpt>
      <trkpt lat="44.22348" lon="3.22558">
        <ele>429.9</ele>
        <time>2015-08-30T12:19:20Z</time>
      </trkpt>
      <trkpt lat="44.22251" lon="3.22383">
        <ele>423.1</ele>
        <time>2015-08-30T12:19:26Z</time>
      </trkpt>
      <trkpt lat="44.22184" lon="3.22295">
        <ele>420.2</ele>
        <time>2015-08-30T12:19:30Z</time>
      </trkpt>
      <trkpt lat="44.2216" lon="3.22279">
        <ele>419.3</ele>
        <time>2015-08-30T12:19:31Z</time>
      </trkpt>
      <trkpt lat="44.21997" lon="3.22198">
        <ele>416.4</ele>
        <time>2015-08-30T12:19:39Z</time>
      </trkpt>
      <trkpt lat="44.21978" lon="3.22202">
        <ele>416.4</ele>
        <time>2015-08-30T12:19:40Z</time>
      </trkpt>
      <trkpt lat="44.21958" lon="3.2221">
        <ele>415.9</ele>
        <time>2015-08-30T12:19:41Z</time>
      </trkpt>
      <trkpt lat="44.21917" lon="3.22232">
        <ele>415.9</ele>
        <time>2015-08-30T12:19:43Z</time>
      </trkpt>
      <trkpt lat="44.21802" lon="3.22268">
        <ele>416.9</ele>
        <time>2015-08-30T12:19:49Z</time>
      </trkpt>
      <trkpt lat="44.21641" lon="3.22347">
        <ele>419.3</ele>
        <time>2015-08-30T12:19:57Z</time>
      </trkpt>
      <trkpt lat="44.21621" lon="3.22352">
        <ele>419.3</ele>
        <time>2015-08-30T12:19:58Z</time>
      </trkpt>
      <trkpt lat="44.21447" lon="3.2243">
        <ele>418.3</ele>
        <time>2015-08-30T12:20:06Z</time>
      </trkpt>
      <trkpt lat="44.21425" lon="3.22434">
        <ele>418.3</ele>
        <time>2015-08-30T12:20:07Z</time>
      </trkpt>
      <trkpt lat="44.21403" lon="3.22436">
        <ele>418.8</ele>
        <time>2015-08-30T12:20:08Z</time>
      </trkpt>
      <trkpt lat="44.21289" lon="3.22417">
        <ele>419.8</ele>
        <time>2015-08-30T12:20:14Z</time>
      </trkpt>
      <trkpt lat="44.21232" lon="3.22378">
        <ele>421.2</ele>
        <time>2015-08-30T12:20:17Z</time>
      </trkpt>
      <trkpt lat="44.21192" lon="3.22344">
        <ele>422.2</ele>
        <time>2015-08-30T12:20:19Z</time>
      </trkpt>
      <trkpt lat="44.21169" lon="3.22332">
        <ele>423.6</ele>
        <time>2015-08-30T12:20:20Z</time>
      </trkpt>
      <trkpt lat="44.21038" lon="3.22243">
        <ele>423.1</ele>
        <time>2015-08-30T12:20:27Z</time>
      </trkpt>
      <trkpt lat="44.20834" lon="3.22075">
        <ele>420.7</ele>
        <time>2015-08-30T12:20:39Z</time>
      </trkpt>
      <trkpt lat="44.20816" lon="3.22067">
        <ele>420.7</ele>
        <time>2015-08-30T12:20:40Z</time>
      </trkpt>
      <trkpt lat="44.208" lon="3.22057">
        <ele>420.7</ele>
        <time>2015-08-30T12:20:41Z</time>
      </trkpt>
      <trkpt lat="44.2076" lon="3.22013">
        <ele>420.2</ele>
        <time>2015-08-30T12:20:44Z</time>
      </trkpt>
      <trkpt lat="44.20741" lon="3.21998">
        <ele>418.8</ele>
        <time>2015-08-30T12:20:45Z</time>
      </trkpt>
      <trkpt lat="44.20721" lon="3.21987">
        <ele>417.8</ele>
        <time>2015-08-30T12:20:46Z</time>
      </trkpt>
      <trkpt lat="44.20663" lon="3.21959">
        <ele>415.4</ele>
        <time>2015-08-30T12:20:49Z</time>
      </trkpt>
      <trkpt lat="44.20617" lon="3.21919">
        <ele>412.5</ele>
        <time>2015-08-30T12:20:52Z</time>
      </trkpt>
      <trkpt lat="44.20603" lon="3.21911">
        <ele>411.1</ele>
        <time>2015-08-30T12:20:53Z</time>
      </trkpt>
      <trkpt lat="44.20586" lon="3.21909">
        <ele>409.7</ele>
        <time>2015-08-30T12:20:54Z</time>
      </trkpt>
      <trkpt lat="44.20569" lon="3.21908">
        <ele>408.7</ele>
        <time>2015-08-30T12:20:55Z</time>
      </trkpt>
      <trkpt lat="44.2055" lon="3.21905">
        <ele>408.2</ele>
        <time>2015-08-30T12:20:56Z</time>
      </trkpt>
      <trkpt lat="44.20532" lon="3.21896">
        <ele>407.7</ele>
        <time>2015-08-30T12:20:57Z</time>
      </trkpt>
      <trkpt lat="44.20516" lon="3.21879">
        <ele>406.3</ele>
        <time>2015-08-30T12:20:58Z</time>
      </trkpt>
      <trkpt lat="44.20483" lon="3.21836">
        <ele>405.3</ele>
        <time>2015-08-30T12:21:00Z</time>
      </trkpt>
      <trkpt lat="44.204" lon="3.21748">
        <ele>405.3</ele>
        <time>2015-08-30T12:21:05Z</time>
      </trkpt>
      <trkpt lat="44.20346" lon="3.21661">
        <ele>402</ele>
        <time>2015-08-30T12:21:09Z</time>
      </trkpt>
      <trkpt lat="44.20335" lon="3.21637">
        <ele>402.5</ele>
        <time>2015-08-30T12:21:10Z</time>
      </trkpt>
      <trkpt lat="44.2024" lon="3.215">
        <ele>401.5</ele>
        <time>2015-08-30T12:21:16Z</time>
      </trkpt>
      <trkpt lat="44.20116" lon="3.21414">
        <ele>400.1</ele>
        <time>2015-08-30T12:21:23Z</time>
      </trkpt>
      <trkpt lat="44.20099" lon="3.21407">
        <ele>400.5</ele>
        <time>2015-08-30T12:21:24Z</time>
      </trkpt>
      <trkpt lat="44.19932" lon="3.21381">
        <ele>398.6</ele>
        <time>2015-08-30T12:21:32Z</time>
      </trkpt>
      <trkpt lat="44.19795" lon="3.21305">
        <ele>397.2</ele>
        <time>2015-08-30T12:21:38Z</time>
      </trkpt>
      <trkpt lat="44.19655" lon="3.21181">
        <ele>398.6</ele>
        <time>2015-08-30T12:21:49Z</time>
      </trkpt>
      <trkpt lat="44.19642" lon="3.21175">
        <ele>398.6</ele>
        <time>2015-08-30T12:21:50Z</time>
      </trkpt>
      <trkpt lat="44.19629" lon="3.21171">
        <ele>398.6</ele>
        <time>2015-08-30T12:21:51Z</time>
      </trkpt>
      <trkpt lat="44.19592" lon="3.21155">
        <ele>400.5</ele>
        <time>2015-08-30T12:21:54Z</time>
      </trkpt>
      <trkpt lat="44.19582" lon="3.21144">
        <ele>401</ele>
        <time>2015-08-30T12:21:55Z</time>
      </trkpt>
      <trkpt lat="44.19529" lon="3.21069">
        <ele>402.5</ele>
        <time>2015-08-30T12:22:01Z</time>
      </trkpt>
      <trkpt lat="44.19517" lon="3.21037">
        <ele>402</ele>
        <time>2015-08-30T12:22:03Z</time>
      </trkpt>
      <trkpt lat="44.19472" lon="3.20877">
        <ele>405.3</ele>
        <time>2015-08-30T12:22:14Z</time>
      </trkpt>
      <trkpt lat="44.19451" lon="3.2072">
        <ele>406.8</ele>
        <time>2015-08-30T12:22:24Z</time>
      </trkpt>
      <trkpt lat="44.19451" lon="3.20678">
        <ele>406.3</ele>
        <time>2015-08-30T12:22:26Z</time>
      </trkpt>
      <trkpt lat="44.19458" lon="3.2059">
        <ele>405.8</ele>
        <time>2015-08-30T12:22:30Z</time>
      </trkpt>
      <trkpt lat="44.19447" lon="3.20487">
        <ele>405.3</ele>
        <time>2015-08-30T12:22:35Z</time>
      </trkpt>
      <trkpt lat="44.19451" lon="3.20465">
        <ele>404.9</ele>
        <time>2015-08-30T12:22:36Z</time>
      </trkpt>
      <trkpt lat="44.19478" lon="3.20401">
        <ele>405.8</ele>
        <time>2015-08-30T12:22:39Z</time>
      </trkpt>
      <trkpt lat="44.19491" lon="3.20354">
        <ele>405.8</ele>
        <time>2015-08-30T12:22:41Z</time>
      </trkpt>
      <trkpt lat="44.19556" lon="3.20043">
        <ele>405.3</ele>
        <time>2015-08-30T12:22:55Z</time>
      </trkpt>
      <trkpt lat="44.19564" lon="3.20023">
        <ele>405.3</ele>
        <time>2015-08-30T12:22:56Z</time>
      </trkpt>
      <trkpt lat="44.19708" lon="3.19772">
        <ele>404.9</ele>
        <time>2015-08-30T12:23:08Z</time>
      </trkpt>
      <trkpt lat="44.19875" lon="3.19254">
        <ele>405.3</ele>
        <time>2015-08-30T12:23:26Z</time>
      </trkpt>
      <trkpt lat="44.19883" lon="3.19196">
        <ele>405.8</ele>
        <time>2015-08-30T12:23:28Z</time>
      </trkpt>
      <trkpt lat="44.19877" lon="3.19091">
        <ele>407.3</ele>
        <time>2015-08-30T12:23:32Z</time>
      </trkpt>
      <trkpt lat="44.19867" lon="3.19067">
        <ele>407.7</ele>
        <time>2015-08-30T12:23:33Z</time>
      </trkpt>
      <trkpt lat="44.19773" lon="3.189">
        <ele>404.4</ele>
        <time>2015-08-30T12:23:41Z</time>
      </trkpt>
      <trkpt lat="44.19756" lon="3.18888">
        <ele>404.4</ele>
        <time>2015-08-30T12:23:42Z</time>
      </trkpt>
      <trkpt lat="44.19699" lon="3.18863">
        <ele>404.9</ele>
        <time>2015-08-30T12:23:45Z</time>
      </trkpt>
      <trkpt lat="44.19666" lon="3.18842">
        <ele>406.3</ele>
        <time>2015-08-30T12:23:47Z</time>
      </trkpt>
      <trkpt lat="44.19654" lon="3.18826">
        <ele>408.2</ele>
        <time>2015-08-30T12:23:48Z</time>
      </trkpt>
      <trkpt lat="44.19646" lon="3.18802">
        <ele>408.2</ele>
        <time>2015-08-30T12:23:49Z</time>
      </trkpt>
      <trkpt lat="44.19636" lon="3.18747">
        <ele>409.2</ele>
        <time>2015-08-30T12:23:51Z</time>
      </trkpt>
      <trkpt lat="44.19635" lon="3.1872">
        <ele>409.2</ele>
        <time>2015-08-30T12:23:52Z</time>
      </trkpt>
      <trkpt lat="44.19638" lon="3.18693">
        <ele>410.1</ele>
        <time>2015-08-30T12:23:53Z</time>
      </trkpt>
      <trkpt lat="44.19644" lon="3.18667">
        <ele>409.7</ele>
        <time>2015-08-30T12:23:54Z</time>
      </trkpt>
      <trkpt lat="44.19668" lon="3.18618">
        <ele>410.1</ele>
        <time>2015-08-30T12:23:56Z</time>
      </trkpt>
      <trkpt lat="44.19685" lon="3.18598">
        <ele>410.1</ele>
        <time>2015-08-30T12:23:57Z</time>
      </trkpt>
      <trkpt lat="44.19704" lon="3.18581">
        <ele>409.7</ele>
        <time>2015-08-30T12:23:58Z</time>
      </trkpt>
      <trkpt lat="44.19904" lon="3.18438">
        <ele>405.8</ele>
        <time>2015-08-30T12:24:08Z</time>
      </trkpt>
      <trkpt lat="44.19922" lon="3.18416">
        <ele>405.8</ele>
        <time>2015-08-30T12:24:09Z</time>
      </trkpt>
      <trkpt lat="44.19938" lon="3.1839">
        <ele>405.3</ele>
        <time>2015-08-30T12:24:10Z</time>
      </trkpt>
      <trkpt lat="44.19963" lon="3.18329">
        <ele>404.4</ele>
        <time>2015-08-30T12:24:12Z</time>
      </trkpt>
      <trkpt lat="44.1998" lon="3.18266">
        <ele>403.9</ele>
        <time>2015-08-30T12:24:14Z</time>
      </trkpt>
      <trkpt lat="44.19983" lon="3.18233">
        <ele>403.4</ele>
        <time>2015-08-30T12:24:15Z</time>
      </trkpt>
      <trkpt lat="44.19979" lon="3.18074">
        <ele>401.5</ele>
        <time>2015-08-30T12:24:20Z</time>
      </trkpt>
      <trkpt lat="44.19982" lon="3.18045">
        <ele>401.5</ele>
        <time>2015-08-30T12:24:21Z</time>
      </trkpt>
      <trkpt lat="44.19997" lon="3.1799">
        <ele>401</ele>
        <time>2015-08-30T12:24:23Z</time>
      </trkpt>
      <trkpt lat="44.20085" lon="3.17761">
        <ele>400.1</ele>
        <time>2015-08-30T12:24:34Z</time>
      </trkpt>
      <trkpt lat="44.2009" lon="3.1774">
        <ele>399.6</ele>
        <time>2015-08-30T12:24:35Z</time>
      </trkpt>
      <trkpt lat="44.20114" lon="3.17512">
        <ele>398.1</ele>
        <time>2015-08-30T12:24:44Z</time>
      </trkpt>
      <trkpt lat="44.2012" lon="3.17482">
        <ele>397.6</ele>
        <time>2015-08-30T12:24:45Z</time>
      </trkpt>
      <trkpt lat="44.2018" lon="3.17321">
        <ele>396.7</ele>
        <time>2015-08-30T12:24:52Z</time>
      </trkpt>
      <trkpt lat="44.20185" lon="3.17297">
        <ele>396.7</ele>
        <time>2015-08-30T12:24:53Z</time>
      </trkpt>
      <trkpt lat="44.20187" lon="3.17238">
        <ele>397.2</ele>
        <time>2015-08-30T12:24:55Z</time>
      </trkpt>
      <trkpt lat="44.2018" lon="3.17172">
        <ele>398.1</ele>
        <time>2015-08-30T12:24:57Z</time>
      </trkpt>
      <trkpt lat="44.20097" lon="3.16127">
        <ele>397.6</ele>
        <time>2015-08-30T12:25:29Z</time>
      </trkpt>
      <trkpt lat="44.20104" lon="3.16042">
        <ele>396.7</ele>
        <time>2015-08-30T12:25:32Z</time>
      </trkpt>
      <trkpt lat="44.20113" lon="3.16024">
        <ele>396.2</ele>
        <time>2015-08-30T12:25:33Z</time>
      </trkpt>
      <trkpt lat="44.20125" lon="3.16009">
        <ele>395.7</ele>
        <time>2015-08-30T12:25:34Z</time>
      </trkpt>
      <trkpt lat="44.20154" lon="3.15986">
        <ele>395.7</ele>
        <time>2015-08-30T12:25:36Z</time>
      </trkpt>
      <trkpt lat="44.20171" lon="3.15978">
        <ele>395.7</ele>
        <time>2015-08-30T12:25:37Z</time>
      </trkpt>
      <trkpt lat="44.20339" lon="3.15914">
        <ele>394.8</ele>
        <time>2015-08-30T12:25:49Z</time>
      </trkpt>
      <trkpt lat="44.20358" lon="3.15903">
        <ele>394.3</ele>
        <time>2015-08-30T12:25:51Z</time>
      </trkpt>
      <trkpt lat="44.20366" lon="3.15895">
        <ele>394.3</ele>
        <time>2015-08-30T12:25:52Z</time>
      </trkpt>
      <trkpt lat="44.20368" lon="3.15884">
        <ele>394.3</ele>
        <time>2015-08-30T12:25:53Z</time>
      </trkpt>
      <trkpt lat="44.20367" lon="3.1587">
        <ele>393.8</ele>
        <time>2015-08-30T12:25:54Z</time>
      </trkpt>
      <trkpt lat="44.20339" lon="3.15743">
        <ele>394.8</ele>
        <time>2015-08-30T12:26:01Z</time>
      </trkpt>
      <trkpt lat="44.20328" lon="3.15727">
        <ele>394.8</ele>
        <time>2015-08-30T12:26:02Z</time>
      </trkpt>
      <trkpt lat="44.20314" lon="3.15714">
        <ele>394.8</ele>
        <time>2015-08-30T12:26:03Z</time>
      </trkpt>
      <trkpt lat="44.203" lon="3.15703">
        <ele>394.8</ele>
        <time>2015-08-30T12:26:04Z</time>
      </trkpt>
      <trkpt lat="44.20283" lon="3.15698">
        <ele>395.2</ele>
        <time>2015-08-30T12:26:05Z</time>
      </trkpt>
      <trkpt lat="44.20245" lon="3.15699">
        <ele>397.2</ele>
        <time>2015-08-30T12:26:07Z</time>
      </trkpt>
      <trkpt lat="44.20153" lon="3.15695">
        <ele>401.5</ele>
        <time>2015-08-30T12:26:12Z</time>
      </trkpt>
      <trkpt lat="44.20137" lon="3.15687">
        <ele>402.5</ele>
        <time>2015-08-30T12:26:13Z</time>
      </trkpt>
      <trkpt lat="44.20121" lon="3.15674">
        <ele>402.9</ele>
        <time>2015-08-30T12:26:14Z</time>
      </trkpt>
      <trkpt lat="44.20108" lon="3.15652">
        <ele>403.4</ele>
        <time>2015-08-30T12:26:15Z</time>
      </trkpt>
      <trkpt lat="44.2005" lon="3.15481">
        <ele>404.4</ele>
        <time>2015-08-30T12:26:21Z</time>
      </trkpt>
      <trkpt lat="44.20034" lon="3.15454">
        <ele>404.9</ele>
        <time>2015-08-30T12:26:22Z</time>
      </trkpt>
      <trkpt lat="44.19997" lon="3.15406">
        <ele>403.9</ele>
        <time>2015-08-30T12:26:24Z</time>
      </trkpt>
      <trkpt lat="44.19975" lon="3.15387">
        <ele>402.9</ele>
        <time>2015-08-30T12:26:25Z</time>
      </trkpt>
      <trkpt lat="44.19951" lon="3.15372">
        <ele>402.9</ele>
        <time>2015-08-30T12:26:26Z</time>
      </trkpt>
      <trkpt lat="44.19925" lon="3.15361">
        <ele>402.9</ele>
        <time>2015-08-30T12:26:27Z</time>
      </trkpt>
      <trkpt lat="44.19899" lon="3.15356">
        <ele>402.5</ele>
        <time>2015-08-30T12:26:28Z</time>
      </trkpt>
      <trkpt lat="44.19872" lon="3.15355">
        <ele>402.5</ele>
        <time>2015-08-30T12:26:29Z</time>
      </trkpt>
      <trkpt lat="44.19845" lon="3.15358">
        <ele>402.5</ele>
        <time>2015-08-30T12:26:30Z</time>
      </trkpt>
      <trkpt lat="44.19791" lon="3.1537">
        <ele>403.9</ele>
        <time>2015-08-30T12:26:32Z</time>
      </trkpt>
      <trkpt lat="44.19613" lon="3.15363">
        <ele>407.3</ele>
        <time>2015-08-30T12:26:39Z</time>
      </trkpt>
      <trkpt lat="44.19589" lon="3.15366">
        <ele>407.7</ele>
        <time>2015-08-30T12:26:40Z</time>
      </trkpt>
      <trkpt lat="44.19566" lon="3.15372">
        <ele>407.7</ele>
        <time>2015-08-30T12:26:41Z</time>
      </trkpt>
      <trkpt lat="44.19481" lon="3.1541">
        <ele>406.8</ele>
        <time>2015-08-30T12:26:45Z</time>
      </trkpt>
      <trkpt lat="44.19463" lon="3.15429">
        <ele>406.8</ele>
        <time>2015-08-30T12:26:46Z</time>
      </trkpt>
      <trkpt lat="44.19449" lon="3.1545">
        <ele>406.3</ele>
        <time>2015-08-30T12:26:47Z</time>
      </trkpt>
      <trkpt lat="44.19337" lon="3.15579">
        <ele>406.8</ele>
        <time>2015-08-30T12:26:55Z</time>
      </trkpt>
      <trkpt lat="44.19303" lon="3.15606">
        <ele>406.8</ele>
        <time>2015-08-30T12:26:58Z</time>
      </trkpt>
      <trkpt lat="44.19196" lon="3.15639">
        <ele>403.9</ele>
        <time>2015-08-30T12:27:04Z</time>
      </trkpt>
      <trkpt lat="44.19087" lon="3.15649">
        <ele>401.5</ele>
        <time>2015-08-30T12:27:09Z</time>
      </trkpt>
      <trkpt lat="44.19065" lon="3.15644">
        <ele>401</ele>
        <time>2015-08-30T12:27:10Z</time>
      </trkpt>
      <trkpt lat="44.19044" lon="3.15634">
        <ele>400.5</ele>
        <time>2015-08-30T12:27:11Z</time>
      </trkpt>
      <trkpt lat="44.19006" lon="3.15603">
        <ele>399.6</ele>
        <time>2015-08-30T12:27:13Z</time>
      </trkpt>
      <trkpt lat="44.18988" lon="3.15585">
        <ele>399.1</ele>
        <time>2015-08-30T12:27:14Z</time>
      </trkpt>
      <trkpt lat="44.18971" lon="3.15565">
        <ele>398.6</ele>
        <time>2015-08-30T12:27:15Z</time>
      </trkpt>
      <trkpt lat="44.18959" lon="3.15537">
        <ele>398.1</ele>
        <time>2015-08-30T12:27:16Z</time>
      </trkpt>
      <trkpt lat="44.18949" lon="3.15507">
        <ele>397.6</ele>
        <time>2015-08-30T12:27:17Z</time>
      </trkpt>
      <trkpt lat="44.18942" lon="3.15475">
        <ele>395.7</ele>
        <time>2015-08-30T12:27:18Z</time>
      </trkpt>
      <trkpt lat="44.18939" lon="3.15441">
        <ele>394.8</ele>
        <time>2015-08-30T12:27:19Z</time>
      </trkpt>
      <trkpt lat="44.1894" lon="3.15408">
        <ele>393.3</ele>
        <time>2015-08-30T12:27:20Z</time>
      </trkpt>
      <trkpt lat="44.18945" lon="3.15373">
        <ele>394.3</ele>
        <time>2015-08-30T12:27:21Z</time>
      </trkpt>
      <trkpt lat="44.19138" lon="3.1473">
        <ele>388.5</ele>
        <time>2015-08-30T12:27:43Z</time>
      </trkpt>
      <trkpt lat="44.19141" lon="3.147">
        <ele>388.5</ele>
        <time>2015-08-30T12:27:44Z</time>
      </trkpt>
      <trkpt lat="44.19138" lon="3.14643">
        <ele>388.5</ele>
        <time>2015-08-30T12:27:46Z</time>
      </trkpt>
      <trkpt lat="44.18802" lon="3.13027">
        <ele>388.5</ele>
        <time>2015-08-30T12:29:09Z</time>
      </trkpt>
      <trkpt lat="44.18795" lon="3.13016">
        <ele>388.5</ele>
        <time>2015-08-30T12:29:10Z</time>
      </trkpt>
      <trkpt lat="44.18786" lon="3.13005">
        <ele>388.5</ele>
        <time>2015-08-30T12:29:11Z</time>
      </trkpt>
      <trkpt lat="44.18423" lon="3.12706">
        <ele>384.7</ele>
        <time>2015-08-30T12:29:38Z</time>
      </trkpt>
      <trkpt lat="44.1826" lon="3.12638">
        <ele>387.6</ele>
        <time>2015-08-30T12:29:47Z</time>
      </trkpt>
      <trkpt lat="44.18242" lon="3.1262">
        <ele>388</ele>
        <time>2015-08-30T12:29:48Z</time>
      </trkpt>
      <trkpt lat="44.18127" lon="3.12535">
        <ele>389.5</ele>
        <time>2015-08-30T12:29:53Z</time>
      </trkpt>
      <trkpt lat="44.17935" lon="3.12442">
        <ele>391.9</ele>
        <time>2015-08-30T12:30:00Z</time>
      </trkpt>
      <trkpt lat="44.17865" lon="3.1242">
        <ele>393.8</ele>
        <time>2015-08-30T12:30:03Z</time>
      </trkpt>
      <trkpt lat="44.17633" lon="3.12442">
        <ele>397.2</ele>
        <time>2015-08-30T12:30:14Z</time>
      </trkpt>
      <trkpt lat="44.17568" lon="3.12441">
        <ele>396.7</ele>
        <time>2015-08-30T12:30:17Z</time>
      </trkpt>
      <trkpt lat="44.17546" lon="3.12435">
        <ele>396.7</ele>
        <time>2015-08-30T12:30:18Z</time>
      </trkpt>
      <trkpt lat="44.17471" lon="3.12404">
        <ele>396.2</ele>
        <time>2015-08-30T12:30:22Z</time>
      </trkpt>
      <trkpt lat="44.17452" lon="3.12401">
        <ele>395.7</ele>
        <time>2015-08-30T12:30:23Z</time>
      </trkpt>
      <trkpt lat="44.17433" lon="3.12402">
        <ele>395.7</ele>
        <time>2015-08-30T12:30:24Z</time>
      </trkpt>
      <trkpt lat="44.17414" lon="3.12405">
        <ele>395.2</ele>
        <time>2015-08-30T12:30:25Z</time>
      </trkpt>
      <trkpt lat="44.17395" lon="3.12412">
        <ele>394.8</ele>
        <time>2015-08-30T12:30:26Z</time>
      </trkpt>
      <trkpt lat="44.17323" lon="3.1245">
        <ele>393.8</ele>
        <time>2015-08-30T12:30:30Z</time>
      </trkpt>
      <trkpt lat="44.17305" lon="3.12455">
        <ele>393.3</ele>
        <time>2015-08-30T12:30:31Z</time>
      </trkpt>
      <trkpt lat="44.17285" lon="3.12456">
        <ele>393.3</ele>
        <time>2015-08-30T12:30:32Z</time>
      </trkpt>
      <trkpt lat="44.17243" lon="3.1245">
        <ele>392.8</ele>
        <time>2015-08-30T12:30:34Z</time>
      </trkpt>
      <trkpt lat="44.17093" lon="3.12389">
        <ele>390.4</ele>
        <time>2015-08-30T12:30:41Z</time>
      </trkpt>
      <trkpt lat="44.16995" lon="3.12332">
        <ele>389.5</ele>
        <time>2015-08-30T12:30:46Z</time>
      </trkpt>
      <trkpt lat="44.16978" lon="3.12317">
        <ele>389.5</ele>
        <time>2015-08-30T12:30:47Z</time>
      </trkpt>
      <trkpt lat="44.16966" lon="3.12293">
        <ele>389.5</ele>
        <time>2015-08-30T12:30:48Z</time>
      </trkpt>
      <trkpt lat="44.16824" lon="3.11884">
        <ele>387.6</ele>
        <time>2015-08-30T12:31:05Z</time>
      </trkpt>
      <trkpt lat="44.16759" lon="3.11526">
        <ele>388.5</ele>
        <time>2015-08-30T12:31:33Z</time>
      </trkpt>
      <trkpt lat="44.16753" lon="3.1151">
        <ele>388.5</ele>
        <time>2015-08-30T12:31:34Z</time>
      </trkpt>
      <trkpt lat="44.16746" lon="3.11494">
        <ele>388.5</ele>
        <time>2015-08-30T12:31:35Z</time>
      </trkpt>
      <trkpt lat="44.16736" lon="3.1148">
        <ele>388.5</ele>
        <time>2015-08-30T12:31:36Z</time>
      </trkpt>
      <trkpt lat="44.16724" lon="3.11467">
        <ele>388.5</ele>
        <time>2015-08-30T12:31:37Z</time>
      </trkpt>
      <trkpt lat="44.16542" lon="3.11321">
        <ele>384.2</ele>
        <time>2015-08-30T12:31:48Z</time>
      </trkpt>
      <trkpt lat="44.16521" lon="3.1131">
        <ele>383.7</ele>
        <time>2015-08-30T12:31:49Z</time>
      </trkpt>
      <trkpt lat="44.16497" lon="3.11309">
        <ele>383.7</ele>
        <time>2015-08-30T12:31:50Z</time>
      </trkpt>
      <trkpt lat="44.16215" lon="3.1138">
        <ele>383.2</ele>
        <time>2015-08-30T12:32:01Z</time>
      </trkpt>
      <trkpt lat="44.1617" lon="3.11371">
        <ele>383.2</ele>
        <time>2015-08-30T12:32:03Z</time>
      </trkpt>
      <trkpt lat="44.1615" lon="3.11354">
        <ele>383.2</ele>
        <time>2015-08-30T12:32:04Z</time>
      </trkpt>
      <trkpt lat="44.16131" lon="3.11332">
        <ele>383.2</ele>
        <time>2015-08-30T12:32:05Z</time>
      </trkpt>
      <trkpt lat="44.16068" lon="3.11208">
        <ele>380.3</ele>
        <time>2015-08-30T12:32:09Z</time>
      </trkpt>
      <trkpt lat="44.15978" lon="3.11014">
        <ele>379.4</ele>
        <time>2015-08-30T12:32:16Z</time>
      </trkpt>
      <trkpt lat="44.15767" lon="3.0998">
        <ele>377.5</ele>
        <time>2015-08-30T12:33:25Z</time>
      </trkpt>
      <trkpt lat="44.15755" lon="3.09955">
        <ele>377.5</ele>
        <time>2015-08-30T12:33:27Z</time>
      </trkpt>
      <trkpt lat="44.15694" lon="3.09861">
        <ele>374.1</ele>
        <time>2015-08-30T12:33:37Z</time>
      </trkpt>
      <trkpt lat="44.15689" lon="3.09856">
        <ele>374.1</ele>
        <time>2015-08-30T12:33:38Z</time>
      </trkpt>
      <trkpt lat="44.15682" lon="3.09852">
        <ele>373.6</ele>
        <time>2015-08-30T12:33:39Z</time>
      </trkpt>
      <trkpt lat="44.15674" lon="3.0985">
        <ele>372.7</ele>
        <time>2015-08-30T12:33:40Z</time>
      </trkpt>
      <trkpt lat="44.15558" lon="3.09842">
        <ele>373.1</ele>
        <time>2015-08-30T12:33:52Z</time>
      </trkpt>
      <trkpt lat="44.15541" lon="3.09836">
        <ele>374.1</ele>
        <time>2015-08-30T12:33:54Z</time>
      </trkpt>
      <trkpt lat="44.15534" lon="3.09832">
        <ele>374.1</ele>
        <time>2015-08-30T12:33:55Z</time>
      </trkpt>
      <trkpt lat="44.15514" lon="3.09816">
        <ele>377</ele>
        <time>2015-08-30T12:34:02Z</time>
      </trkpt>
      <trkpt lat="44.15507" lon="3.09802">
        <ele>378.4</ele>
        <time>2015-08-30T12:34:06Z</time>
      </trkpt>
      <trkpt lat="44.15502" lon="3.09799">
        <ele>378.4</ele>
        <time>2015-08-30T12:34:07Z</time>
      </trkpt>
      <trkpt lat="44.15497" lon="3.09797">
        <ele>378.4</ele>
        <time>2015-08-30T12:34:08Z</time>
      </trkpt>
      <trkpt lat="44.15155" lon="3.0978">
        <ele>378.4</ele>
        <time>2015-08-30T12:34:36Z</time>
      </trkpt>
      <trkpt lat="44.15012" lon="3.09804">
        <ele>382.7</ele>
        <time>2015-08-30T12:34:43Z</time>
      </trkpt>
      <trkpt lat="44.14844" lon="3.09798">
        <ele>385.6</ele>
        <time>2015-08-30T12:34:50Z</time>
      </trkpt>
      <trkpt lat="44.14725" lon="3.09782">
        <ele>387.1</ele>
        <time>2015-08-30T12:34:55Z</time>
      </trkpt>
      <trkpt lat="44.14705" lon="3.09788">
        <ele>387.1</ele>
        <time>2015-08-30T12:34:56Z</time>
      </trkpt>
      <trkpt lat="44.14668" lon="3.09821">
        <ele>386.6</ele>
        <time>2015-08-30T12:34:58Z</time>
      </trkpt>
      <trkpt lat="44.14649" lon="3.09841">
        <ele>386.6</ele>
        <time>2015-08-30T12:34:59Z</time>
      </trkpt>
      <trkpt lat="44.14603" lon="3.09866">
        <ele>387.1</ele>
        <time>2015-08-30T12:35:01Z</time>
      </trkpt>
      <trkpt lat="44.14578" lon="3.09872">
        <ele>387.1</ele>
        <time>2015-08-30T12:35:02Z</time>
      </trkpt>
      <trkpt lat="44.14554" lon="3.09883">
        <ele>387.1</ele>
        <time>2015-08-30T12:35:03Z</time>
      </trkpt>
      <trkpt lat="44.1451" lon="3.09909">
        <ele>386.6</ele>
        <time>2015-08-30T12:35:05Z</time>
      </trkpt>
      <trkpt lat="44.1447" lon="3.09913">
        <ele>383.2</ele>
        <time>2015-08-30T12:35:07Z</time>
      </trkpt>
      <trkpt lat="44.14454" lon="3.0991">
        <ele>384.2</ele>
        <time>2015-08-30T12:35:08Z</time>
      </trkpt>
      <trkpt lat="44.1443" lon="3.09898">
        <ele>384.7</ele>
        <time>2015-08-30T12:35:09Z</time>
      </trkpt>
      <trkpt lat="44.14381" lon="3.09867">
        <ele>384.7</ele>
        <time>2015-08-30T12:35:11Z</time>
      </trkpt>
      <trkpt lat="44.14357" lon="3.09855">
        <ele>385.2</ele>
        <time>2015-08-30T12:35:12Z</time>
      </trkpt>
      <trkpt lat="44.14332" lon="3.09848">
        <ele>385.6</ele>
        <time>2015-08-30T12:35:13Z</time>
      </trkpt>
      <trkpt lat="44.14307" lon="3.09844">
        <ele>386.1</ele>
        <time>2015-08-30T12:35:14Z</time>
      </trkpt>
      <trkpt lat="44.14283" lon="3.09843">
        <ele>387.1</ele>
        <time>2015-08-30T12:35:15Z</time>
      </trkpt>
      <trkpt lat="44.14261" lon="3.09849">
        <ele>387.1</ele>
        <time>2015-08-30T12:35:16Z</time>
      </trkpt>
      <trkpt lat="44.14237" lon="3.09862">
        <ele>387.6</ele>
        <time>2015-08-30T12:35:17Z</time>
      </trkpt>
      <trkpt lat="44.1419" lon="3.09897">
        <ele>388</ele>
        <time>2015-08-30T12:35:19Z</time>
      </trkpt>
      <trkpt lat="44.14063" lon="3.10046">
        <ele>390.4</ele>
        <time>2015-08-30T12:35:26Z</time>
      </trkpt>
      <trkpt lat="44.14042" lon="3.10055">
        <ele>390.9</ele>
        <time>2015-08-30T12:35:27Z</time>
      </trkpt>
      <trkpt lat="44.14019" lon="3.1006">
        <ele>391.4</ele>
        <time>2015-08-30T12:35:28Z</time>
      </trkpt>
      <trkpt lat="44.13996" lon="3.10059">
        <ele>391.4</ele>
        <time>2015-08-30T12:35:29Z</time>
      </trkpt>
      <trkpt lat="44.13907" lon="3.10022">
        <ele>392.4</ele>
        <time>2015-08-30T12:35:33Z</time>
      </trkpt>
      <trkpt lat="44.13593" lon="3.09962">
        <ele>391.4</ele>
        <time>2015-08-30T12:35:44Z</time>
      </trkpt>
      <trkpt lat="44.13378" lon="3.09929">
        <ele>387.6</ele>
        <time>2015-08-30T12:35:51Z</time>
      </trkpt>
      <trkpt lat="44.1309" lon="3.09821">
        <ele>382.7</ele>
        <time>2015-08-30T12:36:00Z</time>
      </trkpt>
      <trkpt lat="44.12914" lon="3.09803">
        <ele>384.7</ele>
        <time>2015-08-30T12:36:05Z</time>
      </trkpt>
      <trkpt lat="44.12707" lon="3.09838">
        <ele>387.6</ele>
        <time>2015-08-30T12:36:11Z</time>
      </trkpt>
      <trkpt lat="44.12675" lon="3.09831">
        <ele>388</ele>
        <time>2015-08-30T12:36:12Z</time>
      </trkpt>
      <trkpt lat="44.12644" lon="3.09821">
        <ele>389</ele>
        <time>2015-08-30T12:36:13Z</time>
      </trkpt>
      <trkpt lat="44.12614" lon="3.09806">
        <ele>389.5</ele>
        <time>2015-08-30T12:36:14Z</time>
      </trkpt>
      <trkpt lat="44.12585" lon="3.09785">
        <ele>390</ele>
        <time>2015-08-30T12:36:15Z</time>
      </trkpt>
      <trkpt lat="44.12537" lon="3.09725">
        <ele>390.9</ele>
        <time>2015-08-30T12:36:17Z</time>
      </trkpt>
      <trkpt lat="44.12359" lon="3.09434">
        <ele>391.4</ele>
        <time>2015-08-30T12:36:27Z</time>
      </trkpt>
      <trkpt lat="44.12116" lon="3.08933">
        <ele>379.4</ele>
        <time>2015-08-30T12:36:44Z</time>
      </trkpt>
      <trkpt lat="44.11982" lon="3.08727">
        <ele>379.9</ele>
        <time>2015-08-30T12:36:53Z</time>
      </trkpt>
      <trkpt lat="44.11865" lon="3.0858">
        <ele>376</ele>
        <time>2015-08-30T12:37:03Z</time>
      </trkpt>
      <trkpt lat="44.11843" lon="3.08559">
        <ele>375.1</ele>
        <time>2015-08-30T12:37:05Z</time>
      </trkpt>
      <trkpt lat="44.11832" lon="3.08551">
        <ele>375.1</ele>
        <time>2015-08-30T12:37:06Z</time>
      </trkpt>
      <trkpt lat="44.1182" lon="3.08546">
        <ele>374.6</ele>
        <time>2015-08-30T12:37:07Z</time>
      </trkpt>
      <trkpt lat="44.11705" lon="3.08518">
        <ele>374.6</ele>
        <time>2015-08-30T12:37:18Z</time>
      </trkpt>
      <trkpt lat="44.11686" lon="3.08507">
        <ele>374.1</ele>
        <time>2015-08-30T12:37:20Z</time>
      </trkpt>
      <trkpt lat="44.11639" lon="3.08469">
        <ele>375.5</ele>
        <time>2015-08-30T12:37:27Z</time>
      </trkpt>
      <trkpt lat="44.11636" lon="3.08465">
        <ele>375.1</ele>
        <time>2015-08-30T12:37:28Z</time>
      </trkpt>
      <trkpt lat="44.11635" lon="3.08462">
        <ele>375.5</ele>
        <time>2015-08-30T12:37:29Z</time>
      </trkpt>
      <trkpt lat="44.11629" lon="3.08439">
        <ele>375.5</ele>
        <time>2015-08-30T12:37:34Z</time>
      </trkpt>
      <trkpt lat="44.11626" lon="3.08431">
        <ele>375.5</ele>
        <time>2015-08-30T12:37:35Z</time>
      </trkpt>
      <trkpt lat="44.1162" lon="3.08426">
        <ele>375.5</ele>
        <time>2015-08-30T12:37:36Z</time>
      </trkpt>
      <trkpt lat="44.11612" lon="3.08423">
        <ele>375.5</ele>
        <time>2015-08-30T12:37:37Z</time>
      </trkpt>
      <trkpt lat="44.11604" lon="3.08424">
        <ele>375.1</ele>
        <time>2015-08-30T12:37:38Z</time>
      </trkpt>
      <trkpt lat="44.11595" lon="3.08426">
        <ele>374.6</ele>
        <time>2015-08-30T12:37:39Z</time>
      </trkpt>
      <trkpt lat="44.11587" lon="3.08424">
        <ele>374.1</ele>
        <time>2015-08-30T12:37:40Z</time>
      </trkpt>
      <trkpt lat="44.1158" lon="3.0842">
        <ele>374.1</ele>
        <time>2015-08-30T12:37:41Z</time>
      </trkpt>
      <trkpt lat="44.11448" lon="3.08316">
        <ele>371.7</ele>
        <time>2015-08-30T12:37:57Z</time>
      </trkpt>
      <trkpt lat="44.11344" lon="3.0826">
        <ele>371.2</ele>
        <time>2015-08-30T12:38:08Z</time>
      </trkpt>
      <trkpt lat="44.1073" lon="3.08088">
        <ele>368.3</ele>
        <time>2015-08-30T12:39:17Z</time>
      </trkpt>
      <trkpt lat="44.10723" lon="3.08089">
        <ele>368.3</ele>
        <time>2015-08-30T12:39:18Z</time>
      </trkpt>
      <trkpt lat="44.10716" lon="3.08093">
        <ele>368.3</ele>
        <time>2015-08-30T12:39:19Z</time>
      </trkpt>
      <trkpt lat="44.10713" lon="3.08104">
        <ele>367.4</ele>
        <time>2015-08-30T12:39:20Z</time>
      </trkpt>
      <trkpt lat="44.10712" lon="3.08115">
        <ele>365.9</ele>
        <time>2015-08-30T12:39:21Z</time>
      </trkpt>
      <trkpt lat="44.10718" lon="3.08151">
        <ele>364</ele>
        <time>2015-08-30T12:39:24Z</time>
      </trkpt>
      <trkpt lat="44.10717" lon="3.08176">
        <ele>364.5</ele>
        <time>2015-08-30T12:39:26Z</time>
      </trkpt>
      <trkpt lat="44.10687" lon="3.08385">
        <ele>363.5</ele>
        <time>2015-08-30T12:39:40Z</time>
      </trkpt>
      <trkpt lat="44.10681" lon="3.08399">
        <ele>363.5</ele>
        <time>2015-08-30T12:39:41Z</time>
      </trkpt>
      <trkpt lat="44.10672" lon="3.08412">
        <ele>363.5</ele>
        <time>2015-08-30T12:39:42Z</time>
      </trkpt>
      <trkpt lat="44.10662" lon="3.08422">
        <ele>363.5</ele>
        <time>2015-08-30T12:39:43Z</time>
      </trkpt>
      <trkpt lat="44.10651" lon="3.08429">
        <ele>363.5</ele>
        <time>2015-08-30T12:39:44Z</time>
      </trkpt>
      <trkpt lat="44.1064" lon="3.08434">
        <ele>363.5</ele>
        <time>2015-08-30T12:39:45Z</time>
      </trkpt>
      <trkpt lat="44.10628" lon="3.08436">
        <ele>363</ele>
        <time>2015-08-30T12:39:46Z</time>
      </trkpt>
      <trkpt lat="44.10603" lon="3.08432">
        <ele>362.6</ele>
        <time>2015-08-30T12:39:48Z</time>
      </trkpt>
      <trkpt lat="44.1047" lon="3.08441">
        <ele>364</ele>
        <time>2015-08-30T12:39:58Z</time>
      </trkpt>
      <trkpt lat="44.10299" lon="3.08499">
        <ele>365</ele>
        <time>2015-08-30T12:40:11Z</time>
      </trkpt>
      <trkpt lat="44.1021" lon="3.08566">
        <ele>366.4</ele>
        <time>2015-08-30T12:40:20Z</time>
      </trkpt>
      <trkpt lat="44.10203" lon="3.0857">
        <ele>366.9</ele>
        <time>2015-08-30T12:40:21Z</time>
      </trkpt>
      <trkpt lat="44.10197" lon="3.0857">
        <ele>366.4</ele>
        <time>2015-08-30T12:40:22Z</time>
      </trkpt>
      <trkpt lat="44.1019" lon="3.08569">
        <ele>366.9</ele>
        <time>2015-08-30T12:40:23Z</time>
      </trkpt>
      <trkpt lat="44.10179" lon="3.08563">
        <ele>367.8</ele>
        <time>2015-08-30T12:40:25Z</time>
      </trkpt>
      <trkpt lat="44.10174" lon="3.08561">
        <ele>367.8</ele>
        <time>2015-08-30T12:40:26Z</time>
      </trkpt>
      <trkpt lat="44.10168" lon="3.08562">
        <ele>367.8</ele>
        <time>2015-08-30T12:40:27Z</time>
      </trkpt>
      <trkpt lat="44.10164" lon="3.08566">
        <ele>368.3</ele>
        <time>2015-08-30T12:40:28Z</time>
      </trkpt>
      <trkpt lat="44.10161" lon="3.08573">
        <ele>368.3</ele>
        <time>2015-08-30T12:40:29Z</time>
      </trkpt>
      <trkpt lat="44.10162" lon="3.08581">
        <ele>367.8</ele>
        <time>2015-08-30T12:40:30Z</time>
      </trkpt>
      <trkpt lat="44.10166" lon="3.08589">
        <ele>366.9</ele>
        <time>2015-08-30T12:40:31Z</time>
      </trkpt>
      <trkpt lat="44.10172" lon="3.08594">
        <ele>366.9</ele>
        <time>2015-08-30T12:40:32Z</time>
      </trkpt>
      <trkpt lat="44.1018" lon="3.08598">
        <ele>366.4</ele>
        <time>2015-08-30T12:40:33Z</time>
      </trkpt>
      <trkpt lat="44.10186" lon="3.08603">
        <ele>366.4</ele>
        <time>2015-08-30T12:40:34Z</time>
      </trkpt>
      <trkpt lat="44.10191" lon="3.08613">
        <ele>365.9</ele>
        <time>2015-08-30T12:40:35Z</time>
      </trkpt>
      <trkpt lat="44.102" lon="3.08704">
        <ele>365</ele>
        <time>2015-08-30T12:40:42Z</time>
      </trkpt>
      <trkpt lat="44.10204" lon="3.08717">
        <ele>364.5</ele>
        <time>2015-08-30T12:40:43Z</time>
      </trkpt>
      <trkpt lat="44.1021" lon="3.08728">
        <ele>364</ele>
        <time>2015-08-30T12:40:44Z</time>
      </trkpt>
      <trkpt lat="44.10218" lon="3.08738">
        <ele>363.5</ele>
        <time>2015-08-30T12:40:45Z</time>
      </trkpt>
      <trkpt lat="44.10263" lon="3.08782">
        <ele>362.6</ele>
        <time>2015-08-30T12:40:50Z</time>
      </trkpt>
      <trkpt lat="44.10271" lon="3.08793">
        <ele>362.6</ele>
        <time>2015-08-30T12:40:51Z</time>
      </trkpt>
      <trkpt lat="44.10309" lon="3.08865">
        <ele>361.1</ele>
        <time>2015-08-30T12:40:59Z</time>
      </trkpt>
      <trkpt lat="44.10311" lon="3.0887">
        <ele>360.6</ele>
        <time>2015-08-30T12:41:00Z</time>
      </trkpt>
      <trkpt lat="44.10312" lon="3.08878">
        <ele>360.6</ele>
        <time>2015-08-30T12:41:01Z</time>
      </trkpt>
      <trkpt lat="44.10327" lon="3.08995">
        <ele>360.6</ele>
        <time>2015-08-30T12:41:10Z</time>
      </trkpt>
      <trkpt lat="44.10326" lon="3.09012">
        <ele>360.6</ele>
        <time>2015-08-30T12:41:11Z</time>
      </trkpt>
      <trkpt lat="44.10323" lon="3.09029">
        <ele>360.6</ele>
        <time>2015-08-30T12:41:12Z</time>
      </trkpt>
      <trkpt lat="44.10318" lon="3.09046">
        <ele>360.6</ele>
        <time>2015-08-30T12:41:13Z</time>
      </trkpt>
      <trkpt lat="44.10245" lon="3.09198">
        <ele>360.6</ele>
        <time>2015-08-30T12:41:23Z</time>
      </trkpt>
      <trkpt lat="44.10217" lon="3.09232">
        <ele>361.1</ele>
        <time>2015-08-30T12:41:26Z</time>
      </trkpt>
      <trkpt lat="44.1021" lon="3.09245">
        <ele>361.1</ele>
        <time>2015-08-30T12:41:27Z</time>
      </trkpt>
      <trkpt lat="44.10205" lon="3.0926">
        <ele>361.1</ele>
        <time>2015-08-30T12:41:28Z</time>
      </trkpt>
      <trkpt lat="44.10181" lon="3.09521">
        <ele>363</ele>
        <time>2015-08-30T12:41:42Z</time>
      </trkpt>
      <trkpt lat="44.10159" lon="3.09598">
        <ele>364.5</ele>
        <time>2015-08-30T12:41:49Z</time>
      </trkpt>
      <trkpt lat="44.10156" lon="3.09602">
        <ele>364.5</ele>
        <time>2015-08-30T12:41:50Z</time>
      </trkpt>
      <trkpt lat="44.10152" lon="3.09606">
        <ele>365</ele>
        <time>2015-08-30T12:41:51Z</time>
      </trkpt>
      <trkpt lat="44.10145" lon="3.09617">
        <ele>364.5</ele>
        <time>2015-08-30T12:41:53Z</time>
      </trkpt>
      <trkpt lat="44.10144" lon="3.09626">
        <ele>365</ele>
        <time>2015-08-30T12:41:54Z</time>
      </trkpt>
      <trkpt lat="44.10143" lon="3.09649">
        <ele>364.5</ele>
        <time>2015-08-30T12:41:56Z</time>
      </trkpt>
      <trkpt lat="44.10112" lon="3.0978">
        <ele>363.5</ele>
        <time>2015-08-30T12:42:05Z</time>
      </trkpt>
      <trkpt lat="44.10018" lon="3.11149">
        <ele>367.4</ele>
        <time>2015-08-30T12:43:14Z</time>
      </trkpt>
      <trkpt lat="44.10002" lon="3.1124">
        <ele>367.4</ele>
        <time>2015-08-30T12:43:18Z</time>
      </trkpt>
      <trkpt lat="44.10001" lon="3.11263">
        <ele>367.4</ele>
        <time>2015-08-30T12:43:19Z</time>
      </trkpt>
      <trkpt lat="44.10006" lon="3.1131">
        <ele>367.4</ele>
        <time>2015-08-30T12:43:21Z</time>
      </trkpt>
      <trkpt lat="44.10031" lon="3.11419">
        <ele>366.4</ele>
        <time>2015-08-30T12:43:26Z</time>
      </trkpt>
      <trkpt lat="44.10041" lon="3.11436">
        <ele>366.4</ele>
        <time>2015-08-30T12:43:27Z</time>
      </trkpt>
      <trkpt lat="44.10092" lon="3.11485">
        <ele>366.9</ele>
        <time>2015-08-30T12:43:30Z</time>
      </trkpt>
      <trkpt lat="44.10109" lon="3.11506">
        <ele>366.9</ele>
        <time>2015-08-30T12:43:31Z</time>
      </trkpt>
      <trkpt lat="44.10138" lon="3.11554">
        <ele>367.4</ele>
        <time>2015-08-30T12:43:33Z</time>
      </trkpt>
      <trkpt lat="44.10149" lon="3.11579">
        <ele>367.4</ele>
        <time>2015-08-30T12:43:34Z</time>
      </trkpt>
      <trkpt lat="44.10157" lon="3.11604">
        <ele>367.4</ele>
        <time>2015-08-30T12:43:35Z</time>
      </trkpt>
      <trkpt lat="44.1016" lon="3.1163">
        <ele>366.9</ele>
        <time>2015-08-30T12:43:36Z</time>
      </trkpt>
      <trkpt lat="44.10157" lon="3.11661">
        <ele>369.3</ele>
        <time>2015-08-30T12:43:37Z</time>
      </trkpt>
      <trkpt lat="44.10136" lon="3.11735">
        <ele>369.8</ele>
        <time>2015-08-30T12:43:40Z</time>
      </trkpt>
      <trkpt lat="44.10118" lon="3.12235">
        <ele>367.4</ele>
        <time>2015-08-30T12:43:56Z</time>
      </trkpt>
      <trkpt lat="44.10124" lon="3.1239">
        <ele>367.4</ele>
        <time>2015-08-30T12:44:01Z</time>
      </trkpt>
      <trkpt lat="44.10214" lon="3.12888">
        <ele>370.2</ele>
        <time>2015-08-30T12:44:23Z</time>
      </trkpt>
      <trkpt lat="44.10221" lon="3.12906">
        <ele>370.2</ele>
        <time>2015-08-30T12:44:24Z</time>
      </trkpt>
      <trkpt lat="44.10231" lon="3.12921">
        <ele>371.7</ele>
        <time>2015-08-30T12:44:25Z</time>
      </trkpt>
      <trkpt lat="44.10242" lon="3.12934">
        <ele>372.2</ele>
        <time>2015-08-30T12:44:26Z</time>
      </trkpt>
      <trkpt lat="44.10268" lon="3.12956">
        <ele>374.1</ele>
        <time>2015-08-30T12:44:28Z</time>
      </trkpt>
      <trkpt lat="44.10296" lon="3.12973">
        <ele>375.5</ele>
        <time>2015-08-30T12:44:30Z</time>
      </trkpt>
      <trkpt lat="44.10311" lon="3.12979">
        <ele>376.5</ele>
        <time>2015-08-30T12:44:31Z</time>
      </trkpt>
      <trkpt lat="44.10327" lon="3.12983">
        <ele>378.4</ele>
        <time>2015-08-30T12:44:32Z</time>
      </trkpt>
      <trkpt lat="44.10343" lon="3.12985">
        <ele>378.4</ele>
        <time>2015-08-30T12:44:33Z</time>
      </trkpt>
      <trkpt lat="44.1036" lon="3.1298">
        <ele>378.9</ele>
        <time>2015-08-30T12:44:34Z</time>
      </trkpt>
      <trkpt lat="44.10411" lon="3.12943">
        <ele>379.4</ele>
        <time>2015-08-30T12:44:37Z</time>
      </trkpt>
      <trkpt lat="44.10584" lon="3.12855">
        <ele>387.6</ele>
        <time>2015-08-30T12:44:46Z</time>
      </trkpt>
      <trkpt lat="44.10773" lon="3.12852">
        <ele>393.3</ele>
        <time>2015-08-30T12:44:55Z</time>
      </trkpt>
      <trkpt lat="44.10826" lon="3.12867">
        <ele>392.4</ele>
        <time>2015-08-30T12:44:58Z</time>
      </trkpt>
      <trkpt lat="44.10841" lon="3.12876">
        <ele>390.9</ele>
        <time>2015-08-30T12:44:59Z</time>
      </trkpt>
      <trkpt lat="44.10856" lon="3.12889">
        <ele>389.5</ele>
        <time>2015-08-30T12:45:00Z</time>
      </trkpt>
      <trkpt lat="44.10892" lon="3.12955">
        <ele>389.5</ele>
        <time>2015-08-30T12:45:03Z</time>
      </trkpt>
      <trkpt lat="44.10952" lon="3.13134">
        <ele>389.5</ele>
        <time>2015-08-30T12:45:09Z</time>
      </trkpt>
      <trkpt lat="44.10971" lon="3.13337">
        <ele>390</ele>
        <time>2015-08-30T12:45:15Z</time>
      </trkpt>
      <trkpt lat="44.10965" lon="3.1337">
        <ele>389</ele>
        <time>2015-08-30T12:45:16Z</time>
      </trkpt>
      <trkpt lat="44.10956" lon="3.134">
        <ele>388.5</ele>
        <time>2015-08-30T12:45:17Z</time>
      </trkpt>
      <trkpt lat="44.10797" lon="3.13737">
        <ele>390.9</ele>
        <time>2015-08-30T12:45:30Z</time>
      </trkpt>
      <trkpt lat="44.10793" lon="3.13756">
        <ele>391.4</ele>
        <time>2015-08-30T12:45:31Z</time>
      </trkpt>
      <trkpt lat="44.10793" lon="3.13773">
        <ele>389.5</ele>
        <time>2015-08-30T12:45:32Z</time>
      </trkpt>
      <trkpt lat="44.10798" lon="3.13792">
        <ele>389.5</ele>
        <time>2015-08-30T12:45:33Z</time>
      </trkpt>
      <trkpt lat="44.10807" lon="3.13807">
        <ele>390</ele>
        <time>2015-08-30T12:45:34Z</time>
      </trkpt>
      <trkpt lat="44.10818" lon="3.13817">
        <ele>390.9</ele>
        <time>2015-08-30T12:45:35Z</time>
      </trkpt>
      <trkpt lat="44.1083" lon="3.13823">
        <ele>391.4</ele>
        <time>2015-08-30T12:45:36Z</time>
      </trkpt>
      <trkpt lat="44.10862" lon="3.13829">
        <ele>391.9</ele>
        <time>2015-08-30T12:45:39Z</time>
      </trkpt>
      <trkpt lat="44.1088" lon="3.13835">
        <ele>391.4</ele>
        <time>2015-08-30T12:45:41Z</time>
      </trkpt>
      <trkpt lat="44.1089" lon="3.13842">
        <ele>391.4</ele>
        <time>2015-08-30T12:45:42Z</time>
      </trkpt>
      <trkpt lat="44.10898" lon="3.1385">
        <ele>391.4</ele>
        <time>2015-08-30T12:45:43Z</time>
      </trkpt>
      <trkpt lat="44.10905" lon="3.1386">
        <ele>391.9</ele>
        <time>2015-08-30T12:45:44Z</time>
      </trkpt>
      <trkpt lat="44.1091" lon="3.13872">
        <ele>391.9</ele>
        <time>2015-08-30T12:45:45Z</time>
      </trkpt>
      <trkpt lat="44.10915" lon="3.13886">
        <ele>391.9</ele>
        <time>2015-08-30T12:45:46Z</time>
      </trkpt>
      <trkpt lat="44.10919" lon="3.13903">
        <ele>391.4</ele>
        <time>2015-08-30T12:45:47Z</time>
      </trkpt>
      <trkpt lat="44.10927" lon="3.13993">
        <ele>390.4</ele>
        <time>2015-08-30T12:45:52Z</time>
      </trkpt>
      <trkpt lat="44.10938" lon="3.14027">
        <ele>390.4</ele>
        <time>2015-08-30T12:45:54Z</time>
      </trkpt>
      <trkpt lat="44.1094" lon="3.14047">
        <ele>390.4</ele>
        <time>2015-08-30T12:45:55Z</time>
      </trkpt>
      <trkpt lat="44.10938" lon="3.14068">
        <ele>389.5</ele>
        <time>2015-08-30T12:45:56Z</time>
      </trkpt>
      <trkpt lat="44.10931" lon="3.1409">
        <ele>389</ele>
        <time>2015-08-30T12:45:57Z</time>
      </trkpt>
      <trkpt lat="44.10922" lon="3.14111">
        <ele>389</ele>
        <time>2015-08-30T12:45:58Z</time>
      </trkpt>
      <trkpt lat="44.10746" lon="3.14428">
        <ele>382.3</ele>
        <time>2015-08-30T12:46:11Z</time>
      </trkpt>
      <trkpt lat="44.10655" lon="3.14625">
        <ele>381.8</ele>
        <time>2015-08-30T12:46:19Z</time>
      </trkpt>
      <trkpt lat="44.10595" lon="3.14868">
        <ele>383.2</ele>
        <time>2015-08-30T12:46:28Z</time>
      </trkpt>
      <trkpt lat="44.10601" lon="3.15059">
        <ele>383.2</ele>
        <time>2015-08-30T12:46:34Z</time>
      </trkpt>
      <trkpt lat="44.10613" lon="3.15121">
        <ele>383.2</ele>
        <time>2015-08-30T12:46:36Z</time>
      </trkpt>
      <trkpt lat="44.10823" lon="3.15612">
        <ele>386.1</ele>
        <time>2015-08-30T12:46:53Z</time>
      </trkpt>
      <trkpt lat="44.10838" lon="3.15676">
        <ele>386.6</ele>
        <time>2015-08-30T12:46:55Z</time>
      </trkpt>
      <trkpt lat="44.10844" lon="3.15746">
        <ele>386.1</ele>
        <time>2015-08-30T12:46:57Z</time>
      </trkpt>
      <trkpt lat="44.10843" lon="3.15781">
        <ele>385.6</ele>
        <time>2015-08-30T12:46:58Z</time>
      </trkpt>
      <trkpt lat="44.10839" lon="3.15814">
        <ele>385.6</ele>
        <time>2015-08-30T12:46:59Z</time>
      </trkpt>
      <trkpt lat="44.10832" lon="3.15844">
        <ele>385.6</ele>
        <time>2015-08-30T12:47:00Z</time>
      </trkpt>
      <trkpt lat="44.10803" lon="3.15918">
        <ele>385.2</ele>
        <time>2015-08-30T12:47:03Z</time>
      </trkpt>
      <trkpt lat="44.10799" lon="3.1594">
        <ele>385.2</ele>
        <time>2015-08-30T12:47:04Z</time>
      </trkpt>
      <trkpt lat="44.10808" lon="3.1599">
        <ele>384.2</ele>
        <time>2015-08-30T12:47:06Z</time>
      </trkpt>
      <trkpt lat="44.10817" lon="3.16018">
        <ele>384.2</ele>
        <time>2015-08-30T12:47:07Z</time>
      </trkpt>
      <trkpt lat="44.10857" lon="3.16099">
        <ele>385.6</ele>
        <time>2015-08-30T12:47:10Z</time>
      </trkpt>
      <trkpt lat="44.10902" lon="3.16174">
        <ele>387.6</ele>
        <time>2015-08-30T12:47:13Z</time>
      </trkpt>
      <trkpt lat="44.1092" lon="3.16195">
        <ele>387.6</ele>
        <time>2015-08-30T12:47:14Z</time>
      </trkpt>
      <trkpt lat="44.11013" lon="3.16348">
        <ele>388</ele>
        <time>2015-08-30T12:47:20Z</time>
      </trkpt>
      <trkpt lat="44.11092" lon="3.1652">
        <ele>389</ele>
        <time>2015-08-30T12:47:26Z</time>
      </trkpt>
      <trkpt lat="44.11176" lon="3.16639">
        <ele>391.4</ele>
        <time>2015-08-30T12:47:31Z</time>
      </trkpt>
      <trkpt lat="44.11194" lon="3.1666">
        <ele>391.9</ele>
        <time>2015-08-30T12:47:32Z</time>
      </trkpt>
      <trkpt lat="44.11215" lon="3.16677">
        <ele>392.4</ele>
        <time>2015-08-30T12:47:33Z</time>
      </trkpt>
      <trkpt lat="44.11258" lon="3.16706">
        <ele>393.3</ele>
        <time>2015-08-30T12:47:35Z</time>
      </trkpt>
      <trkpt lat="44.11279" lon="3.16716">
        <ele>394.3</ele>
        <time>2015-08-30T12:47:36Z</time>
      </trkpt>
      <trkpt lat="44.11319" lon="3.16728">
        <ele>395.2</ele>
        <time>2015-08-30T12:47:38Z</time>
      </trkpt>
      <trkpt lat="44.11336" lon="3.16736">
        <ele>395.2</ele>
        <time>2015-08-30T12:47:39Z</time>
      </trkpt>
      <trkpt lat="44.11351" lon="3.16748">
        <ele>395.2</ele>
        <time>2015-08-30T12:47:40Z</time>
      </trkpt>
      <trkpt lat="44.11367" lon="3.16766">
        <ele>395.7</ele>
        <time>2015-08-30T12:47:41Z</time>
      </trkpt>
      <trkpt lat="44.11381" lon="3.16788">
        <ele>396.7</ele>
        <time>2015-08-30T12:47:42Z</time>
      </trkpt>
      <trkpt lat="44.11394" lon="3.16814">
        <ele>397.6</ele>
        <time>2015-08-30T12:47:43Z</time>
      </trkpt>
      <trkpt lat="44.1142" lon="3.16907">
        <ele>397.6</ele>
        <time>2015-08-30T12:47:46Z</time>
      </trkpt>
      <trkpt lat="44.11446" lon="3.17021">
        <ele>398.1</ele>
        <time>2015-08-30T12:47:50Z</time>
      </trkpt>
      <trkpt lat="44.11452" lon="3.17281">
        <ele>395.2</ele>
        <time>2015-08-30T12:47:58Z</time>
      </trkpt>
      <trkpt lat="44.11483" lon="3.17458">
        <ele>392.4</ele>
        <time>2015-08-30T12:48:04Z</time>
      </trkpt>
      <trkpt lat="44.11499" lon="3.17508">
        <ele>392.4</ele>
        <time>2015-08-30T12:48:06Z</time>
      </trkpt>
      <trkpt lat="44.11658" lon="3.17845">
        <ele>391.9</ele>
        <time>2015-08-30T12:48:22Z</time>
      </trkpt>
      <trkpt lat="44.11671" lon="3.17862">
        <ele>391.9</ele>
        <time>2015-08-30T12:48:23Z</time>
      </trkpt>
      <trkpt lat="44.11735" lon="3.17921">
        <ele>393.3</ele>
        <time>2015-08-30T12:48:27Z</time>
      </trkpt>
      <trkpt lat="44.11748" lon="3.17941">
        <ele>393.3</ele>
        <time>2015-08-30T12:48:28Z</time>
      </trkpt>
      <trkpt lat="44.11773" lon="3.17988">
        <ele>393.8</ele>
        <time>2015-08-30T12:48:30Z</time>
      </trkpt>
      <trkpt lat="44.11826" lon="3.18121">
        <ele>392.8</ele>
        <time>2015-08-30T12:48:35Z</time>
      </trkpt>
      <trkpt lat="44.11961" lon="3.18347">
        <ele>391.9</ele>
        <time>2015-08-30T12:48:44Z</time>
      </trkpt>
      <trkpt lat="44.12009" lon="3.18456">
        <ele>392.4</ele>
        <time>2015-08-30T12:48:48Z</time>
      </trkpt>
      <trkpt lat="44.12019" lon="3.18517">
        <ele>392.4</ele>
        <time>2015-08-30T12:48:50Z</time>
      </trkpt>
      <trkpt lat="44.12137" lon="3.18877">
        <ele>393.3</ele>
        <time>2015-08-30T12:49:02Z</time>
      </trkpt>
      <trkpt lat="44.12143" lon="3.18938">
        <ele>393.8</ele>
        <time>2015-08-30T12:49:04Z</time>
      </trkpt>
      <trkpt lat="44.12141" lon="3.18969">
        <ele>393.3</ele>
        <time>2015-08-30T12:49:05Z</time>
      </trkpt>
      <trkpt lat="44.12136" lon="3.19">
        <ele>392.4</ele>
        <time>2015-08-30T12:49:06Z</time>
      </trkpt>
      <trkpt lat="44.12086" lon="3.19142">
        <ele>390</ele>
        <time>2015-08-30T12:49:11Z</time>
      </trkpt>
      <trkpt lat="44.12084" lon="3.19169">
        <ele>390.4</ele>
        <time>2015-08-30T12:49:12Z</time>
      </trkpt>
      <trkpt lat="44.12087" lon="3.19196">
        <ele>390.9</ele>
        <time>2015-08-30T12:49:13Z</time>
      </trkpt>
      <trkpt lat="44.12097" lon="3.19223">
        <ele>391.4</ele>
        <time>2015-08-30T12:49:14Z</time>
      </trkpt>
      <trkpt lat="44.12125" lon="3.19272">
        <ele>392.4</ele>
        <time>2015-08-30T12:49:16Z</time>
      </trkpt>
      <trkpt lat="44.12161" lon="3.19323">
        <ele>394.3</ele>
        <time>2015-08-30T12:49:18Z</time>
      </trkpt>
      <trkpt lat="44.12263" lon="3.19548">
        <ele>396.2</ele>
        <time>2015-08-30T12:49:26Z</time>
      </trkpt>
      <trkpt lat="44.12281" lon="3.19642">
        <ele>396.7</ele>
        <time>2015-08-30T12:49:29Z</time>
      </trkpt>
      <trkpt lat="44.12231" lon="3.20311">
        <ele>397.6</ele>
        <time>2015-08-30T12:49:48Z</time>
      </trkpt>
      <trkpt lat="44.1214" lon="3.20583">
        <ele>400.1</ele>
        <time>2015-08-30T12:49:58Z</time>
      </trkpt>
      <trkpt lat="44.12137" lon="3.2061">
        <ele>400.5</ele>
        <time>2015-08-30T12:49:59Z</time>
      </trkpt>
      <trkpt lat="44.12137" lon="3.20639">
        <ele>399.6</ele>
        <time>2015-08-30T12:50:00Z</time>
      </trkpt>
      <trkpt lat="44.12146" lon="3.20699">
        <ele>398.6</ele>
        <time>2015-08-30T12:50:02Z</time>
      </trkpt>
      <trkpt lat="44.12205" lon="3.21008">
        <ele>399.6</ele>
        <time>2015-08-30T12:50:12Z</time>
      </trkpt>
      <trkpt lat="44.122" lon="3.21125">
        <ele>398.1</ele>
        <time>2015-08-30T12:50:16Z</time>
      </trkpt>
      <trkpt lat="44.12189" lon="3.21152">
        <ele>399.1</ele>
        <time>2015-08-30T12:50:17Z</time>
      </trkpt>
      <trkpt lat="44.12157" lon="3.21199">
        <ele>400.1</ele>
        <time>2015-08-30T12:50:19Z</time>
      </trkpt>
      <trkpt lat="44.12138" lon="3.21216">
        <ele>400.1</ele>
        <time>2015-08-30T12:50:20Z</time>
      </trkpt>
      <trkpt lat="44.12075" lon="3.21249">
        <ele>400.5</ele>
        <time>2015-08-30T12:50:23Z</time>
      </trkpt>
      <trkpt lat="44.11993" lon="3.21317">
        <ele>400.1</ele>
        <time>2015-08-30T12:50:28Z</time>
      </trkpt>
      <trkpt lat="44.11983" lon="3.21338">
        <ele>400.1</ele>
        <time>2015-08-30T12:50:29Z</time>
      </trkpt>
      <trkpt lat="44.11978" lon="3.21362">
        <ele>400.1</ele>
        <time>2015-08-30T12:50:30Z</time>
      </trkpt>
      <trkpt lat="44.11975" lon="3.21387">
        <ele>399.1</ele>
        <time>2015-08-30T12:50:31Z</time>
      </trkpt>
      <trkpt lat="44.11976" lon="3.21414">
        <ele>398.6</ele>
        <time>2015-08-30T12:50:32Z</time>
      </trkpt>
      <trkpt lat="44.11984" lon="3.21444">
        <ele>398.6</ele>
        <time>2015-08-30T12:50:33Z</time>
      </trkpt>
      <trkpt lat="44.11995" lon="3.21471">
        <ele>398.1</ele>
        <time>2015-08-30T12:50:34Z</time>
      </trkpt>
      <trkpt lat="44.12007" lon="3.21497">
        <ele>398.6</ele>
        <time>2015-08-30T12:50:35Z</time>
      </trkpt>
      <trkpt lat="44.12216" lon="3.2178">
        <ele>400.1</ele>
        <time>2015-08-30T12:50:47Z</time>
      </trkpt>
      <trkpt lat="44.12293" lon="3.21963">
        <ele>402.5</ele>
        <time>2015-08-30T12:50:56Z</time>
      </trkpt>
      <trkpt lat="44.12336" lon="3.22177">
        <ele>404.9</ele>
        <time>2015-08-30T12:51:09Z</time>
      </trkpt>
      <trkpt lat="44.12356" lon="3.22233">
        <ele>405.3</ele>
        <time>2015-08-30T12:51:14Z</time>
      </trkpt>
      <trkpt lat="44.12363" lon="3.22243">
        <ele>405.3</ele>
        <time>2015-08-30T12:51:15Z</time>
      </trkpt>
      <trkpt lat="44.1237" lon="3.22253">
        <ele>405.8</ele>
        <time>2015-08-30T12:51:16Z</time>
      </trkpt>
      <trkpt lat="44.12379" lon="3.2226">
        <ele>405.8</ele>
        <time>2015-08-30T12:51:17Z</time>
      </trkpt>
      <trkpt lat="44.12389" lon="3.22264">
        <ele>405.3</ele>
        <time>2015-08-30T12:51:18Z</time>
      </trkpt>
      <trkpt lat="44.12431" lon="3.22274">
        <ele>405.8</ele>
        <time>2015-08-30T12:51:23Z</time>
      </trkpt>
      <trkpt lat="44.12436" lon="3.22277">
        <ele>405.8</ele>
        <time>2015-08-30T12:51:24Z</time>
      </trkpt>
      <trkpt lat="44.1244" lon="3.22282">
        <ele>405.3</ele>
        <time>2015-08-30T12:51:25Z</time>
      </trkpt>
      <trkpt lat="44.12442" lon="3.22287">
        <ele>405.8</ele>
        <time>2015-08-30T12:51:26Z</time>
      </trkpt>
      <trkpt lat="44.12451" lon="3.22312">
        <ele>405.3</ele>
        <time>2015-08-30T12:51:31Z</time>
      </trkpt>
      <trkpt lat="44.12488" lon="3.22364">
        <ele>403.9</ele>
        <time>2015-08-30T12:52:09Z</time>
      </trkpt>
      <trkpt lat="44.12508" lon="3.22415">
        <ele>404.9</ele>
        <time>2015-08-30T12:52:14Z</time>
      </trkpt>
      <trkpt lat="44.12512" lon="3.22442">
        <ele>405.3</ele>
        <time>2015-08-30T12:52:16Z</time>
      </trkpt>
      <trkpt lat="44.1252" lon="3.22682">
        <ele>413.5</ele>
        <time>2015-08-30T12:52:31Z</time>
      </trkpt>
      <trkpt lat="44.12511" lon="3.22725">
        <ele>414</ele>
        <time>2015-08-30T12:52:33Z</time>
      </trkpt>
      <trkpt lat="44.12484" lon="3.22811">
        <ele>412.5</ele>
        <time>2015-08-30T12:52:37Z</time>
      </trkpt>
      <trkpt lat="44.12473" lon="3.22832">
        <ele>412.1</ele>
        <time>2015-08-30T12:52:38Z</time>
      </trkpt>
      <trkpt lat="44.12461" lon="3.22851">
        <ele>411.6</ele>
        <time>2015-08-30T12:52:39Z</time>
      </trkpt>
      <trkpt lat="44.12431" lon="3.22883">
        <ele>411.1</ele>
        <time>2015-08-30T12:52:41Z</time>
      </trkpt>
      <trkpt lat="44.1229" lon="3.22999">
        <ele>411.6</ele>
        <time>2015-08-30T12:52:49Z</time>
      </trkpt>
      <trkpt lat="44.12084" lon="3.23127">
        <ele>411.6</ele>
        <time>2015-08-30T12:52:59Z</time>
      </trkpt>
      <trkpt lat="44.12005" lon="3.23227">
        <ele>410.1</ele>
        <time>2015-08-30T12:53:04Z</time>
      </trkpt>
      <trkpt lat="44.11994" lon="3.23252">
        <ele>409.7</ele>
        <time>2015-08-30T12:53:05Z</time>
      </trkpt>
      <trkpt lat="44.1198" lon="3.23313">
        <ele>409.2</ele>
        <time>2015-08-30T12:53:07Z</time>
      </trkpt>
      <trkpt lat="44.11913" lon="3.23655">
        <ele>406.3</ele>
        <time>2015-08-30T12:53:18Z</time>
      </trkpt>
      <trkpt lat="44.11891" lon="3.23711">
        <ele>405.8</ele>
        <time>2015-08-30T12:53:20Z</time>
      </trkpt>
      <trkpt lat="44.11794" lon="3.23865">
        <ele>406.8</ele>
        <time>2015-08-30T12:53:27Z</time>
      </trkpt>
      <trkpt lat="44.11789" lon="3.2389">
        <ele>406.3</ele>
        <time>2015-08-30T12:53:28Z</time>
      </trkpt>
      <trkpt lat="44.11789" lon="3.23915">
        <ele>406.3</ele>
        <time>2015-08-30T12:53:29Z</time>
      </trkpt>
      <trkpt lat="44.11794" lon="3.2394">
        <ele>405.8</ele>
        <time>2015-08-30T12:53:30Z</time>
      </trkpt>
      <trkpt lat="44.11846" lon="3.24043">
        <ele>408.2</ele>
        <time>2015-08-30T12:53:34Z</time>
      </trkpt>
      <trkpt lat="44.11964" lon="3.24213">
        <ele>411.1</ele>
        <time>2015-08-30T12:53:41Z</time>
      </trkpt>
      <trkpt lat="44.11983" lon="3.24266">
        <ele>411.6</ele>
        <time>2015-08-30T12:53:43Z</time>
      </trkpt>
      <trkpt lat="44.12" lon="3.24352">
        <ele>412.5</ele>
        <time>2015-08-30T12:53:46Z</time>
      </trkpt>
      <trkpt lat="44.12005" lon="3.24408">
        <ele>414</ele>
        <time>2015-08-30T12:53:48Z</time>
      </trkpt>
      <trkpt lat="44.12003" lon="3.24437">
        <ele>415</ele>
        <time>2015-08-30T12:53:49Z</time>
      </trkpt>
      <trkpt lat="44.11989" lon="3.24491">
        <ele>415.4</ele>
        <time>2015-08-30T12:53:51Z</time>
      </trkpt>
      <trkpt lat="44.11964" lon="3.24561">
        <ele>415.9</ele>
        <time>2015-08-30T12:53:54Z</time>
      </trkpt>
      <trkpt lat="44.11949" lon="3.24577">
        <ele>416.4</ele>
        <time>2015-08-30T12:53:55Z</time>
      </trkpt>
      <trkpt lat="44.11932" lon="3.24588">
        <ele>417.4</ele>
        <time>2015-08-30T12:53:56Z</time>
      </trkpt>
      <trkpt lat="44.1185" lon="3.24613">
        <ele>417.8</ele>
        <time>2015-08-30T12:54:00Z</time>
      </trkpt>
      <trkpt lat="44.11765" lon="3.24628">
        <ele>417.8</ele>
        <time>2015-08-30T12:54:04Z</time>
      </trkpt>
      <trkpt lat="44.11745" lon="3.24638">
        <ele>417.4</ele>
        <time>2015-08-30T12:54:05Z</time>
      </trkpt>
      <trkpt lat="44.11727" lon="3.2465">
        <ele>417.4</ele>
        <time>2015-08-30T12:54:06Z</time>
      </trkpt>
      <trkpt lat="44.11605" lon="3.24772">
        <ele>415.4</ele>
        <time>2015-08-30T12:54:13Z</time>
      </trkpt>
      <trkpt lat="44.11479" lon="3.24943">
        <ele>416.4</ele>
        <time>2015-08-30T12:54:21Z</time>
      </trkpt>
      <trkpt lat="44.11464" lon="3.24958">
        <ele>415.4</ele>
        <time>2015-08-30T12:54:22Z</time>
      </trkpt>
      <trkpt lat="44.11449" lon="3.2497">
        <ele>414.5</ele>
        <time>2015-08-30T12:54:23Z</time>
      </trkpt>
      <trkpt lat="44.1143" lon="3.24976">
        <ele>413.5</ele>
        <time>2015-08-30T12:54:24Z</time>
      </trkpt>
      <trkpt lat="44.1141" lon="3.24978">
        <ele>413</ele>
        <time>2015-08-30T12:54:25Z</time>
      </trkpt>
      <trkpt lat="44.11384" lon="3.24969">
        <ele>414</ele>
        <time>2015-08-30T12:54:26Z</time>
      </trkpt>
      <trkpt lat="44.1136" lon="3.24968">
        <ele>415</ele>
        <time>2015-08-30T12:54:27Z</time>
      </trkpt>
      <trkpt lat="44.112" lon="3.24984">
        <ele>417.4</ele>
        <time>2015-08-30T12:54:35Z</time>
      </trkpt>
      <trkpt lat="44.11188" lon="3.24998">
        <ele>416.9</ele>
        <time>2015-08-30T12:54:36Z</time>
      </trkpt>
      <trkpt lat="44.1118" lon="3.25018">
        <ele>416.9</ele>
        <time>2015-08-30T12:54:37Z</time>
      </trkpt>
      <trkpt lat="44.11176" lon="3.25037">
        <ele>417.4</ele>
        <time>2015-08-30T12:54:38Z</time>
      </trkpt>
      <trkpt lat="44.11173" lon="3.25056">
        <ele>417.4</ele>
        <time>2015-08-30T12:54:39Z</time>
      </trkpt>
      <trkpt lat="44.11168" lon="3.25074">
        <ele>416.9</ele>
        <time>2015-08-30T12:54:40Z</time>
      </trkpt>
      <trkpt lat="44.11161" lon="3.25091">
        <ele>416.4</ele>
        <time>2015-08-30T12:54:41Z</time>
      </trkpt>
      <trkpt lat="44.11136" lon="3.25129">
        <ele>415</ele>
        <time>2015-08-30T12:54:44Z</time>
      </trkpt>
      <trkpt lat="44.11133" lon="3.25142">
        <ele>413</ele>
        <time>2015-08-30T12:54:45Z</time>
      </trkpt>
      <trkpt lat="44.11137" lon="3.25157">
        <ele>412.1</ele>
        <time>2015-08-30T12:54:46Z</time>
      </trkpt>
      <trkpt lat="44.11144" lon="3.25173">
        <ele>411.6</ele>
        <time>2015-08-30T12:54:47Z</time>
      </trkpt>
      <trkpt lat="44.11186" lon="3.25226">
        <ele>414</ele>
        <time>2015-08-30T12:54:50Z</time>
      </trkpt>
      <trkpt lat="44.11197" lon="3.25244">
        <ele>413.5</ele>
        <time>2015-08-30T12:54:51Z</time>
      </trkpt>
      <trkpt lat="44.11205" lon="3.25264">
        <ele>413</ele>
        <time>2015-08-30T12:54:52Z</time>
      </trkpt>
      <trkpt lat="44.11208" lon="3.25287">
        <ele>412.1</ele>
        <time>2015-08-30T12:54:53Z</time>
      </trkpt>
      <trkpt lat="44.11207" lon="3.25338">
        <ele>413.5</ele>
        <time>2015-08-30T12:54:55Z</time>
      </trkpt>
      <trkpt lat="44.11201" lon="3.25362">
        <ele>415.4</ele>
        <time>2015-08-30T12:54:56Z</time>
      </trkpt>
      <trkpt lat="44.11184" lon="3.2541">
        <ele>415.9</ele>
        <time>2015-08-30T12:54:58Z</time>
      </trkpt>
      <trkpt lat="44.11133" lon="3.25492">
        <ele>415.9</ele>
        <time>2015-08-30T12:55:02Z</time>
      </trkpt>
      <trkpt lat="44.11116" lon="3.25534">
        <ele>415</ele>
        <time>2015-08-30T12:55:04Z</time>
      </trkpt>
      <trkpt lat="44.11094" lon="3.25698">
        <ele>417.8</ele>
        <time>2015-08-30T12:55:10Z</time>
      </trkpt>
      <trkpt lat="44.11084" lon="3.25722">
        <ele>418.3</ele>
        <time>2015-08-30T12:55:11Z</time>
      </trkpt>
      <trkpt lat="44.11071" lon="3.25743">
        <ele>418.8</ele>
        <time>2015-08-30T12:55:12Z</time>
      </trkpt>
      <trkpt lat="44.11054" lon="3.2576">
        <ele>419.3</ele>
        <time>2015-08-30T12:55:13Z</time>
      </trkpt>
      <trkpt lat="44.10833" lon="3.25855">
        <ele>421.2</ele>
        <time>2015-08-30T12:55:24Z</time>
      </trkpt>
      <trkpt lat="44.10798" lon="3.25878">
        <ele>422.2</ele>
        <time>2015-08-30T12:55:26Z</time>
      </trkpt>
      <trkpt lat="44.10781" lon="3.25893">
        <ele>421.7</ele>
        <time>2015-08-30T12:55:27Z</time>
      </trkpt>
      <trkpt lat="44.10765" lon="3.25912">
        <ele>421.7</ele>
        <time>2015-08-30T12:55:28Z</time>
      </trkpt>
      <trkpt lat="44.1075" lon="3.25934">
        <ele>422.2</ele>
        <time>2015-08-30T12:55:29Z</time>
      </trkpt>
      <trkpt lat="44.10598" lon="3.26242">
        <ele>423.6</ele>
        <time>2015-08-30T12:55:41Z</time>
      </trkpt>
      <trkpt lat="44.10535" lon="3.26328">
        <ele>426.5</ele>
        <time>2015-08-30T12:55:46Z</time>
      </trkpt>
      <trkpt lat="44.10522" lon="3.26334">
        <ele>426.5</ele>
        <time>2015-08-30T12:55:47Z</time>
      </trkpt>
      <trkpt lat="44.1051" lon="3.26331">
        <ele>427</ele>
        <time>2015-08-30T12:55:48Z</time>
      </trkpt>
      <trkpt lat="44.10494" lon="3.26319">
        <ele>427.9</ele>
        <time>2015-08-30T12:55:49Z</time>
      </trkpt>
      <trkpt lat="44.10481" lon="3.26302">
        <ele>427</ele>
        <time>2015-08-30T12:55:50Z</time>
      </trkpt>
      <trkpt lat="44.1044" lon="3.26243">
        <ele>427.9</ele>
        <time>2015-08-30T12:55:53Z</time>
      </trkpt>
      <trkpt lat="44.10408" lon="3.26211">
        <ele>427.9</ele>
        <time>2015-08-30T12:55:55Z</time>
      </trkpt>
      <trkpt lat="44.1039" lon="3.26199">
        <ele>427.9</ele>
        <time>2015-08-30T12:55:56Z</time>
      </trkpt>
      <trkpt lat="44.1037" lon="3.2619">
        <ele>427.9</ele>
        <time>2015-08-30T12:55:57Z</time>
      </trkpt>
      <trkpt lat="44.10328" lon="3.26177">
        <ele>427.9</ele>
        <time>2015-08-30T12:55:59Z</time>
      </trkpt>
      <trkpt lat="44.10178" lon="3.26173">
        <ele>426.5</ele>
        <time>2015-08-30T12:56:06Z</time>
      </trkpt>
      <trkpt lat="44.10139" lon="3.26186">
        <ele>426.5</ele>
        <time>2015-08-30T12:56:08Z</time>
      </trkpt>
      <trkpt lat="44.10121" lon="3.26197">
        <ele>426.5</ele>
        <time>2015-08-30T12:56:09Z</time>
      </trkpt>
      <trkpt lat="44.10087" lon="3.26226">
        <ele>427</ele>
        <time>2015-08-30T12:56:11Z</time>
      </trkpt>
      <trkpt lat="44.10072" lon="3.26242">
        <ele>426.5</ele>
        <time>2015-08-30T12:56:12Z</time>
      </trkpt>
      <trkpt lat="44.10058" lon="3.26262">
        <ele>426.5</ele>
        <time>2015-08-30T12:56:13Z</time>
      </trkpt>
      <trkpt lat="44.10024" lon="3.26338">
        <ele>427</ele>
        <time>2015-08-30T12:56:16Z</time>
      </trkpt>
      <trkpt lat="44.10005" lon="3.26395">
        <ele>427</ele>
        <time>2015-08-30T12:56:18Z</time>
      </trkpt>
      <trkpt lat="44.09956" lon="3.26633">
        <ele>430.3</ele>
        <time>2015-08-30T12:56:26Z</time>
      </trkpt>
      <trkpt lat="44.09936" lon="3.26683">
        <ele>429.9</ele>
        <time>2015-08-30T12:56:28Z</time>
      </trkpt>
      <trkpt lat="44.09851" lon="3.26842">
        <ele>428.4</ele>
        <time>2015-08-30T12:56:35Z</time>
      </trkpt>
      <trkpt lat="44.09836" lon="3.2686">
        <ele>428.4</ele>
        <time>2015-08-30T12:56:36Z</time>
      </trkpt>
      <trkpt lat="44.0982" lon="3.26874">
        <ele>428.4</ele>
        <time>2015-08-30T12:56:37Z</time>
      </trkpt>
      <trkpt lat="44.09785" lon="3.26897">
        <ele>428.4</ele>
        <time>2015-08-30T12:56:39Z</time>
      </trkpt>
      <trkpt lat="44.09718" lon="3.26933">
        <ele>428.9</ele>
        <time>2015-08-30T12:56:43Z</time>
      </trkpt>
      <trkpt lat="44.097" lon="3.26933">
        <ele>429.4</ele>
        <time>2015-08-30T12:56:44Z</time>
      </trkpt>
      <trkpt lat="44.09682" lon="3.26929">
        <ele>430.3</ele>
        <time>2015-08-30T12:56:45Z</time>
      </trkpt>
      <trkpt lat="44.09644" lon="3.26912">
        <ele>430.8</ele>
        <time>2015-08-30T12:56:47Z</time>
      </trkpt>
      <trkpt lat="44.09608" lon="3.26889">
        <ele>430.8</ele>
        <time>2015-08-30T12:56:49Z</time>
      </trkpt>
      <trkpt lat="44.0959" lon="3.26874">
        <ele>431.3</ele>
        <time>2015-08-30T12:56:50Z</time>
      </trkpt>
      <trkpt lat="44.09573" lon="3.26855">
        <ele>431.8</ele>
        <time>2015-08-30T12:56:51Z</time>
      </trkpt>
      <trkpt lat="44.09558" lon="3.26833">
        <ele>431.8</ele>
        <time>2015-08-30T12:56:52Z</time>
      </trkpt>
      <trkpt lat="44.09549" lon="3.26803">
        <ele>432.3</ele>
        <time>2015-08-30T12:56:53Z</time>
      </trkpt>
      <trkpt lat="44.09538" lon="3.26742">
        <ele>431.3</ele>
        <time>2015-08-30T12:56:55Z</time>
      </trkpt>
      <trkpt lat="44.09531" lon="3.26653">
        <ele>433.7</ele>
        <time>2015-08-30T12:56:58Z</time>
      </trkpt>
      <trkpt lat="44.09472" lon="3.26317">
        <ele>433.2</ele>
        <time>2015-08-30T12:57:09Z</time>
      </trkpt>
      <trkpt lat="44.0943" lon="3.26187">
        <ele>433.2</ele>
        <time>2015-08-30T12:57:14Z</time>
      </trkpt>
      <trkpt lat="44.09417" lon="3.26169">
        <ele>433.2</ele>
        <time>2015-08-30T12:57:15Z</time>
      </trkpt>
      <trkpt lat="44.09402" lon="3.26154">
        <ele>433.7</ele>
        <time>2015-08-30T12:57:16Z</time>
      </trkpt>
      <trkpt lat="44.09385" lon="3.26142">
        <ele>433.7</ele>
        <time>2015-08-30T12:57:17Z</time>
      </trkpt>
      <trkpt lat="44.09368" lon="3.26131">
        <ele>433.2</ele>
        <time>2015-08-30T12:57:18Z</time>
      </trkpt>
      <trkpt lat="44.09351" lon="3.26125">
        <ele>432.3</ele>
        <time>2015-08-30T12:57:19Z</time>
      </trkpt>
      <trkpt lat="44.09333" lon="3.26125">
        <ele>432.7</ele>
        <time>2015-08-30T12:57:20Z</time>
      </trkpt>
      <trkpt lat="44.09316" lon="3.26132">
        <ele>432.3</ele>
        <time>2015-08-30T12:57:21Z</time>
      </trkpt>
      <trkpt lat="44.093" lon="3.26143">
        <ele>432.3</ele>
        <time>2015-08-30T12:57:22Z</time>
      </trkpt>
      <trkpt lat="44.09175" lon="3.26284">
        <ele>429.4</ele>
        <time>2015-08-30T12:57:30Z</time>
      </trkpt>
      <trkpt lat="44.09165" lon="3.26301">
        <ele>427.9</ele>
        <time>2015-08-30T12:57:31Z</time>
      </trkpt>
      <trkpt lat="44.08827" lon="3.26705">
        <ele>422.2</ele>
        <time>2015-08-30T12:57:53Z</time>
      </trkpt>
      <trkpt lat="44.08745" lon="3.269">
        <ele>422.6</ele>
        <time>2015-08-30T12:58:00Z</time>
      </trkpt>
      <trkpt lat="44.08733" lon="3.26963">
        <ele>427.4</ele>
        <time>2015-08-30T12:58:02Z</time>
      </trkpt>
      <trkpt lat="44.0875" lon="3.27499">
        <ele>437.5</ele>
        <time>2015-08-30T12:58:19Z</time>
      </trkpt>
      <trkpt lat="44.08737" lon="3.27559">
        <ele>439</ele>
        <time>2015-08-30T12:58:21Z</time>
      </trkpt>
      <trkpt lat="44.08701" lon="3.27649">
        <ele>440.9</ele>
        <time>2015-08-30T12:58:25Z</time>
      </trkpt>
      <trkpt lat="44.0869" lon="3.27659">
        <ele>441.9</ele>
        <time>2015-08-30T12:58:26Z</time>
      </trkpt>
      <trkpt lat="44.08679" lon="3.27662">
        <ele>442.8</ele>
        <time>2015-08-30T12:58:27Z</time>
      </trkpt>
      <trkpt lat="44.08666" lon="3.27657">
        <ele>443.8</ele>
        <time>2015-08-30T12:58:28Z</time>
      </trkpt>
      <trkpt lat="44.0865" lon="3.27641">
        <ele>444.8</ele>
        <time>2015-08-30T12:58:29Z</time>
      </trkpt>
      <trkpt lat="44.08636" lon="3.27625">
        <ele>445.2</ele>
        <time>2015-08-30T12:58:30Z</time>
      </trkpt>
      <trkpt lat="44.08607" lon="3.27582">
        <ele>446.7</ele>
        <time>2015-08-30T12:58:32Z</time>
      </trkpt>
      <trkpt lat="44.08535" lon="3.27503">
        <ele>448.1</ele>
        <time>2015-08-30T12:58:36Z</time>
      </trkpt>
      <trkpt lat="44.08515" lon="3.27489">
        <ele>448.6</ele>
        <time>2015-08-30T12:58:37Z</time>
      </trkpt>
      <trkpt lat="44.08494" lon="3.27478">
        <ele>448.6</ele>
        <time>2015-08-30T12:58:38Z</time>
      </trkpt>
      <trkpt lat="44.08473" lon="3.2747">
        <ele>448.6</ele>
        <time>2015-08-30T12:58:39Z</time>
      </trkpt>
      <trkpt lat="44.0845" lon="3.27466">
        <ele>448.1</ele>
        <time>2015-08-30T12:58:40Z</time>
      </trkpt>
      <trkpt lat="44.08428" lon="3.27466">
        <ele>448.6</ele>
        <time>2015-08-30T12:58:41Z</time>
      </trkpt>
      <trkpt lat="44.08405" lon="3.2747">
        <ele>448.6</ele>
        <time>2015-08-30T12:58:42Z</time>
      </trkpt>
      <trkpt lat="44.08359" lon="3.27487">
        <ele>447.6</ele>
        <time>2015-08-30T12:58:44Z</time>
      </trkpt>
      <trkpt lat="44.08316" lon="3.27509">
        <ele>447.2</ele>
        <time>2015-08-30T12:58:46Z</time>
      </trkpt>
      <trkpt lat="44.08297" lon="3.27524">
        <ele>447.2</ele>
        <time>2015-08-30T12:58:47Z</time>
      </trkpt>
      <trkpt lat="44.08247" lon="3.27569">
        <ele>446.2</ele>
        <time>2015-08-30T12:58:50Z</time>
      </trkpt>
      <trkpt lat="44.08233" lon="3.27586">
        <ele>445.7</ele>
        <time>2015-08-30T12:58:51Z</time>
      </trkpt>
      <trkpt lat="44.08221" lon="3.27608">
        <ele>445.2</ele>
        <time>2015-08-30T12:58:52Z</time>
      </trkpt>
      <trkpt lat="44.08159" lon="3.27797">
        <ele>447.6</ele>
        <time>2015-08-30T12:58:59Z</time>
      </trkpt>
      <trkpt lat="44.08147" lon="3.27821">
        <ele>446.7</ele>
        <time>2015-08-30T12:59:00Z</time>
      </trkpt>
      <trkpt lat="44.08132" lon="3.27843">
        <ele>446.7</ele>
        <time>2015-08-30T12:59:01Z</time>
      </trkpt>
      <trkpt lat="44.08078" lon="3.279">
        <ele>445.2</ele>
        <time>2015-08-30T12:59:04Z</time>
      </trkpt>
      <trkpt lat="44.07949" lon="3.27985">
        <ele>444.8</ele>
        <time>2015-08-30T12:59:10Z</time>
      </trkpt>
      <trkpt lat="44.07807" lon="3.28026">
        <ele>446.7</ele>
        <time>2015-08-30T12:59:17Z</time>
      </trkpt>
      <trkpt lat="44.07789" lon="3.28036">
        <ele>446.7</ele>
        <time>2015-08-30T12:59:18Z</time>
      </trkpt>
      <trkpt lat="44.07773" lon="3.2805">
        <ele>446.7</ele>
        <time>2015-08-30T12:59:19Z</time>
      </trkpt>
      <trkpt lat="44.07742" lon="3.28089">
        <ele>447.2</ele>
        <time>2015-08-30T12:59:21Z</time>
      </trkpt>
      <trkpt lat="44.07714" lon="3.28133">
        <ele>447.6</ele>
        <time>2015-08-30T12:59:23Z</time>
      </trkpt>
      <trkpt lat="44.07652" lon="3.28369">
        <ele>451.5</ele>
        <time>2015-08-30T12:59:31Z</time>
      </trkpt>
      <trkpt lat="44.07639" lon="3.28395">
        <ele>452.4</ele>
        <time>2015-08-30T12:59:32Z</time>
      </trkpt>
      <trkpt lat="44.07622" lon="3.28419">
        <ele>452.9</ele>
        <time>2015-08-30T12:59:33Z</time>
      </trkpt>
      <trkpt lat="44.07583" lon="3.28459">
        <ele>453.4</ele>
        <time>2015-08-30T12:59:35Z</time>
      </trkpt>
      <trkpt lat="44.07563" lon="3.28477">
        <ele>454.4</ele>
        <time>2015-08-30T12:59:36Z</time>
      </trkpt>
      <trkpt lat="44.07511" lon="3.28516">
        <ele>455.8</ele>
        <time>2015-08-30T12:59:39Z</time>
      </trkpt>
      <trkpt lat="44.07496" lon="3.28519">
        <ele>455.8</ele>
        <time>2015-08-30T12:59:40Z</time>
      </trkpt>
      <trkpt lat="44.07462" lon="3.28516">
        <ele>457.2</ele>
        <time>2015-08-30T12:59:42Z</time>
      </trkpt>
      <trkpt lat="44.07444" lon="3.28511">
        <ele>458.2</ele>
        <time>2015-08-30T12:59:43Z</time>
      </trkpt>
      <trkpt lat="44.07426" lon="3.28508">
        <ele>458.7</ele>
        <time>2015-08-30T12:59:44Z</time>
      </trkpt>
      <trkpt lat="44.07409" lon="3.28513">
        <ele>458.7</ele>
        <time>2015-08-30T12:59:45Z</time>
      </trkpt>
      <trkpt lat="44.07392" lon="3.28523">
        <ele>459.7</ele>
        <time>2015-08-30T12:59:46Z</time>
      </trkpt>
      <trkpt lat="44.07378" lon="3.28541">
        <ele>459.7</ele>
        <time>2015-08-30T12:59:47Z</time>
      </trkpt>
      <trkpt lat="44.07234" lon="3.28791">
        <ele>464.9</ele>
        <time>2015-08-30T12:59:57Z</time>
      </trkpt>
      <trkpt lat="44.07216" lon="3.28809">
        <ele>465.4</ele>
        <time>2015-08-30T12:59:58Z</time>
      </trkpt>
      <trkpt lat="44.07121" lon="3.28934">
        <ele>468.3</ele>
        <time>2015-08-30T13:00:04Z</time>
      </trkpt>
      <trkpt lat="44.07101" lon="3.28982">
        <ele>468.3</ele>
        <time>2015-08-30T13:00:06Z</time>
      </trkpt>
      <trkpt lat="44.07094" lon="3.29008">
        <ele>468.8</ele>
        <time>2015-08-30T13:00:07Z</time>
      </trkpt>
      <trkpt lat="44.07091" lon="3.29036">
        <ele>468.3</ele>
        <time>2015-08-30T13:00:08Z</time>
      </trkpt>
      <trkpt lat="44.07094" lon="3.29067">
        <ele>468.8</ele>
        <time>2015-08-30T13:00:09Z</time>
      </trkpt>
      <trkpt lat="44.07127" lon="3.29242">
        <ele>471.2</ele>
        <time>2015-08-30T13:00:15Z</time>
      </trkpt>
      <trkpt lat="44.07127" lon="3.29267">
        <ele>472.1</ele>
        <time>2015-08-30T13:00:16Z</time>
      </trkpt>
      <trkpt lat="44.07125" lon="3.29291">
        <ele>472.6</ele>
        <time>2015-08-30T13:00:17Z</time>
      </trkpt>
      <trkpt lat="44.0712" lon="3.29309">
        <ele>473.1</ele>
        <time>2015-08-30T13:00:18Z</time>
      </trkpt>
      <trkpt lat="44.07111" lon="3.29322">
        <ele>473.6</ele>
        <time>2015-08-30T13:00:19Z</time>
      </trkpt>
      <trkpt lat="44.071" lon="3.29334">
        <ele>474.1</ele>
        <time>2015-08-30T13:00:20Z</time>
      </trkpt>
      <trkpt lat="44.07089" lon="3.29338">
        <ele>474.6</ele>
        <time>2015-08-30T13:00:21Z</time>
      </trkpt>
      <trkpt lat="44.07076" lon="3.29336">
        <ele>475</ele>
        <time>2015-08-30T13:00:22Z</time>
      </trkpt>
      <trkpt lat="44.0703" lon="3.2929">
        <ele>477.4</ele>
        <time>2015-08-30T13:00:25Z</time>
      </trkpt>
      <trkpt lat="44.07013" lon="3.29277">
        <ele>477.4</ele>
        <time>2015-08-30T13:00:26Z</time>
      </trkpt>
      <trkpt lat="44.06993" lon="3.29267">
        <ele>477.4</ele>
        <time>2015-08-30T13:00:27Z</time>
      </trkpt>
      <trkpt lat="44.06867" lon="3.29234">
        <ele>479.4</ele>
        <time>2015-08-30T13:00:33Z</time>
      </trkpt>
      <trkpt lat="44.06849" lon="3.2924">
        <ele>479.4</ele>
        <time>2015-08-30T13:00:34Z</time>
      </trkpt>
      <trkpt lat="44.06833" lon="3.2925">
        <ele>479.8</ele>
        <time>2015-08-30T13:00:35Z</time>
      </trkpt>
      <trkpt lat="44.06786" lon="3.29264">
        <ele>481.3</ele>
        <time>2015-08-30T13:00:38Z</time>
      </trkpt>
      <trkpt lat="44.0677" lon="3.29262">
        <ele>481.3</ele>
        <time>2015-08-30T13:00:39Z</time>
      </trkpt>
      <trkpt lat="44.06754" lon="3.29264">
        <ele>481.3</ele>
        <time>2015-08-30T13:00:40Z</time>
      </trkpt>
      <trkpt lat="44.0674" lon="3.29274">
        <ele>481.3</ele>
        <time>2015-08-30T13:00:41Z</time>
      </trkpt>
      <trkpt lat="44.06725" lon="3.29289">
        <ele>481.8</ele>
        <time>2015-08-30T13:00:42Z</time>
      </trkpt>
      <trkpt lat="44.06712" lon="3.2931">
        <ele>481.3</ele>
        <time>2015-08-30T13:00:43Z</time>
      </trkpt>
      <trkpt lat="44.0669" lon="3.29361">
        <ele>480.8</ele>
        <time>2015-08-30T13:00:45Z</time>
      </trkpt>
      <trkpt lat="44.06598" lon="3.29747">
        <ele>468.3</ele>
        <time>2015-08-30T13:00:58Z</time>
      </trkpt>
      <trkpt lat="44.06587" lon="3.29774">
        <ele>467.3</ele>
        <time>2015-08-30T13:00:59Z</time>
      </trkpt>
      <trkpt lat="44.06543" lon="3.29848">
        <ele>464.5</ele>
        <time>2015-08-30T13:01:02Z</time>
      </trkpt>
      <trkpt lat="44.06486" lon="3.29931">
        <ele>461.6</ele>
        <time>2015-08-30T13:01:06Z</time>
      </trkpt>
      <trkpt lat="44.06469" lon="3.29944">
        <ele>460.6</ele>
        <time>2015-08-30T13:01:07Z</time>
      </trkpt>
      <trkpt lat="44.06314" lon="3.30019">
        <ele>457.2</ele>
        <time>2015-08-30T13:01:14Z</time>
      </trkpt>
      <trkpt lat="44.06116" lon="3.30046">
        <ele>460.1</ele>
        <time>2015-08-30T13:01:23Z</time>
      </trkpt>
      <trkpt lat="44.06027" lon="3.30052">
        <ele>461.6</ele>
        <time>2015-08-30T13:01:27Z</time>
      </trkpt>
      <trkpt lat="44.06005" lon="3.30047">
        <ele>462.1</ele>
        <time>2015-08-30T13:01:28Z</time>
      </trkpt>
      <trkpt lat="44.05983" lon="3.30038">
        <ele>462.5</ele>
        <time>2015-08-30T13:01:29Z</time>
      </trkpt>
      <trkpt lat="44.05941" lon="3.30014">
        <ele>463</ele>
        <time>2015-08-30T13:01:31Z</time>
      </trkpt>
      <trkpt lat="44.05788" lon="3.29973">
        <ele>465.4</ele>
        <time>2015-08-30T13:01:38Z</time>
      </trkpt>
      <trkpt lat="44.05764" lon="3.29978">
        <ele>465.4</ele>
        <time>2015-08-30T13:01:39Z</time>
      </trkpt>
      <trkpt lat="44.05697" lon="3.30002">
        <ele>466.4</ele>
        <time>2015-08-30T13:01:42Z</time>
      </trkpt>
      <trkpt lat="44.05677" lon="3.30014">
        <ele>466.4</ele>
        <time>2015-08-30T13:01:43Z</time>
      </trkpt>
      <trkpt lat="44.05657" lon="3.3003">
        <ele>466.4</ele>
        <time>2015-08-30T13:01:44Z</time>
      </trkpt>
      <trkpt lat="44.05588" lon="3.30106">
        <ele>465.9</ele>
        <time>2015-08-30T13:01:48Z</time>
      </trkpt>
      <trkpt lat="44.0552" lon="3.30209">
        <ele>465.9</ele>
        <time>2015-08-30T13:01:53Z</time>
      </trkpt>
      <trkpt lat="44.05504" lon="3.30223">
        <ele>465.9</ele>
        <time>2015-08-30T13:01:54Z</time>
      </trkpt>
      <trkpt lat="44.05487" lon="3.30233">
        <ele>466.9</ele>
        <time>2015-08-30T13:01:55Z</time>
      </trkpt>
      <trkpt lat="44.0547" lon="3.30238">
        <ele>467.3</ele>
        <time>2015-08-30T13:01:56Z</time>
      </trkpt>
      <trkpt lat="44.05452" lon="3.30234">
        <ele>467.3</ele>
        <time>2015-08-30T13:01:57Z</time>
      </trkpt>
      <trkpt lat="44.05434" lon="3.30223">
        <ele>469.3</ele>
        <time>2015-08-30T13:01:58Z</time>
      </trkpt>
      <trkpt lat="44.05416" lon="3.30208">
        <ele>470.7</ele>
        <time>2015-08-30T13:01:59Z</time>
      </trkpt>
      <trkpt lat="44.05364" lon="3.30148">
        <ele>471.2</ele>
        <time>2015-08-30T13:02:02Z</time>
      </trkpt>
      <trkpt lat="44.05347" lon="3.30131">
        <ele>471.7</ele>
        <time>2015-08-30T13:02:03Z</time>
      </trkpt>
      <trkpt lat="44.05327" lon="3.30118">
        <ele>472.6</ele>
        <time>2015-08-30T13:02:04Z</time>
      </trkpt>
      <trkpt lat="44.05307" lon="3.30106">
        <ele>473.1</ele>
        <time>2015-08-30T13:02:05Z</time>
      </trkpt>
      <trkpt lat="44.05261" lon="3.30097">
        <ele>473.6</ele>
        <time>2015-08-30T13:02:07Z</time>
      </trkpt>
      <trkpt lat="44.05116" lon="3.30081">
        <ele>476.5</ele>
        <time>2015-08-30T13:02:15Z</time>
      </trkpt>
      <trkpt lat="44.04962" lon="3.30024">
        <ele>481.8</ele>
        <time>2015-08-30T13:02:23Z</time>
      </trkpt>
      <trkpt lat="44.04861" lon="3.29941">
        <ele>486.1</ele>
        <time>2015-08-30T13:02:28Z</time>
      </trkpt>
      <trkpt lat="44.04758" lon="3.29828">
        <ele>489.9</ele>
        <time>2015-08-30T13:02:34Z</time>
      </trkpt>
      <trkpt lat="44.04745" lon="3.29805">
        <ele>490.9</ele>
        <time>2015-08-30T13:02:35Z</time>
      </trkpt>
      <trkpt lat="44.04735" lon="3.29781">
        <ele>491.9</ele>
        <time>2015-08-30T13:02:36Z</time>
      </trkpt>
      <trkpt lat="44.04729" lon="3.29756">
        <ele>492.8</ele>
        <time>2015-08-30T13:02:37Z</time>
      </trkpt>
      <trkpt lat="44.04726" lon="3.29729">
        <ele>491.4</ele>
        <time>2015-08-30T13:02:38Z</time>
      </trkpt>
      <trkpt lat="44.04734" lon="3.29641">
        <ele>493.8</ele>
        <time>2015-08-30T13:02:42Z</time>
      </trkpt>
      <trkpt lat="44.04729" lon="3.29626">
        <ele>493.8</ele>
        <time>2015-08-30T13:02:43Z</time>
      </trkpt>
      <trkpt lat="44.0472" lon="3.29616">
        <ele>493.8</ele>
        <time>2015-08-30T13:02:44Z</time>
      </trkpt>
      <trkpt lat="44.04673" lon="3.29632">
        <ele>494.7</ele>
        <time>2015-08-30T13:02:47Z</time>
      </trkpt>
      <trkpt lat="44.04636" lon="3.29629">
        <ele>495.7</ele>
        <time>2015-08-30T13:02:49Z</time>
      </trkpt>
      <trkpt lat="44.04574" lon="3.29593">
        <ele>496.7</ele>
        <time>2015-08-30T13:02:52Z</time>
      </trkpt>
      <trkpt lat="44.04308" lon="3.29475">
        <ele>502.9</ele>
        <time>2015-08-30T13:03:03Z</time>
      </trkpt>
      <trkpt lat="44.04239" lon="3.29457">
        <ele>504.4</ele>
        <time>2015-08-30T13:03:06Z</time>
      </trkpt>
      <trkpt lat="44.04217" lon="3.29447">
        <ele>504.8</ele>
        <time>2015-08-30T13:03:07Z</time>
      </trkpt>
      <trkpt lat="44.04196" lon="3.29435">
        <ele>505.3</ele>
        <time>2015-08-30T13:03:08Z</time>
      </trkpt>
      <trkpt lat="44.04179" lon="3.29421">
        <ele>505.8</ele>
        <time>2015-08-30T13:03:09Z</time>
      </trkpt>
      <trkpt lat="44.04128" lon="3.29365">
        <ele>508.2</ele>
        <time>2015-08-30T13:03:12Z</time>
      </trkpt>
      <trkpt lat="44.03917" lon="3.29202">
        <ele>513.5</ele>
        <time>2015-08-30T13:03:23Z</time>
      </trkpt>
      <trkpt lat="44.03905" lon="3.29185">
        <ele>514</ele>
        <time>2015-08-30T13:03:24Z</time>
      </trkpt>
      <trkpt lat="44.03896" lon="3.29162">
        <ele>514</ele>
        <time>2015-08-30T13:03:25Z</time>
      </trkpt>
      <trkpt lat="44.0389" lon="3.29135">
        <ele>514.9</ele>
        <time>2015-08-30T13:03:26Z</time>
      </trkpt>
      <trkpt lat="44.0388" lon="3.29025">
        <ele>517.3</ele>
        <time>2015-08-30T13:03:30Z</time>
      </trkpt>
      <trkpt lat="44.03873" lon="3.29002">
        <ele>517.3</ele>
        <time>2015-08-30T13:03:31Z</time>
      </trkpt>
      <trkpt lat="44.03863" lon="3.28981">
        <ele>517.3</ele>
        <time>2015-08-30T13:03:32Z</time>
      </trkpt>
      <trkpt lat="44.03852" lon="3.28966">
        <ele>517.3</ele>
        <time>2015-08-30T13:03:33Z</time>
      </trkpt>
      <trkpt lat="44.03837" lon="3.2896">
        <ele>517.3</ele>
        <time>2015-08-30T13:03:34Z</time>
      </trkpt>
      <trkpt lat="44.03822" lon="3.28963">
        <ele>517.3</ele>
        <time>2015-08-30T13:03:35Z</time>
      </trkpt>
      <trkpt lat="44.0381" lon="3.28974">
        <ele>517.3</ele>
        <time>2015-08-30T13:03:36Z</time>
      </trkpt>
      <trkpt lat="44.03789" lon="3.29014">
        <ele>516.4</ele>
        <time>2015-08-30T13:03:38Z</time>
      </trkpt>
      <trkpt lat="44.03771" lon="3.29074">
        <ele>521.7</ele>
        <time>2015-08-30T13:03:41Z</time>
      </trkpt>
      <trkpt lat="44.03743" lon="3.29105">
        <ele>522.1</ele>
        <time>2015-08-30T13:03:44Z</time>
      </trkpt>
      <trkpt lat="44.03733" lon="3.29106">
        <ele>521.7</ele>
        <time>2015-08-30T13:03:45Z</time>
      </trkpt>
      <trkpt lat="44.03721" lon="3.29098">
        <ele>521.7</ele>
        <time>2015-08-30T13:03:46Z</time>
      </trkpt>
      <trkpt lat="44.03711" lon="3.29083">
        <ele>520.2</ele>
        <time>2015-08-30T13:03:47Z</time>
      </trkpt>
      <trkpt lat="44.03703" lon="3.29063">
        <ele>514.4</ele>
        <time>2015-08-30T13:03:48Z</time>
      </trkpt>
      <trkpt lat="44.03682" lon="3.29025">
        <ele>515.9</ele>
        <time>2015-08-30T13:03:50Z</time>
      </trkpt>
      <trkpt lat="44.03668" lon="3.29006">
        <ele>515.4</ele>
        <time>2015-08-30T13:03:51Z</time>
      </trkpt>
      <trkpt lat="44.03652" lon="3.28988">
        <ele>515.4</ele>
        <time>2015-08-30T13:03:52Z</time>
      </trkpt>
      <trkpt lat="44.03633" lon="3.28973">
        <ele>514.9</ele>
        <time>2015-08-30T13:03:53Z</time>
      </trkpt>
      <trkpt lat="44.03591" lon="3.28947">
        <ele>512.5</ele>
        <time>2015-08-30T13:03:55Z</time>
      </trkpt>
      <trkpt lat="44.03548" lon="3.28928">
        <ele>510.6</ele>
        <time>2015-08-30T13:03:57Z</time>
      </trkpt>
      <trkpt lat="44.03526" lon="3.28924">
        <ele>509.6</ele>
        <time>2015-08-30T13:03:58Z</time>
      </trkpt>
      <trkpt lat="44.03503" lon="3.28924">
        <ele>509.2</ele>
        <time>2015-08-30T13:03:59Z</time>
      </trkpt>
      <trkpt lat="44.03401" lon="3.289">
        <ele>509.2</ele>
        <time>2015-08-30T13:04:04Z</time>
      </trkpt>
      <trkpt lat="44.03383" lon="3.28886">
        <ele>509.2</ele>
        <time>2015-08-30T13:04:05Z</time>
      </trkpt>
      <trkpt lat="44.03368" lon="3.28868">
        <ele>509.2</ele>
        <time>2015-08-30T13:04:06Z</time>
      </trkpt>
      <trkpt lat="44.03333" lon="3.28802">
        <ele>505.8</ele>
        <time>2015-08-30T13:04:09Z</time>
      </trkpt>
      <trkpt lat="44.03318" lon="3.28784">
        <ele>505.3</ele>
        <time>2015-08-30T13:04:10Z</time>
      </trkpt>
      <trkpt lat="44.03302" lon="3.28771">
        <ele>504.4</ele>
        <time>2015-08-30T13:04:11Z</time>
      </trkpt>
      <trkpt lat="44.03285" lon="3.2876">
        <ele>503.4</ele>
        <time>2015-08-30T13:04:12Z</time>
      </trkpt>
      <trkpt lat="44.03269" lon="3.28754">
        <ele>502.9</ele>
        <time>2015-08-30T13:04:13Z</time>
      </trkpt>
      <trkpt lat="44.03252" lon="3.28749">
        <ele>502</ele>
        <time>2015-08-30T13:04:14Z</time>
      </trkpt>
      <trkpt lat="44.03235" lon="3.28748">
        <ele>501.5</ele>
        <time>2015-08-30T13:04:15Z</time>
      </trkpt>
      <trkpt lat="44.03218" lon="3.28748">
        <ele>501</ele>
        <time>2015-08-30T13:04:16Z</time>
      </trkpt>
      <trkpt lat="44.03201" lon="3.28751">
        <ele>500.5</ele>
        <time>2015-08-30T13:04:17Z</time>
      </trkpt>
      <trkpt lat="44.03186" lon="3.28756">
        <ele>500</ele>
        <time>2015-08-30T13:04:18Z</time>
      </trkpt>
      <trkpt lat="44.03171" lon="3.28761">
        <ele>500</ele>
        <time>2015-08-30T13:04:19Z</time>
      </trkpt>
      <trkpt lat="44.03157" lon="3.28769">
        <ele>500</ele>
        <time>2015-08-30T13:04:20Z</time>
      </trkpt>
      <trkpt lat="44.03144" lon="3.28779">
        <ele>500</ele>
        <time>2015-08-30T13:04:21Z</time>
      </trkpt>
      <trkpt lat="44.03132" lon="3.28792">
        <ele>499.1</ele>
        <time>2015-08-30T13:04:22Z</time>
      </trkpt>
      <trkpt lat="44.03122" lon="3.28808">
        <ele>498.6</ele>
        <time>2015-08-30T13:04:23Z</time>
      </trkpt>
      <trkpt lat="44.03103" lon="3.28852">
        <ele>497.1</ele>
        <time>2015-08-30T13:04:25Z</time>
      </trkpt>
      <trkpt lat="44.03089" lon="3.28874">
        <ele>496.7</ele>
        <time>2015-08-30T13:04:26Z</time>
      </trkpt>
      <trkpt lat="44.02981" lon="3.29011">
        <ele>492.3</ele>
        <time>2015-08-30T13:04:32Z</time>
      </trkpt>
      <trkpt lat="44.02969" lon="3.29038">
        <ele>491.4</ele>
        <time>2015-08-30T13:04:33Z</time>
      </trkpt>
      <trkpt lat="44.02958" lon="3.29068">
        <ele>490.9</ele>
        <time>2015-08-30T13:04:34Z</time>
      </trkpt>
      <trkpt lat="44.0295" lon="3.29101">
        <ele>490.4</ele>
        <time>2015-08-30T13:04:35Z</time>
      </trkpt>
      <trkpt lat="44.02928" lon="3.29324">
        <ele>488.5</ele>
        <time>2015-08-30T13:04:41Z</time>
      </trkpt>
      <trkpt lat="44.02941" lon="3.29447">
        <ele>485.1</ele>
        <time>2015-08-30T13:04:45Z</time>
      </trkpt>
      <trkpt lat="44.02936" lon="3.29477">
        <ele>485.1</ele>
        <time>2015-08-30T13:04:46Z</time>
      </trkpt>
      <trkpt lat="44.02926" lon="3.29504">
        <ele>485.1</ele>
        <time>2015-08-30T13:04:47Z</time>
      </trkpt>
      <trkpt lat="44.02894" lon="3.29552">
        <ele>482.2</ele>
        <time>2015-08-30T13:04:49Z</time>
      </trkpt>
      <trkpt lat="44.02382" lon="3.3001">
        <ele>489.9</ele>
        <time>2015-08-30T13:05:24Z</time>
      </trkpt>
      <trkpt lat="44.02375" lon="3.30021">
        <ele>489.9</ele>
        <time>2015-08-30T13:05:25Z</time>
      </trkpt>
      <trkpt lat="44.02369" lon="3.30034">
        <ele>490.4</ele>
        <time>2015-08-30T13:05:26Z</time>
      </trkpt>
      <trkpt lat="44.02366" lon="3.30066">
        <ele>490.9</ele>
        <time>2015-08-30T13:05:28Z</time>
      </trkpt>
      <trkpt lat="44.02367" lon="3.30091">
        <ele>491.4</ele>
        <time>2015-08-30T13:05:30Z</time>
      </trkpt>
      <trkpt lat="44.02365" lon="3.30113">
        <ele>492.3</ele>
        <time>2015-08-30T13:05:32Z</time>
      </trkpt>
      <trkpt lat="44.02362" lon="3.30122">
        <ele>492.3</ele>
        <time>2015-08-30T13:05:33Z</time>
      </trkpt>
      <trkpt lat="44.02356" lon="3.30128">
        <ele>492.3</ele>
        <time>2015-08-30T13:05:34Z</time>
      </trkpt>
      <trkpt lat="44.02349" lon="3.30134">
        <ele>492.3</ele>
        <time>2015-08-30T13:05:35Z</time>
      </trkpt>
      <trkpt lat="44.0226" lon="3.30186">
        <ele>490.4</ele>
        <time>2015-08-30T13:05:49Z</time>
      </trkpt>
      <trkpt lat="44.02255" lon="3.30188">
        <ele>490.4</ele>
        <time>2015-08-30T13:05:50Z</time>
      </trkpt>
      <trkpt lat="44.02246" lon="3.30185">
        <ele>490.4</ele>
        <time>2015-08-30T13:05:52Z</time>
      </trkpt>
      <trkpt lat="44.02245" lon="3.3018">
        <ele>489.9</ele>
        <time>2015-08-30T13:05:53Z</time>
      </trkpt>
      <trkpt lat="44.02245" lon="3.30174">
        <ele>490.9</ele>
        <time>2015-08-30T13:05:54Z</time>
      </trkpt>
      <trkpt lat="44.02247" lon="3.30163">
        <ele>491.4</ele>
        <time>2015-08-30T13:05:56Z</time>
      </trkpt>
      <trkpt lat="44.02249" lon="3.30159">
        <ele>491.4</ele>
        <time>2015-08-30T13:05:57Z</time>
      </trkpt>
      <trkpt lat="44.02251" lon="3.30156">
        <ele>491.9</ele>
        <time>2015-08-30T13:05:58Z</time>
      </trkpt>
      <trkpt lat="44.02253" lon="3.30154">
        <ele>492.3</ele>
        <time>2015-08-30T13:05:59Z</time>
      </trkpt>
      <trkpt lat="44.02255" lon="3.30153">
        <ele>492.8</ele>
        <time>2015-08-30T13:06:00Z</time>
      </trkpt>
      <trkpt lat="44.02269" lon="3.3014">
        <ele>494.3</ele>
        <time>2015-08-30T13:06:08Z</time>
      </trkpt>
      <trkpt lat="44.02269" lon="3.30138">
        <ele>494.3</ele>
        <time>2015-08-30T13:06:09Z</time>
      </trkpt>
      <trkpt lat="44.02269" lon="3.30136">
        <ele>494.3</ele>
        <time>2015-08-30T13:06:10Z</time>
      </trkpt>
      <trkpt lat="44.02267" lon="3.30135">
        <ele>494.3</ele>
        <time>2015-08-30T13:06:11Z</time>
      </trkpt>
      <trkpt lat="44.02266" lon="3.30135">
        <ele>492.3</ele>
        <time>2015-08-30T13:06:25Z</time>
      </trkpt>
      <trkpt lat="44.02266" lon="3.30136">
        <ele>490.9</ele>
        <time>2015-08-30T13:06:51Z</time>
      </trkpt>
      <trkpt lat="44.02265" lon="3.30131">
        <ele>488</ele>
        <time>2015-08-30T13:56:45Z</time>
      </trkpt>
      <trkpt lat="44.02265" lon="3.30133">
        <ele>486.6</ele>
        <time>2015-08-30T13:58:25Z</time>
      </trkpt>
      <trkpt lat="44.02252" lon="3.30155">
        <ele>487.1</ele>
        <time>2015-08-30T13:58:34Z</time>
      </trkpt>
      <trkpt lat="44.02244" lon="3.30182">
        <ele>486.6</ele>
        <time>2015-08-30T13:58:43Z</time>
      </trkpt>
      <trkpt lat="44.02243" lon="3.30191">
        <ele>486.6</ele>
        <time>2015-08-30T13:58:45Z</time>
      </trkpt>
      <trkpt lat="44.0224" lon="3.30196">
        <ele>487.1</ele>
        <time>2015-08-30T13:58:46Z</time>
      </trkpt>
      <trkpt lat="44.02226" lon="3.30214">
        <ele>487.5</ele>
        <time>2015-08-30T13:58:49Z</time>
      </trkpt>
      <trkpt lat="44.02222" lon="3.30223">
        <ele>487.5</ele>
        <time>2015-08-30T13:58:50Z</time>
      </trkpt>
      <trkpt lat="44.0222" lon="3.30234">
        <ele>488</ele>
        <time>2015-08-30T13:58:51Z</time>
      </trkpt>
      <trkpt lat="44.022" lon="3.30293">
        <ele>485.6</ele>
        <time>2015-08-30T13:58:57Z</time>
      </trkpt>
      <trkpt lat="44.02195" lon="3.30297">
        <ele>485.1</ele>
        <time>2015-08-30T13:58:58Z</time>
      </trkpt>
      <trkpt lat="44.02188" lon="3.30298">
        <ele>485.6</ele>
        <time>2015-08-30T13:58:59Z</time>
      </trkpt>
      <trkpt lat="44.02183" lon="3.30296">
        <ele>485.1</ele>
        <time>2015-08-30T13:59:00Z</time>
      </trkpt>
      <trkpt lat="44.02177" lon="3.30296">
        <ele>485.1</ele>
        <time>2015-08-30T13:59:01Z</time>
      </trkpt>
      <trkpt lat="44.02171" lon="3.303">
        <ele>485.6</ele>
        <time>2015-08-30T13:59:02Z</time>
      </trkpt>
      <trkpt lat="44.02081" lon="3.30406">
        <ele>486.6</ele>
        <time>2015-08-30T13:59:15Z</time>
      </trkpt>
      <trkpt lat="44.02044" lon="3.30431">
        <ele>490.9</ele>
        <time>2015-08-30T13:59:19Z</time>
      </trkpt>
      <trkpt lat="44.02034" lon="3.30435">
        <ele>491.4</ele>
        <time>2015-08-30T13:59:20Z</time>
      </trkpt>
      <trkpt lat="44.01919" lon="3.30459">
        <ele>491.9</ele>
        <time>2015-08-30T13:59:30Z</time>
      </trkpt>
      <trkpt lat="44.0138" lon="3.30474">
        <ele>487.5</ele>
        <time>2015-08-30T14:00:30Z</time>
      </trkpt>
      <trkpt lat="44.01333" lon="3.30482">
        <ele>488.5</ele>
        <time>2015-08-30T14:00:36Z</time>
      </trkpt>
      <trkpt lat="44.01316" lon="3.30491">
        <ele>488.5</ele>
        <time>2015-08-30T14:00:38Z</time>
      </trkpt>
      <trkpt lat="44.01297" lon="3.30504">
        <ele>488</ele>
        <time>2015-08-30T14:00:40Z</time>
      </trkpt>
      <trkpt lat="44.01289" lon="3.30513">
        <ele>488</ele>
        <time>2015-08-30T14:00:41Z</time>
      </trkpt>
      <trkpt lat="44.0128" lon="3.30524">
        <ele>487.1</ele>
        <time>2015-08-30T14:00:42Z</time>
      </trkpt>
      <trkpt lat="44.01273" lon="3.30537">
        <ele>487.1</ele>
        <time>2015-08-30T14:00:43Z</time>
      </trkpt>
      <trkpt lat="44.01073" lon="3.31025">
        <ele>488.5</ele>
        <time>2015-08-30T14:01:07Z</time>
      </trkpt>
      <trkpt lat="44.01067" lon="3.31048">
        <ele>488.5</ele>
        <time>2015-08-30T14:01:08Z</time>
      </trkpt>
      <trkpt lat="44.01059" lon="3.31098">
        <ele>488</ele>
        <time>2015-08-30T14:01:10Z</time>
      </trkpt>
      <trkpt lat="44.01054" lon="3.31318">
        <ele>486.6</ele>
        <time>2015-08-30T14:01:18Z</time>
      </trkpt>
      <trkpt lat="44.01057" lon="3.31343">
        <ele>486.1</ele>
        <time>2015-08-30T14:01:19Z</time>
      </trkpt>
      <trkpt lat="44.01234" lon="3.3201">
        <ele>488.5</ele>
        <time>2015-08-30T14:01:44Z</time>
      </trkpt>
      <trkpt lat="44.01261" lon="3.32057">
        <ele>488</ele>
        <time>2015-08-30T14:01:46Z</time>
      </trkpt>
      <trkpt lat="44.01709" lon="3.32558">
        <ele>497.1</ele>
        <time>2015-08-30T14:02:11Z</time>
      </trkpt>
      <trkpt lat="44.01836" lon="3.32681">
        <ele>494.3</ele>
        <time>2015-08-30T14:02:18Z</time>
      </trkpt>
      <trkpt lat="44.01875" lon="3.32702">
        <ele>492.8</ele>
        <time>2015-08-30T14:02:20Z</time>
      </trkpt>
      <trkpt lat="44.01894" lon="3.32716">
        <ele>492.3</ele>
        <time>2015-08-30T14:02:21Z</time>
      </trkpt>
      <trkpt lat="44.01912" lon="3.32736">
        <ele>491.9</ele>
        <time>2015-08-30T14:02:22Z</time>
      </trkpt>
      <trkpt lat="44.02218" lon="3.33162">
        <ele>496.7</ele>
        <time>2015-08-30T14:02:40Z</time>
      </trkpt>
      <trkpt lat="44.02229" lon="3.33184">
        <ele>497.1</ele>
        <time>2015-08-30T14:02:41Z</time>
      </trkpt>
      <trkpt lat="44.02237" lon="3.33209">
        <ele>497.6</ele>
        <time>2015-08-30T14:02:42Z</time>
      </trkpt>
      <trkpt lat="44.02242" lon="3.33238">
        <ele>498.1</ele>
        <time>2015-08-30T14:02:43Z</time>
      </trkpt>
      <trkpt lat="44.02242" lon="3.33267">
        <ele>498.6</ele>
        <time>2015-08-30T14:02:44Z</time>
      </trkpt>
      <trkpt lat="44.02238" lon="3.33299">
        <ele>500</ele>
        <time>2015-08-30T14:02:45Z</time>
      </trkpt>
      <trkpt lat="44.02232" lon="3.33328">
        <ele>501.5</ele>
        <time>2015-08-30T14:02:46Z</time>
      </trkpt>
      <trkpt lat="44.02221" lon="3.33351">
        <ele>502.9</ele>
        <time>2015-08-30T14:02:47Z</time>
      </trkpt>
      <trkpt lat="44.02207" lon="3.33373">
        <ele>503.9</ele>
        <time>2015-08-30T14:02:48Z</time>
      </trkpt>
      <trkpt lat="44.02165" lon="3.33406">
        <ele>504.4</ele>
        <time>2015-08-30T14:02:50Z</time>
      </trkpt>
      <trkpt lat="44.02135" lon="3.33416">
        <ele>501</ele>
        <time>2015-08-30T14:02:51Z</time>
      </trkpt>
      <trkpt lat="44.02113" lon="3.33429">
        <ele>500.5</ele>
        <time>2015-08-30T14:02:52Z</time>
      </trkpt>
      <trkpt lat="44.01876" lon="3.33627">
        <ele>502.9</ele>
        <time>2015-08-30T14:03:05Z</time>
      </trkpt>
      <trkpt lat="44.01834" lon="3.33699">
        <ele>502.9</ele>
        <time>2015-08-30T14:03:08Z</time>
      </trkpt>
      <trkpt lat="44.01823" lon="3.33726">
        <ele>502.4</ele>
        <time>2015-08-30T14:03:09Z</time>
      </trkpt>
      <trkpt lat="44.01778" lon="3.33914">
        <ele>499.5</ele>
        <time>2015-08-30T14:03:16Z</time>
      </trkpt>
      <trkpt lat="44.02126" lon="3.35223">
        <ele>514.4</ele>
        <time>2015-08-30T14:03:58Z</time>
      </trkpt>
      <trkpt lat="44.02144" lon="3.35269">
        <ele>515.4</ele>
        <time>2015-08-30T14:04:00Z</time>
      </trkpt>
      <trkpt lat="44.02157" lon="3.35288">
        <ele>516.4</ele>
        <time>2015-08-30T14:04:01Z</time>
      </trkpt>
      <trkpt lat="44.02171" lon="3.35301">
        <ele>517.8</ele>
        <time>2015-08-30T14:04:02Z</time>
      </trkpt>
      <trkpt lat="44.02208" lon="3.35321">
        <ele>519.7</ele>
        <time>2015-08-30T14:04:04Z</time>
      </trkpt>
      <trkpt lat="44.02228" lon="3.35327">
        <ele>520.7</ele>
        <time>2015-08-30T14:04:05Z</time>
      </trkpt>
      <trkpt lat="44.02328" lon="3.35323">
        <ele>520.2</ele>
        <time>2015-08-30T14:04:10Z</time>
      </trkpt>
      <trkpt lat="44.02344" lon="3.35326">
        <ele>519.7</ele>
        <time>2015-08-30T14:04:11Z</time>
      </trkpt>
      <trkpt lat="44.02359" lon="3.35333">
        <ele>519.7</ele>
        <time>2015-08-30T14:04:12Z</time>
      </trkpt>
      <trkpt lat="44.02386" lon="3.35352">
        <ele>520.2</ele>
        <time>2015-08-30T14:04:14Z</time>
      </trkpt>
      <trkpt lat="44.02454" lon="3.35713">
        <ele>512</ele>
        <time>2015-08-30T14:04:40Z</time>
      </trkpt>
      <trkpt lat="44.02453" lon="3.35731">
        <ele>512.5</ele>
        <time>2015-08-30T14:04:42Z</time>
      </trkpt>
      <trkpt lat="44.02449" lon="3.3574">
        <ele>513</ele>
        <time>2015-08-30T14:04:43Z</time>
      </trkpt>
      <trkpt lat="44.02445" lon="3.35748">
        <ele>513.5</ele>
        <time>2015-08-30T14:04:44Z</time>
      </trkpt>
      <trkpt lat="44.02439" lon="3.35756">
        <ele>514.4</ele>
        <time>2015-08-30T14:04:45Z</time>
      </trkpt>
      <trkpt lat="44.02432" lon="3.35762">
        <ele>514.9</ele>
        <time>2015-08-30T14:04:46Z</time>
      </trkpt>
      <trkpt lat="44.02421" lon="3.35766">
        <ele>514.4</ele>
        <time>2015-08-30T14:04:47Z</time>
      </trkpt>
      <trkpt lat="44.0239" lon="3.35783">
        <ele>515.9</ele>
        <time>2015-08-30T14:04:51Z</time>
      </trkpt>
      <trkpt lat="44.02381" lon="3.35789">
        <ele>514.9</ele>
        <time>2015-08-30T14:04:52Z</time>
      </trkpt>
      <trkpt lat="44.02361" lon="3.35811">
        <ele>516.4</ele>
        <time>2015-08-30T14:04:55Z</time>
      </trkpt>
      <trkpt lat="44.02342" lon="3.3586">
        <ele>522.1</ele>
        <time>2015-08-30T14:05:07Z</time>
      </trkpt>
      <trkpt lat="44.02344" lon="3.35871">
        <ele>523.1</ele>
        <time>2015-08-30T14:05:10Z</time>
      </trkpt>
      <trkpt lat="44.02344" lon="3.3587">
        <ele>526.9</ele>
        <time>2015-08-30T14:05:21Z</time>
      </trkpt>
      <trkpt lat="44.02343" lon="3.35872">
        <ele>526.9</ele>
        <time>2015-08-30T14:05:22Z</time>
      </trkpt>
      <trkpt lat="44.02343" lon="3.35877">
        <ele>527.4</ele>
        <time>2015-08-30T14:05:23Z</time>
      </trkpt>
      <trkpt lat="44.02339" lon="3.35912">
        <ele>530.3</ele>
        <time>2015-08-30T14:05:29Z</time>
      </trkpt>
      <trkpt lat="44.02337" lon="3.35918">
        <ele>530.8</ele>
        <time>2015-08-30T14:05:30Z</time>
      </trkpt>
      <trkpt lat="44.02333" lon="3.35931">
        <ele>530.3</ele>
        <time>2015-08-30T14:05:32Z</time>
      </trkpt>
      <trkpt lat="44.02325" lon="3.35947">
        <ele>530.8</ele>
        <time>2015-08-30T14:05:35Z</time>
      </trkpt>
      <trkpt lat="44.02298" lon="3.35972">
        <ele>528.4</ele>
        <time>2015-08-30T14:05:41Z</time>
      </trkpt>
      <trkpt lat="44.02286" lon="3.35986">
        <ele>529.3</ele>
        <time>2015-08-30T14:05:43Z</time>
      </trkpt>
      <trkpt lat="44.02281" lon="3.35995">
        <ele>529.8</ele>
        <time>2015-08-30T14:05:44Z</time>
      </trkpt>
      <trkpt lat="44.01987" lon="3.36301">
        <ele>533.2</ele>
        <time>2015-08-30T14:06:23Z</time>
      </trkpt>
      <trkpt lat="44.01895" lon="3.36339">
        <ele>539</ele>
        <time>2015-08-30T14:06:29Z</time>
      </trkpt>
      <trkpt lat="44.01767" lon="3.36336">
        <ele>547.1</ele>
        <time>2015-08-30T14:06:35Z</time>
      </trkpt>
      <trkpt lat="44.0147" lon="3.36372">
        <ele>570.7</ele>
        <time>2015-08-30T14:06:49Z</time>
      </trkpt>
      <trkpt lat="44.01189" lon="3.36446">
        <ele>590.4</ele>
        <time>2015-08-30T14:07:02Z</time>
      </trkpt>
      <trkpt lat="44.01172" lon="3.36445">
        <ele>591.8</ele>
        <time>2015-08-30T14:07:03Z</time>
      </trkpt>
      <trkpt lat="44.01158" lon="3.36438">
        <ele>592.8</ele>
        <time>2015-08-30T14:07:04Z</time>
      </trkpt>
      <trkpt lat="44.0113" lon="3.3643">
        <ele>595.7</ele>
        <time>2015-08-30T14:07:06Z</time>
      </trkpt>
      <trkpt lat="44.01118" lon="3.3643">
        <ele>596.6</ele>
        <time>2015-08-30T14:07:07Z</time>
      </trkpt>
      <trkpt lat="44.01084" lon="3.36438">
        <ele>601.4</ele>
        <time>2015-08-30T14:07:10Z</time>
      </trkpt>
      <trkpt lat="44.01071" lon="3.36437">
        <ele>602.4</ele>
        <time>2015-08-30T14:07:11Z</time>
      </trkpt>
      <trkpt lat="44.01056" lon="3.36433">
        <ele>603.9</ele>
        <time>2015-08-30T14:07:12Z</time>
      </trkpt>
      <trkpt lat="44.00948" lon="3.36384">
        <ele>611.1</ele>
        <time>2015-08-30T14:07:18Z</time>
      </trkpt>
      <trkpt lat="44.00931" lon="3.36373">
        <ele>612</ele>
        <time>2015-08-30T14:07:19Z</time>
      </trkpt>
      <trkpt lat="44.00914" lon="3.36357">
        <ele>613</ele>
        <time>2015-08-30T14:07:20Z</time>
      </trkpt>
      <trkpt lat="44.00831" lon="3.36298">
        <ele>618.8</ele>
        <time>2015-08-30T14:07:25Z</time>
      </trkpt>
      <trkpt lat="44.00794" lon="3.36282">
        <ele>621.6</ele>
        <time>2015-08-30T14:07:27Z</time>
      </trkpt>
      <trkpt lat="44.00748" lon="3.36242">
        <ele>625.5</ele>
        <time>2015-08-30T14:07:30Z</time>
      </trkpt>
      <trkpt lat="44.0073" lon="3.36235">
        <ele>626.4</ele>
        <time>2015-08-30T14:07:31Z</time>
      </trkpt>
      <trkpt lat="44.00671" lon="3.36219">
        <ele>631.2</ele>
        <time>2015-08-30T14:07:34Z</time>
      </trkpt>
      <trkpt lat="44.00591" lon="3.36211">
        <ele>636.1</ele>
        <time>2015-08-30T14:07:38Z</time>
      </trkpt>
      <trkpt lat="44.00413" lon="3.36249">
        <ele>649</ele>
        <time>2015-08-30T14:07:46Z</time>
      </trkpt>
      <trkpt lat="44.00393" lon="3.36263">
        <ele>651.4</ele>
        <time>2015-08-30T14:07:47Z</time>
      </trkpt>
      <trkpt lat="44.00281" lon="3.36312">
        <ele>661</ele>
        <time>2015-08-30T14:07:52Z</time>
      </trkpt>
      <trkpt lat="44.0026" lon="3.36326">
        <ele>662.5</ele>
        <time>2015-08-30T14:07:53Z</time>
      </trkpt>
      <trkpt lat="44.00115" lon="3.36397">
        <ele>674</ele>
        <time>2015-08-30T14:08:00Z</time>
      </trkpt>
      <trkpt lat="44.00099" lon="3.36407">
        <ele>675.5</ele>
        <time>2015-08-30T14:08:01Z</time>
      </trkpt>
      <trkpt lat="44.00085" lon="3.36423">
        <ele>676.9</ele>
        <time>2015-08-30T14:08:02Z</time>
      </trkpt>
      <trkpt lat="44.00074" lon="3.36439">
        <ele>678.8</ele>
        <time>2015-08-30T14:08:03Z</time>
      </trkpt>
      <trkpt lat="44.00059" lon="3.36473">
        <ele>683.2</ele>
        <time>2015-08-30T14:08:06Z</time>
      </trkpt>
      <trkpt lat="44.0005" lon="3.3647">
        <ele>685.1</ele>
        <time>2015-08-30T14:08:08Z</time>
      </trkpt>
      <trkpt lat="44.00049" lon="3.36462">
        <ele>685.6</ele>
        <time>2015-08-30T14:08:09Z</time>
      </trkpt>
      <trkpt lat="44.00052" lon="3.3645">
        <ele>686</ele>
        <time>2015-08-30T14:08:10Z</time>
      </trkpt>
      <trkpt lat="44.00064" lon="3.36418">
        <ele>685.6</ele>
        <time>2015-08-30T14:08:12Z</time>
      </trkpt>
      <trkpt lat="44.001" lon="3.3638">
        <ele>692.8</ele>
        <time>2015-08-30T14:08:14Z</time>
      </trkpt>
      <trkpt lat="44.00114" lon="3.3636">
        <ele>693.3</ele>
        <time>2015-08-30T14:08:15Z</time>
      </trkpt>
      <trkpt lat="44.00162" lon="3.36312">
        <ele>695.2</ele>
        <time>2015-08-30T14:08:19Z</time>
      </trkpt>
      <trkpt lat="44.00167" lon="3.36302">
        <ele>695.7</ele>
        <time>2015-08-30T14:08:20Z</time>
      </trkpt>
      <trkpt lat="44.00164" lon="3.36292">
        <ele>695.7</ele>
        <time>2015-08-30T14:08:21Z</time>
      </trkpt>
      <trkpt lat="44.00157" lon="3.36286">
        <ele>696.1</ele>
        <time>2015-08-30T14:08:22Z</time>
      </trkpt>
      <trkpt lat="44.00148" lon="3.36287">
        <ele>695.2</ele>
        <time>2015-08-30T14:08:23Z</time>
      </trkpt>
      <trkpt lat="44.00108" lon="3.36313">
        <ele>694.7</ele>
        <time>2015-08-30T14:08:26Z</time>
      </trkpt>
      <trkpt lat="44.00089" lon="3.36323">
        <ele>695.2</ele>
        <time>2015-08-30T14:08:27Z</time>
      </trkpt>
      <trkpt lat="44.0005" lon="3.36335">
        <ele>697.1</ele>
        <time>2015-08-30T14:08:29Z</time>
      </trkpt>
      <trkpt lat="44.0003" lon="3.36337">
        <ele>698.1</ele>
        <time>2015-08-30T14:08:30Z</time>
      </trkpt>
      <trkpt lat="43.99972" lon="3.36351">
        <ele>700.9</ele>
        <time>2015-08-30T14:08:33Z</time>
      </trkpt>
      <trkpt lat="43.99902" lon="3.36401">
        <ele>705.3</ele>
        <time>2015-08-30T14:08:37Z</time>
      </trkpt>
      <trkpt lat="43.99882" lon="3.36406">
        <ele>706.7</ele>
        <time>2015-08-30T14:08:38Z</time>
      </trkpt>
      <trkpt lat="43.99663" lon="3.36408">
        <ele>720.7</ele>
        <time>2015-08-30T14:08:48Z</time>
      </trkpt>
      <trkpt lat="43.99645" lon="3.36416">
        <ele>723.1</ele>
        <time>2015-08-30T14:08:49Z</time>
      </trkpt>
      <trkpt lat="43.99625" lon="3.36429">
        <ele>725.5</ele>
        <time>2015-08-30T14:08:50Z</time>
      </trkpt>
      <trkpt lat="43.99609" lon="3.36446">
        <ele>727.4</ele>
        <time>2015-08-30T14:08:51Z</time>
      </trkpt>
      <trkpt lat="43.99593" lon="3.36469">
        <ele>726.9</ele>
        <time>2015-08-30T14:08:52Z</time>
      </trkpt>
      <trkpt lat="43.99576" lon="3.36487">
        <ele>727.4</ele>
        <time>2015-08-30T14:08:53Z</time>
      </trkpt>
      <trkpt lat="43.99545" lon="3.36532">
        <ele>730.7</ele>
        <time>2015-08-30T14:08:55Z</time>
      </trkpt>
      <trkpt lat="43.99467" lon="3.36662">
        <ele>738.9</ele>
        <time>2015-08-30T14:09:01Z</time>
      </trkpt>
      <trkpt lat="43.99452" lon="3.36668">
        <ele>739.4</ele>
        <time>2015-08-30T14:09:02Z</time>
      </trkpt>
      <trkpt lat="43.99433" lon="3.36673">
        <ele>743.7</ele>
        <time>2015-08-30T14:09:03Z</time>
      </trkpt>
      <trkpt lat="43.99411" lon="3.36669">
        <ele>746.6</ele>
        <time>2015-08-30T14:09:04Z</time>
      </trkpt>
      <trkpt lat="43.99391" lon="3.36668">
        <ele>745.2</ele>
        <time>2015-08-30T14:09:05Z</time>
      </trkpt>
      <trkpt lat="43.9935" lon="3.36649">
        <ele>745.2</ele>
        <time>2015-08-30T14:09:07Z</time>
      </trkpt>
      <trkpt lat="43.99332" lon="3.36638">
        <ele>745.6</ele>
        <time>2015-08-30T14:09:08Z</time>
      </trkpt>
      <trkpt lat="43.99315" lon="3.36633">
        <ele>746.6</ele>
        <time>2015-08-30T14:09:09Z</time>
      </trkpt>
      <trkpt lat="43.99297" lon="3.36631">
        <ele>747.6</ele>
        <time>2015-08-30T14:09:10Z</time>
      </trkpt>
      <trkpt lat="43.99282" lon="3.36643">
        <ele>752.9</ele>
        <time>2015-08-30T14:09:11Z</time>
      </trkpt>
      <trkpt lat="43.99271" lon="3.36659">
        <ele>755.7</ele>
        <time>2015-08-30T14:09:12Z</time>
      </trkpt>
      <trkpt lat="43.99259" lon="3.36926">
        <ele>759.6</ele>
        <time>2015-08-30T14:09:22Z</time>
      </trkpt>
      <trkpt lat="43.99274" lon="3.36944">
        <ele>762</ele>
        <time>2015-08-30T14:09:23Z</time>
      </trkpt>
      <trkpt lat="43.99284" lon="3.36965">
        <ele>763.9</ele>
        <time>2015-08-30T14:09:24Z</time>
      </trkpt>
      <trkpt lat="43.99289" lon="3.36991">
        <ele>765.4</ele>
        <time>2015-08-30T14:09:25Z</time>
      </trkpt>
      <trkpt lat="43.99288" lon="3.3702">
        <ele>767.3</ele>
        <time>2015-08-30T14:09:26Z</time>
      </trkpt>
      <trkpt lat="43.99281" lon="3.3705">
        <ele>768.2</ele>
        <time>2015-08-30T14:09:27Z</time>
      </trkpt>
      <trkpt lat="43.99269" lon="3.37078">
        <ele>769.2</ele>
        <time>2015-08-30T14:09:28Z</time>
      </trkpt>
      <trkpt lat="43.99204" lon="3.37171">
        <ele>771.1</ele>
        <time>2015-08-30T14:09:32Z</time>
      </trkpt>
      <trkpt lat="43.99138" lon="3.37212">
        <ele>773</ele>
        <time>2015-08-30T14:09:36Z</time>
      </trkpt>
      <trkpt lat="43.99114" lon="3.37205">
        <ele>779.3</ele>
        <time>2015-08-30T14:09:37Z</time>
      </trkpt>
      <trkpt lat="43.99094" lon="3.37207">
        <ele>780.3</ele>
        <time>2015-08-30T14:09:38Z</time>
      </trkpt>
      <trkpt lat="43.98965" lon="3.37277">
        <ele>785.1</ele>
        <time>2015-08-30T14:09:44Z</time>
      </trkpt>
      <trkpt lat="43.9888" lon="3.37338">
        <ele>789.9</ele>
        <time>2015-08-30T14:09:49Z</time>
      </trkpt>
      <trkpt lat="43.98864" lon="3.37371">
        <ele>791.3</ele>
        <time>2015-08-30T14:09:51Z</time>
      </trkpt>
      <trkpt lat="43.98853" lon="3.37381">
        <ele>791.8</ele>
        <time>2015-08-30T14:09:52Z</time>
      </trkpt>
      <trkpt lat="43.98823" lon="3.37401">
        <ele>793.7</ele>
        <time>2015-08-30T14:09:54Z</time>
      </trkpt>
      <trkpt lat="43.98763" lon="3.37415">
        <ele>791.8</ele>
        <time>2015-08-30T14:09:58Z</time>
      </trkpt>
      <trkpt lat="43.98749" lon="3.37412">
        <ele>792.3</ele>
        <time>2015-08-30T14:09:59Z</time>
      </trkpt>
      <trkpt lat="43.98732" lon="3.374">
        <ele>794.7</ele>
        <time>2015-08-30T14:10:00Z</time>
      </trkpt>
      <trkpt lat="43.98717" lon="3.37387">
        <ele>792.3</ele>
        <time>2015-08-30T14:10:01Z</time>
      </trkpt>
      <trkpt lat="43.98702" lon="3.37376">
        <ele>792.7</ele>
        <time>2015-08-30T14:10:02Z</time>
      </trkpt>
      <trkpt lat="43.98687" lon="3.3737">
        <ele>792.7</ele>
        <time>2015-08-30T14:10:03Z</time>
      </trkpt>
      <trkpt lat="43.98672" lon="3.37371">
        <ele>792.3</ele>
        <time>2015-08-30T14:10:04Z</time>
      </trkpt>
      <trkpt lat="43.98602" lon="3.37418">
        <ele>792.3</ele>
        <time>2015-08-30T14:10:08Z</time>
      </trkpt>
      <trkpt lat="43.98583" lon="3.37421">
        <ele>792.3</ele>
        <time>2015-08-30T14:10:09Z</time>
      </trkpt>
      <trkpt lat="43.98564" lon="3.37419">
        <ele>792.3</ele>
        <time>2015-08-30T14:10:10Z</time>
      </trkpt>
      <trkpt lat="43.98546" lon="3.3741">
        <ele>792.3</ele>
        <time>2015-08-30T14:10:11Z</time>
      </trkpt>
      <trkpt lat="43.98531" lon="3.37396">
        <ele>791.8</ele>
        <time>2015-08-30T14:10:12Z</time>
      </trkpt>
      <trkpt lat="43.98459" lon="3.37252">
        <ele>786.5</ele>
        <time>2015-08-30T14:10:18Z</time>
      </trkpt>
      <trkpt lat="43.98445" lon="3.37237">
        <ele>785.1</ele>
        <time>2015-08-30T14:10:19Z</time>
      </trkpt>
      <trkpt lat="43.98428" lon="3.37225">
        <ele>783.6</ele>
        <time>2015-08-30T14:10:20Z</time>
      </trkpt>
      <trkpt lat="43.9837" lon="3.37228">
        <ele>777.8</ele>
        <time>2015-08-30T14:10:23Z</time>
      </trkpt>
      <trkpt lat="43.98327" lon="3.37225">
        <ele>775.4</ele>
        <time>2015-08-30T14:10:25Z</time>
      </trkpt>
      <trkpt lat="43.98306" lon="3.37217">
        <ele>774</ele>
        <time>2015-08-30T14:10:26Z</time>
      </trkpt>
      <trkpt lat="43.98286" lon="3.37204">
        <ele>773</ele>
        <time>2015-08-30T14:10:27Z</time>
      </trkpt>
      <trkpt lat="43.98174" lon="3.37117">
        <ele>771.1</ele>
        <time>2015-08-30T14:10:34Z</time>
      </trkpt>
      <trkpt lat="43.98159" lon="3.37112">
        <ele>770.6</ele>
        <time>2015-08-30T14:10:35Z</time>
      </trkpt>
      <trkpt lat="43.98143" lon="3.37113">
        <ele>769.7</ele>
        <time>2015-08-30T14:10:36Z</time>
      </trkpt>
      <trkpt lat="43.97968" lon="3.37149">
        <ele>759.6</ele>
        <time>2015-08-30T14:10:44Z</time>
      </trkpt>
      <trkpt lat="43.97949" lon="3.37143">
        <ele>758.1</ele>
        <time>2015-08-30T14:10:45Z</time>
      </trkpt>
      <trkpt lat="43.97683" lon="3.36895">
        <ele>738.4</ele>
        <time>2015-08-30T14:11:00Z</time>
      </trkpt>
      <trkpt lat="43.97668" lon="3.36887">
        <ele>737.5</ele>
        <time>2015-08-30T14:11:01Z</time>
      </trkpt>
      <trkpt lat="43.9754" lon="3.36847">
        <ele>727.9</ele>
        <time>2015-08-30T14:11:10Z</time>
      </trkpt>
      <trkpt lat="43.9744" lon="3.36793">
        <ele>721.1</ele>
        <time>2015-08-30T14:11:21Z</time>
      </trkpt>
      <trkpt lat="43.97437" lon="3.36792">
        <ele>721.6</ele>
        <time>2015-08-30T14:11:22Z</time>
      </trkpt>
      <trkpt lat="43.97436" lon="3.36792">
        <ele>721.1</ele>
        <time>2015-08-30T14:11:23Z</time>
      </trkpt>
      <trkpt lat="43.97434" lon="3.36792">
        <ele>721.1</ele>
        <time>2015-08-30T14:11:24Z</time>
      </trkpt>
      <trkpt lat="43.97431" lon="3.36795">
        <ele>720.7</ele>
        <time>2015-08-30T14:11:25Z</time>
      </trkpt>
      <trkpt lat="43.97427" lon="3.368">
        <ele>720.7</ele>
        <time>2015-08-30T14:11:26Z</time>
      </trkpt>
      <trkpt lat="43.97331" lon="3.36955">
        <ele>722.6</ele>
        <time>2015-08-30T14:11:43Z</time>
      </trkpt>
      <trkpt lat="43.97325" lon="3.36971">
        <ele>722.1</ele>
        <time>2015-08-30T14:11:44Z</time>
      </trkpt>
      <trkpt lat="43.97317" lon="3.37004">
        <ele>721.6</ele>
        <time>2015-08-30T14:11:46Z</time>
      </trkpt>
      <trkpt lat="43.97292" lon="3.3715">
        <ele>722.6</ele>
        <time>2015-08-30T14:11:52Z</time>
      </trkpt>
      <trkpt lat="43.97281" lon="3.37176">
        <ele>722.1</ele>
        <time>2015-08-30T14:11:53Z</time>
      </trkpt>
      <trkpt lat="43.97238" lon="3.3739">
        <ele>723.5</ele>
        <time>2015-08-30T14:12:00Z</time>
      </trkpt>
      <trkpt lat="43.97256" lon="3.37557">
        <ele>727.9</ele>
        <time>2015-08-30T14:12:05Z</time>
      </trkpt>
      <trkpt lat="43.97292" lon="3.3767">
        <ele>729.8</ele>
        <time>2015-08-30T14:12:09Z</time>
      </trkpt>
      <trkpt lat="43.97349" lon="3.38158">
        <ele>735.1</ele>
        <time>2015-08-30T14:12:25Z</time>
      </trkpt>
      <trkpt lat="43.97347" lon="3.38173">
        <ele>735.6</ele>
        <time>2015-08-30T14:12:26Z</time>
      </trkpt>
      <trkpt lat="43.97338" lon="3.38189">
        <ele>735.6</ele>
        <time>2015-08-30T14:12:27Z</time>
      </trkpt>
      <trkpt lat="43.97327" lon="3.38203">
        <ele>735.6</ele>
        <time>2015-08-30T14:12:28Z</time>
      </trkpt>
      <trkpt lat="43.97311" lon="3.38211">
        <ele>735.6</ele>
        <time>2015-08-30T14:12:29Z</time>
      </trkpt>
      <trkpt lat="43.97294" lon="3.38213">
        <ele>736</ele>
        <time>2015-08-30T14:12:30Z</time>
      </trkpt>
      <trkpt lat="43.9728" lon="3.38217">
        <ele>736.5</ele>
        <time>2015-08-30T14:12:31Z</time>
      </trkpt>
      <trkpt lat="43.97266" lon="3.38223">
        <ele>736</ele>
        <time>2015-08-30T14:12:32Z</time>
      </trkpt>
      <trkpt lat="43.97256" lon="3.38236">
        <ele>736</ele>
        <time>2015-08-30T14:12:33Z</time>
      </trkpt>
      <trkpt lat="43.97248" lon="3.38257">
        <ele>736</ele>
        <time>2015-08-30T14:12:34Z</time>
      </trkpt>
      <trkpt lat="43.97241" lon="3.38306">
        <ele>736.5</ele>
        <time>2015-08-30T14:12:36Z</time>
      </trkpt>
      <trkpt lat="43.97234" lon="3.38422">
        <ele>737.5</ele>
        <time>2015-08-30T14:12:40Z</time>
      </trkpt>
      <trkpt lat="43.97239" lon="3.38529">
        <ele>740.8</ele>
        <time>2015-08-30T14:12:44Z</time>
      </trkpt>
      <trkpt lat="43.97236" lon="3.38557">
        <ele>741.3</ele>
        <time>2015-08-30T14:12:45Z</time>
      </trkpt>
      <trkpt lat="43.97219" lon="3.38611">
        <ele>742.8</ele>
        <time>2015-08-30T14:12:47Z</time>
      </trkpt>
      <trkpt lat="43.97107" lon="3.3887">
        <ele>747.6</ele>
        <time>2015-08-30T14:12:56Z</time>
      </trkpt>
      <trkpt lat="43.97065" lon="3.38909">
        <ele>750</ele>
        <time>2015-08-30T14:12:59Z</time>
      </trkpt>
      <trkpt lat="43.97025" lon="3.38924">
        <ele>751.4</ele>
        <time>2015-08-30T14:13:01Z</time>
      </trkpt>
      <trkpt lat="43.97009" lon="3.38935">
        <ele>752.4</ele>
        <time>2015-08-30T14:13:02Z</time>
      </trkpt>
      <trkpt lat="43.96997" lon="3.38955">
        <ele>753.3</ele>
        <time>2015-08-30T14:13:03Z</time>
      </trkpt>
      <trkpt lat="43.9698" lon="3.39006">
        <ele>755.3</ele>
        <time>2015-08-30T14:13:05Z</time>
      </trkpt>
      <trkpt lat="43.96977" lon="3.39035">
        <ele>755.7</ele>
        <time>2015-08-30T14:13:06Z</time>
      </trkpt>
      <trkpt lat="43.96981" lon="3.391">
        <ele>759.6</ele>
        <time>2015-08-30T14:13:08Z</time>
      </trkpt>
      <trkpt lat="43.97011" lon="3.39279">
        <ele>768.2</ele>
        <time>2015-08-30T14:13:14Z</time>
      </trkpt>
      <trkpt lat="43.97012" lon="3.39305">
        <ele>769.7</ele>
        <time>2015-08-30T14:13:15Z</time>
      </trkpt>
      <trkpt lat="43.97007" lon="3.39363">
        <ele>774.5</ele>
        <time>2015-08-30T14:13:17Z</time>
      </trkpt>
      <trkpt lat="43.9694" lon="3.39641">
        <ele>787.9</ele>
        <time>2015-08-30T14:13:26Z</time>
      </trkpt>
      <trkpt lat="43.96928" lon="3.39661">
        <ele>789.4</ele>
        <time>2015-08-30T14:13:27Z</time>
      </trkpt>
      <trkpt lat="43.96906" lon="3.39679">
        <ele>788.9</ele>
        <time>2015-08-30T14:13:28Z</time>
      </trkpt>
      <trkpt lat="43.96878" lon="3.39717">
        <ele>791.3</ele>
        <time>2015-08-30T14:13:30Z</time>
      </trkpt>
      <trkpt lat="43.96782" lon="3.3988">
        <ele>800</ele>
        <time>2015-08-30T14:13:38Z</time>
      </trkpt>
      <trkpt lat="43.96701" lon="3.40174">
        <ele>807.6</ele>
        <time>2015-08-30T14:13:50Z</time>
      </trkpt>
      <trkpt lat="43.96667" lon="3.40233">
        <ele>807.2</ele>
        <time>2015-08-30T14:13:53Z</time>
      </trkpt>
      <trkpt lat="43.96661" lon="3.40254">
        <ele>807.6</ele>
        <time>2015-08-30T14:13:54Z</time>
      </trkpt>
      <trkpt lat="43.96659" lon="3.40277">
        <ele>807.6</ele>
        <time>2015-08-30T14:13:55Z</time>
      </trkpt>
      <trkpt lat="43.96728" lon="3.40638">
        <ele>801.9</ele>
        <time>2015-08-30T14:14:08Z</time>
      </trkpt>
      <trkpt lat="43.96737" lon="3.40659">
        <ele>801.4</ele>
        <time>2015-08-30T14:14:09Z</time>
      </trkpt>
      <trkpt lat="43.96748" lon="3.40678">
        <ele>800.9</ele>
        <time>2015-08-30T14:14:10Z</time>
      </trkpt>
      <trkpt lat="43.96761" lon="3.40692">
        <ele>800.9</ele>
        <time>2015-08-30T14:14:11Z</time>
      </trkpt>
      <trkpt lat="43.96779" lon="3.40701">
        <ele>800</ele>
        <time>2015-08-30T14:14:12Z</time>
      </trkpt>
      <trkpt lat="43.96799" lon="3.40705">
        <ele>799</ele>
        <time>2015-08-30T14:14:13Z</time>
      </trkpt>
      <trkpt lat="43.9684" lon="3.40709">
        <ele>797.6</ele>
        <time>2015-08-30T14:14:15Z</time>
      </trkpt>
      <trkpt lat="43.96891" lon="3.4072">
        <ele>795.2</ele>
        <time>2015-08-30T14:14:18Z</time>
      </trkpt>
      <trkpt lat="43.96903" lon="3.40732">
        <ele>794.2</ele>
        <time>2015-08-30T14:14:19Z</time>
      </trkpt>
      <trkpt lat="43.9692" lon="3.40787">
        <ele>792.3</ele>
        <time>2015-08-30T14:14:22Z</time>
      </trkpt>
      <trkpt lat="43.96928" lon="3.40803">
        <ele>791.3</ele>
        <time>2015-08-30T14:14:23Z</time>
      </trkpt>
      <trkpt lat="43.9694" lon="3.40813">
        <ele>790.3</ele>
        <time>2015-08-30T14:14:24Z</time>
      </trkpt>
      <trkpt lat="43.96954" lon="3.40816">
        <ele>789.9</ele>
        <time>2015-08-30T14:14:25Z</time>
      </trkpt>
      <trkpt lat="43.96968" lon="3.40811">
        <ele>789.4</ele>
        <time>2015-08-30T14:14:26Z</time>
      </trkpt>
      <trkpt lat="43.96978" lon="3.40795">
        <ele>788.4</ele>
        <time>2015-08-30T14:14:27Z</time>
      </trkpt>
      <trkpt lat="43.96986" lon="3.40778">
        <ele>787.9</ele>
        <time>2015-08-30T14:14:28Z</time>
      </trkpt>
      <trkpt lat="43.96995" lon="3.40764">
        <ele>787.9</ele>
        <time>2015-08-30T14:14:29Z</time>
      </trkpt>
      <trkpt lat="43.97005" lon="3.40755">
        <ele>787</ele>
        <time>2015-08-30T14:14:30Z</time>
      </trkpt>
      <trkpt lat="43.97015" lon="3.40752">
        <ele>786</ele>
        <time>2015-08-30T14:14:31Z</time>
      </trkpt>
      <trkpt lat="43.97027" lon="3.40757">
        <ele>785.1</ele>
        <time>2015-08-30T14:14:32Z</time>
      </trkpt>
      <trkpt lat="43.97043" lon="3.40768">
        <ele>785.1</ele>
        <time>2015-08-30T14:14:33Z</time>
      </trkpt>
      <trkpt lat="43.97068" lon="3.40793">
        <ele>783.1</ele>
        <time>2015-08-30T14:14:35Z</time>
      </trkpt>
      <trkpt lat="43.97082" lon="3.40804">
        <ele>782.2</ele>
        <time>2015-08-30T14:14:36Z</time>
      </trkpt>
      <trkpt lat="43.971" lon="3.40809">
        <ele>781.7</ele>
        <time>2015-08-30T14:14:37Z</time>
      </trkpt>
      <trkpt lat="43.97117" lon="3.40807">
        <ele>780.7</ele>
        <time>2015-08-30T14:14:38Z</time>
      </trkpt>
      <trkpt lat="43.97134" lon="3.40801">
        <ele>780.3</ele>
        <time>2015-08-30T14:14:39Z</time>
      </trkpt>
      <trkpt lat="43.97169" lon="3.40799">
        <ele>777.8</ele>
        <time>2015-08-30T14:14:42Z</time>
      </trkpt>
      <trkpt lat="43.97176" lon="3.40812">
        <ele>776.4</ele>
        <time>2015-08-30T14:14:43Z</time>
      </trkpt>
      <trkpt lat="43.97187" lon="3.40888">
        <ele>776.4</ele>
        <time>2015-08-30T14:14:46Z</time>
      </trkpt>
      <trkpt lat="43.97191" lon="3.41063">
        <ele>770.6</ele>
        <time>2015-08-30T14:14:53Z</time>
      </trkpt>
      <trkpt lat="43.97199" lon="3.41075">
        <ele>769.2</ele>
        <time>2015-08-30T14:14:54Z</time>
      </trkpt>
      <trkpt lat="43.97215" lon="3.4108">
        <ele>769.2</ele>
        <time>2015-08-30T14:14:55Z</time>
      </trkpt>
      <trkpt lat="43.97233" lon="3.41077">
        <ele>767.8</ele>
        <time>2015-08-30T14:14:56Z</time>
      </trkpt>
      <trkpt lat="43.9727" lon="3.41059">
        <ele>766.8</ele>
        <time>2015-08-30T14:14:58Z</time>
      </trkpt>
      <trkpt lat="43.97311" lon="3.41051">
        <ele>765.4</ele>
        <time>2015-08-30T14:15:00Z</time>
      </trkpt>
      <trkpt lat="43.9733" lon="3.4105">
        <ele>763.4</ele>
        <time>2015-08-30T14:15:01Z</time>
      </trkpt>
      <trkpt lat="43.97345" lon="3.41055">
        <ele>762.5</ele>
        <time>2015-08-30T14:15:02Z</time>
      </trkpt>
      <trkpt lat="43.97355" lon="3.41062">
        <ele>761</ele>
        <time>2015-08-30T14:15:03Z</time>
      </trkpt>
      <trkpt lat="43.97365" lon="3.41099">
        <ele>761</ele>
        <time>2015-08-30T14:15:05Z</time>
      </trkpt>
      <trkpt lat="43.97367" lon="3.41115">
        <ele>760.5</ele>
        <time>2015-08-30T14:15:06Z</time>
      </trkpt>
      <trkpt lat="43.97372" lon="3.41133">
        <ele>760.5</ele>
        <time>2015-08-30T14:15:07Z</time>
      </trkpt>
      <trkpt lat="43.9738" lon="3.41146">
        <ele>760.1</ele>
        <time>2015-08-30T14:15:08Z</time>
      </trkpt>
      <trkpt lat="43.97393" lon="3.41151">
        <ele>759.6</ele>
        <time>2015-08-30T14:15:09Z</time>
      </trkpt>
      <trkpt lat="43.97408" lon="3.41149">
        <ele>759.1</ele>
        <time>2015-08-30T14:15:10Z</time>
      </trkpt>
      <trkpt lat="43.97423" lon="3.41145">
        <ele>757.7</ele>
        <time>2015-08-30T14:15:11Z</time>
      </trkpt>
      <trkpt lat="43.9746" lon="3.41128">
        <ele>755.7</ele>
        <time>2015-08-30T14:15:13Z</time>
      </trkpt>
      <trkpt lat="43.97491" lon="3.41124">
        <ele>753.3</ele>
        <time>2015-08-30T14:15:15Z</time>
      </trkpt>
      <trkpt lat="43.97501" lon="3.41131">
        <ele>751.9</ele>
        <time>2015-08-30T14:15:16Z</time>
      </trkpt>
      <trkpt lat="43.97505" lon="3.41144">
        <ele>750.9</ele>
        <time>2015-08-30T14:15:17Z</time>
      </trkpt>
      <trkpt lat="43.97494" lon="3.41224">
        <ele>747.1</ele>
        <time>2015-08-30T14:15:21Z</time>
      </trkpt>
      <trkpt lat="43.97497" lon="3.41264">
        <ele>745.6</ele>
        <time>2015-08-30T14:15:23Z</time>
      </trkpt>
      <trkpt lat="43.97508" lon="3.41284">
        <ele>745.6</ele>
        <time>2015-08-30T14:15:24Z</time>
      </trkpt>
      <trkpt lat="43.97522" lon="3.41301">
        <ele>745.6</ele>
        <time>2015-08-30T14:15:25Z</time>
      </trkpt>
      <trkpt lat="43.97703" lon="3.41485">
        <ele>735.6</ele>
        <time>2015-08-30T14:15:36Z</time>
      </trkpt>
      <trkpt lat="43.97797" lon="3.416">
        <ele>730.7</ele>
        <time>2015-08-30T14:15:42Z</time>
      </trkpt>
      <trkpt lat="43.97812" lon="3.4161">
        <ele>729.8</ele>
        <time>2015-08-30T14:15:43Z</time>
      </trkpt>
      <trkpt lat="43.97843" lon="3.41618">
        <ele>728.3</ele>
        <time>2015-08-30T14:15:45Z</time>
      </trkpt>
      <trkpt lat="43.97858" lon="3.41621">
        <ele>727.9</ele>
        <time>2015-08-30T14:15:46Z</time>
      </trkpt>
      <trkpt lat="43.97871" lon="3.41626">
        <ele>727.4</ele>
        <time>2015-08-30T14:15:47Z</time>
      </trkpt>
      <trkpt lat="43.9788" lon="3.41637">
        <ele>726.9</ele>
        <time>2015-08-30T14:15:48Z</time>
      </trkpt>
      <trkpt lat="43.97884" lon="3.41655">
        <ele>726.9</ele>
        <time>2015-08-30T14:15:49Z</time>
      </trkpt>
      <trkpt lat="43.97881" lon="3.41677">
        <ele>726.9</ele>
        <time>2015-08-30T14:15:50Z</time>
      </trkpt>
      <trkpt lat="43.97875" lon="3.41698">
        <ele>725.9</ele>
        <time>2015-08-30T14:15:51Z</time>
      </trkpt>
      <trkpt lat="43.97866" lon="3.41713">
        <ele>725</ele>
        <time>2015-08-30T14:15:52Z</time>
      </trkpt>
      <trkpt lat="43.97851" lon="3.41719">
        <ele>724</ele>
        <time>2015-08-30T14:15:53Z</time>
      </trkpt>
      <trkpt lat="43.97817" lon="3.41718">
        <ele>722.1</ele>
        <time>2015-08-30T14:15:55Z</time>
      </trkpt>
      <trkpt lat="43.97799" lon="3.41713">
        <ele>721.6</ele>
        <time>2015-08-30T14:15:56Z</time>
      </trkpt>
      <trkpt lat="43.97779" lon="3.41704">
        <ele>719.2</ele>
        <time>2015-08-30T14:15:57Z</time>
      </trkpt>
      <trkpt lat="43.97689" lon="3.4161">
        <ele>720.2</ele>
        <time>2015-08-30T14:16:01Z</time>
      </trkpt>
      <trkpt lat="43.97643" lon="3.41574">
        <ele>718.7</ele>
        <time>2015-08-30T14:16:03Z</time>
      </trkpt>
      <trkpt lat="43.9762" lon="3.41564">
        <ele>718.7</ele>
        <time>2015-08-30T14:16:04Z</time>
      </trkpt>
      <trkpt lat="43.97414" lon="3.41428">
        <ele>711.5</ele>
        <time>2015-08-30T14:16:13Z</time>
      </trkpt>
      <trkpt lat="43.97391" lon="3.41418">
        <ele>712</ele>
        <time>2015-08-30T14:16:14Z</time>
      </trkpt>
      <trkpt lat="43.97369" lon="3.41411">
        <ele>711</ele>
        <time>2015-08-30T14:16:15Z</time>
      </trkpt>
      <trkpt lat="43.97345" lon="3.41407">
        <ele>710.1</ele>
        <time>2015-08-30T14:16:16Z</time>
      </trkpt>
      <trkpt lat="43.97322" lon="3.41407">
        <ele>709.6</ele>
        <time>2015-08-30T14:16:17Z</time>
      </trkpt>
      <trkpt lat="43.97275" lon="3.41422">
        <ele>710.1</ele>
        <time>2015-08-30T14:16:19Z</time>
      </trkpt>
      <trkpt lat="43.97208" lon="3.41454">
        <ele>712</ele>
        <time>2015-08-30T14:16:22Z</time>
      </trkpt>
      <trkpt lat="43.97186" lon="3.41461">
        <ele>711</ele>
        <time>2015-08-30T14:16:23Z</time>
      </trkpt>
      <trkpt lat="43.97163" lon="3.41464">
        <ele>711.5</ele>
        <time>2015-08-30T14:16:24Z</time>
      </trkpt>
      <trkpt lat="43.97117" lon="3.41461">
        <ele>711</ele>
        <time>2015-08-30T14:16:26Z</time>
      </trkpt>
      <trkpt lat="43.97094" lon="3.41458">
        <ele>710.6</ele>
        <time>2015-08-30T14:16:27Z</time>
      </trkpt>
      <trkpt lat="43.96998" lon="3.41471">
        <ele>711.5</ele>
        <time>2015-08-30T14:16:33Z</time>
      </trkpt>
      <trkpt lat="43.96987" lon="3.41475">
        <ele>711</ele>
        <time>2015-08-30T14:16:34Z</time>
      </trkpt>
      <trkpt lat="43.96976" lon="3.41468">
        <ele>711</ele>
        <time>2015-08-30T14:16:35Z</time>
      </trkpt>
      <trkpt lat="43.96954" lon="3.41439">
        <ele>712.5</ele>
        <time>2015-08-30T14:16:37Z</time>
      </trkpt>
      <trkpt lat="43.96934" lon="3.41395">
        <ele>711</ele>
        <time>2015-08-30T14:16:41Z</time>
      </trkpt>
      <trkpt lat="43.96928" lon="3.4139">
        <ele>710.1</ele>
        <time>2015-08-30T14:16:42Z</time>
      </trkpt>
      <trkpt lat="43.96919" lon="3.41386">
        <ele>709.1</ele>
        <time>2015-08-30T14:16:43Z</time>
      </trkpt>
      <trkpt lat="43.96909" lon="3.41384">
        <ele>708.6</ele>
        <time>2015-08-30T14:16:44Z</time>
      </trkpt>
      <trkpt lat="43.96898" lon="3.41382">
        <ele>708.2</ele>
        <time>2015-08-30T14:16:45Z</time>
      </trkpt>
      <trkpt lat="43.96866" lon="3.41382">
        <ele>706.7</ele>
        <time>2015-08-30T14:16:48Z</time>
      </trkpt>
      <trkpt lat="43.96856" lon="3.41385">
        <ele>707.2</ele>
        <time>2015-08-30T14:16:49Z</time>
      </trkpt>
      <trkpt lat="43.96847" lon="3.41392">
        <ele>706.2</ele>
        <time>2015-08-30T14:16:50Z</time>
      </trkpt>
      <trkpt lat="43.96838" lon="3.41401">
        <ele>705.3</ele>
        <time>2015-08-30T14:16:51Z</time>
      </trkpt>
      <trkpt lat="43.9683" lon="3.41413">
        <ele>704.3</ele>
        <time>2015-08-30T14:16:52Z</time>
      </trkpt>
      <trkpt lat="43.96824" lon="3.41427">
        <ele>703.3</ele>
        <time>2015-08-30T14:16:53Z</time>
      </trkpt>
      <trkpt lat="43.9682" lon="3.41442">
        <ele>701.9</ele>
        <time>2015-08-30T14:16:54Z</time>
      </trkpt>
      <trkpt lat="43.96818" lon="3.41458">
        <ele>700.5</ele>
        <time>2015-08-30T14:16:55Z</time>
      </trkpt>
      <trkpt lat="43.9682" lon="3.4149">
        <ele>698.5</ele>
        <time>2015-08-30T14:16:57Z</time>
      </trkpt>
      <trkpt lat="43.96825" lon="3.41505">
        <ele>698.1</ele>
        <time>2015-08-30T14:16:58Z</time>
      </trkpt>
      <trkpt lat="43.96831" lon="3.41518">
        <ele>697.6</ele>
        <time>2015-08-30T14:16:59Z</time>
      </trkpt>
      <trkpt lat="43.96839" lon="3.41529">
        <ele>696.6</ele>
        <time>2015-08-30T14:17:00Z</time>
      </trkpt>
      <trkpt lat="43.96872" lon="3.41566">
        <ele>693.3</ele>
        <time>2015-08-30T14:17:04Z</time>
      </trkpt>
      <trkpt lat="43.96879" lon="3.41577">
        <ele>692.3</ele>
        <time>2015-08-30T14:17:05Z</time>
      </trkpt>
      <trkpt lat="43.96901" lon="3.41633">
        <ele>690.8</ele>
        <time>2015-08-30T14:17:09Z</time>
      </trkpt>
      <trkpt lat="43.96909" lon="3.41647">
        <ele>689.9</ele>
        <time>2015-08-30T14:17:10Z</time>
      </trkpt>
      <trkpt lat="43.96936" lon="3.41683">
        <ele>686.5</ele>
        <time>2015-08-30T14:17:13Z</time>
      </trkpt>
      <trkpt lat="43.96954" lon="3.41698">
        <ele>685.1</ele>
        <time>2015-08-30T14:17:15Z</time>
      </trkpt>
      <trkpt lat="43.96963" lon="3.41703">
        <ele>684.6</ele>
        <time>2015-08-30T14:17:16Z</time>
      </trkpt>
      <trkpt lat="43.96993" lon="3.41725">
        <ele>684.1</ele>
        <time>2015-08-30T14:17:20Z</time>
      </trkpt>
      <trkpt lat="43.96996" lon="3.41736">
        <ele>684.1</ele>
        <time>2015-08-30T14:17:21Z</time>
      </trkpt>
      <trkpt lat="43.9699" lon="3.41759">
        <ele>683.2</ele>
        <time>2015-08-30T14:17:23Z</time>
      </trkpt>
      <trkpt lat="43.96981" lon="3.41769">
        <ele>682.2</ele>
        <time>2015-08-30T14:17:24Z</time>
      </trkpt>
      <trkpt lat="43.96956" lon="3.41785">
        <ele>681.7</ele>
        <time>2015-08-30T14:17:26Z</time>
      </trkpt>
      <trkpt lat="43.96942" lon="3.41793">
        <ele>681.2</ele>
        <time>2015-08-30T14:17:27Z</time>
      </trkpt>
      <trkpt lat="43.96903" lon="3.41795">
        <ele>681.7</ele>
        <time>2015-08-30T14:17:29Z</time>
      </trkpt>
      <trkpt lat="43.96883" lon="3.41794">
        <ele>681.2</ele>
        <time>2015-08-30T14:17:30Z</time>
      </trkpt>
      <trkpt lat="43.96864" lon="3.41788">
        <ele>681.7</ele>
        <time>2015-08-30T14:17:31Z</time>
      </trkpt>
      <trkpt lat="43.96845" lon="3.4178">
        <ele>685.6</ele>
        <time>2015-08-30T14:17:32Z</time>
      </trkpt>
      <trkpt lat="43.9683" lon="3.41774">
        <ele>686.5</ele>
        <time>2015-08-30T14:17:33Z</time>
      </trkpt>
      <trkpt lat="43.96775" lon="3.41764">
        <ele>684.6</ele>
        <time>2015-08-30T14:17:37Z</time>
      </trkpt>
      <trkpt lat="43.96763" lon="3.41766">
        <ele>685.1</ele>
        <time>2015-08-30T14:17:38Z</time>
      </trkpt>
      <trkpt lat="43.96749" lon="3.41773">
        <ele>684.6</ele>
        <time>2015-08-30T14:17:39Z</time>
      </trkpt>
      <trkpt lat="43.96734" lon="3.41784">
        <ele>684.6</ele>
        <time>2015-08-30T14:17:40Z</time>
      </trkpt>
      <trkpt lat="43.96634" lon="3.41875">
        <ele>673.5</ele>
        <time>2015-08-30T14:17:48Z</time>
      </trkpt>
      <trkpt lat="43.9663" lon="3.41889">
        <ele>670.2</ele>
        <time>2015-08-30T14:17:49Z</time>
      </trkpt>
      <trkpt lat="43.96639" lon="3.41921">
        <ele>670.2</ele>
        <time>2015-08-30T14:17:51Z</time>
      </trkpt>
      <trkpt lat="43.96642" lon="3.41937">
        <ele>670.2</ele>
        <time>2015-08-30T14:17:52Z</time>
      </trkpt>
      <trkpt lat="43.96642" lon="3.41954">
        <ele>670.7</ele>
        <time>2015-08-30T14:17:53Z</time>
      </trkpt>
      <trkpt lat="43.96638" lon="3.41998">
        <ele>670.7</ele>
        <time>2015-08-30T14:17:55Z</time>
      </trkpt>
      <trkpt lat="43.96632" lon="3.42025">
        <ele>669.7</ele>
        <time>2015-08-30T14:17:56Z</time>
      </trkpt>
      <trkpt lat="43.96612" lon="3.42081">
        <ele>668.7</ele>
        <time>2015-08-30T14:17:58Z</time>
      </trkpt>
      <trkpt lat="43.96559" lon="3.42201">
        <ele>664.9</ele>
        <time>2015-08-30T14:18:03Z</time>
      </trkpt>
      <trkpt lat="43.96553" lon="3.42226">
        <ele>663</ele>
        <time>2015-08-30T14:18:04Z</time>
      </trkpt>
      <trkpt lat="43.96551" lon="3.42251">
        <ele>661</ele>
        <time>2015-08-30T14:18:05Z</time>
      </trkpt>
      <trkpt lat="43.96553" lon="3.42275">
        <ele>659.1</ele>
        <time>2015-08-30T14:18:06Z</time>
      </trkpt>
      <trkpt lat="43.96561" lon="3.42299">
        <ele>658.6</ele>
        <time>2015-08-30T14:18:07Z</time>
      </trkpt>
      <trkpt lat="43.96573" lon="3.42321">
        <ele>658.2</ele>
        <time>2015-08-30T14:18:08Z</time>
      </trkpt>
      <trkpt lat="43.9659" lon="3.42341">
        <ele>657.7</ele>
        <time>2015-08-30T14:18:09Z</time>
      </trkpt>
      <trkpt lat="43.96598" lon="3.42367">
        <ele>657.2</ele>
        <time>2015-08-30T14:18:10Z</time>
      </trkpt>
      <trkpt lat="43.96609" lon="3.42431">
        <ele>655.8</ele>
        <time>2015-08-30T14:18:12Z</time>
      </trkpt>
      <trkpt lat="43.96615" lon="3.42571">
        <ele>652.4</ele>
        <time>2015-08-30T14:18:16Z</time>
      </trkpt>
      <trkpt lat="43.96594" lon="3.42737">
        <ele>647.6</ele>
        <time>2015-08-30T14:18:21Z</time>
      </trkpt>
      <trkpt lat="43.96595" lon="3.42767">
        <ele>646.6</ele>
        <time>2015-08-30T14:18:22Z</time>
      </trkpt>
      <trkpt lat="43.96612" lon="3.42862">
        <ele>641.3</ele>
        <time>2015-08-30T14:18:26Z</time>
      </trkpt>
      <trkpt lat="43.96617" lon="3.42875">
        <ele>640.4</ele>
        <time>2015-08-30T14:18:27Z</time>
      </trkpt>
      <trkpt lat="43.96627" lon="3.42884">
        <ele>638.9</ele>
        <time>2015-08-30T14:18:28Z</time>
      </trkpt>
      <trkpt lat="43.96639" lon="3.42892">
        <ele>637.5</ele>
        <time>2015-08-30T14:18:29Z</time>
      </trkpt>
      <trkpt lat="43.96655" lon="3.42897">
        <ele>636.5</ele>
        <time>2015-08-30T14:18:30Z</time>
      </trkpt>
      <trkpt lat="43.96672" lon="3.42901">
        <ele>635.1</ele>
        <time>2015-08-30T14:18:31Z</time>
      </trkpt>
      <trkpt lat="43.96691" lon="3.42908">
        <ele>634.6</ele>
        <time>2015-08-30T14:18:32Z</time>
      </trkpt>
      <trkpt lat="43.96706" lon="3.42916">
        <ele>634.1</ele>
        <time>2015-08-30T14:18:33Z</time>
      </trkpt>
      <trkpt lat="43.96719" lon="3.42927">
        <ele>634.1</ele>
        <time>2015-08-30T14:18:34Z</time>
      </trkpt>
      <trkpt lat="43.96733" lon="3.42935">
        <ele>633.7</ele>
        <time>2015-08-30T14:18:35Z</time>
      </trkpt>
      <trkpt lat="43.96748" lon="3.42937">
        <ele>633.7</ele>
        <time>2015-08-30T14:18:36Z</time>
      </trkpt>
      <trkpt lat="43.9676" lon="3.42935">
        <ele>632.7</ele>
        <time>2015-08-30T14:18:37Z</time>
      </trkpt>
      <trkpt lat="43.96772" lon="3.42935">
        <ele>632.2</ele>
        <time>2015-08-30T14:18:38Z</time>
      </trkpt>
      <trkpt lat="43.96786" lon="3.42956">
        <ele>630.8</ele>
        <time>2015-08-30T14:18:40Z</time>
      </trkpt>
      <trkpt lat="43.96781" lon="3.42973">
        <ele>628.8</ele>
        <time>2015-08-30T14:18:41Z</time>
      </trkpt>
      <trkpt lat="43.96773" lon="3.42987">
        <ele>626.9</ele>
        <time>2015-08-30T14:18:42Z</time>
      </trkpt>
      <trkpt lat="43.96761" lon="3.43001">
        <ele>625.5</ele>
        <time>2015-08-30T14:18:43Z</time>
      </trkpt>
      <trkpt lat="43.9666" lon="3.43054">
        <ele>620.2</ele>
        <time>2015-08-30T14:18:48Z</time>
      </trkpt>
      <trkpt lat="43.96576" lon="3.43073">
        <ele>618.8</ele>
        <time>2015-08-30T14:18:52Z</time>
      </trkpt>
      <trkpt lat="43.9656" lon="3.43081">
        <ele>618.8</ele>
        <time>2015-08-30T14:18:53Z</time>
      </trkpt>
      <trkpt lat="43.96545" lon="3.43096">
        <ele>617.8</ele>
        <time>2015-08-30T14:18:54Z</time>
      </trkpt>
      <trkpt lat="43.96535" lon="3.43118">
        <ele>615.4</ele>
        <time>2015-08-30T14:18:55Z</time>
      </trkpt>
      <trkpt lat="43.96528" lon="3.43145">
        <ele>614.4</ele>
        <time>2015-08-30T14:18:56Z</time>
      </trkpt>
      <trkpt lat="43.96522" lon="3.43205">
        <ele>612.5</ele>
        <time>2015-08-30T14:18:58Z</time>
      </trkpt>
      <trkpt lat="43.9653" lon="3.43264">
        <ele>612.5</ele>
        <time>2015-08-30T14:19:00Z</time>
      </trkpt>
      <trkpt lat="43.9653" lon="3.43291">
        <ele>612.5</ele>
        <time>2015-08-30T14:19:01Z</time>
      </trkpt>
      <trkpt lat="43.96523" lon="3.43316">
        <ele>611.5</ele>
        <time>2015-08-30T14:19:02Z</time>
      </trkpt>
      <trkpt lat="43.96382" lon="3.43611">
        <ele>601</ele>
        <time>2015-08-30T14:19:13Z</time>
      </trkpt>
      <trkpt lat="43.96352" lon="3.43723">
        <ele>596.2</ele>
        <time>2015-08-30T14:19:19Z</time>
      </trkpt>
      <trkpt lat="43.96351" lon="3.43734">
        <ele>595.2</ele>
        <time>2015-08-30T14:19:20Z</time>
      </trkpt>
      <trkpt lat="43.96353" lon="3.43741">
        <ele>594.7</ele>
        <time>2015-08-30T14:19:21Z</time>
      </trkpt>
      <trkpt lat="43.96366" lon="3.43757">
        <ele>592.3</ele>
        <time>2015-08-30T14:19:23Z</time>
      </trkpt>
      <trkpt lat="43.96375" lon="3.43762">
        <ele>590.9</ele>
        <time>2015-08-30T14:19:24Z</time>
      </trkpt>
      <trkpt lat="43.96391" lon="3.43757">
        <ele>589</ele>
        <time>2015-08-30T14:19:25Z</time>
      </trkpt>
      <trkpt lat="43.96487" lon="3.43743">
        <ele>588</ele>
        <time>2015-08-30T14:19:30Z</time>
      </trkpt>
      <trkpt lat="43.96504" lon="3.43736">
        <ele>587.5</ele>
        <time>2015-08-30T14:19:31Z</time>
      </trkpt>
      <trkpt lat="43.96548" lon="3.43713">
        <ele>586.5</ele>
        <time>2015-08-30T14:19:34Z</time>
      </trkpt>
      <trkpt lat="43.96559" lon="3.43709">
        <ele>585.1</ele>
        <time>2015-08-30T14:19:35Z</time>
      </trkpt>
      <trkpt lat="43.96571" lon="3.4371">
        <ele>583.7</ele>
        <time>2015-08-30T14:19:36Z</time>
      </trkpt>
      <trkpt lat="43.96581" lon="3.43715">
        <ele>582.7</ele>
        <time>2015-08-30T14:19:37Z</time>
      </trkpt>
      <trkpt lat="43.96589" lon="3.4373">
        <ele>582.7</ele>
        <time>2015-08-30T14:19:38Z</time>
      </trkpt>
      <trkpt lat="43.96593" lon="3.43745">
        <ele>582.2</ele>
        <time>2015-08-30T14:19:39Z</time>
      </trkpt>
      <trkpt lat="43.96611" lon="3.43921">
        <ele>588</ele>
        <time>2015-08-30T14:19:51Z</time>
      </trkpt>
      <trkpt lat="43.96614" lon="3.43932">
        <ele>588.5</ele>
        <time>2015-08-30T14:19:52Z</time>
      </trkpt>
      <trkpt lat="43.96655" lon="3.44028">
        <ele>593.3</ele>
        <time>2015-08-30T14:19:59Z</time>
      </trkpt>
      <trkpt lat="43.96659" lon="3.44049">
        <ele>594.2</ele>
        <time>2015-08-30T14:20:00Z</time>
      </trkpt>
      <trkpt lat="43.9667" lon="3.44254">
        <ele>602.4</ele>
        <time>2015-08-30T14:20:09Z</time>
      </trkpt>
      <trkpt lat="43.96684" lon="3.44315">
        <ele>605.8</ele>
        <time>2015-08-30T14:20:12Z</time>
      </trkpt>
      <trkpt lat="43.96689" lon="3.44332">
        <ele>606.7</ele>
        <time>2015-08-30T14:20:13Z</time>
      </trkpt>
      <trkpt lat="43.96696" lon="3.44343">
        <ele>607.7</ele>
        <time>2015-08-30T14:20:14Z</time>
      </trkpt>
      <trkpt lat="43.96704" lon="3.44347">
        <ele>608.2</ele>
        <time>2015-08-30T14:20:15Z</time>
      </trkpt>
      <trkpt lat="43.96715" lon="3.44345">
        <ele>608.7</ele>
        <time>2015-08-30T14:20:16Z</time>
      </trkpt>
      <trkpt lat="43.96726" lon="3.4433">
        <ele>608.7</ele>
        <time>2015-08-30T14:20:17Z</time>
      </trkpt>
      <trkpt lat="43.96729" lon="3.4431">
        <ele>610.1</ele>
        <time>2015-08-30T14:20:18Z</time>
      </trkpt>
      <trkpt lat="43.96734" lon="3.44191">
        <ele>615.4</ele>
        <time>2015-08-30T14:20:24Z</time>
      </trkpt>
      <trkpt lat="43.96738" lon="3.44176">
        <ele>616.3</ele>
        <time>2015-08-30T14:20:25Z</time>
      </trkpt>
      <trkpt lat="43.96745" lon="3.44166">
        <ele>617.3</ele>
        <time>2015-08-30T14:20:26Z</time>
      </trkpt>
      <trkpt lat="43.96756" lon="3.44164">
        <ele>617.3</ele>
        <time>2015-08-30T14:20:27Z</time>
      </trkpt>
      <trkpt lat="43.96768" lon="3.44176">
        <ele>615.4</ele>
        <time>2015-08-30T14:20:28Z</time>
      </trkpt>
      <trkpt lat="43.96789" lon="3.44207">
        <ele>618.8</ele>
        <time>2015-08-30T14:20:30Z</time>
      </trkpt>
      <trkpt lat="43.968" lon="3.4423">
        <ele>620.2</ele>
        <time>2015-08-30T14:20:31Z</time>
      </trkpt>
      <trkpt lat="43.96817" lon="3.44281">
        <ele>622.6</ele>
        <time>2015-08-30T14:20:33Z</time>
      </trkpt>
      <trkpt lat="43.96822" lon="3.44308">
        <ele>623.6</ele>
        <time>2015-08-30T14:20:34Z</time>
      </trkpt>
      <trkpt lat="43.96944" lon="3.45256">
        <ele>661</ele>
        <time>2015-08-30T14:21:14Z</time>
      </trkpt>
      <trkpt lat="43.96934" lon="3.45266">
        <ele>654.8</ele>
        <time>2015-08-30T14:21:15Z</time>
      </trkpt>
      <trkpt lat="43.96927" lon="3.45277">
        <ele>653.4</ele>
        <time>2015-08-30T14:21:16Z</time>
      </trkpt>
      <trkpt lat="43.9691" lon="3.45296">
        <ele>644.7</ele>
        <time>2015-08-30T14:21:21Z</time>
      </trkpt>
      <trkpt lat="43.96912" lon="3.45309">
        <ele>638.5</ele>
        <time>2015-08-30T14:21:30Z</time>
      </trkpt>
      <trkpt lat="43.96927" lon="3.4533">
        <ele>637</ele>
        <time>2015-08-30T14:21:36Z</time>
      </trkpt>
      <trkpt lat="43.96936" lon="3.45337">
        <ele>636.1</ele>
        <time>2015-08-30T14:21:37Z</time>
      </trkpt>
      <trkpt lat="43.96947" lon="3.45343">
        <ele>635.1</ele>
        <time>2015-08-30T14:21:38Z</time>
      </trkpt>
      <trkpt lat="43.96977" lon="3.4535">
        <ele>633.2</ele>
        <time>2015-08-30T14:21:40Z</time>
      </trkpt>
      <trkpt lat="43.97107" lon="3.45373">
        <ele>626</ele>
        <time>2015-08-30T14:21:49Z</time>
      </trkpt>
      <trkpt lat="43.97119" lon="3.45369">
        <ele>625.5</ele>
        <time>2015-08-30T14:21:50Z</time>
      </trkpt>
      <trkpt lat="43.97133" lon="3.45359">
        <ele>624.5</ele>
        <time>2015-08-30T14:21:51Z</time>
      </trkpt>
      <trkpt lat="43.97182" lon="3.45337">
        <ele>622.1</ele>
        <time>2015-08-30T14:21:54Z</time>
      </trkpt>
      <trkpt lat="43.972" lon="3.45335">
        <ele>621.2</ele>
        <time>2015-08-30T14:21:55Z</time>
      </trkpt>
      <trkpt lat="43.97221" lon="3.45338">
        <ele>619.2</ele>
        <time>2015-08-30T14:21:56Z</time>
      </trkpt>
      <trkpt lat="43.9724" lon="3.45345">
        <ele>618.3</ele>
        <time>2015-08-30T14:21:57Z</time>
      </trkpt>
      <trkpt lat="43.97258" lon="3.45353">
        <ele>616.8</ele>
        <time>2015-08-30T14:21:58Z</time>
      </trkpt>
      <trkpt lat="43.97275" lon="3.45365">
        <ele>615.9</ele>
        <time>2015-08-30T14:21:59Z</time>
      </trkpt>
      <trkpt lat="43.97291" lon="3.45381">
        <ele>614.4</ele>
        <time>2015-08-30T14:22:00Z</time>
      </trkpt>
      <trkpt lat="43.97321" lon="3.45446">
        <ele>610.6</ele>
        <time>2015-08-30T14:22:03Z</time>
      </trkpt>
      <trkpt lat="43.97333" lon="3.45466">
        <ele>609.6</ele>
        <time>2015-08-30T14:22:04Z</time>
      </trkpt>
      <trkpt lat="43.97347" lon="3.45479">
        <ele>608.7</ele>
        <time>2015-08-30T14:22:05Z</time>
      </trkpt>
      <trkpt lat="43.97364" lon="3.45489">
        <ele>606.7</ele>
        <time>2015-08-30T14:22:06Z</time>
      </trkpt>
      <trkpt lat="43.97394" lon="3.45511">
        <ele>604.8</ele>
        <time>2015-08-30T14:22:08Z</time>
      </trkpt>
      <trkpt lat="43.97404" lon="3.45531">
        <ele>603.4</ele>
        <time>2015-08-30T14:22:09Z</time>
      </trkpt>
      <trkpt lat="43.97408" lon="3.45555">
        <ele>601.4</ele>
        <time>2015-08-30T14:22:10Z</time>
      </trkpt>
      <trkpt lat="43.97403" lon="3.45581">
        <ele>600</ele>
        <time>2015-08-30T14:22:11Z</time>
      </trkpt>
      <trkpt lat="43.97387" lon="3.45629">
        <ele>597.1</ele>
        <time>2015-08-30T14:22:13Z</time>
      </trkpt>
      <trkpt lat="43.97383" lon="3.45649">
        <ele>596.2</ele>
        <time>2015-08-30T14:22:14Z</time>
      </trkpt>
      <trkpt lat="43.97384" lon="3.45672">
        <ele>595.2</ele>
        <time>2015-08-30T14:22:15Z</time>
      </trkpt>
      <trkpt lat="43.97408" lon="3.45748">
        <ele>593.3</ele>
        <time>2015-08-30T14:22:18Z</time>
      </trkpt>
      <trkpt lat="43.97407" lon="3.45843">
        <ele>590.4</ele>
        <time>2015-08-30T14:22:21Z</time>
      </trkpt>
      <trkpt lat="43.97396" lon="3.45974">
        <ele>585.1</ele>
        <time>2015-08-30T14:22:25Z</time>
      </trkpt>
      <trkpt lat="43.97423" lon="3.46164">
        <ele>577.9</ele>
        <time>2015-08-30T14:22:32Z</time>
      </trkpt>
      <trkpt lat="43.97432" lon="3.46178">
        <ele>576.5</ele>
        <time>2015-08-30T14:22:33Z</time>
      </trkpt>
      <trkpt lat="43.97444" lon="3.46187">
        <ele>575</ele>
        <time>2015-08-30T14:22:34Z</time>
      </trkpt>
      <trkpt lat="43.97462" lon="3.46191">
        <ele>575</ele>
        <time>2015-08-30T14:22:35Z</time>
      </trkpt>
      <trkpt lat="43.97478" lon="3.46185">
        <ele>574</ele>
        <time>2015-08-30T14:22:36Z</time>
      </trkpt>
      <trkpt lat="43.9751" lon="3.46141">
        <ele>570.7</ele>
        <time>2015-08-30T14:22:39Z</time>
      </trkpt>
      <trkpt lat="43.97602" lon="3.4607">
        <ele>564.9</ele>
        <time>2015-08-30T14:22:45Z</time>
      </trkpt>
      <trkpt lat="43.97698" lon="3.46024">
        <ele>560.1</ele>
        <time>2015-08-30T14:22:50Z</time>
      </trkpt>
      <trkpt lat="43.97712" lon="3.46025">
        <ele>558.7</ele>
        <time>2015-08-30T14:22:51Z</time>
      </trkpt>
      <trkpt lat="43.97725" lon="3.46033">
        <ele>557.2</ele>
        <time>2015-08-30T14:22:52Z</time>
      </trkpt>
      <trkpt lat="43.97736" lon="3.46047">
        <ele>555.3</ele>
        <time>2015-08-30T14:22:53Z</time>
      </trkpt>
      <trkpt lat="43.97743" lon="3.46068">
        <ele>554.8</ele>
        <time>2015-08-30T14:22:54Z</time>
      </trkpt>
      <trkpt lat="43.97743" lon="3.46093">
        <ele>552.9</ele>
        <time>2015-08-30T14:22:55Z</time>
      </trkpt>
      <trkpt lat="43.9774" lon="3.46121">
        <ele>552.9</ele>
        <time>2015-08-30T14:22:56Z</time>
      </trkpt>
      <trkpt lat="43.97723" lon="3.46184">
        <ele>550</ele>
        <time>2015-08-30T14:22:58Z</time>
      </trkpt>
      <trkpt lat="43.97612" lon="3.46523">
        <ele>534.2</ele>
        <time>2015-08-30T14:23:08Z</time>
      </trkpt>
      <trkpt lat="43.97597" lon="3.46617">
        <ele>528.9</ele>
        <time>2015-08-30T14:23:11Z</time>
      </trkpt>
      <trkpt lat="43.97599" lon="3.46645">
        <ele>526.9</ele>
        <time>2015-08-30T14:23:12Z</time>
      </trkpt>
      <trkpt lat="43.97605" lon="3.46674">
        <ele>526.5</ele>
        <time>2015-08-30T14:23:13Z</time>
      </trkpt>
      <trkpt lat="43.97615" lon="3.46699">
        <ele>525.5</ele>
        <time>2015-08-30T14:23:14Z</time>
      </trkpt>
      <trkpt lat="43.9763" lon="3.46719">
        <ele>525</ele>
        <time>2015-08-30T14:23:15Z</time>
      </trkpt>
      <trkpt lat="43.9765" lon="3.46734">
        <ele>523.1</ele>
        <time>2015-08-30T14:23:16Z</time>
      </trkpt>
      <trkpt lat="43.97671" lon="3.46742">
        <ele>521.7</ele>
        <time>2015-08-30T14:23:17Z</time>
      </trkpt>
      <trkpt lat="43.97699" lon="3.46747">
        <ele>523.1</ele>
        <time>2015-08-30T14:23:18Z</time>
      </trkpt>
      <trkpt lat="43.97745" lon="3.46737">
        <ele>519.7</ele>
        <time>2015-08-30T14:23:20Z</time>
      </trkpt>
      <trkpt lat="43.97769" lon="3.46728">
        <ele>517.8</ele>
        <time>2015-08-30T14:23:21Z</time>
      </trkpt>
      <trkpt lat="43.97793" lon="3.46721">
        <ele>515.9</ele>
        <time>2015-08-30T14:23:22Z</time>
      </trkpt>
      <trkpt lat="43.97838" lon="3.46722">
        <ele>512.5</ele>
        <time>2015-08-30T14:23:24Z</time>
      </trkpt>
      <trkpt lat="43.9806" lon="3.46831">
        <ele>502.9</ele>
        <time>2015-08-30T14:23:34Z</time>
      </trkpt>
      <trkpt lat="43.98136" lon="3.46835">
        <ele>496.2</ele>
        <time>2015-08-30T14:23:39Z</time>
      </trkpt>
      <trkpt lat="43.9814" lon="3.46848">
        <ele>494.7</ele>
        <time>2015-08-30T14:23:40Z</time>
      </trkpt>
      <trkpt lat="43.98134" lon="3.46882">
        <ele>491.4</ele>
        <time>2015-08-30T14:23:42Z</time>
      </trkpt>
      <trkpt lat="43.98123" lon="3.46896">
        <ele>489</ele>
        <time>2015-08-30T14:23:43Z</time>
      </trkpt>
      <trkpt lat="43.98106" lon="3.46906">
        <ele>487.1</ele>
        <time>2015-08-30T14:23:44Z</time>
      </trkpt>
      <trkpt lat="43.98003" lon="3.46935">
        <ele>478.9</ele>
        <time>2015-08-30T14:23:48Z</time>
      </trkpt>
      <trkpt lat="43.97943" lon="3.46948">
        <ele>476.5</ele>
        <time>2015-08-30T14:23:50Z</time>
      </trkpt>
      <trkpt lat="43.9776" lon="3.47024">
        <ele>466.4</ele>
        <time>2015-08-30T14:23:58Z</time>
      </trkpt>
      <trkpt lat="43.97748" lon="3.47046">
        <ele>464.9</ele>
        <time>2015-08-30T14:23:59Z</time>
      </trkpt>
      <trkpt lat="43.97742" lon="3.47068">
        <ele>463</ele>
        <time>2015-08-30T14:24:00Z</time>
      </trkpt>
      <trkpt lat="43.97745" lon="3.47119">
        <ele>460.1</ele>
        <time>2015-08-30T14:24:02Z</time>
      </trkpt>
      <trkpt lat="43.97756" lon="3.47145">
        <ele>459.7</ele>
        <time>2015-08-30T14:24:03Z</time>
      </trkpt>
      <trkpt lat="43.97861" lon="3.47313">
        <ele>451.5</ele>
        <time>2015-08-30T14:24:10Z</time>
      </trkpt>
      <trkpt lat="43.97885" lon="3.47343">
        <ele>449.6</ele>
        <time>2015-08-30T14:24:12Z</time>
      </trkpt>
      <trkpt lat="43.97891" lon="3.4736">
        <ele>448.1</ele>
        <time>2015-08-30T14:24:13Z</time>
      </trkpt>
      <trkpt lat="43.97888" lon="3.47457">
        <ele>445.2</ele>
        <time>2015-08-30T14:24:17Z</time>
      </trkpt>
      <trkpt lat="43.97893" lon="3.47506">
        <ele>442.8</ele>
        <time>2015-08-30T14:24:19Z</time>
      </trkpt>
      <trkpt lat="43.97892" lon="3.4753">
        <ele>441.9</ele>
        <time>2015-08-30T14:24:20Z</time>
      </trkpt>
      <trkpt lat="43.97857" lon="3.47624">
        <ele>437.5</ele>
        <time>2015-08-30T14:24:25Z</time>
      </trkpt>
      <trkpt lat="43.97852" lon="3.47643">
        <ele>436.6</ele>
        <time>2015-08-30T14:24:26Z</time>
      </trkpt>
      <trkpt lat="43.9785" lon="3.47669">
        <ele>436.1</ele>
        <time>2015-08-30T14:24:27Z</time>
      </trkpt>
      <trkpt lat="43.97858" lon="3.47697">
        <ele>434.7</ele>
        <time>2015-08-30T14:24:28Z</time>
      </trkpt>
      <trkpt lat="43.97863" lon="3.47725">
        <ele>433.7</ele>
        <time>2015-08-30T14:24:29Z</time>
      </trkpt>
      <trkpt lat="43.97857" lon="3.47779">
        <ele>431.3</ele>
        <time>2015-08-30T14:24:31Z</time>
      </trkpt>
      <trkpt lat="43.97841" lon="3.47825">
        <ele>429.4</ele>
        <time>2015-08-30T14:24:33Z</time>
      </trkpt>
      <trkpt lat="43.97838" lon="3.47848">
        <ele>427.4</ele>
        <time>2015-08-30T14:24:34Z</time>
      </trkpt>
      <trkpt lat="43.9787" lon="3.48027">
        <ele>422.6</ele>
        <time>2015-08-30T14:24:39Z</time>
      </trkpt>
      <trkpt lat="43.97868" lon="3.48105">
        <ele>419.8</ele>
        <time>2015-08-30T14:24:41Z</time>
      </trkpt>
      <trkpt lat="43.97838" lon="3.48345">
        <ele>409.7</ele>
        <time>2015-08-30T14:24:48Z</time>
      </trkpt>
      <trkpt lat="43.97849" lon="3.48456">
        <ele>404.4</ele>
        <time>2015-08-30T14:24:52Z</time>
      </trkpt>
      <trkpt lat="43.97831" lon="3.48577">
        <ele>398.6</ele>
        <time>2015-08-30T14:24:56Z</time>
      </trkpt>
      <trkpt lat="43.97831" lon="3.48611">
        <ele>397.2</ele>
        <time>2015-08-30T14:24:57Z</time>
      </trkpt>
      <trkpt lat="43.97839" lon="3.48688">
        <ele>395.2</ele>
        <time>2015-08-30T14:24:59Z</time>
      </trkpt>
      <trkpt lat="43.97842" lon="3.48837">
        <ele>390</ele>
        <time>2015-08-30T14:25:03Z</time>
      </trkpt>
      <trkpt lat="43.97729" lon="3.49444">
        <ele>363</ele>
        <time>2015-08-30T14:25:21Z</time>
      </trkpt>
      <trkpt lat="43.97717" lon="3.49628">
        <ele>354.9</ele>
        <time>2015-08-30T14:25:28Z</time>
      </trkpt>
      <trkpt lat="43.97711" lon="3.4965">
        <ele>355.8</ele>
        <time>2015-08-30T14:25:29Z</time>
      </trkpt>
      <trkpt lat="43.97701" lon="3.4967">
        <ele>355.8</ele>
        <time>2015-08-30T14:25:30Z</time>
      </trkpt>
      <trkpt lat="43.97688" lon="3.49689">
        <ele>355.8</ele>
        <time>2015-08-30T14:25:31Z</time>
      </trkpt>
      <trkpt lat="43.97628" lon="3.49765">
        <ele>355.8</ele>
        <time>2015-08-30T14:25:35Z</time>
      </trkpt>
      <trkpt lat="43.97615" lon="3.49789">
        <ele>355.8</ele>
        <time>2015-08-30T14:25:36Z</time>
      </trkpt>
      <trkpt lat="43.97595" lon="3.49842">
        <ele>355.8</ele>
        <time>2015-08-30T14:25:38Z</time>
      </trkpt>
      <trkpt lat="43.97576" lon="3.49934">
        <ele>353.9</ele>
        <time>2015-08-30T14:25:41Z</time>
      </trkpt>
      <trkpt lat="43.97558" lon="3.50056">
        <ele>349.6</ele>
        <time>2015-08-30T14:25:45Z</time>
      </trkpt>
      <trkpt lat="43.97562" lon="3.5012">
        <ele>345.7</ele>
        <time>2015-08-30T14:25:47Z</time>
      </trkpt>
      <trkpt lat="43.97588" lon="3.5028">
        <ele>343.3</ele>
        <time>2015-08-30T14:25:52Z</time>
      </trkpt>
      <trkpt lat="43.97588" lon="3.50515">
        <ele>341.4</ele>
        <time>2015-08-30T14:25:59Z</time>
      </trkpt>
      <trkpt lat="43.97567" lon="3.50722">
        <ele>338.5</ele>
        <time>2015-08-30T14:26:06Z</time>
      </trkpt>
      <trkpt lat="43.9756" lon="3.50743">
        <ele>338</ele>
        <time>2015-08-30T14:26:07Z</time>
      </trkpt>
      <trkpt lat="43.97541" lon="3.50786">
        <ele>337.6</ele>
        <time>2015-08-30T14:26:09Z</time>
      </trkpt>
      <trkpt lat="43.97419" lon="3.5115">
        <ele>333.7</ele>
        <time>2015-08-30T14:26:24Z</time>
      </trkpt>
      <trkpt lat="43.97409" lon="3.51167">
        <ele>333.2</ele>
        <time>2015-08-30T14:26:25Z</time>
      </trkpt>
      <trkpt lat="43.97397" lon="3.51181">
        <ele>332.8</ele>
        <time>2015-08-30T14:26:26Z</time>
      </trkpt>
      <trkpt lat="43.97364" lon="3.5121">
        <ele>332.3</ele>
        <time>2015-08-30T14:26:28Z</time>
      </trkpt>
      <trkpt lat="43.97228" lon="3.51304">
        <ele>331.8</ele>
        <time>2015-08-30T14:26:34Z</time>
      </trkpt>
      <trkpt lat="43.96924" lon="3.51439">
        <ele>332.8</ele>
        <time>2015-08-30T14:26:48Z</time>
      </trkpt>
      <trkpt lat="43.9691" lon="3.5145">
        <ele>332.3</ele>
        <time>2015-08-30T14:26:49Z</time>
      </trkpt>
      <trkpt lat="43.96897" lon="3.51464">
        <ele>331.8</ele>
        <time>2015-08-30T14:26:50Z</time>
      </trkpt>
      <trkpt lat="43.96748" lon="3.51714">
        <ele>327.5</ele>
        <time>2015-08-30T14:27:09Z</time>
      </trkpt>
      <trkpt lat="43.96694" lon="3.51767">
        <ele>326.5</ele>
        <time>2015-08-30T14:27:15Z</time>
      </trkpt>
      <trkpt lat="43.96657" lon="3.51818">
        <ele>326</ele>
        <time>2015-08-30T14:27:19Z</time>
      </trkpt>
      <trkpt lat="43.96644" lon="3.51842">
        <ele>325.5</ele>
        <time>2015-08-30T14:27:21Z</time>
      </trkpt>
      <trkpt lat="43.9664" lon="3.51856">
        <ele>325.5</ele>
        <time>2015-08-30T14:27:22Z</time>
      </trkpt>
      <trkpt lat="43.96641" lon="3.51873">
        <ele>325.5</ele>
        <time>2015-08-30T14:27:23Z</time>
      </trkpt>
      <trkpt lat="43.96647" lon="3.51889">
        <ele>324.6</ele>
        <time>2015-08-30T14:27:24Z</time>
      </trkpt>
      <trkpt lat="43.96653" lon="3.51903">
        <ele>324.6</ele>
        <time>2015-08-30T14:27:25Z</time>
      </trkpt>
      <trkpt lat="43.9666" lon="3.51915">
        <ele>324.1</ele>
        <time>2015-08-30T14:27:26Z</time>
      </trkpt>
      <trkpt lat="43.96736" lon="3.5201">
        <ele>323.6</ele>
        <time>2015-08-30T14:27:35Z</time>
      </trkpt>
      <trkpt lat="43.96741" lon="3.52021">
        <ele>323.6</ele>
        <time>2015-08-30T14:27:36Z</time>
      </trkpt>
      <trkpt lat="43.96747" lon="3.52034">
        <ele>324.1</ele>
        <time>2015-08-30T14:27:37Z</time>
      </trkpt>
      <trkpt lat="43.9675" lon="3.5205">
        <ele>324.1</ele>
        <time>2015-08-30T14:27:38Z</time>
      </trkpt>
      <trkpt lat="43.96752" lon="3.52068">
        <ele>324.6</ele>
        <time>2015-08-30T14:27:39Z</time>
      </trkpt>
      <trkpt lat="43.96751" lon="3.52088">
        <ele>325.5</ele>
        <time>2015-08-30T14:27:40Z</time>
      </trkpt>
      <trkpt lat="43.96743" lon="3.52131">
        <ele>325.5</ele>
        <time>2015-08-30T14:27:42Z</time>
      </trkpt>
      <trkpt lat="43.96737" lon="3.52217">
        <ele>326.5</ele>
        <time>2015-08-30T14:27:45Z</time>
      </trkpt>
      <trkpt lat="43.96789" lon="3.52537">
        <ele>324.1</ele>
        <time>2015-08-30T14:27:58Z</time>
      </trkpt>
      <trkpt lat="43.96799" lon="3.52547">
        <ele>323.6</ele>
        <time>2015-08-30T14:27:59Z</time>
      </trkpt>
      <trkpt lat="43.96811" lon="3.52553">
        <ele>323.1</ele>
        <time>2015-08-30T14:28:00Z</time>
      </trkpt>
      <trkpt lat="43.96826" lon="3.52556">
        <ele>322.2</ele>
        <time>2015-08-30T14:28:01Z</time>
      </trkpt>
      <trkpt lat="43.96861" lon="3.52553">
        <ele>323.1</ele>
        <time>2015-08-30T14:28:03Z</time>
      </trkpt>
      <trkpt lat="43.96877" lon="3.52554">
        <ele>323.1</ele>
        <time>2015-08-30T14:28:04Z</time>
      </trkpt>
      <trkpt lat="43.96895" lon="3.5256">
        <ele>323.1</ele>
        <time>2015-08-30T14:28:05Z</time>
      </trkpt>
      <trkpt lat="43.96992" lon="3.52631">
        <ele>321.2</ele>
        <time>2015-08-30T14:28:11Z</time>
      </trkpt>
      <trkpt lat="43.97003" lon="3.52645">
        <ele>321.2</ele>
        <time>2015-08-30T14:28:12Z</time>
      </trkpt>
      <trkpt lat="43.97031" lon="3.52723">
        <ele>319.3</ele>
        <time>2015-08-30T14:28:16Z</time>
      </trkpt>
      <trkpt lat="43.9704" lon="3.52739">
        <ele>319.3</ele>
        <time>2015-08-30T14:28:17Z</time>
      </trkpt>
      <trkpt lat="43.97051" lon="3.5275">
        <ele>318.8</ele>
        <time>2015-08-30T14:28:18Z</time>
      </trkpt>
      <trkpt lat="43.97063" lon="3.52757">
        <ele>318.3</ele>
        <time>2015-08-30T14:28:19Z</time>
      </trkpt>
      <trkpt lat="43.9719" lon="3.52787">
        <ele>318.3</ele>
        <time>2015-08-30T14:28:29Z</time>
      </trkpt>
      <trkpt lat="43.972" lon="3.52792">
        <ele>317.9</ele>
        <time>2015-08-30T14:28:30Z</time>
      </trkpt>
      <trkpt lat="43.97209" lon="3.528">
        <ele>317.9</ele>
        <time>2015-08-30T14:28:31Z</time>
      </trkpt>
      <trkpt lat="43.97215" lon="3.52813">
        <ele>318.3</ele>
        <time>2015-08-30T14:28:32Z</time>
      </trkpt>
      <trkpt lat="43.97212" lon="3.52831">
        <ele>317.4</ele>
        <time>2015-08-30T14:28:33Z</time>
      </trkpt>
      <trkpt lat="43.97209" lon="3.53003">
        <ele>316.4</ele>
        <time>2015-08-30T14:28:43Z</time>
      </trkpt>
      <trkpt lat="43.97205" lon="3.53013">
        <ele>317.4</ele>
        <time>2015-08-30T14:28:44Z</time>
      </trkpt>
      <trkpt lat="43.972" lon="3.53022">
        <ele>318.3</ele>
        <time>2015-08-30T14:28:45Z</time>
      </trkpt>
      <trkpt lat="43.97193" lon="3.53028">
        <ele>319.3</ele>
        <time>2015-08-30T14:28:46Z</time>
      </trkpt>
      <trkpt lat="43.97177" lon="3.53031">
        <ele>319.8</ele>
        <time>2015-08-30T14:28:47Z</time>
      </trkpt>
      <trkpt lat="43.97165" lon="3.53034">
        <ele>319.8</ele>
        <time>2015-08-30T14:28:48Z</time>
      </trkpt>
      <trkpt lat="43.97143" lon="3.53034">
        <ele>318.8</ele>
        <time>2015-08-30T14:28:50Z</time>
      </trkpt>
      <trkpt lat="43.97114" lon="3.53037">
        <ele>318.8</ele>
        <time>2015-08-30T14:28:53Z</time>
      </trkpt>
      <trkpt lat="43.97106" lon="3.53042">
        <ele>319.3</ele>
        <time>2015-08-30T14:28:54Z</time>
      </trkpt>
      <trkpt lat="43.97098" lon="3.53051">
        <ele>319.3</ele>
        <time>2015-08-30T14:28:55Z</time>
      </trkpt>
      <trkpt lat="43.97094" lon="3.53062">
        <ele>318.3</ele>
        <time>2015-08-30T14:28:56Z</time>
      </trkpt>
      <trkpt lat="43.97077" lon="3.53256">
        <ele>318.8</ele>
        <time>2015-08-30T14:29:14Z</time>
      </trkpt>
      <trkpt lat="43.97071" lon="3.53275">
        <ele>319.3</ele>
        <time>2015-08-30T14:29:15Z</time>
      </trkpt>
      <trkpt lat="43.97061" lon="3.53293">
        <ele>319.8</ele>
        <time>2015-08-30T14:29:16Z</time>
      </trkpt>
      <trkpt lat="43.97014" lon="3.53366">
        <ele>321.2</ele>
        <time>2015-08-30T14:29:20Z</time>
      </trkpt>
      <trkpt lat="43.97004" lon="3.53387">
        <ele>321.7</ele>
        <time>2015-08-30T14:29:21Z</time>
      </trkpt>
      <trkpt lat="43.96997" lon="3.5341">
        <ele>321.7</ele>
        <time>2015-08-30T14:29:22Z</time>
      </trkpt>
      <trkpt lat="43.96995" lon="3.53437">
        <ele>320.7</ele>
        <time>2015-08-30T14:29:23Z</time>
      </trkpt>
      <trkpt lat="43.96996" lon="3.53465">
        <ele>321.2</ele>
        <time>2015-08-30T14:29:24Z</time>
      </trkpt>
      <trkpt lat="43.97008" lon="3.53554">
        <ele>321.7</ele>
        <time>2015-08-30T14:29:27Z</time>
      </trkpt>
      <trkpt lat="43.97008" lon="3.53585">
        <ele>321.2</ele>
        <time>2015-08-30T14:29:28Z</time>
      </trkpt>
      <trkpt lat="43.97005" lon="3.53616">
        <ele>321.2</ele>
        <time>2015-08-30T14:29:29Z</time>
      </trkpt>
      <trkpt lat="43.96998" lon="3.53649">
        <ele>321.2</ele>
        <time>2015-08-30T14:29:30Z</time>
      </trkpt>
      <trkpt lat="43.96986" lon="3.5368">
        <ele>320.7</ele>
        <time>2015-08-30T14:29:31Z</time>
      </trkpt>
      <trkpt lat="43.96929" lon="3.53782">
        <ele>318.3</ele>
        <time>2015-08-30T14:29:35Z</time>
      </trkpt>
      <trkpt lat="43.9692" lon="3.53811">
        <ele>317.4</ele>
        <time>2015-08-30T14:29:36Z</time>
      </trkpt>
      <trkpt lat="43.96916" lon="3.53841">
        <ele>316.4</ele>
        <time>2015-08-30T14:29:37Z</time>
      </trkpt>
      <trkpt lat="43.96918" lon="3.53874">
        <ele>315</ele>
        <time>2015-08-30T14:29:38Z</time>
      </trkpt>
      <trkpt lat="43.96923" lon="3.53909">
        <ele>314.5</ele>
        <time>2015-08-30T14:29:39Z</time>
      </trkpt>
      <trkpt lat="43.96933" lon="3.53946">
        <ele>314</ele>
        <time>2015-08-30T14:29:40Z</time>
      </trkpt>
      <trkpt lat="43.96947" lon="3.53981">
        <ele>313.1</ele>
        <time>2015-08-30T14:29:41Z</time>
      </trkpt>
      <trkpt lat="43.97008" lon="3.54081">
        <ele>310.2</ele>
        <time>2015-08-30T14:29:44Z</time>
      </trkpt>
      <trkpt lat="43.9704" lon="3.54158">
        <ele>309.7</ele>
        <time>2015-08-30T14:29:46Z</time>
      </trkpt>
      <trkpt lat="43.9706" lon="3.54232">
        <ele>307.8</ele>
        <time>2015-08-30T14:29:48Z</time>
      </trkpt>
      <trkpt lat="43.97063" lon="3.54315">
        <ele>306.8</ele>
        <time>2015-08-30T14:29:50Z</time>
      </trkpt>
      <trkpt lat="43.97057" lon="3.54484">
        <ele>305.4</ele>
        <time>2015-08-30T14:29:54Z</time>
      </trkpt>
      <trkpt lat="43.9705" lon="3.54524">
        <ele>304.9</ele>
        <time>2015-08-30T14:29:55Z</time>
      </trkpt>
      <trkpt lat="43.97009" lon="3.54694">
        <ele>303.9</ele>
        <time>2015-08-30T14:30:00Z</time>
      </trkpt>
      <trkpt lat="43.97012" lon="3.54904">
        <ele>302.5</ele>
        <time>2015-08-30T14:30:06Z</time>
      </trkpt>
      <trkpt lat="43.9703" lon="3.54957">
        <ele>301</ele>
        <time>2015-08-30T14:30:08Z</time>
      </trkpt>
      <trkpt lat="43.97044" lon="3.54983">
        <ele>300.6</ele>
        <time>2015-08-30T14:30:09Z</time>
      </trkpt>
      <trkpt lat="43.97067" lon="3.55007">
        <ele>299.6</ele>
        <time>2015-08-30T14:30:10Z</time>
      </trkpt>
      <trkpt lat="43.97085" lon="3.55036">
        <ele>299.1</ele>
        <time>2015-08-30T14:30:11Z</time>
      </trkpt>
      <trkpt lat="43.97099" lon="3.5507">
        <ele>298.2</ele>
        <time>2015-08-30T14:30:12Z</time>
      </trkpt>
      <trkpt lat="43.97118" lon="3.55144">
        <ele>298.2</ele>
        <time>2015-08-30T14:30:14Z</time>
      </trkpt>
      <trkpt lat="43.97145" lon="3.55356">
        <ele>291.9</ele>
        <time>2015-08-30T14:30:21Z</time>
      </trkpt>
      <trkpt lat="43.97139" lon="3.55377">
        <ele>290.9</ele>
        <time>2015-08-30T14:30:22Z</time>
      </trkpt>
      <trkpt lat="43.97114" lon="3.55417">
        <ele>289</ele>
        <time>2015-08-30T14:30:24Z</time>
      </trkpt>
      <trkpt lat="43.97097" lon="3.55436">
        <ele>289</ele>
        <time>2015-08-30T14:30:25Z</time>
      </trkpt>
      <trkpt lat="43.97081" lon="3.55459">
        <ele>288.5</ele>
        <time>2015-08-30T14:30:26Z</time>
      </trkpt>
      <trkpt lat="43.97069" lon="3.55486">
        <ele>287.6</ele>
        <time>2015-08-30T14:30:27Z</time>
      </trkpt>
      <trkpt lat="43.97052" lon="3.55541">
        <ele>286.1</ele>
        <time>2015-08-30T14:30:29Z</time>
      </trkpt>
      <trkpt lat="43.9704" lon="3.55597">
        <ele>283.7</ele>
        <time>2015-08-30T14:30:31Z</time>
      </trkpt>
      <trkpt lat="43.97036" lon="3.55662">
        <ele>283.7</ele>
        <time>2015-08-30T14:30:33Z</time>
      </trkpt>
      <trkpt lat="43.97039" lon="3.55797">
        <ele>282.3</ele>
        <time>2015-08-30T14:30:37Z</time>
      </trkpt>
      <trkpt lat="43.97045" lon="3.55827">
        <ele>281.8</ele>
        <time>2015-08-30T14:30:38Z</time>
      </trkpt>
      <trkpt lat="43.97085" lon="3.55953">
        <ele>280.8</ele>
        <time>2015-08-30T14:30:42Z</time>
      </trkpt>
      <trkpt lat="43.97094" lon="3.56025">
        <ele>280.4</ele>
        <time>2015-08-30T14:30:44Z</time>
      </trkpt>
      <trkpt lat="43.97102" lon="3.56262">
        <ele>279.9</ele>
        <time>2015-08-30T14:30:51Z</time>
      </trkpt>
      <trkpt lat="43.97087" lon="3.56347">
        <ele>279.9</ele>
        <time>2015-08-30T14:30:54Z</time>
      </trkpt>
      <trkpt lat="43.97078" lon="3.56373">
        <ele>279.9</ele>
        <time>2015-08-30T14:30:55Z</time>
      </trkpt>
      <trkpt lat="43.97044" lon="3.56437">
        <ele>280.8</ele>
        <time>2015-08-30T14:30:58Z</time>
      </trkpt>
      <trkpt lat="43.97037" lon="3.5646">
        <ele>280.4</ele>
        <time>2015-08-30T14:30:59Z</time>
      </trkpt>
      <trkpt lat="43.97034" lon="3.56487">
        <ele>279.9</ele>
        <time>2015-08-30T14:31:00Z</time>
      </trkpt>
      <trkpt lat="43.97033" lon="3.56515">
        <ele>279.9</ele>
        <time>2015-08-30T14:31:01Z</time>
      </trkpt>
      <trkpt lat="43.9704" lon="3.56544">
        <ele>279.9</ele>
        <time>2015-08-30T14:31:02Z</time>
      </trkpt>
      <trkpt lat="43.97043" lon="3.56573">
        <ele>279.9</ele>
        <time>2015-08-30T14:31:03Z</time>
      </trkpt>
      <trkpt lat="43.97043" lon="3.56604">
        <ele>280.4</ele>
        <time>2015-08-30T14:31:04Z</time>
      </trkpt>
      <trkpt lat="43.97041" lon="3.56634">
        <ele>279.9</ele>
        <time>2015-08-30T14:31:05Z</time>
      </trkpt>
      <trkpt lat="43.97035" lon="3.56663">
        <ele>279.9</ele>
        <time>2015-08-30T14:31:06Z</time>
      </trkpt>
      <trkpt lat="43.9702" lon="3.56713">
        <ele>279.4</ele>
        <time>2015-08-30T14:31:08Z</time>
      </trkpt>
      <trkpt lat="43.97016" lon="3.56737">
        <ele>278.4</ele>
        <time>2015-08-30T14:31:09Z</time>
      </trkpt>
      <trkpt lat="43.97016" lon="3.56765">
        <ele>278.4</ele>
        <time>2015-08-30T14:31:10Z</time>
      </trkpt>
      <trkpt lat="43.97039" lon="3.56888">
        <ele>276</ele>
        <time>2015-08-30T14:31:14Z</time>
      </trkpt>
      <trkpt lat="43.97047" lon="3.56917">
        <ele>275.6</ele>
        <time>2015-08-30T14:31:15Z</time>
      </trkpt>
      <trkpt lat="43.97111" lon="3.5704">
        <ele>273.2</ele>
        <time>2015-08-30T14:31:20Z</time>
      </trkpt>
      <trkpt lat="43.97118" lon="3.5707">
        <ele>272.7</ele>
        <time>2015-08-30T14:31:21Z</time>
      </trkpt>
      <trkpt lat="43.97123" lon="3.57131">
        <ele>272.2</ele>
        <time>2015-08-30T14:31:23Z</time>
      </trkpt>
      <trkpt lat="43.97122" lon="3.5716">
        <ele>271.7</ele>
        <time>2015-08-30T14:31:24Z</time>
      </trkpt>
      <trkpt lat="43.97115" lon="3.57188">
        <ele>271.7</ele>
        <time>2015-08-30T14:31:25Z</time>
      </trkpt>
      <trkpt lat="43.97104" lon="3.57215">
        <ele>271.2</ele>
        <time>2015-08-30T14:31:26Z</time>
      </trkpt>
      <trkpt lat="43.97091" lon="3.57241">
        <ele>271.2</ele>
        <time>2015-08-30T14:31:27Z</time>
      </trkpt>
      <trkpt lat="43.97072" lon="3.57297">
        <ele>271.2</ele>
        <time>2015-08-30T14:31:29Z</time>
      </trkpt>
      <trkpt lat="43.97045" lon="3.57469">
        <ele>271.2</ele>
        <time>2015-08-30T14:31:35Z</time>
      </trkpt>
      <trkpt lat="43.97049" lon="3.57491">
        <ele>270.3</ele>
        <time>2015-08-30T14:31:36Z</time>
      </trkpt>
      <trkpt lat="43.97055" lon="3.57512">
        <ele>269.3</ele>
        <time>2015-08-30T14:31:37Z</time>
      </trkpt>
      <trkpt lat="43.97066" lon="3.57529">
        <ele>268.4</ele>
        <time>2015-08-30T14:31:38Z</time>
      </trkpt>
      <trkpt lat="43.97081" lon="3.57546">
        <ele>267.4</ele>
        <time>2015-08-30T14:31:39Z</time>
      </trkpt>
      <trkpt lat="43.97117" lon="3.57576">
        <ele>267.9</ele>
        <time>2015-08-30T14:31:41Z</time>
      </trkpt>
      <trkpt lat="43.97151" lon="3.57598">
        <ele>267.9</ele>
        <time>2015-08-30T14:31:43Z</time>
      </trkpt>
      <trkpt lat="43.97167" lon="3.57604">
        <ele>267.9</ele>
        <time>2015-08-30T14:31:44Z</time>
      </trkpt>
      <trkpt lat="43.97185" lon="3.57608">
        <ele>269.8</ele>
        <time>2015-08-30T14:31:45Z</time>
      </trkpt>
      <trkpt lat="43.972" lon="3.57613">
        <ele>270.8</ele>
        <time>2015-08-30T14:31:46Z</time>
      </trkpt>
      <trkpt lat="43.97212" lon="3.57622">
        <ele>270.8</ele>
        <time>2015-08-30T14:31:47Z</time>
      </trkpt>
      <trkpt lat="43.97221" lon="3.57636">
        <ele>270.8</ele>
        <time>2015-08-30T14:31:48Z</time>
      </trkpt>
      <trkpt lat="43.97227" lon="3.57656">
        <ele>271.2</ele>
        <time>2015-08-30T14:31:49Z</time>
      </trkpt>
      <trkpt lat="43.97227" lon="3.57702">
        <ele>267.4</ele>
        <time>2015-08-30T14:31:51Z</time>
      </trkpt>
      <trkpt lat="43.97238" lon="3.5779">
        <ele>265</ele>
        <time>2015-08-30T14:31:55Z</time>
      </trkpt>
      <trkpt lat="43.97252" lon="3.5783">
        <ele>264</ele>
        <time>2015-08-30T14:31:57Z</time>
      </trkpt>
      <trkpt lat="43.9738" lon="3.58055">
        <ele>259.2</ele>
        <time>2015-08-30T14:32:15Z</time>
      </trkpt>
      <trkpt lat="43.97382" lon="3.58063">
        <ele>259.2</ele>
        <time>2015-08-30T14:32:16Z</time>
      </trkpt>
      <trkpt lat="43.97382" lon="3.58071">
        <ele>259.2</ele>
        <time>2015-08-30T14:32:17Z</time>
      </trkpt>
      <trkpt lat="43.97377" lon="3.58087">
        <ele>258.7</ele>
        <time>2015-08-30T14:32:19Z</time>
      </trkpt>
      <trkpt lat="43.97374" lon="3.58124">
        <ele>258.7</ele>
        <time>2015-08-30T14:32:22Z</time>
      </trkpt>
      <trkpt lat="43.97344" lon="3.58244">
        <ele>258.7</ele>
        <time>2015-08-30T14:32:30Z</time>
      </trkpt>
      <trkpt lat="43.97343" lon="3.58347">
        <ele>256.8</ele>
        <time>2015-08-30T14:32:36Z</time>
      </trkpt>
      <trkpt lat="43.97377" lon="3.58849">
        <ele>252.5</ele>
        <time>2015-08-30T14:33:03Z</time>
      </trkpt>
      <trkpt lat="43.97375" lon="3.58893">
        <ele>253</ele>
        <time>2015-08-30T14:33:05Z</time>
      </trkpt>
      <trkpt lat="43.97318" lon="3.59196">
        <ele>250.6</ele>
        <time>2015-08-30T14:33:18Z</time>
      </trkpt>
      <trkpt lat="43.97324" lon="3.59291">
        <ele>248.2</ele>
        <time>2015-08-30T14:33:26Z</time>
      </trkpt>
      <trkpt lat="43.97327" lon="3.593">
        <ele>247.7</ele>
        <time>2015-08-30T14:33:27Z</time>
      </trkpt>
      <trkpt lat="43.97332" lon="3.59307">
        <ele>247.2</ele>
        <time>2015-08-30T14:33:28Z</time>
      </trkpt>
      <trkpt lat="43.97338" lon="3.59313">
        <ele>246.7</ele>
        <time>2015-08-30T14:33:29Z</time>
      </trkpt>
      <trkpt lat="43.97352" lon="3.59321">
        <ele>246.2</ele>
        <time>2015-08-30T14:33:31Z</time>
      </trkpt>
      <trkpt lat="43.97359" lon="3.59327">
        <ele>245.8</ele>
        <time>2015-08-30T14:33:32Z</time>
      </trkpt>
      <trkpt lat="43.97365" lon="3.59334">
        <ele>245.8</ele>
        <time>2015-08-30T14:33:33Z</time>
      </trkpt>
      <trkpt lat="43.97433" lon="3.59429">
        <ele>244.8</ele>
        <time>2015-08-30T14:33:42Z</time>
      </trkpt>
      <trkpt lat="43.98432" lon="3.6035">
        <ele>229.4</ele>
        <time>2015-08-30T14:34:45Z</time>
      </trkpt>
      <trkpt lat="43.98568" lon="3.60444">
        <ele>228</ele>
        <time>2015-08-30T14:34:56Z</time>
      </trkpt>
      <trkpt lat="43.98579" lon="3.60448">
        <ele>228</ele>
        <time>2015-08-30T14:34:57Z</time>
      </trkpt>
      <trkpt lat="43.98779" lon="3.60476">
        <ele>229.9</ele>
        <time>2015-08-30T14:35:10Z</time>
      </trkpt>
      <trkpt lat="43.98926" lon="3.60534">
        <ele>228.9</ele>
        <time>2015-08-30T14:35:19Z</time>
      </trkpt>
      <trkpt lat="43.99015" lon="3.60629">
        <ele>228</ele>
        <time>2015-08-30T14:35:26Z</time>
      </trkpt>
      <trkpt lat="43.99189" lon="3.60977">
        <ele>225.1</ele>
        <time>2015-08-30T14:35:51Z</time>
      </trkpt>
      <trkpt lat="43.992" lon="3.61005">
        <ele>225.1</ele>
        <time>2015-08-30T14:35:53Z</time>
      </trkpt>
      <trkpt lat="43.99204" lon="3.6102">
        <ele>225.1</ele>
        <time>2015-08-30T14:35:54Z</time>
      </trkpt>
      <trkpt lat="43.99209" lon="3.61063">
        <ele>225.1</ele>
        <time>2015-08-30T14:35:57Z</time>
      </trkpt>
      <trkpt lat="43.99209" lon="3.61114">
        <ele>224.6</ele>
        <time>2015-08-30T14:36:01Z</time>
      </trkpt>
      <trkpt lat="43.99203" lon="3.61139">
        <ele>224.1</ele>
        <time>2015-08-30T14:36:03Z</time>
      </trkpt>
      <trkpt lat="43.99203" lon="3.61153">
        <ele>224.1</ele>
        <time>2015-08-30T14:36:04Z</time>
      </trkpt>
      <trkpt lat="43.99206" lon="3.61166">
        <ele>224.1</ele>
        <time>2015-08-30T14:36:05Z</time>
      </trkpt>
      <trkpt lat="43.99216" lon="3.61191">
        <ele>223.6</ele>
        <time>2015-08-30T14:36:07Z</time>
      </trkpt>
      <trkpt lat="43.99221" lon="3.61221">
        <ele>223.6</ele>
        <time>2015-08-30T14:36:09Z</time>
      </trkpt>
      <trkpt lat="43.99241" lon="3.61656">
        <ele>221.7</ele>
        <time>2015-08-30T14:36:37Z</time>
      </trkpt>
      <trkpt lat="43.99231" lon="3.61808">
        <ele>221.2</ele>
        <time>2015-08-30T14:36:47Z</time>
      </trkpt>
      <trkpt lat="43.99194" lon="3.61978">
        <ele>222.2</ele>
        <time>2015-08-30T14:36:55Z</time>
      </trkpt>
      <trkpt lat="43.99193" lon="3.62676">
        <ele>223.2</ele>
        <time>2015-08-30T14:37:22Z</time>
      </trkpt>
      <trkpt lat="43.99188" lon="3.62689">
        <ele>222.7</ele>
        <time>2015-08-30T14:37:23Z</time>
      </trkpt>
      <trkpt lat="43.9918" lon="3.62697">
        <ele>222.2</ele>
        <time>2015-08-30T14:37:24Z</time>
      </trkpt>
      <trkpt lat="43.99172" lon="3.62717">
        <ele>221.2</ele>
        <time>2015-08-30T14:37:26Z</time>
      </trkpt>
      <trkpt lat="43.99172" lon="3.62727">
        <ele>220.8</ele>
        <time>2015-08-30T14:37:27Z</time>
      </trkpt>
      <trkpt lat="43.99177" lon="3.62735">
        <ele>220.3</ele>
        <time>2015-08-30T14:37:28Z</time>
      </trkpt>
      <trkpt lat="43.99186" lon="3.62741">
        <ele>219.3</ele>
        <time>2015-08-30T14:37:29Z</time>
      </trkpt>
      <trkpt lat="43.99194" lon="3.62749">
        <ele>219.8</ele>
        <time>2015-08-30T14:37:30Z</time>
      </trkpt>
      <trkpt lat="43.992" lon="3.62761">
        <ele>219.3</ele>
        <time>2015-08-30T14:37:31Z</time>
      </trkpt>
      <trkpt lat="43.99265" lon="3.62947">
        <ele>220.3</ele>
        <time>2015-08-30T14:37:40Z</time>
      </trkpt>
      <trkpt lat="43.99385" lon="3.63357">
        <ele>216.9</ele>
        <time>2015-08-30T14:37:57Z</time>
      </trkpt>
      <trkpt lat="43.99388" lon="3.63378">
        <ele>216.9</ele>
        <time>2015-08-30T14:37:58Z</time>
      </trkpt>
      <trkpt lat="43.99388" lon="3.63417">
        <ele>216.4</ele>
        <time>2015-08-30T14:38:00Z</time>
      </trkpt>
      <trkpt lat="43.99354" lon="3.63767">
        <ele>214</ele>
        <time>2015-08-30T14:38:19Z</time>
      </trkpt>
      <trkpt lat="43.9942" lon="3.63986">
        <ele>214.5</ele>
        <time>2015-08-30T14:38:29Z</time>
      </trkpt>
      <trkpt lat="43.99427" lon="3.64001">
        <ele>214.5</ele>
        <time>2015-08-30T14:38:30Z</time>
      </trkpt>
      <trkpt lat="43.99438" lon="3.64006">
        <ele>214</ele>
        <time>2015-08-30T14:38:31Z</time>
      </trkpt>
      <trkpt lat="43.99452" lon="3.64008">
        <ele>214</ele>
        <time>2015-08-30T14:38:32Z</time>
      </trkpt>
      <trkpt lat="43.99472" lon="3.64008">
        <ele>215</ele>
        <time>2015-08-30T14:38:33Z</time>
      </trkpt>
      <trkpt lat="43.99487" lon="3.64004">
        <ele>215</ele>
        <time>2015-08-30T14:38:34Z</time>
      </trkpt>
      <trkpt lat="43.99514" lon="3.63992">
        <ele>214.5</ele>
        <time>2015-08-30T14:38:36Z</time>
      </trkpt>
      <trkpt lat="43.99528" lon="3.63989">
        <ele>214.5</ele>
        <time>2015-08-30T14:38:37Z</time>
      </trkpt>
      <trkpt lat="43.99542" lon="3.63989">
        <ele>214</ele>
        <time>2015-08-30T14:38:38Z</time>
      </trkpt>
      <trkpt lat="43.99556" lon="3.63993">
        <ele>214</ele>
        <time>2015-08-30T14:38:39Z</time>
      </trkpt>
      <trkpt lat="43.99571" lon="3.64002">
        <ele>214.5</ele>
        <time>2015-08-30T14:38:40Z</time>
      </trkpt>
      <trkpt lat="43.99585" lon="3.64013">
        <ele>214.5</ele>
        <time>2015-08-30T14:38:41Z</time>
      </trkpt>
      <trkpt lat="43.99613" lon="3.64045">
        <ele>214.5</ele>
        <time>2015-08-30T14:38:43Z</time>
      </trkpt>
      <trkpt lat="43.9972" lon="3.642">
        <ele>213.1</ele>
        <time>2015-08-30T14:38:52Z</time>
      </trkpt>
      <trkpt lat="43.99745" lon="3.6426">
        <ele>212.1</ele>
        <time>2015-08-30T14:38:56Z</time>
      </trkpt>
      <trkpt lat="43.99751" lon="3.64292">
        <ele>211.6</ele>
        <time>2015-08-30T14:38:58Z</time>
      </trkpt>
      <trkpt lat="43.99753" lon="3.6431">
        <ele>211.6</ele>
        <time>2015-08-30T14:38:59Z</time>
      </trkpt>
      <trkpt lat="43.99752" lon="3.64345">
        <ele>211.6</ele>
        <time>2015-08-30T14:39:01Z</time>
      </trkpt>
      <trkpt lat="43.99746" lon="3.64383">
        <ele>211.6</ele>
        <time>2015-08-30T14:39:03Z</time>
      </trkpt>
      <trkpt lat="43.997" lon="3.64608">
        <ele>212.1</ele>
        <time>2015-08-30T14:39:12Z</time>
      </trkpt>
      <trkpt lat="43.99701" lon="3.6463">
        <ele>212.1</ele>
        <time>2015-08-30T14:39:13Z</time>
      </trkpt>
      <trkpt lat="43.99705" lon="3.64652">
        <ele>212.1</ele>
        <time>2015-08-30T14:39:14Z</time>
      </trkpt>
      <trkpt lat="43.99712" lon="3.64672">
        <ele>211.6</ele>
        <time>2015-08-30T14:39:15Z</time>
      </trkpt>
      <trkpt lat="43.9972" lon="3.64691">
        <ele>211.2</ele>
        <time>2015-08-30T14:39:16Z</time>
      </trkpt>
      <trkpt lat="43.99731" lon="3.64706">
        <ele>210.2</ele>
        <time>2015-08-30T14:39:17Z</time>
      </trkpt>
      <trkpt lat="43.99746" lon="3.64717">
        <ele>208.7</ele>
        <time>2015-08-30T14:39:18Z</time>
      </trkpt>
      <trkpt lat="43.99796" lon="3.64744">
        <ele>206.3</ele>
        <time>2015-08-30T14:39:21Z</time>
      </trkpt>
      <trkpt lat="43.99894" lon="3.64827">
        <ele>202.5</ele>
        <time>2015-08-30T14:39:28Z</time>
      </trkpt>
      <trkpt lat="43.99984" lon="3.64921">
        <ele>202.5</ele>
        <time>2015-08-30T14:39:37Z</time>
      </trkpt>
      <trkpt lat="44.00016" lon="3.6498">
        <ele>202.5</ele>
        <time>2015-08-30T14:39:40Z</time>
      </trkpt>
      <trkpt lat="44.00114" lon="3.65324">
        <ele>201.1</ele>
        <time>2015-08-30T14:39:52Z</time>
      </trkpt>
      <trkpt lat="44.00151" lon="3.65618">
        <ele>198.7</ele>
        <time>2015-08-30T14:40:02Z</time>
      </trkpt>
      <trkpt lat="44.00144" lon="3.65676">
        <ele>198.2</ele>
        <time>2015-08-30T14:40:04Z</time>
      </trkpt>
      <trkpt lat="44.00131" lon="3.65731">
        <ele>198.2</ele>
        <time>2015-08-30T14:40:06Z</time>
      </trkpt>
      <trkpt lat="44.0012" lon="3.65753">
        <ele>198.2</ele>
        <time>2015-08-30T14:40:07Z</time>
      </trkpt>
      <trkpt lat="44.00106" lon="3.6577">
        <ele>197.7</ele>
        <time>2015-08-30T14:40:08Z</time>
      </trkpt>
      <trkpt lat="44.00072" lon="3.65797">
        <ele>198.2</ele>
        <time>2015-08-30T14:40:10Z</time>
      </trkpt>
      <trkpt lat="44.00059" lon="3.65812">
        <ele>198.2</ele>
        <time>2015-08-30T14:40:11Z</time>
      </trkpt>
      <trkpt lat="44.00049" lon="3.65827">
        <ele>198.7</ele>
        <time>2015-08-30T14:40:12Z</time>
      </trkpt>
      <trkpt lat="44.00042" lon="3.65843">
        <ele>199.1</ele>
        <time>2015-08-30T14:40:13Z</time>
      </trkpt>
      <trkpt lat="44.00043" lon="3.6586">
        <ele>199.1</ele>
        <time>2015-08-30T14:40:14Z</time>
      </trkpt>
      <trkpt lat="44.00056" lon="3.65913">
        <ele>200.1</ele>
        <time>2015-08-30T14:40:17Z</time>
      </trkpt>
      <trkpt lat="44.00085" lon="3.65981">
        <ele>199.6</ele>
        <time>2015-08-30T14:40:21Z</time>
      </trkpt>
      <trkpt lat="44.001" lon="3.66047">
        <ele>198.2</ele>
        <time>2015-08-30T14:40:25Z</time>
      </trkpt>
      <trkpt lat="44.00112" lon="3.66071">
        <ele>197.7</ele>
        <time>2015-08-30T14:40:27Z</time>
      </trkpt>
      <trkpt lat="44.00113" lon="3.66084">
        <ele>197.2</ele>
        <time>2015-08-30T14:40:28Z</time>
      </trkpt>
      <trkpt lat="44.00112" lon="3.66095">
        <ele>196.3</ele>
        <time>2015-08-30T14:40:29Z</time>
      </trkpt>
      <trkpt lat="44.00105" lon="3.66107">
        <ele>195.8</ele>
        <time>2015-08-30T14:40:30Z</time>
      </trkpt>
      <trkpt lat="44.00096" lon="3.6612">
        <ele>196.7</ele>
        <time>2015-08-30T14:40:31Z</time>
      </trkpt>
      <trkpt lat="43.99974" lon="3.66347">
        <ele>203</ele>
        <time>2015-08-30T14:40:48Z</time>
      </trkpt>
      <trkpt lat="43.99964" lon="3.66374">
        <ele>203.9</ele>
        <time>2015-08-30T14:40:50Z</time>
      </trkpt>
      <trkpt lat="43.99859" lon="3.67281">
        <ele>197.2</ele>
        <time>2015-08-30T14:41:28Z</time>
      </trkpt>
      <trkpt lat="43.99843" lon="3.6733">
        <ele>195.8</ele>
        <time>2015-08-30T14:41:30Z</time>
      </trkpt>
      <trkpt lat="43.9971" lon="3.67665">
        <ele>196.7</ele>
        <time>2015-08-30T14:41:45Z</time>
      </trkpt>
      <trkpt lat="43.99701" lon="3.67679">
        <ele>196.7</ele>
        <time>2015-08-30T14:41:46Z</time>
      </trkpt>
      <trkpt lat="43.99692" lon="3.67691">
        <ele>197.2</ele>
        <time>2015-08-30T14:41:47Z</time>
      </trkpt>
      <trkpt lat="43.99582" lon="3.67789">
        <ele>196.7</ele>
        <time>2015-08-30T14:41:56Z</time>
      </trkpt>
      <trkpt lat="43.99573" lon="3.67786">
        <ele>196.7</ele>
        <time>2015-08-30T14:41:57Z</time>
      </trkpt>
      <trkpt lat="43.99563" lon="3.67775">
        <ele>196.7</ele>
        <time>2015-08-30T14:41:58Z</time>
      </trkpt>
      <trkpt lat="43.99541" lon="3.67744">
        <ele>196.7</ele>
        <time>2015-08-30T14:42:00Z</time>
      </trkpt>
      <trkpt lat="43.99532" lon="3.67726">
        <ele>196.7</ele>
        <time>2015-08-30T14:42:01Z</time>
      </trkpt>
      <trkpt lat="43.99521" lon="3.6771">
        <ele>196.3</ele>
        <time>2015-08-30T14:42:02Z</time>
      </trkpt>
      <trkpt lat="43.99509" lon="3.67698">
        <ele>196.7</ele>
        <time>2015-08-30T14:42:03Z</time>
      </trkpt>
      <trkpt lat="43.99496" lon="3.67688">
        <ele>196.3</ele>
        <time>2015-08-30T14:42:04Z</time>
      </trkpt>
      <trkpt lat="43.99481" lon="3.67683">
        <ele>196.3</ele>
        <time>2015-08-30T14:42:05Z</time>
      </trkpt>
      <trkpt lat="43.99466" lon="3.67682">
        <ele>196.3</ele>
        <time>2015-08-30T14:42:06Z</time>
      </trkpt>
      <trkpt lat="43.99434" lon="3.67686">
        <ele>195.8</ele>
        <time>2015-08-30T14:42:08Z</time>
      </trkpt>
      <trkpt lat="43.99417" lon="3.6769">
        <ele>195.3</ele>
        <time>2015-08-30T14:42:09Z</time>
      </trkpt>
      <trkpt lat="43.99385" lon="3.67702">
        <ele>194.3</ele>
        <time>2015-08-30T14:42:11Z</time>
      </trkpt>
      <trkpt lat="43.99369" lon="3.67711">
        <ele>194.3</ele>
        <time>2015-08-30T14:42:12Z</time>
      </trkpt>
      <trkpt lat="43.99354" lon="3.67724">
        <ele>194.3</ele>
        <time>2015-08-30T14:42:13Z</time>
      </trkpt>
      <trkpt lat="43.99325" lon="3.67756">
        <ele>192.4</ele>
        <time>2015-08-30T14:42:15Z</time>
      </trkpt>
      <trkpt lat="43.99235" lon="3.67874">
        <ele>190</ele>
        <time>2015-08-30T14:42:22Z</time>
      </trkpt>
      <trkpt lat="43.99225" lon="3.67897">
        <ele>190</ele>
        <time>2015-08-30T14:42:23Z</time>
      </trkpt>
      <trkpt lat="43.99211" lon="3.67951">
        <ele>191</ele>
        <time>2015-08-30T14:42:25Z</time>
      </trkpt>
      <trkpt lat="43.99202" lon="3.68011">
        <ele>191.4</ele>
        <time>2015-08-30T14:42:27Z</time>
      </trkpt>
      <trkpt lat="43.99194" lon="3.68228">
        <ele>185.2</ele>
        <time>2015-08-30T14:42:34Z</time>
      </trkpt>
      <trkpt lat="43.99209" lon="3.68257">
        <ele>185.2</ele>
        <time>2015-08-30T14:42:35Z</time>
      </trkpt>
      <trkpt lat="43.9935" lon="3.68616">
        <ele>184.7</ele>
        <time>2015-08-30T14:42:47Z</time>
      </trkpt>
      <trkpt lat="43.99356" lon="3.68643">
        <ele>184.7</ele>
        <time>2015-08-30T14:42:48Z</time>
      </trkpt>
      <trkpt lat="43.99358" lon="3.68672">
        <ele>184.7</ele>
        <time>2015-08-30T14:42:49Z</time>
      </trkpt>
      <trkpt lat="43.99356" lon="3.68701">
        <ele>184.7</ele>
        <time>2015-08-30T14:42:50Z</time>
      </trkpt>
      <trkpt lat="43.99349" lon="3.6873">
        <ele>184.7</ele>
        <time>2015-08-30T14:42:51Z</time>
      </trkpt>
      <trkpt lat="43.99335" lon="3.68756">
        <ele>184.7</ele>
        <time>2015-08-30T14:42:52Z</time>
      </trkpt>
      <trkpt lat="43.99319" lon="3.6878">
        <ele>184.2</ele>
        <time>2015-08-30T14:42:53Z</time>
      </trkpt>
      <trkpt lat="43.99301" lon="3.68801">
        <ele>183.8</ele>
        <time>2015-08-30T14:42:54Z</time>
      </trkpt>
      <trkpt lat="43.99261" lon="3.68836">
        <ele>184.2</ele>
        <time>2015-08-30T14:42:56Z</time>
      </trkpt>
      <trkpt lat="43.99218" lon="3.68864">
        <ele>183.8</ele>
        <time>2015-08-30T14:42:58Z</time>
      </trkpt>
      <trkpt lat="43.99196" lon="3.68875">
        <ele>183.8</ele>
        <time>2015-08-30T14:42:59Z</time>
      </trkpt>
      <trkpt lat="43.99174" lon="3.68883">
        <ele>183.3</ele>
        <time>2015-08-30T14:43:00Z</time>
      </trkpt>
      <trkpt lat="43.99152" lon="3.68882">
        <ele>182.8</ele>
        <time>2015-08-30T14:43:01Z</time>
      </trkpt>
      <trkpt lat="43.99104" lon="3.68869">
        <ele>183.3</ele>
        <time>2015-08-30T14:43:03Z</time>
      </trkpt>
      <trkpt lat="43.99053" lon="3.6885">
        <ele>183.3</ele>
        <time>2015-08-30T14:43:05Z</time>
      </trkpt>
      <trkpt lat="43.98893" lon="3.68821">
        <ele>183.3</ele>
        <time>2015-08-30T14:43:12Z</time>
      </trkpt>
      <trkpt lat="43.98818" lon="3.68797">
        <ele>183.3</ele>
        <time>2015-08-30T14:43:16Z</time>
      </trkpt>
      <trkpt lat="43.984" lon="3.6848">
        <ele>186.2</ele>
        <time>2015-08-30T14:43:41Z</time>
      </trkpt>
      <trkpt lat="43.98382" lon="3.68476">
        <ele>186.2</ele>
        <time>2015-08-30T14:43:42Z</time>
      </trkpt>
      <trkpt lat="43.98364" lon="3.68475">
        <ele>186.2</ele>
        <time>2015-08-30T14:43:43Z</time>
      </trkpt>
      <trkpt lat="43.98346" lon="3.68476">
        <ele>186.2</ele>
        <time>2015-08-30T14:43:44Z</time>
      </trkpt>
      <trkpt lat="43.98328" lon="3.68479">
        <ele>186.6</ele>
        <time>2015-08-30T14:43:45Z</time>
      </trkpt>
      <trkpt lat="43.9831" lon="3.68486">
        <ele>187.1</ele>
        <time>2015-08-30T14:43:46Z</time>
      </trkpt>
      <trkpt lat="43.98292" lon="3.68496">
        <ele>187.6</ele>
        <time>2015-08-30T14:43:47Z</time>
      </trkpt>
      <trkpt lat="43.98276" lon="3.68509">
        <ele>187.6</ele>
        <time>2015-08-30T14:43:48Z</time>
      </trkpt>
      <trkpt lat="43.98261" lon="3.68523">
        <ele>188.1</ele>
        <time>2015-08-30T14:43:49Z</time>
      </trkpt>
      <trkpt lat="43.98247" lon="3.68541">
        <ele>187.6</ele>
        <time>2015-08-30T14:43:50Z</time>
      </trkpt>
      <trkpt lat="43.98234" lon="3.68561">
        <ele>187.1</ele>
        <time>2015-08-30T14:43:51Z</time>
      </trkpt>
      <trkpt lat="43.98222" lon="3.68582">
        <ele>186.6</ele>
        <time>2015-08-30T14:43:52Z</time>
      </trkpt>
      <trkpt lat="43.98213" lon="3.68606">
        <ele>186.6</ele>
        <time>2015-08-30T14:43:53Z</time>
      </trkpt>
      <trkpt lat="43.98205" lon="3.6863">
        <ele>185.7</ele>
        <time>2015-08-30T14:43:54Z</time>
      </trkpt>
      <trkpt lat="43.982" lon="3.68657">
        <ele>184.2</ele>
        <time>2015-08-30T14:43:55Z</time>
      </trkpt>
      <trkpt lat="43.98196" lon="3.68712">
        <ele>181.8</ele>
        <time>2015-08-30T14:43:57Z</time>
      </trkpt>
      <trkpt lat="43.98202" lon="3.68769">
        <ele>181.4</ele>
        <time>2015-08-30T14:43:59Z</time>
      </trkpt>
      <trkpt lat="43.98252" lon="3.69063">
        <ele>181.4</ele>
        <time>2015-08-30T14:44:10Z</time>
      </trkpt>
      <trkpt lat="43.98252" lon="3.69111">
        <ele>181.8</ele>
        <time>2015-08-30T14:44:12Z</time>
      </trkpt>
      <trkpt lat="43.98249" lon="3.69134">
        <ele>181.8</ele>
        <time>2015-08-30T14:44:13Z</time>
      </trkpt>
      <trkpt lat="43.98242" lon="3.69156">
        <ele>181.8</ele>
        <time>2015-08-30T14:44:14Z</time>
      </trkpt>
      <trkpt lat="43.98233" lon="3.69177">
        <ele>181.8</ele>
        <time>2015-08-30T14:44:15Z</time>
      </trkpt>
      <trkpt lat="43.98221" lon="3.69195">
        <ele>181.8</ele>
        <time>2015-08-30T14:44:16Z</time>
      </trkpt>
      <trkpt lat="43.98207" lon="3.6921">
        <ele>181.8</ele>
        <time>2015-08-30T14:44:17Z</time>
      </trkpt>
      <trkpt lat="43.98191" lon="3.69223">
        <ele>181.4</ele>
        <time>2015-08-30T14:44:18Z</time>
      </trkpt>
      <trkpt lat="43.98174" lon="3.69231">
        <ele>180.4</ele>
        <time>2015-08-30T14:44:19Z</time>
      </trkpt>
      <trkpt lat="43.98156" lon="3.69235">
        <ele>179.4</ele>
        <time>2015-08-30T14:44:20Z</time>
      </trkpt>
      <trkpt lat="43.98137" lon="3.69233">
        <ele>178.9</ele>
        <time>2015-08-30T14:44:21Z</time>
      </trkpt>
      <trkpt lat="43.981" lon="3.69221">
        <ele>180.9</ele>
        <time>2015-08-30T14:44:23Z</time>
      </trkpt>
      <trkpt lat="43.97984" lon="3.69146">
        <ele>185.2</ele>
        <time>2015-08-30T14:44:30Z</time>
      </trkpt>
      <trkpt lat="43.97868" lon="3.68999">
        <ele>185.7</ele>
        <time>2015-08-30T14:44:39Z</time>
      </trkpt>
      <trkpt lat="43.97737" lon="3.68675">
        <ele>182.8</ele>
        <time>2015-08-30T14:44:54Z</time>
      </trkpt>
      <trkpt lat="43.97726" lon="3.68658">
        <ele>182.8</ele>
        <time>2015-08-30T14:44:55Z</time>
      </trkpt>
      <trkpt lat="43.97713" lon="3.68643">
        <ele>183.3</ele>
        <time>2015-08-30T14:44:56Z</time>
      </trkpt>
      <trkpt lat="43.97698" lon="3.68631">
        <ele>183.8</ele>
        <time>2015-08-30T14:44:57Z</time>
      </trkpt>
      <trkpt lat="43.97682" lon="3.68622">
        <ele>184.2</ele>
        <time>2015-08-30T14:44:58Z</time>
      </trkpt>
      <trkpt lat="43.97666" lon="3.68617">
        <ele>184.2</ele>
        <time>2015-08-30T14:44:59Z</time>
      </trkpt>
      <trkpt lat="43.97648" lon="3.68614">
        <ele>183.8</ele>
        <time>2015-08-30T14:45:00Z</time>
      </trkpt>
      <trkpt lat="43.9763" lon="3.68615">
        <ele>183.3</ele>
        <time>2015-08-30T14:45:01Z</time>
      </trkpt>
      <trkpt lat="43.97612" lon="3.68618">
        <ele>183.3</ele>
        <time>2015-08-30T14:45:02Z</time>
      </trkpt>
      <trkpt lat="43.97366" lon="3.68715">
        <ele>178.9</ele>
        <time>2015-08-30T14:45:14Z</time>
      </trkpt>
      <trkpt lat="43.9735" lon="3.6873">
        <ele>178.9</ele>
        <time>2015-08-30T14:45:15Z</time>
      </trkpt>
      <trkpt lat="43.97169" lon="3.68973">
        <ele>178</ele>
        <time>2015-08-30T14:45:28Z</time>
      </trkpt>
      <trkpt lat="43.96989" lon="3.69251">
        <ele>175.1</ele>
        <time>2015-08-30T14:45:40Z</time>
      </trkpt>
      <trkpt lat="43.96967" lon="3.69267">
        <ele>174.1</ele>
        <time>2015-08-30T14:45:41Z</time>
      </trkpt>
      <trkpt lat="43.96944" lon="3.69276">
        <ele>173.7</ele>
        <time>2015-08-30T14:45:42Z</time>
      </trkpt>
      <trkpt lat="43.96919" lon="3.69279">
        <ele>173.2</ele>
        <time>2015-08-30T14:45:43Z</time>
      </trkpt>
      <trkpt lat="43.96869" lon="3.6927">
        <ele>171.7</ele>
        <time>2015-08-30T14:45:45Z</time>
      </trkpt>
      <trkpt lat="43.96843" lon="3.69262">
        <ele>172.2</ele>
        <time>2015-08-30T14:45:46Z</time>
      </trkpt>
      <trkpt lat="43.96696" lon="3.69171">
        <ele>172.7</ele>
        <time>2015-08-30T14:45:52Z</time>
      </trkpt>
      <trkpt lat="43.96674" lon="3.69148">
        <ele>173.2</ele>
        <time>2015-08-30T14:45:53Z</time>
      </trkpt>
      <trkpt lat="43.96636" lon="3.69094">
        <ele>171.3</ele>
        <time>2015-08-30T14:45:55Z</time>
      </trkpt>
      <trkpt lat="43.96621" lon="3.69066">
        <ele>171.3</ele>
        <time>2015-08-30T14:45:56Z</time>
      </trkpt>
      <trkpt lat="43.96608" lon="3.69036">
        <ele>170.3</ele>
        <time>2015-08-30T14:45:57Z</time>
      </trkpt>
      <trkpt lat="43.966" lon="3.69005">
        <ele>169.8</ele>
        <time>2015-08-30T14:45:58Z</time>
      </trkpt>
      <trkpt lat="43.96577" lon="3.68839">
        <ele>168.9</ele>
        <time>2015-08-30T14:46:04Z</time>
      </trkpt>
      <trkpt lat="43.96572" lon="3.68819">
        <ele>169.3</ele>
        <time>2015-08-30T14:46:05Z</time>
      </trkpt>
      <trkpt lat="43.96563" lon="3.68803">
        <ele>169.3</ele>
        <time>2015-08-30T14:46:06Z</time>
      </trkpt>
      <trkpt lat="43.96551" lon="3.6879">
        <ele>168.9</ele>
        <time>2015-08-30T14:46:07Z</time>
      </trkpt>
      <trkpt lat="43.96539" lon="3.68785">
        <ele>167.9</ele>
        <time>2015-08-30T14:46:08Z</time>
      </trkpt>
      <trkpt lat="43.96524" lon="3.68784">
        <ele>168.4</ele>
        <time>2015-08-30T14:46:09Z</time>
      </trkpt>
      <trkpt lat="43.96427" lon="3.68795">
        <ele>170.3</ele>
        <time>2015-08-30T14:46:17Z</time>
      </trkpt>
      <trkpt lat="43.96261" lon="3.68869">
        <ele>171.7</ele>
        <time>2015-08-30T14:46:28Z</time>
      </trkpt>
      <trkpt lat="43.96108" lon="3.68888">
        <ele>173.7</ele>
        <time>2015-08-30T14:46:37Z</time>
      </trkpt>
      <trkpt lat="43.96093" lon="3.68883">
        <ele>174.1</ele>
        <time>2015-08-30T14:46:38Z</time>
      </trkpt>
      <trkpt lat="43.96079" lon="3.68877">
        <ele>174.6</ele>
        <time>2015-08-30T14:46:39Z</time>
      </trkpt>
      <trkpt lat="43.96063" lon="3.68868">
        <ele>174.6</ele>
        <time>2015-08-30T14:46:40Z</time>
      </trkpt>
      <trkpt lat="43.95865" lon="3.68678">
        <ele>176.5</ele>
        <time>2015-08-30T14:46:52Z</time>
      </trkpt>
      <trkpt lat="43.95849" lon="3.6867">
        <ele>176.5</ele>
        <time>2015-08-30T14:46:53Z</time>
      </trkpt>
      <trkpt lat="43.95832" lon="3.68665">
        <ele>176.5</ele>
        <time>2015-08-30T14:46:54Z</time>
      </trkpt>
      <trkpt lat="43.95814" lon="3.68664">
        <ele>176.5</ele>
        <time>2015-08-30T14:46:55Z</time>
      </trkpt>
      <trkpt lat="43.95636" lon="3.68695">
        <ele>178.5</ele>
        <time>2015-08-30T14:47:04Z</time>
      </trkpt>
      <trkpt lat="43.95473" lon="3.68699">
        <ele>176.1</ele>
        <time>2015-08-30T14:47:11Z</time>
      </trkpt>
      <trkpt lat="43.95239" lon="3.6856">
        <ele>166</ele>
        <time>2015-08-30T14:47:24Z</time>
      </trkpt>
      <trkpt lat="43.94992" lon="3.68489">
        <ele>161.2</ele>
        <time>2015-08-30T14:47:35Z</time>
      </trkpt>
      <trkpt lat="43.94836" lon="3.68409">
        <ele>163.1</ele>
        <time>2015-08-30T14:47:42Z</time>
      </trkpt>
      <trkpt lat="43.94743" lon="3.68372">
        <ele>163.6</ele>
        <time>2015-08-30T14:47:48Z</time>
      </trkpt>
      <trkpt lat="43.9473" lon="3.68369">
        <ele>164</ele>
        <time>2015-08-30T14:47:49Z</time>
      </trkpt>
      <trkpt lat="43.94718" lon="3.68369">
        <ele>164.5</ele>
        <time>2015-08-30T14:47:50Z</time>
      </trkpt>
      <trkpt lat="43.94706" lon="3.68372">
        <ele>165</ele>
        <time>2015-08-30T14:47:51Z</time>
      </trkpt>
      <trkpt lat="43.94694" lon="3.68377">
        <ele>165.5</ele>
        <time>2015-08-30T14:47:52Z</time>
      </trkpt>
      <trkpt lat="43.94684" lon="3.68385">
        <ele>166</ele>
        <time>2015-08-30T14:47:53Z</time>
      </trkpt>
      <trkpt lat="43.94675" lon="3.68395">
        <ele>166</ele>
        <time>2015-08-30T14:47:54Z</time>
      </trkpt>
      <trkpt lat="43.94666" lon="3.68408">
        <ele>166</ele>
        <time>2015-08-30T14:47:55Z</time>
      </trkpt>
      <trkpt lat="43.9465" lon="3.68436">
        <ele>166.5</ele>
        <time>2015-08-30T14:47:57Z</time>
      </trkpt>
      <trkpt lat="43.94594" lon="3.68605">
        <ele>170.8</ele>
        <time>2015-08-30T14:48:07Z</time>
      </trkpt>
      <trkpt lat="43.9457" lon="3.68823">
        <ele>180.4</ele>
        <time>2015-08-30T14:48:18Z</time>
      </trkpt>
      <trkpt lat="43.94556" lon="3.68859">
        <ele>181.8</ele>
        <time>2015-08-30T14:48:20Z</time>
      </trkpt>
      <trkpt lat="43.94539" lon="3.68892">
        <ele>182.8</ele>
        <time>2015-08-30T14:48:22Z</time>
      </trkpt>
      <trkpt lat="43.94528" lon="3.68906">
        <ele>183.3</ele>
        <time>2015-08-30T14:48:23Z</time>
      </trkpt>
      <trkpt lat="43.94516" lon="3.68918">
        <ele>183.8</ele>
        <time>2015-08-30T14:48:24Z</time>
      </trkpt>
      <trkpt lat="43.94504" lon="3.68926">
        <ele>183.8</ele>
        <time>2015-08-30T14:48:25Z</time>
      </trkpt>
      <trkpt lat="43.9449" lon="3.68933">
        <ele>183.3</ele>
        <time>2015-08-30T14:48:26Z</time>
      </trkpt>
      <trkpt lat="43.94476" lon="3.68937">
        <ele>182.8</ele>
        <time>2015-08-30T14:48:27Z</time>
      </trkpt>
      <trkpt lat="43.94461" lon="3.6894">
        <ele>182.3</ele>
        <time>2015-08-30T14:48:28Z</time>
      </trkpt>
      <trkpt lat="43.94428" lon="3.68942">
        <ele>181.4</ele>
        <time>2015-08-30T14:48:30Z</time>
      </trkpt>
      <trkpt lat="43.94291" lon="3.68936">
        <ele>177</ele>
        <time>2015-08-30T14:48:37Z</time>
      </trkpt>
      <trkpt lat="43.94272" lon="3.68939">
        <ele>176.5</ele>
        <time>2015-08-30T14:48:38Z</time>
      </trkpt>
      <trkpt lat="43.94253" lon="3.68945">
        <ele>175.6</ele>
        <time>2015-08-30T14:48:39Z</time>
      </trkpt>
      <trkpt lat="43.94071" lon="3.69034">
        <ele>167.9</ele>
        <time>2015-08-30T14:48:48Z</time>
      </trkpt>
      <trkpt lat="43.94049" lon="3.69042">
        <ele>166.9</ele>
        <time>2015-08-30T14:48:49Z</time>
      </trkpt>
      <trkpt lat="43.94028" lon="3.69047">
        <ele>166</ele>
        <time>2015-08-30T14:48:50Z</time>
      </trkpt>
      <trkpt lat="43.93901" lon="3.6905">
        <ele>161.6</ele>
        <time>2015-08-30T14:48:57Z</time>
      </trkpt>
      <trkpt lat="43.93887" lon="3.69056">
        <ele>161.2</ele>
        <time>2015-08-30T14:48:58Z</time>
      </trkpt>
      <trkpt lat="43.93873" lon="3.69064">
        <ele>160.7</ele>
        <time>2015-08-30T14:48:59Z</time>
      </trkpt>
      <trkpt lat="43.93861" lon="3.69074">
        <ele>159.7</ele>
        <time>2015-08-30T14:49:00Z</time>
      </trkpt>
      <trkpt lat="43.93851" lon="3.69087">
        <ele>158.8</ele>
        <time>2015-08-30T14:49:01Z</time>
      </trkpt>
      <trkpt lat="43.93843" lon="3.691">
        <ele>158.3</ele>
        <time>2015-08-30T14:49:02Z</time>
      </trkpt>
      <trkpt lat="43.93837" lon="3.69115">
        <ele>157.8</ele>
        <time>2015-08-30T14:49:03Z</time>
      </trkpt>
      <trkpt lat="43.93832" lon="3.6913">
        <ele>157.3</ele>
        <time>2015-08-30T14:49:04Z</time>
      </trkpt>
      <trkpt lat="43.93829" lon="3.69147">
        <ele>156.4</ele>
        <time>2015-08-30T14:49:05Z</time>
      </trkpt>
      <trkpt lat="43.93827" lon="3.69166">
        <ele>155.9</ele>
        <time>2015-08-30T14:49:06Z</time>
      </trkpt>
      <trkpt lat="43.93824" lon="3.693">
        <ele>153.5</ele>
        <time>2015-08-30T14:49:11Z</time>
      </trkpt>
      <trkpt lat="43.9381" lon="3.69357">
        <ele>153</ele>
        <time>2015-08-30T14:49:13Z</time>
      </trkpt>
      <trkpt lat="43.93792" lon="3.69406">
        <ele>152.5</ele>
        <time>2015-08-30T14:49:15Z</time>
      </trkpt>
      <trkpt lat="43.93745" lon="3.69507">
        <ele>154</ele>
        <time>2015-08-30T14:49:21Z</time>
      </trkpt>
      <trkpt lat="43.93437" lon="3.69987">
        <ele>161.6</ele>
        <time>2015-08-30T14:49:51Z</time>
      </trkpt>
      <trkpt lat="43.93285" lon="3.70329">
        <ele>158.8</ele>
        <time>2015-08-30T14:50:13Z</time>
      </trkpt>
      <trkpt lat="43.93275" lon="3.70342">
        <ele>158.3</ele>
        <time>2015-08-30T14:50:14Z</time>
      </trkpt>
      <trkpt lat="43.93263" lon="3.70353">
        <ele>158.3</ele>
        <time>2015-08-30T14:50:15Z</time>
      </trkpt>
      <trkpt lat="43.93156" lon="3.70433">
        <ele>156.4</ele>
        <time>2015-08-30T14:50:25Z</time>
      </trkpt>
      <trkpt lat="43.93067" lon="3.70524">
        <ele>155.4</ele>
        <time>2015-08-30T14:50:36Z</time>
      </trkpt>
      <trkpt lat="43.9306" lon="3.70527">
        <ele>154.9</ele>
        <time>2015-08-30T14:50:37Z</time>
      </trkpt>
      <trkpt lat="43.93045" lon="3.70527">
        <ele>154.4</ele>
        <time>2015-08-30T14:50:39Z</time>
      </trkpt>
      <trkpt lat="43.93039" lon="3.70528">
        <ele>154.4</ele>
        <time>2015-08-30T14:50:40Z</time>
      </trkpt>
      <trkpt lat="43.93032" lon="3.70533">
        <ele>154</ele>
        <time>2015-08-30T14:50:41Z</time>
      </trkpt>
      <trkpt lat="43.93027" lon="3.70541">
        <ele>154</ele>
        <time>2015-08-30T14:50:42Z</time>
      </trkpt>
      <trkpt lat="43.93024" lon="3.70551">
        <ele>153.5</ele>
        <time>2015-08-30T14:50:43Z</time>
      </trkpt>
      <trkpt lat="43.93028" lon="3.70573">
        <ele>153</ele>
        <time>2015-08-30T14:50:45Z</time>
      </trkpt>
      <trkpt lat="43.93038" lon="3.70593">
        <ele>153</ele>
        <time>2015-08-30T14:50:47Z</time>
      </trkpt>
      <trkpt lat="43.9304" lon="3.70604">
        <ele>153</ele>
        <time>2015-08-30T14:50:48Z</time>
      </trkpt>
      <trkpt lat="43.93041" lon="3.70614">
        <ele>153</ele>
        <time>2015-08-30T14:50:49Z</time>
      </trkpt>
      <trkpt lat="43.93037" lon="3.70669">
        <ele>152.5</ele>
        <time>2015-08-30T14:50:53Z</time>
      </trkpt>
      <trkpt lat="43.93039" lon="3.70702">
        <ele>152.5</ele>
        <time>2015-08-30T14:50:55Z</time>
      </trkpt>
      <trkpt lat="43.93044" lon="3.70737">
        <ele>152.5</ele>
        <time>2015-08-30T14:50:57Z</time>
      </trkpt>
      <trkpt lat="43.93054" lon="3.70772">
        <ele>151.5</ele>
        <time>2015-08-30T14:50:59Z</time>
      </trkpt>
      <trkpt lat="43.93069" lon="3.70805">
        <ele>151.1</ele>
        <time>2015-08-30T14:51:01Z</time>
      </trkpt>
      <trkpt lat="43.93217" lon="3.71064">
        <ele>152</ele>
        <time>2015-08-30T14:51:19Z</time>
      </trkpt>
      <trkpt lat="43.93219" lon="3.71076">
        <ele>152</ele>
        <time>2015-08-30T14:51:20Z</time>
      </trkpt>
      <trkpt lat="43.93218" lon="3.71099">
        <ele>152.5</ele>
        <time>2015-08-30T14:51:22Z</time>
      </trkpt>
      <trkpt lat="43.93215" lon="3.7111">
        <ele>152.5</ele>
        <time>2015-08-30T14:51:23Z</time>
      </trkpt>
      <trkpt lat="43.93212" lon="3.7112">
        <ele>152.5</ele>
        <time>2015-08-30T14:51:24Z</time>
      </trkpt>
      <trkpt lat="43.93206" lon="3.71129">
        <ele>152.5</ele>
        <time>2015-08-30T14:51:25Z</time>
      </trkpt>
      <trkpt lat="43.93199" lon="3.71135">
        <ele>152.5</ele>
        <time>2015-08-30T14:51:26Z</time>
      </trkpt>
      <trkpt lat="43.9265" lon="3.71562">
        <ele>154</ele>
        <time>2015-08-30T14:52:24Z</time>
      </trkpt>
      <trkpt lat="43.92578" lon="3.71702">
        <ele>152</ele>
        <time>2015-08-30T14:52:33Z</time>
      </trkpt>
      <trkpt lat="43.92515" lon="3.71907">
        <ele>147.2</ele>
        <time>2015-08-30T14:52:44Z</time>
      </trkpt>
      <trkpt lat="43.92439" lon="3.72093">
        <ele>145.3</ele>
        <time>2015-08-30T14:52:54Z</time>
      </trkpt>
      <trkpt lat="43.92361" lon="3.72231">
        <ele>146.3</ele>
        <time>2015-08-30T14:53:02Z</time>
      </trkpt>
      <trkpt lat="43.92351" lon="3.72244">
        <ele>146.7</ele>
        <time>2015-08-30T14:53:03Z</time>
      </trkpt>
      <trkpt lat="43.92329" lon="3.72265">
        <ele>145.8</ele>
        <time>2015-08-30T14:53:05Z</time>
      </trkpt>
      <trkpt lat="43.92318" lon="3.72274">
        <ele>145.3</ele>
        <time>2015-08-30T14:53:06Z</time>
      </trkpt>
      <trkpt lat="43.92307" lon="3.7228">
        <ele>144.8</ele>
        <time>2015-08-30T14:53:07Z</time>
      </trkpt>
      <trkpt lat="43.92295" lon="3.72284">
        <ele>144.3</ele>
        <time>2015-08-30T14:53:08Z</time>
      </trkpt>
      <trkpt lat="43.92249" lon="3.72293">
        <ele>143.9</ele>
        <time>2015-08-30T14:53:13Z</time>
      </trkpt>
      <trkpt lat="43.92242" lon="3.72297">
        <ele>143.9</ele>
        <time>2015-08-30T14:53:14Z</time>
      </trkpt>
      <trkpt lat="43.92236" lon="3.72303">
        <ele>143.9</ele>
        <time>2015-08-30T14:53:15Z</time>
      </trkpt>
      <trkpt lat="43.92227" lon="3.72316">
        <ele>143.9</ele>
        <time>2015-08-30T14:53:17Z</time>
      </trkpt>
      <trkpt lat="43.92212" lon="3.72341">
        <ele>144.8</ele>
        <time>2015-08-30T14:53:21Z</time>
      </trkpt>
      <trkpt lat="43.92209" lon="3.72348">
        <ele>144.8</ele>
        <time>2015-08-30T14:53:22Z</time>
      </trkpt>
      <trkpt lat="43.92203" lon="3.7238">
        <ele>143.9</ele>
        <time>2015-08-30T14:53:26Z</time>
      </trkpt>
      <trkpt lat="43.92192" lon="3.72472">
        <ele>141.9</ele>
        <time>2015-08-30T14:53:38Z</time>
      </trkpt>
      <trkpt lat="43.92188" lon="3.72488">
        <ele>141.9</ele>
        <time>2015-08-30T14:53:40Z</time>
      </trkpt>
      <trkpt lat="43.92185" lon="3.72496">
        <ele>141.9</ele>
        <time>2015-08-30T14:53:41Z</time>
      </trkpt>
      <trkpt lat="43.92162" lon="3.72533">
        <ele>142.4</ele>
        <time>2015-08-30T14:53:46Z</time>
      </trkpt>
      <trkpt lat="43.92154" lon="3.72542">
        <ele>142.4</ele>
        <time>2015-08-30T14:53:47Z</time>
      </trkpt>
      <trkpt lat="43.92127" lon="3.72565">
        <ele>142.4</ele>
        <time>2015-08-30T14:53:50Z</time>
      </trkpt>
      <trkpt lat="43.92116" lon="3.72569">
        <ele>143.4</ele>
        <time>2015-08-30T14:53:51Z</time>
      </trkpt>
      <trkpt lat="43.92105" lon="3.7257">
        <ele>143.4</ele>
        <time>2015-08-30T14:53:52Z</time>
      </trkpt>
      <trkpt lat="43.92093" lon="3.72568">
        <ele>144.3</ele>
        <time>2015-08-30T14:53:53Z</time>
      </trkpt>
      <trkpt lat="43.92062" lon="3.72556">
        <ele>144.8</ele>
        <time>2015-08-30T14:53:56Z</time>
      </trkpt>
      <trkpt lat="43.92052" lon="3.72556">
        <ele>144.8</ele>
        <time>2015-08-30T14:53:57Z</time>
      </trkpt>
      <trkpt lat="43.92041" lon="3.7256">
        <ele>145.3</ele>
        <time>2015-08-30T14:53:58Z</time>
      </trkpt>
      <trkpt lat="43.91911" lon="3.72643">
        <ele>145.3</ele>
        <time>2015-08-30T14:54:08Z</time>
      </trkpt>
      <trkpt lat="43.91835" lon="3.72753">
        <ele>147.2</ele>
        <time>2015-08-30T14:54:17Z</time>
      </trkpt>
      <trkpt lat="43.91824" lon="3.72765">
        <ele>147.2</ele>
        <time>2015-08-30T14:54:18Z</time>
      </trkpt>
      <trkpt lat="43.91812" lon="3.72776">
        <ele>147.2</ele>
        <time>2015-08-30T14:54:19Z</time>
      </trkpt>
      <trkpt lat="43.918" lon="3.72785">
        <ele>146.7</ele>
        <time>2015-08-30T14:54:20Z</time>
      </trkpt>
      <trkpt lat="43.91787" lon="3.72793">
        <ele>146.3</ele>
        <time>2015-08-30T14:54:21Z</time>
      </trkpt>
      <trkpt lat="43.91773" lon="3.72797">
        <ele>146.3</ele>
        <time>2015-08-30T14:54:22Z</time>
      </trkpt>
      <trkpt lat="43.91758" lon="3.72798">
        <ele>145.8</ele>
        <time>2015-08-30T14:54:23Z</time>
      </trkpt>
      <trkpt lat="43.91744" lon="3.72797">
        <ele>146.3</ele>
        <time>2015-08-30T14:54:24Z</time>
      </trkpt>
      <trkpt lat="43.91609" lon="3.72768">
        <ele>148.2</ele>
        <time>2015-08-30T14:54:34Z</time>
      </trkpt>
      <trkpt lat="43.91597" lon="3.72771">
        <ele>147.7</ele>
        <time>2015-08-30T14:54:35Z</time>
      </trkpt>
      <trkpt lat="43.91587" lon="3.72777">
        <ele>148.2</ele>
        <time>2015-08-30T14:54:36Z</time>
      </trkpt>
      <trkpt lat="43.91578" lon="3.72786">
        <ele>147.7</ele>
        <time>2015-08-30T14:54:37Z</time>
      </trkpt>
      <trkpt lat="43.91571" lon="3.72798">
        <ele>146.7</ele>
        <time>2015-08-30T14:54:38Z</time>
      </trkpt>
      <trkpt lat="43.91566" lon="3.72812">
        <ele>144.8</ele>
        <time>2015-08-30T14:54:39Z</time>
      </trkpt>
      <trkpt lat="43.91565" lon="3.72827">
        <ele>143.9</ele>
        <time>2015-08-30T14:54:40Z</time>
      </trkpt>
      <trkpt lat="43.91568" lon="3.72843">
        <ele>143.4</ele>
        <time>2015-08-30T14:54:41Z</time>
      </trkpt>
      <trkpt lat="43.91573" lon="3.72859">
        <ele>142.4</ele>
        <time>2015-08-30T14:54:42Z</time>
      </trkpt>
      <trkpt lat="43.91594" lon="3.72901">
        <ele>141.5</ele>
        <time>2015-08-30T14:54:44Z</time>
      </trkpt>
      <trkpt lat="43.91662" lon="3.73073">
        <ele>141.9</ele>
        <time>2015-08-30T14:54:50Z</time>
      </trkpt>
      <trkpt lat="43.91689" lon="3.7325">
        <ele>141</ele>
        <time>2015-08-30T14:54:55Z</time>
      </trkpt>
      <trkpt lat="43.91667" lon="3.73409">
        <ele>141.5</ele>
        <time>2015-08-30T14:55:00Z</time>
      </trkpt>
      <trkpt lat="43.91658" lon="3.73438">
        <ele>141.5</ele>
        <time>2015-08-30T14:55:01Z</time>
      </trkpt>
      <trkpt lat="43.91549" lon="3.73676">
        <ele>143.4</ele>
        <time>2015-08-30T14:55:10Z</time>
      </trkpt>
      <trkpt lat="43.91491" lon="3.73755">
        <ele>144.3</ele>
        <time>2015-08-30T14:55:14Z</time>
      </trkpt>
      <trkpt lat="43.91388" lon="3.73812">
        <ele>140</ele>
        <time>2015-08-30T14:55:19Z</time>
      </trkpt>
      <trkpt lat="43.91367" lon="3.73814">
        <ele>139.5</ele>
        <time>2015-08-30T14:55:20Z</time>
      </trkpt>
      <trkpt lat="43.91347" lon="3.73814">
        <ele>139.1</ele>
        <time>2015-08-30T14:55:21Z</time>
      </trkpt>
      <trkpt lat="43.91326" lon="3.73802">
        <ele>140</ele>
        <time>2015-08-30T14:55:22Z</time>
      </trkpt>
      <trkpt lat="43.91306" lon="3.73789">
        <ele>141</ele>
        <time>2015-08-30T14:55:23Z</time>
      </trkpt>
      <trkpt lat="43.91179" lon="3.73675">
        <ele>142.4</ele>
        <time>2015-08-30T14:55:30Z</time>
      </trkpt>
      <trkpt lat="43.91159" lon="3.73665">
        <ele>142.4</ele>
        <time>2015-08-30T14:55:31Z</time>
      </trkpt>
      <trkpt lat="43.91117" lon="3.73651">
        <ele>141.5</ele>
        <time>2015-08-30T14:55:33Z</time>
      </trkpt>
      <trkpt lat="43.91095" lon="3.73647">
        <ele>141</ele>
        <time>2015-08-30T14:55:34Z</time>
      </trkpt>
      <trkpt lat="43.91074" lon="3.73645">
        <ele>140.5</ele>
        <time>2015-08-30T14:55:35Z</time>
      </trkpt>
      <trkpt lat="43.91053" lon="3.73645">
        <ele>140.5</ele>
        <time>2015-08-30T14:55:36Z</time>
      </trkpt>
      <trkpt lat="43.91032" lon="3.73649">
        <ele>140</ele>
        <time>2015-08-30T14:55:37Z</time>
      </trkpt>
      <trkpt lat="43.91011" lon="3.73655">
        <ele>140</ele>
        <time>2015-08-30T14:55:38Z</time>
      </trkpt>
      <trkpt lat="43.90991" lon="3.73665">
        <ele>140.5</ele>
        <time>2015-08-30T14:55:39Z</time>
      </trkpt>
      <trkpt lat="43.90859" lon="3.73765">
        <ele>140.5</ele>
        <time>2015-08-30T14:55:47Z</time>
      </trkpt>
      <trkpt lat="43.90846" lon="3.73772">
        <ele>140.5</ele>
        <time>2015-08-30T14:55:48Z</time>
      </trkpt>
      <trkpt lat="43.90833" lon="3.73775">
        <ele>140.5</ele>
        <time>2015-08-30T14:55:49Z</time>
      </trkpt>
      <trkpt lat="43.90818" lon="3.73777">
        <ele>141</ele>
        <time>2015-08-30T14:55:50Z</time>
      </trkpt>
      <trkpt lat="43.90636" lon="3.73752">
        <ele>143.4</ele>
        <time>2015-08-30T14:56:03Z</time>
      </trkpt>
      <trkpt lat="43.90545" lon="3.73766">
        <ele>146.3</ele>
        <time>2015-08-30T14:56:11Z</time>
      </trkpt>
      <trkpt lat="43.90427" lon="3.73801">
        <ele>144.8</ele>
        <time>2015-08-30T14:56:22Z</time>
      </trkpt>
      <trkpt lat="43.90392" lon="3.73806">
        <ele>143.9</ele>
        <time>2015-08-30T14:56:26Z</time>
      </trkpt>
      <trkpt lat="43.90385" lon="3.73805">
        <ele>144.3</ele>
        <time>2015-08-30T14:56:27Z</time>
      </trkpt>
      <trkpt lat="43.89884" lon="3.73674">
        <ele>136.2</ele>
        <time>2015-08-30T14:57:23Z</time>
      </trkpt>
      <trkpt lat="43.89876" lon="3.73672">
        <ele>136.2</ele>
        <time>2015-08-30T14:57:24Z</time>
      </trkpt>
      <trkpt lat="43.89867" lon="3.73673">
        <ele>136.2</ele>
        <time>2015-08-30T14:57:25Z</time>
      </trkpt>
      <trkpt lat="43.88958" lon="3.73958">
        <ele>132.8</ele>
        <time>2015-08-30T14:58:43Z</time>
      </trkpt>
      <trkpt lat="43.88951" lon="3.73956">
        <ele>133.3</ele>
        <time>2015-08-30T14:58:44Z</time>
      </trkpt>
      <trkpt lat="43.88939" lon="3.73949">
        <ele>133.3</ele>
        <time>2015-08-30T14:58:46Z</time>
      </trkpt>
      <trkpt lat="43.88933" lon="3.73949">
        <ele>133.3</ele>
        <time>2015-08-30T14:58:47Z</time>
      </trkpt>
      <trkpt lat="43.88925" lon="3.73956">
        <ele>133.8</ele>
        <time>2015-08-30T14:58:48Z</time>
      </trkpt>
      <trkpt lat="43.88912" lon="3.73976">
        <ele>133.8</ele>
        <time>2015-08-30T14:58:50Z</time>
      </trkpt>
      <trkpt lat="43.88902" lon="3.73985">
        <ele>133.8</ele>
        <time>2015-08-30T14:58:51Z</time>
      </trkpt>
      <trkpt lat="43.88868" lon="3.74003">
        <ele>135.2</ele>
        <time>2015-08-30T14:58:53Z</time>
      </trkpt>
      <trkpt lat="43.8874" lon="3.74058">
        <ele>140</ele>
        <time>2015-08-30T14:59:01Z</time>
      </trkpt>
      <trkpt lat="43.88479" lon="3.74048">
        <ele>149.6</ele>
        <time>2015-08-30T14:59:12Z</time>
      </trkpt>
      <trkpt lat="43.88451" lon="3.74057">
        <ele>150.6</ele>
        <time>2015-08-30T14:59:13Z</time>
      </trkpt>
      <trkpt lat="43.88424" lon="3.7407">
        <ele>151.5</ele>
        <time>2015-08-30T14:59:14Z</time>
      </trkpt>
      <trkpt lat="43.88397" lon="3.74088">
        <ele>153</ele>
        <time>2015-08-30T14:59:15Z</time>
      </trkpt>
      <trkpt lat="43.88372" lon="3.74109">
        <ele>154</ele>
        <time>2015-08-30T14:59:16Z</time>
      </trkpt>
      <trkpt lat="43.88349" lon="3.74134">
        <ele>154.9</ele>
        <time>2015-08-30T14:59:17Z</time>
      </trkpt>
      <trkpt lat="43.88309" lon="3.74188">
        <ele>156.8</ele>
        <time>2015-08-30T14:59:19Z</time>
      </trkpt>
      <trkpt lat="43.88192" lon="3.74379">
        <ele>162.6</ele>
        <time>2015-08-30T14:59:26Z</time>
      </trkpt>
      <trkpt lat="43.88143" lon="3.74423">
        <ele>164.5</ele>
        <time>2015-08-30T14:59:28Z</time>
      </trkpt>
      <trkpt lat="43.88116" lon="3.74442">
        <ele>165</ele>
        <time>2015-08-30T14:59:29Z</time>
      </trkpt>
      <trkpt lat="43.88087" lon="3.74458">
        <ele>165.5</ele>
        <time>2015-08-30T14:59:30Z</time>
      </trkpt>
      <trkpt lat="43.88025" lon="3.74483">
        <ele>166.5</ele>
        <time>2015-08-30T14:59:32Z</time>
      </trkpt>
      <trkpt lat="43.87963" lon="3.74498">
        <ele>168.4</ele>
        <time>2015-08-30T14:59:34Z</time>
      </trkpt>
      <trkpt lat="43.87931" lon="3.74497">
        <ele>169.8</ele>
        <time>2015-08-30T14:59:35Z</time>
      </trkpt>
      <trkpt lat="43.879" lon="3.7449">
        <ele>171.3</ele>
        <time>2015-08-30T14:59:36Z</time>
      </trkpt>
      <trkpt lat="43.87871" lon="3.74478">
        <ele>172.2</ele>
        <time>2015-08-30T14:59:37Z</time>
      </trkpt>
      <trkpt lat="43.87843" lon="3.74458">
        <ele>173.7</ele>
        <time>2015-08-30T14:59:38Z</time>
      </trkpt>
      <trkpt lat="43.87817" lon="3.74431">
        <ele>174.6</ele>
        <time>2015-08-30T14:59:39Z</time>
      </trkpt>
      <trkpt lat="43.87771" lon="3.74366">
        <ele>177</ele>
        <time>2015-08-30T14:59:41Z</time>
      </trkpt>
      <trkpt lat="43.87759" lon="3.74328">
        <ele>178.5</ele>
        <time>2015-08-30T14:59:42Z</time>
      </trkpt>
      <trkpt lat="43.87742" lon="3.74293">
        <ele>179.4</ele>
        <time>2015-08-30T14:59:43Z</time>
      </trkpt>
      <trkpt lat="43.87723" lon="3.74262">
        <ele>179.9</ele>
        <time>2015-08-30T14:59:44Z</time>
      </trkpt>
      <trkpt lat="43.877" lon="3.74234">
        <ele>181.4</ele>
        <time>2015-08-30T14:59:45Z</time>
      </trkpt>
      <trkpt lat="43.87674" lon="3.74213">
        <ele>182.8</ele>
        <time>2015-08-30T14:59:46Z</time>
      </trkpt>
      <trkpt lat="43.87646" lon="3.74197">
        <ele>183.8</ele>
        <time>2015-08-30T14:59:47Z</time>
      </trkpt>
      <trkpt lat="43.87616" lon="3.74188">
        <ele>183.3</ele>
        <time>2015-08-30T14:59:48Z</time>
      </trkpt>
      <trkpt lat="43.87585" lon="3.74185">
        <ele>183.8</ele>
        <time>2015-08-30T14:59:49Z</time>
      </trkpt>
      <trkpt lat="43.87554" lon="3.74187">
        <ele>184.7</ele>
        <time>2015-08-30T14:59:50Z</time>
      </trkpt>
      <trkpt lat="43.87493" lon="3.742">
        <ele>186.6</ele>
        <time>2015-08-30T14:59:52Z</time>
      </trkpt>
      <trkpt lat="43.87464" lon="3.74209">
        <ele>187.6</ele>
        <time>2015-08-30T14:59:53Z</time>
      </trkpt>
      <trkpt lat="43.87294" lon="3.74245">
        <ele>191</ele>
        <time>2015-08-30T15:00:00Z</time>
      </trkpt>
      <trkpt lat="43.87133" lon="3.74233">
        <ele>195.8</ele>
        <time>2015-08-30T15:00:08Z</time>
      </trkpt>
      <trkpt lat="43.8697" lon="3.74181">
        <ele>202.5</ele>
        <time>2015-08-30T15:00:16Z</time>
      </trkpt>
      <trkpt lat="43.86732" lon="3.74041">
        <ele>212.1</ele>
        <time>2015-08-30T15:00:29Z</time>
      </trkpt>
      <trkpt lat="43.86617" lon="3.74038">
        <ele>216.9</ele>
        <time>2015-08-30T15:00:35Z</time>
      </trkpt>
      <trkpt lat="43.86496" lon="3.74102">
        <ele>219.8</ele>
        <time>2015-08-30T15:00:41Z</time>
      </trkpt>
      <trkpt lat="43.86231" lon="3.74298">
        <ele>228.9</ele>
        <time>2015-08-30T15:00:52Z</time>
      </trkpt>
      <trkpt lat="43.86205" lon="3.74307">
        <ele>229.9</ele>
        <time>2015-08-30T15:00:53Z</time>
      </trkpt>
      <trkpt lat="43.86179" lon="3.74313">
        <ele>231.8</ele>
        <time>2015-08-30T15:00:54Z</time>
      </trkpt>
      <trkpt lat="43.86154" lon="3.74315">
        <ele>233.7</ele>
        <time>2015-08-30T15:00:55Z</time>
      </trkpt>
      <trkpt lat="43.86131" lon="3.74315">
        <ele>235.7</ele>
        <time>2015-08-30T15:00:56Z</time>
      </trkpt>
      <trkpt lat="43.86107" lon="3.74312">
        <ele>237.6</ele>
        <time>2015-08-30T15:00:57Z</time>
      </trkpt>
      <trkpt lat="43.86083" lon="3.74305">
        <ele>240</ele>
        <time>2015-08-30T15:00:58Z</time>
      </trkpt>
      <trkpt lat="43.86059" lon="3.74295">
        <ele>242.4</ele>
        <time>2015-08-30T15:00:59Z</time>
      </trkpt>
      <trkpt lat="43.86035" lon="3.74281">
        <ele>245.3</ele>
        <time>2015-08-30T15:01:00Z</time>
      </trkpt>
      <trkpt lat="43.8601" lon="3.74264">
        <ele>247.7</ele>
        <time>2015-08-30T15:01:01Z</time>
      </trkpt>
      <trkpt lat="43.8583" lon="3.74175">
        <ele>264</ele>
        <time>2015-08-30T15:01:08Z</time>
      </trkpt>
      <trkpt lat="43.85443" lon="3.74212">
        <ele>296.7</ele>
        <time>2015-08-30T15:01:21Z</time>
      </trkpt>
      <trkpt lat="43.85237" lon="3.74145">
        <ele>315.9</ele>
        <time>2015-08-30T15:01:28Z</time>
      </trkpt>
      <trkpt lat="43.85077" lon="3.74059">
        <ele>329.4</ele>
        <time>2015-08-30T15:01:35Z</time>
      </trkpt>
      <trkpt lat="43.84878" lon="3.73987">
        <ele>328.9</ele>
        <time>2015-08-30T15:01:44Z</time>
      </trkpt>
      <trkpt lat="43.84735" lon="3.74025">
        <ele>317.9</ele>
        <time>2015-08-30T15:01:50Z</time>
      </trkpt>
      <trkpt lat="43.84101" lon="3.74365">
        <ele>269.3</ele>
        <time>2015-08-30T15:02:22Z</time>
      </trkpt>
      <trkpt lat="43.83927" lon="3.74424">
        <ele>256.8</ele>
        <time>2015-08-30T15:02:31Z</time>
      </trkpt>
      <trkpt lat="43.83793" lon="3.74407">
        <ele>250.6</ele>
        <time>2015-08-30T15:02:38Z</time>
      </trkpt>
      <trkpt lat="43.83695" lon="3.7436">
        <ele>247.2</ele>
        <time>2015-08-30T15:02:45Z</time>
      </trkpt>
      <trkpt lat="43.83681" lon="3.74351">
        <ele>246.2</ele>
        <time>2015-08-30T15:02:47Z</time>
      </trkpt>
      <trkpt lat="43.83676" lon="3.7435">
        <ele>246.2</ele>
        <time>2015-08-30T15:02:48Z</time>
      </trkpt>
      <trkpt lat="43.83672" lon="3.74353">
        <ele>245.8</ele>
        <time>2015-08-30T15:02:49Z</time>
      </trkpt>
      <trkpt lat="43.83669" lon="3.7436">
        <ele>244.8</ele>
        <time>2015-08-30T15:02:50Z</time>
      </trkpt>
      <trkpt lat="43.83241" lon="3.7576">
        <ele>201.1</ele>
        <time>2015-08-30T15:03:43Z</time>
      </trkpt>
      <trkpt lat="43.83232" lon="3.75781">
        <ele>200.6</ele>
        <time>2015-08-30T15:03:44Z</time>
      </trkpt>
      <trkpt lat="43.8322" lon="3.75798">
        <ele>199.6</ele>
        <time>2015-08-30T15:03:45Z</time>
      </trkpt>
      <trkpt lat="43.83205" lon="3.7581">
        <ele>199.1</ele>
        <time>2015-08-30T15:03:46Z</time>
      </trkpt>
      <trkpt lat="43.83145" lon="3.75836">
        <ele>198.7</ele>
        <time>2015-08-30T15:03:49Z</time>
      </trkpt>
      <trkpt lat="43.83025" lon="3.75929">
        <ele>197.7</ele>
        <time>2015-08-30T15:03:55Z</time>
      </trkpt>
      <trkpt lat="43.82888" lon="3.76079">
        <ele>195.3</ele>
        <time>2015-08-30T15:04:03Z</time>
      </trkpt>
      <trkpt lat="43.82836" lon="3.76245">
        <ele>191.4</ele>
        <time>2015-08-30T15:04:09Z</time>
      </trkpt>
      <trkpt lat="43.82832" lon="3.76387">
        <ele>189.5</ele>
        <time>2015-08-30T15:04:15Z</time>
      </trkpt>
      <trkpt lat="43.82828" lon="3.76404">
        <ele>189</ele>
        <time>2015-08-30T15:04:16Z</time>
      </trkpt>
      <trkpt lat="43.82822" lon="3.76421">
        <ele>189</ele>
        <time>2015-08-30T15:04:17Z</time>
      </trkpt>
      <trkpt lat="43.82723" lon="3.76584">
        <ele>190.5</ele>
        <time>2015-08-30T15:04:28Z</time>
      </trkpt>
      <trkpt lat="43.82709" lon="3.76626">
        <ele>191</ele>
        <time>2015-08-30T15:04:30Z</time>
      </trkpt>
      <trkpt lat="43.82687" lon="3.76726">
        <ele>195.3</ele>
        <time>2015-08-30T15:04:35Z</time>
      </trkpt>
      <trkpt lat="43.82686" lon="3.76749">
        <ele>196.3</ele>
        <time>2015-08-30T15:04:36Z</time>
      </trkpt>
      <trkpt lat="43.82688" lon="3.76772">
        <ele>196.7</ele>
        <time>2015-08-30T15:04:37Z</time>
      </trkpt>
      <trkpt lat="43.82722" lon="3.76967">
        <ele>199.6</ele>
        <time>2015-08-30T15:04:45Z</time>
      </trkpt>
      <trkpt lat="43.82721" lon="3.77014">
        <ele>200.1</ele>
        <time>2015-08-30T15:04:47Z</time>
      </trkpt>
      <trkpt lat="43.82705" lon="3.7719">
        <ele>197.7</ele>
        <time>2015-08-30T15:04:57Z</time>
      </trkpt>
      <trkpt lat="43.82654" lon="3.77364">
        <ele>196.7</ele>
        <time>2015-08-30T15:05:08Z</time>
      </trkpt>
      <trkpt lat="43.82624" lon="3.7762">
        <ele>198.2</ele>
        <time>2015-08-30T15:05:30Z</time>
      </trkpt>
      <trkpt lat="43.82626" lon="3.77662">
        <ele>198.7</ele>
        <time>2015-08-30T15:05:33Z</time>
      </trkpt>
      <trkpt lat="43.82643" lon="3.77739">
        <ele>197.2</ele>
        <time>2015-08-30T15:05:40Z</time>
      </trkpt>
      <trkpt lat="43.82642" lon="3.77745">
        <ele>197.2</ele>
        <time>2015-08-30T15:05:41Z</time>
      </trkpt>
      <trkpt lat="43.82638" lon="3.77751">
        <ele>197.2</ele>
        <time>2015-08-30T15:05:42Z</time>
      </trkpt>
      <trkpt lat="43.8259" lon="3.7778">
        <ele>195.8</ele>
        <time>2015-08-30T15:05:52Z</time>
      </trkpt>
      <trkpt lat="43.82552" lon="3.77797">
        <ele>191</ele>
        <time>2015-08-30T15:06:00Z</time>
      </trkpt>
      <trkpt lat="43.8168" lon="3.78064">
        <ele>194.3</ele>
        <time>2015-08-30T15:06:49Z</time>
      </trkpt>
      <trkpt lat="43.81664" lon="3.78067">
        <ele>195.3</ele>
        <time>2015-08-30T15:06:50Z</time>
      </trkpt>
      <trkpt lat="43.8165" lon="3.78061">
        <ele>196.7</ele>
        <time>2015-08-30T15:06:51Z</time>
      </trkpt>
      <trkpt lat="43.81639" lon="3.78048">
        <ele>197.7</ele>
        <time>2015-08-30T15:06:52Z</time>
      </trkpt>
      <trkpt lat="43.81619" lon="3.78014">
        <ele>199.6</ele>
        <time>2015-08-30T15:06:54Z</time>
      </trkpt>
      <trkpt lat="43.81606" lon="3.78002">
        <ele>200.1</ele>
        <time>2015-08-30T15:06:55Z</time>
      </trkpt>
      <trkpt lat="43.81591" lon="3.77995">
        <ele>200.1</ele>
        <time>2015-08-30T15:06:56Z</time>
      </trkpt>
      <trkpt lat="43.81552" lon="3.77994">
        <ele>202.5</ele>
        <time>2015-08-30T15:06:58Z</time>
      </trkpt>
      <trkpt lat="43.81533" lon="3.77994">
        <ele>203.5</ele>
        <time>2015-08-30T15:06:59Z</time>
      </trkpt>
      <trkpt lat="43.81516" lon="3.78">
        <ele>204.4</ele>
        <time>2015-08-30T15:07:00Z</time>
      </trkpt>
      <trkpt lat="43.81486" lon="3.78024">
        <ele>205.9</ele>
        <time>2015-08-30T15:07:02Z</time>
      </trkpt>
      <trkpt lat="43.81439" lon="3.78053">
        <ele>207.8</ele>
        <time>2015-08-30T15:07:05Z</time>
      </trkpt>
      <trkpt lat="43.81428" lon="3.78069">
        <ele>208.7</ele>
        <time>2015-08-30T15:07:06Z</time>
      </trkpt>
      <trkpt lat="43.81423" lon="3.78089">
        <ele>209.7</ele>
        <time>2015-08-30T15:07:07Z</time>
      </trkpt>
      <trkpt lat="43.81421" lon="3.78114">
        <ele>210.7</ele>
        <time>2015-08-30T15:07:08Z</time>
      </trkpt>
      <trkpt lat="43.81463" lon="3.7835">
        <ele>218.8</ele>
        <time>2015-08-30T15:07:17Z</time>
      </trkpt>
      <trkpt lat="43.81461" lon="3.78366">
        <ele>219.3</ele>
        <time>2015-08-30T15:07:18Z</time>
      </trkpt>
      <trkpt lat="43.81455" lon="3.7838">
        <ele>220.8</ele>
        <time>2015-08-30T15:07:19Z</time>
      </trkpt>
      <trkpt lat="43.81445" lon="3.78388">
        <ele>221.7</ele>
        <time>2015-08-30T15:07:20Z</time>
      </trkpt>
      <trkpt lat="43.81395" lon="3.78397">
        <ele>222.7</ele>
        <time>2015-08-30T15:07:23Z</time>
      </trkpt>
      <trkpt lat="43.81379" lon="3.78404">
        <ele>223.2</ele>
        <time>2015-08-30T15:07:24Z</time>
      </trkpt>
      <trkpt lat="43.81344" lon="3.78445">
        <ele>220.8</ele>
        <time>2015-08-30T15:07:27Z</time>
      </trkpt>
      <trkpt lat="43.81316" lon="3.78468">
        <ele>218.4</ele>
        <time>2015-08-30T15:07:29Z</time>
      </trkpt>
      <trkpt lat="43.8129" lon="3.7851">
        <ele>216.4</ele>
        <time>2015-08-30T15:07:31Z</time>
      </trkpt>
      <trkpt lat="43.81237" lon="3.78611">
        <ele>210.2</ele>
        <time>2015-08-30T15:07:36Z</time>
      </trkpt>
      <trkpt lat="43.81227" lon="3.78621">
        <ele>209.2</ele>
        <time>2015-08-30T15:07:37Z</time>
      </trkpt>
      <trkpt lat="43.81215" lon="3.78627">
        <ele>208.3</ele>
        <time>2015-08-30T15:07:38Z</time>
      </trkpt>
      <trkpt lat="43.81199" lon="3.78626">
        <ele>207.3</ele>
        <time>2015-08-30T15:07:39Z</time>
      </trkpt>
      <trkpt lat="43.81181" lon="3.78622">
        <ele>206.8</ele>
        <time>2015-08-30T15:07:40Z</time>
      </trkpt>
      <trkpt lat="43.81163" lon="3.78616">
        <ele>205.9</ele>
        <time>2015-08-30T15:07:41Z</time>
      </trkpt>
      <trkpt lat="43.81146" lon="3.78605">
        <ele>204.9</ele>
        <time>2015-08-30T15:07:42Z</time>
      </trkpt>
      <trkpt lat="43.81117" lon="3.78567">
        <ele>201.5</ele>
        <time>2015-08-30T15:07:44Z</time>
      </trkpt>
      <trkpt lat="43.81095" lon="3.78513">
        <ele>197.7</ele>
        <time>2015-08-30T15:07:47Z</time>
      </trkpt>
      <trkpt lat="43.81085" lon="3.78503">
        <ele>195.3</ele>
        <time>2015-08-30T15:07:48Z</time>
      </trkpt>
      <trkpt lat="43.81073" lon="3.785">
        <ele>193.8</ele>
        <time>2015-08-30T15:07:49Z</time>
      </trkpt>
      <trkpt lat="43.81062" lon="3.78501">
        <ele>193.4</ele>
        <time>2015-08-30T15:07:50Z</time>
      </trkpt>
      <trkpt lat="43.81054" lon="3.78508">
        <ele>192.9</ele>
        <time>2015-08-30T15:07:51Z</time>
      </trkpt>
      <trkpt lat="43.81046" lon="3.78518">
        <ele>191</ele>
        <time>2015-08-30T15:07:52Z</time>
      </trkpt>
      <trkpt lat="43.81046" lon="3.78532">
        <ele>190.5</ele>
        <time>2015-08-30T15:07:53Z</time>
      </trkpt>
      <trkpt lat="43.81056" lon="3.78571">
        <ele>189</ele>
        <time>2015-08-30T15:07:55Z</time>
      </trkpt>
      <trkpt lat="43.81066" lon="3.78591">
        <ele>188.1</ele>
        <time>2015-08-30T15:07:56Z</time>
      </trkpt>
      <trkpt lat="43.81141" lon="3.78667">
        <ele>183.8</ele>
        <time>2015-08-30T15:08:02Z</time>
      </trkpt>
      <trkpt lat="43.8114" lon="3.78674">
        <ele>183.3</ele>
        <time>2015-08-30T15:08:03Z</time>
      </trkpt>
      <trkpt lat="43.81135" lon="3.78677">
        <ele>182.8</ele>
        <time>2015-08-30T15:08:04Z</time>
      </trkpt>
      <trkpt lat="43.81128" lon="3.78674">
        <ele>181.8</ele>
        <time>2015-08-30T15:08:05Z</time>
      </trkpt>
      <trkpt lat="43.81115" lon="3.78663">
        <ele>182.3</ele>
        <time>2015-08-30T15:08:06Z</time>
      </trkpt>
      <trkpt lat="43.81102" lon="3.78646">
        <ele>180.9</ele>
        <time>2015-08-30T15:08:07Z</time>
      </trkpt>
      <trkpt lat="43.80993" lon="3.78535">
        <ele>179.4</ele>
        <time>2015-08-30T15:08:15Z</time>
      </trkpt>
      <trkpt lat="43.80981" lon="3.78527">
        <ele>179.4</ele>
        <time>2015-08-30T15:08:16Z</time>
      </trkpt>
      <trkpt lat="43.80965" lon="3.78528">
        <ele>179.4</ele>
        <time>2015-08-30T15:08:17Z</time>
      </trkpt>
      <trkpt lat="43.80949" lon="3.78534">
        <ele>179.9</ele>
        <time>2015-08-30T15:08:18Z</time>
      </trkpt>
      <trkpt lat="43.80918" lon="3.78558">
        <ele>179.4</ele>
        <time>2015-08-30T15:08:20Z</time>
      </trkpt>
      <trkpt lat="43.80905" lon="3.78576">
        <ele>179.9</ele>
        <time>2015-08-30T15:08:21Z</time>
      </trkpt>
      <trkpt lat="43.80511" lon="3.78991">
        <ele>181.8</ele>
        <time>2015-08-30T15:08:45Z</time>
      </trkpt>
      <trkpt lat="43.80468" lon="3.79057">
        <ele>181.4</ele>
        <time>2015-08-30T15:08:48Z</time>
      </trkpt>
      <trkpt lat="43.80451" lon="3.79076">
        <ele>180.9</ele>
        <time>2015-08-30T15:08:49Z</time>
      </trkpt>
      <trkpt lat="43.80431" lon="3.79092">
        <ele>180.9</ele>
        <time>2015-08-30T15:08:50Z</time>
      </trkpt>
      <trkpt lat="43.80259" lon="3.79217">
        <ele>182.8</ele>
        <time>2015-08-30T15:08:59Z</time>
      </trkpt>
      <trkpt lat="43.80149" lon="3.79424">
        <ele>183.8</ele>
        <time>2015-08-30T15:09:07Z</time>
      </trkpt>
      <trkpt lat="43.8013" lon="3.79445">
        <ele>184.2</ele>
        <time>2015-08-30T15:09:08Z</time>
      </trkpt>
      <trkpt lat="43.79975" lon="3.79563">
        <ele>183.8</ele>
        <time>2015-08-30T15:09:15Z</time>
      </trkpt>
      <trkpt lat="43.79708" lon="3.79715">
        <ele>186.6</ele>
        <time>2015-08-30T15:09:27Z</time>
      </trkpt>
      <trkpt lat="43.79582" lon="3.79818">
        <ele>188.6</ele>
        <time>2015-08-30T15:09:33Z</time>
      </trkpt>
      <trkpt lat="43.79465" lon="3.79946">
        <ele>191.9</ele>
        <time>2015-08-30T15:09:40Z</time>
      </trkpt>
      <trkpt lat="43.79398" lon="3.80062">
        <ele>191</ele>
        <time>2015-08-30T15:09:47Z</time>
      </trkpt>
      <trkpt lat="43.79386" lon="3.80076">
        <ele>190.5</ele>
        <time>2015-08-30T15:09:49Z</time>
      </trkpt>
      <trkpt lat="43.79381" lon="3.80079">
        <ele>191</ele>
        <time>2015-08-30T15:09:50Z</time>
      </trkpt>
      <trkpt lat="43.79378" lon="3.8008">
        <ele>191.4</ele>
        <time>2015-08-30T15:09:51Z</time>
      </trkpt>
      <trkpt lat="43.79375" lon="3.8008">
        <ele>191.4</ele>
        <time>2015-08-30T15:09:52Z</time>
      </trkpt>
      <trkpt lat="43.79374" lon="3.80081">
        <ele>191.9</ele>
        <time>2015-08-30T15:09:53Z</time>
      </trkpt>
      <trkpt lat="43.79372" lon="3.80084">
        <ele>191.9</ele>
        <time>2015-08-30T15:09:54Z</time>
      </trkpt>
      <trkpt lat="43.79369" lon="3.80088">
        <ele>191.9</ele>
        <time>2015-08-30T15:09:55Z</time>
      </trkpt>
      <trkpt lat="43.79371" lon="3.80101">
        <ele>192.9</ele>
        <time>2015-08-30T15:09:56Z</time>
      </trkpt>
      <trkpt lat="43.7937" lon="3.80114">
        <ele>193.8</ele>
        <time>2015-08-30T15:09:57Z</time>
      </trkpt>
      <trkpt lat="43.79356" lon="3.80189">
        <ele>197.7</ele>
        <time>2015-08-30T15:10:02Z</time>
      </trkpt>
      <trkpt lat="43.79341" lon="3.80223">
        <ele>199.1</ele>
        <time>2015-08-30T15:10:04Z</time>
      </trkpt>
      <trkpt lat="43.79322" lon="3.80256">
        <ele>201.1</ele>
        <time>2015-08-30T15:10:06Z</time>
      </trkpt>
      <trkpt lat="43.7931" lon="3.80271">
        <ele>201.5</ele>
        <time>2015-08-30T15:10:07Z</time>
      </trkpt>
      <trkpt lat="43.79295" lon="3.80286">
        <ele>202</ele>
        <time>2015-08-30T15:10:08Z</time>
      </trkpt>
      <trkpt lat="43.79112" lon="3.80411">
        <ele>211.6</ele>
        <time>2015-08-30T15:10:18Z</time>
      </trkpt>
      <trkpt lat="43.79014" lon="3.8055">
        <ele>218.8</ele>
        <time>2015-08-30T15:10:25Z</time>
      </trkpt>
      <trkpt lat="43.79002" lon="3.80554">
        <ele>220.3</ele>
        <time>2015-08-30T15:10:26Z</time>
      </trkpt>
      <trkpt lat="43.78987" lon="3.80552">
        <ele>221.2</ele>
        <time>2015-08-30T15:10:27Z</time>
      </trkpt>
      <trkpt lat="43.78973" lon="3.80542">
        <ele>222.2</ele>
        <time>2015-08-30T15:10:28Z</time>
      </trkpt>
      <trkpt lat="43.78913" lon="3.80465">
        <ele>226.1</ele>
        <time>2015-08-30T15:10:32Z</time>
      </trkpt>
      <trkpt lat="43.78845" lon="3.80401">
        <ele>230.4</ele>
        <time>2015-08-30T15:10:37Z</time>
      </trkpt>
      <trkpt lat="43.78835" lon="3.80401">
        <ele>231.3</ele>
        <time>2015-08-30T15:10:38Z</time>
      </trkpt>
      <trkpt lat="43.78826" lon="3.80408">
        <ele>232.3</ele>
        <time>2015-08-30T15:10:39Z</time>
      </trkpt>
      <trkpt lat="43.78818" lon="3.80419">
        <ele>232.8</ele>
        <time>2015-08-30T15:10:40Z</time>
      </trkpt>
      <trkpt lat="43.78822" lon="3.80436">
        <ele>233.7</ele>
        <time>2015-08-30T15:10:41Z</time>
      </trkpt>
      <trkpt lat="43.7885" lon="3.80495">
        <ele>235.7</ele>
        <time>2015-08-30T15:10:44Z</time>
      </trkpt>
      <trkpt lat="43.78863" lon="3.80515">
        <ele>236.1</ele>
        <time>2015-08-30T15:10:45Z</time>
      </trkpt>
      <trkpt lat="43.78876" lon="3.80532">
        <ele>237.1</ele>
        <time>2015-08-30T15:10:46Z</time>
      </trkpt>
      <trkpt lat="43.78889" lon="3.80546">
        <ele>237.6</ele>
        <time>2015-08-30T15:10:47Z</time>
      </trkpt>
      <trkpt lat="43.78922" lon="3.80576">
        <ele>239</ele>
        <time>2015-08-30T15:10:50Z</time>
      </trkpt>
      <trkpt lat="43.78929" lon="3.80586">
        <ele>239</ele>
        <time>2015-08-30T15:10:51Z</time>
      </trkpt>
      <trkpt lat="43.7893" lon="3.80596">
        <ele>239.5</ele>
        <time>2015-08-30T15:10:52Z</time>
      </trkpt>
      <trkpt lat="43.78927" lon="3.80601">
        <ele>240</ele>
        <time>2015-08-30T15:10:53Z</time>
      </trkpt>
      <trkpt lat="43.7892" lon="3.80601">
        <ele>240.5</ele>
        <time>2015-08-30T15:10:54Z</time>
      </trkpt>
      <trkpt lat="43.7888" lon="3.80577">
        <ele>242.9</ele>
        <time>2015-08-30T15:10:58Z</time>
      </trkpt>
      <trkpt lat="43.7887" lon="3.80575">
        <ele>243.4</ele>
        <time>2015-08-30T15:10:59Z</time>
      </trkpt>
      <trkpt lat="43.7886" lon="3.80575">
        <ele>244.3</ele>
        <time>2015-08-30T15:11:00Z</time>
      </trkpt>
      <trkpt lat="43.78849" lon="3.80577">
        <ele>244.8</ele>
        <time>2015-08-30T15:11:01Z</time>
      </trkpt>
      <trkpt lat="43.7883" lon="3.80585">
        <ele>246.2</ele>
        <time>2015-08-30T15:11:03Z</time>
      </trkpt>
      <trkpt lat="43.78815" lon="3.80594">
        <ele>247.7</ele>
        <time>2015-08-30T15:11:05Z</time>
      </trkpt>
      <trkpt lat="43.78809" lon="3.80601">
        <ele>247.2</ele>
        <time>2015-08-30T15:11:06Z</time>
      </trkpt>
      <trkpt lat="43.78805" lon="3.80613">
        <ele>247.2</ele>
        <time>2015-08-30T15:11:07Z</time>
      </trkpt>
      <trkpt lat="43.78808" lon="3.80623">
        <ele>247.2</ele>
        <time>2015-08-30T15:11:08Z</time>
      </trkpt>
      <trkpt lat="43.78816" lon="3.80633">
        <ele>247.2</ele>
        <time>2015-08-30T15:11:09Z</time>
      </trkpt>
      <trkpt lat="43.78825" lon="3.8064">
        <ele>247.2</ele>
        <time>2015-08-30T15:11:10Z</time>
      </trkpt>
      <trkpt lat="43.78865" lon="3.80664">
        <ele>246.2</ele>
        <time>2015-08-30T15:11:14Z</time>
      </trkpt>
      <trkpt lat="43.78874" lon="3.80674">
        <ele>246.2</ele>
        <time>2015-08-30T15:11:15Z</time>
      </trkpt>
      <trkpt lat="43.7888" lon="3.80686">
        <ele>245.3</ele>
        <time>2015-08-30T15:11:16Z</time>
      </trkpt>
      <trkpt lat="43.78905" lon="3.80751">
        <ele>243.4</ele>
        <time>2015-08-30T15:11:20Z</time>
      </trkpt>
      <trkpt lat="43.78922" lon="3.80782">
        <ele>241.9</ele>
        <time>2015-08-30T15:11:22Z</time>
      </trkpt>
      <trkpt lat="43.78933" lon="3.80796">
        <ele>241.4</ele>
        <time>2015-08-30T15:11:23Z</time>
      </trkpt>
      <trkpt lat="43.79011" lon="3.80873">
        <ele>237.1</ele>
        <time>2015-08-30T15:11:31Z</time>
      </trkpt>
      <trkpt lat="43.79018" lon="3.80885">
        <ele>236.6</ele>
        <time>2015-08-30T15:11:32Z</time>
      </trkpt>
      <trkpt lat="43.79039" lon="3.8093">
        <ele>235.2</ele>
        <time>2015-08-30T15:11:35Z</time>
      </trkpt>
      <trkpt lat="43.79054" lon="3.80983">
        <ele>234.2</ele>
        <time>2015-08-30T15:11:37Z</time>
      </trkpt>
      <trkpt lat="43.79109" lon="3.8136">
        <ele>222.2</ele>
        <time>2015-08-30T15:11:51Z</time>
      </trkpt>
      <trkpt lat="43.791" lon="3.82116">
        <ele>205.9</ele>
        <time>2015-08-30T15:12:09Z</time>
      </trkpt>
      <trkpt lat="43.79014" lon="3.82569">
        <ele>194.8</ele>
        <time>2015-08-30T15:12:23Z</time>
      </trkpt>
      <trkpt lat="43.78847" lon="3.83093">
        <ele>178.5</ele>
        <time>2015-08-30T15:12:41Z</time>
      </trkpt>
      <trkpt lat="43.78787" lon="3.83552">
        <ele>166</ele>
        <time>2015-08-30T15:12:55Z</time>
      </trkpt>
      <trkpt lat="43.78789" lon="3.83583">
        <ele>165</ele>
        <time>2015-08-30T15:12:56Z</time>
      </trkpt>
      <trkpt lat="43.78925" lon="3.84345">
        <ele>137.6</ele>
        <time>2015-08-30T15:13:17Z</time>
      </trkpt>
      <trkpt lat="43.79101" lon="3.85023">
        <ele>128.5</ele>
        <time>2015-08-30T15:13:39Z</time>
      </trkpt>
      <trkpt lat="43.79105" lon="3.85059">
        <ele>128.5</ele>
        <time>2015-08-30T15:13:40Z</time>
      </trkpt>
      <trkpt lat="43.79103" lon="3.85134">
        <ele>128.5</ele>
        <time>2015-08-30T15:13:42Z</time>
      </trkpt>
      <trkpt lat="43.79066" lon="3.85513">
        <ele>128</ele>
        <time>2015-08-30T15:13:53Z</time>
      </trkpt>
      <trkpt lat="43.79041" lon="3.85603">
        <ele>128</ele>
        <time>2015-08-30T15:13:56Z</time>
      </trkpt>
      <trkpt lat="43.79026" lon="3.85629">
        <ele>128</ele>
        <time>2015-08-30T15:13:57Z</time>
      </trkpt>
      <trkpt lat="43.79006" lon="3.8565">
        <ele>127.5</ele>
        <time>2015-08-30T15:13:58Z</time>
      </trkpt>
      <trkpt lat="43.78982" lon="3.85666">
        <ele>127.5</ele>
        <time>2015-08-30T15:13:59Z</time>
      </trkpt>
      <trkpt lat="43.78933" lon="3.85689">
        <ele>129</ele>
        <time>2015-08-30T15:14:01Z</time>
      </trkpt>
      <trkpt lat="43.7891" lon="3.85696">
        <ele>128</ele>
        <time>2015-08-30T15:14:02Z</time>
      </trkpt>
      <trkpt lat="43.78382" lon="3.85808">
        <ele>125.1</ele>
        <time>2015-08-30T15:14:23Z</time>
      </trkpt>
      <trkpt lat="43.78359" lon="3.85805">
        <ele>125.1</ele>
        <time>2015-08-30T15:14:24Z</time>
      </trkpt>
      <trkpt lat="43.78108" lon="3.85749">
        <ele>126.1</ele>
        <time>2015-08-30T15:14:34Z</time>
      </trkpt>
      <trkpt lat="43.77953" lon="3.85678">
        <ele>127</ele>
        <time>2015-08-30T15:14:41Z</time>
      </trkpt>
      <trkpt lat="43.77935" lon="3.85672">
        <ele>127</ele>
        <time>2015-08-30T15:14:42Z</time>
      </trkpt>
      <trkpt lat="43.77917" lon="3.85676">
        <ele>126.6</ele>
        <time>2015-08-30T15:14:43Z</time>
      </trkpt>
      <trkpt lat="43.77898" lon="3.8569">
        <ele>127.5</ele>
        <time>2015-08-30T15:14:44Z</time>
      </trkpt>
      <trkpt lat="43.77843" lon="3.8575">
        <ele>125.6</ele>
        <time>2015-08-30T15:14:47Z</time>
      </trkpt>
      <trkpt lat="43.77757" lon="3.85854">
        <ele>122.7</ele>
        <time>2015-08-30T15:14:52Z</time>
      </trkpt>
      <trkpt lat="43.77745" lon="3.85881">
        <ele>121.7</ele>
        <time>2015-08-30T15:14:53Z</time>
      </trkpt>
      <trkpt lat="43.77465" lon="3.86826">
        <ele>118.4</ele>
        <time>2015-08-30T15:15:32Z</time>
      </trkpt>
      <trkpt lat="43.77455" lon="3.86841">
        <ele>114.1</ele>
        <time>2015-08-30T15:15:36Z</time>
      </trkpt>
      <trkpt lat="43.77458" lon="3.86835">
        <ele>110.2</ele>
        <time>2015-08-30T15:15:48Z</time>
      </trkpt>
      <trkpt lat="43.77464" lon="3.86829">
        <ele>112.1</ele>
        <time>2015-08-30T15:27:14Z</time>
      </trkpt>
      <trkpt lat="43.77462" lon="3.86833">
        <ele>114.5</ele>
        <time>2015-08-30T15:27:55Z</time>
      </trkpt>
      <trkpt lat="43.77464" lon="3.86846">
        <ele>114.5</ele>
        <time>2015-08-30T15:27:59Z</time>
      </trkpt>
      <trkpt lat="43.77447" lon="3.86917">
        <ele>114.5</ele>
        <time>2015-08-30T15:28:06Z</time>
      </trkpt>
      <trkpt lat="43.77441" lon="3.86926">
        <ele>114.5</ele>
        <time>2015-08-30T15:28:07Z</time>
      </trkpt>
      <trkpt lat="43.77434" lon="3.86933">
        <ele>114.1</ele>
        <time>2015-08-30T15:28:08Z</time>
      </trkpt>
      <trkpt lat="43.77416" lon="3.86942">
        <ele>113.6</ele>
        <time>2015-08-30T15:28:10Z</time>
      </trkpt>
      <trkpt lat="43.77394" lon="3.86948">
        <ele>113.1</ele>
        <time>2015-08-30T15:28:12Z</time>
      </trkpt>
      <trkpt lat="43.77381" lon="3.86948">
        <ele>112.6</ele>
        <time>2015-08-30T15:28:13Z</time>
      </trkpt>
      <trkpt lat="43.7703" lon="3.86833">
        <ele>103.5</ele>
        <time>2015-08-30T15:28:45Z</time>
      </trkpt>
      <trkpt lat="43.77031" lon="3.86832">
        <ele>103</ele>
        <time>2015-08-30T15:28:57Z</time>
      </trkpt>
      <trkpt lat="43.76676" lon="3.86699">
        <ele>108.3</ele>
        <time>2015-08-30T15:29:51Z</time>
      </trkpt>
      <trkpt lat="43.76584" lon="3.86633">
        <ele>104.4</ele>
        <time>2015-08-30T15:30:02Z</time>
      </trkpt>
      <trkpt lat="43.76566" lon="3.86625">
        <ele>104</ele>
        <time>2015-08-30T15:30:04Z</time>
      </trkpt>
      <trkpt lat="43.7617" lon="3.86361">
        <ele>95.8</ele>
        <time>2015-08-30T15:30:39Z</time>
      </trkpt>
      <trkpt lat="43.76162" lon="3.86355">
        <ele>95.8</ele>
        <time>2015-08-30T15:30:40Z</time>
      </trkpt>
      <trkpt lat="43.76155" lon="3.86346">
        <ele>95.8</ele>
        <time>2015-08-30T15:30:41Z</time>
      </trkpt>
      <trkpt lat="43.76144" lon="3.86324">
        <ele>95.3</ele>
        <time>2015-08-30T15:30:43Z</time>
      </trkpt>
      <trkpt lat="43.76137" lon="3.86314">
        <ele>95.3</ele>
        <time>2015-08-30T15:30:44Z</time>
      </trkpt>
      <trkpt lat="43.76127" lon="3.86312">
        <ele>94.8</ele>
        <time>2015-08-30T15:30:45Z</time>
      </trkpt>
      <trkpt lat="43.76115" lon="3.86313">
        <ele>94.4</ele>
        <time>2015-08-30T15:30:46Z</time>
      </trkpt>
      <trkpt lat="43.76103" lon="3.86312">
        <ele>94.4</ele>
        <time>2015-08-30T15:30:47Z</time>
      </trkpt>
      <trkpt lat="43.76091" lon="3.86308">
        <ele>93.9</ele>
        <time>2015-08-30T15:30:48Z</time>
      </trkpt>
      <trkpt lat="43.75904" lon="3.86187">
        <ele>92.4</ele>
        <time>2015-08-30T15:31:01Z</time>
      </trkpt>
      <trkpt lat="43.75694" lon="3.86043">
        <ele>91</ele>
        <time>2015-08-30T15:31:13Z</time>
      </trkpt>
      <trkpt lat="43.7554" lon="3.85986">
        <ele>91</ele>
        <time>2015-08-30T15:31:21Z</time>
      </trkpt>
      <trkpt lat="43.74845" lon="3.85863">
        <ele>85.2</ele>
        <time>2015-08-30T15:31:54Z</time>
      </trkpt>
      <trkpt lat="43.74821" lon="3.85868">
        <ele>85.2</ele>
        <time>2015-08-30T15:31:55Z</time>
      </trkpt>
      <trkpt lat="43.74798" lon="3.85875">
        <ele>84.7</ele>
        <time>2015-08-30T15:31:56Z</time>
      </trkpt>
      <trkpt lat="43.74775" lon="3.85886">
        <ele>84.7</ele>
        <time>2015-08-30T15:31:57Z</time>
      </trkpt>
      <trkpt lat="43.74753" lon="3.859">
        <ele>84.7</ele>
        <time>2015-08-30T15:31:58Z</time>
      </trkpt>
      <trkpt lat="43.74711" lon="3.85935">
        <ele>84.3</ele>
        <time>2015-08-30T15:32:00Z</time>
      </trkpt>
      <trkpt lat="43.74089" lon="3.86523">
        <ele>82.8</ele>
        <time>2015-08-30T15:32:35Z</time>
      </trkpt>
      <trkpt lat="43.73966" lon="3.86607">
        <ele>79.5</ele>
        <time>2015-08-30T15:32:41Z</time>
      </trkpt>
      <trkpt lat="43.73742" lon="3.86728">
        <ele>77.5</ele>
        <time>2015-08-30T15:32:51Z</time>
      </trkpt>
      <trkpt lat="43.73355" lon="3.86759">
        <ele>78.5</ele>
        <time>2015-08-30T15:33:07Z</time>
      </trkpt>
      <trkpt lat="43.73332" lon="3.86768">
        <ele>78.5</ele>
        <time>2015-08-30T15:33:08Z</time>
      </trkpt>
      <trkpt lat="43.73059" lon="3.86938">
        <ele>83.8</ele>
        <time>2015-08-30T15:33:23Z</time>
      </trkpt>
      <trkpt lat="43.73049" lon="3.8694">
        <ele>84.3</ele>
        <time>2015-08-30T15:33:24Z</time>
      </trkpt>
      <trkpt lat="43.73032" lon="3.86938">
        <ele>85.2</ele>
        <time>2015-08-30T15:33:26Z</time>
      </trkpt>
      <trkpt lat="43.73024" lon="3.8694">
        <ele>85.2</ele>
        <time>2015-08-30T15:33:27Z</time>
      </trkpt>
      <trkpt lat="43.73017" lon="3.86945">
        <ele>85.7</ele>
        <time>2015-08-30T15:33:28Z</time>
      </trkpt>
      <trkpt lat="43.73009" lon="3.86954">
        <ele>85.7</ele>
        <time>2015-08-30T15:33:29Z</time>
      </trkpt>
      <trkpt lat="43.73" lon="3.86961">
        <ele>86.2</ele>
        <time>2015-08-30T15:33:30Z</time>
      </trkpt>
      <trkpt lat="43.7299" lon="3.86966">
        <ele>86.7</ele>
        <time>2015-08-30T15:33:31Z</time>
      </trkpt>
      <trkpt lat="43.72979" lon="3.8697">
        <ele>86.7</ele>
        <time>2015-08-30T15:33:32Z</time>
      </trkpt>
      <trkpt lat="43.72859" lon="3.8699">
        <ele>87.1</ele>
        <time>2015-08-30T15:33:41Z</time>
      </trkpt>
      <trkpt lat="43.72837" lon="3.86986">
        <ele>87.1</ele>
        <time>2015-08-30T15:33:43Z</time>
      </trkpt>
      <trkpt lat="43.72828" lon="3.86986">
        <ele>87.1</ele>
        <time>2015-08-30T15:33:44Z</time>
      </trkpt>
      <trkpt lat="43.7282" lon="3.86989">
        <ele>86.7</ele>
        <time>2015-08-30T15:33:45Z</time>
      </trkpt>
      <trkpt lat="43.7281" lon="3.86996">
        <ele>86.2</ele>
        <time>2015-08-30T15:33:46Z</time>
      </trkpt>
      <trkpt lat="43.72799" lon="3.87002">
        <ele>85.7</ele>
        <time>2015-08-30T15:33:47Z</time>
      </trkpt>
      <trkpt lat="43.72786" lon="3.87006">
        <ele>85.2</ele>
        <time>2015-08-30T15:33:48Z</time>
      </trkpt>
      <trkpt lat="43.72771" lon="3.87008">
        <ele>84.3</ele>
        <time>2015-08-30T15:33:49Z</time>
      </trkpt>
      <trkpt lat="43.72754" lon="3.87008">
        <ele>83.3</ele>
        <time>2015-08-30T15:33:50Z</time>
      </trkpt>
      <trkpt lat="43.72737" lon="3.87006">
        <ele>82.3</ele>
        <time>2015-08-30T15:33:51Z</time>
      </trkpt>
      <trkpt lat="43.72718" lon="3.87003">
        <ele>81.4</ele>
        <time>2015-08-30T15:33:52Z</time>
      </trkpt>
      <trkpt lat="43.727" lon="3.86997">
        <ele>80.9</ele>
        <time>2015-08-30T15:33:53Z</time>
      </trkpt>
      <trkpt lat="43.72664" lon="3.86979">
        <ele>80.4</ele>
        <time>2015-08-30T15:33:55Z</time>
      </trkpt>
      <trkpt lat="43.72646" lon="3.86968">
        <ele>79.9</ele>
        <time>2015-08-30T15:33:56Z</time>
      </trkpt>
      <trkpt lat="43.72494" lon="3.86898">
        <ele>78.5</ele>
        <time>2015-08-30T15:34:04Z</time>
      </trkpt>
      <trkpt lat="43.72231" lon="3.86851">
        <ele>76.1</ele>
        <time>2015-08-30T15:34:16Z</time>
      </trkpt>
      <trkpt lat="43.7221" lon="3.86851">
        <ele>77</ele>
        <time>2015-08-30T15:34:17Z</time>
      </trkpt>
      <trkpt lat="43.72189" lon="3.86856">
        <ele>77.5</ele>
        <time>2015-08-30T15:34:18Z</time>
      </trkpt>
      <trkpt lat="43.72087" lon="3.86899">
        <ele>77.5</ele>
        <time>2015-08-30T15:34:23Z</time>
      </trkpt>
      <trkpt lat="43.72065" lon="3.86902">
        <ele>77</ele>
        <time>2015-08-30T15:34:24Z</time>
      </trkpt>
      <trkpt lat="43.72042" lon="3.86901">
        <ele>76.6</ele>
        <time>2015-08-30T15:34:25Z</time>
      </trkpt>
      <trkpt lat="43.72019" lon="3.86896">
        <ele>76.1</ele>
        <time>2015-08-30T15:34:26Z</time>
      </trkpt>
      <trkpt lat="43.71996" lon="3.86888">
        <ele>75.6</ele>
        <time>2015-08-30T15:34:27Z</time>
      </trkpt>
      <trkpt lat="43.71539" lon="3.86678">
        <ele>71.3</ele>
        <time>2015-08-30T15:34:47Z</time>
      </trkpt>
      <trkpt lat="43.71445" lon="3.86658">
        <ele>71.3</ele>
        <time>2015-08-30T15:34:51Z</time>
      </trkpt>
      <trkpt lat="43.71421" lon="3.86659">
        <ele>71.3</ele>
        <time>2015-08-30T15:34:52Z</time>
      </trkpt>
      <trkpt lat="43.70796" lon="3.86789">
        <ele>68.9</ele>
        <time>2015-08-30T15:35:22Z</time>
      </trkpt>
      <trkpt lat="43.7047" lon="3.86802">
        <ele>67.9</ele>
        <time>2015-08-30T15:35:38Z</time>
      </trkpt>
      <trkpt lat="43.70381" lon="3.86762">
        <ele>68.4</ele>
        <time>2015-08-30T15:35:44Z</time>
      </trkpt>
      <trkpt lat="43.7032" lon="3.86669">
        <ele>68.9</ele>
        <time>2015-08-30T15:35:51Z</time>
      </trkpt>
      <trkpt lat="43.70216" lon="3.86375">
        <ele>65.5</ele>
        <time>2015-08-30T15:36:20Z</time>
      </trkpt>
      <trkpt lat="43.70161" lon="3.86301">
        <ele>65</ele>
        <time>2015-08-30T15:36:31Z</time>
      </trkpt>
      <trkpt lat="43.70091" lon="3.86262">
        <ele>64.6</ele>
        <time>2015-08-30T15:36:42Z</time>
      </trkpt>
      <trkpt lat="43.70064" lon="3.8624">
        <ele>64.6</ele>
        <time>2015-08-30T15:36:50Z</time>
      </trkpt>
      <trkpt lat="43.7006" lon="3.8624">
        <ele>64.6</ele>
        <time>2015-08-30T15:36:51Z</time>
      </trkpt>
      <trkpt lat="43.70051" lon="3.86245">
        <ele>64.6</ele>
        <time>2015-08-30T15:36:53Z</time>
      </trkpt>
      <trkpt lat="43.70044" lon="3.86247">
        <ele>65</ele>
        <time>2015-08-30T15:36:54Z</time>
      </trkpt>
      <trkpt lat="43.70037" lon="3.86248">
        <ele>65</ele>
        <time>2015-08-30T15:36:55Z</time>
      </trkpt>
      <trkpt lat="43.69932" lon="3.86233">
        <ele>66.5</ele>
        <time>2015-08-30T15:37:08Z</time>
      </trkpt>
      <trkpt lat="43.69873" lon="3.86252">
        <ele>67</ele>
        <time>2015-08-30T15:37:18Z</time>
      </trkpt>
      <trkpt lat="43.69806" lon="3.86295">
        <ele>68.4</ele>
        <time>2015-08-30T15:37:30Z</time>
      </trkpt>
      <trkpt lat="43.69788" lon="3.86299">
        <ele>68.9</ele>
        <time>2015-08-30T15:37:39Z</time>
      </trkpt>
      <trkpt lat="43.69754" lon="3.86298">
        <ele>67.9</ele>
        <time>2015-08-30T15:37:48Z</time>
      </trkpt>
      <trkpt lat="43.69509" lon="3.86256">
        <ele>67.9</ele>
        <time>2015-08-30T15:38:16Z</time>
      </trkpt>
      <trkpt lat="43.69428" lon="3.86249">
        <ele>67.4</ele>
        <time>2015-08-30T15:38:25Z</time>
      </trkpt>
      <trkpt lat="43.69292" lon="3.86254">
        <ele>68.4</ele>
        <time>2015-08-30T15:38:38Z</time>
      </trkpt>
      <trkpt lat="43.69172" lon="3.86279">
        <ele>68.9</ele>
        <time>2015-08-30T15:38:49Z</time>
      </trkpt>
      <trkpt lat="43.68933" lon="3.8628">
        <ele>64.6</ele>
        <time>2015-08-30T15:39:10Z</time>
      </trkpt>
      <trkpt lat="43.68686" lon="3.86368">
        <ele>60.7</ele>
        <time>2015-08-30T15:39:33Z</time>
      </trkpt>
      <trkpt lat="43.68661" lon="3.8638">
        <ele>60.7</ele>
        <time>2015-08-30T15:39:37Z</time>
      </trkpt>
      <trkpt lat="43.68641" lon="3.86386">
        <ele>60.7</ele>
        <time>2015-08-30T15:39:40Z</time>
      </trkpt>
      <trkpt lat="43.68632" lon="3.86388">
        <ele>60.2</ele>
        <time>2015-08-30T15:39:41Z</time>
      </trkpt>
      <trkpt lat="43.6855" lon="3.86394">
        <ele>59.3</ele>
        <time>2015-08-30T15:39:49Z</time>
      </trkpt>
      <trkpt lat="43.68441" lon="3.86363">
        <ele>59.7</ele>
        <time>2015-08-30T15:40:00Z</time>
      </trkpt>
      <trkpt lat="43.68425" lon="3.86358">
        <ele>59.3</ele>
        <time>2015-08-30T15:40:02Z</time>
      </trkpt>
      <trkpt lat="43.68418" lon="3.86353">
        <ele>59.3</ele>
        <time>2015-08-30T15:40:03Z</time>
      </trkpt>
      <trkpt lat="43.68411" lon="3.86348">
        <ele>59.7</ele>
        <time>2015-08-30T15:40:04Z</time>
      </trkpt>
      <trkpt lat="43.68405" lon="3.86342">
        <ele>59.7</ele>
        <time>2015-08-30T15:40:05Z</time>
      </trkpt>
      <trkpt lat="43.68399" lon="3.86335">
        <ele>59.7</ele>
        <time>2015-08-30T15:40:06Z</time>
      </trkpt>
      <trkpt lat="43.6839" lon="3.8632">
        <ele>60.7</ele>
        <time>2015-08-30T15:40:08Z</time>
      </trkpt>
      <trkpt lat="43.68385" lon="3.86313">
        <ele>60.7</ele>
        <time>2015-08-30T15:40:09Z</time>
      </trkpt>
      <trkpt lat="43.68378" lon="3.8631">
        <ele>61.2</ele>
        <time>2015-08-30T15:40:10Z</time>
      </trkpt>
      <trkpt lat="43.6837" lon="3.8631">
        <ele>61.2</ele>
        <time>2015-08-30T15:40:11Z</time>
      </trkpt>
      <trkpt lat="43.68362" lon="3.86314">
        <ele>60.7</ele>
        <time>2015-08-30T15:40:12Z</time>
      </trkpt>
      <trkpt lat="43.68345" lon="3.86327">
        <ele>60.2</ele>
        <time>2015-08-30T15:40:14Z</time>
      </trkpt>
      <trkpt lat="43.68328" lon="3.86343">
        <ele>59.7</ele>
        <time>2015-08-30T15:40:16Z</time>
      </trkpt>
      <trkpt lat="43.6832" lon="3.86353">
        <ele>59.3</ele>
        <time>2015-08-30T15:40:17Z</time>
      </trkpt>
      <trkpt lat="43.68314" lon="3.86366">
        <ele>59.3</ele>
        <time>2015-08-30T15:40:18Z</time>
      </trkpt>
      <trkpt lat="43.68302" lon="3.864">
        <ele>58.8</ele>
        <time>2015-08-30T15:40:20Z</time>
      </trkpt>
      <trkpt lat="43.68293" lon="3.86418">
        <ele>59.3</ele>
        <time>2015-08-30T15:40:21Z</time>
      </trkpt>
      <trkpt lat="43.68283" lon="3.86435">
        <ele>59.3</ele>
        <time>2015-08-30T15:40:22Z</time>
      </trkpt>
      <trkpt lat="43.6827" lon="3.86451">
        <ele>59.3</ele>
        <time>2015-08-30T15:40:23Z</time>
      </trkpt>
      <trkpt lat="43.6824" lon="3.8648">
        <ele>58.8</ele>
        <time>2015-08-30T15:40:25Z</time>
      </trkpt>
      <trkpt lat="43.6819" lon="3.86516">
        <ele>57.8</ele>
        <time>2015-08-30T15:40:28Z</time>
      </trkpt>
      <trkpt lat="43.68024" lon="3.86581">
        <ele>56.9</ele>
        <time>2015-08-30T15:40:36Z</time>
      </trkpt>
      <trkpt lat="43.67775" lon="3.86712">
        <ele>59.7</ele>
        <time>2015-08-30T15:40:49Z</time>
      </trkpt>
      <trkpt lat="43.67758" lon="3.86715">
        <ele>59.7</ele>
        <time>2015-08-30T15:40:50Z</time>
      </trkpt>
      <trkpt lat="43.67742" lon="3.86715">
        <ele>59.7</ele>
        <time>2015-08-30T15:40:51Z</time>
      </trkpt>
      <trkpt lat="43.67727" lon="3.86712">
        <ele>59.7</ele>
        <time>2015-08-30T15:40:52Z</time>
      </trkpt>
      <trkpt lat="43.67713" lon="3.86706">
        <ele>59.3</ele>
        <time>2015-08-30T15:40:53Z</time>
      </trkpt>
      <trkpt lat="43.67693" lon="3.86674">
        <ele>59.3</ele>
        <time>2015-08-30T15:40:55Z</time>
      </trkpt>
      <trkpt lat="43.67682" lon="3.86663">
        <ele>58.8</ele>
        <time>2015-08-30T15:40:56Z</time>
      </trkpt>
      <trkpt lat="43.67669" lon="3.86659">
        <ele>58.3</ele>
        <time>2015-08-30T15:40:57Z</time>
      </trkpt>
      <trkpt lat="43.67655" lon="3.86662">
        <ele>58.3</ele>
        <time>2015-08-30T15:40:58Z</time>
      </trkpt>
      <trkpt lat="43.67643" lon="3.86672">
        <ele>57.8</ele>
        <time>2015-08-30T15:40:59Z</time>
      </trkpt>
      <trkpt lat="43.67621" lon="3.86697">
        <ele>56.9</ele>
        <time>2015-08-30T15:41:01Z</time>
      </trkpt>
      <trkpt lat="43.67608" lon="3.86708">
        <ele>56.4</ele>
        <time>2015-08-30T15:41:02Z</time>
      </trkpt>
      <trkpt lat="43.67592" lon="3.86711">
        <ele>56.4</ele>
        <time>2015-08-30T15:41:03Z</time>
      </trkpt>
      <trkpt lat="43.67557" lon="3.86714">
        <ele>56.4</ele>
        <time>2015-08-30T15:41:05Z</time>
      </trkpt>
      <trkpt lat="43.67538" lon="3.86719">
        <ele>55.9</ele>
        <time>2015-08-30T15:41:06Z</time>
      </trkpt>
      <trkpt lat="43.67431" lon="3.86764">
        <ele>57.3</ele>
        <time>2015-08-30T15:41:12Z</time>
      </trkpt>
      <trkpt lat="43.67413" lon="3.86767">
        <ele>57.3</ele>
        <time>2015-08-30T15:41:13Z</time>
      </trkpt>
      <trkpt lat="43.67396" lon="3.86767">
        <ele>57.8</ele>
        <time>2015-08-30T15:41:14Z</time>
      </trkpt>
      <trkpt lat="43.67352" lon="3.86758">
        <ele>58.8</ele>
        <time>2015-08-30T15:41:19Z</time>
      </trkpt>
      <trkpt lat="43.67347" lon="3.86753">
        <ele>59.3</ele>
        <time>2015-08-30T15:41:21Z</time>
      </trkpt>
      <trkpt lat="43.67341" lon="3.8675">
        <ele>59.3</ele>
        <time>2015-08-30T15:41:22Z</time>
      </trkpt>
      <trkpt lat="43.67335" lon="3.8675">
        <ele>59.3</ele>
        <time>2015-08-30T15:41:23Z</time>
      </trkpt>
      <trkpt lat="43.67318" lon="3.86756">
        <ele>59.3</ele>
        <time>2015-08-30T15:41:25Z</time>
      </trkpt>
      <trkpt lat="43.66924" lon="3.86844">
        <ele>54</ele>
        <time>2015-08-30T15:41:45Z</time>
      </trkpt>
      <trkpt lat="43.66902" lon="3.86844">
        <ele>54.5</ele>
        <time>2015-08-30T15:41:46Z</time>
      </trkpt>
      <trkpt lat="43.66881" lon="3.86841">
        <ele>54.5</ele>
        <time>2015-08-30T15:41:47Z</time>
      </trkpt>
      <trkpt lat="43.66859" lon="3.86834">
        <ele>54</ele>
        <time>2015-08-30T15:41:48Z</time>
      </trkpt>
      <trkpt lat="43.66838" lon="3.86825">
        <ele>54</ele>
        <time>2015-08-30T15:41:49Z</time>
      </trkpt>
      <trkpt lat="43.66817" lon="3.86813">
        <ele>54</ele>
        <time>2015-08-30T15:41:50Z</time>
      </trkpt>
      <trkpt lat="43.66797" lon="3.86797">
        <ele>54</ele>
        <time>2015-08-30T15:41:51Z</time>
      </trkpt>
      <trkpt lat="43.66646" lon="3.86631">
        <ele>52.5</ele>
        <time>2015-08-30T15:41:59Z</time>
      </trkpt>
      <trkpt lat="43.66624" lon="3.86621">
        <ele>52.5</ele>
        <time>2015-08-30T15:42:00Z</time>
      </trkpt>
      <trkpt lat="43.66601" lon="3.86616">
        <ele>52.1</ele>
        <time>2015-08-30T15:42:01Z</time>
      </trkpt>
      <trkpt lat="43.66579" lon="3.86615">
        <ele>52.1</ele>
        <time>2015-08-30T15:42:02Z</time>
      </trkpt>
      <trkpt lat="43.66556" lon="3.86617">
        <ele>52.1</ele>
        <time>2015-08-30T15:42:03Z</time>
      </trkpt>
      <trkpt lat="43.66534" lon="3.86621">
        <ele>52.5</ele>
        <time>2015-08-30T15:42:04Z</time>
      </trkpt>
      <trkpt lat="43.66048" lon="3.86642">
        <ele>53</ele>
        <time>2015-08-30T15:42:26Z</time>
      </trkpt>
      <trkpt lat="43.66027" lon="3.86652">
        <ele>51.6</ele>
        <time>2015-08-30T15:42:27Z</time>
      </trkpt>
      <trkpt lat="43.66007" lon="3.86664">
        <ele>50.6</ele>
        <time>2015-08-30T15:42:28Z</time>
      </trkpt>
      <trkpt lat="43.65989" lon="3.86678">
        <ele>49.2</ele>
        <time>2015-08-30T15:42:29Z</time>
      </trkpt>
      <trkpt lat="43.65955" lon="3.86712">
        <ele>47.2</ele>
        <time>2015-08-30T15:42:31Z</time>
      </trkpt>
      <trkpt lat="43.65776" lon="3.86922">
        <ele>44.8</ele>
        <time>2015-08-30T15:42:42Z</time>
      </trkpt>
      <trkpt lat="43.656" lon="3.87086">
        <ele>44.4</ele>
        <time>2015-08-30T15:42:52Z</time>
      </trkpt>
      <trkpt lat="43.65519" lon="3.87211">
        <ele>46.8</ele>
        <time>2015-08-30T15:43:00Z</time>
      </trkpt>
      <trkpt lat="43.65512" lon="3.87219">
        <ele>47.2</ele>
        <time>2015-08-30T15:43:01Z</time>
      </trkpt>
      <trkpt lat="43.65505" lon="3.87226">
        <ele>47.7</ele>
        <time>2015-08-30T15:43:02Z</time>
      </trkpt>
      <trkpt lat="43.65497" lon="3.8723">
        <ele>48.2</ele>
        <time>2015-08-30T15:43:03Z</time>
      </trkpt>
      <trkpt lat="43.6549" lon="3.87231">
        <ele>47.7</ele>
        <time>2015-08-30T15:43:04Z</time>
      </trkpt>
      <trkpt lat="43.65483" lon="3.87223">
        <ele>47.7</ele>
        <time>2015-08-30T15:43:05Z</time>
      </trkpt>
      <trkpt lat="43.65474" lon="3.87216">
        <ele>47.7</ele>
        <time>2015-08-30T15:43:06Z</time>
      </trkpt>
      <trkpt lat="43.65464" lon="3.87209">
        <ele>47.2</ele>
        <time>2015-08-30T15:43:07Z</time>
      </trkpt>
      <trkpt lat="43.65454" lon="3.87205">
        <ele>47.2</ele>
        <time>2015-08-30T15:43:08Z</time>
      </trkpt>
      <trkpt lat="43.65442" lon="3.87202">
        <ele>46.8</ele>
        <time>2015-08-30T15:43:09Z</time>
      </trkpt>
      <trkpt lat="43.65429" lon="3.872">
        <ele>46.8</ele>
        <time>2015-08-30T15:43:10Z</time>
      </trkpt>
      <trkpt lat="43.65416" lon="3.872">
        <ele>46.8</ele>
        <time>2015-08-30T15:43:11Z</time>
      </trkpt>
      <trkpt lat="43.65402" lon="3.87202">
        <ele>46.3</ele>
        <time>2015-08-30T15:43:12Z</time>
      </trkpt>
      <trkpt lat="43.65389" lon="3.87206">
        <ele>46.3</ele>
        <time>2015-08-30T15:43:13Z</time>
      </trkpt>
      <trkpt lat="43.65375" lon="3.87212">
        <ele>46.3</ele>
        <time>2015-08-30T15:43:14Z</time>
      </trkpt>
      <trkpt lat="43.65341" lon="3.87235">
        <ele>46.3</ele>
        <time>2015-08-30T15:43:17Z</time>
      </trkpt>
      <trkpt lat="43.6533" lon="3.87238">
        <ele>46.3</ele>
        <time>2015-08-30T15:43:18Z</time>
      </trkpt>
      <trkpt lat="43.65316" lon="3.87232">
        <ele>46.3</ele>
        <time>2015-08-30T15:43:19Z</time>
      </trkpt>
      <trkpt lat="43.65301" lon="3.87223">
        <ele>46.3</ele>
        <time>2015-08-30T15:43:20Z</time>
      </trkpt>
      <trkpt lat="43.65269" lon="3.87195">
        <ele>45.3</ele>
        <time>2015-08-30T15:43:22Z</time>
      </trkpt>
      <trkpt lat="43.6524" lon="3.8716">
        <ele>44.8</ele>
        <time>2015-08-30T15:43:24Z</time>
      </trkpt>
      <trkpt lat="43.65214" lon="3.87118">
        <ele>44.8</ele>
        <time>2015-08-30T15:43:26Z</time>
      </trkpt>
      <trkpt lat="43.65193" lon="3.87071">
        <ele>44.8</ele>
        <time>2015-08-30T15:43:28Z</time>
      </trkpt>
      <trkpt lat="43.65105" lon="3.86806">
        <ele>46.3</ele>
        <time>2015-08-30T15:43:39Z</time>
      </trkpt>
      <trkpt lat="43.65003" lon="3.85853">
        <ele>54.9</ele>
        <time>2015-08-30T15:44:10Z</time>
      </trkpt>
      <trkpt lat="43.64921" lon="3.8561">
        <ele>56.4</ele>
        <time>2015-08-30T15:44:18Z</time>
      </trkpt>
      <trkpt lat="43.64816" lon="3.85482">
        <ele>56.9</ele>
        <time>2015-08-30T15:44:24Z</time>
      </trkpt>
      <trkpt lat="43.64683" lon="3.85412">
        <ele>63.6</ele>
        <time>2015-08-30T15:44:30Z</time>
      </trkpt>
      <trkpt lat="43.64551" lon="3.85317">
        <ele>69.8</ele>
        <time>2015-08-30T15:44:37Z</time>
      </trkpt>
      <trkpt lat="43.6454" lon="3.85302">
        <ele>70.8</ele>
        <time>2015-08-30T15:44:38Z</time>
      </trkpt>
      <trkpt lat="43.64532" lon="3.85288">
        <ele>71.3</ele>
        <time>2015-08-30T15:44:39Z</time>
      </trkpt>
      <trkpt lat="43.64527" lon="3.85275">
        <ele>71.8</ele>
        <time>2015-08-30T15:44:40Z</time>
      </trkpt>
      <trkpt lat="43.64522" lon="3.85235">
        <ele>72.2</ele>
        <time>2015-08-30T15:44:43Z</time>
      </trkpt>
      <trkpt lat="43.64517" lon="3.85224">
        <ele>72.2</ele>
        <time>2015-08-30T15:44:44Z</time>
      </trkpt>
      <trkpt lat="43.64511" lon="3.8522">
        <ele>71.8</ele>
        <time>2015-08-30T15:44:45Z</time>
      </trkpt>
      <trkpt lat="43.64501" lon="3.85216">
        <ele>71.3</ele>
        <time>2015-08-30T15:44:46Z</time>
      </trkpt>
      <trkpt lat="43.6449" lon="3.85208">
        <ele>71.3</ele>
        <time>2015-08-30T15:44:47Z</time>
      </trkpt>
      <trkpt lat="43.64479" lon="3.85196">
        <ele>71.3</ele>
        <time>2015-08-30T15:44:48Z</time>
      </trkpt>
      <trkpt lat="43.6428" lon="3.84812">
        <ele>71.8</ele>
        <time>2015-08-30T15:45:06Z</time>
      </trkpt>
      <trkpt lat="43.64263" lon="3.84794">
        <ele>71.3</ele>
        <time>2015-08-30T15:45:07Z</time>
      </trkpt>
      <trkpt lat="43.64246" lon="3.84778">
        <ele>69.8</ele>
        <time>2015-08-30T15:45:08Z</time>
      </trkpt>
      <trkpt lat="43.64228" lon="3.84764">
        <ele>68.9</ele>
        <time>2015-08-30T15:45:09Z</time>
      </trkpt>
      <trkpt lat="43.64208" lon="3.84753">
        <ele>67.4</ele>
        <time>2015-08-30T15:45:10Z</time>
      </trkpt>
      <trkpt lat="43.64168" lon="3.84735">
        <ele>63.6</ele>
        <time>2015-08-30T15:45:12Z</time>
      </trkpt>
      <trkpt lat="43.6393" lon="3.84664">
        <ele>52.1</ele>
        <time>2015-08-30T15:45:23Z</time>
      </trkpt>
      <trkpt lat="43.63808" lon="3.8461">
        <ele>52.5</ele>
        <time>2015-08-30T15:45:30Z</time>
      </trkpt>
      <trkpt lat="43.63636" lon="3.84455">
        <ele>52.1</ele>
        <time>2015-08-30T15:45:56Z</time>
      </trkpt>
      <trkpt lat="43.63386" lon="3.84324">
        <ele>55.4</ele>
        <time>2015-08-30T15:46:58Z</time>
      </trkpt>
      <trkpt lat="43.63277" lon="3.84298">
        <ele>54.5</ele>
        <time>2015-08-30T15:47:05Z</time>
      </trkpt>
      <trkpt lat="43.63185" lon="3.84245">
        <ele>54</ele>
        <time>2015-08-30T15:47:12Z</time>
      </trkpt>
      <trkpt lat="43.63171" lon="3.84232">
        <ele>54.5</ele>
        <time>2015-08-30T15:47:14Z</time>
      </trkpt>
      <trkpt lat="43.63166" lon="3.84222">
        <ele>54.9</ele>
        <time>2015-08-30T15:47:15Z</time>
      </trkpt>
      <trkpt lat="43.63154" lon="3.84183">
        <ele>54.9</ele>
        <time>2015-08-30T15:47:18Z</time>
      </trkpt>
      <trkpt lat="43.63147" lon="3.84171">
        <ele>55.4</ele>
        <time>2015-08-30T15:47:19Z</time>
      </trkpt>
      <trkpt lat="43.63138" lon="3.84162">
        <ele>55.4</ele>
        <time>2015-08-30T15:47:20Z</time>
      </trkpt>
      <trkpt lat="43.63128" lon="3.84156">
        <ele>55.9</ele>
        <time>2015-08-30T15:47:21Z</time>
      </trkpt>
      <trkpt lat="43.63118" lon="3.84154">
        <ele>55.9</ele>
        <time>2015-08-30T15:47:22Z</time>
      </trkpt>
      <trkpt lat="43.63107" lon="3.84156">
        <ele>55.9</ele>
        <time>2015-08-30T15:47:23Z</time>
      </trkpt>
      <trkpt lat="43.63097" lon="3.84161">
        <ele>55.4</ele>
        <time>2015-08-30T15:47:24Z</time>
      </trkpt>
      <trkpt lat="43.63075" lon="3.84176">
        <ele>55.4</ele>
        <time>2015-08-30T15:47:26Z</time>
      </trkpt>
      <trkpt lat="43.63062" lon="3.84181">
        <ele>55.4</ele>
        <time>2015-08-30T15:47:27Z</time>
      </trkpt>
      <trkpt lat="43.63047" lon="3.84182">
        <ele>55.4</ele>
        <time>2015-08-30T15:47:28Z</time>
      </trkpt>
      <trkpt lat="43.63014" lon="3.84178">
        <ele>55.9</ele>
        <time>2015-08-30T15:47:30Z</time>
      </trkpt>
      <trkpt lat="43.62888" lon="3.84131">
        <ele>57.3</ele>
        <time>2015-08-30T15:47:37Z</time>
      </trkpt>
      <trkpt lat="43.62752" lon="3.83996">
        <ele>61.7</ele>
        <time>2015-08-30T15:47:45Z</time>
      </trkpt>
      <trkpt lat="43.62553" lon="3.83678">
        <ele>72.2</ele>
        <time>2015-08-30T15:48:04Z</time>
      </trkpt>
      <trkpt lat="43.62551" lon="3.8367">
        <ele>72.7</ele>
        <time>2015-08-30T15:48:05Z</time>
      </trkpt>
      <trkpt lat="43.62551" lon="3.83659">
        <ele>72.7</ele>
        <time>2015-08-30T15:48:06Z</time>
      </trkpt>
      <trkpt lat="43.62553" lon="3.83631">
        <ele>72.7</ele>
        <time>2015-08-30T15:48:08Z</time>
      </trkpt>
      <trkpt lat="43.62552" lon="3.83616">
        <ele>72.7</ele>
        <time>2015-08-30T15:48:09Z</time>
      </trkpt>
      <trkpt lat="43.62549" lon="3.83602">
        <ele>72.7</ele>
        <time>2015-08-30T15:48:10Z</time>
      </trkpt>
      <trkpt lat="43.62542" lon="3.8359">
        <ele>72.7</ele>
        <time>2015-08-30T15:48:11Z</time>
      </trkpt>
      <trkpt lat="43.62532" lon="3.8358">
        <ele>73.2</ele>
        <time>2015-08-30T15:48:12Z</time>
      </trkpt>
      <trkpt lat="43.62521" lon="3.83573">
        <ele>73.2</ele>
        <time>2015-08-30T15:48:13Z</time>
      </trkpt>
      <trkpt lat="43.6251" lon="3.83562">
        <ele>73.2</ele>
        <time>2015-08-30T15:48:14Z</time>
      </trkpt>
      <trkpt lat="43.62502" lon="3.83546">
        <ele>73.2</ele>
        <time>2015-08-30T15:48:15Z</time>
      </trkpt>
      <trkpt lat="43.62488" lon="3.83513">
        <ele>73.2</ele>
        <time>2015-08-30T15:48:17Z</time>
      </trkpt>
      <trkpt lat="43.62418" lon="3.83417">
        <ele>72.2</ele>
        <time>2015-08-30T15:48:24Z</time>
      </trkpt>
      <trkpt lat="43.6235" lon="3.83377">
        <ele>72.2</ele>
        <time>2015-08-30T15:48:31Z</time>
      </trkpt>
      <trkpt lat="43.62345" lon="3.83369">
        <ele>72.2</ele>
        <time>2015-08-30T15:48:32Z</time>
      </trkpt>
      <trkpt lat="43.62333" lon="3.83337">
        <ele>72.2</ele>
        <time>2015-08-30T15:48:35Z</time>
      </trkpt>
      <trkpt lat="43.62327" lon="3.83329">
        <ele>71.8</ele>
        <time>2015-08-30T15:48:36Z</time>
      </trkpt>
      <trkpt lat="43.6232" lon="3.83325">
        <ele>71.8</ele>
        <time>2015-08-30T15:48:37Z</time>
      </trkpt>
      <trkpt lat="43.62311" lon="3.83323">
        <ele>71.8</ele>
        <time>2015-08-30T15:48:38Z</time>
      </trkpt>
      <trkpt lat="43.62302" lon="3.8333">
        <ele>71.8</ele>
        <time>2015-08-30T15:48:39Z</time>
      </trkpt>
      <trkpt lat="43.62293" lon="3.83341">
        <ele>71.8</ele>
        <time>2015-08-30T15:48:40Z</time>
      </trkpt>
      <trkpt lat="43.62287" lon="3.83355">
        <ele>71.8</ele>
        <time>2015-08-30T15:48:41Z</time>
      </trkpt>
      <trkpt lat="43.62284" lon="3.8337">
        <ele>71.8</ele>
        <time>2015-08-30T15:48:42Z</time>
      </trkpt>
      <trkpt lat="43.62288" lon="3.83419">
        <ele>72.7</ele>
        <time>2015-08-30T15:48:45Z</time>
      </trkpt>
      <trkpt lat="43.62285" lon="3.83434">
        <ele>73.2</ele>
        <time>2015-08-30T15:48:46Z</time>
      </trkpt>
      <trkpt lat="43.62249" lon="3.83524">
        <ele>77.5</ele>
        <time>2015-08-30T15:48:55Z</time>
      </trkpt>
      <trkpt lat="43.6219" lon="3.83607">
        <ele>79</ele>
        <time>2015-08-30T15:49:02Z</time>
      </trkpt>
      <trkpt lat="43.61984" lon="3.83771">
        <ele>78.5</ele>
        <time>2015-08-30T15:49:22Z</time>
      </trkpt>
      <trkpt lat="43.61974" lon="3.83782">
        <ele>78.5</ele>
        <time>2015-08-30T15:49:24Z</time>
      </trkpt>
      <trkpt lat="43.61971" lon="3.83788">
        <ele>78</ele>
        <time>2015-08-30T15:49:25Z</time>
      </trkpt>
      <trkpt lat="43.61971" lon="3.83796">
        <ele>77.5</ele>
        <time>2015-08-30T15:49:26Z</time>
      </trkpt>
      <trkpt lat="43.61973" lon="3.83803">
        <ele>77</ele>
        <time>2015-08-30T15:49:27Z</time>
      </trkpt>
      <trkpt lat="43.62052" lon="3.83891">
        <ele>79.5</ele>
        <time>2015-08-30T15:49:37Z</time>
      </trkpt>
      <trkpt lat="43.62096" lon="3.8396">
        <ele>74.2</ele>
        <time>2015-08-30T15:49:44Z</time>
      </trkpt>
      <trkpt lat="43.62109" lon="3.84027">
        <ele>68.9</ele>
        <time>2015-08-30T15:49:50Z</time>
      </trkpt>
      <trkpt lat="43.62109" lon="3.84035">
        <ele>68.4</ele>
        <time>2015-08-30T15:49:51Z</time>
      </trkpt>
      <trkpt lat="43.62106" lon="3.84042">
        <ele>67.9</ele>
        <time>2015-08-30T15:49:52Z</time>
      </trkpt>
      <trkpt lat="43.62103" lon="3.84046">
        <ele>67.4</ele>
        <time>2015-08-30T15:49:53Z</time>
      </trkpt>
      <trkpt lat="43.62098" lon="3.84049">
        <ele>67</ele>
        <time>2015-08-30T15:49:54Z</time>
      </trkpt>
      <trkpt lat="43.62094" lon="3.84051">
        <ele>67</ele>
        <time>2015-08-30T15:49:55Z</time>
      </trkpt>
      <trkpt lat="43.6209" lon="3.84052">
        <ele>67</ele>
        <time>2015-08-30T15:49:56Z</time>
      </trkpt>
      <trkpt lat="43.62086" lon="3.84052">
        <ele>67</ele>
        <time>2015-08-30T15:49:57Z</time>
      </trkpt>
      <trkpt lat="43.62083" lon="3.8405">
        <ele>67.4</ele>
        <time>2015-08-30T15:49:58Z</time>
      </trkpt>
    </trkseg>
  </trk>
</gpx>